<?xml version='1.0' encoding='UTF-8'?><gpx version="1.1" creator="JPX - https://github.com/jenetics/jpx" xmlns="http://www.topografix.com/GPX/1/1"><trk><trkseg><trkpt lat="45.630595" lon="8.9109117"><ele>234.99999999999997</ele><time>2026-04-04T05:33:22.949Z</time></trkpt><trkpt lat="45.63056" lon="8.910835"><ele>235.0</ele><time>2026-04-04T05:33:24.949Z</time></trkpt><trkpt lat="45.6305033" lon="8.91076"><ele>235.0</ele><time>2026-04-04T05:33:36.95Z</time></trkpt><trkpt lat="45.63039" lon="8.9107917"><ele>235.0</ele><time>2026-04-04T05:33:38.95Z</time></trkpt><trkpt lat="45.6303067" lon="8.9108433"><ele>234.99999999999997</ele><time>2026-04-04T05:33:39.949Z</time></trkpt><trkpt lat="45.63022" lon="8.910895"><ele>235.0</ele><time>2026-04-04T05:33:40.95Z</time></trkpt><trkpt lat="45.6301233" lon="8.910955"><ele>235.0</ele><time>2026-04-04T05:33:41.95Z</time></trkpt><trkpt lat="45.6300033" lon="8.91102"><ele>235.0</ele><time>2026-04-04T05:33:42.95Z</time></trkpt><trkpt lat="45.6298783" lon="8.91109"><ele>235.0</ele><time>2026-04-04T05:33:43.95Z</time></trkpt><trkpt lat="45.6297633" lon="8.9111567"><ele>235.0</ele><time>2026-04-04T05:33:44.95Z</time></trkpt><trkpt lat="45.6296583" lon="8.911215"><ele>234.99999999999997</ele><time>2026-04-04T05:33:45.95Z</time></trkpt><trkpt lat="45.6295617" lon="8.9112767"><ele>235.0</ele><time>2026-04-04T05:33:46.95Z</time></trkpt><trkpt lat="45.6294733" lon="8.91132"><ele>235.0</ele><time>2026-04-04T05:33:47.95Z</time></trkpt><trkpt lat="45.6293967" lon="8.9113517"><ele>235.0</ele><time>2026-04-04T05:33:48.95Z</time></trkpt><trkpt lat="45.62932" lon="8.911365"><ele>234.99999999999997</ele><time>2026-04-04T05:33:49.95Z</time></trkpt><trkpt lat="45.62924" lon="8.9113617"><ele>235.0</ele><time>2026-04-04T05:33:50.95Z</time></trkpt><trkpt lat="45.62916" lon="8.911325"><ele>234.4</ele><time>2026-04-04T05:33:51.95Z</time></trkpt><trkpt lat="45.62909" lon="8.911255"><ele>233.8</ele><time>2026-04-04T05:33:52.95Z</time></trkpt><trkpt lat="45.6290283" lon="8.9111567"><ele>233.2</ele><time>2026-04-04T05:33:53.95Z</time></trkpt><trkpt lat="45.6289933" lon="8.9110467"><ele>232.6</ele><time>2026-04-04T05:33:54.95Z</time></trkpt><trkpt lat="45.6289917" lon="8.9109167"><ele>232.0</ele><time>2026-04-04T05:33:55.949Z</time></trkpt><trkpt lat="45.629005" lon="8.9107667"><ele>231.2</ele><time>2026-04-04T05:33:56.95Z</time></trkpt><trkpt lat="45.6290233" lon="8.9106267"><ele>230.39999999999998</ele><time>2026-04-04T05:33:57.95Z</time></trkpt><trkpt lat="45.6290333" lon="8.910485"><ele>229.60000000000002</ele><time>2026-04-04T05:33:58.95Z</time></trkpt><trkpt lat="45.6290067" lon="8.91034"><ele>228.8</ele><time>2026-04-04T05:33:59.95Z</time></trkpt><trkpt lat="45.6289533" lon="8.9101917"><ele>228.0</ele><time>2026-04-04T05:34:00.95Z</time></trkpt><trkpt lat="45.6289033" lon="8.9100217"><ele>227.5</ele><time>2026-04-04T05:34:01.95Z</time></trkpt><trkpt lat="45.6288483" lon="8.909835"><ele>227.0</ele><time>2026-04-04T05:34:02.95Z</time></trkpt><trkpt lat="45.6288117" lon="8.9096467"><ele>226.5</ele><time>2026-04-04T05:34:03.95Z</time></trkpt><trkpt lat="45.6287633" lon="8.90944"><ele>226.0</ele><time>2026-04-04T05:34:04.95Z</time></trkpt><trkpt lat="45.628705" lon="8.9092233"><ele>226.0</ele><time>2026-04-04T05:34:05.95Z</time></trkpt><trkpt lat="45.6286517" lon="8.9090217"><ele>226.0</ele><time>2026-04-04T05:34:06.95Z</time></trkpt><trkpt lat="45.6285933" lon="8.9088283"><ele>226.0</ele><time>2026-04-04T05:34:07.95Z</time></trkpt><trkpt lat="45.6285417" lon="8.90864"><ele>226.0</ele><time>2026-04-04T05:34:08.95Z</time></trkpt><trkpt lat="45.6284983" lon="8.90845"><ele>226.25</ele><time>2026-04-04T05:34:09.949Z</time></trkpt><trkpt lat="45.6284517" lon="8.90825"><ele>226.5</ele><time>2026-04-04T05:34:10.95Z</time></trkpt><trkpt lat="45.6284" lon="8.9080517"><ele>226.75</ele><time>2026-04-04T05:34:11.95Z</time></trkpt><trkpt lat="45.6283483" lon="8.9078683"><ele>227.0</ele><time>2026-04-04T05:34:12.95Z</time></trkpt><trkpt lat="45.6282733" lon="8.9077033"><ele>227.25</ele><time>2026-04-04T05:34:13.95Z</time></trkpt><trkpt lat="45.6281733" lon="8.9075733"><ele>227.5</ele><time>2026-04-04T05:34:14.95Z</time></trkpt><trkpt lat="45.628055" lon="8.9074583"><ele>227.75</ele><time>2026-04-04T05:34:15.949Z</time></trkpt><trkpt lat="45.62793" lon="8.9073467"><ele>228.0</ele><time>2026-04-04T05:34:16.95Z</time></trkpt><trkpt lat="45.627815" lon="8.9072367"><ele>227.75</ele><time>2026-04-04T05:34:17.95Z</time></trkpt><trkpt lat="45.6277067" lon="8.90713"><ele>227.5</ele><time>2026-04-04T05:34:18.95Z</time></trkpt><trkpt lat="45.62761" lon="8.90703"><ele>227.25</ele><time>2026-04-04T05:34:19.95Z</time></trkpt><trkpt lat="45.627525" lon="8.9069367"><ele>227.0</ele><time>2026-04-04T05:34:20.95Z</time></trkpt><trkpt lat="45.6274433" lon="8.9068533"><ele>227.0</ele><time>2026-04-04T05:34:21.95Z</time></trkpt><trkpt lat="45.6273633" lon="8.9067783"><ele>227.0</ele><time>2026-04-04T05:34:22.95Z</time></trkpt><trkpt lat="45.6272733" lon="8.9066767"><ele>227.0</ele><time>2026-04-04T05:34:23.95Z</time></trkpt><trkpt lat="45.627175" lon="8.90657"><ele>227.0</ele><time>2026-04-04T05:34:24.95Z</time></trkpt><trkpt lat="45.6270767" lon="8.9064583"><ele>227.0</ele><time>2026-04-04T05:34:25.95Z</time></trkpt><trkpt lat="45.626975" lon="8.9063283"><ele>227.0</ele><time>2026-04-04T05:34:26.95Z</time></trkpt><trkpt lat="45.6268783" lon="8.90621"><ele>227.0</ele><time>2026-04-04T05:34:27.95Z</time></trkpt><trkpt lat="45.6267867" lon="8.9061033"><ele>227.0</ele><time>2026-04-04T05:34:28.95Z</time></trkpt><trkpt lat="45.6267017" lon="8.906005"><ele>227.0</ele><time>2026-04-04T05:34:29.95Z</time></trkpt><trkpt lat="45.62662" lon="8.90592"><ele>227.0</ele><time>2026-04-04T05:34:30.95Z</time></trkpt><trkpt lat="45.6265417" lon="8.9058433"><ele>227.0</ele><time>2026-04-04T05:34:31.95Z</time></trkpt><trkpt lat="45.62646" lon="8.9057617"><ele>227.0</ele><time>2026-04-04T05:34:32.95Z</time></trkpt><trkpt lat="45.6263883" lon="8.90567"><ele>227.0</ele><time>2026-04-04T05:34:33.95Z</time></trkpt><trkpt lat="45.6263217" lon="8.9055483"><ele>227.0</ele><time>2026-04-04T05:34:34.949Z</time></trkpt><trkpt lat="45.6262467" lon="8.90542"><ele>227.0</ele><time>2026-04-04T05:34:35.95Z</time></trkpt><trkpt lat="45.62617" lon="8.9052783"><ele>227.0</ele><time>2026-04-04T05:34:36.95Z</time></trkpt><trkpt lat="45.62608" lon="8.9051317"><ele>227.0</ele><time>2026-04-04T05:34:37.95Z</time></trkpt><trkpt lat="45.625985" lon="8.90498"><ele>226.5</ele><time>2026-04-04T05:34:38.949Z</time></trkpt><trkpt lat="45.6258917" lon="8.9048317"><ele>226.0</ele><time>2026-04-04T05:34:39.95Z</time></trkpt><trkpt lat="45.62579" lon="8.904675"><ele>225.5</ele><time>2026-04-04T05:34:40.95Z</time></trkpt><trkpt lat="45.6256883" lon="8.9045167"><ele>225.0</ele><time>2026-04-04T05:34:41.95Z</time></trkpt><trkpt lat="45.6255967" lon="8.90436"><ele>225.25</ele><time>2026-04-04T05:34:42.95Z</time></trkpt><trkpt lat="45.6255117" lon="8.904195"><ele>225.5</ele><time>2026-04-04T05:34:43.95Z</time></trkpt><trkpt lat="45.625435" lon="8.9040133"><ele>225.75</ele><time>2026-04-04T05:34:44.949Z</time></trkpt><trkpt lat="45.625355" lon="8.9038267"><ele>226.0</ele><time>2026-04-04T05:34:45.95Z</time></trkpt><trkpt lat="45.6252833" lon="8.903635"><ele>226.33333333333331</ele><time>2026-04-04T05:34:46.95Z</time></trkpt><trkpt lat="45.6251967" lon="8.9034517"><ele>226.66666666666669</ele><time>2026-04-04T05:34:47.95Z</time></trkpt><trkpt lat="45.6251167" lon="8.9032567"><ele>227.0</ele><time>2026-04-04T05:34:48.95Z</time></trkpt><trkpt lat="45.625025" lon="8.9030567"><ele>227.0</ele><time>2026-04-04T05:34:49.95Z</time></trkpt><trkpt lat="45.6249367" lon="8.90285"><ele>227.0</ele><time>2026-04-04T05:34:50.95Z</time></trkpt><trkpt lat="45.6248467" lon="8.90265"><ele>227.0</ele><time>2026-04-04T05:34:51.95Z</time></trkpt><trkpt lat="45.6247633" lon="8.9024533"><ele>227.0</ele><time>2026-04-04T05:34:52.95Z</time></trkpt><trkpt lat="45.6246767" lon="8.9022783"><ele>227.0</ele><time>2026-04-04T05:34:53.949Z</time></trkpt><trkpt lat="45.6245983" lon="8.9021083"><ele>227.0</ele><time>2026-04-04T05:34:54.95Z</time></trkpt><trkpt lat="45.62453" lon="8.9019533"><ele>227.0</ele><time>2026-04-04T05:34:55.949Z</time></trkpt><trkpt lat="45.6244667" lon="8.9017983"><ele>226.39999999999998</ele><time>2026-04-04T05:34:56.95Z</time></trkpt><trkpt lat="45.6244083" lon="8.90166"><ele>225.79999999999998</ele><time>2026-04-04T05:34:57.949Z</time></trkpt><trkpt lat="45.6243567" lon="8.9015217"><ele>225.2</ele><time>2026-04-04T05:34:58.95Z</time></trkpt><trkpt lat="45.624305" lon="8.9013967"><ele>224.6</ele><time>2026-04-04T05:34:59.95Z</time></trkpt><trkpt lat="45.6242417" lon="8.9012717"><ele>224.0</ele><time>2026-04-04T05:35:00.95Z</time></trkpt><trkpt lat="45.6241767" lon="8.9011333"><ele>224.0</ele><time>2026-04-04T05:35:01.95Z</time></trkpt><trkpt lat="45.6241133" lon="8.9009833"><ele>224.0</ele><time>2026-04-04T05:35:02.95Z</time></trkpt><trkpt lat="45.6240417" lon="8.9008283"><ele>224.0</ele><time>2026-04-04T05:35:03.95Z</time></trkpt><trkpt lat="45.6239767" lon="8.9006767"><ele>224.0</ele><time>2026-04-04T05:35:04.95Z</time></trkpt><trkpt lat="45.6239117" lon="8.90052"><ele>224.0</ele><time>2026-04-04T05:35:05.95Z</time></trkpt><trkpt lat="45.6238467" lon="8.90035"><ele>224.0</ele><time>2026-04-04T05:35:06.95Z</time></trkpt><trkpt lat="45.62379" lon="8.900175"><ele>224.0</ele><time>2026-04-04T05:35:07.95Z</time></trkpt><trkpt lat="45.6237417" lon="8.8999833"><ele>224.0</ele><time>2026-04-04T05:35:08.95Z</time></trkpt><trkpt lat="45.623695" lon="8.899785"><ele>224.0</ele><time>2026-04-04T05:35:09.95Z</time></trkpt><trkpt lat="45.6236517" lon="8.8995883"><ele>224.0</ele><time>2026-04-04T05:35:10.95Z</time></trkpt><trkpt lat="45.62361" lon="8.8994033"><ele>224.0</ele><time>2026-04-04T05:35:11.95Z</time></trkpt><trkpt lat="45.6235717" lon="8.8992317"><ele>224.0</ele><time>2026-04-04T05:35:12.949Z</time></trkpt><trkpt lat="45.6235283" lon="8.8990667"><ele>223.83333333333334</ele><time>2026-04-04T05:35:13.95Z</time></trkpt><trkpt lat="45.62349" lon="8.8989183"><ele>223.66666666666669</ele><time>2026-04-04T05:35:14.95Z</time></trkpt><trkpt lat="45.6234567" lon="8.8987883"><ele>223.5</ele><time>2026-04-04T05:35:15.949Z</time></trkpt><trkpt lat="45.623435" lon="8.898675"><ele>223.33333333333331</ele><time>2026-04-04T05:35:16.95Z</time></trkpt><trkpt lat="45.6234233" lon="8.8985733"><ele>223.16666666666666</ele><time>2026-04-04T05:35:17.95Z</time></trkpt><trkpt lat="45.6234267" lon="8.8984783"><ele>223.0</ele><time>2026-04-04T05:35:18.95Z</time></trkpt><trkpt lat="45.6234583" lon="8.8983733"><ele>222.49999999999997</ele><time>2026-04-04T05:35:19.95Z</time></trkpt><trkpt lat="45.6234917" lon="8.89828"><ele>222.0</ele><time>2026-04-04T05:35:20.95Z</time></trkpt><trkpt lat="45.623525" lon="8.8981883"><ele>221.5</ele><time>2026-04-04T05:35:21.95Z</time></trkpt><trkpt lat="45.6235333" lon="8.8980917"><ele>221.0</ele><time>2026-04-04T05:35:22.949Z</time></trkpt><trkpt lat="45.62345" lon="8.8979917"><ele>220.49999999999997</ele><time>2026-04-04T05:35:24.95Z</time></trkpt><trkpt lat="45.6233833" lon="8.8980133"><ele>220.0</ele><time>2026-04-04T05:35:25.95Z</time></trkpt><trkpt lat="45.6233017" lon="8.8980667"><ele>220.0</ele><time>2026-04-04T05:35:26.95Z</time></trkpt><trkpt lat="45.6232117" lon="8.8981367"><ele>220.0</ele><time>2026-04-04T05:35:27.95Z</time></trkpt><trkpt lat="45.6231233" lon="8.8981817"><ele>220.0</ele><time>2026-04-04T05:35:28.95Z</time></trkpt><trkpt lat="45.6230383" lon="8.8982167"><ele>220.0</ele><time>2026-04-04T05:35:29.95Z</time></trkpt><trkpt lat="45.6229467" lon="8.8982433"><ele>220.0</ele><time>2026-04-04T05:35:30.95Z</time></trkpt><trkpt lat="45.62284" lon="8.8982633"><ele>219.5</ele><time>2026-04-04T05:35:31.95Z</time></trkpt><trkpt lat="45.6227183" lon="8.8982767"><ele>219.0</ele><time>2026-04-04T05:35:32.949Z</time></trkpt><trkpt lat="45.62259" lon="8.8983033"><ele>218.5</ele><time>2026-04-04T05:35:33.95Z</time></trkpt><trkpt lat="45.6224717" lon="8.898325"><ele>218.0</ele><time>2026-04-04T05:35:34.95Z</time></trkpt><trkpt lat="45.6223567" lon="8.8983283"><ele>218.0</ele><time>2026-04-04T05:35:35.95Z</time></trkpt><trkpt lat="45.6222433" lon="8.898345"><ele>218.0</ele><time>2026-04-04T05:35:36.95Z</time></trkpt><trkpt lat="45.6221267" lon="8.8983833"><ele>218.0</ele><time>2026-04-04T05:35:37.95Z</time></trkpt><trkpt lat="45.6220017" lon="8.8984167"><ele>218.0</ele><time>2026-04-04T05:35:38.95Z</time></trkpt><trkpt lat="45.6218683" lon="8.8984633"><ele>218.0</ele><time>2026-04-04T05:35:39.95Z</time></trkpt><trkpt lat="45.621725" lon="8.8985167"><ele>218.0</ele><time>2026-04-04T05:35:40.95Z</time></trkpt><trkpt lat="45.6215783" lon="8.89857"><ele>218.0</ele><time>2026-04-04T05:35:41.95Z</time></trkpt><trkpt lat="45.621435" lon="8.8986167"><ele>218.0</ele><time>2026-04-04T05:35:42.95Z</time></trkpt><trkpt lat="45.6212983" lon="8.898665"><ele>218.0</ele><time>2026-04-04T05:35:43.95Z</time></trkpt><trkpt lat="45.6211533" lon="8.8987183"><ele>218.0</ele><time>2026-04-04T05:35:44.95Z</time></trkpt><trkpt lat="45.6210167" lon="8.8987617"><ele>218.0</ele><time>2026-04-04T05:35:45.95Z</time></trkpt><trkpt lat="45.6208733" lon="8.8988017"><ele>218.0</ele><time>2026-04-04T05:35:46.95Z</time></trkpt><trkpt lat="45.62073" lon="8.8988383"><ele>218.0</ele><time>2026-04-04T05:35:47.95Z</time></trkpt><trkpt lat="45.620585" lon="8.8988783"><ele>218.0</ele><time>2026-04-04T05:35:48.95Z</time></trkpt><trkpt lat="45.6204433" lon="8.8989233"><ele>218.0</ele><time>2026-04-04T05:35:49.95Z</time></trkpt><trkpt lat="45.6203117" lon="8.8989567"><ele>218.0</ele><time>2026-04-04T05:35:50.95Z</time></trkpt><trkpt lat="45.6201833" lon="8.8989933"><ele>218.0</ele><time>2026-04-04T05:35:51.95Z</time></trkpt><trkpt lat="45.62007" lon="8.899025"><ele>218.0</ele><time>2026-04-04T05:35:52.95Z</time></trkpt><trkpt lat="45.6199717" lon="8.8990717"><ele>218.0</ele><time>2026-04-04T05:35:53.95Z</time></trkpt><trkpt lat="45.6198567" lon="8.8991333"><ele>218.0</ele><time>2026-04-04T05:35:54.95Z</time></trkpt><trkpt lat="45.619755" lon="8.89922"><ele>217.75</ele><time>2026-04-04T05:35:55.95Z</time></trkpt><trkpt lat="45.619645" lon="8.8993183"><ele>217.5</ele><time>2026-04-04T05:35:56.95Z</time></trkpt><trkpt lat="45.619525" lon="8.89941"><ele>217.25</ele><time>2026-04-04T05:35:57.95Z</time></trkpt><trkpt lat="45.6194" lon="8.8995083"><ele>217.0</ele><time>2026-04-04T05:35:58.95Z</time></trkpt><trkpt lat="45.6192717" lon="8.8996017"><ele>217.66666666666666</ele><time>2026-04-04T05:35:59.95Z</time></trkpt><trkpt lat="45.6191367" lon="8.8997067"><ele>218.33333333333331</ele><time>2026-04-04T05:36:00.95Z</time></trkpt><trkpt lat="45.61899" lon="8.8998117"><ele>219.0</ele><time>2026-04-04T05:36:01.949Z</time></trkpt><trkpt lat="45.6188483" lon="8.89991"><ele>219.0</ele><time>2026-04-04T05:36:02.95Z</time></trkpt><trkpt lat="45.6187117" lon="8.9000083"><ele>219.0</ele><time>2026-04-04T05:36:03.95Z</time></trkpt><trkpt lat="45.6185667" lon="8.9001117"><ele>219.0</ele><time>2026-04-04T05:36:04.95Z</time></trkpt><trkpt lat="45.618445" lon="8.90025"><ele>219.0</ele><time>2026-04-04T05:36:05.95Z</time></trkpt><trkpt lat="45.6183167" lon="8.900395"><ele>219.0</ele><time>2026-04-04T05:36:06.95Z</time></trkpt><trkpt lat="45.6182117" lon="8.90054"><ele>219.0</ele><time>2026-04-04T05:36:07.95Z</time></trkpt><trkpt lat="45.61811" lon="8.90067"><ele>219.0</ele><time>2026-04-04T05:36:08.95Z</time></trkpt><trkpt lat="45.61802" lon="8.900785"><ele>219.0</ele><time>2026-04-04T05:36:09.95Z</time></trkpt><trkpt lat="45.6179333" lon="8.9008717"><ele>218.99999999999997</ele><time>2026-04-04T05:36:10.95Z</time></trkpt><trkpt lat="45.6178633" lon="8.9009517"><ele>218.99999999999997</ele><time>2026-04-04T05:36:11.95Z</time></trkpt><trkpt lat="45.617815" lon="8.901015"><ele>219.0</ele><time>2026-04-04T05:36:12.95Z</time></trkpt><trkpt lat="45.6177083" lon="8.901025"><ele>219.0</ele><time>2026-04-04T05:36:14.949Z</time></trkpt><trkpt lat="45.6176117" lon="8.9008483"><ele>219.0</ele><time>2026-04-04T05:36:16.95Z</time></trkpt><trkpt lat="45.6175467" lon="8.9006917"><ele>219.0</ele><time>2026-04-04T05:36:17.95Z</time></trkpt><trkpt lat="45.6174667" lon="8.90052"><ele>219.0</ele><time>2026-04-04T05:36:18.95Z</time></trkpt><trkpt lat="45.617375" lon="8.9003617"><ele>219.0</ele><time>2026-04-04T05:36:19.95Z</time></trkpt><trkpt lat="45.6172817" lon="8.9002183"><ele>218.66666666666669</ele><time>2026-04-04T05:36:20.95Z</time></trkpt><trkpt lat="45.6171717" lon="8.900065"><ele>218.33333333333334</ele><time>2026-04-04T05:36:21.949Z</time></trkpt><trkpt lat="45.6170567" lon="8.8999067"><ele>218.0</ele><time>2026-04-04T05:36:22.95Z</time></trkpt><trkpt lat="45.6169317" lon="8.899755"><ele>217.5</ele><time>2026-04-04T05:36:23.95Z</time></trkpt><trkpt lat="45.61682" lon="8.899605"><ele>217.0</ele><time>2026-04-04T05:36:24.95Z</time></trkpt><trkpt lat="45.616715" lon="8.8994633"><ele>216.5</ele><time>2026-04-04T05:36:25.95Z</time></trkpt><trkpt lat="45.6166133" lon="8.8993117"><ele>216.0</ele><time>2026-04-04T05:36:26.95Z</time></trkpt><trkpt lat="45.61651" lon="8.8991567"><ele>214.33333333333331</ele><time>2026-04-04T05:36:27.95Z</time></trkpt><trkpt lat="45.6164083" lon="8.8990117"><ele>212.66666666666666</ele><time>2026-04-04T05:36:28.95Z</time></trkpt><trkpt lat="45.6163033" lon="8.8988533"><ele>211.0</ele><time>2026-04-04T05:36:29.95Z</time></trkpt><trkpt lat="45.6161917" lon="8.8987"><ele>211.66666666666666</ele><time>2026-04-04T05:36:30.949Z</time></trkpt><trkpt lat="45.616075" lon="8.89855"><ele>212.33333333333331</ele><time>2026-04-04T05:36:31.95Z</time></trkpt><trkpt lat="45.6159483" lon="8.8984017"><ele>213.0</ele><time>2026-04-04T05:36:32.949Z</time></trkpt><trkpt lat="45.6158233" lon="8.8982433"><ele>213.0</ele><time>2026-04-04T05:36:33.95Z</time></trkpt><trkpt lat="45.6157017" lon="8.8980983"><ele>213.0</ele><time>2026-04-04T05:36:34.95Z</time></trkpt><trkpt lat="45.6155817" lon="8.89796"><ele>213.0</ele><time>2026-04-04T05:36:35.95Z</time></trkpt><trkpt lat="45.61547" lon="8.8978217"><ele>213.0</ele><time>2026-04-04T05:36:36.95Z</time></trkpt><trkpt lat="45.6153667" lon="8.8976917"><ele>213.0</ele><time>2026-04-04T05:36:37.95Z</time></trkpt><trkpt lat="45.6152767" lon="8.8975667"><ele>213.0</ele><time>2026-04-04T05:36:38.95Z</time></trkpt><trkpt lat="45.6152017" lon="8.897455"><ele>213.0</ele><time>2026-04-04T05:36:39.95Z</time></trkpt><trkpt lat="45.6151267" lon="8.8973567"><ele>213.66666666666666</ele><time>2026-04-04T05:36:40.949Z</time></trkpt><trkpt lat="45.6150583" lon="8.89726"><ele>214.33333333333331</ele><time>2026-04-04T05:36:41.95Z</time></trkpt><trkpt lat="45.6149967" lon="8.897175"><ele>215.0</ele><time>2026-04-04T05:36:42.95Z</time></trkpt><trkpt lat="45.6149433" lon="8.897095"><ele>215.66666666666666</ele><time>2026-04-04T05:36:43.95Z</time></trkpt><trkpt lat="45.61486" lon="8.897"><ele>216.33333333333331</ele><time>2026-04-04T05:36:45.95Z</time></trkpt><trkpt lat="45.6147933" lon="8.8969283"><ele>217.0</ele><time>2026-04-04T05:36:47.95Z</time></trkpt><trkpt lat="45.6147067" lon="8.89686"><ele>217.0</ele><time>2026-04-04T05:36:49.95Z</time></trkpt><trkpt lat="45.6146433" lon="8.896755"><ele>217.0</ele><time>2026-04-04T05:36:51.949Z</time></trkpt><trkpt lat="45.6145433" lon="8.8965983"><ele>217.0</ele><time>2026-04-04T05:36:58.949Z</time></trkpt><trkpt lat="45.61446" lon="8.89655"><ele>217.0</ele><time>2026-04-04T05:36:59.948Z</time></trkpt><trkpt lat="45.6143683" lon="8.8964767"><ele>217.0</ele><time>2026-04-04T05:37:00.949Z</time></trkpt><trkpt lat="45.6142783" lon="8.896385"><ele>217.75</ele><time>2026-04-04T05:37:01.949Z</time></trkpt><trkpt lat="45.6141933" lon="8.896245"><ele>218.5</ele><time>2026-04-04T05:37:02.949Z</time></trkpt><trkpt lat="45.6141067" lon="8.8960833"><ele>219.25</ele><time>2026-04-04T05:37:03.949Z</time></trkpt><trkpt lat="45.61403" lon="8.8959233"><ele>220.0</ele><time>2026-04-04T05:37:04.949Z</time></trkpt><trkpt lat="45.6139567" lon="8.89575"><ele>220.0</ele><time>2026-04-04T05:37:05.949Z</time></trkpt><trkpt lat="45.6138733" lon="8.89557"><ele>220.0</ele><time>2026-04-04T05:37:06.949Z</time></trkpt><trkpt lat="45.6137883" lon="8.8953933"><ele>220.0</ele><time>2026-04-04T05:37:07.949Z</time></trkpt><trkpt lat="45.6137033" lon="8.8952117"><ele>220.0</ele><time>2026-04-04T05:37:08.949Z</time></trkpt><trkpt lat="45.6136167" lon="8.8950233"><ele>220.0</ele><time>2026-04-04T05:37:09.948Z</time></trkpt><trkpt lat="45.61354" lon="8.8948517"><ele>220.0</ele><time>2026-04-04T05:37:10.949Z</time></trkpt><trkpt lat="45.6134867" lon="8.8946883"><ele>220.0</ele><time>2026-04-04T05:37:11.949Z</time></trkpt><trkpt lat="45.6134333" lon="8.8945333"><ele>220.0</ele><time>2026-04-04T05:37:12.949Z</time></trkpt><trkpt lat="45.6134033" lon="8.8943817"><ele>220.0</ele><time>2026-04-04T05:37:13.949Z</time></trkpt><trkpt lat="45.6133683" lon="8.89425"><ele>220.0</ele><time>2026-04-04T05:37:14.949Z</time></trkpt><trkpt lat="45.6133417" lon="8.8941017"><ele>220.0</ele><time>2026-04-04T05:37:15.949Z</time></trkpt><trkpt lat="45.6133083" lon="8.89396"><ele>220.0</ele><time>2026-04-04T05:37:16.949Z</time></trkpt><trkpt lat="45.6132617" lon="8.893805"><ele>220.0</ele><time>2026-04-04T05:37:17.949Z</time></trkpt><trkpt lat="45.6132033" lon="8.8936367"><ele>220.0</ele><time>2026-04-04T05:37:18.949Z</time></trkpt><trkpt lat="45.613125" lon="8.8934867"><ele>220.0</ele><time>2026-04-04T05:37:19.949Z</time></trkpt><trkpt lat="45.6130267" lon="8.8933533"><ele>220.0</ele><time>2026-04-04T05:37:20.949Z</time></trkpt><trkpt lat="45.6129183" lon="8.8932"><ele>220.33333333333331</ele><time>2026-04-04T05:37:21.948Z</time></trkpt><trkpt lat="45.6128317" lon="8.8930183"><ele>220.66666666666669</ele><time>2026-04-04T05:37:22.949Z</time></trkpt><trkpt lat="45.61274" lon="8.892845"><ele>221.0</ele><time>2026-04-04T05:37:23.948Z</time></trkpt><trkpt lat="45.6126433" lon="8.8926767"><ele>221.66666666666669</ele><time>2026-04-04T05:37:24.949Z</time></trkpt><trkpt lat="45.61256" lon="8.8925083"><ele>222.33333333333331</ele><time>2026-04-04T05:37:25.948Z</time></trkpt><trkpt lat="45.61248" lon="8.89233"><ele>223.0</ele><time>2026-04-04T05:37:26.948Z</time></trkpt><trkpt lat="45.6124033" lon="8.8921283"><ele>223.0</ele><time>2026-04-04T05:37:27.949Z</time></trkpt><trkpt lat="45.6123283" lon="8.8919317"><ele>223.0</ele><time>2026-04-04T05:37:28.949Z</time></trkpt><trkpt lat="45.6122433" lon="8.8917567"><ele>223.0</ele><time>2026-04-04T05:37:29.949Z</time></trkpt><trkpt lat="45.6121633" lon="8.89158"><ele>222.75</ele><time>2026-04-04T05:37:30.949Z</time></trkpt><trkpt lat="45.612085" lon="8.8914133"><ele>222.5</ele><time>2026-04-04T05:37:31.948Z</time></trkpt><trkpt lat="45.6120033" lon="8.89124"><ele>222.25</ele><time>2026-04-04T05:37:32.949Z</time></trkpt><trkpt lat="45.6119133" lon="8.8910683"><ele>222.0</ele><time>2026-04-04T05:37:33.949Z</time></trkpt><trkpt lat="45.6118267" lon="8.8908767"><ele>222.0</ele><time>2026-04-04T05:37:34.948Z</time></trkpt><trkpt lat="45.6117317" lon="8.8906967"><ele>222.0</ele><time>2026-04-04T05:37:35.948Z</time></trkpt><trkpt lat="45.6116017" lon="8.8905617"><ele>222.0</ele><time>2026-04-04T05:37:36.949Z</time></trkpt><trkpt lat="45.611505" lon="8.8904017"><ele>222.0</ele><time>2026-04-04T05:37:37.949Z</time></trkpt><trkpt lat="45.611395" lon="8.8902667"><ele>222.0</ele><time>2026-04-04T05:37:38.949Z</time></trkpt><trkpt lat="45.6112983" lon="8.89014"><ele>222.0</ele><time>2026-04-04T05:37:39.949Z</time></trkpt><trkpt lat="45.61122" lon="8.8900017"><ele>222.0</ele><time>2026-04-04T05:37:40.949Z</time></trkpt><trkpt lat="45.61114" lon="8.889855"><ele>222.25</ele><time>2026-04-04T05:37:41.949Z</time></trkpt><trkpt lat="45.6110683" lon="8.88969"><ele>222.5</ele><time>2026-04-04T05:37:42.949Z</time></trkpt><trkpt lat="45.6110283" lon="8.889515"><ele>222.75</ele><time>2026-04-04T05:37:43.949Z</time></trkpt><trkpt lat="45.6109833" lon="8.8893483"><ele>223.0</ele><time>2026-04-04T05:37:44.949Z</time></trkpt><trkpt lat="45.6109217" lon="8.8892017"><ele>223.60000000000002</ele><time>2026-04-04T05:37:45.949Z</time></trkpt><trkpt lat="45.6108733" lon="8.88906"><ele>224.20000000000002</ele><time>2026-04-04T05:37:46.949Z</time></trkpt><trkpt lat="45.61083" lon="8.888935"><ele>224.8</ele><time>2026-04-04T05:37:47.949Z</time></trkpt><trkpt lat="45.6107917" lon="8.8888467"><ele>225.4</ele><time>2026-04-04T05:37:48.949Z</time></trkpt><trkpt lat="45.61074" lon="8.888725"><ele>226.0</ele><time>2026-04-04T05:37:50.949Z</time></trkpt><trkpt lat="45.6107" lon="8.8886317"><ele>226.0</ele><time>2026-04-04T05:38:51.949Z</time></trkpt><trkpt lat="45.6106383" lon="8.8885333"><ele>226.00000000000003</ele><time>2026-04-04T05:38:53.949Z</time></trkpt><trkpt lat="45.6105733" lon="8.88851"><ele>226.00000000000003</ele><time>2026-04-04T05:38:54.949Z</time></trkpt><trkpt lat="45.6104933" lon="8.8885133"><ele>226.0</ele><time>2026-04-04T05:38:55.949Z</time></trkpt><trkpt lat="45.6103883" lon="8.8885483"><ele>226.0</ele><time>2026-04-04T05:38:56.949Z</time></trkpt><trkpt lat="45.610265" lon="8.888615"><ele>226.66666666666666</ele><time>2026-04-04T05:38:57.948Z</time></trkpt><trkpt lat="45.610125" lon="8.8886983"><ele>227.33333333333331</ele><time>2026-04-04T05:38:58.949Z</time></trkpt><trkpt lat="45.6099767" lon="8.8887833"><ele>228.0</ele><time>2026-04-04T05:38:59.949Z</time></trkpt><trkpt lat="45.6098317" lon="8.8888767"><ele>228.0</ele><time>2026-04-04T05:39:00.949Z</time></trkpt><trkpt lat="45.6096733" lon="8.8889667"><ele>228.0</ele><time>2026-04-04T05:39:01.949Z</time></trkpt><trkpt lat="45.6095183" lon="8.8890717"><ele>228.0</ele><time>2026-04-04T05:39:02.949Z</time></trkpt><trkpt lat="45.60935" lon="8.8891633"><ele>226.66666666666669</ele><time>2026-04-04T05:39:03.949Z</time></trkpt><trkpt lat="45.6091783" lon="8.889265"><ele>225.33333333333334</ele><time>2026-04-04T05:39:04.949Z</time></trkpt><trkpt lat="45.6090267" lon="8.88938"><ele>224.0</ele><time>2026-04-04T05:39:05.949Z</time></trkpt><trkpt lat="45.6088517" lon="8.8894767"><ele>224.0</ele><time>2026-04-04T05:39:06.949Z</time></trkpt><trkpt lat="45.6086717" lon="8.8895867"><ele>224.0</ele><time>2026-04-04T05:39:07.949Z</time></trkpt><trkpt lat="45.6085" lon="8.88968"><ele>224.0</ele><time>2026-04-04T05:39:08.948Z</time></trkpt><trkpt lat="45.6083433" lon="8.889775"><ele>223.66666666666669</ele><time>2026-04-04T05:39:09.948Z</time></trkpt><trkpt lat="45.6082" lon="8.8898633"><ele>223.33333333333331</ele><time>2026-04-04T05:39:10.949Z</time></trkpt><trkpt lat="45.60806" lon="8.88994"><ele>223.0</ele><time>2026-04-04T05:39:11.949Z</time></trkpt><trkpt lat="45.607925" lon="8.8900133"><ele>223.0</ele><time>2026-04-04T05:39:12.948Z</time></trkpt><trkpt lat="45.6078017" lon="8.890085"><ele>223.0</ele><time>2026-04-04T05:39:13.949Z</time></trkpt><trkpt lat="45.6076883" lon="8.8901517"><ele>223.0</ele><time>2026-04-04T05:39:14.949Z</time></trkpt><trkpt lat="45.60758" lon="8.890215"><ele>223.0</ele><time>2026-04-04T05:39:15.949Z</time></trkpt><trkpt lat="45.6074833" lon="8.89027"><ele>223.0</ele><time>2026-04-04T05:39:16.949Z</time></trkpt><trkpt lat="45.6074017" lon="8.890315"><ele>223.0</ele><time>2026-04-04T05:39:17.949Z</time></trkpt><trkpt lat="45.6072917" lon="8.8903217"><ele>223.0</ele><time>2026-04-04T05:39:19.949Z</time></trkpt><trkpt lat="45.607235" lon="8.89015"><ele>223.0</ele><time>2026-04-04T05:39:21.949Z</time></trkpt><trkpt lat="45.60721" lon="8.89002"><ele>223.0</ele><time>2026-04-04T05:39:22.949Z</time></trkpt><trkpt lat="45.6071867" lon="8.8898617"><ele>223.0</ele><time>2026-04-04T05:39:23.949Z</time></trkpt><trkpt lat="45.6071583" lon="8.8896867"><ele>223.0</ele><time>2026-04-04T05:39:24.949Z</time></trkpt><trkpt lat="45.6071167" lon="8.8895033"><ele>223.0</ele><time>2026-04-04T05:39:25.949Z</time></trkpt><trkpt lat="45.6070683" lon="8.889315"><ele>223.0</ele><time>2026-04-04T05:39:26.949Z</time></trkpt><trkpt lat="45.6070167" lon="8.8891417"><ele>223.0</ele><time>2026-04-04T05:39:27.949Z</time></trkpt><trkpt lat="45.6069617" lon="8.8889517"><ele>223.0</ele><time>2026-04-04T05:39:28.949Z</time></trkpt><trkpt lat="45.6069017" lon="8.8887617"><ele>223.0</ele><time>2026-04-04T05:39:29.949Z</time></trkpt><trkpt lat="45.6068517" lon="8.8885533"><ele>223.0</ele><time>2026-04-04T05:39:30.948Z</time></trkpt><trkpt lat="45.60678" lon="8.8883317"><ele>223.0</ele><time>2026-04-04T05:39:31.949Z</time></trkpt><trkpt lat="45.6067183" lon="8.8881283"><ele>223.0</ele><time>2026-04-04T05:39:32.949Z</time></trkpt><trkpt lat="45.6066667" lon="8.887905"><ele>223.0</ele><time>2026-04-04T05:39:33.949Z</time></trkpt><trkpt lat="45.6066133" lon="8.8877117"><ele>222.0</ele><time>2026-04-04T05:39:34.949Z</time></trkpt><trkpt lat="45.6065533" lon="8.887515"><ele>221.0</ele><time>2026-04-04T05:39:35.949Z</time></trkpt><trkpt lat="45.6064967" lon="8.8873067"><ele>220.0</ele><time>2026-04-04T05:39:36.949Z</time></trkpt><trkpt lat="45.6064467" lon="8.887095"><ele>220.0</ele><time>2026-04-04T05:39:37.949Z</time></trkpt><trkpt lat="45.6063883" lon="8.8868833"><ele>220.0</ele><time>2026-04-04T05:39:38.949Z</time></trkpt><trkpt lat="45.60633" lon="8.8866733"><ele>220.0</ele><time>2026-04-04T05:39:39.949Z</time></trkpt><trkpt lat="45.606275" lon="8.8864617"><ele>220.0</ele><time>2026-04-04T05:39:40.949Z</time></trkpt><trkpt lat="45.6062167" lon="8.8862533"><ele>220.0</ele><time>2026-04-04T05:39:41.949Z</time></trkpt><trkpt lat="45.606155" lon="8.8860417"><ele>220.0</ele><time>2026-04-04T05:39:42.949Z</time></trkpt><trkpt lat="45.606095" lon="8.885835"><ele>220.66666666666666</ele><time>2026-04-04T05:39:43.949Z</time></trkpt><trkpt lat="45.606035" lon="8.8856333"><ele>221.33333333333331</ele><time>2026-04-04T05:39:44.949Z</time></trkpt><trkpt lat="45.60597" lon="8.8854417"><ele>222.0</ele><time>2026-04-04T05:39:45.949Z</time></trkpt><trkpt lat="45.6059033" lon="8.8852533"><ele>222.0</ele><time>2026-04-04T05:39:46.948Z</time></trkpt><trkpt lat="45.6058517" lon="8.88506"><ele>222.0</ele><time>2026-04-04T05:39:47.949Z</time></trkpt><trkpt lat="45.6057867" lon="8.8848683"><ele>222.0</ele><time>2026-04-04T05:39:48.949Z</time></trkpt><trkpt lat="45.6057183" lon="8.8846667"><ele>222.0</ele><time>2026-04-04T05:39:49.948Z</time></trkpt><trkpt lat="45.605655" lon="8.8844617"><ele>222.0</ele><time>2026-04-04T05:39:50.949Z</time></trkpt><trkpt lat="45.6055917" lon="8.884255"><ele>222.0</ele><time>2026-04-04T05:39:51.948Z</time></trkpt><trkpt lat="45.6055283" lon="8.88404"><ele>221.33333333333331</ele><time>2026-04-04T05:39:52.949Z</time></trkpt><trkpt lat="45.6054533" lon="8.883815"><ele>220.66666666666666</ele><time>2026-04-04T05:39:53.948Z</time></trkpt><trkpt lat="45.6053817" lon="8.8835933"><ele>220.0</ele><time>2026-04-04T05:39:54.949Z</time></trkpt><trkpt lat="45.60532" lon="8.8833783"><ele>220.0</ele><time>2026-04-04T05:39:55.949Z</time></trkpt><trkpt lat="45.6052583" lon="8.883175"><ele>220.0</ele><time>2026-04-04T05:39:56.949Z</time></trkpt><trkpt lat="45.6052017" lon="8.8829733"><ele>220.0</ele><time>2026-04-04T05:39:57.949Z</time></trkpt><trkpt lat="45.6051467" lon="8.8828017"><ele>220.0</ele><time>2026-04-04T05:39:58.949Z</time></trkpt><trkpt lat="45.6050933" lon="8.8826183"><ele>220.0</ele><time>2026-04-04T05:39:59.949Z</time></trkpt><trkpt lat="45.6050367" lon="8.8824167"><ele>220.0</ele><time>2026-04-04T05:40:00.949Z</time></trkpt><trkpt lat="45.6050067" lon="8.8822183"><ele>220.0</ele><time>2026-04-04T05:40:01.949Z</time></trkpt><trkpt lat="45.6049667" lon="8.88201"><ele>220.0</ele><time>2026-04-04T05:40:02.949Z</time></trkpt><trkpt lat="45.6049417" lon="8.8817983"><ele>220.66666666666666</ele><time>2026-04-04T05:40:03.949Z</time></trkpt><trkpt lat="45.6049317" lon="8.881565"><ele>221.33333333333331</ele><time>2026-04-04T05:40:04.949Z</time></trkpt><trkpt lat="45.6049233" lon="8.8813417"><ele>222.0</ele><time>2026-04-04T05:40:05.948Z</time></trkpt><trkpt lat="45.6049" lon="8.8811383"><ele>222.0</ele><time>2026-04-04T05:40:06.949Z</time></trkpt><trkpt lat="45.6048767" lon="8.8809517"><ele>222.0</ele><time>2026-04-04T05:40:07.949Z</time></trkpt><trkpt lat="45.6048633" lon="8.8807783"><ele>222.0</ele><time>2026-04-04T05:40:08.949Z</time></trkpt><trkpt lat="45.60486" lon="8.8806133"><ele>222.0</ele><time>2026-04-04T05:40:09.949Z</time></trkpt><trkpt lat="45.6048667" lon="8.88046"><ele>221.8</ele><time>2026-04-04T05:40:10.949Z</time></trkpt><trkpt lat="45.6048817" lon="8.880315"><ele>221.6</ele><time>2026-04-04T05:40:11.949Z</time></trkpt><trkpt lat="45.6049" lon="8.8801883"><ele>221.40000000000003</ele><time>2026-04-04T05:40:12.949Z</time></trkpt><trkpt lat="45.6049" lon="8.8800683"><ele>221.20000000000002</ele><time>2026-04-04T05:40:13.949Z</time></trkpt><trkpt lat="45.6048617" lon="8.879945"><ele>221.0</ele><time>2026-04-04T05:40:14.949Z</time></trkpt><trkpt lat="45.60478" lon="8.8798283"><ele>220.8</ele><time>2026-04-04T05:40:15.949Z</time></trkpt><trkpt lat="45.6046917" lon="8.8797333"><ele>220.60000000000002</ele><time>2026-04-04T05:40:16.948Z</time></trkpt><trkpt lat="45.6046083" lon="8.8796367"><ele>220.4</ele><time>2026-04-04T05:40:17.949Z</time></trkpt><trkpt lat="45.6045317" lon="8.8795567"><ele>220.2</ele><time>2026-04-04T05:40:18.949Z</time></trkpt><trkpt lat="45.6044617" lon="8.8794817"><ele>220.0</ele><time>2026-04-04T05:40:19.949Z</time></trkpt><trkpt lat="45.604385" lon="8.8794033"><ele>220.4</ele><time>2026-04-04T05:40:20.949Z</time></trkpt><trkpt lat="45.6043417" lon="8.87932"><ele>220.8</ele><time>2026-04-04T05:40:21.949Z</time></trkpt><trkpt lat="45.6043267" lon="8.8792083"><ele>221.2</ele><time>2026-04-04T05:40:22.949Z</time></trkpt><trkpt lat="45.604345" lon="8.8790717"><ele>221.6</ele><time>2026-04-04T05:40:23.948Z</time></trkpt><trkpt lat="45.6043783" lon="8.878915"><ele>222.0</ele><time>2026-04-04T05:40:24.949Z</time></trkpt><trkpt lat="45.6044117" lon="8.8787483"><ele>222.0</ele><time>2026-04-04T05:40:25.949Z</time></trkpt><trkpt lat="45.60445" lon="8.8785933"><ele>222.0</ele><time>2026-04-04T05:40:26.949Z</time></trkpt><trkpt lat="45.6044717" lon="8.8784367"><ele>222.0</ele><time>2026-04-04T05:40:27.949Z</time></trkpt><trkpt lat="45.6044833" lon="8.87826"><ele>222.0</ele><time>2026-04-04T05:40:28.949Z</time></trkpt><trkpt lat="45.6044817" lon="8.8780717"><ele>221.66666666666669</ele><time>2026-04-04T05:40:29.949Z</time></trkpt><trkpt lat="45.6044933" lon="8.87786"><ele>221.33333333333334</ele><time>2026-04-04T05:40:30.949Z</time></trkpt><trkpt lat="45.6045117" lon="8.87764"><ele>221.0</ele><time>2026-04-04T05:40:31.948Z</time></trkpt><trkpt lat="45.6045383" lon="8.8774233"><ele>221.0</ele><time>2026-04-04T05:40:32.949Z</time></trkpt><trkpt lat="45.604565" lon="8.8772267"><ele>221.0</ele><time>2026-04-04T05:40:33.949Z</time></trkpt><trkpt lat="45.604595" lon="8.8770383"><ele>221.0</ele><time>2026-04-04T05:40:34.949Z</time></trkpt><trkpt lat="45.6046133" lon="8.876875"><ele>221.0</ele><time>2026-04-04T05:40:35.949Z</time></trkpt><trkpt lat="45.6046367" lon="8.8767317"><ele>221.16666666666669</ele><time>2026-04-04T05:40:36.949Z</time></trkpt><trkpt lat="45.604655" lon="8.8766067"><ele>221.33333333333334</ele><time>2026-04-04T05:40:37.949Z</time></trkpt><trkpt lat="45.60467" lon="8.8765083"><ele>221.5</ele><time>2026-04-04T05:40:38.949Z</time></trkpt><trkpt lat="45.6046767" lon="8.8763417"><ele>221.66666666666669</ele><time>2026-04-04T05:40:40.949Z</time></trkpt><trkpt lat="45.6046933" lon="8.8762233"><ele>221.83333333333334</ele><time>2026-04-04T05:40:42.949Z</time></trkpt><trkpt lat="45.6046983" lon="8.8761067"><ele>222.0</ele><time>2026-04-04T05:40:44.949Z</time></trkpt><trkpt lat="45.6046383" lon="8.8760483"><ele>222.0</ele><time>2026-04-04T05:40:46.949Z</time></trkpt><trkpt lat="45.6045733" lon="8.87606"><ele>222.0</ele><time>2026-04-04T05:40:47.949Z</time></trkpt><trkpt lat="45.6044883" lon="8.8761"><ele>222.0</ele><time>2026-04-04T05:40:48.949Z</time></trkpt><trkpt lat="45.6043733" lon="8.876135"><ele>222.0</ele><time>2026-04-04T05:40:49.949Z</time></trkpt><trkpt lat="45.6042517" lon="8.8761767"><ele>222.0</ele><time>2026-04-04T05:40:50.948Z</time></trkpt><trkpt lat="45.604125" lon="8.8762133"><ele>222.0</ele><time>2026-04-04T05:40:51.949Z</time></trkpt><trkpt lat="45.6040117" lon="8.8762533"><ele>222.0</ele><time>2026-04-04T05:40:52.949Z</time></trkpt><trkpt lat="45.6038933" lon="8.8762917"><ele>222.0</ele><time>2026-04-04T05:40:53.949Z</time></trkpt><trkpt lat="45.6037733" lon="8.8763217"><ele>222.0</ele><time>2026-04-04T05:40:54.949Z</time></trkpt><trkpt lat="45.6036367" lon="8.8763667"><ele>221.25</ele><time>2026-04-04T05:40:55.949Z</time></trkpt><trkpt lat="45.6035067" lon="8.8764133"><ele>220.5</ele><time>2026-04-04T05:40:56.949Z</time></trkpt><trkpt lat="45.60337" lon="8.8764567"><ele>219.75</ele><time>2026-04-04T05:40:57.948Z</time></trkpt><trkpt lat="45.6032283" lon="8.8764983"><ele>219.0</ele><time>2026-04-04T05:40:58.949Z</time></trkpt><trkpt lat="45.6030933" lon="8.8765417"><ele>219.0</ele><time>2026-04-04T05:40:59.949Z</time></trkpt><trkpt lat="45.602955" lon="8.8765867"><ele>219.0</ele><time>2026-04-04T05:41:00.949Z</time></trkpt><trkpt lat="45.6028083" lon="8.8766333"><ele>219.0</ele><time>2026-04-04T05:41:01.949Z</time></trkpt><trkpt lat="45.6026717" lon="8.8766917"><ele>219.0</ele><time>2026-04-04T05:41:02.949Z</time></trkpt><trkpt lat="45.602535" lon="8.876755"><ele>219.33333333333331</ele><time>2026-04-04T05:41:03.949Z</time></trkpt><trkpt lat="45.6023967" lon="8.8768267"><ele>219.66666666666666</ele><time>2026-04-04T05:41:04.949Z</time></trkpt><trkpt lat="45.602255" lon="8.8768967"><ele>220.0</ele><time>2026-04-04T05:41:05.948Z</time></trkpt><trkpt lat="45.6021117" lon="8.8769733"><ele>220.25</ele><time>2026-04-04T05:41:06.949Z</time></trkpt><trkpt lat="45.6019683" lon="8.8770433"><ele>220.5</ele><time>2026-04-04T05:41:07.949Z</time></trkpt><trkpt lat="45.6018383" lon="8.8771183"><ele>220.75</ele><time>2026-04-04T05:41:08.949Z</time></trkpt><trkpt lat="45.60172" lon="8.87719"><ele>221.0</ele><time>2026-04-04T05:41:09.949Z</time></trkpt><trkpt lat="45.6016083" lon="8.8772633"><ele>221.0</ele><time>2026-04-04T05:41:10.948Z</time></trkpt><trkpt lat="45.6015033" lon="8.8773283"><ele>221.00000000000003</ele><time>2026-04-04T05:41:11.949Z</time></trkpt><trkpt lat="45.60141" lon="8.877385"><ele>221.00000000000003</ele><time>2026-04-04T05:41:12.949Z</time></trkpt><trkpt lat="45.6013217" lon="8.8774333"><ele>221.0</ele><time>2026-04-04T05:41:13.949Z</time></trkpt><trkpt lat="45.601245" lon="8.877485"><ele>221.0</ele><time>2026-04-04T05:41:14.949Z</time></trkpt><trkpt lat="45.60118" lon="8.8775333"><ele>220.8</ele><time>2026-04-04T05:41:15.948Z</time></trkpt><trkpt lat="45.6011017" lon="8.8775817"><ele>220.60000000000002</ele><time>2026-04-04T05:41:17.949Z</time></trkpt><trkpt lat="45.6010233" lon="8.8775883"><ele>220.4</ele><time>2026-04-04T05:41:21.949Z</time></trkpt><trkpt lat="45.6009717" lon="8.8774617"><ele>220.2</ele><time>2026-04-04T05:41:23.949Z</time></trkpt><trkpt lat="45.6009367" lon="8.8773367"><ele>220.0</ele><time>2026-04-04T05:41:24.948Z</time></trkpt><trkpt lat="45.6008967" lon="8.8771767"><ele>220.0</ele><time>2026-04-04T05:41:25.949Z</time></trkpt><trkpt lat="45.6008483" lon="8.8769767"><ele>220.0</ele><time>2026-04-04T05:41:26.949Z</time></trkpt><trkpt lat="45.6008017" lon="8.8767717"><ele>220.0</ele><time>2026-04-04T05:41:27.949Z</time></trkpt><trkpt lat="45.600755" lon="8.876575"><ele>220.0</ele><time>2026-04-04T05:41:28.949Z</time></trkpt><trkpt lat="45.6007033" lon="8.8763667"><ele>220.0</ele><time>2026-04-04T05:41:29.949Z</time></trkpt><trkpt lat="45.6006417" lon="8.8761517"><ele>220.0</ele><time>2026-04-04T05:41:30.949Z</time></trkpt><trkpt lat="45.60058" lon="8.875935"><ele>220.0</ele><time>2026-04-04T05:41:31.949Z</time></trkpt><trkpt lat="45.6005267" lon="8.8757117"><ele>220.0</ele><time>2026-04-04T05:41:32.949Z</time></trkpt><trkpt lat="45.6004583" lon="8.8754917"><ele>220.0</ele><time>2026-04-04T05:41:33.949Z</time></trkpt><trkpt lat="45.6003817" lon="8.8752417"><ele>220.0</ele><time>2026-04-04T05:41:34.949Z</time></trkpt><trkpt lat="45.6003033" lon="8.8749917"><ele>220.0</ele><time>2026-04-04T05:41:35.949Z</time></trkpt><trkpt lat="45.600245" lon="8.87476"><ele>220.0</ele><time>2026-04-04T05:41:36.949Z</time></trkpt><trkpt lat="45.6001767" lon="8.87452"><ele>220.0</ele><time>2026-04-04T05:41:37.949Z</time></trkpt><trkpt lat="45.600095" lon="8.8742683"><ele>220.0</ele><time>2026-04-04T05:41:38.949Z</time></trkpt><trkpt lat="45.6000233" lon="8.874005"><ele>220.0</ele><time>2026-04-04T05:41:39.949Z</time></trkpt><trkpt lat="45.5999383" lon="8.8737483"><ele>220.0</ele><time>2026-04-04T05:41:40.949Z</time></trkpt><trkpt lat="45.599865" lon="8.873495"><ele>219.33333333333331</ele><time>2026-04-04T05:41:41.949Z</time></trkpt><trkpt lat="45.5997967" lon="8.8732367"><ele>218.66666666666669</ele><time>2026-04-04T05:41:42.949Z</time></trkpt><trkpt lat="45.5997383" lon="8.87301"><ele>218.0</ele><time>2026-04-04T05:41:43.948Z</time></trkpt><trkpt lat="45.5996717" lon="8.8727867"><ele>218.0</ele><time>2026-04-04T05:41:44.949Z</time></trkpt><trkpt lat="45.59961" lon="8.8725733"><ele>218.0</ele><time>2026-04-04T05:41:45.949Z</time></trkpt><trkpt lat="45.59955" lon="8.87237"><ele>218.0</ele><time>2026-04-04T05:41:46.949Z</time></trkpt><trkpt lat="45.599495" lon="8.872185"><ele>218.0</ele><time>2026-04-04T05:41:47.949Z</time></trkpt><trkpt lat="45.5994483" lon="8.8720083"><ele>218.0</ele><time>2026-04-04T05:41:48.949Z</time></trkpt><trkpt lat="45.5994083" lon="8.8718583"><ele>218.0</ele><time>2026-04-04T05:41:49.949Z</time></trkpt><trkpt lat="45.59938" lon="8.8717167"><ele>218.0</ele><time>2026-04-04T05:41:50.949Z</time></trkpt><trkpt lat="45.5993583" lon="8.8715767"><ele>218.0</ele><time>2026-04-04T05:41:51.949Z</time></trkpt><trkpt lat="45.5993417" lon="8.8714667"><ele>218.0</ele><time>2026-04-04T05:41:52.949Z</time></trkpt><trkpt lat="45.5992967" lon="8.871355"><ele>218.0</ele><time>2026-04-04T05:41:53.949Z</time></trkpt><trkpt lat="45.5992333" lon="8.8712367"><ele>218.0</ele><time>2026-04-04T05:41:54.949Z</time></trkpt><trkpt lat="45.599185" lon="8.871085"><ele>218.0</ele><time>2026-04-04T05:41:55.949Z</time></trkpt><trkpt lat="45.59914" lon="8.8709133"><ele>218.0</ele><time>2026-04-04T05:41:56.949Z</time></trkpt><trkpt lat="45.599085" lon="8.8707167"><ele>218.0</ele><time>2026-04-04T05:41:57.948Z</time></trkpt><trkpt lat="45.5990217" lon="8.8705017"><ele>218.0</ele><time>2026-04-04T05:41:58.949Z</time></trkpt><trkpt lat="45.5989633" lon="8.8702783"><ele>218.0</ele><time>2026-04-04T05:41:59.948Z</time></trkpt><trkpt lat="45.59891" lon="8.8700583"><ele>218.33333333333334</ele><time>2026-04-04T05:42:00.949Z</time></trkpt><trkpt lat="45.5988517" lon="8.8698533"><ele>218.66666666666669</ele><time>2026-04-04T05:42:01.949Z</time></trkpt><trkpt lat="45.5987983" lon="8.86965"><ele>219.0</ele><time>2026-04-04T05:42:02.949Z</time></trkpt><trkpt lat="45.5987417" lon="8.86945"><ele>218.33333333333331</ele><time>2026-04-04T05:42:03.949Z</time></trkpt><trkpt lat="45.59868" lon="8.86925"><ele>217.66666666666666</ele><time>2026-04-04T05:42:04.949Z</time></trkpt><trkpt lat="45.5986233" lon="8.8690417"><ele>217.0</ele><time>2026-04-04T05:42:05.949Z</time></trkpt><trkpt lat="45.5985583" lon="8.86883"><ele>217.0</ele><time>2026-04-04T05:42:06.949Z</time></trkpt><trkpt lat="45.5985033" lon="8.86862"><ele>217.0</ele><time>2026-04-04T05:42:07.949Z</time></trkpt><trkpt lat="45.598445" lon="8.868405"><ele>217.0</ele><time>2026-04-04T05:42:08.949Z</time></trkpt><trkpt lat="45.5983967" lon="8.8681983"><ele>217.0</ele><time>2026-04-04T05:42:09.949Z</time></trkpt><trkpt lat="45.5983467" lon="8.8679933"><ele>217.0</ele><time>2026-04-04T05:42:10.949Z</time></trkpt><trkpt lat="45.5982733" lon="8.8677833"><ele>217.0</ele><time>2026-04-04T05:42:11.949Z</time></trkpt><trkpt lat="45.5982033" lon="8.8675817"><ele>216.0</ele><time>2026-04-04T05:42:12.949Z</time></trkpt><trkpt lat="45.598145" lon="8.8673733"><ele>215.0</ele><time>2026-04-04T05:42:13.949Z</time></trkpt><trkpt lat="45.5980867" lon="8.8671517"><ele>214.0</ele><time>2026-04-04T05:42:14.949Z</time></trkpt><trkpt lat="45.59803" lon="8.8669317"><ele>215.0</ele><time>2026-04-04T05:42:15.948Z</time></trkpt><trkpt lat="45.5979667" lon="8.8667067"><ele>216.0</ele><time>2026-04-04T05:42:16.949Z</time></trkpt><trkpt lat="45.5979067" lon="8.8664817"><ele>217.0</ele><time>2026-04-04T05:42:17.949Z</time></trkpt><trkpt lat="45.5978467" lon="8.8662617"><ele>217.33333333333331</ele><time>2026-04-04T05:42:18.949Z</time></trkpt><trkpt lat="45.5977783" lon="8.86604"><ele>217.66666666666669</ele><time>2026-04-04T05:42:19.949Z</time></trkpt><trkpt lat="45.597715" lon="8.8658167"><ele>218.0</ele><time>2026-04-04T05:42:20.949Z</time></trkpt><trkpt lat="45.5976533" lon="8.8655883"><ele>218.0</ele><time>2026-04-04T05:42:21.949Z</time></trkpt><trkpt lat="45.5976017" lon="8.8653683"><ele>218.0</ele><time>2026-04-04T05:42:22.949Z</time></trkpt><trkpt lat="45.5975417" lon="8.8651483"><ele>218.0</ele><time>2026-04-04T05:42:23.949Z</time></trkpt><trkpt lat="45.5974767" lon="8.864925"><ele>217.33333333333334</ele><time>2026-04-04T05:42:24.949Z</time></trkpt><trkpt lat="45.597415" lon="8.8647083"><ele>216.66666666666669</ele><time>2026-04-04T05:42:25.949Z</time></trkpt><trkpt lat="45.5973533" lon="8.8645033"><ele>216.0</ele><time>2026-04-04T05:42:26.949Z</time></trkpt><trkpt lat="45.59729" lon="8.864285"><ele>216.0</ele><time>2026-04-04T05:42:27.948Z</time></trkpt><trkpt lat="45.59723" lon="8.8640733"><ele>216.0</ele><time>2026-04-04T05:42:28.949Z</time></trkpt><trkpt lat="45.5971617" lon="8.863855"><ele>216.0</ele><time>2026-04-04T05:42:29.949Z</time></trkpt><trkpt lat="45.5971083" lon="8.8636467"><ele>215.33333333333331</ele><time>2026-04-04T05:42:30.949Z</time></trkpt><trkpt lat="45.5970583" lon="8.863445"><ele>214.66666666666666</ele><time>2026-04-04T05:42:31.949Z</time></trkpt><trkpt lat="45.5970083" lon="8.86324"><ele>214.0</ele><time>2026-04-04T05:42:32.949Z</time></trkpt><trkpt lat="45.5969533" lon="8.8630433"><ele>214.0</ele><time>2026-04-04T05:42:33.948Z</time></trkpt><trkpt lat="45.5968933" lon="8.8628467"><ele>214.0</ele><time>2026-04-04T05:42:34.949Z</time></trkpt><trkpt lat="45.5968383" lon="8.8626433"><ele>214.0</ele><time>2026-04-04T05:42:35.949Z</time></trkpt><trkpt lat="45.5967833" lon="8.8624383"><ele>214.25</ele><time>2026-04-04T05:42:36.949Z</time></trkpt><trkpt lat="45.5967267" lon="8.8622483"><ele>214.5</ele><time>2026-04-04T05:42:37.949Z</time></trkpt><trkpt lat="45.5966733" lon="8.86207"><ele>214.75</ele><time>2026-04-04T05:42:38.949Z</time></trkpt><trkpt lat="45.5966317" lon="8.86191"><ele>215.0</ele><time>2026-04-04T05:42:39.949Z</time></trkpt><trkpt lat="45.5965817" lon="8.8617517"><ele>215.2</ele><time>2026-04-04T05:42:40.949Z</time></trkpt><trkpt lat="45.5965417" lon="8.8616067"><ele>215.4</ele><time>2026-04-04T05:42:41.949Z</time></trkpt><trkpt lat="45.5965133" lon="8.8614667"><ele>215.60000000000002</ele><time>2026-04-04T05:42:42.949Z</time></trkpt><trkpt lat="45.5964783" lon="8.8613383"><ele>215.8</ele><time>2026-04-04T05:42:43.949Z</time></trkpt><trkpt lat="45.5964367" lon="8.86122"><ele>216.0</ele><time>2026-04-04T05:42:44.948Z</time></trkpt><trkpt lat="45.5964033" lon="8.8611183"><ele>216.0</ele><time>2026-04-04T05:42:45.949Z</time></trkpt><trkpt lat="45.5963667" lon="8.8609683"><ele>216.00000000000003</ele><time>2026-04-04T05:42:47.949Z</time></trkpt><trkpt lat="45.596365" lon="8.8608567"><ele>216.00000000000003</ele><time>2026-04-04T05:42:50.949Z</time></trkpt><trkpt lat="45.59638" lon="8.8607467"><ele>216.0</ele><time>2026-04-04T05:42:53.948Z</time></trkpt><trkpt lat="45.5963967" lon="8.8606067"><ele>216.0</ele><time>2026-04-04T05:42:56.949Z</time></trkpt><trkpt lat="45.5963883" lon="8.8604467"><ele>216.20000000000002</ele><time>2026-04-04T05:42:58.949Z</time></trkpt><trkpt lat="45.596345" lon="8.8603767"><ele>216.40000000000003</ele><time>2026-04-04T05:42:59.949Z</time></trkpt><trkpt lat="45.59628" lon="8.8603"><ele>216.6</ele><time>2026-04-04T05:43:00.949Z</time></trkpt><trkpt lat="45.5961883" lon="8.8602333"><ele>216.8</ele><time>2026-04-04T05:43:01.948Z</time></trkpt><trkpt lat="45.5960767" lon="8.8601933"><ele>217.0</ele><time>2026-04-04T05:43:02.949Z</time></trkpt><trkpt lat="45.5959533" lon="8.8601867"><ele>217.25</ele><time>2026-04-04T05:43:03.949Z</time></trkpt><trkpt lat="45.595825" lon="8.8601717"><ele>217.5</ele><time>2026-04-04T05:43:04.949Z</time></trkpt><trkpt lat="45.5956933" lon="8.860135"><ele>217.75</ele><time>2026-04-04T05:43:05.949Z</time></trkpt><trkpt lat="45.5955567" lon="8.8600917"><ele>218.0</ele><time>2026-04-04T05:43:06.949Z</time></trkpt><trkpt lat="45.5954383" lon="8.860065"><ele>217.25</ele><time>2026-04-04T05:43:07.949Z</time></trkpt><trkpt lat="45.59531" lon="8.8600283"><ele>216.5</ele><time>2026-04-04T05:43:08.949Z</time></trkpt><trkpt lat="45.5951817" lon="8.8599883"><ele>215.75</ele><time>2026-04-04T05:43:09.949Z</time></trkpt><trkpt lat="45.5950417" lon="8.8599817"><ele>215.0</ele><time>2026-04-04T05:43:10.949Z</time></trkpt><trkpt lat="45.5949067" lon="8.8599417"><ele>215.0</ele><time>2026-04-04T05:43:11.948Z</time></trkpt><trkpt lat="45.59478" lon="8.8598983"><ele>215.0</ele><time>2026-04-04T05:43:12.949Z</time></trkpt><trkpt lat="45.594655" lon="8.8598583"><ele>215.0</ele><time>2026-04-04T05:43:13.949Z</time></trkpt><trkpt lat="45.5945217" lon="8.859815"><ele>215.0</ele><time>2026-04-04T05:43:14.949Z</time></trkpt><trkpt lat="45.5943867" lon="8.8597783"><ele>214.75</ele><time>2026-04-04T05:43:15.948Z</time></trkpt><trkpt lat="45.594245" lon="8.8597417"><ele>214.5</ele><time>2026-04-04T05:43:16.949Z</time></trkpt><trkpt lat="45.594105" lon="8.8596983"><ele>214.25</ele><time>2026-04-04T05:43:17.949Z</time></trkpt><trkpt lat="45.5939733" lon="8.8596567"><ele>214.0</ele><time>2026-04-04T05:43:18.949Z</time></trkpt><trkpt lat="45.593825" lon="8.85962"><ele>214.0</ele><time>2026-04-04T05:43:19.949Z</time></trkpt><trkpt lat="45.5936917" lon="8.8595933"><ele>214.0</ele><time>2026-04-04T05:43:20.949Z</time></trkpt><trkpt lat="45.5935567" lon="8.85956"><ele>214.0</ele><time>2026-04-04T05:43:21.949Z</time></trkpt><trkpt lat="45.5934117" lon="8.85951"><ele>214.0</ele><time>2026-04-04T05:43:22.949Z</time></trkpt><trkpt lat="45.593265" lon="8.859475"><ele>214.0</ele><time>2026-04-04T05:43:23.949Z</time></trkpt><trkpt lat="45.5931083" lon="8.859435"><ele>214.0</ele><time>2026-04-04T05:43:24.949Z</time></trkpt><trkpt lat="45.5929567" lon="8.8594017"><ele>214.0</ele><time>2026-04-04T05:43:25.949Z</time></trkpt><trkpt lat="45.5927967" lon="8.859355"><ele>214.0</ele><time>2026-04-04T05:43:26.949Z</time></trkpt><trkpt lat="45.5926367" lon="8.85931"><ele>214.0</ele><time>2026-04-04T05:43:27.949Z</time></trkpt><trkpt lat="45.5924633" lon="8.8592633"><ele>214.0</ele><time>2026-04-04T05:43:28.948Z</time></trkpt><trkpt lat="45.59229" lon="8.8592067"><ele>214.0</ele><time>2026-04-04T05:43:29.949Z</time></trkpt><trkpt lat="45.5921217" lon="8.8591583"><ele>214.0</ele><time>2026-04-04T05:43:30.949Z</time></trkpt><trkpt lat="45.5919517" lon="8.859115"><ele>214.0</ele><time>2026-04-04T05:43:31.949Z</time></trkpt><trkpt lat="45.59179" lon="8.85907"><ele>213.0</ele><time>2026-04-04T05:43:32.949Z</time></trkpt><trkpt lat="45.59162" lon="8.8590167"><ele>212.0</ele><time>2026-04-04T05:43:33.949Z</time></trkpt><trkpt lat="45.5914667" lon="8.8589767"><ele>211.0</ele><time>2026-04-04T05:43:34.949Z</time></trkpt><trkpt lat="45.5913033" lon="8.8589283"><ele>211.5</ele><time>2026-04-04T05:43:35.949Z</time></trkpt><trkpt lat="45.5911467" lon="8.85889"><ele>212.0</ele><time>2026-04-04T05:43:36.949Z</time></trkpt><trkpt lat="45.5910033" lon="8.8588533"><ele>212.5</ele><time>2026-04-04T05:43:37.949Z</time></trkpt><trkpt lat="45.590865" lon="8.85882"><ele>213.0</ele><time>2026-04-04T05:43:38.949Z</time></trkpt><trkpt lat="45.5907333" lon="8.8587817"><ele>213.0</ele><time>2026-04-04T05:43:39.949Z</time></trkpt><trkpt lat="45.5906217" lon="8.8587533"><ele>213.0</ele><time>2026-04-04T05:43:40.948Z</time></trkpt><trkpt lat="45.5905133" lon="8.8587217"><ele>213.0</ele><time>2026-04-04T05:43:41.949Z</time></trkpt><trkpt lat="45.5904067" lon="8.8586883"><ele>213.0</ele><time>2026-04-04T05:43:42.949Z</time></trkpt><trkpt lat="45.5902917" lon="8.8586567"><ele>212.75</ele><time>2026-04-04T05:43:43.949Z</time></trkpt><trkpt lat="45.5901783" lon="8.85862"><ele>212.5</ele><time>2026-04-04T05:43:44.949Z</time></trkpt><trkpt lat="45.5900583" lon="8.858585"><ele>212.25</ele><time>2026-04-04T05:43:45.949Z</time></trkpt><trkpt lat="45.5899317" lon="8.8585483"><ele>212.0</ele><time>2026-04-04T05:43:46.949Z</time></trkpt><trkpt lat="45.5898183" lon="8.85852"><ele>212.00000000000003</ele><time>2026-04-04T05:43:47.949Z</time></trkpt><trkpt lat="45.5897167" lon="8.85849"><ele>212.0</ele><time>2026-04-04T05:43:48.948Z</time></trkpt><trkpt lat="45.58962" lon="8.8584633"><ele>212.0</ele><time>2026-04-04T05:43:49.949Z</time></trkpt><trkpt lat="45.5895317" lon="8.8584433"><ele>212.0</ele><time>2026-04-04T05:43:50.949Z</time></trkpt><trkpt lat="45.5894567" lon="8.8584267"><ele>212.00000000000003</ele><time>2026-04-04T05:43:51.949Z</time></trkpt><trkpt lat="45.5893883" lon="8.858405"><ele>212.0</ele><time>2026-04-04T05:43:52.949Z</time></trkpt><trkpt lat="45.5893" lon="8.8583817"><ele>212.00000000000003</ele><time>2026-04-04T05:43:54.949Z</time></trkpt><trkpt lat="45.5892283" lon="8.8583733"><ele>212.0</ele><time>2026-04-04T05:43:56.949Z</time></trkpt><trkpt lat="45.58916" lon="8.8583767"><ele>212.0</ele><time>2026-04-04T05:43:58.949Z</time></trkpt><trkpt lat="45.589085" lon="8.8583567"><ele>212.0</ele><time>2026-04-04T05:44:01.949Z</time></trkpt><trkpt lat="45.5889883" lon="8.8583317"><ele>212.00000000000003</ele><time>2026-04-04T05:44:22.949Z</time></trkpt><trkpt lat="45.5889017" lon="8.8583117"><ele>212.0</ele><time>2026-04-04T05:44:23.949Z</time></trkpt><trkpt lat="45.5887917" lon="8.8583"><ele>212.5</ele><time>2026-04-04T05:44:24.949Z</time></trkpt><trkpt lat="45.5886617" lon="8.8582783"><ele>213.0</ele><time>2026-04-04T05:44:25.949Z</time></trkpt><trkpt lat="45.5885133" lon="8.858225"><ele>213.5</ele><time>2026-04-04T05:44:26.949Z</time></trkpt><trkpt lat="45.58836" lon="8.8581717"><ele>214.0</ele><time>2026-04-04T05:44:27.949Z</time></trkpt><trkpt lat="45.588205" lon="8.8581183"><ele>214.0</ele><time>2026-04-04T05:44:28.949Z</time></trkpt><trkpt lat="45.58804" lon="8.8580717"><ele>214.0</ele><time>2026-04-04T05:44:29.949Z</time></trkpt><trkpt lat="45.5878733" lon="8.85802"><ele>214.0</ele><time>2026-04-04T05:44:30.949Z</time></trkpt><trkpt lat="45.5877133" lon="8.857975"><ele>212.66666666666666</ele><time>2026-04-04T05:44:31.949Z</time></trkpt><trkpt lat="45.5875467" lon="8.85793"><ele>211.33333333333331</ele><time>2026-04-04T05:44:32.949Z</time></trkpt><trkpt lat="45.587365" lon="8.85788"><ele>210.0</ele><time>2026-04-04T05:44:33.949Z</time></trkpt><trkpt lat="45.5871917" lon="8.8578317"><ele>210.0</ele><time>2026-04-04T05:44:34.949Z</time></trkpt><trkpt lat="45.587025" lon="8.857785"><ele>210.0</ele><time>2026-04-04T05:44:35.949Z</time></trkpt><trkpt lat="45.586875" lon="8.8577533"><ele>210.0</ele><time>2026-04-04T05:44:36.949Z</time></trkpt><trkpt lat="45.5867317" lon="8.8577267"><ele>209.75</ele><time>2026-04-04T05:44:37.948Z</time></trkpt><trkpt lat="45.5866067" lon="8.8577"><ele>209.5</ele><time>2026-04-04T05:44:38.949Z</time></trkpt><trkpt lat="45.58646" lon="8.8576533"><ele>209.25</ele><time>2026-04-04T05:44:39.949Z</time></trkpt><trkpt lat="45.586305" lon="8.8576383"><ele>209.0</ele><time>2026-04-04T05:44:40.949Z</time></trkpt><trkpt lat="45.5861467" lon="8.85767"><ele>209.0</ele><time>2026-04-04T05:44:41.949Z</time></trkpt><trkpt lat="45.5859883" lon="8.8577017"><ele>209.0</ele><time>2026-04-04T05:44:42.949Z</time></trkpt><trkpt lat="45.5858217" lon="8.8577267"><ele>209.0</ele><time>2026-04-04T05:44:43.949Z</time></trkpt><trkpt lat="45.5856367" lon="8.857725"><ele>209.0</ele><time>2026-04-04T05:44:44.949Z</time></trkpt><trkpt lat="45.585445" lon="8.8577283"><ele>209.0</ele><time>2026-04-04T05:44:45.949Z</time></trkpt><trkpt lat="45.5852617" lon="8.8577267"><ele>209.0</ele><time>2026-04-04T05:44:46.948Z</time></trkpt><trkpt lat="45.585105" lon="8.8577317"><ele>209.0</ele><time>2026-04-04T05:44:47.949Z</time></trkpt><trkpt lat="45.584955" lon="8.8577383"><ele>209.0</ele><time>2026-04-04T05:44:48.949Z</time></trkpt><trkpt lat="45.5847967" lon="8.8577333"><ele>209.0</ele><time>2026-04-04T05:44:49.949Z</time></trkpt><trkpt lat="45.5846633" lon="8.857745"><ele>209.0</ele><time>2026-04-04T05:44:50.949Z</time></trkpt><trkpt lat="45.5845267" lon="8.8577567"><ele>208.66666666666669</ele><time>2026-04-04T05:44:51.949Z</time></trkpt><trkpt lat="45.5843867" lon="8.8577667"><ele>208.33333333333331</ele><time>2026-04-04T05:44:52.949Z</time></trkpt><trkpt lat="45.5842233" lon="8.85776"><ele>208.0</ele><time>2026-04-04T05:44:53.949Z</time></trkpt><trkpt lat="45.5840467" lon="8.8577417"><ele>208.0</ele><time>2026-04-04T05:44:54.949Z</time></trkpt><trkpt lat="45.5838583" lon="8.8577433"><ele>208.0</ele><time>2026-04-04T05:44:55.949Z</time></trkpt><trkpt lat="45.58366" lon="8.85774"><ele>208.0</ele><time>2026-04-04T05:44:56.949Z</time></trkpt><trkpt lat="45.58346" lon="8.857755"><ele>208.0</ele><time>2026-04-04T05:44:57.949Z</time></trkpt><trkpt lat="45.5832617" lon="8.8577767"><ele>208.0</ele><time>2026-04-04T05:44:58.948Z</time></trkpt><trkpt lat="45.5830567" lon="8.8577767"><ele>208.0</ele><time>2026-04-04T05:44:59.949Z</time></trkpt><trkpt lat="45.5828567" lon="8.8577767"><ele>208.0</ele><time>2026-04-04T05:45:00.948Z</time></trkpt><trkpt lat="45.5826633" lon="8.8577633"><ele>208.0</ele><time>2026-04-04T05:45:01.949Z</time></trkpt><trkpt lat="45.5824733" lon="8.857755"><ele>208.0</ele><time>2026-04-04T05:45:02.949Z</time></trkpt><trkpt lat="45.5822983" lon="8.857745"><ele>208.0</ele><time>2026-04-04T05:45:03.949Z</time></trkpt><trkpt lat="45.582135" lon="8.8577433"><ele>208.0</ele><time>2026-04-04T05:45:04.949Z</time></trkpt><trkpt lat="45.58199" lon="8.8577483"><ele>208.0</ele><time>2026-04-04T05:45:05.949Z</time></trkpt><trkpt lat="45.5818467" lon="8.85776"><ele>208.0</ele><time>2026-04-04T05:45:06.948Z</time></trkpt><trkpt lat="45.58172" lon="8.8577767"><ele>208.0</ele><time>2026-04-04T05:45:07.948Z</time></trkpt><trkpt lat="45.58159" lon="8.8577983"><ele>208.0</ele><time>2026-04-04T05:45:08.949Z</time></trkpt><trkpt lat="45.5814717" lon="8.8578167"><ele>208.0</ele><time>2026-04-04T05:45:09.949Z</time></trkpt><trkpt lat="45.5813767" lon="8.8578317"><ele>208.0</ele><time>2026-04-04T05:45:10.949Z</time></trkpt><trkpt lat="45.581295" lon="8.857845"><ele>208.0</ele><time>2026-04-04T05:45:11.949Z</time></trkpt><trkpt lat="45.5811983" lon="8.8578283"><ele>208.0</ele><time>2026-04-04T05:45:13.948Z</time></trkpt><trkpt lat="45.5811417" lon="8.8577483"><ele>208.0</ele><time>2026-04-04T05:45:18.949Z</time></trkpt><trkpt lat="45.5811317" lon="8.8575917"><ele>208.0</ele><time>2026-04-04T05:45:20.949Z</time></trkpt><trkpt lat="45.5811467" lon="8.8574717"><ele>207.75</ele><time>2026-04-04T05:45:21.949Z</time></trkpt><trkpt lat="45.5811567" lon="8.8573067"><ele>207.5</ele><time>2026-04-04T05:45:22.948Z</time></trkpt><trkpt lat="45.58117" lon="8.8571067"><ele>207.25</ele><time>2026-04-04T05:45:23.949Z</time></trkpt><trkpt lat="45.5811917" lon="8.8569083"><ele>207.0</ele><time>2026-04-04T05:45:24.949Z</time></trkpt><trkpt lat="45.5812183" lon="8.8566933"><ele>207.0</ele><time>2026-04-04T05:45:25.949Z</time></trkpt><trkpt lat="45.5812533" lon="8.8564767"><ele>207.0</ele><time>2026-04-04T05:45:26.949Z</time></trkpt><trkpt lat="45.5812833" lon="8.8562517"><ele>207.0</ele><time>2026-04-04T05:45:27.949Z</time></trkpt><trkpt lat="45.58131" lon="8.8560117"><ele>207.0</ele><time>2026-04-04T05:45:28.949Z</time></trkpt><trkpt lat="45.5813383" lon="8.8557833"><ele>207.0</ele><time>2026-04-04T05:45:29.949Z</time></trkpt><trkpt lat="45.58137" lon="8.8555467"><ele>207.0</ele><time>2026-04-04T05:45:30.949Z</time></trkpt><trkpt lat="45.5813967" lon="8.8552967"><ele>207.0</ele><time>2026-04-04T05:45:31.949Z</time></trkpt><trkpt lat="45.5814283" lon="8.85504"><ele>207.0</ele><time>2026-04-04T05:45:32.949Z</time></trkpt><trkpt lat="45.581455" lon="8.85478"><ele>207.0</ele><time>2026-04-04T05:45:33.949Z</time></trkpt><trkpt lat="45.5814883" lon="8.8545183"><ele>206.66666666666669</ele><time>2026-04-04T05:45:34.949Z</time></trkpt><trkpt lat="45.58152" lon="8.8542617"><ele>206.33333333333334</ele><time>2026-04-04T05:45:35.949Z</time></trkpt><trkpt lat="45.5815483" lon="8.8540167"><ele>206.0</ele><time>2026-04-04T05:45:36.949Z</time></trkpt><trkpt lat="45.5815883" lon="8.85376"><ele>206.0</ele><time>2026-04-04T05:45:37.949Z</time></trkpt><trkpt lat="45.58162" lon="8.8535033"><ele>206.0</ele><time>2026-04-04T05:45:38.949Z</time></trkpt><trkpt lat="45.5816433" lon="8.8532283"><ele>206.0</ele><time>2026-04-04T05:45:39.949Z</time></trkpt><trkpt lat="45.58167" lon="8.85296"><ele>206.66666666666669</ele><time>2026-04-04T05:45:40.949Z</time></trkpt><trkpt lat="45.5817067" lon="8.8526917"><ele>207.33333333333331</ele><time>2026-04-04T05:45:41.949Z</time></trkpt><trkpt lat="45.5817383" lon="8.8524233"><ele>208.0</ele><time>2026-04-04T05:45:42.949Z</time></trkpt><trkpt lat="45.5817617" lon="8.8521717"><ele>208.0</ele><time>2026-04-04T05:45:43.949Z</time></trkpt><trkpt lat="45.5817867" lon="8.8519333"><ele>208.0</ele><time>2026-04-04T05:45:44.949Z</time></trkpt><trkpt lat="45.5818183" lon="8.8517117"><ele>208.0</ele><time>2026-04-04T05:45:45.949Z</time></trkpt><trkpt lat="45.5818483" lon="8.8514983"><ele>207.75</ele><time>2026-04-04T05:45:46.949Z</time></trkpt><trkpt lat="45.5818817" lon="8.8513"><ele>207.5</ele><time>2026-04-04T05:45:47.949Z</time></trkpt><trkpt lat="45.5819133" lon="8.85113"><ele>207.25</ele><time>2026-04-04T05:45:48.949Z</time></trkpt><trkpt lat="45.5819333" lon="8.8509833"><ele>207.0</ele><time>2026-04-04T05:45:49.949Z</time></trkpt><trkpt lat="45.5819467" lon="8.85085"><ele>207.0</ele><time>2026-04-04T05:45:50.949Z</time></trkpt><trkpt lat="45.58196" lon="8.8507083"><ele>207.0</ele><time>2026-04-04T05:45:51.949Z</time></trkpt><trkpt lat="45.5819783" lon="8.85054"><ele>207.0</ele><time>2026-04-04T05:45:52.949Z</time></trkpt><trkpt lat="45.5820017" lon="8.8503483"><ele>207.0</ele><time>2026-04-04T05:45:53.949Z</time></trkpt><trkpt lat="45.582025" lon="8.8501467"><ele>206.66666666666669</ele><time>2026-04-04T05:45:54.949Z</time></trkpt><trkpt lat="45.582045" lon="8.8499383"><ele>206.33333333333334</ele><time>2026-04-04T05:45:55.949Z</time></trkpt><trkpt lat="45.5820717" lon="8.849695"><ele>206.0</ele><time>2026-04-04T05:45:56.949Z</time></trkpt><trkpt lat="45.5821033" lon="8.8494533"><ele>206.0</ele><time>2026-04-04T05:45:57.949Z</time></trkpt><trkpt lat="45.5821367" lon="8.8491967"><ele>206.0</ele><time>2026-04-04T05:45:58.949Z</time></trkpt><trkpt lat="45.582175" lon="8.8489333"><ele>206.0</ele><time>2026-04-04T05:45:59.949Z</time></trkpt><trkpt lat="45.582205" lon="8.84867"><ele>206.0</ele><time>2026-04-04T05:46:00.949Z</time></trkpt><trkpt lat="45.582245" lon="8.8483733"><ele>206.0</ele><time>2026-04-04T05:46:01.949Z</time></trkpt><trkpt lat="45.58228" lon="8.8480733"><ele>206.0</ele><time>2026-04-04T05:46:02.949Z</time></trkpt><trkpt lat="45.5823117" lon="8.8477617"><ele>206.0</ele><time>2026-04-04T05:46:03.949Z</time></trkpt><trkpt lat="45.582355" lon="8.847455"><ele>206.0</ele><time>2026-04-04T05:46:04.949Z</time></trkpt><trkpt lat="45.5823983" lon="8.8471317"><ele>206.0</ele><time>2026-04-04T05:46:05.949Z</time></trkpt><trkpt lat="45.5824433" lon="8.8468067"><ele>206.5</ele><time>2026-04-04T05:46:06.948Z</time></trkpt><trkpt lat="45.5824833" lon="8.8464867"><ele>207.0</ele><time>2026-04-04T05:46:07.949Z</time></trkpt><trkpt lat="45.5825133" lon="8.846145"><ele>206.66666666666669</ele><time>2026-04-04T05:46:08.949Z</time></trkpt><trkpt lat="45.5825467" lon="8.8458217"><ele>206.33333333333334</ele><time>2026-04-04T05:46:09.949Z</time></trkpt><trkpt lat="45.5825867" lon="8.8455183"><ele>206.0</ele><time>2026-04-04T05:46:10.949Z</time></trkpt><trkpt lat="45.5826183" lon="8.8452367"><ele>205.66666666666669</ele><time>2026-04-04T05:46:11.949Z</time></trkpt><trkpt lat="45.5826533" lon="8.8449667"><ele>205.33333333333331</ele><time>2026-04-04T05:46:12.949Z</time></trkpt><trkpt lat="45.5826867" lon="8.8447283"><ele>205.0</ele><time>2026-04-04T05:46:13.949Z</time></trkpt><trkpt lat="45.5827183" lon="8.8445033"><ele>205.0</ele><time>2026-04-04T05:46:14.949Z</time></trkpt><trkpt lat="45.5827483" lon="8.84428"><ele>205.0</ele><time>2026-04-04T05:46:15.949Z</time></trkpt><trkpt lat="45.5827633" lon="8.8440833"><ele>205.0</ele><time>2026-04-04T05:46:16.949Z</time></trkpt><trkpt lat="45.582785" lon="8.8438967"><ele>205.0</ele><time>2026-04-04T05:46:17.949Z</time></trkpt><trkpt lat="45.5828033" lon="8.8437233"><ele>205.0</ele><time>2026-04-04T05:46:18.949Z</time></trkpt><trkpt lat="45.5828283" lon="8.843555"><ele>205.0</ele><time>2026-04-04T05:46:19.949Z</time></trkpt><trkpt lat="45.582855" lon="8.8433967"><ele>205.0</ele><time>2026-04-04T05:46:20.949Z</time></trkpt><trkpt lat="45.582895" lon="8.8432583"><ele>205.0</ele><time>2026-04-04T05:46:21.949Z</time></trkpt><trkpt lat="45.582935" lon="8.8431267"><ele>205.0</ele><time>2026-04-04T05:46:22.949Z</time></trkpt><trkpt lat="45.5829917" lon="8.84303"><ele>204.99999999999997</ele><time>2026-04-04T05:46:23.949Z</time></trkpt><trkpt lat="45.5830433" lon="8.842935"><ele>205.0</ele><time>2026-04-04T05:46:24.949Z</time></trkpt><trkpt lat="45.5830767" lon="8.842845"><ele>205.0</ele><time>2026-04-04T05:46:25.949Z</time></trkpt><trkpt lat="45.5830817" lon="8.8427483"><ele>205.0</ele><time>2026-04-04T05:46:26.949Z</time></trkpt><trkpt lat="45.5830567" lon="8.842665"><ele>204.99999999999997</ele><time>2026-04-04T05:46:27.949Z</time></trkpt><trkpt lat="45.582995" lon="8.8425983"><ele>205.0</ele><time>2026-04-04T05:46:28.949Z</time></trkpt><trkpt lat="45.5829033" lon="8.84253"><ele>204.5</ele><time>2026-04-04T05:46:29.949Z</time></trkpt><trkpt lat="45.5828167" lon="8.8424383"><ele>204.0</ele><time>2026-04-04T05:46:30.949Z</time></trkpt><trkpt lat="45.5827117" lon="8.8422833"><ele>203.5</ele><time>2026-04-04T05:46:31.949Z</time></trkpt><trkpt lat="45.5826067" lon="8.8420767"><ele>203.0</ele><time>2026-04-04T05:46:32.949Z</time></trkpt><trkpt lat="45.582505" lon="8.8418583"><ele>203.0</ele><time>2026-04-04T05:46:33.949Z</time></trkpt><trkpt lat="45.5824117" lon="8.8416233"><ele>203.0</ele><time>2026-04-04T05:46:34.949Z</time></trkpt><trkpt lat="45.5823117" lon="8.8413733"><ele>203.0</ele><time>2026-04-04T05:46:35.949Z</time></trkpt><trkpt lat="45.5822083" lon="8.8411233"><ele>203.0</ele><time>2026-04-04T05:46:36.949Z</time></trkpt><trkpt lat="45.5821033" lon="8.840875"><ele>203.0</ele><time>2026-04-04T05:46:37.949Z</time></trkpt><trkpt lat="45.5819967" lon="8.840615"><ele>203.0</ele><time>2026-04-04T05:46:38.949Z</time></trkpt><trkpt lat="45.5818817" lon="8.840345"><ele>201.5</ele><time>2026-04-04T05:46:39.949Z</time></trkpt><trkpt lat="45.5817567" lon="8.8400683"><ele>200.0</ele><time>2026-04-04T05:46:40.949Z</time></trkpt><trkpt lat="45.581645" lon="8.839795"><ele>200.0</ele><time>2026-04-04T05:46:41.949Z</time></trkpt><trkpt lat="45.58154" lon="8.83952"><ele>200.0</ele><time>2026-04-04T05:46:42.948Z</time></trkpt><trkpt lat="45.581435" lon="8.8392383"><ele>200.0</ele><time>2026-04-04T05:46:43.949Z</time></trkpt><trkpt lat="45.581325" lon="8.838945"><ele>200.5</ele><time>2026-04-04T05:46:44.949Z</time></trkpt><trkpt lat="45.581215" lon="8.8386433"><ele>201.0</ele><time>2026-04-04T05:46:45.948Z</time></trkpt><trkpt lat="45.581105" lon="8.8383367"><ele>201.5</ele><time>2026-04-04T05:46:46.949Z</time></trkpt><trkpt lat="45.5809933" lon="8.8380267"><ele>202.0</ele><time>2026-04-04T05:46:47.949Z</time></trkpt><trkpt lat="45.5808883" lon="8.8377133"><ele>203.0</ele><time>2026-04-04T05:46:48.949Z</time></trkpt><trkpt lat="45.5807833" lon="8.8374133"><ele>204.0</ele><time>2026-04-04T05:46:49.949Z</time></trkpt><trkpt lat="45.580685" lon="8.8371367"><ele>204.0</ele><time>2026-04-04T05:46:50.949Z</time></trkpt><trkpt lat="45.5806017" lon="8.836875"><ele>204.0</ele><time>2026-04-04T05:46:51.949Z</time></trkpt><trkpt lat="45.5805183" lon="8.8366283"><ele>204.0</ele><time>2026-04-04T05:46:52.949Z</time></trkpt><trkpt lat="45.58044" lon="8.8363983"><ele>203.66666666666669</ele><time>2026-04-04T05:46:53.949Z</time></trkpt><trkpt lat="45.58037" lon="8.8361933"><ele>203.33333333333334</ele><time>2026-04-04T05:46:54.949Z</time></trkpt><trkpt lat="45.5802967" lon="8.8359883"><ele>203.0</ele><time>2026-04-04T05:46:55.949Z</time></trkpt><trkpt lat="45.5802333" lon="8.8357933"><ele>203.0</ele><time>2026-04-04T05:46:56.949Z</time></trkpt><trkpt lat="45.5801733" lon="8.8356183"><ele>203.0</ele><time>2026-04-04T05:46:57.949Z</time></trkpt><trkpt lat="45.580115" lon="8.83548"><ele>203.0</ele><time>2026-04-04T05:46:58.948Z</time></trkpt><trkpt lat="45.5800617" lon="8.8353483"><ele>203.0</ele><time>2026-04-04T05:46:59.949Z</time></trkpt><trkpt lat="45.5800367" lon="8.83522"><ele>203.0</ele><time>2026-04-04T05:47:00.949Z</time></trkpt><trkpt lat="45.58004" lon="8.8350917"><ele>203.0</ele><time>2026-04-04T05:47:01.949Z</time></trkpt><trkpt lat="45.5800617" lon="8.83498"><ele>203.0</ele><time>2026-04-04T05:47:02.949Z</time></trkpt><trkpt lat="45.580095" lon="8.83484"><ele>203.0</ele><time>2026-04-04T05:47:03.948Z</time></trkpt><trkpt lat="45.580105" lon="8.834695"><ele>203.0</ele><time>2026-04-04T05:47:04.949Z</time></trkpt><trkpt lat="45.5800767" lon="8.834575"><ele>203.0</ele><time>2026-04-04T05:47:05.949Z</time></trkpt><trkpt lat="45.5800117" lon="8.83447"><ele>203.0</ele><time>2026-04-04T05:47:06.949Z</time></trkpt><trkpt lat="45.579935" lon="8.8343767"><ele>203.0</ele><time>2026-04-04T05:47:07.949Z</time></trkpt><trkpt lat="45.579855" lon="8.8342667"><ele>203.0</ele><time>2026-04-04T05:47:08.949Z</time></trkpt><trkpt lat="45.579795" lon="8.83414"><ele>203.0</ele><time>2026-04-04T05:47:09.949Z</time></trkpt><trkpt lat="45.57976" lon="8.833995"><ele>203.0</ele><time>2026-04-04T05:47:10.949Z</time></trkpt><trkpt lat="45.5797333" lon="8.83384"><ele>203.5</ele><time>2026-04-04T05:47:11.949Z</time></trkpt><trkpt lat="45.57971" lon="8.833675"><ele>204.0</ele><time>2026-04-04T05:47:12.949Z</time></trkpt><trkpt lat="45.57968" lon="8.8334983"><ele>204.5</ele><time>2026-04-04T05:47:13.949Z</time></trkpt><trkpt lat="45.5796483" lon="8.8333033"><ele>205.0</ele><time>2026-04-04T05:47:14.949Z</time></trkpt><trkpt lat="45.579595" lon="8.8330933"><ele>205.33333333333331</ele><time>2026-04-04T05:47:15.949Z</time></trkpt><trkpt lat="45.579555" lon="8.8328767"><ele>205.66666666666669</ele><time>2026-04-04T05:47:16.949Z</time></trkpt><trkpt lat="45.5795" lon="8.83266"><ele>206.0</ele><time>2026-04-04T05:47:17.949Z</time></trkpt><trkpt lat="45.5794617" lon="8.83244"><ele>204.0</ele><time>2026-04-04T05:47:18.949Z</time></trkpt><trkpt lat="45.5794283" lon="8.83222"><ele>202.0</ele><time>2026-04-04T05:47:19.949Z</time></trkpt><trkpt lat="45.579385" lon="8.8319867"><ele>200.0</ele><time>2026-04-04T05:47:20.949Z</time></trkpt><trkpt lat="45.57934" lon="8.8317433"><ele>200.0</ele><time>2026-04-04T05:47:21.949Z</time></trkpt><trkpt lat="45.5792967" lon="8.8314917"><ele>200.0</ele><time>2026-04-04T05:47:22.949Z</time></trkpt><trkpt lat="45.5792667" lon="8.8312683"><ele>200.0</ele><time>2026-04-04T05:47:23.949Z</time></trkpt><trkpt lat="45.5792317" lon="8.831055"><ele>200.25</ele><time>2026-04-04T05:47:24.949Z</time></trkpt><trkpt lat="45.57919" lon="8.830855"><ele>200.5</ele><time>2026-04-04T05:47:25.949Z</time></trkpt><trkpt lat="45.57915" lon="8.8306733"><ele>200.75</ele><time>2026-04-04T05:47:26.948Z</time></trkpt><trkpt lat="45.5791183" lon="8.8304917"><ele>201.0</ele><time>2026-04-04T05:47:27.948Z</time></trkpt><trkpt lat="45.5790917" lon="8.8303233"><ele>201.0</ele><time>2026-04-04T05:47:28.949Z</time></trkpt><trkpt lat="45.579065" lon="8.8301583"><ele>201.0</ele><time>2026-04-04T05:47:29.949Z</time></trkpt><trkpt lat="45.5790417" lon="8.83"><ele>201.0</ele><time>2026-04-04T05:47:30.949Z</time></trkpt><trkpt lat="45.5790217" lon="8.8298467"><ele>201.0</ele><time>2026-04-04T05:47:31.949Z</time></trkpt><trkpt lat="45.579005" lon="8.829705"><ele>201.0</ele><time>2026-04-04T05:47:32.949Z</time></trkpt><trkpt lat="45.578995" lon="8.8295617"><ele>201.0</ele><time>2026-04-04T05:47:33.949Z</time></trkpt><trkpt lat="45.5790017" lon="8.829435"><ele>201.0</ele><time>2026-04-04T05:47:34.949Z</time></trkpt><trkpt lat="45.5790083" lon="8.8293083"><ele>201.0</ele><time>2026-04-04T05:47:35.949Z</time></trkpt><trkpt lat="45.5790067" lon="8.8291917"><ele>201.0</ele><time>2026-04-04T05:47:36.949Z</time></trkpt><trkpt lat="45.5789833" lon="8.8290933"><ele>201.0</ele><time>2026-04-04T05:47:37.949Z</time></trkpt><trkpt lat="45.5788867" lon="8.82902"><ele>201.0</ele><time>2026-04-04T05:47:39.949Z</time></trkpt><trkpt lat="45.57881" lon="8.829055"><ele>201.0</ele><time>2026-04-04T05:47:40.949Z</time></trkpt><trkpt lat="45.5787167" lon="8.8291283"><ele>201.0</ele><time>2026-04-04T05:47:41.948Z</time></trkpt><trkpt lat="45.5786033" lon="8.8292083"><ele>201.0</ele><time>2026-04-04T05:47:42.949Z</time></trkpt><trkpt lat="45.5784717" lon="8.8292667"><ele>201.0</ele><time>2026-04-04T05:47:43.949Z</time></trkpt><trkpt lat="45.57833" lon="8.829315"><ele>200.33333333333331</ele><time>2026-04-04T05:47:44.949Z</time></trkpt><trkpt lat="45.5781817" lon="8.8293617"><ele>199.66666666666666</ele><time>2026-04-04T05:47:45.948Z</time></trkpt><trkpt lat="45.5780233" lon="8.8294133"><ele>199.0</ele><time>2026-04-04T05:47:46.949Z</time></trkpt><trkpt lat="45.5778633" lon="8.82947"><ele>198.66666666666666</ele><time>2026-04-04T05:47:47.949Z</time></trkpt><trkpt lat="45.577685" lon="8.82952"><ele>198.33333333333331</ele><time>2026-04-04T05:47:48.949Z</time></trkpt><trkpt lat="45.5775017" lon="8.8295667"><ele>198.0</ele><time>2026-04-04T05:47:49.948Z</time></trkpt><trkpt lat="45.5773133" lon="8.8296067"><ele>198.0</ele><time>2026-04-04T05:47:50.949Z</time></trkpt><trkpt lat="45.577125" lon="8.8296367"><ele>198.0</ele><time>2026-04-04T05:47:51.949Z</time></trkpt><trkpt lat="45.57694" lon="8.829675"><ele>198.0</ele><time>2026-04-04T05:47:52.949Z</time></trkpt><trkpt lat="45.57674" lon="8.8297117"><ele>197.66666666666669</ele><time>2026-04-04T05:47:53.949Z</time></trkpt><trkpt lat="45.5765417" lon="8.82975"><ele>197.33333333333334</ele><time>2026-04-04T05:47:54.949Z</time></trkpt><trkpt lat="45.57635" lon="8.82979"><ele>197.0</ele><time>2026-04-04T05:47:55.949Z</time></trkpt><trkpt lat="45.5761617" lon="8.829835"><ele>197.0</ele><time>2026-04-04T05:47:56.949Z</time></trkpt><trkpt lat="45.5759567" lon="8.82986"><ele>197.0</ele><time>2026-04-04T05:47:57.949Z</time></trkpt><trkpt lat="45.575755" lon="8.8298833"><ele>197.0</ele><time>2026-04-04T05:47:58.949Z</time></trkpt><trkpt lat="45.57557" lon="8.8299067"><ele>197.0</ele><time>2026-04-04T05:47:59.949Z</time></trkpt><trkpt lat="45.5754" lon="8.829935"><ele>197.0</ele><time>2026-04-04T05:48:00.949Z</time></trkpt><trkpt lat="45.575245" lon="8.829955"><ele>197.0</ele><time>2026-04-04T05:48:01.949Z</time></trkpt><trkpt lat="45.5751017" lon="8.82997"><ele>197.0</ele><time>2026-04-04T05:48:02.949Z</time></trkpt><trkpt lat="45.574975" lon="8.8299783"><ele>197.0</ele><time>2026-04-04T05:48:03.949Z</time></trkpt><trkpt lat="45.5748517" lon="8.8299533"><ele>197.0</ele><time>2026-04-04T05:48:04.949Z</time></trkpt><trkpt lat="45.57473" lon="8.8298983"><ele>197.0</ele><time>2026-04-04T05:48:05.949Z</time></trkpt><trkpt lat="45.574625" lon="8.8298033"><ele>197.0</ele><time>2026-04-04T05:48:06.949Z</time></trkpt><trkpt lat="45.57455" lon="8.8296467"><ele>197.0</ele><time>2026-04-04T05:48:07.948Z</time></trkpt><trkpt lat="45.5744933" lon="8.8294683"><ele>197.0</ele><time>2026-04-04T05:48:08.949Z</time></trkpt><trkpt lat="45.57446" lon="8.8292633"><ele>197.0</ele><time>2026-04-04T05:48:09.949Z</time></trkpt><trkpt lat="45.5744383" lon="8.82904"><ele>195.66666666666669</ele><time>2026-04-04T05:48:10.949Z</time></trkpt><trkpt lat="45.5744217" lon="8.8288117"><ele>194.33333333333331</ele><time>2026-04-04T05:48:11.949Z</time></trkpt><trkpt lat="45.574405" lon="8.82858"><ele>193.0</ele><time>2026-04-04T05:48:12.949Z</time></trkpt><trkpt lat="45.574385" lon="8.8283317"><ele>193.0</ele><time>2026-04-04T05:48:13.949Z</time></trkpt><trkpt lat="45.5743633" lon="8.8280633"><ele>193.0</ele><time>2026-04-04T05:48:14.949Z</time></trkpt><trkpt lat="45.57434" lon="8.8277883"><ele>193.0</ele><time>2026-04-04T05:48:15.949Z</time></trkpt><trkpt lat="45.5743167" lon="8.827515"><ele>193.0</ele><time>2026-04-04T05:48:16.949Z</time></trkpt><trkpt lat="45.5742917" lon="8.82724"><ele>193.0</ele><time>2026-04-04T05:48:17.949Z</time></trkpt><trkpt lat="45.5742617" lon="8.826965"><ele>193.0</ele><time>2026-04-04T05:48:18.949Z</time></trkpt><trkpt lat="45.5742233" lon="8.8266867"><ele>193.66666666666666</ele><time>2026-04-04T05:48:19.949Z</time></trkpt><trkpt lat="45.5741967" lon="8.8264217"><ele>194.33333333333331</ele><time>2026-04-04T05:48:20.949Z</time></trkpt><trkpt lat="45.5741717" lon="8.8261533"><ele>195.0</ele><time>2026-04-04T05:48:21.949Z</time></trkpt><trkpt lat="45.57415" lon="8.8258717"><ele>195.0</ele><time>2026-04-04T05:48:22.949Z</time></trkpt><trkpt lat="45.57412" lon="8.82559"><ele>195.0</ele><time>2026-04-04T05:48:23.949Z</time></trkpt><trkpt lat="45.5740933" lon="8.82532"><ele>195.0</ele><time>2026-04-04T05:48:24.949Z</time></trkpt><trkpt lat="45.5740767" lon="8.8250667"><ele>194.66666666666669</ele><time>2026-04-04T05:48:25.949Z</time></trkpt><trkpt lat="45.5740583" lon="8.824835"><ele>194.33333333333334</ele><time>2026-04-04T05:48:26.949Z</time></trkpt><trkpt lat="45.5740317" lon="8.82461"><ele>194.0</ele><time>2026-04-04T05:48:27.949Z</time></trkpt><trkpt lat="45.5740133" lon="8.8244"><ele>194.0</ele><time>2026-04-04T05:48:28.949Z</time></trkpt><trkpt lat="45.5739967" lon="8.8241933"><ele>194.0</ele><time>2026-04-04T05:48:29.949Z</time></trkpt><trkpt lat="45.5739767" lon="8.8239817"><ele>194.0</ele><time>2026-04-04T05:48:30.949Z</time></trkpt><trkpt lat="45.5739617" lon="8.8237717"><ele>194.0</ele><time>2026-04-04T05:48:31.949Z</time></trkpt><trkpt lat="45.57394" lon="8.82356"><ele>194.0</ele><time>2026-04-04T05:48:32.949Z</time></trkpt><trkpt lat="45.57392" lon="8.8233317"><ele>194.0</ele><time>2026-04-04T05:48:33.949Z</time></trkpt><trkpt lat="45.5739067" lon="8.8231067"><ele>194.0</ele><time>2026-04-04T05:48:34.949Z</time></trkpt><trkpt lat="45.57389" lon="8.8228783"><ele>194.0</ele><time>2026-04-04T05:48:35.949Z</time></trkpt><trkpt lat="45.5738683" lon="8.8226567"><ele>194.0</ele><time>2026-04-04T05:48:36.949Z</time></trkpt><trkpt lat="45.5738483" lon="8.8224633"><ele>194.0</ele><time>2026-04-04T05:48:37.949Z</time></trkpt><trkpt lat="45.5738317" lon="8.8222917"><ele>194.0</ele><time>2026-04-04T05:48:38.949Z</time></trkpt><trkpt lat="45.5738183" lon="8.8221383"><ele>194.0</ele><time>2026-04-04T05:48:39.949Z</time></trkpt><trkpt lat="45.5737983" lon="8.82198"><ele>194.0</ele><time>2026-04-04T05:48:40.949Z</time></trkpt><trkpt lat="45.5737883" lon="8.8218167"><ele>194.0</ele><time>2026-04-04T05:48:41.949Z</time></trkpt><trkpt lat="45.5737683" lon="8.8216483"><ele>194.0</ele><time>2026-04-04T05:48:42.949Z</time></trkpt><trkpt lat="45.573755" lon="8.8214617"><ele>194.0</ele><time>2026-04-04T05:48:43.949Z</time></trkpt><trkpt lat="45.57374" lon="8.8212733"><ele>194.0</ele><time>2026-04-04T05:48:44.949Z</time></trkpt><trkpt lat="45.5737233" lon="8.8210667"><ele>194.0</ele><time>2026-04-04T05:48:45.949Z</time></trkpt><trkpt lat="45.5737067" lon="8.8208417"><ele>194.0</ele><time>2026-04-04T05:48:46.949Z</time></trkpt><trkpt lat="45.57369" lon="8.8206033"><ele>194.33333333333334</ele><time>2026-04-04T05:48:47.949Z</time></trkpt><trkpt lat="45.5736683" lon="8.8203717"><ele>194.66666666666669</ele><time>2026-04-04T05:48:48.949Z</time></trkpt><trkpt lat="45.57365" lon="8.8201333"><ele>195.0</ele><time>2026-04-04T05:48:49.948Z</time></trkpt><trkpt lat="45.57364" lon="8.819905"><ele>195.0</ele><time>2026-04-04T05:48:50.949Z</time></trkpt><trkpt lat="45.5736183" lon="8.8196867"><ele>195.0</ele><time>2026-04-04T05:48:51.949Z</time></trkpt><trkpt lat="45.5735933" lon="8.8194733"><ele>195.0</ele><time>2026-04-04T05:48:52.949Z</time></trkpt><trkpt lat="45.5735667" lon="8.81928"><ele>195.0</ele><time>2026-04-04T05:48:53.949Z</time></trkpt><trkpt lat="45.573545" lon="8.8190917"><ele>194.8</ele><time>2026-04-04T05:48:54.949Z</time></trkpt><trkpt lat="45.573525" lon="8.8189183"><ele>194.6</ele><time>2026-04-04T05:48:55.948Z</time></trkpt><trkpt lat="45.5735117" lon="8.8187633"><ele>194.39999999999998</ele><time>2026-04-04T05:48:56.949Z</time></trkpt><trkpt lat="45.5734933" lon="8.8186067"><ele>194.2</ele><time>2026-04-04T05:48:57.949Z</time></trkpt><trkpt lat="45.57349" lon="8.8184633"><ele>194.0</ele><time>2026-04-04T05:48:58.949Z</time></trkpt><trkpt lat="45.5735083" lon="8.8183417"><ele>194.0</ele><time>2026-04-04T05:48:59.949Z</time></trkpt><trkpt lat="45.57354" lon="8.818245"><ele>194.0</ele><time>2026-04-04T05:49:00.949Z</time></trkpt><trkpt lat="45.5735933" lon="8.8181533"><ele>194.0</ele><time>2026-04-04T05:49:01.949Z</time></trkpt><trkpt lat="45.5736767" lon="8.8180517"><ele>194.0</ele><time>2026-04-04T05:49:02.949Z</time></trkpt><trkpt lat="45.57376" lon="8.81794"><ele>194.0</ele><time>2026-04-04T05:49:03.949Z</time></trkpt><trkpt lat="45.5738333" lon="8.8178317"><ele>194.39999999999998</ele><time>2026-04-04T05:49:04.949Z</time></trkpt><trkpt lat="45.573895" lon="8.8177383"><ele>194.8</ele><time>2026-04-04T05:49:05.949Z</time></trkpt><trkpt lat="45.5739383" lon="8.81766"><ele>195.2</ele><time>2026-04-04T05:49:06.949Z</time></trkpt><trkpt lat="45.5739767" lon="8.8175533"><ele>195.60000000000002</ele><time>2026-04-04T05:49:08.949Z</time></trkpt><trkpt lat="45.5739717" lon="8.8174267"><ele>196.0</ele><time>2026-04-04T05:49:11.949Z</time></trkpt><trkpt lat="45.5739433" lon="8.817225"><ele>196.0</ele><time>2026-04-04T05:49:13.949Z</time></trkpt><trkpt lat="45.5739217" lon="8.81708"><ele>196.0</ele><time>2026-04-04T05:49:14.949Z</time></trkpt><trkpt lat="45.5739067" lon="8.8168967"><ele>196.0</ele><time>2026-04-04T05:49:15.949Z</time></trkpt><trkpt lat="45.573895" lon="8.81668"><ele>196.0</ele><time>2026-04-04T05:49:16.949Z</time></trkpt><trkpt lat="45.573875" lon="8.81646"><ele>196.0</ele><time>2026-04-04T05:49:17.949Z</time></trkpt><trkpt lat="45.5738583" lon="8.8162517"><ele>196.0</ele><time>2026-04-04T05:49:18.949Z</time></trkpt><trkpt lat="45.573855" lon="8.816015"><ele>196.0</ele><time>2026-04-04T05:49:19.949Z</time></trkpt><trkpt lat="45.5738683" lon="8.815765"><ele>196.0</ele><time>2026-04-04T05:49:20.949Z</time></trkpt><trkpt lat="45.57389" lon="8.815515"><ele>196.0</ele><time>2026-04-04T05:49:21.949Z</time></trkpt><trkpt lat="45.5739183" lon="8.8152683"><ele>196.0</ele><time>2026-04-04T05:49:22.949Z</time></trkpt><trkpt lat="45.5739533" lon="8.815015"><ele>196.0</ele><time>2026-04-04T05:49:23.949Z</time></trkpt><trkpt lat="45.57399" lon="8.8147617"><ele>196.0</ele><time>2026-04-04T05:49:24.949Z</time></trkpt><trkpt lat="45.5740167" lon="8.8144983"><ele>196.0</ele><time>2026-04-04T05:49:25.949Z</time></trkpt><trkpt lat="45.5740483" lon="8.814235"><ele>196.0</ele><time>2026-04-04T05:49:26.949Z</time></trkpt><trkpt lat="45.5740767" lon="8.813995"><ele>196.0</ele><time>2026-04-04T05:49:27.949Z</time></trkpt><trkpt lat="45.5740967" lon="8.8137567"><ele>196.0</ele><time>2026-04-04T05:49:28.949Z</time></trkpt><trkpt lat="45.5741283" lon="8.8135183"><ele>195.33333333333331</ele><time>2026-04-04T05:49:29.949Z</time></trkpt><trkpt lat="45.5741517" lon="8.81328"><ele>194.66666666666669</ele><time>2026-04-04T05:49:30.949Z</time></trkpt><trkpt lat="45.574185" lon="8.8130517"><ele>194.0</ele><time>2026-04-04T05:49:31.949Z</time></trkpt><trkpt lat="45.5742133" lon="8.8128133"><ele>193.66666666666669</ele><time>2026-04-04T05:49:32.949Z</time></trkpt><trkpt lat="45.5742383" lon="8.812575"><ele>193.33333333333331</ele><time>2026-04-04T05:49:33.948Z</time></trkpt><trkpt lat="45.57427" lon="8.81234"><ele>193.0</ele><time>2026-04-04T05:49:34.949Z</time></trkpt><trkpt lat="45.5743033" lon="8.8121033"><ele>193.0</ele><time>2026-04-04T05:49:35.949Z</time></trkpt><trkpt lat="45.5743283" lon="8.8118567"><ele>193.0</ele><time>2026-04-04T05:49:36.949Z</time></trkpt><trkpt lat="45.5743617" lon="8.8116133"><ele>193.0</ele><time>2026-04-04T05:49:37.949Z</time></trkpt><trkpt lat="45.5743833" lon="8.8113817"><ele>193.5</ele><time>2026-04-04T05:49:38.948Z</time></trkpt><trkpt lat="45.574415" lon="8.8111717"><ele>194.0</ele><time>2026-04-04T05:49:39.949Z</time></trkpt><trkpt lat="45.5744367" lon="8.8109817"><ele>194.5</ele><time>2026-04-04T05:49:40.949Z</time></trkpt><trkpt lat="45.5744517" lon="8.8108083"><ele>195.0</ele><time>2026-04-04T05:49:41.948Z</time></trkpt><trkpt lat="45.5744717" lon="8.8106483"><ele>195.2</ele><time>2026-04-04T05:49:42.949Z</time></trkpt><trkpt lat="45.5744883" lon="8.8105117"><ele>195.4</ele><time>2026-04-04T05:49:43.949Z</time></trkpt><trkpt lat="45.574515" lon="8.810375"><ele>195.60000000000002</ele><time>2026-04-04T05:49:44.949Z</time></trkpt><trkpt lat="45.5745417" lon="8.81024"><ele>195.8</ele><time>2026-04-04T05:49:45.948Z</time></trkpt><trkpt lat="45.574575" lon="8.8100983"><ele>196.0</ele><time>2026-04-04T05:49:46.949Z</time></trkpt><trkpt lat="45.574605" lon="8.809925"><ele>196.25</ele><time>2026-04-04T05:49:47.949Z</time></trkpt><trkpt lat="45.5746383" lon="8.8097417"><ele>196.5</ele><time>2026-04-04T05:49:48.948Z</time></trkpt><trkpt lat="45.57467" lon="8.80954"><ele>196.75</ele><time>2026-04-04T05:49:49.949Z</time></trkpt><trkpt lat="45.57471" lon="8.80933"><ele>197.0</ele><time>2026-04-04T05:49:50.949Z</time></trkpt><trkpt lat="45.5747567" lon="8.8091067"><ele>197.0</ele><time>2026-04-04T05:49:51.948Z</time></trkpt><trkpt lat="45.57479" lon="8.808865"><ele>197.0</ele><time>2026-04-04T05:49:52.949Z</time></trkpt><trkpt lat="45.57482" lon="8.8086183"><ele>197.0</ele><time>2026-04-04T05:49:53.949Z</time></trkpt><trkpt lat="45.5748667" lon="8.8083783"><ele>197.33333333333334</ele><time>2026-04-04T05:49:54.948Z</time></trkpt><trkpt lat="45.5749067" lon="8.8081483"><ele>197.66666666666669</ele><time>2026-04-04T05:49:55.949Z</time></trkpt><trkpt lat="45.574945" lon="8.80792"><ele>198.0</ele><time>2026-04-04T05:49:56.948Z</time></trkpt><trkpt lat="45.57499" lon="8.8077083"><ele>197.33333333333331</ele><time>2026-04-04T05:49:57.949Z</time></trkpt><trkpt lat="45.5750467" lon="8.8075017"><ele>196.66666666666666</ele><time>2026-04-04T05:49:58.949Z</time></trkpt><trkpt lat="45.5750967" lon="8.8072967"><ele>196.0</ele><time>2026-04-04T05:49:59.948Z</time></trkpt><trkpt lat="45.5751633" lon="8.80709"><ele>196.0</ele><time>2026-04-04T05:50:00.949Z</time></trkpt><trkpt lat="45.57523" lon="8.8068817"><ele>196.0</ele><time>2026-04-04T05:50:01.949Z</time></trkpt><trkpt lat="45.5753083" lon="8.8066733"><ele>196.0</ele><time>2026-04-04T05:50:02.949Z</time></trkpt><trkpt lat="45.5753733" lon="8.806465"><ele>196.33333333333331</ele><time>2026-04-04T05:50:03.949Z</time></trkpt><trkpt lat="45.5754367" lon="8.80625"><ele>196.66666666666669</ele><time>2026-04-04T05:50:04.949Z</time></trkpt><trkpt lat="45.5755083" lon="8.8060417"><ele>197.0</ele><time>2026-04-04T05:50:05.948Z</time></trkpt><trkpt lat="45.5755817" lon="8.8058383"><ele>197.33333333333334</ele><time>2026-04-04T05:50:06.949Z</time></trkpt><trkpt lat="45.5756467" lon="8.8056283"><ele>197.66666666666669</ele><time>2026-04-04T05:50:07.948Z</time></trkpt><trkpt lat="45.575715" lon="8.8054083"><ele>198.0</ele><time>2026-04-04T05:50:08.949Z</time></trkpt><trkpt lat="45.5757767" lon="8.805185"><ele>197.33333333333331</ele><time>2026-04-04T05:50:09.949Z</time></trkpt><trkpt lat="45.5758267" lon="8.8049683"><ele>196.66666666666666</ele><time>2026-04-04T05:50:10.949Z</time></trkpt><trkpt lat="45.57587" lon="8.8047533"><ele>196.0</ele><time>2026-04-04T05:50:11.949Z</time></trkpt><trkpt lat="45.5759033" lon="8.8045583"><ele>196.0</ele><time>2026-04-04T05:50:12.949Z</time></trkpt><trkpt lat="45.5759433" lon="8.8043867"><ele>196.0</ele><time>2026-04-04T05:50:13.949Z</time></trkpt><trkpt lat="45.5759733" lon="8.8042233"><ele>196.0</ele><time>2026-04-04T05:50:14.949Z</time></trkpt><trkpt lat="45.576005" lon="8.80407"><ele>196.0</ele><time>2026-04-04T05:50:15.949Z</time></trkpt><trkpt lat="45.57603" lon="8.8039317"><ele>196.0</ele><time>2026-04-04T05:50:16.949Z</time></trkpt><trkpt lat="45.5760633" lon="8.8037883"><ele>196.0</ele><time>2026-04-04T05:50:17.949Z</time></trkpt><trkpt lat="45.5760983" lon="8.8036617"><ele>196.0</ele><time>2026-04-04T05:50:18.948Z</time></trkpt><trkpt lat="45.5761183" lon="8.80355"><ele>196.0</ele><time>2026-04-04T05:50:19.949Z</time></trkpt><trkpt lat="45.5761517" lon="8.803395"><ele>196.0</ele><time>2026-04-04T05:50:21.948Z</time></trkpt><trkpt lat="45.5761783" lon="8.8033033"><ele>196.16666666666666</ele><time>2026-04-04T05:50:23.949Z</time></trkpt><trkpt lat="45.5761833" lon="8.8032067"><ele>196.33333333333331</ele><time>2026-04-04T05:51:17.948Z</time></trkpt><trkpt lat="45.5762067" lon="8.8030667"><ele>196.5</ele><time>2026-04-04T05:51:19.949Z</time></trkpt><trkpt lat="45.57621" lon="8.8029617"><ele>196.66666666666669</ele><time>2026-04-04T05:51:20.949Z</time></trkpt><trkpt lat="45.5762033" lon="8.8028467"><ele>196.83333333333334</ele><time>2026-04-04T05:51:21.948Z</time></trkpt><trkpt lat="45.576175" lon="8.8027233"><ele>197.0</ele><time>2026-04-04T05:51:22.948Z</time></trkpt><trkpt lat="45.5761383" lon="8.8025717"><ele>197.25</ele><time>2026-04-04T05:51:23.949Z</time></trkpt><trkpt lat="45.5761033" lon="8.8024167"><ele>197.5</ele><time>2026-04-04T05:51:24.949Z</time></trkpt><trkpt lat="45.5760683" lon="8.80225"><ele>197.75</ele><time>2026-04-04T05:51:25.949Z</time></trkpt><trkpt lat="45.5760417" lon="8.802085"><ele>198.0</ele><time>2026-04-04T05:51:26.949Z</time></trkpt><trkpt lat="45.576025" lon="8.8019267"><ele>197.8</ele><time>2026-04-04T05:51:27.949Z</time></trkpt><trkpt lat="45.576005" lon="8.8017633"><ele>197.60000000000002</ele><time>2026-04-04T05:51:28.949Z</time></trkpt><trkpt lat="45.5759983" lon="8.8016033"><ele>197.39999999999998</ele><time>2026-04-04T05:51:29.949Z</time></trkpt><trkpt lat="45.5760033" lon="8.8014567"><ele>197.2</ele><time>2026-04-04T05:51:30.949Z</time></trkpt><trkpt lat="45.576035" lon="8.8013383"><ele>197.0</ele><time>2026-04-04T05:51:31.949Z</time></trkpt><trkpt lat="45.576065" lon="8.80123"><ele>197.0</ele><time>2026-04-04T05:51:32.949Z</time></trkpt><trkpt lat="45.576095" lon="8.8011217"><ele>197.0</ele><time>2026-04-04T05:51:33.949Z</time></trkpt><trkpt lat="45.5761033" lon="8.8009917"><ele>197.0</ele><time>2026-04-04T05:51:34.949Z</time></trkpt><trkpt lat="45.5761133" lon="8.8008483"><ele>197.0</ele><time>2026-04-04T05:51:35.949Z</time></trkpt><trkpt lat="45.57613" lon="8.8006767"><ele>197.0</ele><time>2026-04-04T05:51:36.949Z</time></trkpt><trkpt lat="45.5761617" lon="8.80048"><ele>197.0</ele><time>2026-04-04T05:51:37.948Z</time></trkpt><trkpt lat="45.576195" lon="8.8002717"><ele>197.0</ele><time>2026-04-04T05:51:38.949Z</time></trkpt><trkpt lat="45.5762283" lon="8.8001017"><ele>197.0</ele><time>2026-04-04T05:51:39.949Z</time></trkpt><trkpt lat="45.5762567" lon="8.7999283"><ele>197.0</ele><time>2026-04-04T05:51:40.949Z</time></trkpt><trkpt lat="45.57628" lon="8.7997717"><ele>197.0</ele><time>2026-04-04T05:51:41.949Z</time></trkpt><trkpt lat="45.5763033" lon="8.7996367"><ele>197.0</ele><time>2026-04-04T05:51:42.949Z</time></trkpt><trkpt lat="45.5763183" lon="8.7995317"><ele>197.0</ele><time>2026-04-04T05:51:43.949Z</time></trkpt><trkpt lat="45.5763417" lon="8.7994133"><ele>197.0</ele><time>2026-04-04T05:51:44.948Z</time></trkpt><trkpt lat="45.57636" lon="8.7992883"><ele>197.0</ele><time>2026-04-04T05:51:45.949Z</time></trkpt><trkpt lat="45.5763883" lon="8.7991333"><ele>197.0</ele><time>2026-04-04T05:51:46.949Z</time></trkpt><trkpt lat="45.576425" lon="8.7989617"><ele>197.0</ele><time>2026-04-04T05:51:47.948Z</time></trkpt><trkpt lat="45.5764633" lon="8.79878"><ele>197.0</ele><time>2026-04-04T05:51:48.949Z</time></trkpt><trkpt lat="45.576505" lon="8.7985817"><ele>197.0</ele><time>2026-04-04T05:51:49.949Z</time></trkpt><trkpt lat="45.576545" lon="8.79836"><ele>197.0</ele><time>2026-04-04T05:51:50.949Z</time></trkpt><trkpt lat="45.576585" lon="8.7981333"><ele>197.0</ele><time>2026-04-04T05:51:51.949Z</time></trkpt><trkpt lat="45.5766267" lon="8.7979"><ele>197.0</ele><time>2026-04-04T05:51:52.949Z</time></trkpt><trkpt lat="45.576665" lon="8.797665"><ele>197.0</ele><time>2026-04-04T05:51:53.949Z</time></trkpt><trkpt lat="45.576705" lon="8.79743"><ele>197.0</ele><time>2026-04-04T05:51:54.949Z</time></trkpt><trkpt lat="45.5767417" lon="8.7972217"><ele>197.0</ele><time>2026-04-04T05:51:55.949Z</time></trkpt><trkpt lat="45.5767733" lon="8.7970083"><ele>196.75</ele><time>2026-04-04T05:51:56.949Z</time></trkpt><trkpt lat="45.5768017" lon="8.79681"><ele>196.5</ele><time>2026-04-04T05:51:57.949Z</time></trkpt><trkpt lat="45.5768383" lon="8.796595"><ele>196.25</ele><time>2026-04-04T05:51:58.949Z</time></trkpt><trkpt lat="45.5768783" lon="8.7963867"><ele>196.0</ele><time>2026-04-04T05:51:59.949Z</time></trkpt><trkpt lat="45.5769117" lon="8.7961717"><ele>196.0</ele><time>2026-04-04T05:52:00.949Z</time></trkpt><trkpt lat="45.5769583" lon="8.7959567"><ele>196.0</ele><time>2026-04-04T05:52:01.949Z</time></trkpt><trkpt lat="45.5769817" lon="8.7957317"><ele>196.0</ele><time>2026-04-04T05:52:02.949Z</time></trkpt><trkpt lat="45.5770267" lon="8.7955133"><ele>197.0</ele><time>2026-04-04T05:52:03.948Z</time></trkpt><trkpt lat="45.5770583" lon="8.795275"><ele>198.0</ele><time>2026-04-04T05:52:04.949Z</time></trkpt><trkpt lat="45.57709" lon="8.795035"><ele>199.0</ele><time>2026-04-04T05:52:05.949Z</time></trkpt><trkpt lat="45.57712" lon="8.7947933"><ele>199.0</ele><time>2026-04-04T05:52:06.949Z</time></trkpt><trkpt lat="45.5771517" lon="8.7945417"><ele>199.0</ele><time>2026-04-04T05:52:07.949Z</time></trkpt><trkpt lat="45.5771917" lon="8.79429"><ele>199.0</ele><time>2026-04-04T05:52:08.949Z</time></trkpt><trkpt lat="45.5772317" lon="8.79404"><ele>198.66666666666666</ele><time>2026-04-04T05:52:09.948Z</time></trkpt><trkpt lat="45.57727" lon="8.793795"><ele>198.33333333333331</ele><time>2026-04-04T05:52:10.949Z</time></trkpt><trkpt lat="45.577305" lon="8.7935667"><ele>198.0</ele><time>2026-04-04T05:52:11.949Z</time></trkpt><trkpt lat="45.5773283" lon="8.7933667"><ele>198.0</ele><time>2026-04-04T05:52:12.948Z</time></trkpt><trkpt lat="45.577355" lon="8.7931883"><ele>198.0</ele><time>2026-04-04T05:52:13.948Z</time></trkpt><trkpt lat="45.5773833" lon="8.7930333"><ele>198.0</ele><time>2026-04-04T05:52:14.948Z</time></trkpt><trkpt lat="45.5773983" lon="8.7928933"><ele>198.0</ele><time>2026-04-04T05:52:15.949Z</time></trkpt><trkpt lat="45.5774133" lon="8.7927617"><ele>198.0</ele><time>2026-04-04T05:52:16.949Z</time></trkpt><trkpt lat="45.577425" lon="8.7926367"><ele>197.75</ele><time>2026-04-04T05:52:17.949Z</time></trkpt><trkpt lat="45.577445" lon="8.7925067"><ele>197.5</ele><time>2026-04-04T05:52:18.949Z</time></trkpt><trkpt lat="45.57747" lon="8.79236"><ele>197.25</ele><time>2026-04-04T05:52:19.949Z</time></trkpt><trkpt lat="45.5775067" lon="8.79219"><ele>197.0</ele><time>2026-04-04T05:52:20.949Z</time></trkpt><trkpt lat="45.577555" lon="8.7920117"><ele>196.66666666666669</ele><time>2026-04-04T05:52:21.949Z</time></trkpt><trkpt lat="45.5776" lon="8.791815"><ele>196.33333333333331</ele><time>2026-04-04T05:52:22.948Z</time></trkpt><trkpt lat="45.5776367" lon="8.7916033"><ele>196.0</ele><time>2026-04-04T05:52:23.949Z</time></trkpt><trkpt lat="45.5776833" lon="8.7913867"><ele>196.0</ele><time>2026-04-04T05:52:24.949Z</time></trkpt><trkpt lat="45.57771" lon="8.7911733"><ele>196.0</ele><time>2026-04-04T05:52:25.949Z</time></trkpt><trkpt lat="45.5777467" lon="8.7909567"><ele>196.0</ele><time>2026-04-04T05:52:26.949Z</time></trkpt><trkpt lat="45.5777833" lon="8.790745"><ele>196.5</ele><time>2026-04-04T05:52:27.949Z</time></trkpt><trkpt lat="45.57782" lon="8.7905333"><ele>197.0</ele><time>2026-04-04T05:52:28.949Z</time></trkpt><trkpt lat="45.5778533" lon="8.7903383"><ele>197.5</ele><time>2026-04-04T05:52:29.949Z</time></trkpt><trkpt lat="45.5778817" lon="8.7901567"><ele>198.0</ele><time>2026-04-04T05:52:30.949Z</time></trkpt><trkpt lat="45.577915" lon="8.7899917"><ele>198.8</ele><time>2026-04-04T05:52:31.949Z</time></trkpt><trkpt lat="45.5779433" lon="8.789835"><ele>199.60000000000002</ele><time>2026-04-04T05:52:32.949Z</time></trkpt><trkpt lat="45.5779667" lon="8.7897033"><ele>200.39999999999998</ele><time>2026-04-04T05:52:33.949Z</time></trkpt><trkpt lat="45.5779883" lon="8.78958"><ele>201.2</ele><time>2026-04-04T05:52:34.949Z</time></trkpt><trkpt lat="45.5780083" lon="8.7894667"><ele>202.0</ele><time>2026-04-04T05:52:35.949Z</time></trkpt><trkpt lat="45.5780283" lon="8.7893683"><ele>201.99999999999997</ele><time>2026-04-04T05:52:36.948Z</time></trkpt><trkpt lat="45.5780433" lon="8.7892133"><ele>202.0</ele><time>2026-04-04T05:52:38.949Z</time></trkpt><trkpt lat="45.5780417" lon="8.78911"><ele>202.0</ele><time>2026-04-04T05:52:41.949Z</time></trkpt><trkpt lat="45.5780583" lon="8.789"><ele>202.0</ele><time>2026-04-04T05:52:45.948Z</time></trkpt><trkpt lat="45.5780933" lon="8.78888"><ele>201.99999999999997</ele><time>2026-04-04T05:52:47.949Z</time></trkpt><trkpt lat="45.578115" lon="8.7887783"><ele>202.0</ele><time>2026-04-04T05:52:48.949Z</time></trkpt><trkpt lat="45.578135" lon="8.7886733"><ele>202.0</ele><time>2026-04-04T05:52:49.949Z</time></trkpt><trkpt lat="45.5781517" lon="8.78858"><ele>202.0</ele><time>2026-04-04T05:52:50.949Z</time></trkpt><trkpt lat="45.578175" lon="8.78842"><ele>202.0</ele><time>2026-04-04T05:52:52.949Z</time></trkpt><trkpt lat="45.5781683" lon="8.7882867"><ele>202.0</ele><time>2026-04-04T05:52:54.948Z</time></trkpt><trkpt lat="45.57808" lon="8.7881283"><ele>202.0</ele><time>2026-04-04T05:52:57.949Z</time></trkpt><trkpt lat="45.5779983" lon="8.7880433"><ele>201.2</ele><time>2026-04-04T05:52:59.949Z</time></trkpt><trkpt lat="45.57792" lon="8.7879933"><ele>200.39999999999998</ele><time>2026-04-04T05:53:01.949Z</time></trkpt><trkpt lat="45.57783" lon="8.7879683"><ele>199.60000000000002</ele><time>2026-04-04T05:53:03.949Z</time></trkpt><trkpt lat="45.5777133" lon="8.7879083"><ele>198.8</ele><time>2026-04-04T05:53:05.949Z</time></trkpt><trkpt lat="45.5776383" lon="8.7878567"><ele>198.0</ele><time>2026-04-04T05:53:06.949Z</time></trkpt><trkpt lat="45.5775667" lon="8.7878033"><ele>197.83333333333334</ele><time>2026-04-04T05:53:07.949Z</time></trkpt><trkpt lat="45.5774883" lon="8.7877383"><ele>197.66666666666669</ele><time>2026-04-04T05:53:08.949Z</time></trkpt><trkpt lat="45.5774083" lon="8.7876867"><ele>197.5</ele><time>2026-04-04T05:53:09.948Z</time></trkpt><trkpt lat="45.57733" lon="8.7876433"><ele>197.33333333333334</ele><time>2026-04-04T05:53:10.949Z</time></trkpt><trkpt lat="45.5772683" lon="8.7876067"><ele>197.16666666666669</ele><time>2026-04-04T05:53:11.949Z</time></trkpt><trkpt lat="45.5771783" lon="8.7875633"><ele>197.0</ele><time>2026-04-04T05:53:13.949Z</time></trkpt><trkpt lat="45.5771083" lon="8.7875817"><ele>197.00000000000003</ele><time>2026-04-04T05:53:16.949Z</time></trkpt><trkpt lat="45.57716" lon="8.787635"><ele>197.0</ele><time>2026-04-04T05:53:20.949Z</time></trkpt><trkpt lat="45.5772517" lon="8.7876517"><ele>197.0</ele><time>2026-04-04T05:53:22.949Z</time></trkpt><trkpt lat="45.5773117" lon="8.7876833"><ele>197.0</ele><time>2026-04-04T05:53:23.949Z</time></trkpt><trkpt lat="45.57738" lon="8.787725"><ele>197.00000000000003</ele><time>2026-04-04T05:53:24.949Z</time></trkpt><trkpt lat="45.5774583" lon="8.7877717"><ele>197.0</ele><time>2026-04-04T05:53:25.948Z</time></trkpt><trkpt lat="45.5775383" lon="8.7878283"><ele>196.8</ele><time>2026-04-04T05:53:26.948Z</time></trkpt><trkpt lat="45.5776183" lon="8.7878917"><ele>196.6</ele><time>2026-04-04T05:53:27.948Z</time></trkpt><trkpt lat="45.5777083" lon="8.7879467"><ele>196.4</ele><time>2026-04-04T05:53:28.949Z</time></trkpt><trkpt lat="45.5777917" lon="8.7880083"><ele>196.20000000000002</ele><time>2026-04-04T05:53:29.949Z</time></trkpt><trkpt lat="45.5778767" lon="8.7880667"><ele>196.0</ele><time>2026-04-04T05:53:30.949Z</time></trkpt><trkpt lat="45.577955" lon="8.7881133"><ele>196.33333333333331</ele><time>2026-04-04T05:53:31.949Z</time></trkpt><trkpt lat="45.57802" lon="8.78816"><ele>196.66666666666666</ele><time>2026-04-04T05:53:32.949Z</time></trkpt><trkpt lat="45.5780817" lon="8.788215"><ele>197.0</ele><time>2026-04-04T05:53:33.949Z</time></trkpt><trkpt lat="45.5781333" lon="8.7882767"><ele>197.33333333333331</ele><time>2026-04-04T05:53:34.949Z</time></trkpt><trkpt lat="45.5781683" lon="8.7884067"><ele>197.66666666666666</ele><time>2026-04-04T05:53:36.949Z</time></trkpt><trkpt lat="45.578145" lon="8.7885317"><ele>198.0</ele><time>2026-04-04T05:53:38.949Z</time></trkpt><trkpt lat="45.57812" lon="8.78865"><ele>198.0</ele><time>2026-04-04T05:53:40.949Z</time></trkpt><trkpt lat="45.5780933" lon="8.7887417"><ele>198.0</ele><time>2026-04-04T05:53:42.949Z</time></trkpt><trkpt lat="45.5780533" lon="8.788855"><ele>198.0</ele><time>2026-04-04T05:53:45.949Z</time></trkpt><trkpt lat="45.5781167" lon="8.7887283"><ele>198.0</ele><time>2026-04-04T05:58:45.949Z</time></trkpt><trkpt lat="45.5781467" lon="8.78862"><ele>198.0</ele><time>2026-04-04T05:58:46.949Z</time></trkpt><trkpt lat="45.5781683" lon="8.78851"><ele>198.0</ele><time>2026-04-04T05:58:47.949Z</time></trkpt><trkpt lat="45.5781767" lon="8.7884033"><ele>198.0</ele><time>2026-04-04T05:58:48.949Z</time></trkpt><trkpt lat="45.57818" lon="8.78831"><ele>198.0</ele><time>2026-04-04T05:58:49.949Z</time></trkpt><trkpt lat="45.5781567" lon="8.7882167"><ele>198.0</ele><time>2026-04-04T05:58:50.949Z</time></trkpt><trkpt lat="45.578105" lon="8.7881383"><ele>198.0</ele><time>2026-04-04T05:58:51.949Z</time></trkpt><trkpt lat="45.57803" lon="8.7880767"><ele>198.0</ele><time>2026-04-04T05:58:52.949Z</time></trkpt><trkpt lat="45.57795" lon="8.7880367"><ele>198.0</ele><time>2026-04-04T05:58:53.949Z</time></trkpt><trkpt lat="45.577885" lon="8.7880217"><ele>198.0</ele><time>2026-04-04T05:58:54.949Z</time></trkpt><trkpt lat="45.5778267" lon="8.78798"><ele>197.5</ele><time>2026-04-04T05:59:06.949Z</time></trkpt><trkpt lat="45.5776983" lon="8.787895"><ele>197.0</ele><time>2026-04-04T05:59:08.949Z</time></trkpt><trkpt lat="45.577605" lon="8.7878433"><ele>196.5</ele><time>2026-04-04T05:59:09.949Z</time></trkpt><trkpt lat="45.577505" lon="8.78778"><ele>196.0</ele><time>2026-04-04T05:59:10.949Z</time></trkpt><trkpt lat="45.5773783" lon="8.7877017"><ele>196.0</ele><time>2026-04-04T05:59:11.949Z</time></trkpt><trkpt lat="45.5772267" lon="8.78762"><ele>196.0</ele><time>2026-04-04T05:59:12.949Z</time></trkpt><trkpt lat="45.57708" lon="8.7875367"><ele>196.0</ele><time>2026-04-04T05:59:13.949Z</time></trkpt><trkpt lat="45.57694" lon="8.7874583"><ele>196.0</ele><time>2026-04-04T05:59:14.949Z</time></trkpt><trkpt lat="45.5768017" lon="8.7873583"><ele>196.0</ele><time>2026-04-04T05:59:15.949Z</time></trkpt><trkpt lat="45.5766683" lon="8.7872433"><ele>196.0</ele><time>2026-04-04T05:59:16.948Z</time></trkpt><trkpt lat="45.5765167" lon="8.78712"><ele>196.0</ele><time>2026-04-04T05:59:17.949Z</time></trkpt><trkpt lat="45.576385" lon="8.7870117"><ele>196.0</ele><time>2026-04-04T05:59:18.949Z</time></trkpt><trkpt lat="45.5762567" lon="8.7869183"><ele>196.0</ele><time>2026-04-04T05:59:19.949Z</time></trkpt><trkpt lat="45.5761567" lon="8.7868583"><ele>196.0</ele><time>2026-04-04T05:59:20.949Z</time></trkpt><trkpt lat="45.5760583" lon="8.7868183"><ele>196.0</ele><time>2026-04-04T05:59:21.949Z</time></trkpt><trkpt lat="45.5759733" lon="8.78679"><ele>196.0</ele><time>2026-04-04T05:59:22.949Z</time></trkpt><trkpt lat="45.57591" lon="8.78672"><ele>196.0</ele><time>2026-04-04T05:59:23.949Z</time></trkpt><trkpt lat="45.5758717" lon="8.78663"><ele>196.0</ele><time>2026-04-04T05:59:24.949Z</time></trkpt><trkpt lat="45.5758267" lon="8.7865083"><ele>196.0</ele><time>2026-04-04T05:59:25.949Z</time></trkpt><trkpt lat="45.5757483" lon="8.7863867"><ele>196.0</ele><time>2026-04-04T05:59:26.949Z</time></trkpt><trkpt lat="45.5756433" lon="8.786285"><ele>196.0</ele><time>2026-04-04T05:59:27.949Z</time></trkpt><trkpt lat="45.575515" lon="8.7861983"><ele>196.0</ele><time>2026-04-04T05:59:28.949Z</time></trkpt><trkpt lat="45.5753717" lon="8.7861067"><ele>196.0</ele><time>2026-04-04T05:59:29.949Z</time></trkpt><trkpt lat="45.5752183" lon="8.7860133"><ele>195.66666666666666</ele><time>2026-04-04T05:59:30.948Z</time></trkpt><trkpt lat="45.5750617" lon="8.785895"><ele>195.33333333333331</ele><time>2026-04-04T05:59:31.949Z</time></trkpt><trkpt lat="45.5749" lon="8.7857783"><ele>195.0</ele><time>2026-04-04T05:59:32.949Z</time></trkpt><trkpt lat="45.5747317" lon="8.785655"><ele>195.0</ele><time>2026-04-04T05:59:33.949Z</time></trkpt><trkpt lat="45.5745533" lon="8.78552"><ele>195.0</ele><time>2026-04-04T05:59:34.949Z</time></trkpt><trkpt lat="45.57437" lon="8.785395"><ele>195.0</ele><time>2026-04-04T05:59:35.949Z</time></trkpt><trkpt lat="45.574185" lon="8.7852667"><ele>194.33333333333331</ele><time>2026-04-04T05:59:36.949Z</time></trkpt><trkpt lat="45.574005" lon="8.7851383"><ele>193.66666666666666</ele><time>2026-04-04T05:59:37.949Z</time></trkpt><trkpt lat="45.5738183" lon="8.785005"><ele>193.0</ele><time>2026-04-04T05:59:38.949Z</time></trkpt><trkpt lat="45.5736217" lon="8.7848717"><ele>193.0</ele><time>2026-04-04T05:59:39.949Z</time></trkpt><trkpt lat="45.5734317" lon="8.7847417"><ele>193.0</ele><time>2026-04-04T05:59:40.949Z</time></trkpt><trkpt lat="45.573235" lon="8.78461"><ele>193.0</ele><time>2026-04-04T05:59:41.949Z</time></trkpt><trkpt lat="45.573045" lon="8.7844833"><ele>193.0</ele><time>2026-04-04T05:59:42.949Z</time></trkpt><trkpt lat="45.5728517" lon="8.7843533"><ele>193.0</ele><time>2026-04-04T05:59:43.949Z</time></trkpt><trkpt lat="45.5726567" lon="8.7842133"><ele>193.0</ele><time>2026-04-04T05:59:44.949Z</time></trkpt><trkpt lat="45.5724667" lon="8.7840767"><ele>192.0</ele><time>2026-04-04T05:59:45.949Z</time></trkpt><trkpt lat="45.5722533" lon="8.7839417"><ele>191.0</ele><time>2026-04-04T05:59:46.949Z</time></trkpt><trkpt lat="45.57205" lon="8.7838017"><ele>190.66666666666666</ele><time>2026-04-04T05:59:47.948Z</time></trkpt><trkpt lat="45.5718517" lon="8.783665"><ele>190.33333333333334</ele><time>2026-04-04T05:59:48.949Z</time></trkpt><trkpt lat="45.5716633" lon="8.783525"><ele>190.0</ele><time>2026-04-04T05:59:49.949Z</time></trkpt><trkpt lat="45.571475" lon="8.783395"><ele>190.0</ele><time>2026-04-04T05:59:50.949Z</time></trkpt><trkpt lat="45.5712867" lon="8.7832667"><ele>190.0</ele><time>2026-04-04T05:59:51.949Z</time></trkpt><trkpt lat="45.5711017" lon="8.783135"><ele>190.0</ele><time>2026-04-04T05:59:52.949Z</time></trkpt><trkpt lat="45.5709217" lon="8.783015"><ele>190.33333333333334</ele><time>2026-04-04T05:59:53.949Z</time></trkpt><trkpt lat="45.570735" lon="8.7829233"><ele>190.66666666666666</ele><time>2026-04-04T05:59:54.949Z</time></trkpt><trkpt lat="45.5705483" lon="8.78287"><ele>191.0</ele><time>2026-04-04T05:59:55.949Z</time></trkpt><trkpt lat="45.570355" lon="8.7828383"><ele>191.33333333333331</ele><time>2026-04-04T05:59:56.949Z</time></trkpt><trkpt lat="45.57015" lon="8.7828"><ele>191.66666666666666</ele><time>2026-04-04T05:59:57.949Z</time></trkpt><trkpt lat="45.56995" lon="8.782765"><ele>192.0</ele><time>2026-04-04T05:59:58.949Z</time></trkpt><trkpt lat="45.5697383" lon="8.782725"><ele>192.0</ele><time>2026-04-04T05:59:59.948Z</time></trkpt><trkpt lat="45.5695217" lon="8.782705"><ele>192.0</ele><time>2026-04-04T06:00:00.949Z</time></trkpt><trkpt lat="45.5693033" lon="8.7826867"><ele>192.0</ele><time>2026-04-04T06:00:01.949Z</time></trkpt><trkpt lat="45.569085" lon="8.782665"><ele>191.0</ele><time>2026-04-04T06:00:02.949Z</time></trkpt><trkpt lat="45.5688617" lon="8.7826383"><ele>190.0</ele><time>2026-04-04T06:00:03.949Z</time></trkpt><trkpt lat="45.5686267" lon="8.78261"><ele>190.0</ele><time>2026-04-04T06:00:04.949Z</time></trkpt><trkpt lat="45.568395" lon="8.7825933"><ele>190.0</ele><time>2026-04-04T06:00:05.949Z</time></trkpt><trkpt lat="45.5681633" lon="8.7825767"><ele>190.0</ele><time>2026-04-04T06:00:06.948Z</time></trkpt><trkpt lat="45.5679283" lon="8.782555"><ele>190.0</ele><time>2026-04-04T06:00:07.949Z</time></trkpt><trkpt lat="45.5676933" lon="8.7825217"><ele>190.5</ele><time>2026-04-04T06:00:08.949Z</time></trkpt><trkpt lat="45.56746" lon="8.7825017"><ele>191.0</ele><time>2026-04-04T06:00:09.949Z</time></trkpt><trkpt lat="45.5672283" lon="8.7824883"><ele>191.0</ele><time>2026-04-04T06:00:10.949Z</time></trkpt><trkpt lat="45.5669933" lon="8.7824583"><ele>191.0</ele><time>2026-04-04T06:00:11.949Z</time></trkpt><trkpt lat="45.566785" lon="8.78244"><ele>191.0</ele><time>2026-04-04T06:00:12.949Z</time></trkpt><trkpt lat="45.566605" lon="8.782425"><ele>191.0</ele><time>2026-04-04T06:00:13.949Z</time></trkpt><trkpt lat="45.5664483" lon="8.78241"><ele>191.0</ele><time>2026-04-04T06:00:14.949Z</time></trkpt><trkpt lat="45.5663083" lon="8.782415"><ele>191.0</ele><time>2026-04-04T06:00:15.948Z</time></trkpt><trkpt lat="45.566165" lon="8.7824033"><ele>191.0</ele><time>2026-04-04T06:00:16.949Z</time></trkpt><trkpt lat="45.5660317" lon="8.7823967"><ele>190.75</ele><time>2026-04-04T06:00:17.949Z</time></trkpt><trkpt lat="45.56591" lon="8.782395"><ele>190.5</ele><time>2026-04-04T06:00:18.949Z</time></trkpt><trkpt lat="45.56579" lon="8.7823883"><ele>190.25</ele><time>2026-04-04T06:00:19.949Z</time></trkpt><trkpt lat="45.5656867" lon="8.7823833"><ele>190.0</ele><time>2026-04-04T06:00:20.949Z</time></trkpt><trkpt lat="45.5655783" lon="8.7823767"><ele>190.0</ele><time>2026-04-04T06:00:21.949Z</time></trkpt><trkpt lat="45.5654683" lon="8.7823717"><ele>190.0</ele><time>2026-04-04T06:00:22.949Z</time></trkpt><trkpt lat="45.5653683" lon="8.782365"><ele>190.0</ele><time>2026-04-04T06:00:23.949Z</time></trkpt><trkpt lat="45.5652717" lon="8.782365"><ele>190.0</ele><time>2026-04-04T06:00:24.949Z</time></trkpt><trkpt lat="45.5651783" lon="8.78236"><ele>190.0</ele><time>2026-04-04T06:00:25.949Z</time></trkpt><trkpt lat="45.5650783" lon="8.78236"><ele>189.8</ele><time>2026-04-04T06:00:26.949Z</time></trkpt><trkpt lat="45.56498" lon="8.78236"><ele>189.6</ele><time>2026-04-04T06:00:27.948Z</time></trkpt><trkpt lat="45.5648983" lon="8.7824033"><ele>189.39999999999998</ele><time>2026-04-04T06:00:28.949Z</time></trkpt><trkpt lat="45.5648133" lon="8.7824833"><ele>189.2</ele><time>2026-04-04T06:00:29.949Z</time></trkpt><trkpt lat="45.564765" lon="8.7825983"><ele>189.0</ele><time>2026-04-04T06:00:30.949Z</time></trkpt><trkpt lat="45.5647517" lon="8.78275"><ele>189.0</ele><time>2026-04-04T06:00:31.948Z</time></trkpt><trkpt lat="45.5647617" lon="8.78291"><ele>189.0</ele><time>2026-04-04T06:00:32.949Z</time></trkpt><trkpt lat="45.5647617" lon="8.7830533"><ele>189.0</ele><time>2026-04-04T06:00:33.949Z</time></trkpt><trkpt lat="45.5647417" lon="8.7831817"><ele>189.0</ele><time>2026-04-04T06:00:34.949Z</time></trkpt><trkpt lat="45.5647017" lon="8.7832867"><ele>189.0</ele><time>2026-04-04T06:00:35.949Z</time></trkpt><trkpt lat="45.5646483" lon="8.7833617"><ele>189.0</ele><time>2026-04-04T06:00:36.949Z</time></trkpt><trkpt lat="45.5645733" lon="8.7833933"><ele>189.0</ele><time>2026-04-04T06:00:37.949Z</time></trkpt><trkpt lat="45.5644717" lon="8.7833883"><ele>189.0</ele><time>2026-04-04T06:00:38.949Z</time></trkpt><trkpt lat="45.5643633" lon="8.7833767"><ele>189.0</ele><time>2026-04-04T06:00:39.949Z</time></trkpt><trkpt lat="45.5642783" lon="8.7834183"><ele>189.0</ele><time>2026-04-04T06:00:40.949Z</time></trkpt><trkpt lat="45.5641967" lon="8.7835067"><ele>189.0</ele><time>2026-04-04T06:00:41.949Z</time></trkpt><trkpt lat="45.5641317" lon="8.783635"><ele>189.0</ele><time>2026-04-04T06:00:42.949Z</time></trkpt><trkpt lat="45.56406" lon="8.78375"><ele>189.0</ele><time>2026-04-04T06:00:43.949Z</time></trkpt><trkpt lat="45.5639733" lon="8.78384"><ele>189.0</ele><time>2026-04-04T06:00:44.949Z</time></trkpt><trkpt lat="45.5638617" lon="8.7838983"><ele>189.0</ele><time>2026-04-04T06:00:45.949Z</time></trkpt><trkpt lat="45.5637467" lon="8.7839067"><ele>189.0</ele><time>2026-04-04T06:00:46.949Z</time></trkpt><trkpt lat="45.5636283" lon="8.783865"><ele>189.0</ele><time>2026-04-04T06:00:47.949Z</time></trkpt><trkpt lat="45.5635267" lon="8.7838017"><ele>189.0</ele><time>2026-04-04T06:00:48.949Z</time></trkpt><trkpt lat="45.5634483" lon="8.7837317"><ele>189.0</ele><time>2026-04-04T06:00:49.949Z</time></trkpt><trkpt lat="45.5633917" lon="8.78364"><ele>189.0</ele><time>2026-04-04T06:00:50.949Z</time></trkpt><trkpt lat="45.5633633" lon="8.7835117"><ele>189.0</ele><time>2026-04-04T06:00:51.949Z</time></trkpt><trkpt lat="45.5633617" lon="8.7833567"><ele>189.0</ele><time>2026-04-04T06:00:52.948Z</time></trkpt><trkpt lat="45.5633883" lon="8.7831683"><ele>189.0</ele><time>2026-04-04T06:00:53.949Z</time></trkpt><trkpt lat="45.5634383" lon="8.782955"><ele>189.0</ele><time>2026-04-04T06:00:54.949Z</time></trkpt><trkpt lat="45.56351" lon="8.7827267"><ele>188.0</ele><time>2026-04-04T06:00:55.949Z</time></trkpt><trkpt lat="45.5635867" lon="8.7824867"><ele>187.0</ele><time>2026-04-04T06:00:56.949Z</time></trkpt><trkpt lat="45.5636667" lon="8.782235"><ele>186.0</ele><time>2026-04-04T06:00:57.949Z</time></trkpt><trkpt lat="45.5637367" lon="8.7819833"><ele>186.33333333333334</ele><time>2026-04-04T06:00:58.949Z</time></trkpt><trkpt lat="45.5638033" lon="8.7817417"><ele>186.66666666666669</ele><time>2026-04-04T06:00:59.949Z</time></trkpt><trkpt lat="45.5638767" lon="8.781515"><ele>187.0</ele><time>2026-04-04T06:01:00.949Z</time></trkpt><trkpt lat="45.5639533" lon="8.7812917"><ele>187.0</ele><time>2026-04-04T06:01:01.949Z</time></trkpt><trkpt lat="45.56402" lon="8.78109"><ele>187.0</ele><time>2026-04-04T06:01:02.949Z</time></trkpt><trkpt lat="45.5640883" lon="8.7809033"><ele>187.0</ele><time>2026-04-04T06:01:03.949Z</time></trkpt><trkpt lat="45.5641633" lon="8.7807133"><ele>187.66666666666669</ele><time>2026-04-04T06:01:04.949Z</time></trkpt><trkpt lat="45.5642533" lon="8.78052"><ele>188.33333333333334</ele><time>2026-04-04T06:01:05.948Z</time></trkpt><trkpt lat="45.5643467" lon="8.78033"><ele>189.0</ele><time>2026-04-04T06:01:06.949Z</time></trkpt><trkpt lat="45.5644567" lon="8.780145"><ele>189.0</ele><time>2026-04-04T06:01:07.949Z</time></trkpt><trkpt lat="45.5645567" lon="8.7799433"><ele>189.0</ele><time>2026-04-04T06:01:08.948Z</time></trkpt><trkpt lat="45.5646567" lon="8.779745"><ele>189.0</ele><time>2026-04-04T06:01:09.949Z</time></trkpt><trkpt lat="45.564755" lon="8.7795467"><ele>191.0</ele><time>2026-04-04T06:01:10.949Z</time></trkpt><trkpt lat="45.5653633" lon="8.7786167"><ele>194.0</ele><time>2026-04-04T06:01:15.952Z</time></trkpt><trkpt lat="45.5657817" lon="8.7780983"><ele>194.0</ele><time>2026-04-04T06:01:16.952Z</time></trkpt><trkpt lat="45.5660567" lon="8.7777883"><ele>194.0</ele><time>2026-04-04T06:01:17.952Z</time></trkpt><trkpt lat="45.56629" lon="8.777555"><ele>194.5</ele><time>2026-04-04T06:01:18.952Z</time></trkpt><trkpt lat="45.5665133" lon="8.7773533"><ele>195.0</ele><time>2026-04-04T06:01:19.951Z</time></trkpt><trkpt lat="45.5667183" lon="8.77717"><ele>195.0</ele><time>2026-04-04T06:01:20.952Z</time></trkpt><trkpt lat="45.5669383" lon="8.7769817"><ele>195.0</ele><time>2026-04-04T06:01:21.952Z</time></trkpt><trkpt lat="45.5671433" lon="8.776795"><ele>195.5</ele><time>2026-04-04T06:01:22.952Z</time></trkpt><trkpt lat="45.56735" lon="8.7766133"><ele>196.0</ele><time>2026-04-04T06:01:23.952Z</time></trkpt><trkpt lat="45.5675617" lon="8.776445"><ele>196.0</ele><time>2026-04-04T06:01:24.952Z</time></trkpt><trkpt lat="45.567775" lon="8.776285"><ele>196.0</ele><time>2026-04-04T06:01:25.951Z</time></trkpt><trkpt lat="45.5679783" lon="8.7761217"><ele>195.5</ele><time>2026-04-04T06:01:26.952Z</time></trkpt><trkpt lat="45.56818" lon="8.7759567"><ele>195.0</ele><time>2026-04-04T06:01:27.952Z</time></trkpt><trkpt lat="45.5683833" lon="8.775825"><ele>195.0</ele><time>2026-04-04T06:01:28.951Z</time></trkpt><trkpt lat="45.56859" lon="8.7756817"><ele>195.0</ele><time>2026-04-04T06:01:29.952Z</time></trkpt><trkpt lat="45.568795" lon="8.7755417"><ele>195.0</ele><time>2026-04-04T06:01:30.952Z</time></trkpt><trkpt lat="45.5690117" lon="8.775415"><ele>195.0</ele><time>2026-04-04T06:01:31.952Z</time></trkpt><trkpt lat="45.5692167" lon="8.7752733"><ele>194.5</ele><time>2026-04-04T06:01:32.952Z</time></trkpt><trkpt lat="45.5694233" lon="8.7751167"><ele>194.0</ele><time>2026-04-04T06:01:33.951Z</time></trkpt><trkpt lat="45.569625" lon="8.7749583"><ele>194.0</ele><time>2026-04-04T06:01:34.952Z</time></trkpt><trkpt lat="45.5698233" lon="8.7748"><ele>194.0</ele><time>2026-04-04T06:01:35.952Z</time></trkpt><trkpt lat="45.5700333" lon="8.7746333"><ele>194.0</ele><time>2026-04-04T06:01:36.951Z</time></trkpt><trkpt lat="45.5702467" lon="8.774465"><ele>194.0</ele><time>2026-04-04T06:01:37.952Z</time></trkpt><trkpt lat="45.5704717" lon="8.7742983"><ele>196.0</ele><time>2026-04-04T06:01:38.952Z</time></trkpt><trkpt lat="45.5707017" lon="8.7741"><ele>198.0</ele><time>2026-04-04T06:01:39.952Z</time></trkpt><trkpt lat="45.5709367" lon="8.773905"><ele>198.0</ele><time>2026-04-04T06:01:40.952Z</time></trkpt><trkpt lat="45.571185" lon="8.7737083"><ele>198.0</ele><time>2026-04-04T06:01:41.951Z</time></trkpt><trkpt lat="45.5714383" lon="8.7735067"><ele>198.0</ele><time>2026-04-04T06:01:42.952Z</time></trkpt><trkpt lat="45.571685" lon="8.7733133"><ele>198.0</ele><time>2026-04-04T06:01:43.952Z</time></trkpt><trkpt lat="45.5719317" lon="8.7731183"><ele>199.0</ele><time>2026-04-04T06:01:44.952Z</time></trkpt><trkpt lat="45.573635" lon="8.7699083"><ele>199.0</ele><time>2026-04-04T06:01:53.951Z</time></trkpt><trkpt lat="45.5737733" lon="8.7695467"><ele>199.0</ele><time>2026-04-04T06:01:54.951Z</time></trkpt><trkpt lat="45.5738933" lon="8.7691283"><ele>199.0</ele><time>2026-04-04T06:01:55.951Z</time></trkpt><trkpt lat="45.5739983" lon="8.768725"><ele>199.0</ele><time>2026-04-04T06:01:56.951Z</time></trkpt><trkpt lat="45.5740833" lon="8.7683183"><ele>199.5</ele><time>2026-04-04T06:01:57.951Z</time></trkpt><trkpt lat="45.5741517" lon="8.767915"><ele>200.0</ele><time>2026-04-04T06:01:58.951Z</time></trkpt><trkpt lat="45.5742017" lon="8.7675017"><ele>201.0</ele><time>2026-04-04T06:01:59.951Z</time></trkpt><trkpt lat="45.57423" lon="8.7670817"><ele>202.0</ele><time>2026-04-04T06:02:00.951Z</time></trkpt><trkpt lat="45.5742617" lon="8.7666567"><ele>202.0</ele><time>2026-04-04T06:02:01.951Z</time></trkpt><trkpt lat="45.5742817" lon="8.7662283"><ele>202.0</ele><time>2026-04-04T06:02:02.951Z</time></trkpt><trkpt lat="45.574285" lon="8.765805"><ele>201.0</ele><time>2026-04-04T06:02:03.95Z</time></trkpt><trkpt lat="45.5742967" lon="8.765375"><ele>200.0</ele><time>2026-04-04T06:02:04.951Z</time></trkpt><trkpt lat="45.5742783" lon="8.7649433"><ele>198.5</ele><time>2026-04-04T06:02:05.951Z</time></trkpt><trkpt lat="45.5742533" lon="8.7645233"><ele>197.0</ele><time>2026-04-04T06:02:06.951Z</time></trkpt><trkpt lat="45.5742233" lon="8.7641033"><ele>195.0</ele><time>2026-04-04T06:02:07.951Z</time></trkpt><trkpt lat="45.5741867" lon="8.7636833"><ele>193.0</ele><time>2026-04-04T06:02:08.951Z</time></trkpt><trkpt lat="45.574145" lon="8.7632583"><ele>193.0</ele><time>2026-04-04T06:02:09.951Z</time></trkpt><trkpt lat="45.5740883" lon="8.762855"><ele>193.0</ele><time>2026-04-04T06:02:10.951Z</time></trkpt><trkpt lat="45.5740383" lon="8.7624533"><ele>194.0</ele><time>2026-04-04T06:02:11.951Z</time></trkpt><trkpt lat="45.5739917" lon="8.7620517"><ele>195.0</ele><time>2026-04-04T06:02:12.951Z</time></trkpt><trkpt lat="45.573945" lon="8.7616533"><ele>194.5</ele><time>2026-04-04T06:02:13.951Z</time></trkpt><trkpt lat="45.5738917" lon="8.7612583"><ele>194.0</ele><time>2026-04-04T06:02:14.951Z</time></trkpt><trkpt lat="45.57384" lon="8.7608517"><ele>194.0</ele><time>2026-04-04T06:02:15.951Z</time></trkpt><trkpt lat="45.5737867" lon="8.7604517"><ele>194.0</ele><time>2026-04-04T06:02:16.951Z</time></trkpt><trkpt lat="45.5737383" lon="8.760055"><ele>193.5</ele><time>2026-04-04T06:02:17.951Z</time></trkpt><trkpt lat="45.5736817" lon="8.75966"><ele>193.0</ele><time>2026-04-04T06:02:18.951Z</time></trkpt><trkpt lat="45.5736233" lon="8.7592517"><ele>192.5</ele><time>2026-04-04T06:02:19.95Z</time></trkpt><trkpt lat="45.5735617" lon="8.7588383"><ele>192.0</ele><time>2026-04-04T06:02:20.951Z</time></trkpt><trkpt lat="45.5735033" lon="8.7584283"><ele>192.0</ele><time>2026-04-04T06:02:21.951Z</time></trkpt><trkpt lat="45.5734567" lon="8.75802"><ele>192.0</ele><time>2026-04-04T06:02:22.951Z</time></trkpt><trkpt lat="45.5733917" lon="8.7576167"><ele>192.0</ele><time>2026-04-04T06:02:23.951Z</time></trkpt><trkpt lat="45.5733417" lon="8.7572183"><ele>192.0</ele><time>2026-04-04T06:02:24.951Z</time></trkpt><trkpt lat="45.5732883" lon="8.756815"><ele>192.0</ele><time>2026-04-04T06:02:25.951Z</time></trkpt><trkpt lat="45.5732367" lon="8.756425"><ele>192.0</ele><time>2026-04-04T06:02:26.951Z</time></trkpt><trkpt lat="45.5731883" lon="8.756035"><ele>192.5</ele><time>2026-04-04T06:02:27.951Z</time></trkpt><trkpt lat="45.5731283" lon="8.7556383"><ele>193.0</ele><time>2026-04-04T06:02:28.951Z</time></trkpt><trkpt lat="45.5730717" lon="8.7552367"><ele>193.5</ele><time>2026-04-04T06:02:29.951Z</time></trkpt><trkpt lat="45.5730117" lon="8.7548333"><ele>194.0</ele><time>2026-04-04T06:02:30.951Z</time></trkpt><trkpt lat="45.5729383" lon="8.7544267"><ele>194.5</ele><time>2026-04-04T06:02:31.951Z</time></trkpt><trkpt lat="45.57287" lon="8.75401"><ele>195.0</ele><time>2026-04-04T06:02:32.951Z</time></trkpt><trkpt lat="45.572795" lon="8.7536033"><ele>192.0</ele><time>2026-04-04T06:02:33.951Z</time></trkpt><trkpt lat="45.5727083" lon="8.7532"><ele>189.0</ele><time>2026-04-04T06:02:34.951Z</time></trkpt><trkpt lat="45.57262" lon="8.7528"><ele>189.5</ele><time>2026-04-04T06:02:35.951Z</time></trkpt><trkpt lat="45.5725217" lon="8.7524017"><ele>190.0</ele><time>2026-04-04T06:02:36.951Z</time></trkpt><trkpt lat="45.5724283" lon="8.7520067"><ele>191.0</ele><time>2026-04-04T06:02:37.95Z</time></trkpt><trkpt lat="45.5723267" lon="8.75162"><ele>192.0</ele><time>2026-04-04T06:02:38.951Z</time></trkpt><trkpt lat="45.57223" lon="8.751235"><ele>192.0</ele><time>2026-04-04T06:02:39.951Z</time></trkpt><trkpt lat="45.5721233" lon="8.7508483"><ele>192.0</ele><time>2026-04-04T06:02:40.951Z</time></trkpt><trkpt lat="45.57202" lon="8.7504717"><ele>193.5</ele><time>2026-04-04T06:02:41.951Z</time></trkpt><trkpt lat="45.5719133" lon="8.750095"><ele>195.0</ele><time>2026-04-04T06:02:42.951Z</time></trkpt><trkpt lat="45.5718117" lon="8.7497067"><ele>195.5</ele><time>2026-04-04T06:02:43.951Z</time></trkpt><trkpt lat="45.5717133" lon="8.7493233"><ele>196.0</ele><time>2026-04-04T06:02:44.951Z</time></trkpt><trkpt lat="45.5716133" lon="8.74894"><ele>196.0</ele><time>2026-04-04T06:02:45.951Z</time></trkpt><trkpt lat="45.5715283" lon="8.7485583"><ele>196.0</ele><time>2026-04-04T06:02:46.951Z</time></trkpt><trkpt lat="45.5714433" lon="8.7481817"><ele>197.0</ele><time>2026-04-04T06:02:47.951Z</time></trkpt><trkpt lat="45.57136" lon="8.7477983"><ele>198.0</ele><time>2026-04-04T06:02:48.951Z</time></trkpt><trkpt lat="45.57129" lon="8.7474017"><ele>198.5</ele><time>2026-04-04T06:02:49.951Z</time></trkpt><trkpt lat="45.5712317" lon="8.747"><ele>199.0</ele><time>2026-04-04T06:02:50.951Z</time></trkpt><trkpt lat="45.5711833" lon="8.7465917"><ele>199.5</ele><time>2026-04-04T06:02:51.95Z</time></trkpt><trkpt lat="45.571145" lon="8.7461783"><ele>200.0</ele><time>2026-04-04T06:02:52.951Z</time></trkpt><trkpt lat="45.5711383" lon="8.745755"><ele>200.0</ele><time>2026-04-04T06:02:53.951Z</time></trkpt><trkpt lat="45.5711433" lon="8.7453367"><ele>200.0</ele><time>2026-04-04T06:02:54.951Z</time></trkpt><trkpt lat="45.5711617" lon="8.744915"><ele>200.5</ele><time>2026-04-04T06:02:55.951Z</time></trkpt><trkpt lat="45.571195" lon="8.7444933"><ele>201.0</ele><time>2026-04-04T06:02:56.951Z</time></trkpt><trkpt lat="45.57125" lon="8.7440833"><ele>201.0</ele><time>2026-04-04T06:02:57.951Z</time></trkpt><trkpt lat="45.5713133" lon="8.7436967"><ele>201.0</ele><time>2026-04-04T06:02:58.95Z</time></trkpt><trkpt lat="45.5713767" lon="8.7433083"><ele>199.5</ele><time>2026-04-04T06:02:59.951Z</time></trkpt><trkpt lat="45.57144" lon="8.7429233"><ele>198.0</ele><time>2026-04-04T06:03:00.951Z</time></trkpt><trkpt lat="45.57154" lon="8.7425633"><ele>198.0</ele><time>2026-04-04T06:03:01.951Z</time></trkpt><trkpt lat="45.5716383" lon="8.7421517"><ele>198.0</ele><time>2026-04-04T06:03:02.951Z</time></trkpt><trkpt lat="45.571775" lon="8.741765"><ele>197.5</ele><time>2026-04-04T06:03:03.951Z</time></trkpt><trkpt lat="45.5719367" lon="8.7414417"><ele>197.0</ele><time>2026-04-04T06:03:04.951Z</time></trkpt><trkpt lat="45.5721" lon="8.7411083"><ele>198.0</ele><time>2026-04-04T06:03:05.951Z</time></trkpt><trkpt lat="45.5722767" lon="8.7407967"><ele>199.0</ele><time>2026-04-04T06:03:06.951Z</time></trkpt><trkpt lat="45.5724617" lon="8.74049"><ele>198.0</ele><time>2026-04-04T06:03:07.951Z</time></trkpt><trkpt lat="45.57265" lon="8.7401883"><ele>197.0</ele><time>2026-04-04T06:03:08.951Z</time></trkpt><trkpt lat="45.57284" lon="8.739885"><ele>197.5</ele><time>2026-04-04T06:03:09.951Z</time></trkpt><trkpt lat="45.5730333" lon="8.7395767"><ele>198.0</ele><time>2026-04-04T06:03:10.951Z</time></trkpt><trkpt lat="45.5732183" lon="8.739265"><ele>197.0</ele><time>2026-04-04T06:03:11.951Z</time></trkpt><trkpt lat="45.5734183" lon="8.7389583"><ele>196.0</ele><time>2026-04-04T06:03:12.951Z</time></trkpt><trkpt lat="45.5736117" lon="8.7386583"><ele>196.0</ele><time>2026-04-04T06:03:13.951Z</time></trkpt><trkpt lat="45.5738367" lon="8.7384417"><ele>196.0</ele><time>2026-04-04T06:03:14.951Z</time></trkpt><trkpt lat="45.5740567" lon="8.738195"><ele>196.0</ele><time>2026-04-04T06:03:15.951Z</time></trkpt><trkpt lat="45.574255" lon="8.7379233"><ele>196.0</ele><time>2026-04-04T06:03:16.951Z</time></trkpt><trkpt lat="45.5744617" lon="8.737645"><ele>195.5</ele><time>2026-04-04T06:03:17.951Z</time></trkpt><trkpt lat="45.57466" lon="8.7373667"><ele>195.0</ele><time>2026-04-04T06:03:18.951Z</time></trkpt><trkpt lat="45.574865" lon="8.737095"><ele>193.0</ele><time>2026-04-04T06:03:19.951Z</time></trkpt><trkpt lat="45.57507" lon="8.7368117"><ele>191.0</ele><time>2026-04-04T06:03:20.951Z</time></trkpt><trkpt lat="45.5752733" lon="8.7365267"><ele>193.0</ele><time>2026-04-04T06:03:21.951Z</time></trkpt><trkpt lat="45.5754783" lon="8.7362467"><ele>195.0</ele><time>2026-04-04T06:03:22.951Z</time></trkpt><trkpt lat="45.575685" lon="8.7359533"><ele>195.0</ele><time>2026-04-04T06:03:23.95Z</time></trkpt><trkpt lat="45.5758917" lon="8.735665"><ele>195.0</ele><time>2026-04-04T06:03:24.951Z</time></trkpt><trkpt lat="45.5761033" lon="8.7353817"><ele>196.0</ele><time>2026-04-04T06:03:25.951Z</time></trkpt><trkpt lat="45.5763133" lon="8.7350933"><ele>197.0</ele><time>2026-04-04T06:03:26.951Z</time></trkpt><trkpt lat="45.5765217" lon="8.73481"><ele>197.0</ele><time>2026-04-04T06:03:27.951Z</time></trkpt><trkpt lat="45.5767283" lon="8.7345217"><ele>197.0</ele><time>2026-04-04T06:03:28.951Z</time></trkpt><trkpt lat="45.576935" lon="8.734235"><ele>198.5</ele><time>2026-04-04T06:03:29.951Z</time></trkpt><trkpt lat="45.57715" lon="8.7339517"><ele>200.0</ele><time>2026-04-04T06:03:30.951Z</time></trkpt><trkpt lat="45.57736" lon="8.7336667"><ele>199.0</ele><time>2026-04-04T06:03:31.951Z</time></trkpt><trkpt lat="45.5801433" lon="8.7296983"><ele>200.5</ele><time>2026-04-04T06:03:44.951Z</time></trkpt><trkpt lat="45.5803883" lon="8.729465"><ele>202.0</ele><time>2026-04-04T06:03:45.951Z</time></trkpt><trkpt lat="45.580645" lon="8.7292583"><ele>202.0</ele><time>2026-04-04T06:03:46.951Z</time></trkpt><trkpt lat="45.580895" lon="8.72907"><ele>202.0</ele><time>2026-04-04T06:03:47.951Z</time></trkpt><trkpt lat="45.581145" lon="8.7288933"><ele>200.5</ele><time>2026-04-04T06:03:48.951Z</time></trkpt><trkpt lat="45.5813933" lon="8.7287383"><ele>199.0</ele><time>2026-04-04T06:03:49.951Z</time></trkpt><trkpt lat="45.58165" lon="8.7285883"><ele>199.5</ele><time>2026-04-04T06:03:50.951Z</time></trkpt><trkpt lat="45.5819083" lon="8.72844"><ele>200.0</ele><time>2026-04-04T06:03:51.951Z</time></trkpt><trkpt lat="45.5821633" lon="8.7282883"><ele>200.0</ele><time>2026-04-04T06:03:52.951Z</time></trkpt><trkpt lat="45.582415" lon="8.728125"><ele>200.0</ele><time>2026-04-04T06:03:53.951Z</time></trkpt><trkpt lat="45.5826533" lon="8.7279517"><ele>201.0</ele><time>2026-04-04T06:03:54.951Z</time></trkpt><trkpt lat="45.58287" lon="8.72779"><ele>202.0</ele><time>2026-04-04T06:03:55.951Z</time></trkpt><trkpt lat="45.5830783" lon="8.7276433"><ele>200.0</ele><time>2026-04-04T06:03:56.951Z</time></trkpt><trkpt lat="45.58327" lon="8.7274933"><ele>198.0</ele><time>2026-04-04T06:03:57.951Z</time></trkpt><trkpt lat="45.58344" lon="8.72734"><ele>196.0</ele><time>2026-04-04T06:03:58.951Z</time></trkpt><trkpt lat="45.5835917" lon="8.7271967"><ele>196.0</ele><time>2026-04-04T06:03:59.951Z</time></trkpt><trkpt lat="45.5837317" lon="8.7270517"><ele>196.0</ele><time>2026-04-04T06:04:00.951Z</time></trkpt><trkpt lat="45.5838533" lon="8.7269083"><ele>196.0</ele><time>2026-04-04T06:04:01.95Z</time></trkpt><trkpt lat="45.583965" lon="8.7267667"><ele>196.0</ele><time>2026-04-04T06:04:02.951Z</time></trkpt><trkpt lat="45.5840617" lon="8.7266317"><ele>196.0</ele><time>2026-04-04T06:04:03.951Z</time></trkpt><trkpt lat="45.5841433" lon="8.7265"><ele>196.0</ele><time>2026-04-04T06:04:04.951Z</time></trkpt><trkpt lat="45.5842167" lon="8.7263867"><ele>196.0</ele><time>2026-04-04T06:04:05.95Z</time></trkpt><trkpt lat="45.5842817" lon="8.7262933"><ele>196.0</ele><time>2026-04-04T06:04:06.951Z</time></trkpt><trkpt lat="45.5843467" lon="8.72622"><ele>196.0</ele><time>2026-04-04T06:04:07.95Z</time></trkpt><trkpt lat="45.5844283" lon="8.726155"><ele>196.0</ele><time>2026-04-04T06:04:08.951Z</time></trkpt><trkpt lat="45.584525" lon="8.7260833"><ele>196.0</ele><time>2026-04-04T06:04:09.951Z</time></trkpt><trkpt lat="45.5846267" lon="8.7259967"><ele>196.0</ele><time>2026-04-04T06:04:10.951Z</time></trkpt><trkpt lat="45.5847033" lon="8.7259117"><ele>196.8</ele><time>2026-04-04T06:04:11.951Z</time></trkpt><trkpt lat="45.5847533" lon="8.7257817"><ele>197.60000000000002</ele><time>2026-04-04T06:04:12.951Z</time></trkpt><trkpt lat="45.5847767" lon="8.7256367"><ele>198.4</ele><time>2026-04-04T06:04:13.95Z</time></trkpt><trkpt lat="45.584765" lon="8.7254967"><ele>199.2</ele><time>2026-04-04T06:04:14.951Z</time></trkpt><trkpt lat="45.5847117" lon="8.72534"><ele>200.0</ele><time>2026-04-04T06:04:15.951Z</time></trkpt><trkpt lat="45.5846333" lon="8.7252133"><ele>200.0</ele><time>2026-04-04T06:04:16.951Z</time></trkpt><trkpt lat="45.584525" lon="8.7251083"><ele>200.0</ele><time>2026-04-04T06:04:17.951Z</time></trkpt><trkpt lat="45.5844017" lon="8.7250533"><ele>200.0</ele><time>2026-04-04T06:04:18.951Z</time></trkpt><trkpt lat="45.5842617" lon="8.7250217"><ele>200.0</ele><time>2026-04-04T06:04:19.951Z</time></trkpt><trkpt lat="45.58413" lon="8.7250033"><ele>199.25</ele><time>2026-04-04T06:04:20.951Z</time></trkpt><trkpt lat="45.5840133" lon="8.7249517"><ele>198.5</ele><time>2026-04-04T06:04:21.951Z</time></trkpt><trkpt lat="45.5839083" lon="8.7248567"><ele>197.75</ele><time>2026-04-04T06:04:22.951Z</time></trkpt><trkpt lat="45.58381" lon="8.72471"><ele>197.0</ele><time>2026-04-04T06:04:23.95Z</time></trkpt><trkpt lat="45.58372" lon="8.7245483"><ele>198.0</ele><time>2026-04-04T06:04:24.951Z</time></trkpt><trkpt lat="45.58361" lon="8.724375"><ele>199.0</ele><time>2026-04-04T06:04:25.951Z</time></trkpt><trkpt lat="45.5834883" lon="8.7241783"><ele>200.0</ele><time>2026-04-04T06:04:26.951Z</time></trkpt><trkpt lat="45.5833517" lon="8.723965"><ele>200.0</ele><time>2026-04-04T06:04:27.951Z</time></trkpt><trkpt lat="45.583205" lon="8.72373"><ele>200.0</ele><time>2026-04-04T06:04:28.951Z</time></trkpt><trkpt lat="45.5830633" lon="8.723495"><ele>200.0</ele><time>2026-04-04T06:04:29.951Z</time></trkpt><trkpt lat="45.5829083" lon="8.7232567"><ele>199.66666666666669</ele><time>2026-04-04T06:04:30.951Z</time></trkpt><trkpt lat="45.5827617" lon="8.72303"><ele>199.33333333333331</ele><time>2026-04-04T06:04:31.951Z</time></trkpt><trkpt lat="45.5826267" lon="8.722805"><ele>199.0</ele><time>2026-04-04T06:04:32.951Z</time></trkpt><trkpt lat="45.582495" lon="8.7225967"><ele>199.0</ele><time>2026-04-04T06:04:33.951Z</time></trkpt><trkpt lat="45.5823733" lon="8.72241"><ele>199.0</ele><time>2026-04-04T06:04:34.951Z</time></trkpt><trkpt lat="45.58225" lon="8.7222317"><ele>199.0</ele><time>2026-04-04T06:04:35.951Z</time></trkpt><trkpt lat="45.5821433" lon="8.7220517"><ele>199.33333333333331</ele><time>2026-04-04T06:04:36.951Z</time></trkpt><trkpt lat="45.5820283" lon="8.721885"><ele>199.66666666666669</ele><time>2026-04-04T06:04:37.951Z</time></trkpt><trkpt lat="45.5819" lon="8.7217033"><ele>200.0</ele><time>2026-04-04T06:04:38.951Z</time></trkpt><trkpt lat="45.5817667" lon="8.721505"><ele>199.33333333333334</ele><time>2026-04-04T06:04:39.951Z</time></trkpt><trkpt lat="45.5816317" lon="8.7212817"><ele>198.66666666666669</ele><time>2026-04-04T06:04:40.951Z</time></trkpt><trkpt lat="45.5814833" lon="8.7210567"><ele>198.0</ele><time>2026-04-04T06:04:41.951Z</time></trkpt><trkpt lat="45.5813133" lon="8.7208183"><ele>197.0</ele><time>2026-04-04T06:04:42.951Z</time></trkpt><trkpt lat="45.5811367" lon="8.72055"><ele>196.0</ele><time>2026-04-04T06:04:43.95Z</time></trkpt><trkpt lat="45.5809617" lon="8.720275"><ele>196.0</ele><time>2026-04-04T06:04:44.951Z</time></trkpt><trkpt lat="45.580795" lon="8.7199967"><ele>196.0</ele><time>2026-04-04T06:04:45.951Z</time></trkpt><trkpt lat="45.5806333" lon="8.7197217"><ele>196.0</ele><time>2026-04-04T06:04:46.951Z</time></trkpt><trkpt lat="45.5804917" lon="8.7194567"><ele>196.0</ele><time>2026-04-04T06:04:47.951Z</time></trkpt><trkpt lat="45.5803517" lon="8.7192133"><ele>196.0</ele><time>2026-04-04T06:04:48.951Z</time></trkpt><trkpt lat="45.580205" lon="8.7189883"><ele>196.0</ele><time>2026-04-04T06:04:49.951Z</time></trkpt><trkpt lat="45.580055" lon="8.7187617"><ele>196.0</ele><time>2026-04-04T06:04:50.95Z</time></trkpt><trkpt lat="45.5799167" lon="8.7185367"><ele>196.0</ele><time>2026-04-04T06:04:51.951Z</time></trkpt><trkpt lat="45.57978" lon="8.7183183"><ele>196.0</ele><time>2026-04-04T06:04:52.951Z</time></trkpt><trkpt lat="45.579665" lon="8.718125"><ele>196.0</ele><time>2026-04-04T06:04:53.951Z</time></trkpt><trkpt lat="45.5795617" lon="8.71796"><ele>196.0</ele><time>2026-04-04T06:04:54.951Z</time></trkpt><trkpt lat="45.5794783" lon="8.7178017"><ele>196.0</ele><time>2026-04-04T06:04:55.951Z</time></trkpt><trkpt lat="45.5794067" lon="8.7176567"><ele>196.0</ele><time>2026-04-04T06:04:56.951Z</time></trkpt><trkpt lat="45.5793583" lon="8.7174933"><ele>196.0</ele><time>2026-04-04T06:04:57.951Z</time></trkpt><trkpt lat="45.5793383" lon="8.71735"><ele>196.0</ele><time>2026-04-04T06:04:58.951Z</time></trkpt><trkpt lat="45.579315" lon="8.7172033"><ele>196.0</ele><time>2026-04-04T06:04:59.951Z</time></trkpt><trkpt lat="45.5792633" lon="8.7170833"><ele>196.0</ele><time>2026-04-04T06:05:00.951Z</time></trkpt><trkpt lat="45.5791783" lon="8.7170083"><ele>196.0</ele><time>2026-04-04T06:05:01.951Z</time></trkpt><trkpt lat="45.579085" lon="8.7169683"><ele>196.0</ele><time>2026-04-04T06:05:02.951Z</time></trkpt><trkpt lat="45.5789833" lon="8.7169133"><ele>196.0</ele><time>2026-04-04T06:05:03.951Z</time></trkpt><trkpt lat="45.578875" lon="8.7168233"><ele>196.0</ele><time>2026-04-04T06:05:04.951Z</time></trkpt><trkpt lat="45.578765" lon="8.7166967"><ele>196.0</ele><time>2026-04-04T06:05:05.95Z</time></trkpt><trkpt lat="45.57865" lon="8.7165317"><ele>196.0</ele><time>2026-04-04T06:05:06.951Z</time></trkpt><trkpt lat="45.5785433" lon="8.716325"><ele>194.33333333333331</ele><time>2026-04-04T06:05:07.951Z</time></trkpt><trkpt lat="45.5784117" lon="8.71611"><ele>192.66666666666666</ele><time>2026-04-04T06:05:08.95Z</time></trkpt><trkpt lat="45.5782767" lon="8.71588"><ele>191.0</ele><time>2026-04-04T06:05:09.95Z</time></trkpt><trkpt lat="45.5781317" lon="8.7156567"><ele>191.0</ele><time>2026-04-04T06:05:10.951Z</time></trkpt><trkpt lat="45.5779867" lon="8.715445"><ele>191.0</ele><time>2026-04-04T06:05:11.951Z</time></trkpt><trkpt lat="45.57784" lon="8.7152233"><ele>191.0</ele><time>2026-04-04T06:05:12.95Z</time></trkpt><trkpt lat="45.5776867" lon="8.715"><ele>191.66666666666666</ele><time>2026-04-04T06:05:13.951Z</time></trkpt><trkpt lat="45.5775617" lon="8.7147833"><ele>192.33333333333331</ele><time>2026-04-04T06:05:14.951Z</time></trkpt><trkpt lat="45.577445" lon="8.7145883"><ele>193.0</ele><time>2026-04-04T06:05:15.95Z</time></trkpt><trkpt lat="45.577355" lon="8.7143683"><ele>193.0</ele><time>2026-04-04T06:05:16.95Z</time></trkpt><trkpt lat="45.57731" lon="8.7141383"><ele>193.0</ele><time>2026-04-04T06:05:17.951Z</time></trkpt><trkpt lat="45.5772733" lon="8.7138783"><ele>193.0</ele><time>2026-04-04T06:05:18.951Z</time></trkpt><trkpt lat="45.5772517" lon="8.71361"><ele>192.0</ele><time>2026-04-04T06:05:19.95Z</time></trkpt><trkpt lat="45.5772467" lon="8.7133617"><ele>191.0</ele><time>2026-04-04T06:05:20.951Z</time></trkpt><trkpt lat="45.57726" lon="8.7131283"><ele>190.0</ele><time>2026-04-04T06:05:21.951Z</time></trkpt><trkpt lat="45.5772933" lon="8.7129217"><ele>189.0</ele><time>2026-04-04T06:05:22.951Z</time></trkpt><trkpt lat="45.5773517" lon="8.71273"><ele>188.0</ele><time>2026-04-04T06:05:23.95Z</time></trkpt><trkpt lat="45.57743" lon="8.7125667"><ele>187.0</ele><time>2026-04-04T06:05:24.95Z</time></trkpt><trkpt lat="45.5775333" lon="8.7124167"><ele>186.0</ele><time>2026-04-04T06:05:25.951Z</time></trkpt><trkpt lat="45.577675" lon="8.712295"><ele>186.0</ele><time>2026-04-04T06:05:26.951Z</time></trkpt><trkpt lat="45.5778483" lon="8.7121967"><ele>186.0</ele><time>2026-04-04T06:05:27.951Z</time></trkpt><trkpt lat="45.5780417" lon="8.71212"><ele>186.0</ele><time>2026-04-04T06:05:28.951Z</time></trkpt><trkpt lat="45.57825" lon="8.712035"><ele>187.5</ele><time>2026-04-04T06:05:29.951Z</time></trkpt><trkpt lat="45.57846" lon="8.7119333"><ele>189.0</ele><time>2026-04-04T06:05:30.951Z</time></trkpt><trkpt lat="45.578675" lon="8.7118083"><ele>187.0</ele><time>2026-04-04T06:05:31.951Z</time></trkpt><trkpt lat="45.5788983" lon="8.7116617"><ele>185.0</ele><time>2026-04-04T06:05:32.951Z</time></trkpt><trkpt lat="45.579115" lon="8.7115083"><ele>185.0</ele><time>2026-04-04T06:05:33.951Z</time></trkpt><trkpt lat="45.5793267" lon="8.71133"><ele>185.0</ele><time>2026-04-04T06:05:34.95Z</time></trkpt><trkpt lat="45.579535" lon="8.7111233"><ele>184.0</ele><time>2026-04-04T06:05:35.951Z</time></trkpt><trkpt lat="45.5797383" lon="8.710895"><ele>183.0</ele><time>2026-04-04T06:05:36.951Z</time></trkpt><trkpt lat="45.5799367" lon="8.7106417"><ele>183.0</ele><time>2026-04-04T06:05:37.95Z</time></trkpt><trkpt lat="45.5801333" lon="8.710395"><ele>183.0</ele><time>2026-04-04T06:05:38.951Z</time></trkpt><trkpt lat="45.5803317" lon="8.7101417"><ele>183.0</ele><time>2026-04-04T06:05:39.951Z</time></trkpt><trkpt lat="45.58052" lon="8.70989"><ele>183.0</ele><time>2026-04-04T06:05:40.951Z</time></trkpt><trkpt lat="45.5807133" lon="8.7096433"><ele>183.0</ele><time>2026-04-04T06:05:41.951Z</time></trkpt><trkpt lat="45.5809033" lon="8.7094183"><ele>183.0</ele><time>2026-04-04T06:05:42.951Z</time></trkpt><trkpt lat="45.5810783" lon="8.7091967"><ele>184.33333333333334</ele><time>2026-04-04T06:05:43.951Z</time></trkpt><trkpt lat="45.5812467" lon="8.7089917"><ele>185.66666666666669</ele><time>2026-04-04T06:05:44.951Z</time></trkpt><trkpt lat="45.5813933" lon="8.7087533"><ele>187.0</ele><time>2026-04-04T06:05:45.951Z</time></trkpt><trkpt lat="45.581505" lon="8.7085217"><ele>183.66666666666669</ele><time>2026-04-04T06:05:46.951Z</time></trkpt><trkpt lat="45.5816067" lon="8.7082733"><ele>180.33333333333334</ele><time>2026-04-04T06:05:47.95Z</time></trkpt><trkpt lat="45.581715" lon="8.70804"><ele>177.0</ele><time>2026-04-04T06:05:48.951Z</time></trkpt><trkpt lat="45.58185" lon="8.707825"><ele>176.66666666666666</ele><time>2026-04-04T06:05:49.951Z</time></trkpt><trkpt lat="45.5820017" lon="8.70764"><ele>176.33333333333331</ele><time>2026-04-04T06:05:50.951Z</time></trkpt><trkpt lat="45.5821717" lon="8.7074733"><ele>176.0</ele><time>2026-04-04T06:05:51.951Z</time></trkpt><trkpt lat="45.5823583" lon="8.7073417"><ele>176.0</ele><time>2026-04-04T06:05:52.951Z</time></trkpt><trkpt lat="45.5825483" lon="8.707235"><ele>176.0</ele><time>2026-04-04T06:05:53.951Z</time></trkpt><trkpt lat="45.5827383" lon="8.7071517"><ele>176.0</ele><time>2026-04-04T06:05:54.951Z</time></trkpt><trkpt lat="45.58293" lon="8.70711"><ele>177.33333333333331</ele><time>2026-04-04T06:05:55.951Z</time></trkpt><trkpt lat="45.5831333" lon="8.7071183"><ele>178.66666666666666</ele><time>2026-04-04T06:05:56.951Z</time></trkpt><trkpt lat="45.58334" lon="8.7071667"><ele>180.0</ele><time>2026-04-04T06:05:57.951Z</time></trkpt><trkpt lat="45.5835633" lon="8.7072233"><ele>176.5</ele><time>2026-04-04T06:05:58.95Z</time></trkpt><trkpt lat="45.5838017" lon="8.7072767"><ele>173.0</ele><time>2026-04-04T06:05:59.95Z</time></trkpt><trkpt lat="45.5840383" lon="8.7073383"><ele>173.0</ele><time>2026-04-04T06:06:00.951Z</time></trkpt><trkpt lat="45.5842867" lon="8.707395"><ele>173.0</ele><time>2026-04-04T06:06:01.951Z</time></trkpt><trkpt lat="45.5845283" lon="8.7074533"><ele>173.0</ele><time>2026-04-04T06:06:02.951Z</time></trkpt><trkpt lat="45.5847583" lon="8.7074917"><ele>173.0</ele><time>2026-04-04T06:06:03.95Z</time></trkpt><trkpt lat="45.5849767" lon="8.7075283"><ele>173.0</ele><time>2026-04-04T06:06:04.951Z</time></trkpt><trkpt lat="45.5851933" lon="8.7075533"><ele>173.0</ele><time>2026-04-04T06:06:05.951Z</time></trkpt><trkpt lat="45.5854033" lon="8.707565"><ele>173.0</ele><time>2026-04-04T06:06:06.951Z</time></trkpt><trkpt lat="45.58561" lon="8.707555"><ele>171.33333333333331</ele><time>2026-04-04T06:06:07.951Z</time></trkpt><trkpt lat="45.5858117" lon="8.7075233"><ele>169.66666666666666</ele><time>2026-04-04T06:06:08.951Z</time></trkpt><trkpt lat="45.586" lon="8.7074683"><ele>168.0</ele><time>2026-04-04T06:06:09.951Z</time></trkpt><trkpt lat="45.5861733" lon="8.707395"><ele>170.33333333333334</ele><time>2026-04-04T06:06:10.951Z</time></trkpt><trkpt lat="45.5863233" lon="8.7072933"><ele>172.66666666666669</ele><time>2026-04-04T06:06:11.951Z</time></trkpt><trkpt lat="45.586445" lon="8.7071517"><ele>175.0</ele><time>2026-04-04T06:06:12.951Z</time></trkpt><trkpt lat="45.5865433" lon="8.7069567"><ele>170.66666666666669</ele><time>2026-04-04T06:06:13.951Z</time></trkpt><trkpt lat="45.5866267" lon="8.7067517"><ele>166.33333333333334</ele><time>2026-04-04T06:06:14.951Z</time></trkpt><trkpt lat="45.5867117" lon="8.706545"><ele>162.0</ele><time>2026-04-04T06:06:15.95Z</time></trkpt><trkpt lat="45.5868033" lon="8.7063533"><ele>162.0</ele><time>2026-04-04T06:06:16.951Z</time></trkpt><trkpt lat="45.5869083" lon="8.70618"><ele>162.0</ele><time>2026-04-04T06:06:17.951Z</time></trkpt><trkpt lat="45.5870317" lon="8.706045"><ele>162.0</ele><time>2026-04-04T06:06:18.951Z</time></trkpt><trkpt lat="45.5871733" lon="8.7059483"><ele>160.33333333333334</ele><time>2026-04-04T06:06:19.951Z</time></trkpt><trkpt lat="45.5873283" lon="8.7059"><ele>158.66666666666669</ele><time>2026-04-04T06:06:20.951Z</time></trkpt><trkpt lat="45.5875017" lon="8.705905"><ele>157.0</ele><time>2026-04-04T06:06:21.951Z</time></trkpt><trkpt lat="45.58767" lon="8.7059567"><ele>157.0</ele><time>2026-04-04T06:06:22.951Z</time></trkpt><trkpt lat="45.5878317" lon="8.706035"><ele>157.0</ele><time>2026-04-04T06:06:23.951Z</time></trkpt><trkpt lat="45.588" lon="8.7061433"><ele>157.0</ele><time>2026-04-04T06:06:24.951Z</time></trkpt><trkpt lat="45.588175" lon="8.7062533"><ele>157.66666666666669</ele><time>2026-04-04T06:06:25.951Z</time></trkpt><trkpt lat="45.58835" lon="8.7063517"><ele>158.33333333333334</ele><time>2026-04-04T06:06:26.951Z</time></trkpt><trkpt lat="45.5885183" lon="8.7064467"><ele>159.0</ele><time>2026-04-04T06:06:27.951Z</time></trkpt><trkpt lat="45.58868" lon="8.7065267"><ele>159.0</ele><time>2026-04-04T06:06:28.951Z</time></trkpt><trkpt lat="45.5888367" lon="8.70657"><ele>159.0</ele><time>2026-04-04T06:06:29.951Z</time></trkpt><trkpt lat="45.5889867" lon="8.7065533"><ele>159.0</ele><time>2026-04-04T06:06:30.951Z</time></trkpt><trkpt lat="45.58913" lon="8.7064933"><ele>159.0</ele><time>2026-04-04T06:06:31.951Z</time></trkpt><trkpt lat="45.589245" lon="8.70638"><ele>159.0</ele><time>2026-04-04T06:06:32.951Z</time></trkpt><trkpt lat="45.58935" lon="8.7062383"><ele>159.0</ele><time>2026-04-04T06:06:33.95Z</time></trkpt><trkpt lat="45.5894183" lon="8.7060783"><ele>159.0</ele><time>2026-04-04T06:06:34.951Z</time></trkpt><trkpt lat="45.58946" lon="8.705915"><ele>157.75</ele><time>2026-04-04T06:06:35.95Z</time></trkpt><trkpt lat="45.589475" lon="8.7057433"><ele>156.5</ele><time>2026-04-04T06:06:36.951Z</time></trkpt><trkpt lat="45.5894867" lon="8.705545"><ele>155.25</ele><time>2026-04-04T06:06:37.951Z</time></trkpt><trkpt lat="45.58949" lon="8.7053667"><ele>154.0</ele><time>2026-04-04T06:06:38.951Z</time></trkpt><trkpt lat="45.5894967" lon="8.7051783"><ele>152.25</ele><time>2026-04-04T06:06:39.951Z</time></trkpt><trkpt lat="45.5895117" lon="8.70496"><ele>150.5</ele><time>2026-04-04T06:06:40.951Z</time></trkpt><trkpt lat="45.5895317" lon="8.7047617"><ele>148.75</ele><time>2026-04-04T06:06:41.951Z</time></trkpt><trkpt lat="45.5895383" lon="8.704575"><ele>147.0</ele><time>2026-04-04T06:06:42.951Z</time></trkpt><trkpt lat="45.5895383" lon="8.7044033"><ele>146.25</ele><time>2026-04-04T06:06:43.951Z</time></trkpt><trkpt lat="45.5895417" lon="8.704235"><ele>145.5</ele><time>2026-04-04T06:06:44.951Z</time></trkpt><trkpt lat="45.5895533" lon="8.7040617"><ele>144.75</ele><time>2026-04-04T06:06:45.951Z</time></trkpt><trkpt lat="45.5895617" lon="8.7038917"><ele>144.0</ele><time>2026-04-04T06:06:46.951Z</time></trkpt><trkpt lat="45.5895717" lon="8.70373"><ele>146.25</ele><time>2026-04-04T06:06:47.951Z</time></trkpt><trkpt lat="45.5895783" lon="8.70356"><ele>148.5</ele><time>2026-04-04T06:06:48.951Z</time></trkpt><trkpt lat="45.5895917" lon="8.7033617"><ele>150.75</ele><time>2026-04-04T06:06:49.951Z</time></trkpt><trkpt lat="45.5896083" lon="8.70318"><ele>153.0</ele><time>2026-04-04T06:06:50.951Z</time></trkpt><trkpt lat="45.5896217" lon="8.7029583"><ele>154.0</ele><time>2026-04-04T06:06:51.951Z</time></trkpt><trkpt lat="45.5896367" lon="8.7027217"><ele>155.0</ele><time>2026-04-04T06:06:52.951Z</time></trkpt><trkpt lat="45.58965" lon="8.702485"><ele>156.0</ele><time>2026-04-04T06:06:53.951Z</time></trkpt><trkpt lat="45.5896617" lon="8.7022483"><ele>156.0</ele><time>2026-04-04T06:06:54.951Z</time></trkpt><trkpt lat="45.5896783" lon="8.7020183"><ele>156.0</ele><time>2026-04-04T06:06:55.95Z</time></trkpt><trkpt lat="45.5896917" lon="8.7017817"><ele>156.0</ele><time>2026-04-04T06:06:56.95Z</time></trkpt><trkpt lat="45.589705" lon="8.7015417"><ele>156.33333333333334</ele><time>2026-04-04T06:06:57.951Z</time></trkpt><trkpt lat="45.5897217" lon="8.7012917"><ele>156.66666666666669</ele><time>2026-04-04T06:06:58.951Z</time></trkpt><trkpt lat="45.5897417" lon="8.7010317"><ele>157.0</ele><time>2026-04-04T06:06:59.951Z</time></trkpt><trkpt lat="45.5897583" lon="8.7007717"><ele>156.33333333333334</ele><time>2026-04-04T06:07:00.951Z</time></trkpt><trkpt lat="45.5897767" lon="8.700485"><ele>155.66666666666666</ele><time>2026-04-04T06:07:01.951Z</time></trkpt><trkpt lat="45.5898133" lon="8.700205"><ele>155.0</ele><time>2026-04-04T06:07:02.951Z</time></trkpt><trkpt lat="45.589875" lon="8.6999183"><ele>155.0</ele><time>2026-04-04T06:07:03.951Z</time></trkpt><trkpt lat="45.5899517" lon="8.6996367"><ele>155.0</ele><time>2026-04-04T06:07:04.951Z</time></trkpt><trkpt lat="45.5900367" lon="8.6993467"><ele>155.0</ele><time>2026-04-04T06:07:05.951Z</time></trkpt><trkpt lat="45.590115" lon="8.6990533"><ele>155.0</ele><time>2026-04-04T06:07:06.951Z</time></trkpt><trkpt lat="45.5901933" lon="8.6987467"><ele>155.0</ele><time>2026-04-04T06:07:07.951Z</time></trkpt><trkpt lat="45.5902767" lon="8.6984417"><ele>153.5</ele><time>2026-04-04T06:07:08.951Z</time></trkpt><trkpt lat="45.590355" lon="8.6981283"><ele>152.0</ele><time>2026-04-04T06:07:09.951Z</time></trkpt><trkpt lat="45.5904367" lon="8.69781"><ele>153.0</ele><time>2026-04-04T06:07:10.951Z</time></trkpt><trkpt lat="45.590515" lon="8.6974967"><ele>154.0</ele><time>2026-04-04T06:07:11.951Z</time></trkpt><trkpt lat="45.59059" lon="8.6972"><ele>154.0</ele><time>2026-04-04T06:07:12.95Z</time></trkpt><trkpt lat="45.5906617" lon="8.6969217"><ele>154.0</ele><time>2026-04-04T06:07:13.951Z</time></trkpt><trkpt lat="45.5907283" lon="8.6966583"><ele>154.0</ele><time>2026-04-04T06:07:14.951Z</time></trkpt><trkpt lat="45.5907933" lon="8.6964017"><ele>154.66666666666669</ele><time>2026-04-04T06:07:15.951Z</time></trkpt><trkpt lat="45.590855" lon="8.6961567"><ele>155.33333333333334</ele><time>2026-04-04T06:07:16.951Z</time></trkpt><trkpt lat="45.59092" lon="8.695915"><ele>156.0</ele><time>2026-04-04T06:07:17.95Z</time></trkpt><trkpt lat="45.5909883" lon="8.6956633"><ele>156.0</ele><time>2026-04-04T06:07:18.951Z</time></trkpt><trkpt lat="45.5910517" lon="8.69541"><ele>156.0</ele><time>2026-04-04T06:07:19.951Z</time></trkpt><trkpt lat="45.5911117" lon="8.6951483"><ele>156.0</ele><time>2026-04-04T06:07:20.951Z</time></trkpt><trkpt lat="45.5911767" lon="8.69489"><ele>156.0</ele><time>2026-04-04T06:07:21.951Z</time></trkpt><trkpt lat="45.59124" lon="8.694635"><ele>156.0</ele><time>2026-04-04T06:07:22.951Z</time></trkpt><trkpt lat="45.5913033" lon="8.6943833"><ele>156.0</ele><time>2026-04-04T06:07:23.951Z</time></trkpt><trkpt lat="45.59137" lon="8.6941467"><ele>156.0</ele><time>2026-04-04T06:07:24.951Z</time></trkpt><trkpt lat="45.591445" lon="8.6939117"><ele>156.0</ele><time>2026-04-04T06:07:25.951Z</time></trkpt><trkpt lat="45.5915367" lon="8.693685"><ele>156.0</ele><time>2026-04-04T06:07:26.951Z</time></trkpt><trkpt lat="45.5916433" lon="8.693465"><ele>156.33333333333334</ele><time>2026-04-04T06:07:27.951Z</time></trkpt><trkpt lat="45.5917483" lon="8.6932417"><ele>156.66666666666669</ele><time>2026-04-04T06:07:28.951Z</time></trkpt><trkpt lat="45.591875" lon="8.6930117"><ele>157.0</ele><time>2026-04-04T06:07:29.951Z</time></trkpt><trkpt lat="45.5920083" lon="8.69279"><ele>156.66666666666669</ele><time>2026-04-04T06:07:30.951Z</time></trkpt><trkpt lat="45.592145" lon="8.692555"><ele>156.33333333333334</ele><time>2026-04-04T06:07:31.951Z</time></trkpt><trkpt lat="45.5922833" lon="8.6923"><ele>156.0</ele><time>2026-04-04T06:07:32.951Z</time></trkpt><trkpt lat="45.5924267" lon="8.69205"><ele>156.0</ele><time>2026-04-04T06:07:33.951Z</time></trkpt><trkpt lat="45.5925783" lon="8.6918067"><ele>156.0</ele><time>2026-04-04T06:07:34.95Z</time></trkpt><trkpt lat="45.5927267" lon="8.6915483"><ele>156.0</ele><time>2026-04-04T06:07:35.951Z</time></trkpt><trkpt lat="45.5928817" lon="8.691285"><ele>156.0</ele><time>2026-04-04T06:07:36.951Z</time></trkpt><trkpt lat="45.5930317" lon="8.691015"><ele>155.5</ele><time>2026-04-04T06:07:37.951Z</time></trkpt><trkpt lat="45.5931883" lon="8.6907433"><ele>155.0</ele><time>2026-04-04T06:07:38.951Z</time></trkpt><trkpt lat="45.593335" lon="8.6904817"><ele>155.0</ele><time>2026-04-04T06:07:39.951Z</time></trkpt><trkpt lat="45.5934783" lon="8.69023"><ele>155.0</ele><time>2026-04-04T06:07:40.951Z</time></trkpt><trkpt lat="45.5936117" lon="8.6899967"><ele>155.0</ele><time>2026-04-04T06:07:41.951Z</time></trkpt><trkpt lat="45.59374" lon="8.68977"><ele>155.0</ele><time>2026-04-04T06:07:42.951Z</time></trkpt><trkpt lat="45.59386" lon="8.6895583"><ele>155.0</ele><time>2026-04-04T06:07:43.951Z</time></trkpt><trkpt lat="45.5939733" lon="8.6893433"><ele>155.0</ele><time>2026-04-04T06:07:44.951Z</time></trkpt><trkpt lat="45.594075" lon="8.6891217"><ele>155.0</ele><time>2026-04-04T06:07:45.951Z</time></trkpt><trkpt lat="45.5941533" lon="8.6888767"><ele>155.0</ele><time>2026-04-04T06:07:46.951Z</time></trkpt><trkpt lat="45.5942167" lon="8.6886317"><ele>155.0</ele><time>2026-04-04T06:07:47.951Z</time></trkpt><trkpt lat="45.5942567" lon="8.6883733"><ele>155.0</ele><time>2026-04-04T06:07:48.951Z</time></trkpt><trkpt lat="45.59427" lon="8.688105"><ele>155.0</ele><time>2026-04-04T06:07:49.951Z</time></trkpt><trkpt lat="45.5942717" lon="8.687845"><ele>155.0</ele><time>2026-04-04T06:07:50.951Z</time></trkpt><trkpt lat="45.5942467" lon="8.6875883"><ele>155.0</ele><time>2026-04-04T06:07:51.951Z</time></trkpt><trkpt lat="45.594205" lon="8.687305"><ele>155.0</ele><time>2026-04-04T06:07:52.951Z</time></trkpt><trkpt lat="45.5941717" lon="8.687025"><ele>155.0</ele><time>2026-04-04T06:07:53.951Z</time></trkpt><trkpt lat="45.5941333" lon="8.6867417"><ele>155.0</ele><time>2026-04-04T06:07:54.951Z</time></trkpt><trkpt lat="45.5940983" lon="8.6864583"><ele>155.0</ele><time>2026-04-04T06:07:55.951Z</time></trkpt><trkpt lat="45.5940533" lon="8.6861617"><ele>155.0</ele><time>2026-04-04T06:07:56.951Z</time></trkpt><trkpt lat="45.59402" lon="8.6858583"><ele>154.66666666666666</ele><time>2026-04-04T06:07:57.951Z</time></trkpt><trkpt lat="45.5939917" lon="8.6855567"><ele>154.33333333333334</ele><time>2026-04-04T06:07:58.951Z</time></trkpt><trkpt lat="45.593955" lon="8.685275"><ele>154.0</ele><time>2026-04-04T06:07:59.951Z</time></trkpt><trkpt lat="45.5939217" lon="8.6849983"><ele>154.0</ele><time>2026-04-04T06:08:00.951Z</time></trkpt><trkpt lat="45.5938933" lon="8.68472"><ele>154.0</ele><time>2026-04-04T06:08:01.951Z</time></trkpt><trkpt lat="45.5938633" lon="8.68443"><ele>154.0</ele><time>2026-04-04T06:08:02.95Z</time></trkpt><trkpt lat="45.5938317" lon="8.684155"><ele>154.0</ele><time>2026-04-04T06:08:03.951Z</time></trkpt><trkpt lat="45.5938017" lon="8.683875"><ele>154.0</ele><time>2026-04-04T06:08:04.95Z</time></trkpt><trkpt lat="45.59376" lon="8.683595"><ele>154.0</ele><time>2026-04-04T06:08:05.951Z</time></trkpt><trkpt lat="45.5937233" lon="8.6833083"><ele>154.0</ele><time>2026-04-04T06:08:06.951Z</time></trkpt><trkpt lat="45.5936883" lon="8.683015"><ele>154.0</ele><time>2026-04-04T06:08:07.951Z</time></trkpt><trkpt lat="45.5936533" lon="8.68271"><ele>154.0</ele><time>2026-04-04T06:08:08.95Z</time></trkpt><trkpt lat="45.5936133" lon="8.68241"><ele>153.66666666666669</ele><time>2026-04-04T06:08:09.951Z</time></trkpt><trkpt lat="45.5935767" lon="8.6821067"><ele>153.33333333333334</ele><time>2026-04-04T06:08:10.951Z</time></trkpt><trkpt lat="45.59354" lon="8.68181"><ele>153.0</ele><time>2026-04-04T06:08:11.951Z</time></trkpt><trkpt lat="45.5935033" lon="8.6815283"><ele>153.33333333333334</ele><time>2026-04-04T06:08:12.951Z</time></trkpt><trkpt lat="45.5934767" lon="8.681255"><ele>153.66666666666669</ele><time>2026-04-04T06:08:13.951Z</time></trkpt><trkpt lat="45.593445" lon="8.6809967"><ele>154.0</ele><time>2026-04-04T06:08:14.951Z</time></trkpt><trkpt lat="45.5934167" lon="8.6807483"><ele>154.0</ele><time>2026-04-04T06:08:15.951Z</time></trkpt><trkpt lat="45.59339" lon="8.680505"><ele>154.0</ele><time>2026-04-04T06:08:16.951Z</time></trkpt><trkpt lat="45.59336" lon="8.6802717"><ele>154.0</ele><time>2026-04-04T06:08:17.951Z</time></trkpt><trkpt lat="45.5933183" lon="8.6800383"><ele>154.66666666666669</ele><time>2026-04-04T06:08:18.951Z</time></trkpt><trkpt lat="45.5932633" lon="8.679815"><ele>155.33333333333334</ele><time>2026-04-04T06:08:19.951Z</time></trkpt><trkpt lat="45.593185" lon="8.6796183"><ele>156.0</ele><time>2026-04-04T06:08:20.951Z</time></trkpt><trkpt lat="45.5930783" lon="8.67947"><ele>155.33333333333334</ele><time>2026-04-04T06:08:21.951Z</time></trkpt><trkpt lat="45.5929517" lon="8.679355"><ele>154.66666666666669</ele><time>2026-04-04T06:08:22.951Z</time></trkpt><trkpt lat="45.5928117" lon="8.6792717"><ele>154.0</ele><time>2026-04-04T06:08:23.951Z</time></trkpt><trkpt lat="45.592655" lon="8.679225"><ele>156.33333333333334</ele><time>2026-04-04T06:08:24.951Z</time></trkpt><trkpt lat="45.59249" lon="8.6792283"><ele>158.66666666666666</ele><time>2026-04-04T06:08:25.951Z</time></trkpt><trkpt lat="45.5923317" lon="8.679255"><ele>161.0</ele><time>2026-04-04T06:08:26.95Z</time></trkpt><trkpt lat="45.59217" lon="8.6793183"><ele>161.66666666666666</ele><time>2026-04-04T06:08:27.951Z</time></trkpt><trkpt lat="45.592005" lon="8.6793983"><ele>162.33333333333334</ele><time>2026-04-04T06:08:28.951Z</time></trkpt><trkpt lat="45.5918533" lon="8.67947"><ele>163.0</ele><time>2026-04-04T06:08:29.951Z</time></trkpt><trkpt lat="45.59169" lon="8.6795283"><ele>163.0</ele><time>2026-04-04T06:08:30.951Z</time></trkpt><trkpt lat="45.5915183" lon="8.67956"><ele>163.0</ele><time>2026-04-04T06:08:31.951Z</time></trkpt><trkpt lat="45.591345" lon="8.6795667"><ele>163.0</ele><time>2026-04-04T06:08:32.951Z</time></trkpt><trkpt lat="45.5911617" lon="8.6795267"><ele>165.33333333333334</ele><time>2026-04-04T06:08:33.951Z</time></trkpt><trkpt lat="45.590985" lon="8.6794683"><ele>167.66666666666666</ele><time>2026-04-04T06:08:34.95Z</time></trkpt><trkpt lat="45.5908067" lon="8.6793883"><ele>170.0</ele><time>2026-04-04T06:08:35.951Z</time></trkpt><trkpt lat="45.5906333" lon="8.679305"><ele>170.66666666666666</ele><time>2026-04-04T06:08:36.951Z</time></trkpt><trkpt lat="45.5904733" lon="8.679235"><ele>171.33333333333334</ele><time>2026-04-04T06:08:37.951Z</time></trkpt><trkpt lat="45.5903017" lon="8.679155"><ele>172.0</ele><time>2026-04-04T06:08:38.951Z</time></trkpt><trkpt lat="45.590135" lon="8.6790767"><ele>172.0</ele><time>2026-04-04T06:08:39.951Z</time></trkpt><trkpt lat="45.5899683" lon="8.6789917"><ele>172.0</ele><time>2026-04-04T06:08:40.951Z</time></trkpt><trkpt lat="45.589805" lon="8.6789067"><ele>172.0</ele><time>2026-04-04T06:08:41.951Z</time></trkpt><trkpt lat="45.5896367" lon="8.678815"><ele>171.66666666666669</ele><time>2026-04-04T06:08:42.951Z</time></trkpt><trkpt lat="45.589475" lon="8.6787283"><ele>171.33333333333334</ele><time>2026-04-04T06:08:43.951Z</time></trkpt><trkpt lat="45.5893133" lon="8.678645"><ele>171.0</ele><time>2026-04-04T06:08:44.95Z</time></trkpt><trkpt lat="45.5891667" lon="8.6785683"><ele>171.0</ele><time>2026-04-04T06:08:45.951Z</time></trkpt><trkpt lat="45.5890233" lon="8.6785"><ele>171.0</ele><time>2026-04-04T06:08:46.951Z</time></trkpt><trkpt lat="45.5888917" lon="8.6784283"><ele>171.0</ele><time>2026-04-04T06:08:47.95Z</time></trkpt><trkpt lat="45.5887683" lon="8.6783617"><ele>171.0</ele><time>2026-04-04T06:08:48.951Z</time></trkpt><trkpt lat="45.5886517" lon="8.6782817"><ele>170.75</ele><time>2026-04-04T06:08:49.95Z</time></trkpt><trkpt lat="45.5885417" lon="8.6781817"><ele>170.5</ele><time>2026-04-04T06:08:50.951Z</time></trkpt><trkpt lat="45.588455" lon="8.6780483"><ele>170.25</ele><time>2026-04-04T06:08:51.951Z</time></trkpt><trkpt lat="45.5884" lon="8.67789"><ele>170.0</ele><time>2026-04-04T06:08:52.951Z</time></trkpt><trkpt lat="45.58837" lon="8.6777067"><ele>171.0</ele><time>2026-04-04T06:08:53.951Z</time></trkpt><trkpt lat="45.5883783" lon="8.677525"><ele>172.0</ele><time>2026-04-04T06:08:54.951Z</time></trkpt><trkpt lat="45.58843" lon="8.6773483"><ele>173.0</ele><time>2026-04-04T06:08:55.951Z</time></trkpt><trkpt lat="45.5885183" lon="8.6771917"><ele>174.0</ele><time>2026-04-04T06:08:56.951Z</time></trkpt><trkpt lat="45.588625" lon="8.6770533"><ele>176.66666666666666</ele><time>2026-04-04T06:08:57.951Z</time></trkpt><trkpt lat="45.5887633" lon="8.6769283"><ele>179.33333333333331</ele><time>2026-04-04T06:08:58.951Z</time></trkpt><trkpt lat="45.5889117" lon="8.6767867"><ele>182.0</ele><time>2026-04-04T06:08:59.951Z</time></trkpt><trkpt lat="45.5890717" lon="8.6766417"><ele>182.0</ele><time>2026-04-04T06:09:00.95Z</time></trkpt><trkpt lat="45.5892417" lon="8.6764783"><ele>182.0</ele><time>2026-04-04T06:09:01.951Z</time></trkpt><trkpt lat="45.5894283" lon="8.6763017"><ele>182.0</ele><time>2026-04-04T06:09:02.951Z</time></trkpt><trkpt lat="45.5896167" lon="8.6761383"><ele>184.33333333333331</ele><time>2026-04-04T06:09:03.951Z</time></trkpt><trkpt lat="45.5897967" lon="8.6759783"><ele>186.66666666666666</ele><time>2026-04-04T06:09:04.951Z</time></trkpt><trkpt lat="45.5899617" lon="8.6758333"><ele>189.0</ele><time>2026-04-04T06:09:05.951Z</time></trkpt><trkpt lat="45.5901283" lon="8.675695"><ele>189.0</ele><time>2026-04-04T06:09:06.951Z</time></trkpt><trkpt lat="45.590285" lon="8.6755617"><ele>189.0</ele><time>2026-04-04T06:09:07.951Z</time></trkpt><trkpt lat="45.5904417" lon="8.675425"><ele>189.0</ele><time>2026-04-04T06:09:08.951Z</time></trkpt><trkpt lat="45.5905917" lon="8.6752833"><ele>188.66666666666666</ele><time>2026-04-04T06:09:09.951Z</time></trkpt><trkpt lat="45.5907317" lon="8.6751433"><ele>188.33333333333331</ele><time>2026-04-04T06:09:10.951Z</time></trkpt><trkpt lat="45.590855" lon="8.6750067"><ele>188.0</ele><time>2026-04-04T06:09:11.951Z</time></trkpt><trkpt lat="45.5909733" lon="8.6748717"><ele>188.0</ele><time>2026-04-04T06:09:12.951Z</time></trkpt><trkpt lat="45.591055" lon="8.6747"><ele>188.0</ele><time>2026-04-04T06:09:13.951Z</time></trkpt><trkpt lat="45.5911033" lon="8.6745067"><ele>188.0</ele><time>2026-04-04T06:09:14.951Z</time></trkpt><trkpt lat="45.5911383" lon="8.6742883"><ele>188.0</ele><time>2026-04-04T06:09:15.951Z</time></trkpt><trkpt lat="45.5911583" lon="8.6740683"><ele>187.33333333333331</ele><time>2026-04-04T06:09:16.951Z</time></trkpt><trkpt lat="45.59118" lon="8.67384"><ele>186.66666666666666</ele><time>2026-04-04T06:09:17.951Z</time></trkpt><trkpt lat="45.59121" lon="8.673605"><ele>186.0</ele><time>2026-04-04T06:09:18.951Z</time></trkpt><trkpt lat="45.5912417" lon="8.6733633"><ele>184.66666666666666</ele><time>2026-04-04T06:09:19.951Z</time></trkpt><trkpt lat="45.5912767" lon="8.67312"><ele>183.33333333333331</ele><time>2026-04-04T06:09:20.951Z</time></trkpt><trkpt lat="45.59131" lon="8.6728633"><ele>182.0</ele><time>2026-04-04T06:09:21.951Z</time></trkpt><trkpt lat="45.5913483" lon="8.6726033"><ele>181.33333333333331</ele><time>2026-04-04T06:09:22.951Z</time></trkpt><trkpt lat="45.5913667" lon="8.6723117"><ele>180.66666666666666</ele><time>2026-04-04T06:09:23.95Z</time></trkpt><trkpt lat="45.5914033" lon="8.67201"><ele>180.0</ele><time>2026-04-04T06:09:24.951Z</time></trkpt><trkpt lat="45.59145" lon="8.67171"><ele>181.66666666666666</ele><time>2026-04-04T06:09:25.951Z</time></trkpt><trkpt lat="45.5915017" lon="8.67142"><ele>183.33333333333331</ele><time>2026-04-04T06:09:26.951Z</time></trkpt><trkpt lat="45.59155" lon="8.67113"><ele>185.0</ele><time>2026-04-04T06:09:27.951Z</time></trkpt><trkpt lat="45.5915967" lon="8.6708417"><ele>185.66666666666666</ele><time>2026-04-04T06:09:28.951Z</time></trkpt><trkpt lat="45.59164" lon="8.6705467"><ele>186.33333333333334</ele><time>2026-04-04T06:09:29.951Z</time></trkpt><trkpt lat="45.59168" lon="8.6702567"><ele>187.0</ele><time>2026-04-04T06:09:30.951Z</time></trkpt><trkpt lat="45.591725" lon="8.66997"><ele>187.33333333333334</ele><time>2026-04-04T06:09:31.951Z</time></trkpt><trkpt lat="45.5917683" lon="8.6696883"><ele>187.66666666666666</ele><time>2026-04-04T06:09:32.95Z</time></trkpt><trkpt lat="45.5918083" lon="8.6694183"><ele>188.0</ele><time>2026-04-04T06:09:33.951Z</time></trkpt><trkpt lat="45.591845" lon="8.66915"><ele>188.33333333333331</ele><time>2026-04-04T06:09:34.951Z</time></trkpt><trkpt lat="45.5918817" lon="8.6688917"><ele>188.66666666666666</ele><time>2026-04-04T06:09:35.951Z</time></trkpt><trkpt lat="45.59192" lon="8.668635"><ele>189.0</ele><time>2026-04-04T06:09:36.951Z</time></trkpt><trkpt lat="45.5919567" lon="8.6683733"><ele>188.66666666666666</ele><time>2026-04-04T06:09:37.951Z</time></trkpt><trkpt lat="45.5919933" lon="8.6681083"><ele>188.33333333333331</ele><time>2026-04-04T06:09:38.951Z</time></trkpt><trkpt lat="45.59202" lon="8.6678433"><ele>188.0</ele><time>2026-04-04T06:09:39.951Z</time></trkpt><trkpt lat="45.5920433" lon="8.66757"><ele>187.66666666666666</ele><time>2026-04-04T06:09:40.951Z</time></trkpt><trkpt lat="45.5920517" lon="8.6672917"><ele>187.33333333333334</ele><time>2026-04-04T06:09:41.951Z</time></trkpt><trkpt lat="45.59206" lon="8.66701"><ele>187.0</ele><time>2026-04-04T06:09:42.951Z</time></trkpt><trkpt lat="45.5920567" lon="8.66674"><ele>187.0</ele><time>2026-04-04T06:09:43.951Z</time></trkpt><trkpt lat="45.5920567" lon="8.66648"><ele>187.0</ele><time>2026-04-04T06:09:44.951Z</time></trkpt><trkpt lat="45.5920567" lon="8.6662383"><ele>187.0</ele><time>2026-04-04T06:09:45.95Z</time></trkpt><trkpt lat="45.5920583" lon="8.6660083"><ele>187.25</ele><time>2026-04-04T06:09:46.951Z</time></trkpt><trkpt lat="45.592055" lon="8.6657883"><ele>187.5</ele><time>2026-04-04T06:09:47.951Z</time></trkpt><trkpt lat="45.592055" lon="8.665585"><ele>187.75</ele><time>2026-04-04T06:09:48.951Z</time></trkpt><trkpt lat="45.592055" lon="8.665395"><ele>188.0</ele><time>2026-04-04T06:09:49.95Z</time></trkpt><trkpt lat="45.5920567" lon="8.6652283"><ele>188.0</ele><time>2026-04-04T06:09:50.951Z</time></trkpt><trkpt lat="45.5920533" lon="8.665075"><ele>188.0</ele><time>2026-04-04T06:09:51.951Z</time></trkpt><trkpt lat="45.5920467" lon="8.6649217"><ele>188.0</ele><time>2026-04-04T06:09:52.951Z</time></trkpt><trkpt lat="45.592045" lon="8.6647733"><ele>188.0</ele><time>2026-04-04T06:09:53.951Z</time></trkpt><trkpt lat="45.59205" lon="8.6646217"><ele>188.0</ele><time>2026-04-04T06:09:54.951Z</time></trkpt><trkpt lat="45.5920467" lon="8.6644617"><ele>188.0</ele><time>2026-04-04T06:09:55.951Z</time></trkpt><trkpt lat="45.59202" lon="8.6642967"><ele>188.0</ele><time>2026-04-04T06:09:56.951Z</time></trkpt><trkpt lat="45.591965" lon="8.664135"><ele>188.0</ele><time>2026-04-04T06:09:57.951Z</time></trkpt><trkpt lat="45.5919133" lon="8.6639533"><ele>188.0</ele><time>2026-04-04T06:09:58.951Z</time></trkpt><trkpt lat="45.591875" lon="8.663755"><ele>188.0</ele><time>2026-04-04T06:09:59.951Z</time></trkpt><trkpt lat="45.5918383" lon="8.6635433"><ele>188.0</ele><time>2026-04-04T06:10:00.951Z</time></trkpt><trkpt lat="45.5917967" lon="8.66332"><ele>188.0</ele><time>2026-04-04T06:10:01.951Z</time></trkpt><trkpt lat="45.59175" lon="8.6631"><ele>188.0</ele><time>2026-04-04T06:10:02.951Z</time></trkpt><trkpt lat="45.591715" lon="8.6628883"><ele>188.0</ele><time>2026-04-04T06:10:03.951Z</time></trkpt><trkpt lat="45.5916733" lon="8.6626717"><ele>188.0</ele><time>2026-04-04T06:10:04.951Z</time></trkpt><trkpt lat="45.59164" lon="8.66244"><ele>188.0</ele><time>2026-04-04T06:10:05.951Z</time></trkpt><trkpt lat="45.591605" lon="8.6622033"><ele>188.0</ele><time>2026-04-04T06:10:06.951Z</time></trkpt><trkpt lat="45.5915767" lon="8.6619617"><ele>188.0</ele><time>2026-04-04T06:10:07.951Z</time></trkpt><trkpt lat="45.59155" lon="8.661715"><ele>188.0</ele><time>2026-04-04T06:10:08.951Z</time></trkpt><trkpt lat="45.5915267" lon="8.6614617"><ele>188.0</ele><time>2026-04-04T06:10:09.951Z</time></trkpt><trkpt lat="45.5915133" lon="8.6611983"><ele>188.0</ele><time>2026-04-04T06:10:10.95Z</time></trkpt><trkpt lat="45.5915083" lon="8.6609267"><ele>188.0</ele><time>2026-04-04T06:10:11.95Z</time></trkpt><trkpt lat="45.591505" lon="8.660655"><ele>188.0</ele><time>2026-04-04T06:10:12.951Z</time></trkpt><trkpt lat="45.5915067" lon="8.6603833"><ele>188.0</ele><time>2026-04-04T06:10:13.951Z</time></trkpt><trkpt lat="45.5915117" lon="8.6601083"><ele>189.33333333333331</ele><time>2026-04-04T06:10:14.951Z</time></trkpt><trkpt lat="45.5915183" lon="8.65983"><ele>190.66666666666666</ele><time>2026-04-04T06:10:15.951Z</time></trkpt><trkpt lat="45.5915267" lon="8.6595517"><ele>192.0</ele><time>2026-04-04T06:10:16.951Z</time></trkpt><trkpt lat="45.591535" lon="8.6592667"><ele>195.0</ele><time>2026-04-04T06:10:17.951Z</time></trkpt><trkpt lat="45.591545" lon="8.6589733"><ele>198.0</ele><time>2026-04-04T06:10:18.951Z</time></trkpt><trkpt lat="45.5915567" lon="8.6586867"><ele>201.0</ele><time>2026-04-04T06:10:19.951Z</time></trkpt><trkpt lat="45.59157" lon="8.6584183"><ele>202.0</ele><time>2026-04-04T06:10:20.951Z</time></trkpt><trkpt lat="45.5915933" lon="8.6581717"><ele>203.0</ele><time>2026-04-04T06:10:21.951Z</time></trkpt><trkpt lat="45.5916233" lon="8.6579217"><ele>204.0</ele><time>2026-04-04T06:10:22.951Z</time></trkpt><trkpt lat="45.591645" lon="8.6576567"><ele>204.0</ele><time>2026-04-04T06:10:23.951Z</time></trkpt><trkpt lat="45.5916817" lon="8.6574"><ele>204.0</ele><time>2026-04-04T06:10:24.951Z</time></trkpt><trkpt lat="45.5917217" lon="8.6571567"><ele>204.0</ele><time>2026-04-04T06:10:25.951Z</time></trkpt><trkpt lat="45.5917583" lon="8.656915"><ele>203.66666666666669</ele><time>2026-04-04T06:10:26.951Z</time></trkpt><trkpt lat="45.591775" lon="8.6566867"><ele>203.33333333333334</ele><time>2026-04-04T06:10:27.951Z</time></trkpt><trkpt lat="45.5917967" lon="8.65647"><ele>203.0</ele><time>2026-04-04T06:10:28.95Z</time></trkpt><trkpt lat="45.5918167" lon="8.6562583"><ele>203.0</ele><time>2026-04-04T06:10:29.95Z</time></trkpt><trkpt lat="45.591835" lon="8.656045"><ele>203.0</ele><time>2026-04-04T06:10:30.951Z</time></trkpt><trkpt lat="45.5918433" lon="8.6558167"><ele>203.0</ele><time>2026-04-04T06:10:31.951Z</time></trkpt><trkpt lat="45.5918567" lon="8.6555917"><ele>203.0</ele><time>2026-04-04T06:10:32.951Z</time></trkpt><trkpt lat="45.5918617" lon="8.6553783"><ele>203.0</ele><time>2026-04-04T06:10:33.951Z</time></trkpt><trkpt lat="45.591865" lon="8.6551633"><ele>203.0</ele><time>2026-04-04T06:10:34.951Z</time></trkpt><trkpt lat="45.5918767" lon="8.6549433"><ele>202.66666666666669</ele><time>2026-04-04T06:10:35.951Z</time></trkpt><trkpt lat="45.5918817" lon="8.6547217"><ele>202.33333333333331</ele><time>2026-04-04T06:10:36.951Z</time></trkpt><trkpt lat="45.59188" lon="8.6544983"><ele>202.0</ele><time>2026-04-04T06:10:37.951Z</time></trkpt><trkpt lat="45.5918883" lon="8.65428"><ele>202.0</ele><time>2026-04-04T06:10:38.951Z</time></trkpt><trkpt lat="45.5918983" lon="8.65406"><ele>202.0</ele><time>2026-04-04T06:10:39.951Z</time></trkpt><trkpt lat="45.591905" lon="8.65383"><ele>202.0</ele><time>2026-04-04T06:10:40.95Z</time></trkpt><trkpt lat="45.591935" lon="8.653595"><ele>202.0</ele><time>2026-04-04T06:10:41.95Z</time></trkpt><trkpt lat="45.5919683" lon="8.6533583"><ele>202.0</ele><time>2026-04-04T06:10:42.951Z</time></trkpt><trkpt lat="45.5920233" lon="8.6531333"><ele>202.0</ele><time>2026-04-04T06:10:43.951Z</time></trkpt><trkpt lat="45.59208" lon="8.6529033"><ele>201.66666666666666</ele><time>2026-04-04T06:10:44.95Z</time></trkpt><trkpt lat="45.59212" lon="8.6526583"><ele>201.33333333333331</ele><time>2026-04-04T06:10:45.951Z</time></trkpt><trkpt lat="45.5921717" lon="8.6524317"><ele>201.0</ele><time>2026-04-04T06:10:46.95Z</time></trkpt><trkpt lat="45.592215" lon="8.6521933"><ele>201.0</ele><time>2026-04-04T06:10:47.951Z</time></trkpt><trkpt lat="45.5922567" lon="8.6519583"><ele>201.0</ele><time>2026-04-04T06:10:48.951Z</time></trkpt><trkpt lat="45.5922983" lon="8.6517267"><ele>201.0</ele><time>2026-04-04T06:10:49.951Z</time></trkpt><trkpt lat="45.5923333" lon="8.6514967"><ele>201.0</ele><time>2026-04-04T06:10:50.951Z</time></trkpt><trkpt lat="45.59237" lon="8.6512683"><ele>201.0</ele><time>2026-04-04T06:10:51.951Z</time></trkpt><trkpt lat="45.5924083" lon="8.6510467"><ele>201.0</ele><time>2026-04-04T06:10:52.951Z</time></trkpt><trkpt lat="45.5924467" lon="8.6508517"><ele>201.25</ele><time>2026-04-04T06:10:53.951Z</time></trkpt><trkpt lat="45.5924833" lon="8.650665"><ele>201.5</ele><time>2026-04-04T06:10:54.95Z</time></trkpt><trkpt lat="45.59251" lon="8.6504867"><ele>201.75</ele><time>2026-04-04T06:10:55.951Z</time></trkpt><trkpt lat="45.59253" lon="8.65032"><ele>202.0</ele><time>2026-04-04T06:10:56.95Z</time></trkpt><trkpt lat="45.59255" lon="8.6501583"><ele>202.25</ele><time>2026-04-04T06:10:57.951Z</time></trkpt><trkpt lat="45.5925733" lon="8.6499983"><ele>202.5</ele><time>2026-04-04T06:10:58.951Z</time></trkpt><trkpt lat="45.5926033" lon="8.6498083"><ele>202.75</ele><time>2026-04-04T06:10:59.951Z</time></trkpt><trkpt lat="45.5926317" lon="8.649595"><ele>203.0</ele><time>2026-04-04T06:11:00.95Z</time></trkpt><trkpt lat="45.592685" lon="8.6493583"><ele>203.0</ele><time>2026-04-04T06:11:01.951Z</time></trkpt><trkpt lat="45.59274" lon="8.6491133"><ele>203.0</ele><time>2026-04-04T06:11:02.951Z</time></trkpt><trkpt lat="45.59278" lon="8.64885"><ele>203.0</ele><time>2026-04-04T06:11:03.951Z</time></trkpt><trkpt lat="45.5928217" lon="8.6485667"><ele>202.66666666666669</ele><time>2026-04-04T06:11:04.951Z</time></trkpt><trkpt lat="45.5928717" lon="8.6482883"><ele>202.33333333333331</ele><time>2026-04-04T06:11:05.951Z</time></trkpt><trkpt lat="45.5929167" lon="8.6480133"><ele>202.0</ele><time>2026-04-04T06:11:06.951Z</time></trkpt><trkpt lat="45.5929633" lon="8.6477517"><ele>202.0</ele><time>2026-04-04T06:11:07.951Z</time></trkpt><trkpt lat="45.5930083" lon="8.6475117"><ele>202.0</ele><time>2026-04-04T06:11:08.951Z</time></trkpt><trkpt lat="45.5930483" lon="8.6472867"><ele>202.0</ele><time>2026-04-04T06:11:09.95Z</time></trkpt><trkpt lat="45.5930867" lon="8.64707"><ele>202.25</ele><time>2026-04-04T06:11:10.951Z</time></trkpt><trkpt lat="45.5931183" lon="8.64687"><ele>202.5</ele><time>2026-04-04T06:11:11.95Z</time></trkpt><trkpt lat="45.5931467" lon="8.6466833"><ele>202.75</ele><time>2026-04-04T06:11:12.951Z</time></trkpt><trkpt lat="45.5931767" lon="8.6465133"><ele>203.0</ele><time>2026-04-04T06:11:13.951Z</time></trkpt><trkpt lat="45.5932117" lon="8.6463533"><ele>203.0</ele><time>2026-04-04T06:11:14.951Z</time></trkpt><trkpt lat="45.5932417" lon="8.6462083"><ele>203.0</ele><time>2026-04-04T06:11:15.951Z</time></trkpt><trkpt lat="45.5932717" lon="8.6460633"><ele>203.0</ele><time>2026-04-04T06:11:16.951Z</time></trkpt><trkpt lat="45.5932933" lon="8.6458983"><ele>203.0</ele><time>2026-04-04T06:11:17.951Z</time></trkpt><trkpt lat="45.5933167" lon="8.6456967"><ele>203.0</ele><time>2026-04-04T06:11:18.951Z</time></trkpt><trkpt lat="45.593355" lon="8.6454683"><ele>203.0</ele><time>2026-04-04T06:11:19.951Z</time></trkpt><trkpt lat="45.593395" lon="8.6452267"><ele>203.0</ele><time>2026-04-04T06:11:20.951Z</time></trkpt><trkpt lat="45.5934417" lon="8.644985"><ele>203.33333333333334</ele><time>2026-04-04T06:11:21.951Z</time></trkpt><trkpt lat="45.59349" lon="8.6447467"><ele>203.66666666666669</ele><time>2026-04-04T06:11:22.951Z</time></trkpt><trkpt lat="45.5935317" lon="8.644505"><ele>204.0</ele><time>2026-04-04T06:11:23.951Z</time></trkpt><trkpt lat="45.5935717" lon="8.6442583"><ele>204.0</ele><time>2026-04-04T06:11:24.951Z</time></trkpt><trkpt lat="45.5935983" lon="8.6440333"><ele>204.0</ele><time>2026-04-04T06:11:25.951Z</time></trkpt><trkpt lat="45.5935983" lon="8.64381"><ele>204.0</ele><time>2026-04-04T06:11:26.95Z</time></trkpt><trkpt lat="45.5935867" lon="8.6435817"><ele>204.0</ele><time>2026-04-04T06:11:27.951Z</time></trkpt><trkpt lat="45.5935567" lon="8.6433583"><ele>204.0</ele><time>2026-04-04T06:11:28.951Z</time></trkpt><trkpt lat="45.5935283" lon="8.64311"><ele>204.0</ele><time>2026-04-04T06:11:29.951Z</time></trkpt><trkpt lat="45.5934967" lon="8.6428767"><ele>204.5</ele><time>2026-04-04T06:11:30.951Z</time></trkpt><trkpt lat="45.5934483" lon="8.6426717"><ele>205.0</ele><time>2026-04-04T06:11:31.951Z</time></trkpt><trkpt lat="45.5934067" lon="8.6424783"><ele>205.5</ele><time>2026-04-04T06:11:32.951Z</time></trkpt><trkpt lat="45.593375" lon="8.6422983"><ele>206.0</ele><time>2026-04-04T06:11:33.951Z</time></trkpt><trkpt lat="45.5933383" lon="8.6421367"><ele>206.0</ele><time>2026-04-04T06:11:34.951Z</time></trkpt><trkpt lat="45.593315" lon="8.6419833"><ele>206.0</ele><time>2026-04-04T06:11:35.951Z</time></trkpt><trkpt lat="45.593285" lon="8.6418317"><ele>206.0</ele><time>2026-04-04T06:11:36.95Z</time></trkpt><trkpt lat="45.5932733" lon="8.6416867"><ele>206.0</ele><time>2026-04-04T06:11:37.951Z</time></trkpt><trkpt lat="45.5932567" lon="8.6415567"><ele>206.0</ele><time>2026-04-04T06:11:38.951Z</time></trkpt><trkpt lat="45.593235" lon="8.6414383"><ele>206.4</ele><time>2026-04-04T06:11:39.95Z</time></trkpt><trkpt lat="45.593215" lon="8.6413467"><ele>206.8</ele><time>2026-04-04T06:11:40.951Z</time></trkpt><trkpt lat="45.59319" lon="8.6411933"><ele>207.20000000000002</ele><time>2026-04-04T06:11:42.951Z</time></trkpt><trkpt lat="45.5931683" lon="8.64107"><ele>207.60000000000002</ele><time>2026-04-04T06:11:44.95Z</time></trkpt><trkpt lat="45.593145" lon="8.640945"><ele>208.0</ele><time>2026-04-04T06:11:46.951Z</time></trkpt><trkpt lat="45.5931233" lon="8.6407633"><ele>208.33333333333331</ele><time>2026-04-04T06:11:48.951Z</time></trkpt><trkpt lat="45.5931067" lon="8.6406433"><ele>208.66666666666666</ele><time>2026-04-04T06:11:49.95Z</time></trkpt><trkpt lat="45.5930867" lon="8.64053"><ele>209.0</ele><time>2026-04-04T06:11:50.951Z</time></trkpt><trkpt lat="45.593065" lon="8.640425"><ele>209.33333333333331</ele><time>2026-04-04T06:11:51.951Z</time></trkpt><trkpt lat="45.5930483" lon="8.6402967"><ele>209.66666666666666</ele><time>2026-04-04T06:11:52.951Z</time></trkpt><trkpt lat="45.5930267" lon="8.64015"><ele>210.0</ele><time>2026-04-04T06:11:53.951Z</time></trkpt><trkpt lat="45.593" lon="8.6399967"><ele>210.75</ele><time>2026-04-04T06:11:54.951Z</time></trkpt><trkpt lat="45.5929683" lon="8.63984"><ele>211.5</ele><time>2026-04-04T06:11:55.951Z</time></trkpt><trkpt lat="45.59292" lon="8.6396633"><ele>212.25</ele><time>2026-04-04T06:11:56.95Z</time></trkpt><trkpt lat="45.5928833" lon="8.6395"><ele>213.0</ele><time>2026-04-04T06:11:57.951Z</time></trkpt><trkpt lat="45.5928667" lon="8.6393433"><ele>213.0</ele><time>2026-04-04T06:11:58.951Z</time></trkpt><trkpt lat="45.5928433" lon="8.639215"><ele>213.0</ele><time>2026-04-04T06:11:59.951Z</time></trkpt><trkpt lat="45.5928183" lon="8.6391183"><ele>213.0</ele><time>2026-04-04T06:12:00.95Z</time></trkpt><trkpt lat="45.592785" lon="8.6389733"><ele>213.0</ele><time>2026-04-04T06:12:02.951Z</time></trkpt><trkpt lat="45.59276" lon="8.6388867"><ele>213.0</ele><time>2026-04-04T06:12:04.95Z</time></trkpt><trkpt lat="45.59273" lon="8.6387983"><ele>213.0</ele><time>2026-04-04T06:12:07.951Z</time></trkpt><trkpt lat="45.5927267" lon="8.63868"><ele>213.66666666666666</ele><time>2026-04-04T06:12:12.951Z</time></trkpt><trkpt lat="45.5927367" lon="8.6385767"><ele>214.33333333333331</ele><time>2026-04-04T06:12:13.951Z</time></trkpt><trkpt lat="45.5927617" lon="8.6384783"><ele>215.0</ele><time>2026-04-04T06:12:14.951Z</time></trkpt><trkpt lat="45.5928" lon="8.6384"><ele>215.66666666666666</ele><time>2026-04-04T06:12:15.951Z</time></trkpt><trkpt lat="45.5929067" lon="8.63833"><ele>216.33333333333331</ele><time>2026-04-04T06:12:17.951Z</time></trkpt><trkpt lat="45.5929783" lon="8.638305"><ele>217.0</ele><time>2026-04-04T06:12:18.95Z</time></trkpt><trkpt lat="45.5930617" lon="8.6382783"><ele>217.2</ele><time>2026-04-04T06:12:19.951Z</time></trkpt><trkpt lat="45.5931467" lon="8.6382417"><ele>217.39999999999998</ele><time>2026-04-04T06:12:20.951Z</time></trkpt><trkpt lat="45.59324" lon="8.6382083"><ele>217.60000000000002</ele><time>2026-04-04T06:12:21.951Z</time></trkpt><trkpt lat="45.59335" lon="8.63816"><ele>217.8</ele><time>2026-04-04T06:12:22.951Z</time></trkpt><trkpt lat="45.5934717" lon="8.6381283"><ele>218.0</ele><time>2026-04-04T06:12:23.951Z</time></trkpt><trkpt lat="45.59359" lon="8.638085"><ele>217.60000000000002</ele><time>2026-04-04T06:12:24.951Z</time></trkpt><trkpt lat="45.5936917" lon="8.638035"><ele>217.20000000000002</ele><time>2026-04-04T06:12:25.951Z</time></trkpt><trkpt lat="45.5938083" lon="8.638"><ele>216.8</ele><time>2026-04-04T06:12:26.951Z</time></trkpt><trkpt lat="45.5939183" lon="8.637975"><ele>216.4</ele><time>2026-04-04T06:12:27.951Z</time></trkpt><trkpt lat="45.5940283" lon="8.6379517"><ele>216.0</ele><time>2026-04-04T06:12:28.95Z</time></trkpt><trkpt lat="45.5941233" lon="8.63792"><ele>216.0</ele><time>2026-04-04T06:12:29.95Z</time></trkpt><trkpt lat="45.5942133" lon="8.6378867"><ele>216.0</ele><time>2026-04-04T06:12:30.951Z</time></trkpt><trkpt lat="45.594285" lon="8.6378517"><ele>216.0</ele><time>2026-04-04T06:12:31.951Z</time></trkpt><trkpt lat="45.59435" lon="8.6377933"><ele>216.0</ele><time>2026-04-04T06:12:32.951Z</time></trkpt><trkpt lat="45.5944017" lon="8.637715"><ele>216.0</ele><time>2026-04-04T06:12:33.951Z</time></trkpt><trkpt lat="45.594435" lon="8.6376083"><ele>216.0</ele><time>2026-04-04T06:12:34.951Z</time></trkpt><trkpt lat="45.5944483" lon="8.6374733"><ele>218.20000000000002</ele><time>2026-04-04T06:12:35.951Z</time></trkpt><trkpt lat="45.5944683" lon="8.6373383"><ele>220.40000000000003</ele><time>2026-04-04T06:12:36.951Z</time></trkpt><trkpt lat="45.5945067" lon="8.6372033"><ele>222.6</ele><time>2026-04-04T06:12:37.951Z</time></trkpt><trkpt lat="45.594555" lon="8.6370633"><ele>224.8</ele><time>2026-04-04T06:12:38.951Z</time></trkpt><trkpt lat="45.5946217" lon="8.636935"><ele>227.0</ele><time>2026-04-04T06:12:39.951Z</time></trkpt><trkpt lat="45.5946917" lon="8.6368167"><ele>228.2</ele><time>2026-04-04T06:12:40.951Z</time></trkpt><trkpt lat="45.59476" lon="8.6367017"><ele>229.39999999999998</ele><time>2026-04-04T06:12:41.951Z</time></trkpt><trkpt lat="45.59482" lon="8.63658"><ele>230.60000000000002</ele><time>2026-04-04T06:12:42.951Z</time></trkpt><trkpt lat="45.594865" lon="8.6364617"><ele>231.8</ele><time>2026-04-04T06:12:43.951Z</time></trkpt><trkpt lat="45.5948867" lon="8.6363283"><ele>233.0</ele><time>2026-04-04T06:12:44.951Z</time></trkpt><trkpt lat="45.5949033" lon="8.6362067"><ele>232.85714285714286</ele><time>2026-04-04T06:12:45.951Z</time></trkpt><trkpt lat="45.594915" lon="8.636095"><ele>232.71428571428572</ele><time>2026-04-04T06:12:46.951Z</time></trkpt><trkpt lat="45.5949183" lon="8.635975"><ele>232.57142857142858</ele><time>2026-04-04T06:12:47.951Z</time></trkpt><trkpt lat="45.5949267" lon="8.6358717"><ele>232.42857142857144</ele><time>2026-04-04T06:12:48.951Z</time></trkpt><trkpt lat="45.5949433" lon="8.6357783"><ele>232.28571428571428</ele><time>2026-04-04T06:12:49.951Z</time></trkpt><trkpt lat="45.5949483" lon="8.6356833"><ele>232.14285714285717</ele><time>2026-04-04T06:12:50.951Z</time></trkpt><trkpt lat="45.5949533" lon="8.6355733"><ele>232.00000000000003</ele><time>2026-04-04T06:12:51.951Z</time></trkpt><trkpt lat="45.5949683" lon="8.6354617"><ele>231.99999999999997</ele><time>2026-04-04T06:12:52.951Z</time></trkpt><trkpt lat="45.594995" lon="8.635365"><ele>232.0</ele><time>2026-04-04T06:12:53.951Z</time></trkpt><trkpt lat="45.595025" lon="8.63528"><ele>232.0</ele><time>2026-04-04T06:12:54.951Z</time></trkpt><trkpt lat="45.5950833" lon="8.6351667"><ele>232.0</ele><time>2026-04-04T06:12:56.951Z</time></trkpt><trkpt lat="45.5951567" lon="8.6351133"><ele>231.99999999999997</ele><time>2026-04-04T06:12:58.951Z</time></trkpt><trkpt lat="45.5952317" lon="8.6350467"><ele>232.0</ele><time>2026-04-04T06:13:00.951Z</time></trkpt><trkpt lat="45.5952833" lon="8.634915"><ele>231.99999999999997</ele><time>2026-04-04T06:13:02.951Z</time></trkpt><trkpt lat="45.595325" lon="8.63474"><ele>232.0</ele><time>2026-04-04T06:13:04.95Z</time></trkpt><trkpt lat="45.595345" lon="8.634635"><ele>232.0</ele><time>2026-04-04T06:13:05.951Z</time></trkpt><trkpt lat="45.5953567" lon="8.634525"><ele>232.0</ele><time>2026-04-04T06:13:06.951Z</time></trkpt><trkpt lat="45.5953517" lon="8.6344267"><ele>231.99999999999997</ele><time>2026-04-04T06:13:07.951Z</time></trkpt><trkpt lat="45.5953367" lon="8.6343283"><ele>232.0</ele><time>2026-04-04T06:13:08.951Z</time></trkpt><trkpt lat="45.5953033" lon="8.6342083"><ele>232.6</ele><time>2026-04-04T06:13:09.951Z</time></trkpt><trkpt lat="45.59526" lon="8.6340733"><ele>233.2</ele><time>2026-04-04T06:13:10.951Z</time></trkpt><trkpt lat="45.59521" lon="8.6339317"><ele>233.8</ele><time>2026-04-04T06:13:11.95Z</time></trkpt><trkpt lat="45.5951617" lon="8.6337867"><ele>234.4</ele><time>2026-04-04T06:13:12.95Z</time></trkpt><trkpt lat="45.5951133" lon="8.6336333"><ele>235.0</ele><time>2026-04-04T06:13:13.951Z</time></trkpt><trkpt lat="45.5950633" lon="8.6334767"><ele>235.25</ele><time>2026-04-04T06:13:14.951Z</time></trkpt><trkpt lat="45.5950183" lon="8.6332983"><ele>235.5</ele><time>2026-04-04T06:13:15.951Z</time></trkpt><trkpt lat="45.5949867" lon="8.633115"><ele>235.75</ele><time>2026-04-04T06:13:16.951Z</time></trkpt><trkpt lat="45.594965" lon="8.632925"><ele>236.0</ele><time>2026-04-04T06:13:17.951Z</time></trkpt><trkpt lat="45.5949567" lon="8.6327417"><ele>236.5</ele><time>2026-04-04T06:13:18.951Z</time></trkpt><trkpt lat="45.5949417" lon="8.6325667"><ele>237.0</ele><time>2026-04-04T06:13:19.951Z</time></trkpt><trkpt lat="45.5949383" lon="8.6323833"><ele>237.5</ele><time>2026-04-04T06:13:20.951Z</time></trkpt><trkpt lat="45.5949367" lon="8.6321983"><ele>238.0</ele><time>2026-04-04T06:13:21.951Z</time></trkpt><trkpt lat="45.5949383" lon="8.6320167"><ele>238.0</ele><time>2026-04-04T06:13:22.951Z</time></trkpt><trkpt lat="45.594935" lon="8.6318317"><ele>238.0</ele><time>2026-04-04T06:13:23.951Z</time></trkpt><trkpt lat="45.59492" lon="8.6316417"><ele>238.0</ele><time>2026-04-04T06:13:24.951Z</time></trkpt><trkpt lat="45.594905" lon="8.631455"><ele>238.0</ele><time>2026-04-04T06:13:25.951Z</time></trkpt><trkpt lat="45.5949017" lon="8.6312667"><ele>237.75</ele><time>2026-04-04T06:13:26.951Z</time></trkpt><trkpt lat="45.5949033" lon="8.6310783"><ele>237.5</ele><time>2026-04-04T06:13:27.951Z</time></trkpt><trkpt lat="45.59491" lon="8.63089"><ele>237.25</ele><time>2026-04-04T06:13:28.951Z</time></trkpt><trkpt lat="45.594905" lon="8.630695"><ele>237.0</ele><time>2026-04-04T06:13:29.951Z</time></trkpt><trkpt lat="45.594905" lon="8.6305"><ele>237.0</ele><time>2026-04-04T06:13:30.951Z</time></trkpt><trkpt lat="45.59491" lon="8.6303133"><ele>237.0</ele><time>2026-04-04T06:13:31.951Z</time></trkpt><trkpt lat="45.5949017" lon="8.63012"><ele>237.0</ele><time>2026-04-04T06:13:32.951Z</time></trkpt><trkpt lat="45.594895" lon="8.62993"><ele>237.0</ele><time>2026-04-04T06:13:33.951Z</time></trkpt><trkpt lat="45.5948967" lon="8.6297567"><ele>237.5</ele><time>2026-04-04T06:13:34.95Z</time></trkpt><trkpt lat="45.5949" lon="8.6295817"><ele>238.0</ele><time>2026-04-04T06:13:35.951Z</time></trkpt><trkpt lat="45.5948917" lon="8.6294117"><ele>238.5</ele><time>2026-04-04T06:13:36.951Z</time></trkpt><trkpt lat="45.5948867" lon="8.6292217"><ele>239.0</ele><time>2026-04-04T06:13:37.951Z</time></trkpt><trkpt lat="45.594875" lon="8.62904"><ele>239.0</ele><time>2026-04-04T06:13:38.951Z</time></trkpt><trkpt lat="45.5948667" lon="8.6288517"><ele>239.0</ele><time>2026-04-04T06:13:39.951Z</time></trkpt><trkpt lat="45.5948667" lon="8.6286717"><ele>239.0</ele><time>2026-04-04T06:13:40.951Z</time></trkpt><trkpt lat="45.5948683" lon="8.6285117"><ele>239.0</ele><time>2026-04-04T06:13:41.951Z</time></trkpt><trkpt lat="45.594865" lon="8.628335"><ele>238.39999999999998</ele><time>2026-04-04T06:13:42.951Z</time></trkpt><trkpt lat="45.5948567" lon="8.6281733"><ele>237.79999999999998</ele><time>2026-04-04T06:13:43.951Z</time></trkpt><trkpt lat="45.5948467" lon="8.6280233"><ele>237.20000000000002</ele><time>2026-04-04T06:13:44.951Z</time></trkpt><trkpt lat="45.5948417" lon="8.627875"><ele>236.60000000000002</ele><time>2026-04-04T06:13:45.95Z</time></trkpt><trkpt lat="45.594845" lon="8.6277317"><ele>236.0</ele><time>2026-04-04T06:13:46.951Z</time></trkpt><trkpt lat="45.59484" lon="8.6275867"><ele>235.50000000000003</ele><time>2026-04-04T06:13:47.951Z</time></trkpt><trkpt lat="45.59483" lon="8.6274383"><ele>235.0</ele><time>2026-04-04T06:13:48.951Z</time></trkpt><trkpt lat="45.594825" lon="8.62731"><ele>234.5</ele><time>2026-04-04T06:13:49.951Z</time></trkpt><trkpt lat="45.5948217" lon="8.6271917"><ele>234.0</ele><time>2026-04-04T06:13:50.951Z</time></trkpt><trkpt lat="45.594825" lon="8.627085"><ele>233.50000000000003</ele><time>2026-04-04T06:13:51.951Z</time></trkpt><trkpt lat="45.5948283" lon="8.62699"><ele>233.0</ele><time>2026-04-04T06:13:52.951Z</time></trkpt><trkpt lat="45.594835" lon="8.626895"><ele>232.50000000000003</ele><time>2026-04-04T06:13:53.951Z</time></trkpt><trkpt lat="45.594845" lon="8.6267967"><ele>232.0</ele><time>2026-04-04T06:13:54.951Z</time></trkpt><trkpt lat="45.5948767" lon="8.6267133"><ele>231.5</ele><time>2026-04-04T06:13:55.951Z</time></trkpt><trkpt lat="45.594935" lon="8.626645"><ele>231.0</ele><time>2026-04-04T06:13:56.951Z</time></trkpt><trkpt lat="45.5950217" lon="8.626605"><ele>230.50000000000003</ele><time>2026-04-04T06:13:57.951Z</time></trkpt><trkpt lat="45.5951283" lon="8.62659"><ele>230.0</ele><time>2026-04-04T06:13:58.951Z</time></trkpt><trkpt lat="45.595255" lon="8.6265917"><ele>230.0</ele><time>2026-04-04T06:13:59.951Z</time></trkpt><trkpt lat="45.5953983" lon="8.6265917"><ele>230.0</ele><time>2026-04-04T06:14:00.951Z</time></trkpt><trkpt lat="45.5955383" lon="8.6265917"><ele>230.0</ele><time>2026-04-04T06:14:01.951Z</time></trkpt><trkpt lat="45.5956567" lon="8.626595"><ele>230.0</ele><time>2026-04-04T06:14:02.95Z</time></trkpt><trkpt lat="45.5957433" lon="8.6265917"><ele>230.0</ele><time>2026-04-04T06:14:03.951Z</time></trkpt><trkpt lat="45.5958267" lon="8.6265983"><ele>230.0</ele><time>2026-04-04T06:14:04.951Z</time></trkpt><trkpt lat="45.5959033" lon="8.6266133"><ele>230.0</ele><time>2026-04-04T06:14:06.951Z</time></trkpt><trkpt lat="45.5959683" lon="8.6265967"><ele>230.0</ele><time>2026-04-04T06:14:25.951Z</time></trkpt><trkpt lat="45.5960667" lon="8.6265767"><ele>230.0</ele><time>2026-04-04T06:14:26.951Z</time></trkpt><trkpt lat="45.5961983" lon="8.626555"><ele>230.66666666666669</ele><time>2026-04-04T06:14:27.951Z</time></trkpt><trkpt lat="45.5963417" lon="8.626515"><ele>231.33333333333331</ele><time>2026-04-04T06:14:28.951Z</time></trkpt><trkpt lat="45.5964917" lon="8.62646"><ele>232.0</ele><time>2026-04-04T06:14:29.951Z</time></trkpt><trkpt lat="45.5966433" lon="8.6263983"><ele>232.0</ele><time>2026-04-04T06:14:30.951Z</time></trkpt><trkpt lat="45.5967983" lon="8.6263383"><ele>232.0</ele><time>2026-04-04T06:14:31.951Z</time></trkpt><trkpt lat="45.5969533" lon="8.6262783"><ele>232.0</ele><time>2026-04-04T06:14:32.951Z</time></trkpt><trkpt lat="45.5971033" lon="8.6262117"><ele>231.0</ele><time>2026-04-04T06:14:33.951Z</time></trkpt><trkpt lat="45.5972667" lon="8.626155"><ele>230.0</ele><time>2026-04-04T06:14:34.951Z</time></trkpt><trkpt lat="45.5974267" lon="8.6260867"><ele>229.0</ele><time>2026-04-04T06:14:35.951Z</time></trkpt><trkpt lat="45.5975817" lon="8.62602"><ele>228.66666666666666</ele><time>2026-04-04T06:14:36.951Z</time></trkpt><trkpt lat="45.597745" lon="8.625955"><ele>228.33333333333331</ele><time>2026-04-04T06:14:37.951Z</time></trkpt><trkpt lat="45.5979033" lon="8.6258883"><ele>228.0</ele><time>2026-04-04T06:14:38.951Z</time></trkpt><trkpt lat="45.5980533" lon="8.6257983"><ele>228.66666666666669</ele><time>2026-04-04T06:14:39.951Z</time></trkpt><trkpt lat="45.5981883" lon="8.62567"><ele>229.33333333333334</ele><time>2026-04-04T06:14:40.95Z</time></trkpt><trkpt lat="45.5983183" lon="8.6255217"><ele>230.0</ele><time>2026-04-04T06:14:41.951Z</time></trkpt><trkpt lat="45.5984467" lon="8.6253617"><ele>230.0</ele><time>2026-04-04T06:14:42.951Z</time></trkpt><trkpt lat="45.5985967" lon="8.6252333"><ele>230.0</ele><time>2026-04-04T06:14:43.951Z</time></trkpt><trkpt lat="45.5987467" lon="8.6251367"><ele>230.0</ele><time>2026-04-04T06:14:44.951Z</time></trkpt><trkpt lat="45.5989117" lon="8.62505"><ele>231.0</ele><time>2026-04-04T06:14:45.951Z</time></trkpt><trkpt lat="45.5990817" lon="8.6249783"><ele>232.0</ele><time>2026-04-04T06:14:46.951Z</time></trkpt><trkpt lat="45.5992317" lon="8.6249133"><ele>233.0</ele><time>2026-04-04T06:14:47.951Z</time></trkpt><trkpt lat="45.59938" lon="8.624865"><ele>232.75</ele><time>2026-04-04T06:14:48.95Z</time></trkpt><trkpt lat="45.5995117" lon="8.6248083"><ele>232.5</ele><time>2026-04-04T06:14:49.951Z</time></trkpt><trkpt lat="45.5996483" lon="8.6247583"><ele>232.25</ele><time>2026-04-04T06:14:50.951Z</time></trkpt><trkpt lat="45.5997867" lon="8.6247"><ele>232.0</ele><time>2026-04-04T06:14:51.951Z</time></trkpt><trkpt lat="45.59994" lon="8.62464"><ele>232.0</ele><time>2026-04-04T06:14:52.951Z</time></trkpt><trkpt lat="45.60013" lon="8.6245917"><ele>232.0</ele><time>2026-04-04T06:14:53.951Z</time></trkpt><trkpt lat="45.6003" lon="8.6245133"><ele>232.0</ele><time>2026-04-04T06:14:54.95Z</time></trkpt><trkpt lat="45.6004867" lon="8.6244367"><ele>231.66666666666666</ele><time>2026-04-04T06:14:55.951Z</time></trkpt><trkpt lat="45.6006833" lon="8.624355"><ele>231.33333333333331</ele><time>2026-04-04T06:14:56.951Z</time></trkpt><trkpt lat="45.600895" lon="8.62426"><ele>231.0</ele><time>2026-04-04T06:14:57.951Z</time></trkpt><trkpt lat="45.6011133" lon="8.62416"><ele>231.33333333333331</ele><time>2026-04-04T06:14:58.951Z</time></trkpt><trkpt lat="45.6013117" lon="8.6240683"><ele>231.66666666666666</ele><time>2026-04-04T06:14:59.951Z</time></trkpt><trkpt lat="45.60149" lon="8.6239883"><ele>232.0</ele><time>2026-04-04T06:15:00.951Z</time></trkpt><trkpt lat="45.601675" lon="8.6239"><ele>232.0</ele><time>2026-04-04T06:15:01.951Z</time></trkpt><trkpt lat="45.601875" lon="8.6238117"><ele>232.0</ele><time>2026-04-04T06:15:02.951Z</time></trkpt><trkpt lat="45.60209" lon="8.623715"><ele>232.0</ele><time>2026-04-04T06:15:03.951Z</time></trkpt><trkpt lat="45.6023067" lon="8.6236133"><ele>232.0</ele><time>2026-04-04T06:15:04.951Z</time></trkpt><trkpt lat="45.6025233" lon="8.62351"><ele>232.0</ele><time>2026-04-04T06:15:05.951Z</time></trkpt><trkpt lat="45.602745" lon="8.6234133"><ele>231.5</ele><time>2026-04-04T06:15:06.951Z</time></trkpt><trkpt lat="45.6029717" lon="8.6233067"><ele>231.0</ele><time>2026-04-04T06:15:07.951Z</time></trkpt><trkpt lat="45.6031983" lon="8.6232067"><ele>231.0</ele><time>2026-04-04T06:15:08.951Z</time></trkpt><trkpt lat="45.6034317" lon="8.6231067"><ele>231.0</ele><time>2026-04-04T06:15:09.951Z</time></trkpt><trkpt lat="45.6036767" lon="8.623005"><ele>231.5</ele><time>2026-04-04T06:15:10.951Z</time></trkpt><trkpt lat="45.6039283" lon="8.6228967"><ele>232.0</ele><time>2026-04-04T06:15:11.951Z</time></trkpt><trkpt lat="45.60419" lon="8.6227917"><ele>232.0</ele><time>2026-04-04T06:15:12.95Z</time></trkpt><trkpt lat="45.6044583" lon="8.6226817"><ele>232.0</ele><time>2026-04-04T06:15:13.951Z</time></trkpt><trkpt lat="45.604725" lon="8.6225683"><ele>233.0</ele><time>2026-04-04T06:15:14.951Z</time></trkpt><trkpt lat="45.6049917" lon="8.62246"><ele>234.0</ele><time>2026-04-04T06:15:15.951Z</time></trkpt><trkpt lat="45.60526" lon="8.622345"><ele>233.5</ele><time>2026-04-04T06:15:16.951Z</time></trkpt><trkpt lat="45.6055283" lon="8.622235"><ele>233.0</ele><time>2026-04-04T06:15:17.951Z</time></trkpt><trkpt lat="45.6057967" lon="8.622125"><ele>233.0</ele><time>2026-04-04T06:15:18.951Z</time></trkpt><trkpt lat="45.6060617" lon="8.6220117"><ele>233.0</ele><time>2026-04-04T06:15:19.951Z</time></trkpt><trkpt lat="45.6063283" lon="8.6218883"><ele>234.0</ele><time>2026-04-04T06:15:20.951Z</time></trkpt><trkpt lat="45.6065867" lon="8.6217517"><ele>235.0</ele><time>2026-04-04T06:15:21.951Z</time></trkpt><trkpt lat="45.6068417" lon="8.6215983"><ele>235.0</ele><time>2026-04-04T06:15:22.951Z</time></trkpt><trkpt lat="45.6071" lon="8.6214383"><ele>235.0</ele><time>2026-04-04T06:15:23.951Z</time></trkpt><trkpt lat="45.6073483" lon="8.6212783"><ele>235.0</ele><time>2026-04-04T06:15:24.951Z</time></trkpt><trkpt lat="45.6075967" lon="8.6211233"><ele>235.0</ele><time>2026-04-04T06:15:25.951Z</time></trkpt><trkpt lat="45.6078567" lon="8.6209783"><ele>235.0</ele><time>2026-04-04T06:15:26.951Z</time></trkpt><trkpt lat="45.6081217" lon="8.620845"><ele>235.0</ele><time>2026-04-04T06:15:27.951Z</time></trkpt><trkpt lat="45.608395" lon="8.62072"><ele>235.0</ele><time>2026-04-04T06:15:28.951Z</time></trkpt><trkpt lat="45.6086633" lon="8.6205917"><ele>235.0</ele><time>2026-04-04T06:15:29.951Z</time></trkpt><trkpt lat="45.608935" lon="8.6204683"><ele>235.0</ele><time>2026-04-04T06:15:30.951Z</time></trkpt><trkpt lat="45.6092" lon="8.62035"><ele>235.0</ele><time>2026-04-04T06:15:31.951Z</time></trkpt><trkpt lat="45.6094483" lon="8.6202417"><ele>235.5</ele><time>2026-04-04T06:15:32.95Z</time></trkpt><trkpt lat="45.60968" lon="8.620145"><ele>236.0</ele><time>2026-04-04T06:15:33.951Z</time></trkpt><trkpt lat="45.6098917" lon="8.6200467"><ele>236.0</ele><time>2026-04-04T06:15:34.951Z</time></trkpt><trkpt lat="45.6100933" lon="8.6199433"><ele>236.0</ele><time>2026-04-04T06:15:35.951Z</time></trkpt><trkpt lat="45.610285" lon="8.6198167"><ele>236.0</ele><time>2026-04-04T06:15:36.951Z</time></trkpt><trkpt lat="45.6104667" lon="8.6196583"><ele>236.0</ele><time>2026-04-04T06:15:37.951Z</time></trkpt><trkpt lat="45.6106367" lon="8.6194783"><ele>236.0</ele><time>2026-04-04T06:15:38.951Z</time></trkpt><trkpt lat="45.6108017" lon="8.6192633"><ele>236.0</ele><time>2026-04-04T06:15:39.95Z</time></trkpt><trkpt lat="45.610965" lon="8.6190283"><ele>236.0</ele><time>2026-04-04T06:15:40.951Z</time></trkpt><trkpt lat="45.611125" lon="8.61878"><ele>236.0</ele><time>2026-04-04T06:15:41.951Z</time></trkpt><trkpt lat="45.6112883" lon="8.6185183"><ele>236.5</ele><time>2026-04-04T06:15:42.951Z</time></trkpt><trkpt lat="45.6114533" lon="8.6182567"><ele>237.0</ele><time>2026-04-04T06:15:43.951Z</time></trkpt><trkpt lat="45.61162" lon="8.6179983"><ele>237.5</ele><time>2026-04-04T06:15:44.951Z</time></trkpt><trkpt lat="45.6118017" lon="8.617725"><ele>238.0</ele><time>2026-04-04T06:15:45.951Z</time></trkpt><trkpt lat="45.6119883" lon="8.617445"><ele>238.5</ele><time>2026-04-04T06:15:46.951Z</time></trkpt><trkpt lat="45.61217" lon="8.6171667"><ele>239.0</ele><time>2026-04-04T06:15:47.951Z</time></trkpt><trkpt lat="45.6123433" lon="8.6168817"><ele>239.5</ele><time>2026-04-04T06:15:48.951Z</time></trkpt><trkpt lat="45.6125183" lon="8.6166033"><ele>240.0</ele><time>2026-04-04T06:15:49.95Z</time></trkpt><trkpt lat="45.612695" lon="8.6163183"><ele>239.5</ele><time>2026-04-04T06:15:50.951Z</time></trkpt><trkpt lat="45.61287" lon="8.6160417"><ele>239.0</ele><time>2026-04-04T06:15:51.951Z</time></trkpt><trkpt lat="45.61305" lon="8.6157683"><ele>239.0</ele><time>2026-04-04T06:15:52.951Z</time></trkpt><trkpt lat="45.6132283" lon="8.61549"><ele>239.0</ele><time>2026-04-04T06:15:53.95Z</time></trkpt><trkpt lat="45.613405" lon="8.6152117"><ele>239.5</ele><time>2026-04-04T06:15:54.951Z</time></trkpt><trkpt lat="45.613585" lon="8.614935"><ele>240.0</ele><time>2026-04-04T06:15:55.951Z</time></trkpt><trkpt lat="45.6137617" lon="8.6146483"><ele>240.0</ele><time>2026-04-04T06:15:56.951Z</time></trkpt><trkpt lat="45.6139417" lon="8.6143683"><ele>240.0</ele><time>2026-04-04T06:15:57.951Z</time></trkpt><trkpt lat="45.6141217" lon="8.6141017"><ele>240.0</ele><time>2026-04-04T06:15:58.951Z</time></trkpt><trkpt lat="45.6143017" lon="8.6138283"><ele>240.0</ele><time>2026-04-04T06:15:59.951Z</time></trkpt><trkpt lat="45.6144767" lon="8.613555"><ele>239.5</ele><time>2026-04-04T06:16:00.951Z</time></trkpt><trkpt lat="45.61465" lon="8.6132883"><ele>239.0</ele><time>2026-04-04T06:16:01.951Z</time></trkpt><trkpt lat="45.6148217" lon="8.61303"><ele>239.0</ele><time>2026-04-04T06:16:02.951Z</time></trkpt><trkpt lat="45.6149817" lon="8.612795"><ele>239.0</ele><time>2026-04-04T06:16:03.951Z</time></trkpt><trkpt lat="45.61515" lon="8.6126083"><ele>239.0</ele><time>2026-04-04T06:16:04.951Z</time></trkpt><trkpt lat="45.6153283" lon="8.6124433"><ele>239.33333333333334</ele><time>2026-04-04T06:16:05.95Z</time></trkpt><trkpt lat="45.6155117" lon="8.612305"><ele>239.66666666666669</ele><time>2026-04-04T06:16:06.951Z</time></trkpt><trkpt lat="45.615705" lon="8.6121567"><ele>240.0</ele><time>2026-04-04T06:16:07.951Z</time></trkpt><trkpt lat="45.6158967" lon="8.6120033"><ele>240.0</ele><time>2026-04-04T06:16:08.951Z</time></trkpt><trkpt lat="45.61609" lon="8.6118517"><ele>240.0</ele><time>2026-04-04T06:16:09.951Z</time></trkpt><trkpt lat="45.6162733" lon="8.6117067"><ele>240.0</ele><time>2026-04-04T06:16:10.951Z</time></trkpt><trkpt lat="45.616445" lon="8.61158"><ele>240.0</ele><time>2026-04-04T06:16:11.951Z</time></trkpt><trkpt lat="45.616605" lon="8.6114567"><ele>240.0</ele><time>2026-04-04T06:16:12.951Z</time></trkpt><trkpt lat="45.6167567" lon="8.6113533"><ele>240.0</ele><time>2026-04-04T06:16:13.951Z</time></trkpt><trkpt lat="45.6169067" lon="8.61126"><ele>240.5</ele><time>2026-04-04T06:16:14.951Z</time></trkpt><trkpt lat="45.61705" lon="8.6111817"><ele>241.0</ele><time>2026-04-04T06:16:15.951Z</time></trkpt><trkpt lat="45.6171767" lon="8.6111183"><ele>241.5</ele><time>2026-04-04T06:16:16.951Z</time></trkpt><trkpt lat="45.6172833" lon="8.6110583"><ele>242.0</ele><time>2026-04-04T06:16:17.95Z</time></trkpt><trkpt lat="45.6173767" lon="8.611015"><ele>242.00000000000003</ele><time>2026-04-04T06:16:18.951Z</time></trkpt><trkpt lat="45.617465" lon="8.610995"><ele>242.0</ele><time>2026-04-04T06:16:19.951Z</time></trkpt><trkpt lat="45.6175533" lon="8.6109833"><ele>242.0</ele><time>2026-04-04T06:16:20.951Z</time></trkpt><trkpt lat="45.61762" lon="8.610975"><ele>242.0</ele><time>2026-04-04T06:16:21.951Z</time></trkpt><trkpt lat="45.617685" lon="8.61084"><ele>242.00000000000003</ele><time>2026-04-04T06:16:23.951Z</time></trkpt><trkpt lat="45.6176767" lon="8.610715"><ele>242.0</ele><time>2026-04-04T06:16:24.951Z</time></trkpt><trkpt lat="45.6176617" lon="8.6105767"><ele>242.0</ele><time>2026-04-04T06:16:25.95Z</time></trkpt><trkpt lat="45.6176367" lon="8.6104017"><ele>242.0</ele><time>2026-04-04T06:16:26.951Z</time></trkpt><trkpt lat="45.617605" lon="8.6102083"><ele>242.0</ele><time>2026-04-04T06:16:27.95Z</time></trkpt><trkpt lat="45.6175717" lon="8.61"><ele>242.0</ele><time>2026-04-04T06:16:28.951Z</time></trkpt><trkpt lat="45.61753" lon="8.60979"><ele>242.0</ele><time>2026-04-04T06:16:29.95Z</time></trkpt><trkpt lat="45.6174933" lon="8.60957"><ele>242.0</ele><time>2026-04-04T06:16:30.951Z</time></trkpt><trkpt lat="45.6174583" lon="8.6093417"><ele>242.0</ele><time>2026-04-04T06:16:31.951Z</time></trkpt><trkpt lat="45.617445" lon="8.6091"><ele>242.0</ele><time>2026-04-04T06:16:32.951Z</time></trkpt><trkpt lat="45.6174533" lon="8.6088583"><ele>242.0</ele><time>2026-04-04T06:16:33.951Z</time></trkpt><trkpt lat="45.617465" lon="8.6086283"><ele>242.0</ele><time>2026-04-04T06:16:34.951Z</time></trkpt><trkpt lat="45.6174817" lon="8.6083967"><ele>242.5</ele><time>2026-04-04T06:16:35.951Z</time></trkpt><trkpt lat="45.617495" lon="8.608175"><ele>243.0</ele><time>2026-04-04T06:16:36.951Z</time></trkpt><trkpt lat="45.6175083" lon="8.60797"><ele>243.5</ele><time>2026-04-04T06:16:37.951Z</time></trkpt><trkpt lat="45.6175283" lon="8.6077867"><ele>244.0</ele><time>2026-04-04T06:16:38.951Z</time></trkpt><trkpt lat="45.617555" lon="8.6076083"><ele>244.6</ele><time>2026-04-04T06:16:39.951Z</time></trkpt><trkpt lat="45.61758" lon="8.607435"><ele>245.2</ele><time>2026-04-04T06:16:40.951Z</time></trkpt><trkpt lat="45.6176033" lon="8.6072833"><ele>245.79999999999998</ele><time>2026-04-04T06:16:41.951Z</time></trkpt><trkpt lat="45.6176233" lon="8.60714"><ele>246.39999999999998</ele><time>2026-04-04T06:16:42.951Z</time></trkpt><trkpt lat="45.6176433" lon="8.607015"><ele>247.0</ele><time>2026-04-04T06:16:43.95Z</time></trkpt><trkpt lat="45.617655" lon="8.60689"><ele>247.6</ele><time>2026-04-04T06:16:44.951Z</time></trkpt><trkpt lat="45.6176567" lon="8.6067383"><ele>248.2</ele><time>2026-04-04T06:16:45.95Z</time></trkpt><trkpt lat="45.6176517" lon="8.6065817"><ele>248.8</ele><time>2026-04-04T06:16:46.951Z</time></trkpt><trkpt lat="45.61766" lon="8.6064267"><ele>249.4</ele><time>2026-04-04T06:16:47.951Z</time></trkpt><trkpt lat="45.6176717" lon="8.6062817"><ele>250.0</ele><time>2026-04-04T06:16:48.951Z</time></trkpt><trkpt lat="45.61771" lon="8.6061617"><ele>250.0</ele><time>2026-04-04T06:16:49.951Z</time></trkpt><trkpt lat="45.6177617" lon="8.6060683"><ele>250.0</ele><time>2026-04-04T06:16:50.951Z</time></trkpt><trkpt lat="45.6178333" lon="8.6060033"><ele>250.0</ele><time>2026-04-04T06:16:51.951Z</time></trkpt><trkpt lat="45.61792" lon="8.6059483"><ele>250.0</ele><time>2026-04-04T06:16:52.95Z</time></trkpt><trkpt lat="45.6180133" lon="8.6059033"><ele>250.0</ele><time>2026-04-04T06:16:53.95Z</time></trkpt><trkpt lat="45.6181083" lon="8.6058617"><ele>250.2</ele><time>2026-04-04T06:16:54.951Z</time></trkpt><trkpt lat="45.61822" lon="8.6058417"><ele>250.4</ele><time>2026-04-04T06:16:55.951Z</time></trkpt><trkpt lat="45.6183317" lon="8.6058433"><ele>250.60000000000002</ele><time>2026-04-04T06:16:56.951Z</time></trkpt><trkpt lat="45.6184383" lon="8.605825"><ele>250.8</ele><time>2026-04-04T06:16:57.951Z</time></trkpt><trkpt lat="45.61853" lon="8.6058133"><ele>251.0</ele><time>2026-04-04T06:16:58.951Z</time></trkpt><trkpt lat="45.6186" lon="8.6058017"><ele>251.33333333333334</ele><time>2026-04-04T06:16:59.951Z</time></trkpt><trkpt lat="45.6186833" lon="8.6057917"><ele>251.66666666666669</ele><time>2026-04-04T06:17:00.951Z</time></trkpt><trkpt lat="45.6187767" lon="8.6057783"><ele>252.0</ele><time>2026-04-04T06:17:01.951Z</time></trkpt><trkpt lat="45.6188617" lon="8.60576"><ele>252.33333333333331</ele><time>2026-04-04T06:17:02.951Z</time></trkpt><trkpt lat="45.6189633" lon="8.6057233"><ele>252.66666666666666</ele><time>2026-04-04T06:17:03.951Z</time></trkpt><trkpt lat="45.6190417" lon="8.6057117"><ele>253.0</ele><time>2026-04-04T06:17:04.951Z</time></trkpt><trkpt lat="45.6191167" lon="8.605695"><ele>253.00000000000003</ele><time>2026-04-04T06:17:05.95Z</time></trkpt><trkpt lat="45.619195" lon="8.6056817"><ele>253.0</ele><time>2026-04-04T06:17:06.95Z</time></trkpt><trkpt lat="45.61926" lon="8.6056617"><ele>253.00000000000003</ele><time>2026-04-04T06:17:07.951Z</time></trkpt><trkpt lat="45.6193317" lon="8.60565"><ele>253.00000000000003</ele><time>2026-04-04T06:17:08.951Z</time></trkpt><trkpt lat="45.6193983" lon="8.6056433"><ele>253.0</ele><time>2026-04-04T06:17:09.95Z</time></trkpt><trkpt lat="45.6194633" lon="8.6056583"><ele>253.00000000000003</ele><time>2026-04-04T06:17:10.951Z</time></trkpt><trkpt lat="45.6195283" lon="8.6056567"><ele>253.00000000000003</ele><time>2026-04-04T06:17:11.951Z</time></trkpt><trkpt lat="45.6195917" lon="8.60565"><ele>253.0</ele><time>2026-04-04T06:17:12.951Z</time></trkpt><trkpt lat="45.619715" lon="8.6056183"><ele>253.0</ele><time>2026-04-04T06:17:14.95Z</time></trkpt><trkpt lat="45.6198233" lon="8.6055767"><ele>253.0</ele><time>2026-04-04T06:17:16.951Z</time></trkpt><trkpt lat="45.61991" lon="8.60556"><ele>253.0</ele><time>2026-04-04T06:17:18.951Z</time></trkpt><trkpt lat="45.61999" lon="8.6055033"><ele>253.0</ele><time>2026-04-04T06:17:21.951Z</time></trkpt><trkpt lat="45.6200517" lon="8.6053917"><ele>253.4</ele><time>2026-04-04T06:17:23.951Z</time></trkpt><trkpt lat="45.6201" lon="8.6052067"><ele>253.8</ele><time>2026-04-04T06:17:25.951Z</time></trkpt><trkpt lat="45.620125" lon="8.6051233"><ele>254.2</ele><time>2026-04-04T06:17:26.951Z</time></trkpt><trkpt lat="45.6201567" lon="8.6049717"><ele>254.6</ele><time>2026-04-04T06:17:28.951Z</time></trkpt><trkpt lat="45.6202183" lon="8.6048433"><ele>255.0</ele><time>2026-04-04T06:17:30.951Z</time></trkpt><trkpt lat="45.6204033" lon="8.6046333"><ele>255.33333333333334</ele><time>2026-04-04T06:17:34.951Z</time></trkpt><trkpt lat="45.6204933" lon="8.60457"><ele>255.66666666666669</ele><time>2026-04-04T06:17:36.951Z</time></trkpt><trkpt lat="45.620575" lon="8.60452"><ele>256.0</ele><time>2026-04-04T06:17:39.951Z</time></trkpt><trkpt lat="45.6206433" lon="8.6044933"><ele>256.33333333333337</ele><time>2026-04-04T06:17:42.951Z</time></trkpt><trkpt lat="45.62071" lon="8.60444"><ele>256.6666666666667</ele><time>2026-04-04T06:17:44.951Z</time></trkpt><trkpt lat="45.6207717" lon="8.6044033"><ele>257.0</ele><time>2026-04-04T06:17:46.951Z</time></trkpt><trkpt lat="45.6208083" lon="8.60429"><ele>257.0</ele><time>2026-04-04T06:17:49.951Z</time></trkpt><trkpt lat="45.62079" lon="8.6040867"><ele>257.0</ele><time>2026-04-04T06:17:52.951Z</time></trkpt><trkpt lat="45.62078" lon="8.6039283"><ele>257.0</ele><time>2026-04-04T06:17:54.951Z</time></trkpt><trkpt lat="45.6208317" lon="8.6038283"><ele>257.0</ele><time>2026-04-04T06:17:56.95Z</time></trkpt><trkpt lat="45.6208833" lon="8.60377"><ele>257.0</ele><time>2026-04-04T06:17:57.951Z</time></trkpt><trkpt lat="45.62105" lon="8.6036267"><ele>256.33333333333337</ele><time>2026-04-04T06:17:59.951Z</time></trkpt><trkpt lat="45.6211833" lon="8.6035417"><ele>255.66666666666669</ele><time>2026-04-04T06:18:00.951Z</time></trkpt><trkpt lat="45.6213883" lon="8.603465"><ele>255.0</ele><time>2026-04-04T06:18:01.951Z</time></trkpt><trkpt lat="45.6215667" lon="8.6033883"><ele>255.0</ele><time>2026-04-04T06:18:02.951Z</time></trkpt><trkpt lat="45.6217317" lon="8.603325"><ele>255.0</ele><time>2026-04-04T06:18:03.951Z</time></trkpt><trkpt lat="45.6218717" lon="8.60327"><ele>255.0</ele><time>2026-04-04T06:18:04.95Z</time></trkpt><trkpt lat="45.62232" lon="8.6030633"><ele>254.5</ele><time>2026-04-04T06:18:07.951Z</time></trkpt><trkpt lat="45.622625" lon="8.6029"><ele>254.0</ele><time>2026-04-04T06:18:09.951Z</time></trkpt><trkpt lat="45.6232" lon="8.6024833"><ele>254.0</ele><time>2026-04-04T06:18:13.951Z</time></trkpt><trkpt lat="45.6234617" lon="8.6022433"><ele>254.0</ele><time>2026-04-04T06:18:15.951Z</time></trkpt><trkpt lat="45.623595" lon="8.60213"><ele>254.6</ele><time>2026-04-04T06:18:16.951Z</time></trkpt><trkpt lat="45.6237" lon="8.6020433"><ele>255.2</ele><time>2026-04-04T06:18:17.951Z</time></trkpt><trkpt lat="45.6237783" lon="8.6019833"><ele>255.79999999999998</ele><time>2026-04-04T06:18:18.951Z</time></trkpt><trkpt lat="45.62384" lon="8.6018983"><ele>256.4</ele><time>2026-04-04T06:18:19.951Z</time></trkpt><trkpt lat="45.6238683" lon="8.6017817"><ele>257.0</ele><time>2026-04-04T06:18:20.951Z</time></trkpt><trkpt lat="45.62387" lon="8.6016333"><ele>257.0</ele><time>2026-04-04T06:18:21.951Z</time></trkpt><trkpt lat="45.6238633" lon="8.6014833"><ele>257.0</ele><time>2026-04-04T06:18:22.951Z</time></trkpt><trkpt lat="45.6238567" lon="8.6013367"><ele>257.0</ele><time>2026-04-04T06:18:23.951Z</time></trkpt><trkpt lat="45.62386" lon="8.6012067"><ele>257.0</ele><time>2026-04-04T06:18:24.951Z</time></trkpt><trkpt lat="45.623885" lon="8.601085"><ele>257.0</ele><time>2026-04-04T06:18:25.951Z</time></trkpt><trkpt lat="45.623945" lon="8.6009733"><ele>256.75</ele><time>2026-04-04T06:18:26.951Z</time></trkpt><trkpt lat="45.62403" lon="8.60087"><ele>256.5</ele><time>2026-04-04T06:18:27.95Z</time></trkpt><trkpt lat="45.6241483" lon="8.6007767"><ele>256.25</ele><time>2026-04-04T06:18:28.951Z</time></trkpt><trkpt lat="45.624275" lon="8.600675"><ele>256.0</ele><time>2026-04-04T06:18:29.951Z</time></trkpt><trkpt lat="45.6244033" lon="8.6005683"><ele>256.75</ele><time>2026-04-04T06:18:30.951Z</time></trkpt><trkpt lat="45.624525" lon="8.6004517"><ele>257.5</ele><time>2026-04-04T06:18:31.951Z</time></trkpt><trkpt lat="45.6246167" lon="8.6003083"><ele>258.25</ele><time>2026-04-04T06:18:32.951Z</time></trkpt><trkpt lat="45.624695" lon="8.6001333"><ele>259.0</ele><time>2026-04-04T06:18:33.95Z</time></trkpt><trkpt lat="45.6247467" lon="8.5999217"><ele>259.0</ele><time>2026-04-04T06:18:34.951Z</time></trkpt><trkpt lat="45.624785" lon="8.5996867"><ele>259.0</ele><time>2026-04-04T06:18:35.951Z</time></trkpt><trkpt lat="45.6248167" lon="8.5994217"><ele>259.0</ele><time>2026-04-04T06:18:36.951Z</time></trkpt><trkpt lat="45.624855" lon="8.599135"><ele>259.3333333333333</ele><time>2026-04-04T06:18:37.951Z</time></trkpt><trkpt lat="45.6248983" lon="8.5988467"><ele>259.6666666666667</ele><time>2026-04-04T06:18:38.951Z</time></trkpt><trkpt lat="45.62494" lon="8.5985567"><ele>260.0</ele><time>2026-04-04T06:18:39.951Z</time></trkpt><trkpt lat="45.62499" lon="8.59826"><ele>260.6666666666667</ele><time>2026-04-04T06:18:40.951Z</time></trkpt><trkpt lat="45.6250467" lon="8.597965"><ele>261.3333333333333</ele><time>2026-04-04T06:18:41.951Z</time></trkpt><trkpt lat="45.6250917" lon="8.5976583"><ele>262.0</ele><time>2026-04-04T06:18:42.951Z</time></trkpt><trkpt lat="45.6251417" lon="8.5973567"><ele>263.0</ele><time>2026-04-04T06:18:43.951Z</time></trkpt><trkpt lat="45.62519" lon="8.5970567"><ele>264.0</ele><time>2026-04-04T06:18:44.951Z</time></trkpt><trkpt lat="45.6252383" lon="8.5967517"><ele>265.0</ele><time>2026-04-04T06:18:45.951Z</time></trkpt><trkpt lat="45.625295" lon="8.5964517"><ele>270.3333333333333</ele><time>2026-04-04T06:18:46.951Z</time></trkpt><trkpt lat="45.625345" lon="8.5961433"><ele>275.6666666666667</ele><time>2026-04-04T06:18:47.951Z</time></trkpt><trkpt lat="45.6253933" lon="8.5958467"><ele>281.0</ele><time>2026-04-04T06:18:48.951Z</time></trkpt><trkpt lat="45.62543" lon="8.5955717"><ele>281.5</ele><time>2026-04-04T06:18:49.951Z</time></trkpt><trkpt lat="45.6254717" lon="8.5953333"><ele>282.0</ele><time>2026-04-04T06:18:50.951Z</time></trkpt><trkpt lat="45.625505" lon="8.5951333"><ele>282.5</ele><time>2026-04-04T06:18:51.951Z</time></trkpt><trkpt lat="45.6255333" lon="8.59498"><ele>283.0</ele><time>2026-04-04T06:18:52.951Z</time></trkpt><trkpt lat="45.6255667" lon="8.5948417"><ele>283.0</ele><time>2026-04-04T06:18:53.95Z</time></trkpt><trkpt lat="45.6256083" lon="8.5947283"><ele>283.0</ele><time>2026-04-04T06:18:54.951Z</time></trkpt><trkpt lat="45.6256833" lon="8.5946317"><ele>283.0</ele><time>2026-04-04T06:18:55.951Z</time></trkpt><trkpt lat="45.625765" lon="8.59454"><ele>283.0</ele><time>2026-04-04T06:18:56.951Z</time></trkpt><trkpt lat="45.6258383" lon="8.5944267"><ele>283.0</ele><time>2026-04-04T06:18:57.95Z</time></trkpt><trkpt lat="45.625875" lon="8.59428"><ele>283.0</ele><time>2026-04-04T06:18:58.951Z</time></trkpt><trkpt lat="45.62588" lon="8.5941083"><ele>283.0</ele><time>2026-04-04T06:18:59.951Z</time></trkpt><trkpt lat="45.625865" lon="8.5939033"><ele>283.0</ele><time>2026-04-04T06:19:00.951Z</time></trkpt><trkpt lat="45.6258533" lon="8.5936983"><ele>283.0</ele><time>2026-04-04T06:19:01.951Z</time></trkpt><trkpt lat="45.6258383" lon="8.5934717"><ele>283.0</ele><time>2026-04-04T06:19:02.951Z</time></trkpt><trkpt lat="45.6258233" lon="8.593255"><ele>283.0</ele><time>2026-04-04T06:19:03.951Z</time></trkpt><trkpt lat="45.6258167" lon="8.5930633"><ele>283.0</ele><time>2026-04-04T06:19:04.951Z</time></trkpt><trkpt lat="45.6258367" lon="8.592885"><ele>283.0</ele><time>2026-04-04T06:19:05.951Z</time></trkpt><trkpt lat="45.6258817" lon="8.5927317"><ele>282.75</ele><time>2026-04-04T06:19:06.951Z</time></trkpt><trkpt lat="45.6259633" lon="8.5925917"><ele>282.5</ele><time>2026-04-04T06:19:07.951Z</time></trkpt><trkpt lat="45.6260733" lon="8.5924683"><ele>282.25</ele><time>2026-04-04T06:19:08.951Z</time></trkpt><trkpt lat="45.6261817" lon="8.5923767"><ele>282.0</ele><time>2026-04-04T06:19:09.95Z</time></trkpt><trkpt lat="45.626275" lon="8.5922883"><ele>282.0</ele><time>2026-04-04T06:19:10.951Z</time></trkpt><trkpt lat="45.626335" lon="8.5921767"><ele>282.0</ele><time>2026-04-04T06:19:11.951Z</time></trkpt><trkpt lat="45.6263483" lon="8.592025"><ele>282.0</ele><time>2026-04-04T06:19:12.951Z</time></trkpt><trkpt lat="45.62634" lon="8.5918433"><ele>282.0</ele><time>2026-04-04T06:19:13.951Z</time></trkpt><trkpt lat="45.6263167" lon="8.5916383"><ele>281.5</ele><time>2026-04-04T06:19:14.951Z</time></trkpt><trkpt lat="45.62631" lon="8.5914283"><ele>281.0</ele><time>2026-04-04T06:19:15.951Z</time></trkpt><trkpt lat="45.6263117" lon="8.5912167"><ele>280.5</ele><time>2026-04-04T06:19:16.95Z</time></trkpt><trkpt lat="45.626315" lon="8.591015"><ele>280.0</ele><time>2026-04-04T06:19:17.951Z</time></trkpt><trkpt lat="45.626355" lon="8.5908417"><ele>282.0</ele><time>2026-04-04T06:19:18.951Z</time></trkpt><trkpt lat="45.62641" lon="8.590645"><ele>284.0</ele><time>2026-04-04T06:19:19.951Z</time></trkpt><trkpt lat="45.6264767" lon="8.590445"><ele>286.0</ele><time>2026-04-04T06:19:20.951Z</time></trkpt><trkpt lat="45.626525" lon="8.590225"><ele>287.3333333333333</ele><time>2026-04-04T06:19:21.951Z</time></trkpt><trkpt lat="45.6265833" lon="8.5899983"><ele>288.6666666666667</ele><time>2026-04-04T06:19:22.951Z</time></trkpt><trkpt lat="45.626635" lon="8.58976"><ele>290.0</ele><time>2026-04-04T06:19:23.951Z</time></trkpt><trkpt lat="45.6266867" lon="8.5894967"><ele>290.33333333333337</ele><time>2026-04-04T06:19:24.951Z</time></trkpt><trkpt lat="45.6267283" lon="8.589225"><ele>290.6666666666667</ele><time>2026-04-04T06:19:25.951Z</time></trkpt><trkpt lat="45.6267667" lon="8.58894"><ele>291.0</ele><time>2026-04-04T06:19:26.951Z</time></trkpt><trkpt lat="45.6268083" lon="8.5886417"><ele>290.0</ele><time>2026-04-04T06:19:27.951Z</time></trkpt><trkpt lat="45.6268483" lon="8.58837"><ele>289.0</ele><time>2026-04-04T06:19:28.951Z</time></trkpt><trkpt lat="45.6268833" lon="8.5880983"><ele>288.0</ele><time>2026-04-04T06:19:29.951Z</time></trkpt><trkpt lat="45.6269083" lon="8.5878633"><ele>288.25</ele><time>2026-04-04T06:19:30.951Z</time></trkpt><trkpt lat="45.6269317" lon="8.5876533"><ele>288.5</ele><time>2026-04-04T06:19:31.951Z</time></trkpt><trkpt lat="45.62697" lon="8.5874817"><ele>288.75</ele><time>2026-04-04T06:19:32.951Z</time></trkpt><trkpt lat="45.6270283" lon="8.5873617"><ele>289.0</ele><time>2026-04-04T06:19:33.951Z</time></trkpt><trkpt lat="45.627105" lon="8.5872883"><ele>289.25</ele><time>2026-04-04T06:19:34.951Z</time></trkpt><trkpt lat="45.6272033" lon="8.5872583"><ele>289.5</ele><time>2026-04-04T06:19:35.951Z</time></trkpt><trkpt lat="45.62732" lon="8.5872617"><ele>289.75</ele><time>2026-04-04T06:19:36.951Z</time></trkpt><trkpt lat="45.6274483" lon="8.5872717"><ele>290.0</ele><time>2026-04-04T06:19:37.951Z</time></trkpt><trkpt lat="45.627575" lon="8.5872633"><ele>290.0</ele><time>2026-04-04T06:19:38.951Z</time></trkpt><trkpt lat="45.6276917" lon="8.587245"><ele>290.0</ele><time>2026-04-04T06:19:39.95Z</time></trkpt><trkpt lat="45.627785" lon="8.5871933"><ele>290.0</ele><time>2026-04-04T06:19:40.951Z</time></trkpt><trkpt lat="45.62788" lon="8.5870983"><ele>290.0</ele><time>2026-04-04T06:19:41.95Z</time></trkpt><trkpt lat="45.6279767" lon="8.5869533"><ele>290.5</ele><time>2026-04-04T06:19:42.951Z</time></trkpt><trkpt lat="45.6280667" lon="8.586805"><ele>291.0</ele><time>2026-04-04T06:19:43.951Z</time></trkpt><trkpt lat="45.6281333" lon="8.5866433"><ele>291.5</ele><time>2026-04-04T06:19:44.951Z</time></trkpt><trkpt lat="45.6281717" lon="8.58646"><ele>292.0</ele><time>2026-04-04T06:19:45.951Z</time></trkpt><trkpt lat="45.6282017" lon="8.586275"><ele>290.25</ele><time>2026-04-04T06:19:46.951Z</time></trkpt><trkpt lat="45.628185" lon="8.586095"><ele>288.5</ele><time>2026-04-04T06:19:47.951Z</time></trkpt><trkpt lat="45.62815" lon="8.585915"><ele>286.75</ele><time>2026-04-04T06:19:48.951Z</time></trkpt><trkpt lat="45.6280867" lon="8.5857"><ele>285.0</ele><time>2026-04-04T06:19:49.951Z</time></trkpt><trkpt lat="45.628025" lon="8.5854683"><ele>283.0</ele><time>2026-04-04T06:19:50.951Z</time></trkpt><trkpt lat="45.62797" lon="8.585245"><ele>281.0</ele><time>2026-04-04T06:19:51.951Z</time></trkpt><trkpt lat="45.62791" lon="8.58504"><ele>279.0</ele><time>2026-04-04T06:19:52.951Z</time></trkpt><trkpt lat="45.6278567" lon="8.5848383"><ele>277.75</ele><time>2026-04-04T06:19:53.951Z</time></trkpt><trkpt lat="45.6278083" lon="8.5846333"><ele>276.5</ele><time>2026-04-04T06:19:54.951Z</time></trkpt><trkpt lat="45.6277633" lon="8.5844367"><ele>275.25</ele><time>2026-04-04T06:19:55.951Z</time></trkpt><trkpt lat="45.62772" lon="8.5842367"><ele>274.0</ele><time>2026-04-04T06:19:56.951Z</time></trkpt><trkpt lat="45.6276883" lon="8.5840517"><ele>272.59999999999997</ele><time>2026-04-04T06:19:57.951Z</time></trkpt><trkpt lat="45.627655" lon="8.5838917"><ele>271.2</ele><time>2026-04-04T06:19:58.951Z</time></trkpt><trkpt lat="45.6276283" lon="8.58373"><ele>269.79999999999995</ele><time>2026-04-04T06:19:59.951Z</time></trkpt><trkpt lat="45.627655" lon="8.58361"><ele>268.4</ele><time>2026-04-04T06:20:00.951Z</time></trkpt><trkpt lat="45.6276917" lon="8.5834733"><ele>267.0</ele><time>2026-04-04T06:20:01.951Z</time></trkpt><trkpt lat="45.62777" lon="8.5833617"><ele>267.5</ele><time>2026-04-04T06:20:02.951Z</time></trkpt><trkpt lat="45.6278917" lon="8.5832883"><ele>268.0</ele><time>2026-04-04T06:20:03.951Z</time></trkpt><trkpt lat="45.6280233" lon="8.58324"><ele>268.5</ele><time>2026-04-04T06:20:04.951Z</time></trkpt><trkpt lat="45.62815" lon="8.5832067"><ele>269.0</ele><time>2026-04-04T06:20:05.951Z</time></trkpt><trkpt lat="45.6282583" lon="8.58316"><ele>269.0</ele><time>2026-04-04T06:20:06.951Z</time></trkpt><trkpt lat="45.6283567" lon="8.5830667"><ele>269.0</ele><time>2026-04-04T06:20:07.951Z</time></trkpt><trkpt lat="45.62843" lon="8.582945"><ele>269.0</ele><time>2026-04-04T06:20:08.951Z</time></trkpt><trkpt lat="45.628485" lon="8.582775"><ele>269.0</ele><time>2026-04-04T06:20:09.951Z</time></trkpt><trkpt lat="45.6285267" lon="8.5825833"><ele>269.6666666666667</ele><time>2026-04-04T06:20:10.951Z</time></trkpt><trkpt lat="45.6285683" lon="8.5823683"><ele>270.3333333333333</ele><time>2026-04-04T06:20:11.95Z</time></trkpt><trkpt lat="45.6286067" lon="8.58213"><ele>271.0</ele><time>2026-04-04T06:20:12.951Z</time></trkpt><trkpt lat="45.6286583" lon="8.5818683"><ele>271.0</ele><time>2026-04-04T06:20:13.951Z</time></trkpt><trkpt lat="45.6287117" lon="8.581615"><ele>271.0</ele><time>2026-04-04T06:20:14.951Z</time></trkpt><trkpt lat="45.62876" lon="8.5813667"><ele>271.0</ele><time>2026-04-04T06:20:15.951Z</time></trkpt><trkpt lat="45.6288067" lon="8.5811133"><ele>271.3333333333333</ele><time>2026-04-04T06:20:16.95Z</time></trkpt><trkpt lat="45.6288567" lon="8.58086"><ele>271.6666666666667</ele><time>2026-04-04T06:20:17.951Z</time></trkpt><trkpt lat="45.6289067" lon="8.580615"><ele>272.0</ele><time>2026-04-04T06:20:18.951Z</time></trkpt><trkpt lat="45.6289433" lon="8.5803883"><ele>272.75</ele><time>2026-04-04T06:20:19.951Z</time></trkpt><trkpt lat="45.6289783" lon="8.580185"><ele>273.5</ele><time>2026-04-04T06:20:20.951Z</time></trkpt><trkpt lat="45.6290117" lon="8.5799933"><ele>274.25</ele><time>2026-04-04T06:20:21.951Z</time></trkpt><trkpt lat="45.6290483" lon="8.5798133"><ele>275.0</ele><time>2026-04-04T06:20:22.951Z</time></trkpt><trkpt lat="45.6290683" lon="8.579645"><ele>277.0</ele><time>2026-04-04T06:20:23.951Z</time></trkpt><trkpt lat="45.62907" lon="8.5794833"><ele>279.0</ele><time>2026-04-04T06:20:24.951Z</time></trkpt><trkpt lat="45.62905" lon="8.57931"><ele>281.0</ele><time>2026-04-04T06:20:25.951Z</time></trkpt><trkpt lat="45.6290133" lon="8.5791167"><ele>283.0</ele><time>2026-04-04T06:20:26.951Z</time></trkpt><trkpt lat="45.6289683" lon="8.578915"><ele>283.0</ele><time>2026-04-04T06:20:27.951Z</time></trkpt><trkpt lat="45.6289233" lon="8.5786867"><ele>283.0</ele><time>2026-04-04T06:20:28.951Z</time></trkpt><trkpt lat="45.628895" lon="8.57845"><ele>283.0</ele><time>2026-04-04T06:20:29.951Z</time></trkpt><trkpt lat="45.6288667" lon="8.5782"><ele>279.66666666666663</ele><time>2026-04-04T06:20:30.951Z</time></trkpt><trkpt lat="45.6288417" lon="8.5779383"><ele>276.3333333333333</ele><time>2026-04-04T06:20:31.951Z</time></trkpt><trkpt lat="45.6288367" lon="8.5776617"><ele>273.0</ele><time>2026-04-04T06:20:32.951Z</time></trkpt><trkpt lat="45.628805" lon="8.5774033"><ele>271.5</ele><time>2026-04-04T06:20:33.951Z</time></trkpt><trkpt lat="45.6287783" lon="8.5771617"><ele>270.0</ele><time>2026-04-04T06:20:34.951Z</time></trkpt><trkpt lat="45.6287583" lon="8.57698"><ele>268.5</ele><time>2026-04-04T06:20:35.951Z</time></trkpt><trkpt lat="45.6287733" lon="8.5768267"><ele>267.0</ele><time>2026-04-04T06:20:36.951Z</time></trkpt><trkpt lat="45.6288217" lon="8.5766917"><ele>266.25</ele><time>2026-04-04T06:20:37.951Z</time></trkpt><trkpt lat="45.6288967" lon="8.5765817"><ele>265.5</ele><time>2026-04-04T06:20:38.95Z</time></trkpt><trkpt lat="45.6290083" lon="8.5764733"><ele>264.75</ele><time>2026-04-04T06:20:39.951Z</time></trkpt><trkpt lat="45.6291433" lon="8.5763867"><ele>264.0</ele><time>2026-04-04T06:20:40.951Z</time></trkpt><trkpt lat="45.6292983" lon="8.5762917"><ele>263.6666666666667</ele><time>2026-04-04T06:20:41.951Z</time></trkpt><trkpt lat="45.6294683" lon="8.5761767"><ele>263.33333333333337</ele><time>2026-04-04T06:20:42.951Z</time></trkpt><trkpt lat="45.629645" lon="8.5760617"><ele>263.0</ele><time>2026-04-04T06:20:43.951Z</time></trkpt><trkpt lat="45.6298267" lon="8.5759533"><ele>263.6666666666667</ele><time>2026-04-04T06:20:44.951Z</time></trkpt><trkpt lat="45.6300017" lon="8.5758567"><ele>264.3333333333333</ele><time>2026-04-04T06:20:45.951Z</time></trkpt><trkpt lat="45.6301733" lon="8.575745"><ele>265.0</ele><time>2026-04-04T06:20:46.951Z</time></trkpt><trkpt lat="45.6303267" lon="8.5756067"><ele>265.0</ele><time>2026-04-04T06:20:47.951Z</time></trkpt><trkpt lat="45.6304733" lon="8.5754517"><ele>265.0</ele><time>2026-04-04T06:20:48.951Z</time></trkpt><trkpt lat="45.630625" lon="8.575295"><ele>265.0</ele><time>2026-04-04T06:20:49.951Z</time></trkpt><trkpt lat="45.6307967" lon="8.5751633"><ele>265.0</ele><time>2026-04-04T06:20:50.951Z</time></trkpt><trkpt lat="45.6309717" lon="8.5750567"><ele>265.0</ele><time>2026-04-04T06:20:51.951Z</time></trkpt><trkpt lat="45.6311467" lon="8.57494"><ele>265.0</ele><time>2026-04-04T06:20:52.951Z</time></trkpt><trkpt lat="45.631315" lon="8.57484"><ele>265.0</ele><time>2026-04-04T06:20:53.951Z</time></trkpt><trkpt lat="45.631465" lon="8.5747367"><ele>265.0</ele><time>2026-04-04T06:20:54.951Z</time></trkpt><trkpt lat="45.631605" lon="8.5746117"><ele>265.0</ele><time>2026-04-04T06:20:55.951Z</time></trkpt><trkpt lat="45.63172" lon="8.5744333"><ele>265.0</ele><time>2026-04-04T06:20:56.951Z</time></trkpt><trkpt lat="45.6318433" lon="8.5742383"><ele>265.0</ele><time>2026-04-04T06:20:57.95Z</time></trkpt><trkpt lat="45.6319783" lon="8.5740533"><ele>265.0</ele><time>2026-04-04T06:20:58.951Z</time></trkpt><trkpt lat="45.6321333" lon="8.5738783"><ele>265.3333333333333</ele><time>2026-04-04T06:20:59.951Z</time></trkpt><trkpt lat="45.6323067" lon="8.5737067"><ele>265.6666666666667</ele><time>2026-04-04T06:21:00.951Z</time></trkpt><trkpt lat="45.6324833" lon="8.57354"><ele>266.0</ele><time>2026-04-04T06:21:01.95Z</time></trkpt><trkpt lat="45.6326667" lon="8.573385"><ele>267.0</ele><time>2026-04-04T06:21:02.951Z</time></trkpt><trkpt lat="45.6328483" lon="8.5732417"><ele>268.0</ele><time>2026-04-04T06:21:03.951Z</time></trkpt><trkpt lat="45.6330217" lon="8.573095"><ele>269.0</ele><time>2026-04-04T06:21:04.951Z</time></trkpt><trkpt lat="45.63318" lon="8.5729583"><ele>268.6666666666667</ele><time>2026-04-04T06:21:05.951Z</time></trkpt><trkpt lat="45.63333" lon="8.57283"><ele>268.3333333333333</ele><time>2026-04-04T06:21:06.951Z</time></trkpt><trkpt lat="45.6334783" lon="8.57272"><ele>268.0</ele><time>2026-04-04T06:21:07.951Z</time></trkpt><trkpt lat="45.633615" lon="8.57263"><ele>268.3333333333333</ele><time>2026-04-04T06:21:08.951Z</time></trkpt><trkpt lat="45.6337567" lon="8.57257"><ele>268.6666666666667</ele><time>2026-04-04T06:21:09.951Z</time></trkpt><trkpt lat="45.6339083" lon="8.5725567"><ele>269.0</ele><time>2026-04-04T06:21:10.951Z</time></trkpt><trkpt lat="45.6340717" lon="8.5725733"><ele>269.0</ele><time>2026-04-04T06:21:11.951Z</time></trkpt><trkpt lat="45.6342467" lon="8.57258"><ele>269.0</ele><time>2026-04-04T06:21:12.951Z</time></trkpt><trkpt lat="45.6344217" lon="8.572565"><ele>269.0</ele><time>2026-04-04T06:21:13.951Z</time></trkpt><trkpt lat="45.6345883" lon="8.57253"><ele>269.25</ele><time>2026-04-04T06:21:14.951Z</time></trkpt><trkpt lat="45.6347417" lon="8.5724783"><ele>269.5</ele><time>2026-04-04T06:21:15.951Z</time></trkpt><trkpt lat="45.6348633" lon="8.5724233"><ele>269.75</ele><time>2026-04-04T06:21:16.951Z</time></trkpt><trkpt lat="45.6349717" lon="8.57234"><ele>270.0</ele><time>2026-04-04T06:21:17.951Z</time></trkpt><trkpt lat="45.63505" lon="8.572205"><ele>269.5</ele><time>2026-04-04T06:21:18.951Z</time></trkpt><trkpt lat="45.6351083" lon="8.5720183"><ele>269.0</ele><time>2026-04-04T06:21:19.951Z</time></trkpt><trkpt lat="45.6351417" lon="8.5718383"><ele>268.5</ele><time>2026-04-04T06:21:20.951Z</time></trkpt><trkpt lat="45.635135" lon="8.57167"><ele>268.0</ele><time>2026-04-04T06:21:21.951Z</time></trkpt><trkpt lat="45.6351" lon="8.5715083"><ele>268.0</ele><time>2026-04-04T06:21:22.951Z</time></trkpt><trkpt lat="45.6350317" lon="8.5713333"><ele>268.0</ele><time>2026-04-04T06:21:23.951Z</time></trkpt><trkpt lat="45.6349433" lon="8.5711917"><ele>268.0</ele><time>2026-04-04T06:21:24.951Z</time></trkpt><trkpt lat="45.63487" lon="8.5710617"><ele>268.0</ele><time>2026-04-04T06:21:25.951Z</time></trkpt><trkpt lat="45.634805" lon="8.5709133"><ele>268.5</ele><time>2026-04-04T06:21:26.95Z</time></trkpt><trkpt lat="45.6347467" lon="8.5707583"><ele>269.0</ele><time>2026-04-04T06:21:27.951Z</time></trkpt><trkpt lat="45.634705" lon="8.570585"><ele>269.5</ele><time>2026-04-04T06:21:28.951Z</time></trkpt><trkpt lat="45.6346967" lon="8.57041"><ele>270.0</ele><time>2026-04-04T06:21:29.951Z</time></trkpt><trkpt lat="45.63472" lon="8.570215"><ele>270.0</ele><time>2026-04-04T06:21:30.951Z</time></trkpt><trkpt lat="45.6347333" lon="8.5699867"><ele>270.0</ele><time>2026-04-04T06:21:31.951Z</time></trkpt><trkpt lat="45.6347433" lon="8.56975"><ele>270.0</ele><time>2026-04-04T06:21:32.951Z</time></trkpt><trkpt lat="45.63476" lon="8.5694983"><ele>269.3333333333333</ele><time>2026-04-04T06:21:33.951Z</time></trkpt><trkpt lat="45.634775" lon="8.5692417"><ele>268.66666666666663</ele><time>2026-04-04T06:21:34.951Z</time></trkpt><trkpt lat="45.63478" lon="8.5689867"><ele>268.0</ele><time>2026-04-04T06:21:35.95Z</time></trkpt><trkpt lat="45.6347867" lon="8.56876"><ele>267.25</ele><time>2026-04-04T06:21:36.951Z</time></trkpt><trkpt lat="45.63479" lon="8.56855"><ele>266.5</ele><time>2026-04-04T06:21:37.951Z</time></trkpt><trkpt lat="45.6347883" lon="8.56833"><ele>265.75</ele><time>2026-04-04T06:21:38.951Z</time></trkpt><trkpt lat="45.6347683" lon="8.56814"><ele>265.0</ele><time>2026-04-04T06:21:39.95Z</time></trkpt><trkpt lat="45.6347233" lon="8.56797"><ele>265.0</ele><time>2026-04-04T06:21:40.951Z</time></trkpt><trkpt lat="45.63466" lon="8.5678033"><ele>265.0</ele><time>2026-04-04T06:21:41.951Z</time></trkpt><trkpt lat="45.634585" lon="8.5676233"><ele>265.0</ele><time>2026-04-04T06:21:42.951Z</time></trkpt><trkpt lat="45.63449" lon="8.5674483"><ele>265.0</ele><time>2026-04-04T06:21:43.951Z</time></trkpt><trkpt lat="45.6343883" lon="8.56724"><ele>264.66666666666663</ele><time>2026-04-04T06:21:44.951Z</time></trkpt><trkpt lat="45.6342833" lon="8.567025"><ele>264.3333333333333</ele><time>2026-04-04T06:21:45.951Z</time></trkpt><trkpt lat="45.634195" lon="8.5668017"><ele>264.0</ele><time>2026-04-04T06:21:46.951Z</time></trkpt><trkpt lat="45.6341117" lon="8.56657"><ele>264.0</ele><time>2026-04-04T06:21:47.951Z</time></trkpt><trkpt lat="45.6340267" lon="8.5663317"><ele>264.0</ele><time>2026-04-04T06:21:48.951Z</time></trkpt><trkpt lat="45.6339517" lon="8.5660933"><ele>264.0</ele><time>2026-04-04T06:21:49.951Z</time></trkpt><trkpt lat="45.6338783" lon="8.5658483"><ele>264.0</ele><time>2026-04-04T06:21:50.951Z</time></trkpt><trkpt lat="45.633815" lon="8.565615"><ele>264.0</ele><time>2026-04-04T06:21:51.951Z</time></trkpt><trkpt lat="45.6337683" lon="8.5654017"><ele>264.0</ele><time>2026-04-04T06:21:52.951Z</time></trkpt><trkpt lat="45.63372" lon="8.5651867"><ele>263.75</ele><time>2026-04-04T06:21:53.951Z</time></trkpt><trkpt lat="45.6336917" lon="8.5649783"><ele>263.5</ele><time>2026-04-04T06:21:54.951Z</time></trkpt><trkpt lat="45.6336833" lon="8.56477"><ele>263.25</ele><time>2026-04-04T06:21:55.951Z</time></trkpt><trkpt lat="45.633675" lon="8.564555"><ele>263.0</ele><time>2026-04-04T06:21:56.951Z</time></trkpt><trkpt lat="45.6336633" lon="8.5643467"><ele>263.0</ele><time>2026-04-04T06:21:57.951Z</time></trkpt><trkpt lat="45.6336433" lon="8.56414"><ele>263.0</ele><time>2026-04-04T06:21:58.951Z</time></trkpt><trkpt lat="45.633625" lon="8.563945"><ele>263.0</ele><time>2026-04-04T06:21:59.951Z</time></trkpt><trkpt lat="45.6336117" lon="8.5637583"><ele>263.0</ele><time>2026-04-04T06:22:00.951Z</time></trkpt><trkpt lat="45.6336133" lon="8.5635883"><ele>262.75</ele><time>2026-04-04T06:22:01.951Z</time></trkpt><trkpt lat="45.6336383" lon="8.5634117"><ele>262.5</ele><time>2026-04-04T06:22:02.951Z</time></trkpt><trkpt lat="45.63368" lon="8.5632267"><ele>262.25</ele><time>2026-04-04T06:22:03.951Z</time></trkpt><trkpt lat="45.6337267" lon="8.5630317"><ele>262.0</ele><time>2026-04-04T06:22:04.951Z</time></trkpt><trkpt lat="45.63378" lon="8.562825"><ele>262.0</ele><time>2026-04-04T06:22:05.95Z</time></trkpt><trkpt lat="45.6338367" lon="8.5626333"><ele>262.0</ele><time>2026-04-04T06:22:06.951Z</time></trkpt><trkpt lat="45.6338967" lon="8.56246"><ele>262.0</ele><time>2026-04-04T06:22:07.951Z</time></trkpt><trkpt lat="45.6339733" lon="8.5622967"><ele>262.0</ele><time>2026-04-04T06:22:08.951Z</time></trkpt><trkpt lat="45.63406" lon="8.5621533"><ele>262.0</ele><time>2026-04-04T06:22:09.951Z</time></trkpt><trkpt lat="45.6341633" lon="8.56205"><ele>262.0</ele><time>2026-04-04T06:22:10.951Z</time></trkpt><trkpt lat="45.634265" lon="8.56197"><ele>262.0</ele><time>2026-04-04T06:22:11.951Z</time></trkpt><trkpt lat="45.6343517" lon="8.5618667"><ele>262.0</ele><time>2026-04-04T06:22:12.951Z</time></trkpt><trkpt lat="45.6344267" lon="8.56172"><ele>262.0</ele><time>2026-04-04T06:22:13.951Z</time></trkpt><trkpt lat="45.6344817" lon="8.5615383"><ele>262.0</ele><time>2026-04-04T06:22:14.951Z</time></trkpt><trkpt lat="45.63454" lon="8.56134"><ele>262.0</ele><time>2026-04-04T06:22:15.951Z</time></trkpt><trkpt lat="45.6345883" lon="8.561115"><ele>262.0</ele><time>2026-04-04T06:22:16.951Z</time></trkpt><trkpt lat="45.6346417" lon="8.560885"><ele>262.0</ele><time>2026-04-04T06:22:17.951Z</time></trkpt><trkpt lat="45.6346883" lon="8.5606517"><ele>262.0</ele><time>2026-04-04T06:22:18.95Z</time></trkpt><trkpt lat="45.6347233" lon="8.5604467"><ele>262.0</ele><time>2026-04-04T06:22:19.951Z</time></trkpt><trkpt lat="45.634755" lon="8.5602567"><ele>262.0</ele><time>2026-04-04T06:22:20.951Z</time></trkpt><trkpt lat="45.63479" lon="8.5600817"><ele>262.0</ele><time>2026-04-04T06:22:21.95Z</time></trkpt><trkpt lat="45.6348417" lon="8.5599117"><ele>262.0</ele><time>2026-04-04T06:22:22.951Z</time></trkpt><trkpt lat="45.6349033" lon="8.559755"><ele>262.0</ele><time>2026-04-04T06:22:23.951Z</time></trkpt><trkpt lat="45.63497" lon="8.559585"><ele>262.0</ele><time>2026-04-04T06:22:24.951Z</time></trkpt><trkpt lat="45.63501" lon="8.5594117"><ele>262.0</ele><time>2026-04-04T06:22:25.951Z</time></trkpt><trkpt lat="45.6350133" lon="8.5592333"><ele>262.0</ele><time>2026-04-04T06:22:26.951Z</time></trkpt><trkpt lat="45.6350033" lon="8.5590233"><ele>261.66666666666663</ele><time>2026-04-04T06:22:27.951Z</time></trkpt><trkpt lat="45.634965" lon="8.5587883"><ele>261.3333333333333</ele><time>2026-04-04T06:22:28.951Z</time></trkpt><trkpt lat="45.6349517" lon="8.5585733"><ele>261.0</ele><time>2026-04-04T06:22:29.951Z</time></trkpt><trkpt lat="45.6349033" lon="8.5583517"><ele>261.3333333333333</ele><time>2026-04-04T06:22:30.951Z</time></trkpt><trkpt lat="45.6348383" lon="8.5581367"><ele>261.66666666666663</ele><time>2026-04-04T06:22:31.95Z</time></trkpt><trkpt lat="45.6347567" lon="8.5579"><ele>262.0</ele><time>2026-04-04T06:22:32.951Z</time></trkpt><trkpt lat="45.6346817" lon="8.5576517"><ele>262.0</ele><time>2026-04-04T06:22:33.951Z</time></trkpt><trkpt lat="45.6346083" lon="8.5574117"><ele>262.0</ele><time>2026-04-04T06:22:34.951Z</time></trkpt><trkpt lat="45.63454" lon="8.557195"><ele>262.0</ele><time>2026-04-04T06:22:35.951Z</time></trkpt><trkpt lat="45.63448" lon="8.5569817"><ele>261.0</ele><time>2026-04-04T06:22:36.951Z</time></trkpt><trkpt lat="45.6344383" lon="8.5567717"><ele>260.0</ele><time>2026-04-04T06:22:37.951Z</time></trkpt><trkpt lat="45.6343967" lon="8.55657"><ele>259.0</ele><time>2026-04-04T06:22:38.951Z</time></trkpt><trkpt lat="45.6343667" lon="8.5563433"><ele>258.66666666666663</ele><time>2026-04-04T06:22:39.951Z</time></trkpt><trkpt lat="45.63434" lon="8.5561017"><ele>258.3333333333333</ele><time>2026-04-04T06:22:40.951Z</time></trkpt><trkpt lat="45.6343033" lon="8.55586"><ele>258.0</ele><time>2026-04-04T06:22:41.951Z</time></trkpt><trkpt lat="45.6342633" lon="8.5556317"><ele>258.0</ele><time>2026-04-04T06:22:42.951Z</time></trkpt><trkpt lat="45.6342383" lon="8.5554167"><ele>258.0</ele><time>2026-04-04T06:22:43.951Z</time></trkpt><trkpt lat="45.634205" lon="8.5552067"><ele>258.0</ele><time>2026-04-04T06:22:44.951Z</time></trkpt><trkpt lat="45.6341717" lon="8.554985"><ele>258.6666666666667</ele><time>2026-04-04T06:22:45.951Z</time></trkpt><trkpt lat="45.6341383" lon="8.5547567"><ele>259.33333333333337</ele><time>2026-04-04T06:22:46.951Z</time></trkpt><trkpt lat="45.6341067" lon="8.5545217"><ele>260.0</ele><time>2026-04-04T06:22:47.951Z</time></trkpt><trkpt lat="45.6340867" lon="8.5542783"><ele>260.0</ele><time>2026-04-04T06:22:48.951Z</time></trkpt><trkpt lat="45.634055" lon="8.5540233"><ele>260.0</ele><time>2026-04-04T06:22:49.951Z</time></trkpt><trkpt lat="45.6340133" lon="8.5537633"><ele>260.0</ele><time>2026-04-04T06:22:50.951Z</time></trkpt><trkpt lat="45.63398" lon="8.553515"><ele>259.6666666666667</ele><time>2026-04-04T06:22:51.951Z</time></trkpt><trkpt lat="45.6339583" lon="8.5532733"><ele>259.3333333333333</ele><time>2026-04-04T06:22:52.951Z</time></trkpt><trkpt lat="45.6339433" lon="8.5530333"><ele>259.0</ele><time>2026-04-04T06:22:53.951Z</time></trkpt><trkpt lat="45.6339283" lon="8.552795"><ele>259.0</ele><time>2026-04-04T06:22:54.951Z</time></trkpt><trkpt lat="45.6339133" lon="8.5525417"><ele>259.0</ele><time>2026-04-04T06:22:55.951Z</time></trkpt><trkpt lat="45.6338967" lon="8.5522783"><ele>259.0</ele><time>2026-04-04T06:22:56.951Z</time></trkpt><trkpt lat="45.633885" lon="8.5520233"><ele>259.66666666666663</ele><time>2026-04-04T06:22:57.951Z</time></trkpt><trkpt lat="45.63388" lon="8.5517617"><ele>260.3333333333333</ele><time>2026-04-04T06:22:58.951Z</time></trkpt><trkpt lat="45.6338833" lon="8.5515"><ele>261.0</ele><time>2026-04-04T06:22:59.95Z</time></trkpt><trkpt lat="45.633875" lon="8.5512583"><ele>260.6666666666667</ele><time>2026-04-04T06:23:00.951Z</time></trkpt><trkpt lat="45.6338683" lon="8.5510233"><ele>260.33333333333337</ele><time>2026-04-04T06:23:01.95Z</time></trkpt><trkpt lat="45.633855" lon="8.5507933"><ele>260.0</ele><time>2026-04-04T06:23:02.951Z</time></trkpt><trkpt lat="45.63384" lon="8.5505433"><ele>260.6666666666667</ele><time>2026-04-04T06:23:03.951Z</time></trkpt><trkpt lat="45.6338283" lon="8.5502983"><ele>261.3333333333333</ele><time>2026-04-04T06:23:04.951Z</time></trkpt><trkpt lat="45.633815" lon="8.5500483"><ele>262.0</ele><time>2026-04-04T06:23:05.951Z</time></trkpt><trkpt lat="45.6337933" lon="8.54979"><ele>262.0</ele><time>2026-04-04T06:23:06.951Z</time></trkpt><trkpt lat="45.633765" lon="8.5495333"><ele>262.0</ele><time>2026-04-04T06:23:07.951Z</time></trkpt><trkpt lat="45.6337417" lon="8.549275"><ele>262.0</ele><time>2026-04-04T06:23:08.951Z</time></trkpt><trkpt lat="45.6337117" lon="8.5490183"><ele>262.0</ele><time>2026-04-04T06:23:09.951Z</time></trkpt><trkpt lat="45.6336933" lon="8.5487433"><ele>262.0</ele><time>2026-04-04T06:23:10.951Z</time></trkpt><trkpt lat="45.6336717" lon="8.5484917"><ele>262.0</ele><time>2026-04-04T06:23:11.951Z</time></trkpt><trkpt lat="45.6336467" lon="8.5482483"><ele>262.0</ele><time>2026-04-04T06:23:12.951Z</time></trkpt><trkpt lat="45.6336283" lon="8.5480133"><ele>262.0</ele><time>2026-04-04T06:23:13.951Z</time></trkpt><trkpt lat="45.633615" lon="8.5477817"><ele>262.0</ele><time>2026-04-04T06:23:14.951Z</time></trkpt><trkpt lat="45.6335933" lon="8.547555"><ele>262.0</ele><time>2026-04-04T06:23:15.95Z</time></trkpt><trkpt lat="45.6335867" lon="8.5473333"><ele>262.0</ele><time>2026-04-04T06:23:16.951Z</time></trkpt><trkpt lat="45.633575" lon="8.5471017"><ele>262.0</ele><time>2026-04-04T06:23:17.951Z</time></trkpt><trkpt lat="45.6335633" lon="8.546855"><ele>262.0</ele><time>2026-04-04T06:23:18.951Z</time></trkpt><trkpt lat="45.6335567" lon="8.54661"><ele>262.0</ele><time>2026-04-04T06:23:19.951Z</time></trkpt><trkpt lat="45.6335467" lon="8.5463583"><ele>262.0</ele><time>2026-04-04T06:23:20.951Z</time></trkpt><trkpt lat="45.6335333" lon="8.5461"><ele>262.0</ele><time>2026-04-04T06:23:21.951Z</time></trkpt><trkpt lat="45.633525" lon="8.545845"><ele>262.0</ele><time>2026-04-04T06:23:22.951Z</time></trkpt><trkpt lat="45.6335217" lon="8.5456067"><ele>262.0</ele><time>2026-04-04T06:23:23.951Z</time></trkpt><trkpt lat="45.6335117" lon="8.5453817"><ele>262.25</ele><time>2026-04-04T06:23:24.951Z</time></trkpt><trkpt lat="45.6334983" lon="8.54518"><ele>262.5</ele><time>2026-04-04T06:23:25.951Z</time></trkpt><trkpt lat="45.6334867" lon="8.54499"><ele>262.75</ele><time>2026-04-04T06:23:26.951Z</time></trkpt><trkpt lat="45.633465" lon="8.5447917"><ele>263.0</ele><time>2026-04-04T06:23:27.951Z</time></trkpt><trkpt lat="45.633445" lon="8.54461"><ele>263.0</ele><time>2026-04-04T06:23:28.951Z</time></trkpt><trkpt lat="45.6334233" lon="8.54444"><ele>263.0</ele><time>2026-04-04T06:23:29.951Z</time></trkpt><trkpt lat="45.6334133" lon="8.54429"><ele>263.0</ele><time>2026-04-04T06:23:30.951Z</time></trkpt><trkpt lat="45.633405" lon="8.5441333"><ele>263.0</ele><time>2026-04-04T06:23:31.951Z</time></trkpt><trkpt lat="45.6333983" lon="8.543975"><ele>263.0</ele><time>2026-04-04T06:23:32.951Z</time></trkpt><trkpt lat="45.6334033" lon="8.54382"><ele>262.25</ele><time>2026-04-04T06:23:33.951Z</time></trkpt><trkpt lat="45.6334267" lon="8.543655"><ele>261.5</ele><time>2026-04-04T06:23:34.951Z</time></trkpt><trkpt lat="45.63348" lon="8.543505"><ele>260.75</ele><time>2026-04-04T06:23:35.951Z</time></trkpt><trkpt lat="45.6335567" lon="8.5433683"><ele>260.0</ele><time>2026-04-04T06:23:36.951Z</time></trkpt><trkpt lat="45.6336383" lon="8.5432283"><ele>260.25</ele><time>2026-04-04T06:23:37.951Z</time></trkpt><trkpt lat="45.633705" lon="8.5430717"><ele>260.5</ele><time>2026-04-04T06:23:38.951Z</time></trkpt><trkpt lat="45.633755" lon="8.54291"><ele>260.75</ele><time>2026-04-04T06:23:39.951Z</time></trkpt><trkpt lat="45.6338083" lon="8.5427133"><ele>261.0</ele><time>2026-04-04T06:23:40.95Z</time></trkpt><trkpt lat="45.63386" lon="8.5425233"><ele>260.5</ele><time>2026-04-04T06:23:41.951Z</time></trkpt><trkpt lat="45.6339167" lon="8.542345"><ele>260.0</ele><time>2026-04-04T06:23:42.951Z</time></trkpt><trkpt lat="45.6339667" lon="8.54218"><ele>259.5</ele><time>2026-04-04T06:23:43.951Z</time></trkpt><trkpt lat="45.63403" lon="8.5420283"><ele>259.0</ele><time>2026-04-04T06:23:44.951Z</time></trkpt><trkpt lat="45.6341083" lon="8.541885"><ele>258.5</ele><time>2026-04-04T06:23:45.951Z</time></trkpt><trkpt lat="45.634165" lon="8.5417283"><ele>258.0</ele><time>2026-04-04T06:23:46.951Z</time></trkpt><trkpt lat="45.634185" lon="8.5415667"><ele>257.5</ele><time>2026-04-04T06:23:47.951Z</time></trkpt><trkpt lat="45.6342" lon="8.54141"><ele>257.0</ele><time>2026-04-04T06:23:48.951Z</time></trkpt><trkpt lat="45.6341883" lon="8.5412383"><ele>256.8</ele><time>2026-04-04T06:23:49.951Z</time></trkpt><trkpt lat="45.6341767" lon="8.541065"><ele>256.6</ele><time>2026-04-04T06:23:50.951Z</time></trkpt><trkpt lat="45.6341517" lon="8.540895"><ele>256.40000000000003</ele><time>2026-04-04T06:23:51.951Z</time></trkpt><trkpt lat="45.6341317" lon="8.5407517"><ele>256.2</ele><time>2026-04-04T06:23:52.951Z</time></trkpt><trkpt lat="45.6341167" lon="8.54063"><ele>256.0</ele><time>2026-04-04T06:23:53.951Z</time></trkpt><trkpt lat="45.6341133" lon="8.5405133"><ele>256.0</ele><time>2026-04-04T06:23:54.951Z</time></trkpt><trkpt lat="45.6341017" lon="8.5403917"><ele>256.0</ele><time>2026-04-04T06:23:55.951Z</time></trkpt><trkpt lat="45.63408" lon="8.5402683"><ele>256.0</ele><time>2026-04-04T06:23:56.951Z</time></trkpt><trkpt lat="45.6340517" lon="8.5401383"><ele>256.0</ele><time>2026-04-04T06:23:57.951Z</time></trkpt><trkpt lat="45.6340417" lon="8.5400067"><ele>256.0</ele><time>2026-04-04T06:23:58.951Z</time></trkpt><trkpt lat="45.6340383" lon="8.5398667"><ele>256.2</ele><time>2026-04-04T06:23:59.951Z</time></trkpt><trkpt lat="45.6340233" lon="8.5397317"><ele>256.40000000000003</ele><time>2026-04-04T06:24:00.951Z</time></trkpt><trkpt lat="45.63401" lon="8.539595"><ele>256.6</ele><time>2026-04-04T06:24:01.951Z</time></trkpt><trkpt lat="45.6340183" lon="8.5394567"><ele>256.8</ele><time>2026-04-04T06:24:02.951Z</time></trkpt><trkpt lat="45.6340183" lon="8.5393217"><ele>257.0</ele><time>2026-04-04T06:24:03.951Z</time></trkpt><trkpt lat="45.6340233" lon="8.5391933"><ele>256.6</ele><time>2026-04-04T06:24:04.951Z</time></trkpt><trkpt lat="45.6340217" lon="8.5390617"><ele>256.2</ele><time>2026-04-04T06:24:05.951Z</time></trkpt><trkpt lat="45.6340217" lon="8.5389267"><ele>255.8</ele><time>2026-04-04T06:24:06.951Z</time></trkpt><trkpt lat="45.6340283" lon="8.53879"><ele>255.4</ele><time>2026-04-04T06:24:07.951Z</time></trkpt><trkpt lat="45.6340417" lon="8.5386367"><ele>255.0</ele><time>2026-04-04T06:24:08.951Z</time></trkpt><trkpt lat="45.634015" lon="8.5385067"><ele>255.0</ele><time>2026-04-04T06:24:09.951Z</time></trkpt><trkpt lat="45.6340183" lon="8.5383483"><ele>255.0</ele><time>2026-04-04T06:24:10.951Z</time></trkpt><trkpt lat="45.6340283" lon="8.53818"><ele>255.0</ele><time>2026-04-04T06:24:11.951Z</time></trkpt><trkpt lat="45.634025" lon="8.538005"><ele>255.0</ele><time>2026-04-04T06:24:12.951Z</time></trkpt><trkpt lat="45.6340133" lon="8.5378333"><ele>255.5</ele><time>2026-04-04T06:24:13.951Z</time></trkpt><trkpt lat="45.6339983" lon="8.5376667"><ele>256.0</ele><time>2026-04-04T06:24:14.951Z</time></trkpt><trkpt lat="45.633985" lon="8.5375067"><ele>256.5</ele><time>2026-04-04T06:24:15.951Z</time></trkpt><trkpt lat="45.6339717" lon="8.5373283"><ele>257.0</ele><time>2026-04-04T06:24:16.951Z</time></trkpt><trkpt lat="45.63397" lon="8.5371433"><ele>258.0</ele><time>2026-04-04T06:24:17.951Z</time></trkpt><trkpt lat="45.6339567" lon="8.5369583"><ele>259.0</ele><time>2026-04-04T06:24:18.951Z</time></trkpt><trkpt lat="45.6339417" lon="8.5367633"><ele>260.0</ele><time>2026-04-04T06:24:19.951Z</time></trkpt><trkpt lat="45.633925" lon="8.5365667"><ele>261.0</ele><time>2026-04-04T06:24:20.951Z</time></trkpt><trkpt lat="45.63391" lon="8.536355"><ele>261.5</ele><time>2026-04-04T06:24:21.951Z</time></trkpt><trkpt lat="45.6339" lon="8.53615"><ele>262.0</ele><time>2026-04-04T06:24:22.951Z</time></trkpt><trkpt lat="45.6338933" lon="8.5359367"><ele>262.5</ele><time>2026-04-04T06:24:23.951Z</time></trkpt><trkpt lat="45.6338783" lon="8.5357283"><ele>263.0</ele><time>2026-04-04T06:24:24.951Z</time></trkpt><trkpt lat="45.633865" lon="8.5355133"><ele>263.0</ele><time>2026-04-04T06:24:25.951Z</time></trkpt><trkpt lat="45.6338467" lon="8.5353017"><ele>263.0</ele><time>2026-04-04T06:24:26.951Z</time></trkpt><trkpt lat="45.6338283" lon="8.53509"><ele>263.0</ele><time>2026-04-04T06:24:27.951Z</time></trkpt><trkpt lat="45.6338083" lon="8.5348983"><ele>263.0</ele><time>2026-04-04T06:24:28.951Z</time></trkpt><trkpt lat="45.6337983" lon="8.534705"><ele>262.5</ele><time>2026-04-04T06:24:29.951Z</time></trkpt><trkpt lat="45.6337817" lon="8.534495"><ele>262.0</ele><time>2026-04-04T06:24:30.951Z</time></trkpt><trkpt lat="45.6337633" lon="8.53429"><ele>261.5</ele><time>2026-04-04T06:24:31.951Z</time></trkpt><trkpt lat="45.633745" lon="8.5340717"><ele>261.0</ele><time>2026-04-04T06:24:32.951Z</time></trkpt><trkpt lat="45.6337333" lon="8.533855"><ele>260.6666666666667</ele><time>2026-04-04T06:24:33.951Z</time></trkpt><trkpt lat="45.633715" lon="8.53363"><ele>260.33333333333337</ele><time>2026-04-04T06:24:34.951Z</time></trkpt><trkpt lat="45.6337017" lon="8.533415"><ele>260.0</ele><time>2026-04-04T06:24:35.95Z</time></trkpt><trkpt lat="45.633695" lon="8.5332117"><ele>260.0</ele><time>2026-04-04T06:24:36.951Z</time></trkpt><trkpt lat="45.6337117" lon="8.5330167"><ele>260.0</ele><time>2026-04-04T06:24:37.951Z</time></trkpt><trkpt lat="45.63373" lon="8.53283"><ele>260.0</ele><time>2026-04-04T06:24:38.951Z</time></trkpt><trkpt lat="45.6337633" lon="8.5326733"><ele>260.0</ele><time>2026-04-04T06:24:39.951Z</time></trkpt><trkpt lat="45.6337833" lon="8.5325317"><ele>260.1666666666667</ele><time>2026-04-04T06:24:40.951Z</time></trkpt><trkpt lat="45.6338067" lon="8.5324183"><ele>260.33333333333337</ele><time>2026-04-04T06:24:41.951Z</time></trkpt><trkpt lat="45.6338167" lon="8.5323267"><ele>260.5</ele><time>2026-04-04T06:24:42.951Z</time></trkpt><trkpt lat="45.63377" lon="8.5322083"><ele>260.6666666666667</ele><time>2026-04-04T06:24:44.951Z</time></trkpt><trkpt lat="45.63367" lon="8.5322183"><ele>260.8333333333333</ele><time>2026-04-04T06:24:46.951Z</time></trkpt><trkpt lat="45.6335967" lon="8.5322767"><ele>261.0</ele><time>2026-04-04T06:24:47.951Z</time></trkpt><trkpt lat="45.6335" lon="8.5323617"><ele>260.25</ele><time>2026-04-04T06:24:48.95Z</time></trkpt><trkpt lat="45.63339" lon="8.5324583"><ele>259.5</ele><time>2026-04-04T06:24:49.951Z</time></trkpt><trkpt lat="45.633265" lon="8.5325633"><ele>258.75</ele><time>2026-04-04T06:24:50.951Z</time></trkpt><trkpt lat="45.6331517" lon="8.5326583"><ele>258.0</ele><time>2026-04-04T06:24:51.951Z</time></trkpt><trkpt lat="45.633045" lon="8.5327583"><ele>258.0</ele><time>2026-04-04T06:24:52.951Z</time></trkpt><trkpt lat="45.63293" lon="8.5328583"><ele>258.0</ele><time>2026-04-04T06:24:53.951Z</time></trkpt><trkpt lat="45.6328033" lon="8.53297"><ele>258.0</ele><time>2026-04-04T06:24:54.951Z</time></trkpt><trkpt lat="45.6326617" lon="8.5330933"><ele>258.0</ele><time>2026-04-04T06:24:55.951Z</time></trkpt><trkpt lat="45.6325167" lon="8.53323"><ele>257.3333333333333</ele><time>2026-04-04T06:24:56.951Z</time></trkpt><trkpt lat="45.63237" lon="8.53337"><ele>256.66666666666663</ele><time>2026-04-04T06:24:57.95Z</time></trkpt><trkpt lat="45.6322117" lon="8.5335033"><ele>256.0</ele><time>2026-04-04T06:24:58.951Z</time></trkpt><trkpt lat="45.6320517" lon="8.53365"><ele>255.66666666666666</ele><time>2026-04-04T06:24:59.951Z</time></trkpt><trkpt lat="45.6318833" lon="8.53379"><ele>255.33333333333331</ele><time>2026-04-04T06:25:00.951Z</time></trkpt><trkpt lat="45.6317083" lon="8.5339267"><ele>255.0</ele><time>2026-04-04T06:25:01.951Z</time></trkpt><trkpt lat="45.63153" lon="8.5340583"><ele>255.0</ele><time>2026-04-04T06:25:02.951Z</time></trkpt><trkpt lat="45.6313567" lon="8.5341833"><ele>255.0</ele><time>2026-04-04T06:25:03.951Z</time></trkpt><trkpt lat="45.631185" lon="8.5343067"><ele>255.0</ele><time>2026-04-04T06:25:04.951Z</time></trkpt><trkpt lat="45.63102" lon="8.5344333"><ele>255.0</ele><time>2026-04-04T06:25:05.951Z</time></trkpt><trkpt lat="45.6308717" lon="8.5345483"><ele>255.0</ele><time>2026-04-04T06:25:06.951Z</time></trkpt><trkpt lat="45.6307283" lon="8.534655"><ele>255.0</ele><time>2026-04-04T06:25:07.951Z</time></trkpt><trkpt lat="45.6305933" lon="8.5347617"><ele>255.25</ele><time>2026-04-04T06:25:08.951Z</time></trkpt><trkpt lat="45.6304633" lon="8.5348633"><ele>255.5</ele><time>2026-04-04T06:25:09.951Z</time></trkpt><trkpt lat="45.630345" lon="8.5349633"><ele>255.75</ele><time>2026-04-04T06:25:10.951Z</time></trkpt><trkpt lat="45.6302383" lon="8.535055"><ele>256.0</ele><time>2026-04-04T06:25:11.951Z</time></trkpt><trkpt lat="45.630135" lon="8.5351383"><ele>255.5</ele><time>2026-04-04T06:25:12.951Z</time></trkpt><trkpt lat="45.6300333" lon="8.5352233"><ele>255.0</ele><time>2026-04-04T06:25:13.951Z</time></trkpt><trkpt lat="45.62992" lon="8.5353167"><ele>254.5</ele><time>2026-04-04T06:25:14.951Z</time></trkpt><trkpt lat="45.629795" lon="8.535405"><ele>254.0</ele><time>2026-04-04T06:25:15.951Z</time></trkpt><trkpt lat="45.6296683" lon="8.535485"><ele>254.0</ele><time>2026-04-04T06:25:16.951Z</time></trkpt><trkpt lat="45.629555" lon="8.5355467"><ele>253.99999999999997</ele><time>2026-04-04T06:25:17.951Z</time></trkpt><trkpt lat="45.6294617" lon="8.5355833"><ele>253.99999999999997</ele><time>2026-04-04T06:25:18.95Z</time></trkpt><trkpt lat="45.6293767" lon="8.5356183"><ele>254.0</ele><time>2026-04-04T06:25:19.951Z</time></trkpt><trkpt lat="45.6293017" lon="8.5356433"><ele>254.0</ele><time>2026-04-04T06:25:20.951Z</time></trkpt><trkpt lat="45.6292217" lon="8.5356633"><ele>254.00000000000003</ele><time>2026-04-04T06:25:21.951Z</time></trkpt><trkpt lat="45.6291433" lon="8.535685"><ele>254.0</ele><time>2026-04-04T06:25:22.951Z</time></trkpt><trkpt lat="45.6290667" lon="8.5357"><ele>254.0</ele><time>2026-04-04T06:25:23.951Z</time></trkpt><trkpt lat="45.6289867" lon="8.535715"><ele>254.0</ele><time>2026-04-04T06:25:24.951Z</time></trkpt><trkpt lat="45.62891" lon="8.5357283"><ele>254.00000000000003</ele><time>2026-04-04T06:25:25.951Z</time></trkpt><trkpt lat="45.6288417" lon="8.5357433"><ele>254.0</ele><time>2026-04-04T06:25:26.951Z</time></trkpt><trkpt lat="45.628735" lon="8.535765"><ele>254.0</ele><time>2026-04-04T06:25:28.951Z</time></trkpt><trkpt lat="45.6286483" lon="8.5357717"><ele>253.99999999999997</ele><time>2026-04-04T06:25:30.951Z</time></trkpt><trkpt lat="45.6285867" lon="8.53575"><ele>253.99999999999997</ele><time>2026-04-04T06:25:32.95Z</time></trkpt><trkpt lat="45.6285233" lon="8.5356983"><ele>254.0</ele><time>2026-04-04T06:25:34.951Z</time></trkpt><trkpt lat="45.628455" lon="8.535535"><ele>254.0</ele><time>2026-04-04T06:25:36.951Z</time></trkpt><trkpt lat="45.6284233" lon="8.535395"><ele>253.75</ele><time>2026-04-04T06:25:37.951Z</time></trkpt><trkpt lat="45.6283933" lon="8.535235"><ele>253.5</ele><time>2026-04-04T06:25:38.951Z</time></trkpt><trkpt lat="45.628375" lon="8.5350533"><ele>253.25</ele><time>2026-04-04T06:25:39.951Z</time></trkpt><trkpt lat="45.6283683" lon="8.53488"><ele>253.0</ele><time>2026-04-04T06:25:40.951Z</time></trkpt><trkpt lat="45.62837" lon="8.5347067"><ele>253.25</ele><time>2026-04-04T06:25:41.951Z</time></trkpt><trkpt lat="45.6283733" lon="8.534525"><ele>253.5</ele><time>2026-04-04T06:25:42.951Z</time></trkpt><trkpt lat="45.6283833" lon="8.5343417"><ele>253.75</ele><time>2026-04-04T06:25:43.951Z</time></trkpt><trkpt lat="45.6283867" lon="8.5341533"><ele>254.0</ele><time>2026-04-04T06:25:44.951Z</time></trkpt><trkpt lat="45.6283883" lon="8.53396"><ele>254.0</ele><time>2026-04-04T06:25:45.951Z</time></trkpt><trkpt lat="45.628395" lon="8.5337683"><ele>254.0</ele><time>2026-04-04T06:25:46.951Z</time></trkpt><trkpt lat="45.6283933" lon="8.533575"><ele>254.0</ele><time>2026-04-04T06:25:47.951Z</time></trkpt><trkpt lat="45.6283967" lon="8.5333733"><ele>254.0</ele><time>2026-04-04T06:25:48.951Z</time></trkpt><trkpt lat="45.62841" lon="8.5331817"><ele>254.0</ele><time>2026-04-04T06:25:49.951Z</time></trkpt><trkpt lat="45.6284317" lon="8.532995"><ele>254.0</ele><time>2026-04-04T06:25:50.951Z</time></trkpt><trkpt lat="45.6284533" lon="8.5328067"><ele>254.0</ele><time>2026-04-04T06:25:51.951Z</time></trkpt><trkpt lat="45.62848" lon="8.5326217"><ele>254.0</ele><time>2026-04-04T06:25:52.95Z</time></trkpt><trkpt lat="45.628505" lon="8.5324333"><ele>254.0</ele><time>2026-04-04T06:25:53.95Z</time></trkpt><trkpt lat="45.628525" lon="8.5322417"><ele>254.0</ele><time>2026-04-04T06:25:54.951Z</time></trkpt><trkpt lat="45.6285233" lon="8.53205"><ele>254.0</ele><time>2026-04-04T06:25:55.951Z</time></trkpt><trkpt lat="45.6285017" lon="8.53185"><ele>254.0</ele><time>2026-04-04T06:25:56.951Z</time></trkpt><trkpt lat="45.6284683" lon="8.5316333"><ele>254.0</ele><time>2026-04-04T06:25:57.951Z</time></trkpt><trkpt lat="45.6284233" lon="8.5314067"><ele>254.0</ele><time>2026-04-04T06:25:58.951Z</time></trkpt><trkpt lat="45.62838" lon="8.5311767"><ele>254.0</ele><time>2026-04-04T06:25:59.951Z</time></trkpt><trkpt lat="45.6283367" lon="8.5309517"><ele>254.0</ele><time>2026-04-04T06:26:00.95Z</time></trkpt><trkpt lat="45.6282983" lon="8.5307283"><ele>254.0</ele><time>2026-04-04T06:26:01.951Z</time></trkpt><trkpt lat="45.6282567" lon="8.5305117"><ele>254.0</ele><time>2026-04-04T06:26:02.95Z</time></trkpt><trkpt lat="45.62821" lon="8.5302917"><ele>255.0</ele><time>2026-04-04T06:26:03.951Z</time></trkpt><trkpt lat="45.6281583" lon="8.5300667"><ele>256.0</ele><time>2026-04-04T06:26:04.951Z</time></trkpt><trkpt lat="45.6280967" lon="8.5298533"><ele>257.0</ele><time>2026-04-04T06:26:05.951Z</time></trkpt><trkpt lat="45.6280183" lon="8.5296517"><ele>257.0</ele><time>2026-04-04T06:26:06.951Z</time></trkpt><trkpt lat="45.6279283" lon="8.5294517"><ele>257.0</ele><time>2026-04-04T06:26:07.951Z</time></trkpt><trkpt lat="45.6278317" lon="8.5292717"><ele>257.0</ele><time>2026-04-04T06:26:08.95Z</time></trkpt><trkpt lat="45.627735" lon="8.5291067"><ele>257.0</ele><time>2026-04-04T06:26:09.95Z</time></trkpt><trkpt lat="45.6276383" lon="8.528945"><ele>257.0</ele><time>2026-04-04T06:26:10.951Z</time></trkpt><trkpt lat="45.62752" lon="8.5287983"><ele>257.0</ele><time>2026-04-04T06:26:11.951Z</time></trkpt><trkpt lat="45.6273933" lon="8.5286533"><ele>257.0</ele><time>2026-04-04T06:26:12.951Z</time></trkpt><trkpt lat="45.62725" lon="8.528495"><ele>257.0</ele><time>2026-04-04T06:26:13.951Z</time></trkpt><trkpt lat="45.6270817" lon="8.528325"><ele>257.0</ele><time>2026-04-04T06:26:14.951Z</time></trkpt><trkpt lat="45.6269" lon="8.5281433"><ele>254.5</ele><time>2026-04-04T06:26:15.951Z</time></trkpt><trkpt lat="45.6267017" lon="8.5279617"><ele>252.0</ele><time>2026-04-04T06:26:16.951Z</time></trkpt><trkpt lat="45.626505" lon="8.5277783"><ele>252.0</ele><time>2026-04-04T06:26:17.951Z</time></trkpt><trkpt lat="45.6263083" lon="8.5275967"><ele>252.0</ele><time>2026-04-04T06:26:18.951Z</time></trkpt><trkpt lat="45.6261083" lon="8.5274183"><ele>252.5</ele><time>2026-04-04T06:26:19.951Z</time></trkpt><trkpt lat="45.6259083" lon="8.52722"><ele>253.0</ele><time>2026-04-04T06:26:20.951Z</time></trkpt><trkpt lat="45.6257117" lon="8.527025"><ele>253.0</ele><time>2026-04-04T06:26:21.951Z</time></trkpt><trkpt lat="45.625515" lon="8.526815"><ele>253.0</ele><time>2026-04-04T06:26:22.951Z</time></trkpt><trkpt lat="45.6253033" lon="8.52661"><ele>251.5</ele><time>2026-04-04T06:26:23.951Z</time></trkpt><trkpt lat="45.625095" lon="8.5264133"><ele>250.0</ele><time>2026-04-04T06:26:24.951Z</time></trkpt><trkpt lat="45.6248883" lon="8.52621"><ele>250.0</ele><time>2026-04-04T06:26:25.951Z</time></trkpt><trkpt lat="45.624685" lon="8.5260067"><ele>250.0</ele><time>2026-04-04T06:26:26.951Z</time></trkpt><trkpt lat="45.6244883" lon="8.525795"><ele>248.5</ele><time>2026-04-04T06:26:27.951Z</time></trkpt><trkpt lat="45.62429" lon="8.5255883"><ele>247.0</ele><time>2026-04-04T06:26:28.951Z</time></trkpt><trkpt lat="45.624085" lon="8.525385"><ele>246.5</ele><time>2026-04-04T06:26:29.951Z</time></trkpt><trkpt lat="45.6238833" lon="8.5251817"><ele>246.0</ele><time>2026-04-04T06:26:30.95Z</time></trkpt><trkpt lat="45.6236917" lon="8.52499"><ele>246.66666666666669</ele><time>2026-04-04T06:26:31.951Z</time></trkpt><trkpt lat="45.623515" lon="8.52481"><ele>247.33333333333334</ele><time>2026-04-04T06:26:32.951Z</time></trkpt><trkpt lat="45.623355" lon="8.5246267"><ele>248.0</ele><time>2026-04-04T06:26:33.951Z</time></trkpt><trkpt lat="45.6232083" lon="8.5244333"><ele>248.0</ele><time>2026-04-04T06:26:34.951Z</time></trkpt><trkpt lat="45.6230567" lon="8.5242133"><ele>248.0</ele><time>2026-04-04T06:26:35.951Z</time></trkpt><trkpt lat="45.62291" lon="8.5239917"><ele>248.0</ele><time>2026-04-04T06:26:36.951Z</time></trkpt><trkpt lat="45.62275" lon="8.5237683"><ele>248.0</ele><time>2026-04-04T06:26:37.951Z</time></trkpt><trkpt lat="45.6225883" lon="8.5235533"><ele>248.0</ele><time>2026-04-04T06:26:38.951Z</time></trkpt><trkpt lat="45.622415" lon="8.52332"><ele>248.0</ele><time>2026-04-04T06:26:39.951Z</time></trkpt><trkpt lat="45.6222583" lon="8.5230833"><ele>248.0</ele><time>2026-04-04T06:26:40.951Z</time></trkpt><trkpt lat="45.6221133" lon="8.5228733"><ele>248.0</ele><time>2026-04-04T06:26:41.951Z</time></trkpt><trkpt lat="45.6219967" lon="8.5226783"><ele>246.66666666666669</ele><time>2026-04-04T06:26:42.951Z</time></trkpt><trkpt lat="45.6218933" lon="8.5224817"><ele>245.33333333333331</ele><time>2026-04-04T06:26:43.951Z</time></trkpt><trkpt lat="45.6218067" lon="8.5223033"><ele>244.0</ele><time>2026-04-04T06:26:44.951Z</time></trkpt><trkpt lat="45.6217217" lon="8.5221333"><ele>244.5</ele><time>2026-04-04T06:26:45.951Z</time></trkpt><trkpt lat="45.621635" lon="8.5219667"><ele>245.0</ele><time>2026-04-04T06:26:46.951Z</time></trkpt><trkpt lat="45.6215567" lon="8.5218117"><ele>245.5</ele><time>2026-04-04T06:26:47.951Z</time></trkpt><trkpt lat="45.62149" lon="8.5216767"><ele>246.0</ele><time>2026-04-04T06:26:48.951Z</time></trkpt><trkpt lat="45.6214317" lon="8.5215583"><ele>246.0</ele><time>2026-04-04T06:26:49.951Z</time></trkpt><trkpt lat="45.6213733" lon="8.5214417"><ele>246.00000000000003</ele><time>2026-04-04T06:26:50.951Z</time></trkpt><trkpt lat="45.6213133" lon="8.52133"><ele>246.00000000000003</ele><time>2026-04-04T06:26:51.951Z</time></trkpt><trkpt lat="45.6212567" lon="8.52121"><ele>246.0</ele><time>2026-04-04T06:26:52.95Z</time></trkpt><trkpt lat="45.6211983" lon="8.5210867"><ele>246.0</ele><time>2026-04-04T06:26:53.951Z</time></trkpt><trkpt lat="45.62114" lon="8.5209567"><ele>246.0</ele><time>2026-04-04T06:26:54.951Z</time></trkpt><trkpt lat="45.6210833" lon="8.5208433"><ele>246.0</ele><time>2026-04-04T06:26:55.951Z</time></trkpt><trkpt lat="45.6210267" lon="8.5207333"><ele>246.0</ele><time>2026-04-04T06:26:56.951Z</time></trkpt><trkpt lat="45.62098" lon="8.52064"><ele>246.0</ele><time>2026-04-04T06:26:57.951Z</time></trkpt><trkpt lat="45.6209383" lon="8.5205533"><ele>246.0</ele><time>2026-04-04T06:26:58.951Z</time></trkpt><trkpt lat="45.6208967" lon="8.52047"><ele>246.0</ele><time>2026-04-04T06:26:59.951Z</time></trkpt><trkpt lat="45.6208533" lon="8.520395"><ele>246.4</ele><time>2026-04-04T06:27:00.951Z</time></trkpt><trkpt lat="45.620795" lon="8.5202617"><ele>246.8</ele><time>2026-04-04T06:27:02.951Z</time></trkpt><trkpt lat="45.6207583" lon="8.5201517"><ele>247.20000000000002</ele><time>2026-04-04T06:27:04.951Z</time></trkpt><trkpt lat="45.6207033" lon="8.5200483"><ele>247.60000000000002</ele><time>2026-04-04T06:27:06.95Z</time></trkpt><trkpt lat="45.6206417" lon="8.51997"><ele>248.0</ele><time>2026-04-04T06:27:08.951Z</time></trkpt><trkpt lat="45.6205817" lon="8.5198833"><ele>248.00000000000003</ele><time>2026-04-04T06:27:10.951Z</time></trkpt><trkpt lat="45.6205483" lon="8.5198"><ele>248.0</ele><time>2026-04-04T06:27:12.951Z</time></trkpt><trkpt lat="45.6205133" lon="8.5197233"><ele>248.0</ele><time>2026-04-04T06:28:17.951Z</time></trkpt><trkpt lat="45.6204617" lon="8.5195733"><ele>248.0</ele><time>2026-04-04T06:28:19.951Z</time></trkpt><trkpt lat="45.6204183" lon="8.5194683"><ele>248.00000000000003</ele><time>2026-04-04T06:28:20.951Z</time></trkpt><trkpt lat="45.6203767" lon="8.519355"><ele>248.0</ele><time>2026-04-04T06:28:21.951Z</time></trkpt><trkpt lat="45.6203383" lon="8.5192483"><ele>247.5</ele><time>2026-04-04T06:28:22.951Z</time></trkpt><trkpt lat="45.6203" lon="8.5190983"><ele>247.0</ele><time>2026-04-04T06:28:23.951Z</time></trkpt><trkpt lat="45.6202417" lon="8.5189167"><ele>246.5</ele><time>2026-04-04T06:28:24.951Z</time></trkpt><trkpt lat="45.6201683" lon="8.5187183"><ele>246.0</ele><time>2026-04-04T06:28:25.951Z</time></trkpt><trkpt lat="45.6200717" lon="8.5185367"><ele>245.66666666666669</ele><time>2026-04-04T06:28:26.95Z</time></trkpt><trkpt lat="45.619965" lon="8.5183583"><ele>245.33333333333334</ele><time>2026-04-04T06:28:27.951Z</time></trkpt><trkpt lat="45.6198433" lon="8.5181733"><ele>245.0</ele><time>2026-04-04T06:28:28.951Z</time></trkpt><trkpt lat="45.6197233" lon="8.51799"><ele>245.0</ele><time>2026-04-04T06:28:29.951Z</time></trkpt><trkpt lat="45.6196" lon="8.5178033"><ele>245.0</ele><time>2026-04-04T06:28:30.951Z</time></trkpt><trkpt lat="45.6194767" lon="8.5175967"><ele>245.0</ele><time>2026-04-04T06:28:31.951Z</time></trkpt><trkpt lat="45.61935" lon="8.5173817"><ele>245.0</ele><time>2026-04-04T06:28:32.951Z</time></trkpt><trkpt lat="45.6192417" lon="8.5171717"><ele>245.0</ele><time>2026-04-04T06:28:33.951Z</time></trkpt><trkpt lat="45.6191367" lon="8.5169533"><ele>245.0</ele><time>2026-04-04T06:28:34.951Z</time></trkpt><trkpt lat="45.6190483" lon="8.516765"><ele>245.0</ele><time>2026-04-04T06:28:35.951Z</time></trkpt><trkpt lat="45.6189717" lon="8.5166033"><ele>245.0</ele><time>2026-04-04T06:28:36.951Z</time></trkpt><trkpt lat="45.6189067" lon="8.51646"><ele>245.0</ele><time>2026-04-04T06:28:37.95Z</time></trkpt><trkpt lat="45.618855" lon="8.5163267"><ele>245.0</ele><time>2026-04-04T06:28:38.951Z</time></trkpt><trkpt lat="45.6188117" lon="8.5161967"><ele>245.00000000000003</ele><time>2026-04-04T06:28:39.951Z</time></trkpt><trkpt lat="45.6187767" lon="8.5160933"><ele>245.0</ele><time>2026-04-04T06:28:40.951Z</time></trkpt><trkpt lat="45.61874" lon="8.51596"><ele>245.0</ele><time>2026-04-04T06:28:42.951Z</time></trkpt><trkpt lat="45.6187217" lon="8.5158533"><ele>245.0</ele><time>2026-04-04T06:28:46.951Z</time></trkpt><trkpt lat="45.6187033" lon="8.5157433"><ele>245.00000000000003</ele><time>2026-04-04T06:28:48.951Z</time></trkpt><trkpt lat="45.6186617" lon="8.51564"><ele>245.0</ele><time>2026-04-04T06:28:49.951Z</time></trkpt><trkpt lat="45.6186233" lon="8.5155183"><ele>245.75</ele><time>2026-04-04T06:28:50.951Z</time></trkpt><trkpt lat="45.61857" lon="8.5153533"><ele>246.5</ele><time>2026-04-04T06:28:51.951Z</time></trkpt><trkpt lat="45.6185183" lon="8.515165"><ele>247.25</ele><time>2026-04-04T06:28:52.951Z</time></trkpt><trkpt lat="45.6184667" lon="8.5149633"><ele>248.0</ele><time>2026-04-04T06:28:53.951Z</time></trkpt><trkpt lat="45.6184" lon="8.514725"><ele>247.33333333333334</ele><time>2026-04-04T06:28:54.951Z</time></trkpt><trkpt lat="45.6183317" lon="8.51449"><ele>246.66666666666669</ele><time>2026-04-04T06:28:55.951Z</time></trkpt><trkpt lat="45.6182617" lon="8.5142433"><ele>246.0</ele><time>2026-04-04T06:28:56.951Z</time></trkpt><trkpt lat="45.618195" lon="8.51398"><ele>246.66666666666669</ele><time>2026-04-04T06:28:57.951Z</time></trkpt><trkpt lat="45.6181217" lon="8.513705"><ele>247.33333333333334</ele><time>2026-04-04T06:28:58.951Z</time></trkpt><trkpt lat="45.6180483" lon="8.5134283"><ele>248.0</ele><time>2026-04-04T06:28:59.951Z</time></trkpt><trkpt lat="45.6179717" lon="8.513155"><ele>247.66666666666669</ele><time>2026-04-04T06:29:00.951Z</time></trkpt><trkpt lat="45.6178933" lon="8.51287"><ele>247.33333333333331</ele><time>2026-04-04T06:29:01.951Z</time></trkpt><trkpt lat="45.6178167" lon="8.5126"><ele>247.0</ele><time>2026-04-04T06:29:02.951Z</time></trkpt><trkpt lat="45.61774" lon="8.51231"><ele>247.33333333333331</ele><time>2026-04-04T06:29:03.951Z</time></trkpt><trkpt lat="45.6176683" lon="8.512015"><ele>247.66666666666669</ele><time>2026-04-04T06:29:04.951Z</time></trkpt><trkpt lat="45.617595" lon="8.511735"><ele>248.0</ele><time>2026-04-04T06:29:05.95Z</time></trkpt><trkpt lat="45.61752" lon="8.5114417"><ele>248.33333333333334</ele><time>2026-04-04T06:29:06.951Z</time></trkpt><trkpt lat="45.6174433" lon="8.5111483"><ele>248.66666666666669</ele><time>2026-04-04T06:29:07.951Z</time></trkpt><trkpt lat="45.61737" lon="8.5108533"><ele>249.0</ele><time>2026-04-04T06:29:08.951Z</time></trkpt><trkpt lat="45.617295" lon="8.5105717"><ele>248.33333333333331</ele><time>2026-04-04T06:29:09.951Z</time></trkpt><trkpt lat="45.6172183" lon="8.5102933"><ele>247.66666666666666</ele><time>2026-04-04T06:29:10.951Z</time></trkpt><trkpt lat="45.6171317" lon="8.5100083"><ele>247.0</ele><time>2026-04-04T06:29:11.951Z</time></trkpt><trkpt lat="45.6170533" lon="8.5097233"><ele>247.66666666666666</ele><time>2026-04-04T06:29:12.951Z</time></trkpt><trkpt lat="45.616985" lon="8.5094367"><ele>248.33333333333331</ele><time>2026-04-04T06:29:13.951Z</time></trkpt><trkpt lat="45.6169183" lon="8.50916"><ele>249.0</ele><time>2026-04-04T06:29:14.951Z</time></trkpt><trkpt lat="45.6168367" lon="8.5088717"><ele>248.33333333333331</ele><time>2026-04-04T06:29:15.951Z</time></trkpt><trkpt lat="45.6167517" lon="8.50858"><ele>247.66666666666666</ele><time>2026-04-04T06:29:16.951Z</time></trkpt><trkpt lat="45.6166733" lon="8.5082933"><ele>247.0</ele><time>2026-04-04T06:29:17.951Z</time></trkpt><trkpt lat="45.6165967" lon="8.5079917"><ele>245.66666666666666</ele><time>2026-04-04T06:29:18.951Z</time></trkpt><trkpt lat="45.6165167" lon="8.5077017"><ele>244.33333333333331</ele><time>2026-04-04T06:29:19.951Z</time></trkpt><trkpt lat="45.6164417" lon="8.5073933"><ele>243.0</ele><time>2026-04-04T06:29:20.951Z</time></trkpt><trkpt lat="45.616365" lon="8.5070983"><ele>243.5</ele><time>2026-04-04T06:29:21.951Z</time></trkpt><trkpt lat="45.61627" lon="8.5067817"><ele>244.0</ele><time>2026-04-04T06:29:22.951Z</time></trkpt><trkpt lat="45.6161883" lon="8.5064867"><ele>245.5</ele><time>2026-04-04T06:29:23.951Z</time></trkpt><trkpt lat="45.6161067" lon="8.5061683"><ele>247.0</ele><time>2026-04-04T06:29:24.951Z</time></trkpt><trkpt lat="45.61603" lon="8.505855"><ele>247.0</ele><time>2026-04-04T06:29:25.951Z</time></trkpt><trkpt lat="45.6159383" lon="8.5055367"><ele>247.0</ele><time>2026-04-04T06:29:26.951Z</time></trkpt><trkpt lat="45.6158583" lon="8.50522"><ele>246.5</ele><time>2026-04-04T06:29:27.951Z</time></trkpt><trkpt lat="45.6157717" lon="8.5048983"><ele>246.0</ele><time>2026-04-04T06:29:28.95Z</time></trkpt><trkpt lat="45.6156833" lon="8.504575"><ele>247.0</ele><time>2026-04-04T06:29:29.951Z</time></trkpt><trkpt lat="45.6155983" lon="8.50426"><ele>248.0</ele><time>2026-04-04T06:29:30.951Z</time></trkpt><trkpt lat="45.6155217" lon="8.503935"><ele>248.0</ele><time>2026-04-04T06:29:31.951Z</time></trkpt><trkpt lat="45.6154467" lon="8.5036317"><ele>248.0</ele><time>2026-04-04T06:29:32.951Z</time></trkpt><trkpt lat="45.615375" lon="8.50335"><ele>248.0</ele><time>2026-04-04T06:29:33.951Z</time></trkpt><trkpt lat="45.6152917" lon="8.5030883"><ele>247.33333333333334</ele><time>2026-04-04T06:29:34.951Z</time></trkpt><trkpt lat="45.6152167" lon="8.5028433"><ele>246.66666666666669</ele><time>2026-04-04T06:29:35.951Z</time></trkpt><trkpt lat="45.6151483" lon="8.5025833"><ele>246.0</ele><time>2026-04-04T06:29:36.951Z</time></trkpt><trkpt lat="45.6150717" lon="8.5023133"><ele>244.33333333333331</ele><time>2026-04-04T06:29:37.951Z</time></trkpt><trkpt lat="45.61501" lon="8.5020417"><ele>242.66666666666666</ele><time>2026-04-04T06:29:38.951Z</time></trkpt><trkpt lat="45.6149333" lon="8.5017633"><ele>241.0</ele><time>2026-04-04T06:29:39.951Z</time></trkpt><trkpt lat="45.6148633" lon="8.50149"><ele>242.0</ele><time>2026-04-04T06:29:40.951Z</time></trkpt><trkpt lat="45.61479" lon="8.5012067"><ele>243.0</ele><time>2026-04-04T06:29:41.951Z</time></trkpt><trkpt lat="45.6147067" lon="8.50092"><ele>244.0</ele><time>2026-04-04T06:29:42.951Z</time></trkpt><trkpt lat="45.614615" lon="8.500635"><ele>244.0</ele><time>2026-04-04T06:29:43.951Z</time></trkpt><trkpt lat="45.614525" lon="8.5003583"><ele>244.0</ele><time>2026-04-04T06:29:44.951Z</time></trkpt><trkpt lat="45.6144133" lon="8.5000733"><ele>244.0</ele><time>2026-04-04T06:29:45.951Z</time></trkpt><trkpt lat="45.6143" lon="8.4997967"><ele>243.0</ele><time>2026-04-04T06:29:46.951Z</time></trkpt><trkpt lat="45.6141867" lon="8.4995117"><ele>242.0</ele><time>2026-04-04T06:29:47.95Z</time></trkpt><trkpt lat="45.6140733" lon="8.4992233"><ele>242.0</ele><time>2026-04-04T06:29:48.951Z</time></trkpt><trkpt lat="45.6139633" lon="8.4989317"><ele>242.0</ele><time>2026-04-04T06:29:49.95Z</time></trkpt><trkpt lat="45.6138583" lon="8.498625"><ele>242.0</ele><time>2026-04-04T06:29:50.951Z</time></trkpt><trkpt lat="45.613755" lon="8.4983283"><ele>242.0</ele><time>2026-04-04T06:29:51.951Z</time></trkpt><trkpt lat="45.6136417" lon="8.4980233"><ele>242.0</ele><time>2026-04-04T06:29:52.951Z</time></trkpt><trkpt lat="45.6135333" lon="8.49772"><ele>242.0</ele><time>2026-04-04T06:29:53.951Z</time></trkpt><trkpt lat="45.6134217" lon="8.4974017"><ele>242.0</ele><time>2026-04-04T06:29:54.951Z</time></trkpt><trkpt lat="45.6133183" lon="8.4970883"><ele>242.0</ele><time>2026-04-04T06:29:55.95Z</time></trkpt><trkpt lat="45.6132183" lon="8.49678"><ele>241.5</ele><time>2026-04-04T06:29:56.951Z</time></trkpt><trkpt lat="45.6131183" lon="8.49648"><ele>241.0</ele><time>2026-04-04T06:29:57.951Z</time></trkpt><trkpt lat="45.6130117" lon="8.4961883"><ele>241.0</ele><time>2026-04-04T06:29:58.951Z</time></trkpt><trkpt lat="45.61292" lon="8.49592"><ele>241.0</ele><time>2026-04-04T06:29:59.951Z</time></trkpt><trkpt lat="45.612845" lon="8.4956783"><ele>241.0</ele><time>2026-04-04T06:30:00.951Z</time></trkpt><trkpt lat="45.61277" lon="8.4954467"><ele>241.0</ele><time>2026-04-04T06:30:01.951Z</time></trkpt><trkpt lat="45.612705" lon="8.4952433"><ele>241.0</ele><time>2026-04-04T06:30:02.95Z</time></trkpt><trkpt lat="45.6126483" lon="8.4950733"><ele>241.0</ele><time>2026-04-04T06:30:03.951Z</time></trkpt><trkpt lat="45.6125933" lon="8.49491"><ele>241.0</ele><time>2026-04-04T06:30:04.951Z</time></trkpt><trkpt lat="45.6125483" lon="8.4947583"><ele>241.0</ele><time>2026-04-04T06:30:05.951Z</time></trkpt><trkpt lat="45.612515" lon="8.4946117"><ele>241.00000000000003</ele><time>2026-04-04T06:30:06.951Z</time></trkpt><trkpt lat="45.6124933" lon="8.494475"><ele>241.00000000000003</ele><time>2026-04-04T06:30:07.951Z</time></trkpt><trkpt lat="45.612485" lon="8.4943417"><ele>241.0</ele><time>2026-04-04T06:30:08.951Z</time></trkpt><trkpt lat="45.6124733" lon="8.494225"><ele>241.0</ele><time>2026-04-04T06:30:09.951Z</time></trkpt><trkpt lat="45.6124283" lon="8.4941033"><ele>241.0</ele><time>2026-04-04T06:30:10.951Z</time></trkpt><trkpt lat="45.612355" lon="8.4939867"><ele>241.0</ele><time>2026-04-04T06:30:11.951Z</time></trkpt><trkpt lat="45.6122817" lon="8.493855"><ele>241.0</ele><time>2026-04-04T06:30:12.951Z</time></trkpt><trkpt lat="45.612225" lon="8.4937017"><ele>241.0</ele><time>2026-04-04T06:30:13.951Z</time></trkpt><trkpt lat="45.6121817" lon="8.4935317"><ele>241.0</ele><time>2026-04-04T06:30:14.951Z</time></trkpt><trkpt lat="45.6121483" lon="8.49335"><ele>241.0</ele><time>2026-04-04T06:30:15.951Z</time></trkpt><trkpt lat="45.612135" lon="8.4931567"><ele>241.0</ele><time>2026-04-04T06:30:16.951Z</time></trkpt><trkpt lat="45.6121333" lon="8.4929667"><ele>241.0</ele><time>2026-04-04T06:30:17.951Z</time></trkpt><trkpt lat="45.6121217" lon="8.4927717"><ele>241.25</ele><time>2026-04-04T06:30:18.951Z</time></trkpt><trkpt lat="45.61212" lon="8.4925917"><ele>241.5</ele><time>2026-04-04T06:30:19.951Z</time></trkpt><trkpt lat="45.6121" lon="8.4924017"><ele>241.75</ele><time>2026-04-04T06:30:20.951Z</time></trkpt><trkpt lat="45.6120883" lon="8.4922"><ele>242.0</ele><time>2026-04-04T06:30:21.951Z</time></trkpt><trkpt lat="45.6120683" lon="8.492005"><ele>242.0</ele><time>2026-04-04T06:30:22.951Z</time></trkpt><trkpt lat="45.6120533" lon="8.491805"><ele>242.0</ele><time>2026-04-04T06:30:23.951Z</time></trkpt><trkpt lat="45.6120367" lon="8.4916"><ele>242.0</ele><time>2026-04-04T06:30:24.951Z</time></trkpt><trkpt lat="45.6120167" lon="8.4913933"><ele>242.0</ele><time>2026-04-04T06:30:25.951Z</time></trkpt><trkpt lat="45.6120017" lon="8.4911917"><ele>241.66666666666669</ele><time>2026-04-04T06:30:26.951Z</time></trkpt><trkpt lat="45.6119967" lon="8.4909767"><ele>241.33333333333331</ele><time>2026-04-04T06:30:27.951Z</time></trkpt><trkpt lat="45.6120017" lon="8.4907633"><ele>241.0</ele><time>2026-04-04T06:30:28.951Z</time></trkpt><trkpt lat="45.6120267" lon="8.4905317"><ele>241.66666666666666</ele><time>2026-04-04T06:30:29.951Z</time></trkpt><trkpt lat="45.612055" lon="8.4903083"><ele>242.33333333333331</ele><time>2026-04-04T06:30:30.951Z</time></trkpt><trkpt lat="45.61208" lon="8.49009"><ele>243.0</ele><time>2026-04-04T06:30:31.951Z</time></trkpt><trkpt lat="45.6120883" lon="8.4898717"><ele>243.0</ele><time>2026-04-04T06:30:32.951Z</time></trkpt><trkpt lat="45.6120683" lon="8.4896517"><ele>243.0</ele><time>2026-04-04T06:30:33.951Z</time></trkpt><trkpt lat="45.6120367" lon="8.489425"><ele>243.0</ele><time>2026-04-04T06:30:34.951Z</time></trkpt><trkpt lat="45.61198" lon="8.48921"><ele>243.0</ele><time>2026-04-04T06:30:35.95Z</time></trkpt><trkpt lat="45.61193" lon="8.4889917"><ele>243.0</ele><time>2026-04-04T06:30:36.95Z</time></trkpt><trkpt lat="45.611865" lon="8.488775"><ele>243.0</ele><time>2026-04-04T06:30:37.951Z</time></trkpt><trkpt lat="45.6118" lon="8.4885567"><ele>243.0</ele><time>2026-04-04T06:30:38.95Z</time></trkpt><trkpt lat="45.6117333" lon="8.4883367"><ele>243.0</ele><time>2026-04-04T06:30:39.951Z</time></trkpt><trkpt lat="45.6116883" lon="8.48811"><ele>243.0</ele><time>2026-04-04T06:30:40.951Z</time></trkpt><trkpt lat="45.6116183" lon="8.487875"><ele>243.0</ele><time>2026-04-04T06:30:41.951Z</time></trkpt><trkpt lat="45.611545" lon="8.4876433"><ele>243.0</ele><time>2026-04-04T06:30:42.951Z</time></trkpt><trkpt lat="45.6114667" lon="8.4874067"><ele>243.0</ele><time>2026-04-04T06:30:43.951Z</time></trkpt><trkpt lat="45.6114183" lon="8.48717"><ele>242.75</ele><time>2026-04-04T06:30:44.951Z</time></trkpt><trkpt lat="45.6113717" lon="8.486955"><ele>242.5</ele><time>2026-04-04T06:30:45.951Z</time></trkpt><trkpt lat="45.6113167" lon="8.48677"><ele>242.25</ele><time>2026-04-04T06:30:46.951Z</time></trkpt><trkpt lat="45.6112483" lon="8.4865833"><ele>242.0</ele><time>2026-04-04T06:30:47.951Z</time></trkpt><trkpt lat="45.61119" lon="8.48638"><ele>242.25</ele><time>2026-04-04T06:30:48.95Z</time></trkpt><trkpt lat="45.6111267" lon="8.4861917"><ele>242.5</ele><time>2026-04-04T06:30:49.951Z</time></trkpt><trkpt lat="45.611065" lon="8.4860017"><ele>242.75</ele><time>2026-04-04T06:30:50.951Z</time></trkpt><trkpt lat="45.611015" lon="8.4858033"><ele>243.0</ele><time>2026-04-04T06:30:51.951Z</time></trkpt><trkpt lat="45.6109467" lon="8.4855967"><ele>243.0</ele><time>2026-04-04T06:30:52.951Z</time></trkpt><trkpt lat="45.6108933" lon="8.4853883"><ele>243.0</ele><time>2026-04-04T06:30:53.951Z</time></trkpt><trkpt lat="45.6108417" lon="8.4851933"><ele>243.0</ele><time>2026-04-04T06:30:54.951Z</time></trkpt><trkpt lat="45.6107967" lon="8.4850033"><ele>243.0</ele><time>2026-04-04T06:30:55.951Z</time></trkpt><trkpt lat="45.6107283" lon="8.4848117"><ele>243.0</ele><time>2026-04-04T06:30:56.951Z</time></trkpt><trkpt lat="45.6106817" lon="8.48463"><ele>243.0</ele><time>2026-04-04T06:30:57.951Z</time></trkpt><trkpt lat="45.6106467" lon="8.4844667"><ele>243.0</ele><time>2026-04-04T06:30:58.951Z</time></trkpt><trkpt lat="45.610595" lon="8.484305"><ele>243.0</ele><time>2026-04-04T06:30:59.951Z</time></trkpt><trkpt lat="45.6105267" lon="8.4842067"><ele>243.4</ele><time>2026-04-04T06:31:00.951Z</time></trkpt><trkpt lat="45.6104783" lon="8.4840833"><ele>243.8</ele><time>2026-04-04T06:31:01.951Z</time></trkpt><trkpt lat="45.610425" lon="8.4839367"><ele>244.2</ele><time>2026-04-04T06:31:02.95Z</time></trkpt><trkpt lat="45.6103883" lon="8.4837633"><ele>244.6</ele><time>2026-04-04T06:31:03.951Z</time></trkpt><trkpt lat="45.61036" lon="8.4836333"><ele>245.0</ele><time>2026-04-04T06:31:04.951Z</time></trkpt><trkpt lat="45.6103333" lon="8.4835083"><ele>245.8</ele><time>2026-04-04T06:31:05.951Z</time></trkpt><trkpt lat="45.6103067" lon="8.4834083"><ele>246.6</ele><time>2026-04-04T06:31:06.951Z</time></trkpt><trkpt lat="45.6102617" lon="8.4832667"><ele>247.39999999999998</ele><time>2026-04-04T06:31:08.95Z</time></trkpt><trkpt lat="45.6102233" lon="8.48311"><ele>248.2</ele><time>2026-04-04T06:31:10.951Z</time></trkpt><trkpt lat="45.610185" lon="8.48303"><ele>249.0</ele><time>2026-04-04T06:31:11.951Z</time></trkpt><trkpt lat="45.6101133" lon="8.4829433"><ele>249.33333333333334</ele><time>2026-04-04T06:31:12.951Z</time></trkpt><trkpt lat="45.61004" lon="8.48286"><ele>249.66666666666669</ele><time>2026-04-04T06:31:13.951Z</time></trkpt><trkpt lat="45.6099817" lon="8.4827833"><ele>250.0</ele><time>2026-04-04T06:31:14.951Z</time></trkpt><trkpt lat="45.609915" lon="8.4827267"><ele>250.33333333333334</ele><time>2026-04-04T06:31:15.95Z</time></trkpt><trkpt lat="45.6098533" lon="8.4827017"><ele>250.66666666666669</ele><time>2026-04-04T06:31:16.951Z</time></trkpt><trkpt lat="45.6097783" lon="8.48275"><ele>251.0</ele><time>2026-04-04T06:31:17.951Z</time></trkpt><trkpt lat="45.6096817" lon="8.482865"><ele>251.25</ele><time>2026-04-04T06:31:18.951Z</time></trkpt><trkpt lat="45.6095733" lon="8.48298"><ele>251.5</ele><time>2026-04-04T06:31:19.951Z</time></trkpt><trkpt lat="45.6094667" lon="8.4830733"><ele>251.75</ele><time>2026-04-04T06:31:20.951Z</time></trkpt><trkpt lat="45.6093217" lon="8.4831933"><ele>252.0</ele><time>2026-04-04T06:31:21.951Z</time></trkpt><trkpt lat="45.6092233" lon="8.4832883"><ele>252.0</ele><time>2026-04-04T06:31:22.951Z</time></trkpt><trkpt lat="45.60914" lon="8.4833617"><ele>252.0</ele><time>2026-04-04T06:31:23.951Z</time></trkpt><trkpt lat="45.6090617" lon="8.4834133"><ele>252.0</ele><time>2026-04-04T06:31:24.951Z</time></trkpt><trkpt lat="45.6089733" lon="8.483465"><ele>252.0</ele><time>2026-04-04T06:31:25.951Z</time></trkpt><trkpt lat="45.6088967" lon="8.4835033"><ele>252.0</ele><time>2026-04-04T06:31:26.951Z</time></trkpt><trkpt lat="45.6087883" lon="8.483555"><ele>252.0</ele><time>2026-04-04T06:31:28.95Z</time></trkpt><trkpt lat="45.6087217" lon="8.4834583"><ele>252.0</ele><time>2026-04-04T06:31:30.951Z</time></trkpt><trkpt lat="45.60867" lon="8.4833217"><ele>252.0</ele><time>2026-04-04T06:31:32.951Z</time></trkpt><trkpt lat="45.6086467" lon="8.483185"><ele>252.0</ele><time>2026-04-04T06:31:34.951Z</time></trkpt><trkpt lat="45.6086317" lon="8.483085"><ele>252.0</ele><time>2026-04-04T06:31:36.951Z</time></trkpt><trkpt lat="45.6086283" lon="8.482975"><ele>252.33333333333334</ele><time>2026-04-04T06:31:39.951Z</time></trkpt><trkpt lat="45.6085983" lon="8.482865"><ele>252.66666666666669</ele><time>2026-04-04T06:31:41.951Z</time></trkpt><trkpt lat="45.6085633" lon="8.48271"><ele>253.0</ele><time>2026-04-04T06:31:44.951Z</time></trkpt><trkpt lat="45.60859" lon="8.4825717"><ele>253.33333333333334</ele><time>2026-04-04T06:31:46.951Z</time></trkpt><trkpt lat="45.6086283" lon="8.4824983"><ele>253.66666666666669</ele><time>2026-04-04T06:31:47.951Z</time></trkpt><trkpt lat="45.6086717" lon="8.4824233"><ele>254.0</ele><time>2026-04-04T06:31:48.951Z</time></trkpt><trkpt lat="45.6087117" lon="8.482315"><ele>254.0</ele><time>2026-04-04T06:31:49.951Z</time></trkpt><trkpt lat="45.6087483" lon="8.4821833"><ele>253.99999999999997</ele><time>2026-04-04T06:31:50.951Z</time></trkpt><trkpt lat="45.6088033" lon="8.4820567"><ele>253.99999999999997</ele><time>2026-04-04T06:31:51.951Z</time></trkpt><trkpt lat="45.60887" lon="8.481925"><ele>254.0</ele><time>2026-04-04T06:31:52.951Z</time></trkpt><trkpt lat="45.6089383" lon="8.4817667"><ele>254.0</ele><time>2026-04-04T06:31:53.951Z</time></trkpt><trkpt lat="45.60902" lon="8.4816033"><ele>256.25</ele><time>2026-04-04T06:31:54.95Z</time></trkpt><trkpt lat="45.6090967" lon="8.481455"><ele>258.5</ele><time>2026-04-04T06:31:55.95Z</time></trkpt><trkpt lat="45.6091667" lon="8.4813017"><ele>260.75</ele><time>2026-04-04T06:31:56.951Z</time></trkpt><trkpt lat="45.6092317" lon="8.48115"><ele>263.0</ele><time>2026-04-04T06:31:57.951Z</time></trkpt><trkpt lat="45.6092967" lon="8.4809967"><ele>266.75</ele><time>2026-04-04T06:31:58.951Z</time></trkpt><trkpt lat="45.6093483" lon="8.480845"><ele>270.5</ele><time>2026-04-04T06:31:59.951Z</time></trkpt><trkpt lat="45.6093883" lon="8.4806967"><ele>274.25</ele><time>2026-04-04T06:32:00.951Z</time></trkpt><trkpt lat="45.609435" lon="8.4805533"><ele>278.0</ele><time>2026-04-04T06:32:01.95Z</time></trkpt><trkpt lat="45.6094933" lon="8.4804067"><ele>279.0</ele><time>2026-04-04T06:32:02.951Z</time></trkpt><trkpt lat="45.6095583" lon="8.4802633"><ele>280.0</ele><time>2026-04-04T06:32:03.951Z</time></trkpt><trkpt lat="45.609625" lon="8.480125"><ele>281.0</ele><time>2026-04-04T06:32:04.951Z</time></trkpt><trkpt lat="45.6096933" lon="8.4799767"><ele>282.0</ele><time>2026-04-04T06:32:05.951Z</time></trkpt><trkpt lat="45.6097583" lon="8.4798283"><ele>282.0</ele><time>2026-04-04T06:32:06.951Z</time></trkpt><trkpt lat="45.609825" lon="8.479685"><ele>282.0</ele><time>2026-04-04T06:32:07.951Z</time></trkpt><trkpt lat="45.6099017" lon="8.47954"><ele>282.0</ele><time>2026-04-04T06:32:08.951Z</time></trkpt><trkpt lat="45.6099783" lon="8.4794017"><ele>282.0</ele><time>2026-04-04T06:32:09.951Z</time></trkpt><trkpt lat="45.6100617" lon="8.4792633"><ele>283.25</ele><time>2026-04-04T06:32:10.951Z</time></trkpt><trkpt lat="45.610145" lon="8.4791233"><ele>284.5</ele><time>2026-04-04T06:32:11.951Z</time></trkpt><trkpt lat="45.61023" lon="8.4789867"><ele>285.75</ele><time>2026-04-04T06:32:12.951Z</time></trkpt><trkpt lat="45.610315" lon="8.4788683"><ele>287.0</ele><time>2026-04-04T06:32:13.951Z</time></trkpt><trkpt lat="45.6103967" lon="8.478765"><ele>287.5</ele><time>2026-04-04T06:32:14.95Z</time></trkpt><trkpt lat="45.6104833" lon="8.4786733"><ele>288.0</ele><time>2026-04-04T06:32:15.951Z</time></trkpt><trkpt lat="45.6105867" lon="8.4786167"><ele>288.5</ele><time>2026-04-04T06:32:16.951Z</time></trkpt><trkpt lat="45.610695" lon="8.478565"><ele>289.0</ele><time>2026-04-04T06:32:17.951Z</time></trkpt><trkpt lat="45.61081" lon="8.4785333"><ele>289.0</ele><time>2026-04-04T06:32:18.951Z</time></trkpt><trkpt lat="45.6109083" lon="8.478485"><ele>289.0</ele><time>2026-04-04T06:32:19.951Z</time></trkpt><trkpt lat="45.610995" lon="8.4784133"><ele>289.0</ele><time>2026-04-04T06:32:20.95Z</time></trkpt><trkpt lat="45.61107" lon="8.47831"><ele>289.0</ele><time>2026-04-04T06:32:21.951Z</time></trkpt><trkpt lat="45.611135" lon="8.4781833"><ele>289.0</ele><time>2026-04-04T06:32:22.951Z</time></trkpt><trkpt lat="45.61119" lon="8.4780533"><ele>290.0</ele><time>2026-04-04T06:32:23.951Z</time></trkpt><trkpt lat="45.6112383" lon="8.4779083"><ele>291.0</ele><time>2026-04-04T06:32:24.951Z</time></trkpt><trkpt lat="45.6112817" lon="8.4777617"><ele>292.0</ele><time>2026-04-04T06:32:25.951Z</time></trkpt><trkpt lat="45.61133" lon="8.4776283"><ele>293.0</ele><time>2026-04-04T06:32:26.951Z</time></trkpt><trkpt lat="45.6113717" lon="8.47751"><ele>294.0</ele><time>2026-04-04T06:32:27.951Z</time></trkpt><trkpt lat="45.611405" lon="8.4774067"><ele>294.0</ele><time>2026-04-04T06:32:28.951Z</time></trkpt><trkpt lat="45.611435" lon="8.47732"><ele>294.0</ele><time>2026-04-04T06:32:29.951Z</time></trkpt><trkpt lat="45.6114683" lon="8.4772217"><ele>294.0</ele><time>2026-04-04T06:32:30.951Z</time></trkpt><trkpt lat="45.6115133" lon="8.4771"><ele>294.0</ele><time>2026-04-04T06:32:31.951Z</time></trkpt><trkpt lat="45.6115667" lon="8.47696"><ele>294.0</ele><time>2026-04-04T06:32:32.951Z</time></trkpt><trkpt lat="45.6116167" lon="8.4768117"><ele>293.59999999999997</ele><time>2026-04-04T06:32:33.951Z</time></trkpt><trkpt lat="45.61167" lon="8.476675"><ele>293.2</ele><time>2026-04-04T06:32:34.951Z</time></trkpt><trkpt lat="45.6117167" lon="8.476535"><ele>292.79999999999995</ele><time>2026-04-04T06:32:35.951Z</time></trkpt><trkpt lat="45.6117617" lon="8.4763833"><ele>292.4</ele><time>2026-04-04T06:32:36.951Z</time></trkpt><trkpt lat="45.611795" lon="8.476225"><ele>292.0</ele><time>2026-04-04T06:32:37.951Z</time></trkpt><trkpt lat="45.6118117" lon="8.47605"><ele>291.5</ele><time>2026-04-04T06:32:38.951Z</time></trkpt><trkpt lat="45.6118367" lon="8.4758567"><ele>291.0</ele><time>2026-04-04T06:32:39.951Z</time></trkpt><trkpt lat="45.61185" lon="8.4756533"><ele>290.5</ele><time>2026-04-04T06:32:40.951Z</time></trkpt><trkpt lat="45.611855" lon="8.4754383"><ele>290.0</ele><time>2026-04-04T06:32:41.951Z</time></trkpt><trkpt lat="45.6118583" lon="8.47522"><ele>290.0</ele><time>2026-04-04T06:32:42.951Z</time></trkpt><trkpt lat="45.611855" lon="8.4750017"><ele>290.0</ele><time>2026-04-04T06:32:43.951Z</time></trkpt><trkpt lat="45.6118417" lon="8.4747933"><ele>290.0</ele><time>2026-04-04T06:32:44.951Z</time></trkpt><trkpt lat="45.611835" lon="8.4745967"><ele>290.0</ele><time>2026-04-04T06:32:45.951Z</time></trkpt><trkpt lat="45.6118283" lon="8.4744067"><ele>290.25</ele><time>2026-04-04T06:32:46.951Z</time></trkpt><trkpt lat="45.6118283" lon="8.4742167"><ele>290.5</ele><time>2026-04-04T06:32:47.951Z</time></trkpt><trkpt lat="45.6118317" lon="8.4740267"><ele>290.75</ele><time>2026-04-04T06:32:48.951Z</time></trkpt><trkpt lat="45.6118533" lon="8.473835"><ele>291.0</ele><time>2026-04-04T06:32:49.951Z</time></trkpt><trkpt lat="45.611895" lon="8.4736433"><ele>291.5</ele><time>2026-04-04T06:32:50.951Z</time></trkpt><trkpt lat="45.6119483" lon="8.47345"><ele>292.0</ele><time>2026-04-04T06:32:51.951Z</time></trkpt><trkpt lat="45.6119983" lon="8.4732617"><ele>292.5</ele><time>2026-04-04T06:32:52.951Z</time></trkpt><trkpt lat="45.6120517" lon="8.4731033"><ele>293.0</ele><time>2026-04-04T06:32:53.951Z</time></trkpt><trkpt lat="45.6121183" lon="8.4729533"><ele>293.5</ele><time>2026-04-04T06:32:54.951Z</time></trkpt><trkpt lat="45.6121883" lon="8.4728117"><ele>294.0</ele><time>2026-04-04T06:32:55.951Z</time></trkpt><trkpt lat="45.61227" lon="8.4726933"><ele>294.5</ele><time>2026-04-04T06:32:56.951Z</time></trkpt><trkpt lat="45.6123667" lon="8.4725683"><ele>295.0</ele><time>2026-04-04T06:32:57.951Z</time></trkpt><trkpt lat="45.6124617" lon="8.4724467"><ele>295.0</ele><time>2026-04-04T06:32:58.951Z</time></trkpt><trkpt lat="45.6125533" lon="8.4723067"><ele>295.0</ele><time>2026-04-04T06:32:59.951Z</time></trkpt><trkpt lat="45.61264" lon="8.4721683"><ele>295.0</ele><time>2026-04-04T06:33:00.951Z</time></trkpt><trkpt lat="45.6127233" lon="8.4720267"><ele>295.0</ele><time>2026-04-04T06:33:01.951Z</time></trkpt><trkpt lat="45.6127983" lon="8.4718833"><ele>295.0</ele><time>2026-04-04T06:33:02.951Z</time></trkpt><trkpt lat="45.61288" lon="8.4717517"><ele>295.0</ele><time>2026-04-04T06:33:03.951Z</time></trkpt><trkpt lat="45.61296" lon="8.4716067"><ele>295.0</ele><time>2026-04-04T06:33:04.951Z</time></trkpt><trkpt lat="45.6130483" lon="8.4714467"><ele>295.0</ele><time>2026-04-04T06:33:05.951Z</time></trkpt><trkpt lat="45.6131367" lon="8.471275"><ele>295.0</ele><time>2026-04-04T06:33:06.951Z</time></trkpt><trkpt lat="45.61322" lon="8.4710783"><ele>295.0</ele><time>2026-04-04T06:33:07.951Z</time></trkpt><trkpt lat="45.6132983" lon="8.4708517"><ele>295.0</ele><time>2026-04-04T06:33:08.951Z</time></trkpt><trkpt lat="45.6133717" lon="8.4706133"><ele>293.0</ele><time>2026-04-04T06:33:09.951Z</time></trkpt><trkpt lat="45.6134333" lon="8.4703767"><ele>291.0</ele><time>2026-04-04T06:33:10.951Z</time></trkpt><trkpt lat="45.6135083" lon="8.4701433"><ele>289.0</ele><time>2026-04-04T06:33:11.951Z</time></trkpt><trkpt lat="45.613595" lon="8.46993"><ele>289.0</ele><time>2026-04-04T06:33:12.951Z</time></trkpt><trkpt lat="45.6136767" lon="8.46972"><ele>289.0</ele><time>2026-04-04T06:33:13.951Z</time></trkpt><trkpt lat="45.6137433" lon="8.4695167"><ele>289.0</ele><time>2026-04-04T06:33:14.951Z</time></trkpt><trkpt lat="45.6138083" lon="8.4693133"><ele>288.0</ele><time>2026-04-04T06:33:15.951Z</time></trkpt><trkpt lat="45.613875" lon="8.469085"><ele>287.0</ele><time>2026-04-04T06:33:16.951Z</time></trkpt><trkpt lat="45.6139417" lon="8.4688567"><ele>286.0</ele><time>2026-04-04T06:33:17.951Z</time></trkpt><trkpt lat="45.614005" lon="8.468615"><ele>286.0</ele><time>2026-04-04T06:33:18.951Z</time></trkpt><trkpt lat="45.6140583" lon="8.4683583"><ele>286.0</ele><time>2026-04-04T06:33:19.951Z</time></trkpt><trkpt lat="45.6141033" lon="8.4680917"><ele>286.0</ele><time>2026-04-04T06:33:20.95Z</time></trkpt><trkpt lat="45.6141283" lon="8.4678117"><ele>286.66666666666663</ele><time>2026-04-04T06:33:21.951Z</time></trkpt><trkpt lat="45.614165" lon="8.467535"><ele>287.3333333333333</ele><time>2026-04-04T06:33:22.951Z</time></trkpt><trkpt lat="45.6142" lon="8.46726"><ele>288.0</ele><time>2026-04-04T06:33:23.951Z</time></trkpt><trkpt lat="45.6142417" lon="8.4669833"><ele>290.0</ele><time>2026-04-04T06:33:24.951Z</time></trkpt><trkpt lat="45.6142817" lon="8.4667017"><ele>292.0</ele><time>2026-04-04T06:33:25.951Z</time></trkpt><trkpt lat="45.6143467" lon="8.4664233"><ele>294.0</ele><time>2026-04-04T06:33:26.951Z</time></trkpt><trkpt lat="45.6144383" lon="8.465955"><ele>294.75</ele><time>2026-04-04T06:33:28.951Z</time></trkpt><trkpt lat="45.61448" lon="8.4657717"><ele>295.5</ele><time>2026-04-04T06:33:29.951Z</time></trkpt><trkpt lat="45.614525" lon="8.4656133"><ele>296.25</ele><time>2026-04-04T06:33:30.951Z</time></trkpt><trkpt lat="45.6145817" lon="8.4654717"><ele>297.0</ele><time>2026-04-04T06:33:31.951Z</time></trkpt><trkpt lat="45.6146533" lon="8.4653467"><ele>297.2</ele><time>2026-04-04T06:33:32.951Z</time></trkpt><trkpt lat="45.6147367" lon="8.465235"><ele>297.4</ele><time>2026-04-04T06:33:33.951Z</time></trkpt><trkpt lat="45.61483" lon="8.4651417"><ele>297.6</ele><time>2026-04-04T06:33:34.951Z</time></trkpt><trkpt lat="45.614915" lon="8.4650533"><ele>297.8</ele><time>2026-04-04T06:33:35.951Z</time></trkpt><trkpt lat="45.6150017" lon="8.4649533"><ele>298.0</ele><time>2026-04-04T06:33:36.951Z</time></trkpt><trkpt lat="45.615085" lon="8.4648417"><ele>298.0</ele><time>2026-04-04T06:33:37.951Z</time></trkpt><trkpt lat="45.6151583" lon="8.4647083"><ele>298.0</ele><time>2026-04-04T06:33:38.951Z</time></trkpt><trkpt lat="45.6152133" lon="8.4645467"><ele>298.0</ele><time>2026-04-04T06:33:39.951Z</time></trkpt><trkpt lat="45.61524" lon="8.4643567"><ele>298.0</ele><time>2026-04-04T06:33:40.951Z</time></trkpt><trkpt lat="45.6152683" lon="8.464165"><ele>298.0</ele><time>2026-04-04T06:33:41.951Z</time></trkpt><trkpt lat="45.615285" lon="8.4639417"><ele>298.0</ele><time>2026-04-04T06:33:42.951Z</time></trkpt><trkpt lat="45.6153033" lon="8.4637"><ele>298.0</ele><time>2026-04-04T06:33:43.951Z</time></trkpt><trkpt lat="45.6153217" lon="8.4634483"><ele>298.3333333333333</ele><time>2026-04-04T06:33:44.95Z</time></trkpt><trkpt lat="45.6153383" lon="8.4631817"><ele>298.6666666666667</ele><time>2026-04-04T06:33:45.951Z</time></trkpt><trkpt lat="45.6153633" lon="8.4629133"><ele>299.0</ele><time>2026-04-04T06:33:46.951Z</time></trkpt><trkpt lat="45.6153917" lon="8.462615"><ele>298.33333333333337</ele><time>2026-04-04T06:33:47.951Z</time></trkpt><trkpt lat="45.61543" lon="8.462305"><ele>297.6666666666667</ele><time>2026-04-04T06:33:48.951Z</time></trkpt><trkpt lat="45.6154717" lon="8.4619933"><ele>297.0</ele><time>2026-04-04T06:33:49.951Z</time></trkpt><trkpt lat="45.6155033" lon="8.4616683"><ele>296.6666666666667</ele><time>2026-04-04T06:33:50.951Z</time></trkpt><trkpt lat="45.61552" lon="8.46135"><ele>296.33333333333337</ele><time>2026-04-04T06:33:51.951Z</time></trkpt><trkpt lat="45.6155267" lon="8.4610517"><ele>296.0</ele><time>2026-04-04T06:33:52.951Z</time></trkpt><trkpt lat="45.6155383" lon="8.46077"><ele>296.33333333333337</ele><time>2026-04-04T06:33:53.951Z</time></trkpt><trkpt lat="45.6155617" lon="8.4605267"><ele>296.6666666666667</ele><time>2026-04-04T06:33:54.951Z</time></trkpt><trkpt lat="45.6155733" lon="8.4603133"><ele>297.0</ele><time>2026-04-04T06:33:55.951Z</time></trkpt><trkpt lat="45.6155933" lon="8.460115"><ele>297.0</ele><time>2026-04-04T06:33:56.951Z</time></trkpt><trkpt lat="45.615635" lon="8.4599233"><ele>297.0</ele><time>2026-04-04T06:33:57.951Z</time></trkpt><trkpt lat="45.615705" lon="8.4597433"><ele>297.0</ele><time>2026-04-04T06:33:58.951Z</time></trkpt><trkpt lat="45.6157517" lon="8.45957"><ele>297.0</ele><time>2026-04-04T06:33:59.951Z</time></trkpt><trkpt lat="45.615765" lon="8.4593683"><ele>297.3333333333333</ele><time>2026-04-04T06:34:00.951Z</time></trkpt><trkpt lat="45.6157517" lon="8.45914"><ele>297.66666666666663</ele><time>2026-04-04T06:34:01.951Z</time></trkpt><trkpt lat="45.6157367" lon="8.4588883"><ele>298.0</ele><time>2026-04-04T06:34:02.951Z</time></trkpt><trkpt lat="45.6157267" lon="8.45861"><ele>298.3333333333333</ele><time>2026-04-04T06:34:03.95Z</time></trkpt><trkpt lat="45.615715" lon="8.45832"><ele>298.6666666666667</ele><time>2026-04-04T06:34:04.951Z</time></trkpt><trkpt lat="45.615705" lon="8.45802"><ele>299.0</ele><time>2026-04-04T06:34:05.951Z</time></trkpt><trkpt lat="45.6156967" lon="8.4577217"><ele>299.0</ele><time>2026-04-04T06:34:06.951Z</time></trkpt><trkpt lat="45.6156783" lon="8.4574067"><ele>299.0</ele><time>2026-04-04T06:34:07.951Z</time></trkpt><trkpt lat="45.615655" lon="8.457095"><ele>299.0</ele><time>2026-04-04T06:34:08.951Z</time></trkpt><trkpt lat="45.6156317" lon="8.4567867"><ele>299.5</ele><time>2026-04-04T06:34:09.951Z</time></trkpt><trkpt lat="45.6156183" lon="8.4564617"><ele>300.0</ele><time>2026-04-04T06:34:10.951Z</time></trkpt><trkpt lat="45.615605" lon="8.45614"><ele>300.0</ele><time>2026-04-04T06:34:11.951Z</time></trkpt><trkpt lat="45.615585" lon="8.45582"><ele>300.0</ele><time>2026-04-04T06:34:12.951Z</time></trkpt><trkpt lat="45.6155667" lon="8.4554883"><ele>301.0</ele><time>2026-04-04T06:34:13.951Z</time></trkpt><trkpt lat="45.6155483" lon="8.4551633"><ele>302.0</ele><time>2026-04-04T06:34:14.95Z</time></trkpt><trkpt lat="45.6155433" lon="8.454835"><ele>303.0</ele><time>2026-04-04T06:34:15.951Z</time></trkpt><trkpt lat="45.6155383" lon="8.4545"><ele>304.0</ele><time>2026-04-04T06:34:16.951Z</time></trkpt><trkpt lat="45.615535" lon="8.4541583"><ele>304.0</ele><time>2026-04-04T06:34:17.951Z</time></trkpt><trkpt lat="45.6155333" lon="8.4538117"><ele>304.0</ele><time>2026-04-04T06:34:18.951Z</time></trkpt><trkpt lat="45.61553" lon="8.4534633"><ele>303.5</ele><time>2026-04-04T06:34:19.951Z</time></trkpt><trkpt lat="45.6155367" lon="8.4531083"><ele>303.0</ele><time>2026-04-04T06:34:20.951Z</time></trkpt><trkpt lat="45.6155417" lon="8.4527567"><ele>303.0</ele><time>2026-04-04T06:34:21.951Z</time></trkpt><trkpt lat="45.61554" lon="8.4523967"><ele>303.0</ele><time>2026-04-04T06:34:22.951Z</time></trkpt><trkpt lat="45.6155367" lon="8.4520383"><ele>302.5</ele><time>2026-04-04T06:34:23.951Z</time></trkpt><trkpt lat="45.615535" lon="8.4516883"><ele>302.0</ele><time>2026-04-04T06:34:24.951Z</time></trkpt><trkpt lat="45.6155467" lon="8.4513733"><ele>301.6666666666667</ele><time>2026-04-04T06:34:25.951Z</time></trkpt><trkpt lat="45.6155417" lon="8.4510867"><ele>301.3333333333333</ele><time>2026-04-04T06:34:26.951Z</time></trkpt><trkpt lat="45.6155383" lon="8.45084"><ele>301.0</ele><time>2026-04-04T06:34:27.951Z</time></trkpt><trkpt lat="45.615535" lon="8.4506283"><ele>301.3333333333333</ele><time>2026-04-04T06:34:28.951Z</time></trkpt><trkpt lat="45.6155183" lon="8.450415"><ele>301.6666666666667</ele><time>2026-04-04T06:34:29.951Z</time></trkpt><trkpt lat="45.61548" lon="8.4502067"><ele>302.0</ele><time>2026-04-04T06:34:30.95Z</time></trkpt><trkpt lat="45.6154133" lon="8.450005"><ele>302.0</ele><time>2026-04-04T06:34:31.951Z</time></trkpt><trkpt lat="45.6153217" lon="8.4498183"><ele>302.0</ele><time>2026-04-04T06:34:32.951Z</time></trkpt><trkpt lat="45.6152033" lon="8.4496633"><ele>302.0</ele><time>2026-04-04T06:34:33.951Z</time></trkpt><trkpt lat="45.61503" lon="8.4495433"><ele>302.33333333333337</ele><time>2026-04-04T06:34:34.951Z</time></trkpt><trkpt lat="45.614835" lon="8.4494133"><ele>302.6666666666667</ele><time>2026-04-04T06:34:35.951Z</time></trkpt><trkpt lat="45.6146533" lon="8.4492683"><ele>303.0</ele><time>2026-04-04T06:34:36.951Z</time></trkpt><trkpt lat="45.6144967" lon="8.4491017"><ele>301.6666666666667</ele><time>2026-04-04T06:34:37.951Z</time></trkpt><trkpt lat="45.6143733" lon="8.448905"><ele>300.33333333333337</ele><time>2026-04-04T06:34:38.951Z</time></trkpt><trkpt lat="45.6142683" lon="8.4487133"><ele>299.0</ele><time>2026-04-04T06:34:39.951Z</time></trkpt><trkpt lat="45.614195" lon="8.4484667"><ele>299.0</ele><time>2026-04-04T06:34:40.951Z</time></trkpt><trkpt lat="45.61416" lon="8.4481833"><ele>299.0</ele><time>2026-04-04T06:34:41.951Z</time></trkpt><trkpt lat="45.6141583" lon="8.4479067"><ele>299.0</ele><time>2026-04-04T06:34:42.95Z</time></trkpt><trkpt lat="45.614165" lon="8.44762"><ele>298.33333333333337</ele><time>2026-04-04T06:34:43.951Z</time></trkpt><trkpt lat="45.6141767" lon="8.447355"><ele>297.6666666666667</ele><time>2026-04-04T06:34:44.95Z</time></trkpt><trkpt lat="45.6141783" lon="8.447115"><ele>297.0</ele><time>2026-04-04T06:34:45.95Z</time></trkpt><trkpt lat="45.6141767" lon="8.44689"><ele>296.6666666666667</ele><time>2026-04-04T06:34:46.951Z</time></trkpt><trkpt lat="45.6141267" lon="8.4466767"><ele>296.33333333333337</ele><time>2026-04-04T06:34:47.95Z</time></trkpt><trkpt lat="45.61405" lon="8.4465033"><ele>296.0</ele><time>2026-04-04T06:34:48.951Z</time></trkpt><trkpt lat="45.6139383" lon="8.4463433"><ele>295.0</ele><time>2026-04-04T06:34:49.951Z</time></trkpt><trkpt lat="45.6138217" lon="8.4462133"><ele>294.0</ele><time>2026-04-04T06:34:50.951Z</time></trkpt><trkpt lat="45.6137133" lon="8.44608"><ele>293.0</ele><time>2026-04-04T06:34:51.95Z</time></trkpt><trkpt lat="45.6136283" lon="8.445935"><ele>292.0</ele><time>2026-04-04T06:34:52.951Z</time></trkpt><trkpt lat="45.6135617" lon="8.445745"><ele>290.3333333333333</ele><time>2026-04-04T06:34:53.951Z</time></trkpt><trkpt lat="45.6135333" lon="8.445525"><ele>288.6666666666667</ele><time>2026-04-04T06:34:54.95Z</time></trkpt><trkpt lat="45.6135333" lon="8.4452617"><ele>287.0</ele><time>2026-04-04T06:34:55.951Z</time></trkpt><trkpt lat="45.6135567" lon="8.4449717"><ele>285.6666666666667</ele><time>2026-04-04T06:34:56.951Z</time></trkpt><trkpt lat="45.61356" lon="8.444665"><ele>284.3333333333333</ele><time>2026-04-04T06:34:57.951Z</time></trkpt><trkpt lat="45.6135617" lon="8.4443533"><ele>283.0</ele><time>2026-04-04T06:34:58.951Z</time></trkpt><trkpt lat="45.61357" lon="8.4440367"><ele>283.0</ele><time>2026-04-04T06:34:59.951Z</time></trkpt><trkpt lat="45.613575" lon="8.4437233"><ele>283.0</ele><time>2026-04-04T06:35:00.951Z</time></trkpt><trkpt lat="45.6135883" lon="8.4434"><ele>283.0</ele><time>2026-04-04T06:35:01.951Z</time></trkpt><trkpt lat="45.6135967" lon="8.4430717"><ele>286.5</ele><time>2026-04-04T06:35:02.951Z</time></trkpt><trkpt lat="45.61361" lon="8.4427417"><ele>290.0</ele><time>2026-04-04T06:35:03.951Z</time></trkpt><trkpt lat="45.6136333" lon="8.4424167"><ele>292.33333333333337</ele><time>2026-04-04T06:35:04.951Z</time></trkpt><trkpt lat="45.6136433" lon="8.4421083"><ele>294.6666666666667</ele><time>2026-04-04T06:35:05.951Z</time></trkpt><trkpt lat="45.6136483" lon="8.4418217"><ele>297.0</ele><time>2026-04-04T06:35:06.951Z</time></trkpt><trkpt lat="45.6136317" lon="8.4415317"><ele>297.6666666666667</ele><time>2026-04-04T06:35:07.951Z</time></trkpt><trkpt lat="45.6136" lon="8.4412683"><ele>298.33333333333337</ele><time>2026-04-04T06:35:08.951Z</time></trkpt><trkpt lat="45.6135367" lon="8.4410017"><ele>299.0</ele><time>2026-04-04T06:35:09.951Z</time></trkpt><trkpt lat="45.613445" lon="8.440715"><ele>300.0</ele><time>2026-04-04T06:35:10.95Z</time></trkpt><trkpt lat="45.6133417" lon="8.4404167"><ele>301.0</ele><time>2026-04-04T06:35:11.951Z</time></trkpt><trkpt lat="45.6132" lon="8.4401517"><ele>301.0</ele><time>2026-04-04T06:35:12.95Z</time></trkpt><trkpt lat="45.6130683" lon="8.4398867"><ele>301.0</ele><time>2026-04-04T06:35:13.951Z</time></trkpt><trkpt lat="45.6129267" lon="8.4396117"><ele>299.5</ele><time>2026-04-04T06:35:14.95Z</time></trkpt><trkpt lat="45.61279" lon="8.4393283"><ele>298.0</ele><time>2026-04-04T06:35:15.951Z</time></trkpt><trkpt lat="45.6126683" lon="8.4390117"><ele>296.5</ele><time>2026-04-04T06:35:16.951Z</time></trkpt><trkpt lat="45.6125667" lon="8.438705"><ele>295.0</ele><time>2026-04-04T06:35:17.951Z</time></trkpt><trkpt lat="45.61248" lon="8.4383883"><ele>295.0</ele><time>2026-04-04T06:35:18.951Z</time></trkpt><trkpt lat="45.6124183" lon="8.4380583"><ele>295.0</ele><time>2026-04-04T06:35:19.951Z</time></trkpt><trkpt lat="45.61237" lon="8.4377233"><ele>296.5</ele><time>2026-04-04T06:35:20.951Z</time></trkpt><trkpt lat="45.6123367" lon="8.4373817"><ele>298.0</ele><time>2026-04-04T06:35:21.951Z</time></trkpt><trkpt lat="45.612315" lon="8.4370383"><ele>298.0</ele><time>2026-04-04T06:35:22.951Z</time></trkpt><trkpt lat="45.6123017" lon="8.4366883"><ele>298.0</ele><time>2026-04-04T06:35:23.951Z</time></trkpt><trkpt lat="45.6122783" lon="8.4363417"><ele>296.5</ele><time>2026-04-04T06:35:24.951Z</time></trkpt><trkpt lat="45.61225" lon="8.43598"><ele>295.0</ele><time>2026-04-04T06:35:25.951Z</time></trkpt><trkpt lat="45.612225" lon="8.4356183"><ele>296.5</ele><time>2026-04-04T06:35:26.951Z</time></trkpt><trkpt lat="45.6122067" lon="8.4352567"><ele>298.0</ele><time>2026-04-04T06:35:27.951Z</time></trkpt><trkpt lat="45.612185" lon="8.4349183"><ele>298.5</ele><time>2026-04-04T06:35:28.951Z</time></trkpt><trkpt lat="45.6121317" lon="8.4345983"><ele>299.0</ele><time>2026-04-04T06:35:29.95Z</time></trkpt><trkpt lat="45.6120617" lon="8.4343"><ele>297.6666666666667</ele><time>2026-04-04T06:35:30.951Z</time></trkpt><trkpt lat="45.6119683" lon="8.4340167"><ele>296.3333333333333</ele><time>2026-04-04T06:35:31.951Z</time></trkpt><trkpt lat="45.61185" lon="8.4337667"><ele>295.0</ele><time>2026-04-04T06:35:32.951Z</time></trkpt><trkpt lat="45.6117283" lon="8.433565"><ele>294.66666666666663</ele><time>2026-04-04T06:35:33.951Z</time></trkpt><trkpt lat="45.6115983" lon="8.43338"><ele>294.3333333333333</ele><time>2026-04-04T06:35:34.951Z</time></trkpt><trkpt lat="45.6114633" lon="8.43321"><ele>294.0</ele><time>2026-04-04T06:35:35.951Z</time></trkpt><trkpt lat="45.6113283" lon="8.4330483"><ele>294.0</ele><time>2026-04-04T06:35:36.951Z</time></trkpt><trkpt lat="45.6112183" lon="8.43286"><ele>294.0</ele><time>2026-04-04T06:35:37.951Z</time></trkpt><trkpt lat="45.6111317" lon="8.4326367"><ele>294.0</ele><time>2026-04-04T06:35:38.951Z</time></trkpt><trkpt lat="45.6110433" lon="8.432405"><ele>294.0</ele><time>2026-04-04T06:35:39.951Z</time></trkpt><trkpt lat="45.61098" lon="8.43214"><ele>294.0</ele><time>2026-04-04T06:35:40.951Z</time></trkpt><trkpt lat="45.6109183" lon="8.431865"><ele>294.0</ele><time>2026-04-04T06:35:41.951Z</time></trkpt><trkpt lat="45.6108317" lon="8.4316017"><ele>293.0</ele><time>2026-04-04T06:35:42.951Z</time></trkpt><trkpt lat="45.6107033" lon="8.4313533"><ele>292.0</ele><time>2026-04-04T06:35:43.951Z</time></trkpt><trkpt lat="45.6105517" lon="8.4311233"><ele>291.0</ele><time>2026-04-04T06:35:44.951Z</time></trkpt><trkpt lat="45.6103883" lon="8.4308933"><ele>286.5</ele><time>2026-04-04T06:35:45.951Z</time></trkpt><trkpt lat="45.6102117" lon="8.4306583"><ele>282.0</ele><time>2026-04-04T06:35:46.951Z</time></trkpt><trkpt lat="45.6100483" lon="8.4304067"><ele>278.6666666666667</ele><time>2026-04-04T06:35:47.951Z</time></trkpt><trkpt lat="45.6099117" lon="8.43015"><ele>275.33333333333337</ele><time>2026-04-04T06:35:48.951Z</time></trkpt><trkpt lat="45.60979" lon="8.4299117"><ele>272.0</ele><time>2026-04-04T06:35:49.95Z</time></trkpt><trkpt lat="45.60969" lon="8.4296667"><ele>271.33333333333337</ele><time>2026-04-04T06:35:50.951Z</time></trkpt><trkpt lat="45.6095983" lon="8.429435"><ele>270.6666666666667</ele><time>2026-04-04T06:35:51.95Z</time></trkpt><trkpt lat="45.6095267" lon="8.429185"><ele>270.0</ele><time>2026-04-04T06:35:52.951Z</time></trkpt><trkpt lat="45.6094617" lon="8.4289083"><ele>269.6666666666667</ele><time>2026-04-04T06:35:53.951Z</time></trkpt><trkpt lat="45.6094" lon="8.4286017"><ele>269.33333333333337</ele><time>2026-04-04T06:35:54.951Z</time></trkpt><trkpt lat="45.6093383" lon="8.4282967"><ele>269.0</ele><time>2026-04-04T06:35:55.951Z</time></trkpt><trkpt lat="45.6092883" lon="8.427975"><ele>269.0</ele><time>2026-04-04T06:35:56.951Z</time></trkpt><trkpt lat="45.6092383" lon="8.427645"><ele>269.0</ele><time>2026-04-04T06:35:57.951Z</time></trkpt><trkpt lat="45.609195" lon="8.4273067"><ele>268.0</ele><time>2026-04-04T06:35:58.95Z</time></trkpt><trkpt lat="45.609155" lon="8.42696"><ele>267.0</ele><time>2026-04-04T06:35:59.951Z</time></trkpt><trkpt lat="45.6091133" lon="8.4266083"><ele>267.0</ele><time>2026-04-04T06:36:00.95Z</time></trkpt><trkpt lat="45.6090683" lon="8.4262483"><ele>267.0</ele><time>2026-04-04T06:36:01.95Z</time></trkpt><trkpt lat="45.60903" lon="8.4258817"><ele>267.0</ele><time>2026-04-04T06:36:02.951Z</time></trkpt><trkpt lat="45.6090033" lon="8.4255133"><ele>267.0</ele><time>2026-04-04T06:36:03.951Z</time></trkpt><trkpt lat="45.6089867" lon="8.4251667"><ele>272.0</ele><time>2026-04-04T06:36:04.951Z</time></trkpt><trkpt lat="45.6089767" lon="8.42485"><ele>277.0</ele><time>2026-04-04T06:36:05.951Z</time></trkpt><trkpt lat="45.6089267" lon="8.4245467"><ele>282.0</ele><time>2026-04-04T06:36:06.951Z</time></trkpt><trkpt lat="45.6088483" lon="8.4242817"><ele>283.6666666666667</ele><time>2026-04-04T06:36:07.951Z</time></trkpt><trkpt lat="45.608735" lon="8.42404"><ele>285.33333333333337</ele><time>2026-04-04T06:36:08.951Z</time></trkpt><trkpt lat="45.6085983" lon="8.4238283"><ele>287.0</ele><time>2026-04-04T06:36:09.951Z</time></trkpt><trkpt lat="45.60842" lon="8.4236317"><ele>287.0</ele><time>2026-04-04T06:36:10.951Z</time></trkpt><trkpt lat="45.6082417" lon="8.4234033"><ele>287.0</ele><time>2026-04-04T06:36:11.951Z</time></trkpt><trkpt lat="45.608085" lon="8.4231583"><ele>287.33333333333337</ele><time>2026-04-04T06:36:12.951Z</time></trkpt><trkpt lat="45.607945" lon="8.4229067"><ele>287.6666666666667</ele><time>2026-04-04T06:36:13.951Z</time></trkpt><trkpt lat="45.6078233" lon="8.42267"><ele>288.0</ele><time>2026-04-04T06:36:14.951Z</time></trkpt><trkpt lat="45.607695" lon="8.422435"><ele>288.3333333333333</ele><time>2026-04-04T06:36:15.951Z</time></trkpt><trkpt lat="45.60757" lon="8.42222"><ele>288.66666666666663</ele><time>2026-04-04T06:36:16.951Z</time></trkpt><trkpt lat="45.6074433" lon="8.422025"><ele>289.0</ele><time>2026-04-04T06:36:17.951Z</time></trkpt><trkpt lat="45.607295" lon="8.42187"><ele>284.66666666666663</ele><time>2026-04-04T06:36:18.951Z</time></trkpt><trkpt lat="45.6071267" lon="8.421765"><ele>280.3333333333333</ele><time>2026-04-04T06:36:19.951Z</time></trkpt><trkpt lat="45.6069383" lon="8.421685"><ele>276.0</ele><time>2026-04-04T06:36:20.951Z</time></trkpt><trkpt lat="45.606715" lon="8.4216533"><ele>271.0</ele><time>2026-04-04T06:36:21.951Z</time></trkpt><trkpt lat="45.6064917" lon="8.42165"><ele>266.0</ele><time>2026-04-04T06:36:22.951Z</time></trkpt><trkpt lat="45.606265" lon="8.4216567"><ele>263.0</ele><time>2026-04-04T06:36:23.951Z</time></trkpt><trkpt lat="45.6060367" lon="8.4216733"><ele>260.0</ele><time>2026-04-04T06:36:24.951Z</time></trkpt><trkpt lat="45.6058367" lon="8.42168"><ele>257.0</ele><time>2026-04-04T06:36:25.951Z</time></trkpt><trkpt lat="45.605645" lon="8.4216683"><ele>257.0</ele><time>2026-04-04T06:36:26.951Z</time></trkpt><trkpt lat="45.60547" lon="8.4216583"><ele>257.0</ele><time>2026-04-04T06:36:27.951Z</time></trkpt><trkpt lat="45.6053067" lon="8.421635"><ele>257.0</ele><time>2026-04-04T06:36:28.951Z</time></trkpt><trkpt lat="45.6051583" lon="8.4215867"><ele>255.75</ele><time>2026-04-04T06:36:29.951Z</time></trkpt><trkpt lat="45.6050233" lon="8.4215167"><ele>254.5</ele><time>2026-04-04T06:36:30.951Z</time></trkpt><trkpt lat="45.604895" lon="8.421435"><ele>253.25</ele><time>2026-04-04T06:36:31.951Z</time></trkpt><trkpt lat="45.604775" lon="8.4213517"><ele>252.0</ele><time>2026-04-04T06:36:32.951Z</time></trkpt><trkpt lat="45.6046783" lon="8.4212717"><ele>251.6</ele><time>2026-04-04T06:36:33.951Z</time></trkpt><trkpt lat="45.6045917" lon="8.42118"><ele>251.2</ele><time>2026-04-04T06:36:34.95Z</time></trkpt><trkpt lat="45.60453" lon="8.4210917"><ele>250.8</ele><time>2026-04-04T06:36:35.951Z</time></trkpt><trkpt lat="45.604485" lon="8.4209467"><ele>250.4</ele><time>2026-04-04T06:36:37.95Z</time></trkpt><trkpt lat="45.6045317" lon="8.4207717"><ele>250.0</ele><time>2026-04-04T06:36:39.95Z</time></trkpt><trkpt lat="45.6046" lon="8.4206267"><ele>249.33333333333331</ele><time>2026-04-04T06:36:40.951Z</time></trkpt><trkpt lat="45.604675" lon="8.42043"><ele>248.66666666666669</ele><time>2026-04-04T06:36:41.951Z</time></trkpt><trkpt lat="45.6047567" lon="8.420205"><ele>248.0</ele><time>2026-04-04T06:36:42.951Z</time></trkpt><trkpt lat="45.6048317" lon="8.41997"><ele>248.0</ele><time>2026-04-04T06:36:43.951Z</time></trkpt><trkpt lat="45.6049233" lon="8.4197067"><ele>248.0</ele><time>2026-04-04T06:36:44.95Z</time></trkpt><trkpt lat="45.605015" lon="8.4194433"><ele>248.0</ele><time>2026-04-04T06:36:45.951Z</time></trkpt><trkpt lat="45.605125" lon="8.4191617"><ele>247.66666666666669</ele><time>2026-04-04T06:36:46.951Z</time></trkpt><trkpt lat="45.6052217" lon="8.4188767"><ele>247.33333333333331</ele><time>2026-04-04T06:36:47.951Z</time></trkpt><trkpt lat="45.60532" lon="8.418595"><ele>247.0</ele><time>2026-04-04T06:36:48.951Z</time></trkpt><trkpt lat="45.6054233" lon="8.4183283"><ele>247.0</ele><time>2026-04-04T06:36:49.95Z</time></trkpt><trkpt lat="45.6055217" lon="8.4180467"><ele>247.0</ele><time>2026-04-04T06:36:50.951Z</time></trkpt><trkpt lat="45.6056217" lon="8.417765"><ele>247.0</ele><time>2026-04-04T06:36:51.951Z</time></trkpt><trkpt lat="45.60572" lon="8.4174867"><ele>247.0</ele><time>2026-04-04T06:36:52.951Z</time></trkpt><trkpt lat="45.6058217" lon="8.4172067"><ele>247.0</ele><time>2026-04-04T06:36:53.951Z</time></trkpt><trkpt lat="45.6059167" lon="8.4169283"><ele>247.0</ele><time>2026-04-04T06:36:54.951Z</time></trkpt><trkpt lat="45.60601" lon="8.416655"><ele>247.66666666666666</ele><time>2026-04-04T06:36:55.951Z</time></trkpt><trkpt lat="45.6061017" lon="8.41639"><ele>248.33333333333331</ele><time>2026-04-04T06:36:56.951Z</time></trkpt><trkpt lat="45.6061883" lon="8.4161383"><ele>249.0</ele><time>2026-04-04T06:36:57.951Z</time></trkpt><trkpt lat="45.606275" lon="8.4158917"><ele>249.0</ele><time>2026-04-04T06:36:58.951Z</time></trkpt><trkpt lat="45.60636" lon="8.4156533"><ele>249.0</ele><time>2026-04-04T06:36:59.951Z</time></trkpt><trkpt lat="45.60645" lon="8.4154083"><ele>249.0</ele><time>2026-04-04T06:37:00.95Z</time></trkpt><trkpt lat="45.6065367" lon="8.4151633"><ele>249.0</ele><time>2026-04-04T06:37:01.951Z</time></trkpt><trkpt lat="45.6066283" lon="8.414915"><ele>249.0</ele><time>2026-04-04T06:37:02.951Z</time></trkpt><trkpt lat="45.6067167" lon="8.4146667"><ele>249.0</ele><time>2026-04-04T06:37:03.951Z</time></trkpt><trkpt lat="45.6068067" lon="8.41443"><ele>249.33333333333331</ele><time>2026-04-04T06:37:04.951Z</time></trkpt><trkpt lat="45.6069" lon="8.4142017"><ele>249.66666666666666</ele><time>2026-04-04T06:37:05.951Z</time></trkpt><trkpt lat="45.6069767" lon="8.413995"><ele>250.0</ele><time>2026-04-04T06:37:06.951Z</time></trkpt><trkpt lat="45.6070567" lon="8.4138317"><ele>250.4</ele><time>2026-04-04T06:37:07.951Z</time></trkpt><trkpt lat="45.607135" lon="8.4136983"><ele>250.8</ele><time>2026-04-04T06:37:08.951Z</time></trkpt><trkpt lat="45.6072233" lon="8.413595"><ele>251.2</ele><time>2026-04-04T06:37:09.95Z</time></trkpt><trkpt lat="45.6073167" lon="8.4135233"><ele>251.6</ele><time>2026-04-04T06:37:10.951Z</time></trkpt><trkpt lat="45.6074083" lon="8.4134633"><ele>252.0</ele><time>2026-04-04T06:37:11.951Z</time></trkpt><trkpt lat="45.607475" lon="8.4133817"><ele>252.0</ele><time>2026-04-04T06:37:12.951Z</time></trkpt><trkpt lat="45.6075133" lon="8.4132717"><ele>252.0</ele><time>2026-04-04T06:37:13.951Z</time></trkpt><trkpt lat="45.6075183" lon="8.413155"><ele>252.0</ele><time>2026-04-04T06:37:14.951Z</time></trkpt><trkpt lat="45.60751" lon="8.4130017"><ele>252.0</ele><time>2026-04-04T06:37:15.951Z</time></trkpt><trkpt lat="45.607515" lon="8.41285"><ele>252.0</ele><time>2026-04-04T06:37:16.951Z</time></trkpt><trkpt lat="45.607555" lon="8.4127333"><ele>251.75</ele><time>2026-04-04T06:37:17.951Z</time></trkpt><trkpt lat="45.6076433" lon="8.4126483"><ele>251.5</ele><time>2026-04-04T06:37:18.951Z</time></trkpt><trkpt lat="45.60775" lon="8.412555"><ele>251.25</ele><time>2026-04-04T06:37:19.951Z</time></trkpt><trkpt lat="45.6078833" lon="8.4124417"><ele>251.0</ele><time>2026-04-04T06:37:20.951Z</time></trkpt><trkpt lat="45.608025" lon="8.4123117"><ele>251.33333333333334</ele><time>2026-04-04T06:37:21.951Z</time></trkpt><trkpt lat="45.60817" lon="8.412175"><ele>251.66666666666669</ele><time>2026-04-04T06:37:22.951Z</time></trkpt><trkpt lat="45.6083183" lon="8.4120383"><ele>252.0</ele><time>2026-04-04T06:37:23.951Z</time></trkpt><trkpt lat="45.6084533" lon="8.4119133"><ele>252.0</ele><time>2026-04-04T06:37:24.951Z</time></trkpt><trkpt lat="45.6085733" lon="8.411815"><ele>252.0</ele><time>2026-04-04T06:37:25.951Z</time></trkpt><trkpt lat="45.6086833" lon="8.4117233"><ele>252.0</ele><time>2026-04-04T06:37:26.951Z</time></trkpt><trkpt lat="45.608795" lon="8.4116217"><ele>252.0</ele><time>2026-04-04T06:37:27.951Z</time></trkpt><trkpt lat="45.6089083" lon="8.411515"><ele>252.0</ele><time>2026-04-04T06:37:28.951Z</time></trkpt><trkpt lat="45.6090267" lon="8.4114083"><ele>252.0</ele><time>2026-04-04T06:37:29.951Z</time></trkpt><trkpt lat="45.609145" lon="8.4112983"><ele>252.0</ele><time>2026-04-04T06:37:30.951Z</time></trkpt><trkpt lat="45.6092717" lon="8.41119"><ele>252.0</ele><time>2026-04-04T06:37:31.95Z</time></trkpt><trkpt lat="45.6093917" lon="8.4110867"><ele>252.0</ele><time>2026-04-04T06:37:32.951Z</time></trkpt><trkpt lat="45.6095167" lon="8.41098"><ele>252.0</ele><time>2026-04-04T06:37:33.951Z</time></trkpt><trkpt lat="45.6096367" lon="8.4108633"><ele>252.0</ele><time>2026-04-04T06:37:34.951Z</time></trkpt><trkpt lat="45.6097633" lon="8.410745"><ele>252.0</ele><time>2026-04-04T06:37:35.951Z</time></trkpt><trkpt lat="45.609895" lon="8.41063"><ele>252.0</ele><time>2026-04-04T06:37:36.951Z</time></trkpt><trkpt lat="45.6100183" lon="8.4105167"><ele>252.0</ele><time>2026-04-04T06:37:37.951Z</time></trkpt><trkpt lat="45.6101383" lon="8.410415"><ele>252.0</ele><time>2026-04-04T06:37:38.951Z</time></trkpt><trkpt lat="45.6102583" lon="8.4103133"><ele>252.0</ele><time>2026-04-04T06:37:39.951Z</time></trkpt><trkpt lat="45.6103767" lon="8.4102083"><ele>253.0</ele><time>2026-04-04T06:37:40.951Z</time></trkpt><trkpt lat="45.6104833" lon="8.41011"><ele>254.0</ele><time>2026-04-04T06:37:41.951Z</time></trkpt><trkpt lat="45.6106383" lon="8.4100133"><ele>255.0</ele><time>2026-04-04T06:37:42.951Z</time></trkpt><trkpt lat="45.6107683" lon="8.40989"><ele>255.0</ele><time>2026-04-04T06:37:43.951Z</time></trkpt><trkpt lat="45.610905" lon="8.4097583"><ele>255.0</ele><time>2026-04-04T06:37:44.95Z</time></trkpt><trkpt lat="45.61104" lon="8.4096283"><ele>255.0</ele><time>2026-04-04T06:37:45.951Z</time></trkpt><trkpt lat="45.611175" lon="8.4095"><ele>254.0</ele><time>2026-04-04T06:37:46.951Z</time></trkpt><trkpt lat="45.6113133" lon="8.409375"><ele>253.0</ele><time>2026-04-04T06:37:47.951Z</time></trkpt><trkpt lat="45.6114417" lon="8.4092617"><ele>252.0</ele><time>2026-04-04T06:37:48.951Z</time></trkpt><trkpt lat="45.61156" lon="8.409155"><ele>252.0</ele><time>2026-04-04T06:37:49.951Z</time></trkpt><trkpt lat="45.6116767" lon="8.409045"><ele>252.0</ele><time>2026-04-04T06:37:50.951Z</time></trkpt><trkpt lat="45.6117917" lon="8.4089333"><ele>252.0</ele><time>2026-04-04T06:37:51.951Z</time></trkpt><trkpt lat="45.6118917" lon="8.4088333"><ele>252.0</ele><time>2026-04-04T06:37:52.951Z</time></trkpt><trkpt lat="45.6119867" lon="8.4087483"><ele>252.2</ele><time>2026-04-04T06:37:53.951Z</time></trkpt><trkpt lat="45.6120867" lon="8.408665"><ele>252.39999999999998</ele><time>2026-04-04T06:37:54.951Z</time></trkpt><trkpt lat="45.6121767" lon="8.40859"><ele>252.60000000000002</ele><time>2026-04-04T06:37:55.951Z</time></trkpt><trkpt lat="45.612265" lon="8.40852"><ele>252.8</ele><time>2026-04-04T06:37:56.951Z</time></trkpt><trkpt lat="45.6123583" lon="8.4084583"><ele>253.0</ele><time>2026-04-04T06:37:57.951Z</time></trkpt><trkpt lat="45.612465" lon="8.408425"><ele>253.0</ele><time>2026-04-04T06:37:58.951Z</time></trkpt><trkpt lat="45.61258" lon="8.4084167"><ele>253.0</ele><time>2026-04-04T06:37:59.951Z</time></trkpt><trkpt lat="45.6127" lon="8.4084067"><ele>253.0</ele><time>2026-04-04T06:38:00.951Z</time></trkpt><trkpt lat="45.6128083" lon="8.408375"><ele>253.0</ele><time>2026-04-04T06:38:01.951Z</time></trkpt><trkpt lat="45.61291" lon="8.4083017"><ele>253.75</ele><time>2026-04-04T06:38:02.951Z</time></trkpt><trkpt lat="45.61298" lon="8.4081733"><ele>254.5</ele><time>2026-04-04T06:38:03.951Z</time></trkpt><trkpt lat="45.61303" lon="8.40802"><ele>255.25</ele><time>2026-04-04T06:38:04.951Z</time></trkpt><trkpt lat="45.613075" lon="8.407865"><ele>256.0</ele><time>2026-04-04T06:38:05.951Z</time></trkpt><trkpt lat="45.6131417" lon="8.4077367"><ele>256.25</ele><time>2026-04-04T06:38:06.951Z</time></trkpt><trkpt lat="45.613235" lon="8.4076383"><ele>256.5</ele><time>2026-04-04T06:38:07.951Z</time></trkpt><trkpt lat="45.61333" lon="8.4075417"><ele>256.75</ele><time>2026-04-04T06:38:08.951Z</time></trkpt><trkpt lat="45.61343" lon="8.40745"><ele>257.0</ele><time>2026-04-04T06:38:09.951Z</time></trkpt><trkpt lat="45.613535" lon="8.4073617"><ele>257.0</ele><time>2026-04-04T06:38:10.951Z</time></trkpt><trkpt lat="45.6136383" lon="8.40727"><ele>257.0</ele><time>2026-04-04T06:38:11.95Z</time></trkpt><trkpt lat="45.6137467" lon="8.4071783"><ele>257.0</ele><time>2026-04-04T06:38:12.951Z</time></trkpt><trkpt lat="45.6138583" lon="8.407085"><ele>257.0</ele><time>2026-04-04T06:38:13.951Z</time></trkpt><trkpt lat="45.6139683" lon="8.40699"><ele>257.25</ele><time>2026-04-04T06:38:14.951Z</time></trkpt><trkpt lat="45.614085" lon="8.4068867"><ele>257.5</ele><time>2026-04-04T06:38:15.951Z</time></trkpt><trkpt lat="45.6142083" lon="8.4067867"><ele>257.75</ele><time>2026-04-04T06:38:16.951Z</time></trkpt><trkpt lat="45.6143267" lon="8.4066767"><ele>258.0</ele><time>2026-04-04T06:38:17.951Z</time></trkpt><trkpt lat="45.6144467" lon="8.4065567"><ele>258.25</ele><time>2026-04-04T06:38:18.951Z</time></trkpt><trkpt lat="45.6145667" lon="8.40645"><ele>258.5</ele><time>2026-04-04T06:38:19.951Z</time></trkpt><trkpt lat="45.614695" lon="8.4063417"><ele>258.75</ele><time>2026-04-04T06:38:20.951Z</time></trkpt><trkpt lat="45.61482" lon="8.4062317"><ele>259.0</ele><time>2026-04-04T06:38:21.951Z</time></trkpt><trkpt lat="45.6149483" lon="8.4061133"><ele>259.0</ele><time>2026-04-04T06:38:22.951Z</time></trkpt><trkpt lat="45.6150783" lon="8.4059883"><ele>259.0</ele><time>2026-04-04T06:38:23.951Z</time></trkpt><trkpt lat="45.6152183" lon="8.405865"><ele>259.0</ele><time>2026-04-04T06:38:24.951Z</time></trkpt><trkpt lat="45.61536" lon="8.4057383"><ele>258.66666666666663</ele><time>2026-04-04T06:38:25.951Z</time></trkpt><trkpt lat="45.6155" lon="8.4056117"><ele>258.3333333333333</ele><time>2026-04-04T06:38:26.951Z</time></trkpt><trkpt lat="45.61564" lon="8.405485"><ele>258.0</ele><time>2026-04-04T06:38:27.951Z</time></trkpt><trkpt lat="45.6157783" lon="8.4053533"><ele>258.0</ele><time>2026-04-04T06:38:28.951Z</time></trkpt><trkpt lat="45.6159233" lon="8.4052233"><ele>258.0</ele><time>2026-04-04T06:38:29.95Z</time></trkpt><trkpt lat="45.61607" lon="8.4050933"><ele>258.0</ele><time>2026-04-04T06:38:30.951Z</time></trkpt><trkpt lat="45.6162233" lon="8.4049633"><ele>258.0</ele><time>2026-04-04T06:38:31.951Z</time></trkpt><trkpt lat="45.616365" lon="8.40483"><ele>258.0</ele><time>2026-04-04T06:38:32.951Z</time></trkpt><trkpt lat="45.6165017" lon="8.4047"><ele>258.0</ele><time>2026-04-04T06:38:33.951Z</time></trkpt><trkpt lat="45.616625" lon="8.4045983"><ele>258.0</ele><time>2026-04-04T06:38:34.951Z</time></trkpt><trkpt lat="45.6167467" lon="8.4044883"><ele>258.0</ele><time>2026-04-04T06:38:35.951Z</time></trkpt><trkpt lat="45.616875" lon="8.4043783"><ele>258.0</ele><time>2026-04-04T06:38:36.951Z</time></trkpt><trkpt lat="45.617" lon="8.40427"><ele>258.0</ele><time>2026-04-04T06:38:37.951Z</time></trkpt><trkpt lat="45.6171183" lon="8.404175"><ele>258.0</ele><time>2026-04-04T06:38:38.951Z</time></trkpt><trkpt lat="45.61723" lon="8.4040817"><ele>258.0</ele><time>2026-04-04T06:38:39.951Z</time></trkpt><trkpt lat="45.617335" lon="8.403995"><ele>258.0</ele><time>2026-04-04T06:38:40.951Z</time></trkpt><trkpt lat="45.6174367" lon="8.403925"><ele>258.0</ele><time>2026-04-04T06:38:41.95Z</time></trkpt><trkpt lat="45.6175317" lon="8.4038733"><ele>258.0</ele><time>2026-04-04T06:38:42.951Z</time></trkpt><trkpt lat="45.6176333" lon="8.4038533"><ele>258.0</ele><time>2026-04-04T06:38:43.951Z</time></trkpt><trkpt lat="45.61774" lon="8.4038567"><ele>258.0</ele><time>2026-04-04T06:38:44.951Z</time></trkpt><trkpt lat="45.617835" lon="8.403825"><ele>258.0</ele><time>2026-04-04T06:38:45.95Z</time></trkpt><trkpt lat="45.617915" lon="8.4037567"><ele>258.0</ele><time>2026-04-04T06:38:46.951Z</time></trkpt><trkpt lat="45.6179883" lon="8.4036483"><ele>258.2</ele><time>2026-04-04T06:38:47.951Z</time></trkpt><trkpt lat="45.6180417" lon="8.4035217"><ele>258.4</ele><time>2026-04-04T06:38:48.951Z</time></trkpt><trkpt lat="45.6181" lon="8.4033967"><ele>258.59999999999997</ele><time>2026-04-04T06:38:49.951Z</time></trkpt><trkpt lat="45.6181733" lon="8.4032817"><ele>258.8</ele><time>2026-04-04T06:38:50.951Z</time></trkpt><trkpt lat="45.6182533" lon="8.40318"><ele>259.0</ele><time>2026-04-04T06:38:51.951Z</time></trkpt><trkpt lat="45.618335" lon="8.4030817"><ele>259.75</ele><time>2026-04-04T06:38:52.951Z</time></trkpt><trkpt lat="45.6184267" lon="8.4029883"><ele>260.5</ele><time>2026-04-04T06:38:53.951Z</time></trkpt><trkpt lat="45.61853" lon="8.402895"><ele>261.25</ele><time>2026-04-04T06:38:54.95Z</time></trkpt><trkpt lat="45.6186417" lon="8.4027883"><ele>262.0</ele><time>2026-04-04T06:38:55.951Z</time></trkpt><trkpt lat="45.6187633" lon="8.4026883"><ele>262.0</ele><time>2026-04-04T06:38:56.951Z</time></trkpt><trkpt lat="45.6189033" lon="8.4025783"><ele>262.0</ele><time>2026-04-04T06:38:57.951Z</time></trkpt><trkpt lat="45.619035" lon="8.4024483"><ele>262.0</ele><time>2026-04-04T06:38:58.951Z</time></trkpt><trkpt lat="45.6191783" lon="8.4023217"><ele>262.0</ele><time>2026-04-04T06:38:59.951Z</time></trkpt><trkpt lat="45.6193217" lon="8.4022"><ele>262.0</ele><time>2026-04-04T06:39:00.951Z</time></trkpt><trkpt lat="45.6194533" lon="8.402085"><ele>262.0</ele><time>2026-04-04T06:39:01.951Z</time></trkpt><trkpt lat="45.61959" lon="8.4019667"><ele>262.3333333333333</ele><time>2026-04-04T06:39:02.951Z</time></trkpt><trkpt lat="45.6197233" lon="8.4018483"><ele>262.6666666666667</ele><time>2026-04-04T06:39:03.95Z</time></trkpt><trkpt lat="45.6198583" lon="8.401725"><ele>263.0</ele><time>2026-04-04T06:39:04.951Z</time></trkpt><trkpt lat="45.6200033" lon="8.4015917"><ele>263.0</ele><time>2026-04-04T06:39:05.951Z</time></trkpt><trkpt lat="45.6201467" lon="8.4014633"><ele>263.0</ele><time>2026-04-04T06:39:06.951Z</time></trkpt><trkpt lat="45.62029" lon="8.401335"><ele>263.0</ele><time>2026-04-04T06:39:07.95Z</time></trkpt><trkpt lat="45.6204433" lon="8.4012017"><ele>263.33333333333337</ele><time>2026-04-04T06:39:08.951Z</time></trkpt><trkpt lat="45.6205967" lon="8.401075"><ele>263.6666666666667</ele><time>2026-04-04T06:39:09.951Z</time></trkpt><trkpt lat="45.62075" lon="8.40094"><ele>264.0</ele><time>2026-04-04T06:39:10.951Z</time></trkpt><trkpt lat="45.6209017" lon="8.400805"><ele>264.0</ele><time>2026-04-04T06:39:11.951Z</time></trkpt><trkpt lat="45.62105" lon="8.40067"><ele>264.0</ele><time>2026-04-04T06:39:12.95Z</time></trkpt><trkpt lat="45.6212017" lon="8.4005233"><ele>264.0</ele><time>2026-04-04T06:39:13.951Z</time></trkpt><trkpt lat="45.6213433" lon="8.4003917"><ele>263.5</ele><time>2026-04-04T06:39:14.951Z</time></trkpt><trkpt lat="45.6214767" lon="8.4002717"><ele>263.0</ele><time>2026-04-04T06:39:15.951Z</time></trkpt><trkpt lat="45.6216" lon="8.4001517"><ele>262.5</ele><time>2026-04-04T06:39:16.951Z</time></trkpt><trkpt lat="45.6217167" lon="8.40005"><ele>262.0</ele><time>2026-04-04T06:39:17.951Z</time></trkpt><trkpt lat="45.62183" lon="8.39996"><ele>262.0</ele><time>2026-04-04T06:39:18.951Z</time></trkpt><trkpt lat="45.62194" lon="8.3999167"><ele>262.0</ele><time>2026-04-04T06:39:19.951Z</time></trkpt><trkpt lat="45.62205" lon="8.3998967"><ele>262.0</ele><time>2026-04-04T06:39:20.951Z</time></trkpt><trkpt lat="45.622155" lon="8.399855"><ele>262.0</ele><time>2026-04-04T06:39:21.951Z</time></trkpt><trkpt lat="45.62225" lon="8.3997683"><ele>262.0</ele><time>2026-04-04T06:39:22.951Z</time></trkpt><trkpt lat="45.6223367" lon="8.399625"><ele>261.3333333333333</ele><time>2026-04-04T06:39:23.95Z</time></trkpt><trkpt lat="45.6224167" lon="8.3994633"><ele>260.6666666666667</ele><time>2026-04-04T06:39:24.951Z</time></trkpt><trkpt lat="45.62253" lon="8.3993167"><ele>260.0</ele><time>2026-04-04T06:39:25.951Z</time></trkpt><trkpt lat="45.6226683" lon="8.399185"><ele>260.0</ele><time>2026-04-04T06:39:26.951Z</time></trkpt><trkpt lat="45.6228067" lon="8.3990433"><ele>260.0</ele><time>2026-04-04T06:39:27.951Z</time></trkpt><trkpt lat="45.6229633" lon="8.398915"><ele>260.0</ele><time>2026-04-04T06:39:28.951Z</time></trkpt><trkpt lat="45.62311" lon="8.3987917"><ele>260.33333333333337</ele><time>2026-04-04T06:39:29.951Z</time></trkpt><trkpt lat="45.623255" lon="8.3986733"><ele>260.6666666666667</ele><time>2026-04-04T06:39:30.951Z</time></trkpt><trkpt lat="45.6233867" lon="8.398555"><ele>261.0</ele><time>2026-04-04T06:39:31.951Z</time></trkpt><trkpt lat="45.62352" lon="8.398435"><ele>261.0</ele><time>2026-04-04T06:39:32.951Z</time></trkpt><trkpt lat="45.6236417" lon="8.39832"><ele>261.0</ele><time>2026-04-04T06:39:33.951Z</time></trkpt><trkpt lat="45.6237583" lon="8.39822"><ele>261.0</ele><time>2026-04-04T06:39:34.951Z</time></trkpt><trkpt lat="45.6238667" lon="8.398125"><ele>261.0</ele><time>2026-04-04T06:39:35.95Z</time></trkpt><trkpt lat="45.6239683" lon="8.3980367"><ele>261.0</ele><time>2026-04-04T06:39:36.951Z</time></trkpt><trkpt lat="45.6240617" lon="8.3979517"><ele>261.0</ele><time>2026-04-04T06:39:37.951Z</time></trkpt><trkpt lat="45.6241517" lon="8.3978783"><ele>261.0</ele><time>2026-04-04T06:39:38.951Z</time></trkpt><trkpt lat="45.6242517" lon="8.3978383"><ele>261.0</ele><time>2026-04-04T06:39:39.951Z</time></trkpt><trkpt lat="45.624355" lon="8.3978067"><ele>261.0</ele><time>2026-04-04T06:39:40.951Z</time></trkpt><trkpt lat="45.6244567" lon="8.397745"><ele>261.75</ele><time>2026-04-04T06:39:41.951Z</time></trkpt><trkpt lat="45.624545" lon="8.3976383"><ele>262.5</ele><time>2026-04-04T06:39:42.951Z</time></trkpt><trkpt lat="45.6246283" lon="8.397495"><ele>263.25</ele><time>2026-04-04T06:39:43.951Z</time></trkpt><trkpt lat="45.6247283" lon="8.39736"><ele>264.0</ele><time>2026-04-04T06:39:44.951Z</time></trkpt><trkpt lat="45.624855" lon="8.3972217"><ele>263.6666666666667</ele><time>2026-04-04T06:39:45.951Z</time></trkpt><trkpt lat="45.6250033" lon="8.3970817"><ele>263.33333333333337</ele><time>2026-04-04T06:39:46.951Z</time></trkpt><trkpt lat="45.6251617" lon="8.3969483"><ele>263.0</ele><time>2026-04-04T06:39:47.951Z</time></trkpt><trkpt lat="45.62531" lon="8.39682"><ele>264.0</ele><time>2026-04-04T06:39:48.951Z</time></trkpt><trkpt lat="45.625465" lon="8.3966933"><ele>265.0</ele><time>2026-04-04T06:39:49.951Z</time></trkpt><trkpt lat="45.6256167" lon="8.39656"><ele>266.0</ele><time>2026-04-04T06:39:50.951Z</time></trkpt><trkpt lat="45.62576" lon="8.3964167"><ele>265.6666666666667</ele><time>2026-04-04T06:39:51.951Z</time></trkpt><trkpt lat="45.625915" lon="8.396275"><ele>265.3333333333333</ele><time>2026-04-04T06:39:52.951Z</time></trkpt><trkpt lat="45.626065" lon="8.3961333"><ele>265.0</ele><time>2026-04-04T06:39:53.951Z</time></trkpt><trkpt lat="45.6262167" lon="8.3959983"><ele>265.0</ele><time>2026-04-04T06:39:54.951Z</time></trkpt><trkpt lat="45.6263633" lon="8.3958717"><ele>265.0</ele><time>2026-04-04T06:39:55.951Z</time></trkpt><trkpt lat="45.6265083" lon="8.395745"><ele>265.0</ele><time>2026-04-04T06:39:56.951Z</time></trkpt><trkpt lat="45.6266483" lon="8.395615"><ele>264.3333333333333</ele><time>2026-04-04T06:39:57.951Z</time></trkpt><trkpt lat="45.6267867" lon="8.395485"><ele>263.6666666666667</ele><time>2026-04-04T06:39:58.951Z</time></trkpt><trkpt lat="45.626925" lon="8.3953583"><ele>263.0</ele><time>2026-04-04T06:39:59.951Z</time></trkpt><trkpt lat="45.6270683" lon="8.39523"><ele>264.33333333333337</ele><time>2026-04-04T06:40:00.951Z</time></trkpt><trkpt lat="45.6272067" lon="8.3951083"><ele>265.6666666666667</ele><time>2026-04-04T06:40:01.951Z</time></trkpt><trkpt lat="45.6273467" lon="8.3949917"><ele>267.0</ele><time>2026-04-04T06:40:02.951Z</time></trkpt><trkpt lat="45.627455" lon="8.39488"><ele>267.0</ele><time>2026-04-04T06:40:03.951Z</time></trkpt><trkpt lat="45.6275767" lon="8.3947733"><ele>267.0</ele><time>2026-04-04T06:40:04.951Z</time></trkpt><trkpt lat="45.6277" lon="8.3946667"><ele>267.0</ele><time>2026-04-04T06:40:05.95Z</time></trkpt><trkpt lat="45.62782" lon="8.3945517"><ele>267.0</ele><time>2026-04-04T06:40:06.951Z</time></trkpt><trkpt lat="45.62794" lon="8.3944533"><ele>267.5</ele><time>2026-04-04T06:40:07.951Z</time></trkpt><trkpt lat="45.62805" lon="8.3943467"><ele>268.0</ele><time>2026-04-04T06:40:08.951Z</time></trkpt><trkpt lat="45.62815" lon="8.39425"><ele>268.5</ele><time>2026-04-04T06:40:09.951Z</time></trkpt><trkpt lat="45.6282567" lon="8.3941483"><ele>269.0</ele><time>2026-04-04T06:40:10.951Z</time></trkpt><trkpt lat="45.628355" lon="8.394065"><ele>269.0</ele><time>2026-04-04T06:40:11.951Z</time></trkpt><trkpt lat="45.62845" lon="8.3939733"><ele>269.0</ele><time>2026-04-04T06:40:12.95Z</time></trkpt><trkpt lat="45.628555" lon="8.3938683"><ele>269.0</ele><time>2026-04-04T06:40:13.951Z</time></trkpt><trkpt lat="45.6286567" lon="8.3937733"><ele>269.0</ele><time>2026-04-04T06:40:14.951Z</time></trkpt><trkpt lat="45.62875" lon="8.3936983"><ele>269.0</ele><time>2026-04-04T06:40:15.951Z</time></trkpt><trkpt lat="45.62886" lon="8.3936167"><ele>269.0</ele><time>2026-04-04T06:40:16.951Z</time></trkpt><trkpt lat="45.6289533" lon="8.3935433"><ele>269.0</ele><time>2026-04-04T06:40:17.951Z</time></trkpt><trkpt lat="45.6290383" lon="8.393465"><ele>269.0</ele><time>2026-04-04T06:40:18.951Z</time></trkpt><trkpt lat="45.6291217" lon="8.3933967"><ele>269.0</ele><time>2026-04-04T06:40:19.951Z</time></trkpt><trkpt lat="45.62921" lon="8.3933367"><ele>269.0</ele><time>2026-04-04T06:40:20.951Z</time></trkpt><trkpt lat="45.6292967" lon="8.3932533"><ele>269.0</ele><time>2026-04-04T06:40:21.951Z</time></trkpt><trkpt lat="45.629375" lon="8.3931633"><ele>269.0</ele><time>2026-04-04T06:40:22.951Z</time></trkpt><trkpt lat="45.6294533" lon="8.393075"><ele>269.0</ele><time>2026-04-04T06:40:23.951Z</time></trkpt><trkpt lat="45.6295317" lon="8.393"><ele>269.0</ele><time>2026-04-04T06:40:24.951Z</time></trkpt><trkpt lat="45.6296" lon="8.3929233"><ele>268.83333333333337</ele><time>2026-04-04T06:40:25.95Z</time></trkpt><trkpt lat="45.62967" lon="8.3928617"><ele>268.6666666666667</ele><time>2026-04-04T06:40:26.951Z</time></trkpt><trkpt lat="45.62974" lon="8.3928167"><ele>268.5</ele><time>2026-04-04T06:40:27.951Z</time></trkpt><trkpt lat="45.6298067" lon="8.3927717"><ele>268.3333333333333</ele><time>2026-04-04T06:40:28.951Z</time></trkpt><trkpt lat="45.629875" lon="8.3927283"><ele>268.16666666666663</ele><time>2026-04-04T06:40:29.951Z</time></trkpt><trkpt lat="45.629935" lon="8.3926833"><ele>268.0</ele><time>2026-04-04T06:40:30.951Z</time></trkpt><trkpt lat="45.63004" lon="8.3926"><ele>268.0</ele><time>2026-04-04T06:40:32.951Z</time></trkpt><trkpt lat="45.6301" lon="8.3925667"><ele>268.0</ele><time>2026-04-04T06:40:33.95Z</time></trkpt><trkpt lat="45.630215" lon="8.3924867"><ele>268.0</ele><time>2026-04-04T06:40:35.951Z</time></trkpt><trkpt lat="45.6302417" lon="8.392375"><ele>268.0</ele><time>2026-04-04T06:40:37.951Z</time></trkpt><trkpt lat="45.6301617" lon="8.3922633"><ele>268.0</ele><time>2026-04-04T06:40:39.951Z</time></trkpt><trkpt lat="45.630095" lon="8.3921983"><ele>267.25</ele><time>2026-04-04T06:40:40.951Z</time></trkpt><trkpt lat="45.6300117" lon="8.3921133"><ele>266.5</ele><time>2026-04-04T06:40:41.951Z</time></trkpt><trkpt lat="45.6299167" lon="8.391995"><ele>265.75</ele><time>2026-04-04T06:40:42.951Z</time></trkpt><trkpt lat="45.6298167" lon="8.3918717"><ele>265.0</ele><time>2026-04-04T06:40:43.95Z</time></trkpt><trkpt lat="45.629715" lon="8.391735"><ele>265.0</ele><time>2026-04-04T06:40:44.951Z</time></trkpt><trkpt lat="45.62961" lon="8.391605"><ele>265.0</ele><time>2026-04-04T06:40:45.951Z</time></trkpt><trkpt lat="45.6295183" lon="8.391455"><ele>265.0</ele><time>2026-04-04T06:40:46.951Z</time></trkpt><trkpt lat="45.6294133" lon="8.391305"><ele>265.0</ele><time>2026-04-04T06:40:47.95Z</time></trkpt><trkpt lat="45.6293217" lon="8.39117"><ele>264.8</ele><time>2026-04-04T06:40:48.951Z</time></trkpt><trkpt lat="45.6292267" lon="8.391045"><ele>264.6</ele><time>2026-04-04T06:40:49.951Z</time></trkpt><trkpt lat="45.62915" lon="8.3909383"><ele>264.4</ele><time>2026-04-04T06:40:50.951Z</time></trkpt><trkpt lat="45.629105" lon="8.3908367"><ele>264.2</ele><time>2026-04-04T06:40:51.951Z</time></trkpt><trkpt lat="45.629085" lon="8.3907183"><ele>264.0</ele><time>2026-04-04T06:40:52.951Z</time></trkpt><trkpt lat="45.6290917" lon="8.3905917"><ele>263.75</ele><time>2026-04-04T06:40:53.95Z</time></trkpt><trkpt lat="45.629135" lon="8.3904683"><ele>263.5</ele><time>2026-04-04T06:40:54.95Z</time></trkpt><trkpt lat="45.6292267" lon="8.3903267"><ele>263.25</ele><time>2026-04-04T06:40:55.951Z</time></trkpt><trkpt lat="45.62933" lon="8.390155"><ele>263.0</ele><time>2026-04-04T06:40:56.951Z</time></trkpt><trkpt lat="45.629425" lon="8.38999"><ele>263.5</ele><time>2026-04-04T06:40:57.951Z</time></trkpt><trkpt lat="45.6295117" lon="8.3898283"><ele>264.0</ele><time>2026-04-04T06:40:58.951Z</time></trkpt><trkpt lat="45.6295783" lon="8.3896733"><ele>264.5</ele><time>2026-04-04T06:40:59.95Z</time></trkpt><trkpt lat="45.629655" lon="8.3895333"><ele>265.0</ele><time>2026-04-04T06:41:00.951Z</time></trkpt><trkpt lat="45.6297217" lon="8.3893833"><ele>265.0</ele><time>2026-04-04T06:41:01.951Z</time></trkpt><trkpt lat="45.6297967" lon="8.3892283"><ele>265.0</ele><time>2026-04-04T06:41:02.951Z</time></trkpt><trkpt lat="45.6298683" lon="8.389075"><ele>265.0</ele><time>2026-04-04T06:41:03.951Z</time></trkpt><trkpt lat="45.6299467" lon="8.3889017"><ele>265.0</ele><time>2026-04-04T06:41:04.951Z</time></trkpt><trkpt lat="45.6300133" lon="8.388745"><ele>265.0</ele><time>2026-04-04T06:41:05.95Z</time></trkpt><trkpt lat="45.6300783" lon="8.3886167"><ele>265.0</ele><time>2026-04-04T06:41:06.951Z</time></trkpt><trkpt lat="45.630135" lon="8.3885083"><ele>265.0</ele><time>2026-04-04T06:41:07.951Z</time></trkpt><trkpt lat="45.6301833" lon="8.3884067"><ele>265.0</ele><time>2026-04-04T06:41:08.951Z</time></trkpt><trkpt lat="45.63023" lon="8.3883167"><ele>265.0</ele><time>2026-04-04T06:41:09.951Z</time></trkpt><trkpt lat="45.6302733" lon="8.3882283"><ele>265.0</ele><time>2026-04-04T06:41:10.951Z</time></trkpt><trkpt lat="45.6303117" lon="8.3881433"><ele>265.0</ele><time>2026-04-04T06:41:11.951Z</time></trkpt><trkpt lat="45.630345" lon="8.38806"><ele>265.0</ele><time>2026-04-04T06:41:12.951Z</time></trkpt><trkpt lat="45.630405" lon="8.3879567"><ele>265.0</ele><time>2026-04-04T06:41:14.951Z</time></trkpt><trkpt lat="45.6304483" lon="8.3878867"><ele>265.0</ele><time>2026-04-04T06:41:17.951Z</time></trkpt><trkpt lat="45.6305083" lon="8.38779"><ele>265.0</ele><time>2026-04-04T06:41:49.951Z</time></trkpt><trkpt lat="45.630555" lon="8.387705"><ele>265.0</ele><time>2026-04-04T06:41:50.951Z</time></trkpt><trkpt lat="45.6306083" lon="8.3875817"><ele>265.0</ele><time>2026-04-04T06:41:51.951Z</time></trkpt><trkpt lat="45.6306667" lon="8.3874567"><ele>265.0</ele><time>2026-04-04T06:41:52.951Z</time></trkpt><trkpt lat="45.6307283" lon="8.3873317"><ele>265.0</ele><time>2026-04-04T06:41:53.951Z</time></trkpt><trkpt lat="45.630795" lon="8.3872067"><ele>265.0</ele><time>2026-04-04T06:41:54.951Z</time></trkpt><trkpt lat="45.6308717" lon="8.3870717"><ele>265.0</ele><time>2026-04-04T06:41:55.951Z</time></trkpt><trkpt lat="45.630945" lon="8.3869167"><ele>264.75</ele><time>2026-04-04T06:41:56.951Z</time></trkpt><trkpt lat="45.6310183" lon="8.3867567"><ele>264.5</ele><time>2026-04-04T06:41:57.951Z</time></trkpt><trkpt lat="45.6310933" lon="8.3866"><ele>264.25</ele><time>2026-04-04T06:41:58.951Z</time></trkpt><trkpt lat="45.63117" lon="8.3864533"><ele>264.0</ele><time>2026-04-04T06:41:59.951Z</time></trkpt><trkpt lat="45.63124" lon="8.3863283"><ele>264.8333333333333</ele><time>2026-04-04T06:42:00.951Z</time></trkpt><trkpt lat="45.6312933" lon="8.3862167"><ele>265.6666666666667</ele><time>2026-04-04T06:42:01.95Z</time></trkpt><trkpt lat="45.6313317" lon="8.3861083"><ele>266.5</ele><time>2026-04-04T06:42:02.951Z</time></trkpt><trkpt lat="45.63138" lon="8.386005"><ele>267.33333333333337</ele><time>2026-04-04T06:42:03.951Z</time></trkpt><trkpt lat="45.631425" lon="8.3859067"><ele>268.1666666666667</ele><time>2026-04-04T06:42:04.951Z</time></trkpt><trkpt lat="45.6314683" lon="8.3858233"><ele>269.0</ele><time>2026-04-04T06:42:05.951Z</time></trkpt><trkpt lat="45.6315067" lon="8.385735"><ele>269.0</ele><time>2026-04-04T06:42:06.951Z</time></trkpt><trkpt lat="45.6315467" lon="8.3856517"><ele>269.0</ele><time>2026-04-04T06:42:07.951Z</time></trkpt><trkpt lat="45.6315783" lon="8.3855633"><ele>269.0</ele><time>2026-04-04T06:42:08.951Z</time></trkpt><trkpt lat="45.63159" lon="8.385435"><ele>269.0</ele><time>2026-04-04T06:42:10.951Z</time></trkpt><trkpt lat="45.6315417" lon="8.3853633"><ele>269.0</ele><time>2026-04-04T06:42:12.951Z</time></trkpt><trkpt lat="45.6314533" lon="8.38536"><ele>269.0</ele><time>2026-04-04T06:42:14.951Z</time></trkpt><trkpt lat="45.6313583" lon="8.3853533"><ele>268.6666666666667</ele><time>2026-04-04T06:42:16.951Z</time></trkpt><trkpt lat="45.6312917" lon="8.3853383"><ele>268.33333333333337</ele><time>2026-04-04T06:42:17.951Z</time></trkpt><trkpt lat="45.63122" lon="8.3853083"><ele>268.0</ele><time>2026-04-04T06:42:18.951Z</time></trkpt><trkpt lat="45.6311433" lon="8.3852733"><ele>267.6666666666667</ele><time>2026-04-04T06:42:19.951Z</time></trkpt><trkpt lat="45.6310633" lon="8.3852283"><ele>267.3333333333333</ele><time>2026-04-04T06:42:20.951Z</time></trkpt><trkpt lat="45.6309817" lon="8.3851867"><ele>267.0</ele><time>2026-04-04T06:42:21.951Z</time></trkpt><trkpt lat="45.6308933" lon="8.3851483"><ele>266.8</ele><time>2026-04-04T06:42:22.951Z</time></trkpt><trkpt lat="45.6308" lon="8.3851033"><ele>266.6</ele><time>2026-04-04T06:42:23.951Z</time></trkpt><trkpt lat="45.6307" lon="8.3850533"><ele>266.40000000000003</ele><time>2026-04-04T06:42:24.951Z</time></trkpt><trkpt lat="45.6306133" lon="8.3850267"><ele>266.2</ele><time>2026-04-04T06:42:25.951Z</time></trkpt><trkpt lat="45.6305233" lon="8.3849833"><ele>266.0</ele><time>2026-04-04T06:42:26.951Z</time></trkpt><trkpt lat="45.6304533" lon="8.3849333"><ele>266.0</ele><time>2026-04-04T06:42:27.951Z</time></trkpt><trkpt lat="45.6304033" lon="8.38487"><ele>266.0</ele><time>2026-04-04T06:42:28.95Z</time></trkpt><trkpt lat="45.6303667" lon="8.3847783"><ele>266.0</ele><time>2026-04-04T06:42:29.951Z</time></trkpt><trkpt lat="45.6303633" lon="8.3846867"><ele>266.0</ele><time>2026-04-04T06:42:30.951Z</time></trkpt><trkpt lat="45.6303867" lon="8.3845767"><ele>266.0</ele><time>2026-04-04T06:42:31.951Z</time></trkpt><trkpt lat="45.6304383" lon="8.3844567"><ele>266.0</ele><time>2026-04-04T06:42:32.951Z</time></trkpt><trkpt lat="45.6304967" lon="8.384335"><ele>266.40000000000003</ele><time>2026-04-04T06:42:33.951Z</time></trkpt><trkpt lat="45.630555" lon="8.3841983"><ele>266.8</ele><time>2026-04-04T06:42:34.951Z</time></trkpt><trkpt lat="45.630615" lon="8.3840733"><ele>267.20000000000005</ele><time>2026-04-04T06:42:35.951Z</time></trkpt><trkpt lat="45.630675" lon="8.383945"><ele>267.6</ele><time>2026-04-04T06:42:36.951Z</time></trkpt><trkpt lat="45.6307383" lon="8.3838117"><ele>268.0</ele><time>2026-04-04T06:42:37.951Z</time></trkpt><trkpt lat="45.6308033" lon="8.3836967"><ele>268.0</ele><time>2026-04-04T06:42:38.951Z</time></trkpt><trkpt lat="45.6308717" lon="8.383575"><ele>268.0</ele><time>2026-04-04T06:42:39.951Z</time></trkpt><trkpt lat="45.6309417" lon="8.3834717"><ele>268.0</ele><time>2026-04-04T06:42:40.951Z</time></trkpt><trkpt lat="45.63103" lon="8.383375"><ele>268.0</ele><time>2026-04-04T06:42:41.951Z</time></trkpt><trkpt lat="45.6311183" lon="8.38328"><ele>268.0</ele><time>2026-04-04T06:42:42.951Z</time></trkpt><trkpt lat="45.631215" lon="8.383175"><ele>268.0</ele><time>2026-04-04T06:42:43.951Z</time></trkpt><trkpt lat="45.631305" lon="8.3830533"><ele>268.0</ele><time>2026-04-04T06:42:44.951Z</time></trkpt><trkpt lat="45.63141" lon="8.38292"><ele>268.0</ele><time>2026-04-04T06:42:45.951Z</time></trkpt><trkpt lat="45.6315383" lon="8.3827767"><ele>268.0</ele><time>2026-04-04T06:42:46.951Z</time></trkpt><trkpt lat="45.63168" lon="8.3825967"><ele>268.0</ele><time>2026-04-04T06:42:47.951Z</time></trkpt><trkpt lat="45.6318317" lon="8.3823983"><ele>268.0</ele><time>2026-04-04T06:42:48.951Z</time></trkpt><trkpt lat="45.6319933" lon="8.3822067"><ele>268.0</ele><time>2026-04-04T06:42:49.951Z</time></trkpt><trkpt lat="45.6321333" lon="8.3820367"><ele>268.0</ele><time>2026-04-04T06:42:50.951Z</time></trkpt><trkpt lat="45.6322533" lon="8.38189"><ele>268.0</ele><time>2026-04-04T06:42:51.951Z</time></trkpt><trkpt lat="45.6323617" lon="8.3817467"><ele>268.0</ele><time>2026-04-04T06:42:52.951Z</time></trkpt><trkpt lat="45.6324683" lon="8.3816233"><ele>268.0</ele><time>2026-04-04T06:42:53.951Z</time></trkpt><trkpt lat="45.6325633" lon="8.3815333"><ele>268.0</ele><time>2026-04-04T06:42:54.951Z</time></trkpt><trkpt lat="45.632645" lon="8.3814433"><ele>268.0</ele><time>2026-04-04T06:42:55.95Z</time></trkpt><trkpt lat="45.632715" lon="8.3813683"><ele>268.0</ele><time>2026-04-04T06:42:56.951Z</time></trkpt><trkpt lat="45.632775" lon="8.3813067"><ele>268.0</ele><time>2026-04-04T06:42:57.951Z</time></trkpt><trkpt lat="45.6328183" lon="8.381225"><ele>268.0</ele><time>2026-04-04T06:42:59.951Z</time></trkpt><trkpt lat="45.6327817" lon="8.3811283"><ele>268.0</ele><time>2026-04-04T06:43:07.951Z</time></trkpt><trkpt lat="45.6327333" lon="8.3810133"><ele>268.25</ele><time>2026-04-04T06:43:08.951Z</time></trkpt><trkpt lat="45.6326633" lon="8.3808633"><ele>268.5</ele><time>2026-04-04T06:43:09.95Z</time></trkpt><trkpt lat="45.632565" lon="8.38069"><ele>268.75</ele><time>2026-04-04T06:43:10.951Z</time></trkpt><trkpt lat="45.6324783" lon="8.3805067"><ele>269.0</ele><time>2026-04-04T06:43:11.951Z</time></trkpt><trkpt lat="45.6323983" lon="8.380325"><ele>268.59999999999997</ele><time>2026-04-04T06:43:12.95Z</time></trkpt><trkpt lat="45.632365" lon="8.3801833"><ele>268.2</ele><time>2026-04-04T06:43:13.951Z</time></trkpt><trkpt lat="45.6323333" lon="8.3800783"><ele>267.79999999999995</ele><time>2026-04-04T06:43:14.951Z</time></trkpt><trkpt lat="45.6323583" lon="8.3799367"><ele>267.4</ele><time>2026-04-04T06:43:16.951Z</time></trkpt><trkpt lat="45.6324167" lon="8.379865"><ele>267.0</ele><time>2026-04-04T06:43:17.951Z</time></trkpt><trkpt lat="45.63251" lon="8.3797867"><ele>266.6666666666667</ele><time>2026-04-04T06:43:18.951Z</time></trkpt><trkpt lat="45.632655" lon="8.37968"><ele>266.33333333333337</ele><time>2026-04-04T06:43:19.951Z</time></trkpt><trkpt lat="45.6328033" lon="8.37955"><ele>266.0</ele><time>2026-04-04T06:43:20.951Z</time></trkpt><trkpt lat="45.6329533" lon="8.3794183"><ele>267.0</ele><time>2026-04-04T06:43:21.951Z</time></trkpt><trkpt lat="45.6330967" lon="8.3792783"><ele>268.0</ele><time>2026-04-04T06:43:22.951Z</time></trkpt><trkpt lat="45.6332383" lon="8.3791317"><ele>269.0</ele><time>2026-04-04T06:43:23.951Z</time></trkpt><trkpt lat="45.6333733" lon="8.379005"><ele>269.0</ele><time>2026-04-04T06:43:24.951Z</time></trkpt><trkpt lat="45.6334967" lon="8.37889"><ele>269.0</ele><time>2026-04-04T06:43:25.951Z</time></trkpt><trkpt lat="45.6336067" lon="8.3787833"><ele>269.0</ele><time>2026-04-04T06:43:26.95Z</time></trkpt><trkpt lat="45.6337033" lon="8.3786917"><ele>269.0</ele><time>2026-04-04T06:43:27.951Z</time></trkpt><trkpt lat="45.6337967" lon="8.3786033"><ele>268.6666666666667</ele><time>2026-04-04T06:43:28.951Z</time></trkpt><trkpt lat="45.633875" lon="8.3785267"><ele>268.33333333333337</ele><time>2026-04-04T06:43:29.951Z</time></trkpt><trkpt lat="45.633945" lon="8.3784517"><ele>268.0</ele><time>2026-04-04T06:43:30.951Z</time></trkpt><trkpt lat="45.6340117" lon="8.3783867"><ele>267.6666666666667</ele><time>2026-04-04T06:43:31.951Z</time></trkpt><trkpt lat="45.634075" lon="8.37833"><ele>267.3333333333333</ele><time>2026-04-04T06:43:32.951Z</time></trkpt><trkpt lat="45.6341367" lon="8.37827"><ele>267.0</ele><time>2026-04-04T06:43:33.951Z</time></trkpt><trkpt lat="45.6341933" lon="8.378215"><ele>267.0</ele><time>2026-04-04T06:43:34.95Z</time></trkpt><trkpt lat="45.6342633" lon="8.37816"><ele>267.0</ele><time>2026-04-04T06:43:35.95Z</time></trkpt><trkpt lat="45.6343417" lon="8.37809"><ele>267.0</ele><time>2026-04-04T06:43:36.951Z</time></trkpt><trkpt lat="45.634425" lon="8.3780167"><ele>267.0</ele><time>2026-04-04T06:43:37.951Z</time></trkpt><trkpt lat="45.63451" lon="8.377935"><ele>267.0</ele><time>2026-04-04T06:43:38.951Z</time></trkpt><trkpt lat="45.6346067" lon="8.3778483"><ele>267.25</ele><time>2026-04-04T06:43:39.951Z</time></trkpt><trkpt lat="45.6347117" lon="8.3777533"><ele>267.5</ele><time>2026-04-04T06:43:40.951Z</time></trkpt><trkpt lat="45.6348283" lon="8.3776417"><ele>267.75</ele><time>2026-04-04T06:43:41.951Z</time></trkpt><trkpt lat="45.6349567" lon="8.3775217"><ele>268.0</ele><time>2026-04-04T06:43:42.951Z</time></trkpt><trkpt lat="45.6351017" lon="8.377385"><ele>268.0</ele><time>2026-04-04T06:43:43.951Z</time></trkpt><trkpt lat="45.6352433" lon="8.37724"><ele>268.0</ele><time>2026-04-04T06:43:44.951Z</time></trkpt><trkpt lat="45.6353817" lon="8.3770833"><ele>268.0</ele><time>2026-04-04T06:43:45.951Z</time></trkpt><trkpt lat="45.635515" lon="8.3769083"><ele>268.3333333333333</ele><time>2026-04-04T06:43:46.951Z</time></trkpt><trkpt lat="45.635635" lon="8.3767083"><ele>268.6666666666667</ele><time>2026-04-04T06:43:47.951Z</time></trkpt><trkpt lat="45.6357567" lon="8.3765017"><ele>269.0</ele><time>2026-04-04T06:43:48.951Z</time></trkpt><trkpt lat="45.63589" lon="8.3763083"><ele>269.6666666666667</ele><time>2026-04-04T06:43:49.951Z</time></trkpt><trkpt lat="45.6360333" lon="8.376115"><ele>270.3333333333333</ele><time>2026-04-04T06:43:50.951Z</time></trkpt><trkpt lat="45.6361783" lon="8.37594"><ele>271.0</ele><time>2026-04-04T06:43:51.951Z</time></trkpt><trkpt lat="45.636335" lon="8.37577"><ele>271.0</ele><time>2026-04-04T06:43:52.95Z</time></trkpt><trkpt lat="45.6364817" lon="8.3756083"><ele>271.0</ele><time>2026-04-04T06:43:53.951Z</time></trkpt><trkpt lat="45.63662" lon="8.3754583"><ele>271.0</ele><time>2026-04-04T06:43:54.951Z</time></trkpt><trkpt lat="45.6367533" lon="8.37532"><ele>271.5</ele><time>2026-04-04T06:43:55.951Z</time></trkpt><trkpt lat="45.6368667" lon="8.375215"><ele>272.0</ele><time>2026-04-04T06:43:56.951Z</time></trkpt><trkpt lat="45.6369633" lon="8.3751183"><ele>272.5</ele><time>2026-04-04T06:43:57.951Z</time></trkpt><trkpt lat="45.637055" lon="8.37506"><ele>273.0</ele><time>2026-04-04T06:43:58.951Z</time></trkpt><trkpt lat="45.6371483" lon="8.3750233"><ele>273.0</ele><time>2026-04-04T06:43:59.951Z</time></trkpt><trkpt lat="45.6372283" lon="8.3750067"><ele>273.0</ele><time>2026-04-04T06:44:00.951Z</time></trkpt><trkpt lat="45.6373017" lon="8.3749867"><ele>273.0</ele><time>2026-04-04T06:44:01.951Z</time></trkpt><trkpt lat="45.637365" lon="8.3749367"><ele>273.0</ele><time>2026-04-04T06:44:02.951Z</time></trkpt><trkpt lat="45.6373967" lon="8.3748517"><ele>273.0</ele><time>2026-04-04T06:44:03.951Z</time></trkpt><trkpt lat="45.6374117" lon="8.3747317"><ele>273.0</ele><time>2026-04-04T06:44:04.951Z</time></trkpt><trkpt lat="45.6374217" lon="8.374585"><ele>272.8</ele><time>2026-04-04T06:44:05.951Z</time></trkpt><trkpt lat="45.6374467" lon="8.37442"><ele>272.6</ele><time>2026-04-04T06:44:06.951Z</time></trkpt><trkpt lat="45.6374617" lon="8.3742717"><ele>272.4</ele><time>2026-04-04T06:44:07.951Z</time></trkpt><trkpt lat="45.6374583" lon="8.374125"><ele>272.2</ele><time>2026-04-04T06:44:08.951Z</time></trkpt><trkpt lat="45.6374233" lon="8.3739767"><ele>272.0</ele><time>2026-04-04T06:44:09.95Z</time></trkpt><trkpt lat="45.6373617" lon="8.3738167"><ele>270.6666666666667</ele><time>2026-04-04T06:44:10.951Z</time></trkpt><trkpt lat="45.63727" lon="8.3736517"><ele>269.3333333333333</ele><time>2026-04-04T06:44:11.951Z</time></trkpt><trkpt lat="45.6371767" lon="8.373475"><ele>268.0</ele><time>2026-04-04T06:44:12.951Z</time></trkpt><trkpt lat="45.637085" lon="8.373295"><ele>268.0</ele><time>2026-04-04T06:44:13.951Z</time></trkpt><trkpt lat="45.6369767" lon="8.3730917"><ele>268.0</ele><time>2026-04-04T06:44:14.951Z</time></trkpt><trkpt lat="45.6368667" lon="8.3728817"><ele>268.0</ele><time>2026-04-04T06:44:15.951Z</time></trkpt><trkpt lat="45.6367583" lon="8.3726567"><ele>268.25</ele><time>2026-04-04T06:44:16.951Z</time></trkpt><trkpt lat="45.63666" lon="8.3724567"><ele>268.5</ele><time>2026-04-04T06:44:17.951Z</time></trkpt><trkpt lat="45.63658" lon="8.372305"><ele>268.75</ele><time>2026-04-04T06:44:18.951Z</time></trkpt><trkpt lat="45.6365233" lon="8.3721917"><ele>269.0</ele><time>2026-04-04T06:44:19.951Z</time></trkpt><trkpt lat="45.636455" lon="8.3721133"><ele>270.0</ele><time>2026-04-04T06:44:20.951Z</time></trkpt><trkpt lat="45.6363883" lon="8.372085"><ele>271.0</ele><time>2026-04-04T06:44:21.951Z</time></trkpt><trkpt lat="45.6363233" lon="8.37205"><ele>272.0</ele><time>2026-04-04T06:44:22.951Z</time></trkpt><trkpt lat="45.6362767" lon="8.3719883"><ele>273.0</ele><time>2026-04-04T06:44:23.951Z</time></trkpt><trkpt lat="45.6362433" lon="8.3719067"><ele>274.0</ele><time>2026-04-04T06:44:24.951Z</time></trkpt><trkpt lat="45.636245" lon="8.3718067"><ele>275.0</ele><time>2026-04-04T06:44:25.95Z</time></trkpt><trkpt lat="45.6362733" lon="8.3717"><ele>276.0</ele><time>2026-04-04T06:44:26.951Z</time></trkpt><trkpt lat="45.636325" lon="8.3716067"><ele>276.0</ele><time>2026-04-04T06:44:27.951Z</time></trkpt><trkpt lat="45.6364017" lon="8.371525"><ele>276.0</ele><time>2026-04-04T06:44:28.951Z</time></trkpt><trkpt lat="45.636495" lon="8.3714533"><ele>276.0</ele><time>2026-04-04T06:44:29.951Z</time></trkpt><trkpt lat="45.636615" lon="8.37138"><ele>276.0</ele><time>2026-04-04T06:44:30.951Z</time></trkpt><trkpt lat="45.63675" lon="8.3713083"><ele>277.6666666666667</ele><time>2026-04-04T06:44:31.951Z</time></trkpt><trkpt lat="45.636895" lon="8.3712217"><ele>279.33333333333337</ele><time>2026-04-04T06:44:32.951Z</time></trkpt><trkpt lat="45.63704" lon="8.371125"><ele>281.0</ele><time>2026-04-04T06:44:33.951Z</time></trkpt><trkpt lat="45.6371883" lon="8.3710217"><ele>281.0</ele><time>2026-04-04T06:44:34.951Z</time></trkpt><trkpt lat="45.6373517" lon="8.3709133"><ele>281.0</ele><time>2026-04-04T06:44:35.951Z</time></trkpt><trkpt lat="45.6375083" lon="8.3708"><ele>281.0</ele><time>2026-04-04T06:44:36.951Z</time></trkpt><trkpt lat="45.6376633" lon="8.3706933"><ele>281.5</ele><time>2026-04-04T06:44:37.951Z</time></trkpt><trkpt lat="45.637805" lon="8.3705917"><ele>282.0</ele><time>2026-04-04T06:44:38.951Z</time></trkpt><trkpt lat="45.63793" lon="8.3704917"><ele>282.5</ele><time>2026-04-04T06:44:39.951Z</time></trkpt><trkpt lat="45.6380283" lon="8.3703967"><ele>283.0</ele><time>2026-04-04T06:44:40.951Z</time></trkpt><trkpt lat="45.6381117" lon="8.3702767"><ele>283.0</ele><time>2026-04-04T06:44:41.951Z</time></trkpt><trkpt lat="45.6381833" lon="8.3701183"><ele>283.0</ele><time>2026-04-04T06:44:42.951Z</time></trkpt><trkpt lat="45.638265" lon="8.3699267"><ele>283.0</ele><time>2026-04-04T06:44:43.951Z</time></trkpt><trkpt lat="45.63836" lon="8.3697233"><ele>277.3333333333333</ele><time>2026-04-04T06:44:44.951Z</time></trkpt><trkpt lat="45.6384583" lon="8.3695033"><ele>271.6666666666667</ele><time>2026-04-04T06:44:45.951Z</time></trkpt><trkpt lat="45.638565" lon="8.369285"><ele>266.0</ele><time>2026-04-04T06:44:46.951Z</time></trkpt><trkpt lat="45.638665" lon="8.369075"><ele>266.0</ele><time>2026-04-04T06:44:47.951Z</time></trkpt><trkpt lat="45.6387683" lon="8.3688933"><ele>266.0</ele><time>2026-04-04T06:44:48.951Z</time></trkpt><trkpt lat="45.6388833" lon="8.3687483"><ele>266.0</ele><time>2026-04-04T06:44:49.951Z</time></trkpt><trkpt lat="45.639" lon="8.3685983"><ele>272.0</ele><time>2026-04-04T06:44:50.951Z</time></trkpt><trkpt lat="45.63911" lon="8.3684217"><ele>278.0</ele><time>2026-04-04T06:44:51.951Z</time></trkpt><trkpt lat="45.6392333" lon="8.3682533"><ele>284.0</ele><time>2026-04-04T06:44:52.951Z</time></trkpt><trkpt lat="45.6393617" lon="8.3680967"><ele>287.0</ele><time>2026-04-04T06:44:53.951Z</time></trkpt><trkpt lat="45.6395017" lon="8.36795"><ele>290.0</ele><time>2026-04-04T06:44:54.951Z</time></trkpt><trkpt lat="45.6396483" lon="8.3678"><ele>293.0</ele><time>2026-04-04T06:44:55.951Z</time></trkpt><trkpt lat="45.6397867" lon="8.3676517"><ele>293.0</ele><time>2026-04-04T06:44:56.951Z</time></trkpt><trkpt lat="45.639935" lon="8.3675233"><ele>293.0</ele><time>2026-04-04T06:44:57.951Z</time></trkpt><trkpt lat="45.6401" lon="8.3674267"><ele>293.0</ele><time>2026-04-04T06:44:58.951Z</time></trkpt><trkpt lat="45.640275" lon="8.3673133"><ele>294.33333333333337</ele><time>2026-04-04T06:44:59.951Z</time></trkpt><trkpt lat="45.6404433" lon="8.367205"><ele>295.6666666666667</ele><time>2026-04-04T06:45:00.951Z</time></trkpt><trkpt lat="45.64061" lon="8.36708"><ele>297.0</ele><time>2026-04-04T06:45:01.951Z</time></trkpt><trkpt lat="45.6407767" lon="8.3669333"><ele>297.0</ele><time>2026-04-04T06:45:02.951Z</time></trkpt><trkpt lat="45.6409417" lon="8.3667817"><ele>297.0</ele><time>2026-04-04T06:45:03.951Z</time></trkpt><trkpt lat="45.6411033" lon="8.3666383"><ele>297.0</ele><time>2026-04-04T06:45:04.951Z</time></trkpt><trkpt lat="45.64125" lon="8.3665167"><ele>293.25</ele><time>2026-04-04T06:45:05.951Z</time></trkpt><trkpt lat="45.6413933" lon="8.366445"><ele>289.5</ele><time>2026-04-04T06:45:06.951Z</time></trkpt><trkpt lat="45.6415333" lon="8.3664"><ele>285.75</ele><time>2026-04-04T06:45:07.951Z</time></trkpt><trkpt lat="45.641675" lon="8.36638"><ele>282.0</ele><time>2026-04-04T06:45:08.951Z</time></trkpt><trkpt lat="45.641845" lon="8.3663733"><ele>280.6666666666667</ele><time>2026-04-04T06:45:09.951Z</time></trkpt><trkpt lat="45.642015" lon="8.366365"><ele>279.33333333333337</ele><time>2026-04-04T06:45:10.95Z</time></trkpt><trkpt lat="45.64218" lon="8.36634"><ele>278.0</ele><time>2026-04-04T06:45:11.951Z</time></trkpt><trkpt lat="45.642335" lon="8.3662983"><ele>281.75</ele><time>2026-04-04T06:45:12.951Z</time></trkpt><trkpt lat="45.6424733" lon="8.366255"><ele>285.5</ele><time>2026-04-04T06:45:13.951Z</time></trkpt><trkpt lat="45.6426167" lon="8.3662183"><ele>289.25</ele><time>2026-04-04T06:45:14.95Z</time></trkpt><trkpt lat="45.6427667" lon="8.3661617"><ele>293.0</ele><time>2026-04-04T06:45:15.951Z</time></trkpt><trkpt lat="45.642925" lon="8.3660967"><ele>293.0</ele><time>2026-04-04T06:45:16.951Z</time></trkpt><trkpt lat="45.6430717" lon="8.3660167"><ele>293.0</ele><time>2026-04-04T06:45:17.951Z</time></trkpt><trkpt lat="45.6432267" lon="8.3659267"><ele>293.0</ele><time>2026-04-04T06:45:18.951Z</time></trkpt><trkpt lat="45.6433783" lon="8.3658183"><ele>293.0</ele><time>2026-04-04T06:45:19.951Z</time></trkpt><trkpt lat="45.6435117" lon="8.3657133"><ele>293.0</ele><time>2026-04-04T06:45:20.951Z</time></trkpt><trkpt lat="45.6436567" lon="8.3655967"><ele>293.0</ele><time>2026-04-04T06:45:21.951Z</time></trkpt><trkpt lat="45.6438067" lon="8.3654983"><ele>294.0</ele><time>2026-04-04T06:45:22.951Z</time></trkpt><trkpt lat="45.6439517" lon="8.36538"><ele>295.0</ele><time>2026-04-04T06:45:23.951Z</time></trkpt><trkpt lat="45.644075" lon="8.3652117"><ele>296.0</ele><time>2026-04-04T06:45:24.951Z</time></trkpt><trkpt lat="45.6442" lon="8.36501"><ele>296.0</ele><time>2026-04-04T06:45:25.951Z</time></trkpt><trkpt lat="45.6443267" lon="8.3648183"><ele>296.0</ele><time>2026-04-04T06:45:26.951Z</time></trkpt><trkpt lat="45.64446" lon="8.3646433"><ele>296.0</ele><time>2026-04-04T06:45:27.95Z</time></trkpt><trkpt lat="45.6445933" lon="8.3644533"><ele>294.0</ele><time>2026-04-04T06:45:28.95Z</time></trkpt><trkpt lat="45.6447167" lon="8.36426"><ele>292.0</ele><time>2026-04-04T06:45:29.951Z</time></trkpt><trkpt lat="45.6448383" lon="8.36406"><ele>290.0</ele><time>2026-04-04T06:45:30.951Z</time></trkpt><trkpt lat="45.6449433" lon="8.3638367"><ele>290.0</ele><time>2026-04-04T06:45:31.951Z</time></trkpt><trkpt lat="45.64506" lon="8.3636167"><ele>290.0</ele><time>2026-04-04T06:45:32.951Z</time></trkpt><trkpt lat="45.6451867" lon="8.3633817"><ele>290.0</ele><time>2026-04-04T06:45:33.951Z</time></trkpt><trkpt lat="45.6453083" lon="8.3631433"><ele>289.6666666666667</ele><time>2026-04-04T06:45:34.951Z</time></trkpt><trkpt lat="45.6454267" lon="8.362915"><ele>289.3333333333333</ele><time>2026-04-04T06:45:35.951Z</time></trkpt><trkpt lat="45.6455283" lon="8.3626983"><ele>289.0</ele><time>2026-04-04T06:45:36.951Z</time></trkpt><trkpt lat="45.6456383" lon="8.36249"><ele>289.0</ele><time>2026-04-04T06:45:37.951Z</time></trkpt><trkpt lat="45.64575" lon="8.3622817"><ele>289.0</ele><time>2026-04-04T06:45:38.951Z</time></trkpt><trkpt lat="45.645865" lon="8.3620783"><ele>289.0</ele><time>2026-04-04T06:45:39.951Z</time></trkpt><trkpt lat="45.6459883" lon="8.3618917"><ele>286.66666666666663</ele><time>2026-04-04T06:45:40.95Z</time></trkpt><trkpt lat="45.646135" lon="8.36172"><ele>284.3333333333333</ele><time>2026-04-04T06:45:41.951Z</time></trkpt><trkpt lat="45.6462883" lon="8.3615567"><ele>282.0</ele><time>2026-04-04T06:45:42.951Z</time></trkpt><trkpt lat="45.6464467" lon="8.3614017"><ele>288.3333333333333</ele><time>2026-04-04T06:45:43.951Z</time></trkpt><trkpt lat="45.6466017" lon="8.3612433"><ele>294.66666666666663</ele><time>2026-04-04T06:45:44.951Z</time></trkpt><trkpt lat="45.6467367" lon="8.3610683"><ele>301.0</ele><time>2026-04-04T06:45:45.951Z</time></trkpt><trkpt lat="45.6468567" lon="8.3608717"><ele>301.0</ele><time>2026-04-04T06:45:46.951Z</time></trkpt><trkpt lat="45.646935" lon="8.3606467"><ele>301.0</ele><time>2026-04-04T06:45:47.95Z</time></trkpt><trkpt lat="45.6469733" lon="8.3603867"><ele>301.0</ele><time>2026-04-04T06:45:48.951Z</time></trkpt><trkpt lat="45.6469883" lon="8.3600883"><ele>295.66666666666663</ele><time>2026-04-04T06:45:49.95Z</time></trkpt><trkpt lat="45.647" lon="8.35982"><ele>290.3333333333333</ele><time>2026-04-04T06:45:50.95Z</time></trkpt><trkpt lat="45.6470033" lon="8.3595533"><ele>285.0</ele><time>2026-04-04T06:45:51.951Z</time></trkpt><trkpt lat="45.647025" lon="8.3592933"><ele>285.0</ele><time>2026-04-04T06:45:52.951Z</time></trkpt><trkpt lat="45.6470633" lon="8.3590083"><ele>285.0</ele><time>2026-04-04T06:45:53.951Z</time></trkpt><trkpt lat="45.64713" lon="8.35874"><ele>285.0</ele><time>2026-04-04T06:45:54.951Z</time></trkpt><trkpt lat="45.647225" lon="8.35849"><ele>288.0</ele><time>2026-04-04T06:45:55.951Z</time></trkpt><trkpt lat="45.6473367" lon="8.358255"><ele>291.0</ele><time>2026-04-04T06:45:56.951Z</time></trkpt><trkpt lat="45.64748" lon="8.3580583"><ele>294.0</ele><time>2026-04-04T06:45:57.951Z</time></trkpt><trkpt lat="45.6476367" lon="8.3578717"><ele>291.3333333333333</ele><time>2026-04-04T06:45:58.951Z</time></trkpt><trkpt lat="45.6478133" lon="8.3576933"><ele>288.66666666666663</ele><time>2026-04-04T06:45:59.951Z</time></trkpt><trkpt lat="45.648" lon="8.3575167"><ele>286.0</ele><time>2026-04-04T06:46:00.951Z</time></trkpt><trkpt lat="45.64818" lon="8.3573417"><ele>284.3333333333333</ele><time>2026-04-04T06:46:01.951Z</time></trkpt><trkpt lat="45.6483483" lon="8.3571633"><ele>282.6666666666667</ele><time>2026-04-04T06:46:02.951Z</time></trkpt><trkpt lat="45.6485117" lon="8.3569617"><ele>281.0</ele><time>2026-04-04T06:46:03.951Z</time></trkpt><trkpt lat="45.6486783" lon="8.3567233"><ele>281.0</ele><time>2026-04-04T06:46:04.951Z</time></trkpt><trkpt lat="45.6488467" lon="8.3564533"><ele>281.0</ele><time>2026-04-04T06:46:05.951Z</time></trkpt><trkpt lat="45.6490133" lon="8.3561617"><ele>287.5</ele><time>2026-04-04T06:46:06.951Z</time></trkpt><trkpt lat="45.6492017" lon="8.3558517"><ele>294.0</ele><time>2026-04-04T06:46:07.951Z</time></trkpt><trkpt lat="45.6494083" lon="8.3555317"><ele>289.0</ele><time>2026-04-04T06:46:08.951Z</time></trkpt><trkpt lat="45.6496267" lon="8.3552117"><ele>284.0</ele><time>2026-04-04T06:46:09.951Z</time></trkpt><trkpt lat="45.6498467" lon="8.3548817"><ele>281.0</ele><time>2026-04-04T06:46:10.951Z</time></trkpt><trkpt lat="45.650065" lon="8.3545233"><ele>278.0</ele><time>2026-04-04T06:46:11.951Z</time></trkpt><trkpt lat="45.6502933" lon="8.354155"><ele>284.5</ele><time>2026-04-04T06:46:12.951Z</time></trkpt><trkpt lat="45.6505283" lon="8.3537783"><ele>291.0</ele><time>2026-04-04T06:46:13.95Z</time></trkpt><trkpt lat="45.65077" lon="8.3534"><ele>286.0</ele><time>2026-04-04T06:46:14.95Z</time></trkpt><trkpt lat="45.6510083" lon="8.3530283"><ele>281.0</ele><time>2026-04-04T06:46:15.951Z</time></trkpt><trkpt lat="45.6512283" lon="8.3526817"><ele>281.0</ele><time>2026-04-04T06:46:16.951Z</time></trkpt><trkpt lat="45.6514433" lon="8.3523583"><ele>281.0</ele><time>2026-04-04T06:46:17.951Z</time></trkpt><trkpt lat="45.6516417" lon="8.3520517"><ele>279.5</ele><time>2026-04-04T06:46:18.95Z</time></trkpt><trkpt lat="45.6518167" lon="8.3517567"><ele>278.0</ele><time>2026-04-04T06:46:19.951Z</time></trkpt><trkpt lat="45.6519717" lon="8.351475"><ele>280.0</ele><time>2026-04-04T06:46:20.951Z</time></trkpt><trkpt lat="45.6521083" lon="8.3511967"><ele>282.0</ele><time>2026-04-04T06:46:21.951Z</time></trkpt><trkpt lat="45.6522383" lon="8.3509117"><ele>282.0</ele><time>2026-04-04T06:46:22.951Z</time></trkpt><trkpt lat="45.6523567" lon="8.3506183"><ele>282.0</ele><time>2026-04-04T06:46:23.951Z</time></trkpt><trkpt lat="45.6524667" lon="8.3503117"><ele>290.5</ele><time>2026-04-04T06:46:24.951Z</time></trkpt><trkpt lat="45.6525733" lon="8.3500033"><ele>299.0</ele><time>2026-04-04T06:46:25.951Z</time></trkpt><trkpt lat="45.6526667" lon="8.3496983"><ele>293.33333333333337</ele><time>2026-04-04T06:46:26.951Z</time></trkpt><trkpt lat="45.652745" lon="8.3494117"><ele>287.6666666666667</ele><time>2026-04-04T06:46:27.951Z</time></trkpt><trkpt lat="45.6528067" lon="8.349135"><ele>282.0</ele><time>2026-04-04T06:46:28.951Z</time></trkpt><trkpt lat="45.65285" lon="8.3488583"><ele>282.0</ele><time>2026-04-04T06:46:29.951Z</time></trkpt><trkpt lat="45.6528517" lon="8.3485883"><ele>282.0</ele><time>2026-04-04T06:46:30.951Z</time></trkpt><trkpt lat="45.6528333" lon="8.3483117"><ele>282.0</ele><time>2026-04-04T06:46:31.951Z</time></trkpt><trkpt lat="45.6527933" lon="8.34802"><ele>289.3333333333333</ele><time>2026-04-04T06:46:32.951Z</time></trkpt><trkpt lat="45.6527317" lon="8.3477283"><ele>296.66666666666663</ele><time>2026-04-04T06:46:33.951Z</time></trkpt><trkpt lat="45.6526683" lon="8.347435"><ele>304.0</ele><time>2026-04-04T06:46:34.951Z</time></trkpt><trkpt lat="45.6526283" lon="8.3471283"><ele>304.0</ele><time>2026-04-04T06:46:35.951Z</time></trkpt><trkpt lat="45.65262" lon="8.3468067"><ele>304.0</ele><time>2026-04-04T06:46:36.951Z</time></trkpt><trkpt lat="45.6526333" lon="8.3464633"><ele>307.0</ele><time>2026-04-04T06:46:37.951Z</time></trkpt><trkpt lat="45.65264" lon="8.3461267"><ele>310.0</ele><time>2026-04-04T06:46:38.951Z</time></trkpt><trkpt lat="45.6526417" lon="8.3457783"><ele>311.5</ele><time>2026-04-04T06:46:39.951Z</time></trkpt><trkpt lat="45.6526433" lon="8.3454283"><ele>313.0</ele><time>2026-04-04T06:46:40.951Z</time></trkpt><trkpt lat="45.6526617" lon="8.3450683"><ele>313.0</ele><time>2026-04-04T06:46:41.95Z</time></trkpt><trkpt lat="45.6526617" lon="8.3447233"><ele>313.0</ele><time>2026-04-04T06:46:42.95Z</time></trkpt><trkpt lat="45.6526683" lon="8.3443783"><ele>308.0</ele><time>2026-04-04T06:46:43.951Z</time></trkpt><trkpt lat="45.6526733" lon="8.3440467"><ele>303.0</ele><time>2026-04-04T06:46:44.951Z</time></trkpt><trkpt lat="45.6526783" lon="8.34373"><ele>302.3333333333333</ele><time>2026-04-04T06:46:45.951Z</time></trkpt><trkpt lat="45.6526817" lon="8.3434333"><ele>301.66666666666663</ele><time>2026-04-04T06:46:46.951Z</time></trkpt><trkpt lat="45.6526817" lon="8.343165"><ele>301.0</ele><time>2026-04-04T06:46:47.951Z</time></trkpt><trkpt lat="45.652685" lon="8.3428983"><ele>301.3333333333333</ele><time>2026-04-04T06:46:48.951Z</time></trkpt><trkpt lat="45.6526917" lon="8.3426317"><ele>301.6666666666667</ele><time>2026-04-04T06:46:49.951Z</time></trkpt><trkpt lat="45.6527083" lon="8.3423733"><ele>302.0</ele><time>2026-04-04T06:46:50.951Z</time></trkpt><trkpt lat="45.6527117" lon="8.3421267"><ele>302.0</ele><time>2026-04-04T06:46:51.95Z</time></trkpt><trkpt lat="45.6527233" lon="8.3419017"><ele>302.0</ele><time>2026-04-04T06:46:52.951Z</time></trkpt><trkpt lat="45.6527417" lon="8.3416933"><ele>302.0</ele><time>2026-04-04T06:46:53.951Z</time></trkpt><trkpt lat="45.6527833" lon="8.34149"><ele>300.5</ele><time>2026-04-04T06:46:54.951Z</time></trkpt><trkpt lat="45.6528417" lon="8.3412767"><ele>299.0</ele><time>2026-04-04T06:46:55.95Z</time></trkpt><trkpt lat="45.652915" lon="8.3410933"><ele>297.5</ele><time>2026-04-04T06:46:56.951Z</time></trkpt><trkpt lat="45.653" lon="8.3409333"><ele>296.0</ele><time>2026-04-04T06:46:57.951Z</time></trkpt><trkpt lat="45.6530883" lon="8.3408067"><ele>296.0</ele><time>2026-04-04T06:46:58.951Z</time></trkpt><trkpt lat="45.6531817" lon="8.340695"><ele>296.0</ele><time>2026-04-04T06:46:59.951Z</time></trkpt><trkpt lat="45.6532767" lon="8.3406067"><ele>296.0</ele><time>2026-04-04T06:47:00.951Z</time></trkpt><trkpt lat="45.6533683" lon="8.3405233"><ele>296.0</ele><time>2026-04-04T06:47:01.951Z</time></trkpt><trkpt lat="45.653465" lon="8.3404283"><ele>296.1666666666667</ele><time>2026-04-04T06:47:02.951Z</time></trkpt><trkpt lat="45.653545" lon="8.3403367"><ele>296.33333333333337</ele><time>2026-04-04T06:47:03.951Z</time></trkpt><trkpt lat="45.653625" lon="8.34026"><ele>296.5</ele><time>2026-04-04T06:47:04.951Z</time></trkpt><trkpt lat="45.6536917" lon="8.3401967"><ele>296.6666666666667</ele><time>2026-04-04T06:47:05.95Z</time></trkpt><trkpt lat="45.6537617" lon="8.3401683"><ele>296.8333333333333</ele><time>2026-04-04T06:47:06.951Z</time></trkpt><trkpt lat="45.6538367" lon="8.3401517"><ele>297.0</ele><time>2026-04-04T06:47:07.951Z</time></trkpt><trkpt lat="45.6539" lon="8.3401567"><ele>296.6</ele><time>2026-04-04T06:47:08.951Z</time></trkpt><trkpt lat="45.6540083" lon="8.3400783"><ele>296.2</ele><time>2026-04-04T06:47:10.951Z</time></trkpt><trkpt lat="45.6540517" lon="8.3399867"><ele>295.8</ele><time>2026-04-04T06:47:11.95Z</time></trkpt><trkpt lat="45.6541167" lon="8.3398633"><ele>295.4</ele><time>2026-04-04T06:47:12.951Z</time></trkpt><trkpt lat="45.6542067" lon="8.3397333"><ele>295.0</ele><time>2026-04-04T06:47:13.951Z</time></trkpt><trkpt lat="45.654325" lon="8.3395883"><ele>294.3333333333333</ele><time>2026-04-04T06:47:14.951Z</time></trkpt><trkpt lat="45.654465" lon="8.3394467"><ele>293.6666666666667</ele><time>2026-04-04T06:47:15.951Z</time></trkpt><trkpt lat="45.6546183" lon="8.3393017"><ele>293.0</ele><time>2026-04-04T06:47:16.951Z</time></trkpt><trkpt lat="45.6547833" lon="8.3391717"><ele>293.0</ele><time>2026-04-04T06:47:17.951Z</time></trkpt><trkpt lat="45.6549533" lon="8.3390267"><ele>293.0</ele><time>2026-04-04T06:47:18.951Z</time></trkpt><trkpt lat="45.6551383" lon="8.3388683"><ele>293.0</ele><time>2026-04-04T06:47:19.951Z</time></trkpt><trkpt lat="45.65533" lon="8.3387033"><ele>294.6666666666667</ele><time>2026-04-04T06:47:20.951Z</time></trkpt><trkpt lat="45.655515" lon="8.3385367"><ele>296.3333333333333</ele><time>2026-04-04T06:47:21.951Z</time></trkpt><trkpt lat="45.6556983" lon="8.3383667"><ele>298.0</ele><time>2026-04-04T06:47:22.951Z</time></trkpt><trkpt lat="45.6558933" lon="8.3381817"><ele>298.0</ele><time>2026-04-04T06:47:23.951Z</time></trkpt><trkpt lat="45.65609" lon="8.3380033"><ele>298.0</ele><time>2026-04-04T06:47:24.95Z</time></trkpt><trkpt lat="45.6562883" lon="8.3378267"><ele>296.5</ele><time>2026-04-04T06:47:25.951Z</time></trkpt><trkpt lat="45.6564883" lon="8.3376467"><ele>295.0</ele><time>2026-04-04T06:47:26.951Z</time></trkpt><trkpt lat="45.6567017" lon="8.3374583"><ele>295.0</ele><time>2026-04-04T06:47:27.951Z</time></trkpt><trkpt lat="45.6569017" lon="8.337275"><ele>295.0</ele><time>2026-04-04T06:47:28.951Z</time></trkpt><trkpt lat="45.65709" lon="8.3370983"><ele>295.3333333333333</ele><time>2026-04-04T06:47:29.951Z</time></trkpt><trkpt lat="45.65726" lon="8.3369417"><ele>295.6666666666667</ele><time>2026-04-04T06:47:30.951Z</time></trkpt><trkpt lat="45.6574083" lon="8.3368133"><ele>296.0</ele><time>2026-04-04T06:47:31.951Z</time></trkpt><trkpt lat="45.6575317" lon="8.3367017"><ele>296.0</ele><time>2026-04-04T06:47:32.951Z</time></trkpt><trkpt lat="45.65764" lon="8.3366133"><ele>296.0</ele><time>2026-04-04T06:47:33.951Z</time></trkpt><trkpt lat="45.6577433" lon="8.33655"><ele>296.0</ele><time>2026-04-04T06:47:34.951Z</time></trkpt><trkpt lat="45.6578333" lon="8.3365133"><ele>296.0</ele><time>2026-04-04T06:47:35.951Z</time></trkpt><trkpt lat="45.6579133" lon="8.3364767"><ele>296.0</ele><time>2026-04-04T06:47:36.951Z</time></trkpt><trkpt lat="45.6579883" lon="8.33641"><ele>296.25</ele><time>2026-04-04T06:47:37.95Z</time></trkpt><trkpt lat="45.658065" lon="8.3362833"><ele>296.5</ele><time>2026-04-04T06:47:38.951Z</time></trkpt><trkpt lat="45.6581667" lon="8.3361467"><ele>296.75</ele><time>2026-04-04T06:47:39.951Z</time></trkpt><trkpt lat="45.6583017" lon="8.3360117"><ele>297.0</ele><time>2026-04-04T06:47:40.951Z</time></trkpt><trkpt lat="45.65845" lon="8.3358683"><ele>297.0</ele><time>2026-04-04T06:47:41.951Z</time></trkpt><trkpt lat="45.6586167" lon="8.33572"><ele>297.0</ele><time>2026-04-04T06:47:42.951Z</time></trkpt><trkpt lat="45.6587783" lon="8.3355667"><ele>297.0</ele><time>2026-04-04T06:47:43.951Z</time></trkpt><trkpt lat="45.6589283" lon="8.3354367"><ele>296.6666666666667</ele><time>2026-04-04T06:47:44.95Z</time></trkpt><trkpt lat="45.65907" lon="8.335315"><ele>296.33333333333337</ele><time>2026-04-04T06:47:45.951Z</time></trkpt><trkpt lat="45.659205" lon="8.335195"><ele>296.0</ele><time>2026-04-04T06:47:46.951Z</time></trkpt><trkpt lat="45.6593333" lon="8.33508"><ele>296.0</ele><time>2026-04-04T06:47:47.951Z</time></trkpt><trkpt lat="45.65947" lon="8.3349583"><ele>296.0</ele><time>2026-04-04T06:47:48.951Z</time></trkpt><trkpt lat="45.659605" lon="8.33483"><ele>296.0</ele><time>2026-04-04T06:47:49.951Z</time></trkpt><trkpt lat="45.6597467" lon="8.3346883"><ele>297.0</ele><time>2026-04-04T06:47:50.951Z</time></trkpt><trkpt lat="45.659905" lon="8.334535"><ele>298.0</ele><time>2026-04-04T06:47:51.951Z</time></trkpt><trkpt lat="45.6600667" lon="8.3343883"><ele>299.0</ele><time>2026-04-04T06:47:52.951Z</time></trkpt><trkpt lat="45.6602333" lon="8.33424"><ele>298.6666666666667</ele><time>2026-04-04T06:47:53.951Z</time></trkpt><trkpt lat="45.6604" lon="8.334095"><ele>298.3333333333333</ele><time>2026-04-04T06:47:54.951Z</time></trkpt><trkpt lat="45.6605483" lon="8.33396"><ele>298.0</ele><time>2026-04-04T06:47:55.951Z</time></trkpt><trkpt lat="45.6606867" lon="8.33384"><ele>298.75</ele><time>2026-04-04T06:47:56.951Z</time></trkpt><trkpt lat="45.6608133" lon="8.33373"><ele>299.5</ele><time>2026-04-04T06:47:57.95Z</time></trkpt><trkpt lat="45.6609383" lon="8.3336217"><ele>300.25</ele><time>2026-04-04T06:47:58.95Z</time></trkpt><trkpt lat="45.6610633" lon="8.3335083"><ele>301.0</ele><time>2026-04-04T06:47:59.951Z</time></trkpt><trkpt lat="45.6612" lon="8.3334"><ele>301.0</ele><time>2026-04-04T06:48:00.951Z</time></trkpt><trkpt lat="45.66136" lon="8.3333033"><ele>301.0</ele><time>2026-04-04T06:48:01.951Z</time></trkpt><trkpt lat="45.661525" lon="8.333225"><ele>301.0</ele><time>2026-04-04T06:48:02.951Z</time></trkpt><trkpt lat="45.661705" lon="8.3331567"><ele>301.0</ele><time>2026-04-04T06:48:03.95Z</time></trkpt><trkpt lat="45.6618883" lon="8.333105"><ele>301.0</ele><time>2026-04-04T06:48:04.951Z</time></trkpt><trkpt lat="45.6620967" lon="8.333075"><ele>301.0</ele><time>2026-04-04T06:48:05.951Z</time></trkpt><trkpt lat="45.6622967" lon="8.3330433"><ele>300.66666666666663</ele><time>2026-04-04T06:48:06.951Z</time></trkpt><trkpt lat="45.66249" lon="8.3330167"><ele>300.3333333333333</ele><time>2026-04-04T06:48:07.951Z</time></trkpt><trkpt lat="45.6626767" lon="8.3329983"><ele>300.0</ele><time>2026-04-04T06:48:08.951Z</time></trkpt><trkpt lat="45.6628483" lon="8.3329783"><ele>299.0</ele><time>2026-04-04T06:48:09.951Z</time></trkpt><trkpt lat="45.663015" lon="8.332965"><ele>298.0</ele><time>2026-04-04T06:48:10.951Z</time></trkpt><trkpt lat="45.66318" lon="8.332945"><ele>297.0</ele><time>2026-04-04T06:48:11.951Z</time></trkpt><trkpt lat="45.663335" lon="8.332925"><ele>297.0</ele><time>2026-04-04T06:48:12.951Z</time></trkpt><trkpt lat="45.6634967" lon="8.3329167"><ele>297.0</ele><time>2026-04-04T06:48:13.951Z</time></trkpt><trkpt lat="45.6636667" lon="8.3329"><ele>297.0</ele><time>2026-04-04T06:48:14.951Z</time></trkpt><trkpt lat="45.66384" lon="8.332875"><ele>296.3333333333333</ele><time>2026-04-04T06:48:15.951Z</time></trkpt><trkpt lat="45.664015" lon="8.3328567"><ele>295.66666666666663</ele><time>2026-04-04T06:48:16.951Z</time></trkpt><trkpt lat="45.6641717" lon="8.33285"><ele>295.0</ele><time>2026-04-04T06:48:17.951Z</time></trkpt><trkpt lat="45.6643267" lon="8.33284"><ele>295.75</ele><time>2026-04-04T06:48:18.951Z</time></trkpt><trkpt lat="45.6644733" lon="8.3328267"><ele>296.5</ele><time>2026-04-04T06:48:19.951Z</time></trkpt><trkpt lat="45.6646117" lon="8.3328067"><ele>297.25</ele><time>2026-04-04T06:48:20.951Z</time></trkpt><trkpt lat="45.6647333" lon="8.3327933"><ele>298.0</ele><time>2026-04-04T06:48:21.951Z</time></trkpt><trkpt lat="45.664855" lon="8.3327733"><ele>298.0</ele><time>2026-04-04T06:48:22.951Z</time></trkpt><trkpt lat="45.664985" lon="8.3327567"><ele>298.0</ele><time>2026-04-04T06:48:23.951Z</time></trkpt><trkpt lat="45.665125" lon="8.3327433"><ele>298.0</ele><time>2026-04-04T06:48:24.951Z</time></trkpt><trkpt lat="45.6652767" lon="8.3327333"><ele>298.0</ele><time>2026-04-04T06:48:25.951Z</time></trkpt><trkpt lat="45.66544" lon="8.33272"><ele>298.0</ele><time>2026-04-04T06:48:26.951Z</time></trkpt><trkpt lat="45.6656133" lon="8.3327033"><ele>298.0</ele><time>2026-04-04T06:48:27.951Z</time></trkpt><trkpt lat="45.6657783" lon="8.3326917"><ele>298.0</ele><time>2026-04-04T06:48:28.951Z</time></trkpt><trkpt lat="45.6659267" lon="8.33268"><ele>298.0</ele><time>2026-04-04T06:48:29.951Z</time></trkpt><trkpt lat="45.6660683" lon="8.3326683"><ele>298.0</ele><time>2026-04-04T06:48:30.951Z</time></trkpt><trkpt lat="45.6661967" lon="8.3326567"><ele>298.0</ele><time>2026-04-04T06:48:31.951Z</time></trkpt><trkpt lat="45.6663167" lon="8.3326533"><ele>298.0</ele><time>2026-04-04T06:48:32.951Z</time></trkpt><trkpt lat="45.6664267" lon="8.3326517"><ele>298.25</ele><time>2026-04-04T06:48:33.951Z</time></trkpt><trkpt lat="45.6665417" lon="8.3326433"><ele>298.5</ele><time>2026-04-04T06:48:34.951Z</time></trkpt><trkpt lat="45.6666567" lon="8.33263"><ele>298.75</ele><time>2026-04-04T06:48:35.951Z</time></trkpt><trkpt lat="45.6667817" lon="8.3326167"><ele>299.0</ele><time>2026-04-04T06:48:36.951Z</time></trkpt><trkpt lat="45.66692" lon="8.3326"><ele>299.0</ele><time>2026-04-04T06:48:37.951Z</time></trkpt><trkpt lat="45.66707" lon="8.332575"><ele>299.0</ele><time>2026-04-04T06:48:38.951Z</time></trkpt><trkpt lat="45.66723" lon="8.3325483"><ele>299.0</ele><time>2026-04-04T06:48:39.951Z</time></trkpt><trkpt lat="45.6673967" lon="8.3325317"><ele>299.0</ele><time>2026-04-04T06:48:40.951Z</time></trkpt><trkpt lat="45.6675733" lon="8.332515"><ele>299.0</ele><time>2026-04-04T06:48:41.951Z</time></trkpt><trkpt lat="45.6677583" lon="8.3324983"><ele>299.0</ele><time>2026-04-04T06:48:42.951Z</time></trkpt><trkpt lat="45.6679517" lon="8.3324917"><ele>299.0</ele><time>2026-04-04T06:48:43.951Z</time></trkpt><trkpt lat="45.6681467" lon="8.3324867"><ele>299.0</ele><time>2026-04-04T06:48:44.951Z</time></trkpt><trkpt lat="45.6683483" lon="8.3324733"><ele>299.0</ele><time>2026-04-04T06:48:45.951Z</time></trkpt><trkpt lat="45.6685483" lon="8.33245"><ele>299.33333333333337</ele><time>2026-04-04T06:48:46.951Z</time></trkpt><trkpt lat="45.6687383" lon="8.332425"><ele>299.6666666666667</ele><time>2026-04-04T06:48:47.951Z</time></trkpt><trkpt lat="45.6689133" lon="8.3324017"><ele>300.0</ele><time>2026-04-04T06:48:48.951Z</time></trkpt><trkpt lat="45.6690683" lon="8.3323683"><ele>300.0</ele><time>2026-04-04T06:48:49.951Z</time></trkpt><trkpt lat="45.669215" lon="8.3322983"><ele>300.0</ele><time>2026-04-04T06:48:50.95Z</time></trkpt><trkpt lat="45.669355" lon="8.3321967"><ele>300.0</ele><time>2026-04-04T06:48:51.951Z</time></trkpt><trkpt lat="45.6694817" lon="8.3320483"><ele>299.0</ele><time>2026-04-04T06:48:52.95Z</time></trkpt><trkpt lat="45.6695767" lon="8.3318767"><ele>298.0</ele><time>2026-04-04T06:48:53.951Z</time></trkpt><trkpt lat="45.6696367" lon="8.33167"><ele>297.0</ele><time>2026-04-04T06:48:54.951Z</time></trkpt><trkpt lat="45.6696633" lon="8.3314617"><ele>297.6666666666667</ele><time>2026-04-04T06:48:55.951Z</time></trkpt><trkpt lat="45.6696617" lon="8.3312417"><ele>298.33333333333337</ele><time>2026-04-04T06:48:56.951Z</time></trkpt><trkpt lat="45.6696667" lon="8.3310183"><ele>299.0</ele><time>2026-04-04T06:48:57.951Z</time></trkpt><trkpt lat="45.669645" lon="8.3307767"><ele>300.33333333333337</ele><time>2026-04-04T06:48:58.951Z</time></trkpt><trkpt lat="45.66962" lon="8.3305283"><ele>301.6666666666667</ele><time>2026-04-04T06:48:59.951Z</time></trkpt><trkpt lat="45.6696" lon="8.3302717"><ele>303.0</ele><time>2026-04-04T06:49:00.95Z</time></trkpt><trkpt lat="45.669605" lon="8.33002"><ele>303.0</ele><time>2026-04-04T06:49:01.951Z</time></trkpt><trkpt lat="45.6696433" lon="8.3297883"><ele>303.0</ele><time>2026-04-04T06:49:02.951Z</time></trkpt><trkpt lat="45.66972" lon="8.3295533"><ele>303.0</ele><time>2026-04-04T06:49:03.951Z</time></trkpt><trkpt lat="45.6698183" lon="8.3293033"><ele>302.6666666666667</ele><time>2026-04-04T06:49:04.95Z</time></trkpt><trkpt lat="45.6699217" lon="8.3290467"><ele>302.33333333333337</ele><time>2026-04-04T06:49:05.951Z</time></trkpt><trkpt lat="45.6700233" lon="8.3287733"><ele>302.0</ele><time>2026-04-04T06:49:06.95Z</time></trkpt><trkpt lat="45.670145" lon="8.3285017"><ele>301.5</ele><time>2026-04-04T06:49:07.951Z</time></trkpt><trkpt lat="45.6702683" lon="8.3282117"><ele>301.0</ele><time>2026-04-04T06:49:08.951Z</time></trkpt><trkpt lat="45.6703867" lon="8.3279217"><ele>301.0</ele><time>2026-04-04T06:49:09.951Z</time></trkpt><trkpt lat="45.6705067" lon="8.3276433"><ele>301.0</ele><time>2026-04-04T06:49:10.951Z</time></trkpt><trkpt lat="45.670625" lon="8.3273433"><ele>302.5</ele><time>2026-04-04T06:49:11.951Z</time></trkpt><trkpt lat="45.6707583" lon="8.3270583"><ele>304.0</ele><time>2026-04-04T06:49:12.951Z</time></trkpt><trkpt lat="45.6708733" lon="8.326755"><ele>304.0</ele><time>2026-04-04T06:49:13.951Z</time></trkpt><trkpt lat="45.670995" lon="8.32648"><ele>304.0</ele><time>2026-04-04T06:49:14.951Z</time></trkpt><trkpt lat="45.6711067" lon="8.3262067"><ele>304.0</ele><time>2026-04-04T06:49:15.951Z</time></trkpt><trkpt lat="45.6712217" lon="8.32597"><ele>304.66666666666663</ele><time>2026-04-04T06:49:16.951Z</time></trkpt><trkpt lat="45.6713283" lon="8.3257517"><ele>305.3333333333333</ele><time>2026-04-04T06:49:17.951Z</time></trkpt><trkpt lat="45.6714167" lon="8.3255717"><ele>306.0</ele><time>2026-04-04T06:49:18.95Z</time></trkpt><trkpt lat="45.671505" lon="8.325425"><ele>306.0</ele><time>2026-04-04T06:49:19.951Z</time></trkpt><trkpt lat="45.6715833" lon="8.3252883"><ele>306.0</ele><time>2026-04-04T06:49:20.951Z</time></trkpt><trkpt lat="45.6716567" lon="8.3251783"><ele>306.0</ele><time>2026-04-04T06:49:21.951Z</time></trkpt><trkpt lat="45.671725" lon="8.3250967"><ele>306.0</ele><time>2026-04-04T06:49:22.95Z</time></trkpt><trkpt lat="45.6717833" lon="8.32505"><ele>306.0</ele><time>2026-04-04T06:49:23.951Z</time></trkpt><trkpt lat="45.6718533" lon="8.3250117"><ele>306.0</ele><time>2026-04-04T06:49:25.951Z</time></trkpt><trkpt lat="45.6719817" lon="8.3249767"><ele>306.0</ele><time>2026-04-04T06:49:27.951Z</time></trkpt><trkpt lat="45.6720617" lon="8.32493"><ele>306.0</ele><time>2026-04-04T06:49:28.951Z</time></trkpt><trkpt lat="45.6721383" lon="8.3248583"><ele>306.0</ele><time>2026-04-04T06:49:29.951Z</time></trkpt><trkpt lat="45.6721867" lon="8.3247467"><ele>306.0</ele><time>2026-04-04T06:49:30.951Z</time></trkpt><trkpt lat="45.6722133" lon="8.3246133"><ele>306.0</ele><time>2026-04-04T06:49:31.951Z</time></trkpt><trkpt lat="45.6722133" lon="8.3244717"><ele>306.0</ele><time>2026-04-04T06:49:32.951Z</time></trkpt><trkpt lat="45.6722233" lon="8.3243283"><ele>306.0</ele><time>2026-04-04T06:49:33.951Z</time></trkpt><trkpt lat="45.672275" lon="8.324205"><ele>306.0</ele><time>2026-04-04T06:49:34.951Z</time></trkpt><trkpt lat="45.67236" lon="8.3240833"><ele>306.0</ele><time>2026-04-04T06:49:35.95Z</time></trkpt><trkpt lat="45.6724683" lon="8.3239567"><ele>306.0</ele><time>2026-04-04T06:49:36.95Z</time></trkpt><trkpt lat="45.67259" lon="8.3238367"><ele>306.0</ele><time>2026-04-04T06:49:37.951Z</time></trkpt><trkpt lat="45.6727167" lon="8.323725"><ele>306.0</ele><time>2026-04-04T06:49:38.951Z</time></trkpt><trkpt lat="45.6728467" lon="8.3236167"><ele>306.0</ele><time>2026-04-04T06:49:39.951Z</time></trkpt><trkpt lat="45.6729883" lon="8.3234933"><ele>306.0</ele><time>2026-04-04T06:49:40.951Z</time></trkpt><trkpt lat="45.6731283" lon="8.323365"><ele>306.0</ele><time>2026-04-04T06:49:41.951Z</time></trkpt><trkpt lat="45.6732617" lon="8.32323"><ele>306.0</ele><time>2026-04-04T06:49:42.951Z</time></trkpt><trkpt lat="45.6733967" lon="8.3231017"><ele>306.25</ele><time>2026-04-04T06:49:43.951Z</time></trkpt><trkpt lat="45.6735233" lon="8.3229883"><ele>306.5</ele><time>2026-04-04T06:49:44.951Z</time></trkpt><trkpt lat="45.6736317" lon="8.3228883"><ele>306.75</ele><time>2026-04-04T06:49:45.951Z</time></trkpt><trkpt lat="45.6737383" lon="8.3227917"><ele>307.0</ele><time>2026-04-04T06:49:46.951Z</time></trkpt><trkpt lat="45.673835" lon="8.3227033"><ele>307.2</ele><time>2026-04-04T06:49:47.951Z</time></trkpt><trkpt lat="45.6739217" lon="8.3226267"><ele>307.4</ele><time>2026-04-04T06:49:48.95Z</time></trkpt><trkpt lat="45.674" lon="8.32255"><ele>307.6</ele><time>2026-04-04T06:49:49.951Z</time></trkpt><trkpt lat="45.6740733" lon="8.3224833"><ele>307.8</ele><time>2026-04-04T06:49:50.95Z</time></trkpt><trkpt lat="45.67415" lon="8.32241"><ele>308.0</ele><time>2026-04-04T06:49:51.951Z</time></trkpt><trkpt lat="45.6742217" lon="8.3223417"><ele>308.0</ele><time>2026-04-04T06:49:52.95Z</time></trkpt><trkpt lat="45.6742833" lon="8.3222867"><ele>308.0</ele><time>2026-04-04T06:49:53.951Z</time></trkpt><trkpt lat="45.6743467" lon="8.32223"><ele>308.0</ele><time>2026-04-04T06:49:54.951Z</time></trkpt><trkpt lat="45.6744433" lon="8.322145"><ele>308.0</ele><time>2026-04-04T06:49:56.951Z</time></trkpt><trkpt lat="45.674525" lon="8.322055"><ele>308.0</ele><time>2026-04-04T06:49:58.951Z</time></trkpt><trkpt lat="45.6746383" lon="8.3219567"><ele>308.75</ele><time>2026-04-04T06:50:00.951Z</time></trkpt><trkpt lat="45.6747233" lon="8.321885"><ele>309.5</ele><time>2026-04-04T06:50:01.951Z</time></trkpt><trkpt lat="45.67482" lon="8.3218017"><ele>310.25</ele><time>2026-04-04T06:50:02.951Z</time></trkpt><trkpt lat="45.6749217" lon="8.3217217"><ele>311.0</ele><time>2026-04-04T06:50:03.951Z</time></trkpt><trkpt lat="45.6750367" lon="8.3216317"><ele>311.0</ele><time>2026-04-04T06:50:04.951Z</time></trkpt><trkpt lat="45.67516" lon="8.3215333"><ele>311.0</ele><time>2026-04-04T06:50:05.951Z</time></trkpt><trkpt lat="45.6752867" lon="8.321425"><ele>311.0</ele><time>2026-04-04T06:50:06.951Z</time></trkpt><trkpt lat="45.6754117" lon="8.321305"><ele>311.0</ele><time>2026-04-04T06:50:07.951Z</time></trkpt><trkpt lat="45.6755367" lon="8.32119"><ele>311.33333333333337</ele><time>2026-04-04T06:50:08.951Z</time></trkpt><trkpt lat="45.6756717" lon="8.3210683"><ele>311.6666666666667</ele><time>2026-04-04T06:50:09.951Z</time></trkpt><trkpt lat="45.675815" lon="8.3209367"><ele>312.0</ele><time>2026-04-04T06:50:10.951Z</time></trkpt><trkpt lat="45.6759733" lon="8.320805"><ele>312.0</ele><time>2026-04-04T06:50:11.951Z</time></trkpt><trkpt lat="45.6761233" lon="8.320675"><ele>312.0</ele><time>2026-04-04T06:50:12.951Z</time></trkpt><trkpt lat="45.6762783" lon="8.3205433"><ele>312.0</ele><time>2026-04-04T06:50:13.951Z</time></trkpt><trkpt lat="45.6764317" lon="8.3204167"><ele>312.0</ele><time>2026-04-04T06:50:14.951Z</time></trkpt><trkpt lat="45.6765917" lon="8.3202833"><ele>312.0</ele><time>2026-04-04T06:50:15.951Z</time></trkpt><trkpt lat="45.6767517" lon="8.3201533"><ele>312.0</ele><time>2026-04-04T06:50:16.951Z</time></trkpt><trkpt lat="45.67692" lon="8.3200033"><ele>311.6666666666667</ele><time>2026-04-04T06:50:17.951Z</time></trkpt><trkpt lat="45.6770833" lon="8.3198467"><ele>311.33333333333337</ele><time>2026-04-04T06:50:18.951Z</time></trkpt><trkpt lat="45.677245" lon="8.3196917"><ele>311.0</ele><time>2026-04-04T06:50:19.951Z</time></trkpt><trkpt lat="45.6774117" lon="8.3195567"><ele>311.0</ele><time>2026-04-04T06:50:20.95Z</time></trkpt><trkpt lat="45.677585" lon="8.3194"><ele>311.0</ele><time>2026-04-04T06:50:21.951Z</time></trkpt><trkpt lat="45.67776" lon="8.3192517"><ele>311.0</ele><time>2026-04-04T06:50:22.951Z</time></trkpt><trkpt lat="45.6779317" lon="8.3191017"><ele>311.33333333333337</ele><time>2026-04-04T06:50:23.951Z</time></trkpt><trkpt lat="45.6780983" lon="8.3189417"><ele>311.6666666666667</ele><time>2026-04-04T06:50:24.951Z</time></trkpt><trkpt lat="45.67827" lon="8.3187817"><ele>312.0</ele><time>2026-04-04T06:50:25.951Z</time></trkpt><trkpt lat="45.6784383" lon="8.318625"><ele>312.3333333333333</ele><time>2026-04-04T06:50:26.951Z</time></trkpt><trkpt lat="45.6786033" lon="8.3184783"><ele>312.66666666666663</ele><time>2026-04-04T06:50:27.951Z</time></trkpt><trkpt lat="45.6787767" lon="8.318335"><ele>313.0</ele><time>2026-04-04T06:50:28.951Z</time></trkpt><trkpt lat="45.6789517" lon="8.31818"><ele>314.3333333333333</ele><time>2026-04-04T06:50:29.951Z</time></trkpt><trkpt lat="45.67913" lon="8.3180283"><ele>315.6666666666667</ele><time>2026-04-04T06:50:30.951Z</time></trkpt><trkpt lat="45.679305" lon="8.3178783"><ele>317.0</ele><time>2026-04-04T06:50:31.951Z</time></trkpt><trkpt lat="45.679475" lon="8.317725"><ele>317.33333333333337</ele><time>2026-04-04T06:50:32.951Z</time></trkpt><trkpt lat="45.6796467" lon="8.31757"><ele>317.6666666666667</ele><time>2026-04-04T06:50:33.951Z</time></trkpt><trkpt lat="45.6798167" lon="8.3174167"><ele>318.0</ele><time>2026-04-04T06:50:34.951Z</time></trkpt><trkpt lat="45.67999" lon="8.3172633"><ele>318.6666666666667</ele><time>2026-04-04T06:50:35.951Z</time></trkpt><trkpt lat="45.6801533" lon="8.3171167"><ele>319.33333333333337</ele><time>2026-04-04T06:50:36.951Z</time></trkpt><trkpt lat="45.680305" lon="8.3169783"><ele>320.0</ele><time>2026-04-04T06:50:37.951Z</time></trkpt><trkpt lat="45.6804433" lon="8.3168567"><ele>320.25</ele><time>2026-04-04T06:50:38.951Z</time></trkpt><trkpt lat="45.680565" lon="8.3167383"><ele>320.5</ele><time>2026-04-04T06:50:39.951Z</time></trkpt><trkpt lat="45.6806817" lon="8.3166333"><ele>320.75</ele><time>2026-04-04T06:50:40.951Z</time></trkpt><trkpt lat="45.6807867" lon="8.3165467"><ele>321.0</ele><time>2026-04-04T06:50:41.951Z</time></trkpt><trkpt lat="45.6808733" lon="8.3164633"><ele>321.20000000000005</ele><time>2026-04-04T06:50:42.95Z</time></trkpt><trkpt lat="45.6809517" lon="8.3163817"><ele>321.40000000000003</ele><time>2026-04-04T06:50:43.95Z</time></trkpt><trkpt lat="45.681025" lon="8.3163167"><ele>321.6</ele><time>2026-04-04T06:50:44.951Z</time></trkpt><trkpt lat="45.6810783" lon="8.3162383"><ele>321.8</ele><time>2026-04-04T06:50:45.951Z</time></trkpt><trkpt lat="45.6811217" lon="8.3161267"><ele>322.0</ele><time>2026-04-04T06:50:46.95Z</time></trkpt><trkpt lat="45.68115" lon="8.3159883"><ele>322.25</ele><time>2026-04-04T06:50:47.95Z</time></trkpt><trkpt lat="45.6811833" lon="8.31581"><ele>322.5</ele><time>2026-04-04T06:50:48.951Z</time></trkpt><trkpt lat="45.6812367" lon="8.3156067"><ele>322.75</ele><time>2026-04-04T06:50:49.951Z</time></trkpt><trkpt lat="45.6813" lon="8.3154017"><ele>323.0</ele><time>2026-04-04T06:50:50.95Z</time></trkpt><trkpt lat="45.6813683" lon="8.3152"><ele>323.6666666666667</ele><time>2026-04-04T06:50:51.951Z</time></trkpt><trkpt lat="45.6814483" lon="8.3150017"><ele>324.3333333333333</ele><time>2026-04-04T06:50:52.951Z</time></trkpt><trkpt lat="45.6815317" lon="8.3148"><ele>325.0</ele><time>2026-04-04T06:50:53.951Z</time></trkpt><trkpt lat="45.68161" lon="8.3146167"><ele>325.0</ele><time>2026-04-04T06:50:54.951Z</time></trkpt><trkpt lat="45.6816933" lon="8.314455"><ele>325.0</ele><time>2026-04-04T06:50:55.951Z</time></trkpt><trkpt lat="45.6817667" lon="8.314315"><ele>325.0</ele><time>2026-04-04T06:50:56.951Z</time></trkpt><trkpt lat="45.6818317" lon="8.31419"><ele>325.0</ele><time>2026-04-04T06:50:57.951Z</time></trkpt><trkpt lat="45.6818883" lon="8.3140783"><ele>325.3333333333333</ele><time>2026-04-04T06:50:58.951Z</time></trkpt><trkpt lat="45.6819433" lon="8.3139883"><ele>325.66666666666663</ele><time>2026-04-04T06:50:59.951Z</time></trkpt><trkpt lat="45.6819883" lon="8.31391"><ele>326.0</ele><time>2026-04-04T06:51:00.951Z</time></trkpt><trkpt lat="45.6820283" lon="8.3138383"><ele>326.3333333333333</ele><time>2026-04-04T06:51:01.951Z</time></trkpt><trkpt lat="45.6820917" lon="8.313715"><ele>326.6666666666667</ele><time>2026-04-04T06:51:03.951Z</time></trkpt><trkpt lat="45.68215" lon="8.313625"><ele>327.0</ele><time>2026-04-04T06:51:05.951Z</time></trkpt><trkpt lat="45.6822017" lon="8.3134917"><ele>327.40000000000003</ele><time>2026-04-04T06:51:07.951Z</time></trkpt><trkpt lat="45.6822767" lon="8.3133617"><ele>327.8</ele><time>2026-04-04T06:51:09.951Z</time></trkpt><trkpt lat="45.68236" lon="8.3132283"><ele>328.2</ele><time>2026-04-04T06:51:11.951Z</time></trkpt><trkpt lat="45.6824183" lon="8.3131467"><ele>328.6</ele><time>2026-04-04T06:51:12.951Z</time></trkpt><trkpt lat="45.6824817" lon="8.313035"><ele>329.0</ele><time>2026-04-04T06:51:13.951Z</time></trkpt><trkpt lat="45.682555" lon="8.3128967"><ele>329.0</ele><time>2026-04-04T06:51:14.951Z</time></trkpt><trkpt lat="45.6826467" lon="8.3127517"><ele>329.0</ele><time>2026-04-04T06:51:15.951Z</time></trkpt><trkpt lat="45.6827333" lon="8.3126"><ele>329.0</ele><time>2026-04-04T06:51:16.951Z</time></trkpt><trkpt lat="45.6828233" lon="8.31244"><ele>329.0</ele><time>2026-04-04T06:51:17.951Z</time></trkpt><trkpt lat="45.6829217" lon="8.3122767"><ele>330.0</ele><time>2026-04-04T06:51:18.951Z</time></trkpt><trkpt lat="45.6830183" lon="8.3120967"><ele>331.0</ele><time>2026-04-04T06:51:19.951Z</time></trkpt><trkpt lat="45.6831267" lon="8.3119117"><ele>332.0</ele><time>2026-04-04T06:51:20.951Z</time></trkpt><trkpt lat="45.6832417" lon="8.311715"><ele>332.0</ele><time>2026-04-04T06:51:21.951Z</time></trkpt><trkpt lat="45.6833517" lon="8.3115117"><ele>332.0</ele><time>2026-04-04T06:51:22.951Z</time></trkpt><trkpt lat="45.68346" lon="8.3113067"><ele>332.0</ele><time>2026-04-04T06:51:23.951Z</time></trkpt><trkpt lat="45.6835817" lon="8.3110917"><ele>331.33333333333337</ele><time>2026-04-04T06:51:24.951Z</time></trkpt><trkpt lat="45.683695" lon="8.3108817"><ele>330.6666666666667</ele><time>2026-04-04T06:51:25.951Z</time></trkpt><trkpt lat="45.6838183" lon="8.3106717"><ele>330.0</ele><time>2026-04-04T06:51:26.951Z</time></trkpt><trkpt lat="45.6839367" lon="8.310455"><ele>330.0</ele><time>2026-04-04T06:51:27.951Z</time></trkpt><trkpt lat="45.684055" lon="8.31023"><ele>330.0</ele><time>2026-04-04T06:51:28.95Z</time></trkpt><trkpt lat="45.6841817" lon="8.3100083"><ele>330.0</ele><time>2026-04-04T06:51:29.951Z</time></trkpt><trkpt lat="45.6843183" lon="8.3097833"><ele>330.6666666666667</ele><time>2026-04-04T06:51:30.951Z</time></trkpt><trkpt lat="45.6844483" lon="8.3095583"><ele>331.33333333333337</ele><time>2026-04-04T06:51:31.951Z</time></trkpt><trkpt lat="45.6845733" lon="8.309345"><ele>332.0</ele><time>2026-04-04T06:51:32.951Z</time></trkpt><trkpt lat="45.68469" lon="8.30911"><ele>332.33333333333337</ele><time>2026-04-04T06:51:33.951Z</time></trkpt><trkpt lat="45.6848133" lon="8.3088833"><ele>332.6666666666667</ele><time>2026-04-04T06:51:34.951Z</time></trkpt><trkpt lat="45.6849317" lon="8.30865"><ele>333.0</ele><time>2026-04-04T06:51:35.951Z</time></trkpt><trkpt lat="45.6850367" lon="8.3084133"><ele>333.0</ele><time>2026-04-04T06:51:36.951Z</time></trkpt><trkpt lat="45.6851217" lon="8.3081617"><ele>333.0</ele><time>2026-04-04T06:51:37.951Z</time></trkpt><trkpt lat="45.6851883" lon="8.3078983"><ele>333.0</ele><time>2026-04-04T06:51:38.95Z</time></trkpt><trkpt lat="45.685245" lon="8.3076233"><ele>334.6666666666667</ele><time>2026-04-04T06:51:39.951Z</time></trkpt><trkpt lat="45.68531" lon="8.3073567"><ele>336.33333333333337</ele><time>2026-04-04T06:51:40.95Z</time></trkpt><trkpt lat="45.68538" lon="8.3070917"><ele>338.0</ele><time>2026-04-04T06:51:41.951Z</time></trkpt><trkpt lat="45.68546" lon="8.306845"><ele>338.0</ele><time>2026-04-04T06:51:42.95Z</time></trkpt><trkpt lat="45.6855583" lon="8.306615"><ele>338.0</ele><time>2026-04-04T06:51:43.951Z</time></trkpt><trkpt lat="45.6856617" lon="8.306405"><ele>338.0</ele><time>2026-04-04T06:51:44.951Z</time></trkpt><trkpt lat="45.6857833" lon="8.3062167"><ele>337.33333333333337</ele><time>2026-04-04T06:51:45.951Z</time></trkpt><trkpt lat="45.6859117" lon="8.3060467"><ele>336.6666666666667</ele><time>2026-04-04T06:51:46.951Z</time></trkpt><trkpt lat="45.6860267" lon="8.305875"><ele>336.0</ele><time>2026-04-04T06:51:47.951Z</time></trkpt><trkpt lat="45.6861517" lon="8.30572"><ele>336.6666666666667</ele><time>2026-04-04T06:51:48.951Z</time></trkpt><trkpt lat="45.6862733" lon="8.3055667"><ele>337.33333333333337</ele><time>2026-04-04T06:51:49.951Z</time></trkpt><trkpt lat="45.686395" lon="8.3054217"><ele>338.0</ele><time>2026-04-04T06:51:50.951Z</time></trkpt><trkpt lat="45.686525" lon="8.3052883"><ele>338.0</ele><time>2026-04-04T06:51:51.95Z</time></trkpt><trkpt lat="45.6866717" lon="8.3051733"><ele>338.0</ele><time>2026-04-04T06:51:52.951Z</time></trkpt><trkpt lat="45.68684" lon="8.3050833"><ele>338.0</ele><time>2026-04-04T06:51:53.951Z</time></trkpt><trkpt lat="45.6870117" lon="8.304995"><ele>337.33333333333337</ele><time>2026-04-04T06:51:54.951Z</time></trkpt><trkpt lat="45.6871883" lon="8.3049133"><ele>336.6666666666667</ele><time>2026-04-04T06:51:55.951Z</time></trkpt><trkpt lat="45.6873567" lon="8.3048367"><ele>336.0</ele><time>2026-04-04T06:51:56.951Z</time></trkpt><trkpt lat="45.6875183" lon="8.3047633"><ele>336.6666666666667</ele><time>2026-04-04T06:51:57.951Z</time></trkpt><trkpt lat="45.6876733" lon="8.3046867"><ele>337.33333333333337</ele><time>2026-04-04T06:51:58.951Z</time></trkpt><trkpt lat="45.6878333" lon="8.30462"><ele>338.0</ele><time>2026-04-04T06:51:59.951Z</time></trkpt><trkpt lat="45.6880017" lon="8.3045383"><ele>338.33333333333337</ele><time>2026-04-04T06:52:00.951Z</time></trkpt><trkpt lat="45.6881767" lon="8.3044367"><ele>338.6666666666667</ele><time>2026-04-04T06:52:01.951Z</time></trkpt><trkpt lat="45.6883517" lon="8.3043217"><ele>339.0</ele><time>2026-04-04T06:52:02.95Z</time></trkpt><trkpt lat="45.68852" lon="8.3041867"><ele>338.3333333333333</ele><time>2026-04-04T06:52:03.951Z</time></trkpt><trkpt lat="45.6886867" lon="8.30402"><ele>337.66666666666663</ele><time>2026-04-04T06:52:04.951Z</time></trkpt><trkpt lat="45.6888483" lon="8.3038083"><ele>337.0</ele><time>2026-04-04T06:52:05.951Z</time></trkpt><trkpt lat="45.6890117" lon="8.3035683"><ele>337.0</ele><time>2026-04-04T06:52:06.951Z</time></trkpt><trkpt lat="45.6891833" lon="8.3033083"><ele>337.0</ele><time>2026-04-04T06:52:07.951Z</time></trkpt><trkpt lat="45.6893733" lon="8.3030467"><ele>338.5</ele><time>2026-04-04T06:52:08.951Z</time></trkpt><trkpt lat="45.6895517" lon="8.3028083"><ele>340.0</ele><time>2026-04-04T06:52:09.951Z</time></trkpt><trkpt lat="45.689725" lon="8.3025817"><ele>340.0</ele><time>2026-04-04T06:52:10.951Z</time></trkpt><trkpt lat="45.6898967" lon="8.302365"><ele>340.0</ele><time>2026-04-04T06:52:11.951Z</time></trkpt><trkpt lat="45.6900633" lon="8.302155"><ele>338.0</ele><time>2026-04-04T06:52:12.951Z</time></trkpt><trkpt lat="45.6902267" lon="8.3019267"><ele>336.0</ele><time>2026-04-04T06:52:13.951Z</time></trkpt><trkpt lat="45.69038" lon="8.3017067"><ele>334.0</ele><time>2026-04-04T06:52:14.951Z</time></trkpt><trkpt lat="45.69052" lon="8.301505"><ele>336.0</ele><time>2026-04-04T06:52:15.951Z</time></trkpt><trkpt lat="45.6906633" lon="8.3013167"><ele>338.0</ele><time>2026-04-04T06:52:16.951Z</time></trkpt><trkpt lat="45.6907983" lon="8.3011167"><ele>340.0</ele><time>2026-04-04T06:52:17.95Z</time></trkpt><trkpt lat="45.690945" lon="8.3009217"><ele>340.0</ele><time>2026-04-04T06:52:18.951Z</time></trkpt><trkpt lat="45.6910833" lon="8.30073"><ele>340.0</ele><time>2026-04-04T06:52:19.951Z</time></trkpt><trkpt lat="45.6912283" lon="8.30055"><ele>340.0</ele><time>2026-04-04T06:52:20.951Z</time></trkpt><trkpt lat="45.6913617" lon="8.3003867"><ele>338.3333333333333</ele><time>2026-04-04T06:52:21.951Z</time></trkpt><trkpt lat="45.6915" lon="8.3002383"><ele>336.6666666666667</ele><time>2026-04-04T06:52:22.951Z</time></trkpt><trkpt lat="45.6916517" lon="8.30012"><ele>335.0</ele><time>2026-04-04T06:52:23.95Z</time></trkpt><trkpt lat="45.6917967" lon="8.3000083"><ele>335.25</ele><time>2026-04-04T06:52:24.951Z</time></trkpt><trkpt lat="45.69193" lon="8.2999117"><ele>335.5</ele><time>2026-04-04T06:52:25.951Z</time></trkpt><trkpt lat="45.6920533" lon="8.2998233"><ele>335.75</ele><time>2026-04-04T06:52:26.951Z</time></trkpt><trkpt lat="45.6921733" lon="8.29973"><ele>336.0</ele><time>2026-04-04T06:52:27.951Z</time></trkpt><trkpt lat="45.6923017" lon="8.29965"><ele>336.25</ele><time>2026-04-04T06:52:28.951Z</time></trkpt><trkpt lat="45.6924217" lon="8.2995633"><ele>336.5</ele><time>2026-04-04T06:52:29.951Z</time></trkpt><trkpt lat="45.69255" lon="8.299475"><ele>336.75</ele><time>2026-04-04T06:52:30.95Z</time></trkpt><trkpt lat="45.69267" lon="8.29939"><ele>337.0</ele><time>2026-04-04T06:52:31.951Z</time></trkpt><trkpt lat="45.6927833" lon="8.29931"><ele>337.0</ele><time>2026-04-04T06:52:32.951Z</time></trkpt><trkpt lat="45.6929067" lon="8.29922"><ele>337.0</ele><time>2026-04-04T06:52:33.951Z</time></trkpt><trkpt lat="45.6930367" lon="8.2991233"><ele>337.0</ele><time>2026-04-04T06:52:34.951Z</time></trkpt><trkpt lat="45.693155" lon="8.2990283"><ele>337.0</ele><time>2026-04-04T06:52:35.951Z</time></trkpt><trkpt lat="45.693265" lon="8.2989433"><ele>337.0</ele><time>2026-04-04T06:52:36.951Z</time></trkpt><trkpt lat="45.69337" lon="8.2988583"><ele>337.0</ele><time>2026-04-04T06:52:37.951Z</time></trkpt><trkpt lat="45.69346" lon="8.29877"><ele>337.0</ele><time>2026-04-04T06:52:38.951Z</time></trkpt><trkpt lat="45.693545" lon="8.2986833"><ele>337.0</ele><time>2026-04-04T06:52:39.951Z</time></trkpt><trkpt lat="45.693615" lon="8.2986167"><ele>337.0</ele><time>2026-04-04T06:52:40.951Z</time></trkpt><trkpt lat="45.6936733" lon="8.298555"><ele>337.0</ele><time>2026-04-04T06:52:41.951Z</time></trkpt><trkpt lat="45.6937583" lon="8.2984683"><ele>337.0</ele><time>2026-04-04T06:52:43.951Z</time></trkpt><trkpt lat="45.6938217" lon="8.298405"><ele>337.0</ele><time>2026-04-04T06:52:45.951Z</time></trkpt><trkpt lat="45.6938767" lon="8.2983433"><ele>337.0</ele><time>2026-04-04T06:52:47.951Z</time></trkpt><trkpt lat="45.6939267" lon="8.2982883"><ele>337.0</ele><time>2026-04-04T06:52:49.951Z</time></trkpt><trkpt lat="45.6939967" lon="8.2982283"><ele>337.0</ele><time>2026-04-04T06:52:52.951Z</time></trkpt><trkpt lat="45.69407" lon="8.29814"><ele>337.0</ele><time>2026-04-04T06:53:11.951Z</time></trkpt><trkpt lat="45.694165" lon="8.298045"><ele>337.0</ele><time>2026-04-04T06:53:12.951Z</time></trkpt><trkpt lat="45.6942817" lon="8.29794"><ele>337.0</ele><time>2026-04-04T06:53:13.951Z</time></trkpt><trkpt lat="45.6944067" lon="8.29782"><ele>337.0</ele><time>2026-04-04T06:53:14.951Z</time></trkpt><trkpt lat="45.6945483" lon="8.2976933"><ele>336.0</ele><time>2026-04-04T06:53:15.951Z</time></trkpt><trkpt lat="45.694695" lon="8.2975667"><ele>335.0</ele><time>2026-04-04T06:53:16.951Z</time></trkpt><trkpt lat="45.69485" lon="8.2974233"><ele>334.0</ele><time>2026-04-04T06:53:17.951Z</time></trkpt><trkpt lat="45.695005" lon="8.2972583"><ele>334.3333333333333</ele><time>2026-04-04T06:53:18.951Z</time></trkpt><trkpt lat="45.69517" lon="8.2970967"><ele>334.6666666666667</ele><time>2026-04-04T06:53:19.951Z</time></trkpt><trkpt lat="45.6953267" lon="8.2969133"><ele>335.0</ele><time>2026-04-04T06:53:20.951Z</time></trkpt><trkpt lat="45.695475" lon="8.2967217"><ele>335.0</ele><time>2026-04-04T06:53:21.951Z</time></trkpt><trkpt lat="45.6956183" lon="8.2965083"><ele>335.0</ele><time>2026-04-04T06:53:22.951Z</time></trkpt><trkpt lat="45.6957517" lon="8.2962917"><ele>335.0</ele><time>2026-04-04T06:53:23.951Z</time></trkpt><trkpt lat="45.6958783" lon="8.2960583"><ele>335.0</ele><time>2026-04-04T06:53:24.951Z</time></trkpt><trkpt lat="45.695995" lon="8.2958133"><ele>335.0</ele><time>2026-04-04T06:53:25.951Z</time></trkpt><trkpt lat="45.6961" lon="8.2955717"><ele>335.0</ele><time>2026-04-04T06:53:26.951Z</time></trkpt><trkpt lat="45.6962033" lon="8.2953083"><ele>335.0</ele><time>2026-04-04T06:53:27.951Z</time></trkpt><trkpt lat="45.6963067" lon="8.2950467"><ele>335.0</ele><time>2026-04-04T06:53:28.951Z</time></trkpt><trkpt lat="45.6964133" lon="8.2947883"><ele>335.0</ele><time>2026-04-04T06:53:29.951Z</time></trkpt><trkpt lat="45.6964933" lon="8.2945283"><ele>335.33333333333337</ele><time>2026-04-04T06:53:30.951Z</time></trkpt><trkpt lat="45.6965633" lon="8.29428"><ele>335.6666666666667</ele><time>2026-04-04T06:53:31.951Z</time></trkpt><trkpt lat="45.6966267" lon="8.2940283"><ele>336.0</ele><time>2026-04-04T06:53:32.951Z</time></trkpt><trkpt lat="45.6966633" lon="8.293795"><ele>336.0</ele><time>2026-04-04T06:53:33.951Z</time></trkpt><trkpt lat="45.6966983" lon="8.2935483"><ele>336.0</ele><time>2026-04-04T06:53:34.951Z</time></trkpt><trkpt lat="45.6967283" lon="8.2933"><ele>336.0</ele><time>2026-04-04T06:53:35.951Z</time></trkpt><trkpt lat="45.6967533" lon="8.2930483"><ele>337.0</ele><time>2026-04-04T06:53:36.951Z</time></trkpt><trkpt lat="45.6967833" lon="8.2928233"><ele>338.0</ele><time>2026-04-04T06:53:37.951Z</time></trkpt><trkpt lat="45.696805" lon="8.292615"><ele>339.0</ele><time>2026-04-04T06:53:38.951Z</time></trkpt><trkpt lat="45.696825" lon="8.2924117"><ele>339.6666666666667</ele><time>2026-04-04T06:53:39.951Z</time></trkpt><trkpt lat="45.696855" lon="8.2921983"><ele>340.33333333333337</ele><time>2026-04-04T06:53:40.951Z</time></trkpt><trkpt lat="45.69688" lon="8.2919783"><ele>341.0</ele><time>2026-04-04T06:53:41.951Z</time></trkpt><trkpt lat="45.6969017" lon="8.291755"><ele>339.6666666666667</ele><time>2026-04-04T06:53:42.951Z</time></trkpt><trkpt lat="45.6969283" lon="8.2915267"><ele>338.3333333333333</ele><time>2026-04-04T06:53:43.951Z</time></trkpt><trkpt lat="45.6969517" lon="8.291305"><ele>337.0</ele><time>2026-04-04T06:53:44.951Z</time></trkpt><trkpt lat="45.6969717" lon="8.2910717"><ele>336.66666666666663</ele><time>2026-04-04T06:53:45.951Z</time></trkpt><trkpt lat="45.6969967" lon="8.290845"><ele>336.3333333333333</ele><time>2026-04-04T06:53:46.951Z</time></trkpt><trkpt lat="45.6970233" lon="8.290625"><ele>336.0</ele><time>2026-04-04T06:53:47.951Z</time></trkpt><trkpt lat="45.6970567" lon="8.2903933"><ele>336.5</ele><time>2026-04-04T06:53:48.951Z</time></trkpt><trkpt lat="45.697095" lon="8.290185"><ele>337.0</ele><time>2026-04-04T06:53:49.951Z</time></trkpt><trkpt lat="45.6971117" lon="8.29"><ele>337.5</ele><time>2026-04-04T06:53:50.951Z</time></trkpt><trkpt lat="45.697125" lon="8.289835"><ele>338.0</ele><time>2026-04-04T06:53:51.951Z</time></trkpt><trkpt lat="45.6971467" lon="8.2896667"><ele>338.25</ele><time>2026-04-04T06:53:52.951Z</time></trkpt><trkpt lat="45.6971683" lon="8.2895"><ele>338.5</ele><time>2026-04-04T06:53:53.951Z</time></trkpt><trkpt lat="45.69718" lon="8.289325"><ele>338.75</ele><time>2026-04-04T06:53:54.951Z</time></trkpt><trkpt lat="45.6971867" lon="8.2891483"><ele>339.0</ele><time>2026-04-04T06:53:55.951Z</time></trkpt><trkpt lat="45.69719" lon="8.288985"><ele>339.0</ele><time>2026-04-04T06:53:56.95Z</time></trkpt><trkpt lat="45.6971983" lon="8.28883"><ele>339.0</ele><time>2026-04-04T06:53:57.951Z</time></trkpt><trkpt lat="45.6972033" lon="8.2886933"><ele>339.0</ele><time>2026-04-04T06:53:58.951Z</time></trkpt><trkpt lat="45.697195" lon="8.2885617"><ele>339.0</ele><time>2026-04-04T06:53:59.951Z</time></trkpt><trkpt lat="45.6971767" lon="8.2884133"><ele>339.0</ele><time>2026-04-04T06:54:00.951Z</time></trkpt><trkpt lat="45.69716" lon="8.288245"><ele>339.0</ele><time>2026-04-04T06:54:01.951Z</time></trkpt><trkpt lat="45.6971567" lon="8.2880667"><ele>339.0</ele><time>2026-04-04T06:54:02.951Z</time></trkpt><trkpt lat="45.6971633" lon="8.2879"><ele>339.0</ele><time>2026-04-04T06:54:03.951Z</time></trkpt><trkpt lat="45.69717" lon="8.2877333"><ele>339.0</ele><time>2026-04-04T06:54:04.951Z</time></trkpt><trkpt lat="45.697175" lon="8.287565"><ele>339.0</ele><time>2026-04-04T06:54:05.951Z</time></trkpt><trkpt lat="45.697205" lon="8.2874117"><ele>339.0</ele><time>2026-04-04T06:54:06.951Z</time></trkpt><trkpt lat="45.697255" lon="8.28728"><ele>339.0</ele><time>2026-04-04T06:54:07.951Z</time></trkpt><trkpt lat="45.6973067" lon="8.2871683"><ele>339.0</ele><time>2026-04-04T06:54:08.951Z</time></trkpt><trkpt lat="45.6973717" lon="8.2870783"><ele>339.0</ele><time>2026-04-04T06:54:09.951Z</time></trkpt><trkpt lat="45.6974333" lon="8.2870183"><ele>339.2</ele><time>2026-04-04T06:54:10.951Z</time></trkpt><trkpt lat="45.697485" lon="8.2869667"><ele>339.4</ele><time>2026-04-04T06:54:11.951Z</time></trkpt><trkpt lat="45.697525" lon="8.2868217"><ele>339.6</ele><time>2026-04-04T06:54:13.951Z</time></trkpt><trkpt lat="45.697495" lon="8.2866183"><ele>339.8</ele><time>2026-04-04T06:54:15.951Z</time></trkpt><trkpt lat="45.69748" lon="8.2864783"><ele>340.0</ele><time>2026-04-04T06:54:16.951Z</time></trkpt><trkpt lat="45.6974633" lon="8.2863117"><ele>340.0</ele><time>2026-04-04T06:54:17.951Z</time></trkpt><trkpt lat="45.6974417" lon="8.28612"><ele>340.0</ele><time>2026-04-04T06:54:18.951Z</time></trkpt><trkpt lat="45.6974167" lon="8.2859133"><ele>340.0</ele><time>2026-04-04T06:54:19.951Z</time></trkpt><trkpt lat="45.6973867" lon="8.285695"><ele>340.0</ele><time>2026-04-04T06:54:20.951Z</time></trkpt><trkpt lat="45.69736" lon="8.285465"><ele>340.3333333333333</ele><time>2026-04-04T06:54:21.951Z</time></trkpt><trkpt lat="45.6973217" lon="8.2852267"><ele>340.6666666666667</ele><time>2026-04-04T06:54:22.951Z</time></trkpt><trkpt lat="45.6972833" lon="8.2849683"><ele>341.0</ele><time>2026-04-04T06:54:23.951Z</time></trkpt><trkpt lat="45.6972583" lon="8.2847083"><ele>341.0</ele><time>2026-04-04T06:54:24.951Z</time></trkpt><trkpt lat="45.69722" lon="8.284445"><ele>341.0</ele><time>2026-04-04T06:54:25.951Z</time></trkpt><trkpt lat="45.6971833" lon="8.28417"><ele>341.0</ele><time>2026-04-04T06:54:26.951Z</time></trkpt><trkpt lat="45.697155" lon="8.2839033"><ele>341.0</ele><time>2026-04-04T06:54:27.951Z</time></trkpt><trkpt lat="45.69712" lon="8.28363"><ele>341.0</ele><time>2026-04-04T06:54:28.951Z</time></trkpt><trkpt lat="45.69709" lon="8.2833467"><ele>341.0</ele><time>2026-04-04T06:54:29.951Z</time></trkpt><trkpt lat="45.6970483" lon="8.28307"><ele>341.0</ele><time>2026-04-04T06:54:30.951Z</time></trkpt><trkpt lat="45.6970083" lon="8.282775"><ele>341.0</ele><time>2026-04-04T06:54:31.951Z</time></trkpt><trkpt lat="45.6969717" lon="8.2824767"><ele>341.0</ele><time>2026-04-04T06:54:32.95Z</time></trkpt><trkpt lat="45.6969417" lon="8.2821767"><ele>342.0</ele><time>2026-04-04T06:54:33.951Z</time></trkpt><trkpt lat="45.6969067" lon="8.2818683"><ele>343.0</ele><time>2026-04-04T06:54:34.951Z</time></trkpt><trkpt lat="45.696865" lon="8.2815567"><ele>344.0</ele><time>2026-04-04T06:54:35.951Z</time></trkpt><trkpt lat="45.6968233" lon="8.2812517"><ele>344.0</ele><time>2026-04-04T06:54:36.951Z</time></trkpt><trkpt lat="45.69679" lon="8.2809483"><ele>344.0</ele><time>2026-04-04T06:54:37.951Z</time></trkpt><trkpt lat="45.6967383" lon="8.2806433"><ele>344.0</ele><time>2026-04-04T06:54:38.951Z</time></trkpt><trkpt lat="45.6966933" lon="8.2803167"><ele>344.0</ele><time>2026-04-04T06:54:39.951Z</time></trkpt><trkpt lat="45.6966467" lon="8.279995"><ele>344.0</ele><time>2026-04-04T06:54:40.951Z</time></trkpt><trkpt lat="45.6965983" lon="8.279655"><ele>345.0</ele><time>2026-04-04T06:54:41.95Z</time></trkpt><trkpt lat="45.69655" lon="8.2793017"><ele>346.0</ele><time>2026-04-04T06:54:42.951Z</time></trkpt><trkpt lat="45.6965" lon="8.2789533"><ele>348.5</ele><time>2026-04-04T06:54:43.951Z</time></trkpt><trkpt lat="45.6964583" lon="8.2785933"><ele>351.0</ele><time>2026-04-04T06:54:44.951Z</time></trkpt><trkpt lat="45.6964183" lon="8.27824"><ele>350.5</ele><time>2026-04-04T06:54:45.951Z</time></trkpt><trkpt lat="45.6963683" lon="8.2778733"><ele>350.0</ele><time>2026-04-04T06:54:46.951Z</time></trkpt><trkpt lat="45.6963233" lon="8.2775067"><ele>348.5</ele><time>2026-04-04T06:54:47.95Z</time></trkpt><trkpt lat="45.696275" lon="8.277135"><ele>347.0</ele><time>2026-04-04T06:54:48.951Z</time></trkpt><trkpt lat="45.6962267" lon="8.2767517"><ele>347.0</ele><time>2026-04-04T06:54:49.951Z</time></trkpt><trkpt lat="45.6961817" lon="8.2763683"><ele>347.0</ele><time>2026-04-04T06:54:50.951Z</time></trkpt><trkpt lat="45.6961333" lon="8.2759817"><ele>348.5</ele><time>2026-04-04T06:54:51.951Z</time></trkpt><trkpt lat="45.6960883" lon="8.2755967"><ele>350.0</ele><time>2026-04-04T06:54:52.95Z</time></trkpt><trkpt lat="45.6960383" lon="8.2752117"><ele>352.5</ele><time>2026-04-04T06:54:53.951Z</time></trkpt><trkpt lat="45.6959867" lon="8.274835"><ele>355.0</ele><time>2026-04-04T06:54:54.951Z</time></trkpt><trkpt lat="45.6959283" lon="8.2744683"><ele>355.0</ele><time>2026-04-04T06:54:55.951Z</time></trkpt><trkpt lat="45.69586" lon="8.27411"><ele>355.0</ele><time>2026-04-04T06:54:56.951Z</time></trkpt><trkpt lat="45.6957833" lon="8.2737417"><ele>355.0</ele><time>2026-04-04T06:54:57.951Z</time></trkpt><trkpt lat="45.6956933" lon="8.273385"><ele>355.0</ele><time>2026-04-04T06:54:58.951Z</time></trkpt><trkpt lat="45.6956033" lon="8.2730233"><ele>355.0</ele><time>2026-04-04T06:54:59.951Z</time></trkpt><trkpt lat="45.6955133" lon="8.27266"><ele>355.0</ele><time>2026-04-04T06:55:00.95Z</time></trkpt><trkpt lat="45.6954117" lon="8.2723017"><ele>355.5</ele><time>2026-04-04T06:55:01.951Z</time></trkpt><trkpt lat="45.6953083" lon="8.27194"><ele>356.0</ele><time>2026-04-04T06:55:02.951Z</time></trkpt><trkpt lat="45.6952033" lon="8.2715817"><ele>355.0</ele><time>2026-04-04T06:55:03.951Z</time></trkpt><trkpt lat="45.6950983" lon="8.2712217"><ele>354.0</ele><time>2026-04-04T06:55:04.951Z</time></trkpt><trkpt lat="45.694995" lon="8.2708667"><ele>354.5</ele><time>2026-04-04T06:55:05.951Z</time></trkpt><trkpt lat="45.6948917" lon="8.2705217"><ele>355.0</ele><time>2026-04-04T06:55:06.951Z</time></trkpt><trkpt lat="45.6948033" lon="8.2701983"><ele>355.0</ele><time>2026-04-04T06:55:07.951Z</time></trkpt><trkpt lat="45.69471" lon="8.2699"><ele>355.0</ele><time>2026-04-04T06:55:08.951Z</time></trkpt><trkpt lat="45.6946133" lon="8.2696267"><ele>355.0</ele><time>2026-04-04T06:55:09.951Z</time></trkpt><trkpt lat="45.6945167" lon="8.2693633"><ele>355.3333333333333</ele><time>2026-04-04T06:55:10.951Z</time></trkpt><trkpt lat="45.6943983" lon="8.2691"><ele>355.6666666666667</ele><time>2026-04-04T06:55:11.951Z</time></trkpt><trkpt lat="45.6942683" lon="8.2688517"><ele>356.0</ele><time>2026-04-04T06:55:12.951Z</time></trkpt><trkpt lat="45.6941217" lon="8.2686167"><ele>356.0</ele><time>2026-04-04T06:55:13.951Z</time></trkpt><trkpt lat="45.69395" lon="8.26839"><ele>356.0</ele><time>2026-04-04T06:55:14.951Z</time></trkpt><trkpt lat="45.69378" lon="8.2681767"><ele>357.0</ele><time>2026-04-04T06:55:15.951Z</time></trkpt><trkpt lat="45.693615" lon="8.26799"><ele>358.0</ele><time>2026-04-04T06:55:16.951Z</time></trkpt><trkpt lat="45.6934567" lon="8.267825"><ele>359.0</ele><time>2026-04-04T06:55:17.951Z</time></trkpt><trkpt lat="45.693295" lon="8.2676883"><ele>359.0</ele><time>2026-04-04T06:55:18.951Z</time></trkpt><trkpt lat="45.6931217" lon="8.2675967"><ele>359.0</ele><time>2026-04-04T06:55:19.951Z</time></trkpt><trkpt lat="45.69296" lon="8.2675483"><ele>359.0</ele><time>2026-04-04T06:55:20.95Z</time></trkpt><trkpt lat="45.6927833" lon="8.2675333"><ele>360.33333333333337</ele><time>2026-04-04T06:55:21.95Z</time></trkpt><trkpt lat="45.6926033" lon="8.2675433"><ele>361.6666666666667</ele><time>2026-04-04T06:55:22.951Z</time></trkpt><trkpt lat="45.69242" lon="8.2675733"><ele>363.0</ele><time>2026-04-04T06:55:23.951Z</time></trkpt><trkpt lat="45.6922267" lon="8.2676067"><ele>363.0</ele><time>2026-04-04T06:55:24.951Z</time></trkpt><trkpt lat="45.6920267" lon="8.2676333"><ele>363.0</ele><time>2026-04-04T06:55:25.95Z</time></trkpt><trkpt lat="45.6918233" lon="8.2676517"><ele>363.0</ele><time>2026-04-04T06:55:26.951Z</time></trkpt><trkpt lat="45.6916217" lon="8.2676567"><ele>364.0</ele><time>2026-04-04T06:55:27.951Z</time></trkpt><trkpt lat="45.691435" lon="8.2676333"><ele>365.0</ele><time>2026-04-04T06:55:28.951Z</time></trkpt><trkpt lat="45.6912433" lon="8.2675883"><ele>366.0</ele><time>2026-04-04T06:55:29.951Z</time></trkpt><trkpt lat="45.69105" lon="8.2675233"><ele>368.0</ele><time>2026-04-04T06:55:30.951Z</time></trkpt><trkpt lat="45.6908633" lon="8.2674267"><ele>370.0</ele><time>2026-04-04T06:55:31.95Z</time></trkpt><trkpt lat="45.6906833" lon="8.2672983"><ele>372.0</ele><time>2026-04-04T06:55:32.951Z</time></trkpt><trkpt lat="45.6905083" lon="8.267155"><ele>370.3333333333333</ele><time>2026-04-04T06:55:33.951Z</time></trkpt><trkpt lat="45.6903417" lon="8.2669917"><ele>368.66666666666663</ele><time>2026-04-04T06:55:34.95Z</time></trkpt><trkpt lat="45.6901767" lon="8.2668267"><ele>367.0</ele><time>2026-04-04T06:55:35.951Z</time></trkpt><trkpt lat="45.69001" lon="8.266665"><ele>367.0</ele><time>2026-04-04T06:55:36.951Z</time></trkpt><trkpt lat="45.6898383" lon="8.2664783"><ele>367.0</ele><time>2026-04-04T06:55:37.951Z</time></trkpt><trkpt lat="45.68966" lon="8.2662917"><ele>367.0</ele><time>2026-04-04T06:55:38.951Z</time></trkpt><trkpt lat="45.6894783" lon="8.26611"><ele>366.66666666666663</ele><time>2026-04-04T06:55:39.951Z</time></trkpt><trkpt lat="45.6893133" lon="8.2659083"><ele>366.3333333333333</ele><time>2026-04-04T06:55:40.951Z</time></trkpt><trkpt lat="45.689155" lon="8.2656683"><ele>366.0</ele><time>2026-04-04T06:55:41.951Z</time></trkpt><trkpt lat="45.689015" lon="8.26542"><ele>363.0</ele><time>2026-04-04T06:55:42.951Z</time></trkpt><trkpt lat="45.6888833" lon="8.2651567"><ele>360.0</ele><time>2026-04-04T06:55:43.951Z</time></trkpt><trkpt lat="45.6887733" lon="8.2648767"><ele>359.0</ele><time>2026-04-04T06:55:44.951Z</time></trkpt><trkpt lat="45.688665" lon="8.264585"><ele>358.0</ele><time>2026-04-04T06:55:45.951Z</time></trkpt><trkpt lat="45.6885733" lon="8.264285"><ele>366.0</ele><time>2026-04-04T06:55:46.951Z</time></trkpt><trkpt lat="45.6884933" lon="8.2639833"><ele>374.0</ele><time>2026-04-04T06:55:47.951Z</time></trkpt><trkpt lat="45.6884333" lon="8.26367"><ele>374.0</ele><time>2026-04-04T06:55:48.951Z</time></trkpt><trkpt lat="45.6883883" lon="8.2633483"><ele>374.0</ele><time>2026-04-04T06:55:49.951Z</time></trkpt><trkpt lat="45.6883517" lon="8.26302"><ele>373.5</ele><time>2026-04-04T06:55:50.951Z</time></trkpt><trkpt lat="45.6883233" lon="8.26269"><ele>373.0</ele><time>2026-04-04T06:55:51.951Z</time></trkpt><trkpt lat="45.688305" lon="8.262365"><ele>372.5</ele><time>2026-04-04T06:55:52.951Z</time></trkpt><trkpt lat="45.6882767" lon="8.2620333"><ele>372.0</ele><time>2026-04-04T06:55:53.951Z</time></trkpt><trkpt lat="45.688245" lon="8.2617017"><ele>368.0</ele><time>2026-04-04T06:55:54.951Z</time></trkpt><trkpt lat="45.6882" lon="8.2613833"><ele>364.0</ele><time>2026-04-04T06:55:55.951Z</time></trkpt><trkpt lat="45.68814" lon="8.26106"><ele>364.0</ele><time>2026-04-04T06:55:56.951Z</time></trkpt><trkpt lat="45.6880883" lon="8.260735"><ele>364.0</ele><time>2026-04-04T06:55:57.95Z</time></trkpt><trkpt lat="45.6880217" lon="8.2604067"><ele>362.0</ele><time>2026-04-04T06:55:58.951Z</time></trkpt><trkpt lat="45.6879583" lon="8.2600917"><ele>360.0</ele><time>2026-04-04T06:55:59.951Z</time></trkpt><trkpt lat="45.6878867" lon="8.2597867"><ele>360.3333333333333</ele><time>2026-04-04T06:56:00.951Z</time></trkpt><trkpt lat="45.687815" lon="8.2594967"><ele>360.66666666666663</ele><time>2026-04-04T06:56:01.951Z</time></trkpt><trkpt lat="45.68774" lon="8.2592267"><ele>361.0</ele><time>2026-04-04T06:56:02.951Z</time></trkpt><trkpt lat="45.6876717" lon="8.2589817"><ele>365.3333333333333</ele><time>2026-04-04T06:56:03.951Z</time></trkpt><trkpt lat="45.6875633" lon="8.25873"><ele>369.6666666666667</ele><time>2026-04-04T06:56:04.951Z</time></trkpt><trkpt lat="45.6874467" lon="8.258495"><ele>374.0</ele><time>2026-04-04T06:56:05.95Z</time></trkpt><trkpt lat="45.6873133" lon="8.2582567"><ele>372.33333333333337</ele><time>2026-04-04T06:56:06.951Z</time></trkpt><trkpt lat="45.6871783" lon="8.2580133"><ele>370.6666666666667</ele><time>2026-04-04T06:56:07.951Z</time></trkpt><trkpt lat="45.6870383" lon="8.2577583"><ele>369.0</ele><time>2026-04-04T06:56:08.951Z</time></trkpt><trkpt lat="45.6868983" lon="8.257505"><ele>371.3333333333333</ele><time>2026-04-04T06:56:09.951Z</time></trkpt><trkpt lat="45.686765" lon="8.2572517"><ele>373.66666666666663</ele><time>2026-04-04T06:56:10.951Z</time></trkpt><trkpt lat="45.6866433" lon="8.2569867"><ele>376.0</ele><time>2026-04-04T06:56:11.951Z</time></trkpt><trkpt lat="45.6865117" lon="8.2567167"><ele>376.0</ele><time>2026-04-04T06:56:12.951Z</time></trkpt><trkpt lat="45.68639" lon="8.25646"><ele>376.0</ele><time>2026-04-04T06:56:13.951Z</time></trkpt><trkpt lat="45.686255" lon="8.2562083"><ele>376.0</ele><time>2026-04-04T06:56:14.951Z</time></trkpt><trkpt lat="45.68609" lon="8.2559617"><ele>372.5</ele><time>2026-04-04T06:56:15.951Z</time></trkpt><trkpt lat="45.6859217" lon="8.255725"><ele>369.0</ele><time>2026-04-04T06:56:16.951Z</time></trkpt><trkpt lat="45.6857617" lon="8.2554917"><ele>369.0</ele><time>2026-04-04T06:56:17.951Z</time></trkpt><trkpt lat="45.6856233" lon="8.2552233"><ele>369.0</ele><time>2026-04-04T06:56:18.951Z</time></trkpt><trkpt lat="45.6855" lon="8.25495"><ele>367.3333333333333</ele><time>2026-04-04T06:56:19.95Z</time></trkpt><trkpt lat="45.6853833" lon="8.254675"><ele>365.66666666666663</ele><time>2026-04-04T06:56:20.951Z</time></trkpt><trkpt lat="45.68529" lon="8.2544"><ele>364.0</ele><time>2026-04-04T06:56:21.951Z</time></trkpt><trkpt lat="45.6851783" lon="8.2541583"><ele>366.3333333333333</ele><time>2026-04-04T06:56:22.951Z</time></trkpt><trkpt lat="45.6850583" lon="8.25392"><ele>368.6666666666667</ele><time>2026-04-04T06:56:23.951Z</time></trkpt><trkpt lat="45.68492" lon="8.2537117"><ele>371.0</ele><time>2026-04-04T06:56:24.951Z</time></trkpt><trkpt lat="45.6847817" lon="8.2535117"><ele>371.0</ele><time>2026-04-04T06:56:25.951Z</time></trkpt><trkpt lat="45.684635" lon="8.2533383"><ele>371.0</ele><time>2026-04-04T06:56:26.951Z</time></trkpt><trkpt lat="45.6844733" lon="8.25319"><ele>371.0</ele><time>2026-04-04T06:56:27.951Z</time></trkpt><trkpt lat="45.684295" lon="8.25305"><ele>372.33333333333337</ele><time>2026-04-04T06:56:28.951Z</time></trkpt><trkpt lat="45.68412" lon="8.2529267"><ele>373.6666666666667</ele><time>2026-04-04T06:56:29.951Z</time></trkpt><trkpt lat="45.6839417" lon="8.252795"><ele>375.0</ele><time>2026-04-04T06:56:30.951Z</time></trkpt><trkpt lat="45.68377" lon="8.2526633"><ele>375.0</ele><time>2026-04-04T06:56:31.951Z</time></trkpt><trkpt lat="45.6836017" lon="8.2525367"><ele>375.0</ele><time>2026-04-04T06:56:32.95Z</time></trkpt><trkpt lat="45.6834317" lon="8.2524067"><ele>375.0</ele><time>2026-04-04T06:56:33.951Z</time></trkpt><trkpt lat="45.68303" lon="8.2521467"><ele>375.6666666666667</ele><time>2026-04-04T06:56:35.952Z</time></trkpt><trkpt lat="45.6828717" lon="8.25203"><ele>376.33333333333337</ele><time>2026-04-04T06:56:36.952Z</time></trkpt><trkpt lat="45.682725" lon="8.2518867"><ele>377.0</ele><time>2026-04-04T06:56:37.952Z</time></trkpt><trkpt lat="45.6825833" lon="8.25172"><ele>376.6666666666667</ele><time>2026-04-04T06:56:38.952Z</time></trkpt><trkpt lat="45.6824383" lon="8.25152"><ele>376.3333333333333</ele><time>2026-04-04T06:56:39.952Z</time></trkpt><trkpt lat="45.682295" lon="8.2513133"><ele>376.0</ele><time>2026-04-04T06:56:40.952Z</time></trkpt><trkpt lat="45.68217" lon="8.2510917"><ele>376.0</ele><time>2026-04-04T06:56:41.952Z</time></trkpt><trkpt lat="45.68206" lon="8.25085"><ele>376.0</ele><time>2026-04-04T06:56:42.952Z</time></trkpt><trkpt lat="45.68196" lon="8.2506033"><ele>376.0</ele><time>2026-04-04T06:56:43.952Z</time></trkpt><trkpt lat="45.6818567" lon="8.25035"><ele>376.66666666666663</ele><time>2026-04-04T06:56:44.952Z</time></trkpt><trkpt lat="45.6817817" lon="8.25011"><ele>377.3333333333333</ele><time>2026-04-04T06:56:45.952Z</time></trkpt><trkpt lat="45.6817117" lon="8.2498783"><ele>378.0</ele><time>2026-04-04T06:56:46.952Z</time></trkpt><trkpt lat="45.681635" lon="8.24966"><ele>378.0</ele><time>2026-04-04T06:56:47.952Z</time></trkpt><trkpt lat="45.6815617" lon="8.2494767"><ele>378.0</ele><time>2026-04-04T06:56:48.952Z</time></trkpt><trkpt lat="45.6815017" lon="8.2493333"><ele>378.0</ele><time>2026-04-04T06:56:49.952Z</time></trkpt><trkpt lat="45.6814283" lon="8.2491767"><ele>378.0</ele><time>2026-04-04T06:56:50.951Z</time></trkpt><trkpt lat="45.6813633" lon="8.249015"><ele>377.79999999999995</ele><time>2026-04-04T06:56:51.952Z</time></trkpt><trkpt lat="45.6812983" lon="8.2488533"><ele>377.6</ele><time>2026-04-04T06:56:52.951Z</time></trkpt><trkpt lat="45.6812533" lon="8.2487167"><ele>377.4</ele><time>2026-04-04T06:56:53.952Z</time></trkpt><trkpt lat="45.6812333" lon="8.2485867"><ele>377.20000000000005</ele><time>2026-04-04T06:56:54.951Z</time></trkpt><trkpt lat="45.681245" lon="8.2484583"><ele>377.0</ele><time>2026-04-04T06:56:55.952Z</time></trkpt><trkpt lat="45.6812683" lon="8.2483333"><ele>377.0</ele><time>2026-04-04T06:56:56.951Z</time></trkpt><trkpt lat="45.681255" lon="8.2482267"><ele>377.0</ele><time>2026-04-04T06:56:57.952Z</time></trkpt><trkpt lat="45.6812167" lon="8.2481483"><ele>377.0</ele><time>2026-04-04T06:56:58.952Z</time></trkpt><trkpt lat="45.681145" lon="8.2480817"><ele>377.0</ele><time>2026-04-04T06:56:59.952Z</time></trkpt><trkpt lat="45.6810583" lon="8.24798"><ele>377.0</ele><time>2026-04-04T06:57:00.952Z</time></trkpt><trkpt lat="45.68097" lon="8.247835"><ele>377.33333333333337</ele><time>2026-04-04T06:57:01.952Z</time></trkpt><trkpt lat="45.6808783" lon="8.2476533"><ele>377.6666666666667</ele><time>2026-04-04T06:57:02.951Z</time></trkpt><trkpt lat="45.68079" lon="8.247435"><ele>378.0</ele><time>2026-04-04T06:57:03.952Z</time></trkpt><trkpt lat="45.6807033" lon="8.247205"><ele>377.3333333333333</ele><time>2026-04-04T06:57:04.952Z</time></trkpt><trkpt lat="45.680615" lon="8.2469817"><ele>376.66666666666663</ele><time>2026-04-04T06:57:05.952Z</time></trkpt><trkpt lat="45.68052" lon="8.246755"><ele>376.0</ele><time>2026-04-04T06:57:06.952Z</time></trkpt><trkpt lat="45.68042" lon="8.2465283"><ele>376.0</ele><time>2026-04-04T06:57:07.952Z</time></trkpt><trkpt lat="45.680315" lon="8.2462967"><ele>376.0</ele><time>2026-04-04T06:57:08.952Z</time></trkpt><trkpt lat="45.6802033" lon="8.2460617"><ele>376.0</ele><time>2026-04-04T06:57:09.952Z</time></trkpt><trkpt lat="45.6800867" lon="8.2458283"><ele>377.66666666666663</ele><time>2026-04-04T06:57:10.952Z</time></trkpt><trkpt lat="45.6799617" lon="8.2455983"><ele>379.3333333333333</ele><time>2026-04-04T06:57:11.951Z</time></trkpt><trkpt lat="45.6798367" lon="8.2453833"><ele>381.0</ele><time>2026-04-04T06:57:12.952Z</time></trkpt><trkpt lat="45.6796933" lon="8.2451617"><ele>381.0</ele><time>2026-04-04T06:57:13.952Z</time></trkpt><trkpt lat="45.67954" lon="8.2449417"><ele>381.0</ele><time>2026-04-04T06:57:14.952Z</time></trkpt><trkpt lat="45.6793867" lon="8.2447317"><ele>381.0</ele><time>2026-04-04T06:57:15.952Z</time></trkpt><trkpt lat="45.6792267" lon="8.2445217"><ele>381.6666666666667</ele><time>2026-04-04T06:57:16.952Z</time></trkpt><trkpt lat="45.6790683" lon="8.2443067"><ele>382.33333333333337</ele><time>2026-04-04T06:57:17.952Z</time></trkpt><trkpt lat="45.6789033" lon="8.2440883"><ele>383.0</ele><time>2026-04-04T06:57:18.952Z</time></trkpt><trkpt lat="45.6787517" lon="8.2438717"><ele>383.6666666666667</ele><time>2026-04-04T06:57:19.952Z</time></trkpt><trkpt lat="45.6786" lon="8.243645"><ele>384.33333333333337</ele><time>2026-04-04T06:57:20.952Z</time></trkpt><trkpt lat="45.6784383" lon="8.2434283"><ele>385.0</ele><time>2026-04-04T06:57:21.952Z</time></trkpt><trkpt lat="45.6782817" lon="8.2432233"><ele>384.6666666666667</ele><time>2026-04-04T06:57:22.952Z</time></trkpt><trkpt lat="45.67813" lon="8.2430033"><ele>384.33333333333337</ele><time>2026-04-04T06:57:23.952Z</time></trkpt><trkpt lat="45.67797" lon="8.24279"><ele>384.0</ele><time>2026-04-04T06:57:24.952Z</time></trkpt><trkpt lat="45.6778083" lon="8.2425767"><ele>385.33333333333337</ele><time>2026-04-04T06:57:25.952Z</time></trkpt><trkpt lat="45.677645" lon="8.242355"><ele>386.6666666666667</ele><time>2026-04-04T06:57:26.952Z</time></trkpt><trkpt lat="45.677485" lon="8.2421367"><ele>388.0</ele><time>2026-04-04T06:57:27.952Z</time></trkpt><trkpt lat="45.67732" lon="8.241915"><ele>388.0</ele><time>2026-04-04T06:57:28.952Z</time></trkpt><trkpt lat="45.6771583" lon="8.241695"><ele>388.0</ele><time>2026-04-04T06:57:29.952Z</time></trkpt><trkpt lat="45.6770133" lon="8.2414717"><ele>388.0</ele><time>2026-04-04T06:57:30.952Z</time></trkpt><trkpt lat="45.6768767" lon="8.2412433"><ele>389.6666666666667</ele><time>2026-04-04T06:57:31.952Z</time></trkpt><trkpt lat="45.6767483" lon="8.2409967"><ele>391.33333333333337</ele><time>2026-04-04T06:57:32.952Z</time></trkpt><trkpt lat="45.67663" lon="8.2407417"><ele>393.0</ele><time>2026-04-04T06:57:33.952Z</time></trkpt><trkpt lat="45.6765267" lon="8.2404783"><ele>393.0</ele><time>2026-04-04T06:57:34.951Z</time></trkpt><trkpt lat="45.6764283" lon="8.2401967"><ele>393.0</ele><time>2026-04-04T06:57:35.952Z</time></trkpt><trkpt lat="45.67635" lon="8.239905"><ele>393.0</ele><time>2026-04-04T06:57:36.952Z</time></trkpt><trkpt lat="45.6762817" lon="8.239605"><ele>393.0</ele><time>2026-04-04T06:57:37.952Z</time></trkpt><trkpt lat="45.6762433" lon="8.2393"><ele>393.0</ele><time>2026-04-04T06:57:38.952Z</time></trkpt><trkpt lat="45.6762167" lon="8.2389883"><ele>393.0</ele><time>2026-04-04T06:57:39.952Z</time></trkpt><trkpt lat="45.67621" lon="8.2386767"><ele>393.0</ele><time>2026-04-04T06:57:40.952Z</time></trkpt><trkpt lat="45.67622" lon="8.2383633"><ele>393.0</ele><time>2026-04-04T06:57:41.951Z</time></trkpt><trkpt lat="45.6762233" lon="8.23806"><ele>393.0</ele><time>2026-04-04T06:57:42.952Z</time></trkpt><trkpt lat="45.6762383" lon="8.23775"><ele>393.0</ele><time>2026-04-04T06:57:43.952Z</time></trkpt><trkpt lat="45.6762567" lon="8.2374583"><ele>393.0</ele><time>2026-04-04T06:57:44.952Z</time></trkpt><trkpt lat="45.67628" lon="8.237175"><ele>393.0</ele><time>2026-04-04T06:57:45.952Z</time></trkpt><trkpt lat="45.6763067" lon="8.2369167"><ele>393.0</ele><time>2026-04-04T06:57:46.952Z</time></trkpt><trkpt lat="45.6763367" lon="8.2366683"><ele>393.0</ele><time>2026-04-04T06:57:47.952Z</time></trkpt><trkpt lat="45.6763583" lon="8.2364417"><ele>393.0</ele><time>2026-04-04T06:57:48.952Z</time></trkpt><trkpt lat="45.6763817" lon="8.2362117"><ele>393.0</ele><time>2026-04-04T06:57:49.952Z</time></trkpt><trkpt lat="45.676385" lon="8.2359683"><ele>393.0</ele><time>2026-04-04T06:57:50.952Z</time></trkpt><trkpt lat="45.6763733" lon="8.2357033"><ele>393.0</ele><time>2026-04-04T06:57:51.951Z</time></trkpt><trkpt lat="45.6763567" lon="8.2354283"><ele>392.0</ele><time>2026-04-04T06:57:52.952Z</time></trkpt><trkpt lat="45.676315" lon="8.2351583"><ele>391.0</ele><time>2026-04-04T06:57:53.952Z</time></trkpt><trkpt lat="45.67625" lon="8.2348817"><ele>390.0</ele><time>2026-04-04T06:57:54.952Z</time></trkpt><trkpt lat="45.67616" lon="8.2346183"><ele>391.0</ele><time>2026-04-04T06:57:55.952Z</time></trkpt><trkpt lat="45.6760533" lon="8.23437"><ele>392.0</ele><time>2026-04-04T06:57:56.952Z</time></trkpt><trkpt lat="45.6759317" lon="8.2341433"><ele>393.0</ele><time>2026-04-04T06:57:57.952Z</time></trkpt><trkpt lat="45.6757983" lon="8.2339333"><ele>393.0</ele><time>2026-04-04T06:57:58.951Z</time></trkpt><trkpt lat="45.6756617" lon="8.233745"><ele>393.0</ele><time>2026-04-04T06:57:59.952Z</time></trkpt><trkpt lat="45.6755333" lon="8.233575"><ele>393.0</ele><time>2026-04-04T06:58:00.952Z</time></trkpt><trkpt lat="45.6754117" lon="8.2334233"><ele>393.0</ele><time>2026-04-04T06:58:01.952Z</time></trkpt><trkpt lat="45.6753" lon="8.2332733"><ele>393.0</ele><time>2026-04-04T06:58:02.952Z</time></trkpt><trkpt lat="45.6751917" lon="8.23313"><ele>393.0</ele><time>2026-04-04T06:58:03.952Z</time></trkpt><trkpt lat="45.67509" lon="8.2329867"><ele>393.0</ele><time>2026-04-04T06:58:04.951Z</time></trkpt><trkpt lat="45.6749817" lon="8.23285"><ele>393.59999999999997</ele><time>2026-04-04T06:58:05.952Z</time></trkpt><trkpt lat="45.6748917" lon="8.2327283"><ele>394.2</ele><time>2026-04-04T06:58:06.952Z</time></trkpt><trkpt lat="45.67481" lon="8.232615"><ele>394.8</ele><time>2026-04-04T06:58:07.952Z</time></trkpt><trkpt lat="45.6747417" lon="8.2325183"><ele>395.4</ele><time>2026-04-04T06:58:08.952Z</time></trkpt><trkpt lat="45.674675" lon="8.2324317"><ele>396.0</ele><time>2026-04-04T06:58:09.952Z</time></trkpt><trkpt lat="45.67462" lon="8.2323533"><ele>395.0</ele><time>2026-04-04T06:58:10.952Z</time></trkpt><trkpt lat="45.674565" lon="8.2322633"><ele>394.0</ele><time>2026-04-04T06:58:11.952Z</time></trkpt><trkpt lat="45.6745" lon="8.2321617"><ele>393.0</ele><time>2026-04-04T06:58:12.952Z</time></trkpt><trkpt lat="45.67442" lon="8.23203"><ele>392.0</ele><time>2026-04-04T06:58:13.952Z</time></trkpt><trkpt lat="45.674335" lon="8.2318567"><ele>395.0</ele><time>2026-04-04T06:58:14.952Z</time></trkpt><trkpt lat="45.6742467" lon="8.2316417"><ele>398.0</ele><time>2026-04-04T06:58:15.951Z</time></trkpt><trkpt lat="45.6741733" lon="8.2314017"><ele>401.0</ele><time>2026-04-04T06:58:16.952Z</time></trkpt><trkpt lat="45.6741083" lon="8.2311567"><ele>401.0</ele><time>2026-04-04T06:58:17.952Z</time></trkpt><trkpt lat="45.6740483" lon="8.2309067"><ele>401.0</ele><time>2026-04-04T06:58:18.952Z</time></trkpt><trkpt lat="45.67398" lon="8.23064"><ele>401.0</ele><time>2026-04-04T06:58:19.952Z</time></trkpt><trkpt lat="45.6739217" lon="8.2303583"><ele>401.0</ele><time>2026-04-04T06:58:20.952Z</time></trkpt><trkpt lat="45.67389" lon="8.23007"><ele>401.0</ele><time>2026-04-04T06:58:21.952Z</time></trkpt><trkpt lat="45.6738767" lon="8.2297783"><ele>401.0</ele><time>2026-04-04T06:58:22.952Z</time></trkpt><trkpt lat="45.67388" lon="8.229475"><ele>401.0</ele><time>2026-04-04T06:58:23.951Z</time></trkpt><trkpt lat="45.6738867" lon="8.2291617"><ele>401.0</ele><time>2026-04-04T06:58:24.952Z</time></trkpt><trkpt lat="45.6739117" lon="8.2288617"><ele>401.0</ele><time>2026-04-04T06:58:25.952Z</time></trkpt><trkpt lat="45.6739567" lon="8.2285517"><ele>402.0</ele><time>2026-04-04T06:58:26.952Z</time></trkpt><trkpt lat="45.674005" lon="8.228235"><ele>403.0</ele><time>2026-04-04T06:58:27.952Z</time></trkpt><trkpt lat="45.67406" lon="8.2279083"><ele>406.0</ele><time>2026-04-04T06:58:28.952Z</time></trkpt><trkpt lat="45.67412" lon="8.2275917"><ele>409.0</ele><time>2026-04-04T06:58:29.952Z</time></trkpt><trkpt lat="45.6741717" lon="8.227275"><ele>412.5</ele><time>2026-04-04T06:58:30.952Z</time></trkpt><trkpt lat="45.674225" lon="8.22696"><ele>416.0</ele><time>2026-04-04T06:58:31.952Z</time></trkpt><trkpt lat="45.6742767" lon="8.2266467"><ele>419.3333333333333</ele><time>2026-04-04T06:58:32.952Z</time></trkpt><trkpt lat="45.6743133" lon="8.2263417"><ele>422.66666666666663</ele><time>2026-04-04T06:58:33.951Z</time></trkpt><trkpt lat="45.67434" lon="8.2260267"><ele>426.0</ele><time>2026-04-04T06:58:34.951Z</time></trkpt><trkpt lat="45.67434" lon="8.225725"><ele>424.0</ele><time>2026-04-04T06:58:35.951Z</time></trkpt><trkpt lat="45.6743267" lon="8.2254367"><ele>422.0</ele><time>2026-04-04T06:58:36.952Z</time></trkpt><trkpt lat="45.674295" lon="8.22515"><ele>420.0</ele><time>2026-04-04T06:58:37.952Z</time></trkpt><trkpt lat="45.6742467" lon="8.224875"><ele>415.33333333333337</ele><time>2026-04-04T06:58:38.952Z</time></trkpt><trkpt lat="45.6741833" lon="8.2246117"><ele>410.6666666666667</ele><time>2026-04-04T06:58:39.952Z</time></trkpt><trkpt lat="45.674095" lon="8.2243567"><ele>406.0</ele><time>2026-04-04T06:58:40.951Z</time></trkpt><trkpt lat="45.6739983" lon="8.2241067"><ele>404.6666666666667</ele><time>2026-04-04T06:58:41.952Z</time></trkpt><trkpt lat="45.6738933" lon="8.2238533"><ele>403.33333333333337</ele><time>2026-04-04T06:58:42.952Z</time></trkpt><trkpt lat="45.673775" lon="8.2236067"><ele>402.0</ele><time>2026-04-04T06:58:43.952Z</time></trkpt><trkpt lat="45.6736583" lon="8.2233683"><ele>407.0</ele><time>2026-04-04T06:58:44.952Z</time></trkpt><trkpt lat="45.67354" lon="8.22313"><ele>412.0</ele><time>2026-04-04T06:58:45.952Z</time></trkpt><trkpt lat="45.6734067" lon="8.2228933"><ele>417.0</ele><time>2026-04-04T06:58:46.952Z</time></trkpt><trkpt lat="45.6732917" lon="8.2226567"><ele>417.0</ele><time>2026-04-04T06:58:47.952Z</time></trkpt><trkpt lat="45.6731783" lon="8.2224483"><ele>417.0</ele><time>2026-04-04T06:58:48.952Z</time></trkpt><trkpt lat="45.6730917" lon="8.2222733"><ele>417.0</ele><time>2026-04-04T06:58:49.952Z</time></trkpt><trkpt lat="45.67301" lon="8.2221183"><ele>415.6</ele><time>2026-04-04T06:58:50.952Z</time></trkpt><trkpt lat="45.67294" lon="8.2219717"><ele>414.20000000000005</ele><time>2026-04-04T06:58:51.952Z</time></trkpt><trkpt lat="45.6729" lon="8.2218167"><ele>412.8</ele><time>2026-04-04T06:58:52.952Z</time></trkpt><trkpt lat="45.6728983" lon="8.2216867"><ele>411.4</ele><time>2026-04-04T06:58:53.952Z</time></trkpt><trkpt lat="45.6728983" lon="8.2215817"><ele>410.0</ele><time>2026-04-04T06:58:54.952Z</time></trkpt><trkpt lat="45.672855" lon="8.2214083"><ele>409.0</ele><time>2026-04-04T06:58:56.952Z</time></trkpt><trkpt lat="45.6727867" lon="8.2213133"><ele>408.0</ele><time>2026-04-04T06:58:57.952Z</time></trkpt><trkpt lat="45.6726867" lon="8.22121"><ele>407.0</ele><time>2026-04-04T06:58:58.952Z</time></trkpt><trkpt lat="45.6725717" lon="8.2210967"><ele>406.0</ele><time>2026-04-04T06:58:59.952Z</time></trkpt><trkpt lat="45.6724683" lon="8.220965"><ele>407.5</ele><time>2026-04-04T06:59:00.952Z</time></trkpt><trkpt lat="45.6723817" lon="8.2208133"><ele>409.0</ele><time>2026-04-04T06:59:01.952Z</time></trkpt><trkpt lat="45.6723317" lon="8.2206433"><ele>410.5</ele><time>2026-04-04T06:59:02.952Z</time></trkpt><trkpt lat="45.6723167" lon="8.2204533"><ele>412.0</ele><time>2026-04-04T06:59:03.952Z</time></trkpt><trkpt lat="45.6723233" lon="8.220235"><ele>412.0</ele><time>2026-04-04T06:59:04.952Z</time></trkpt><trkpt lat="45.6723417" lon="8.220005"><ele>412.0</ele><time>2026-04-04T06:59:05.952Z</time></trkpt><trkpt lat="45.6723467" lon="8.21975"><ele>412.0</ele><time>2026-04-04T06:59:06.951Z</time></trkpt><trkpt lat="45.67235" lon="8.2194933"><ele>412.0</ele><time>2026-04-04T06:59:07.952Z</time></trkpt><trkpt lat="45.67235" lon="8.219225"><ele>412.0</ele><time>2026-04-04T06:59:08.952Z</time></trkpt><trkpt lat="45.6723567" lon="8.2189633"><ele>412.0</ele><time>2026-04-04T06:59:09.952Z</time></trkpt><trkpt lat="45.672375" lon="8.218685"><ele>414.0</ele><time>2026-04-04T06:59:10.952Z</time></trkpt><trkpt lat="45.6724083" lon="8.2184067"><ele>416.0</ele><time>2026-04-04T06:59:11.952Z</time></trkpt><trkpt lat="45.6724467" lon="8.2181283"><ele>418.0</ele><time>2026-04-04T06:59:12.952Z</time></trkpt><trkpt lat="45.67249" lon="8.2178683"><ele>418.6666666666667</ele><time>2026-04-04T06:59:13.952Z</time></trkpt><trkpt lat="45.6725367" lon="8.2176167"><ele>419.33333333333337</ele><time>2026-04-04T06:59:14.952Z</time></trkpt><trkpt lat="45.6725833" lon="8.217355"><ele>420.0</ele><time>2026-04-04T06:59:15.952Z</time></trkpt><trkpt lat="45.67262" lon="8.2171117"><ele>419.33333333333337</ele><time>2026-04-04T06:59:16.952Z</time></trkpt><trkpt lat="45.6726567" lon="8.2168817"><ele>418.6666666666667</ele><time>2026-04-04T06:59:17.952Z</time></trkpt><trkpt lat="45.6726833" lon="8.2166667"><ele>418.0</ele><time>2026-04-04T06:59:18.952Z</time></trkpt><trkpt lat="45.672705" lon="8.2164533"><ele>418.0</ele><time>2026-04-04T06:59:19.952Z</time></trkpt><trkpt lat="45.6727017" lon="8.2162367"><ele>418.0</ele><time>2026-04-04T06:59:20.952Z</time></trkpt><trkpt lat="45.67268" lon="8.2160183"><ele>418.0</ele><time>2026-04-04T06:59:21.952Z</time></trkpt><trkpt lat="45.6726333" lon="8.2157967"><ele>417.0</ele><time>2026-04-04T06:59:22.952Z</time></trkpt><trkpt lat="45.6725733" lon="8.2155783"><ele>416.0</ele><time>2026-04-04T06:59:23.952Z</time></trkpt><trkpt lat="45.6725" lon="8.2153733"><ele>415.0</ele><time>2026-04-04T06:59:24.952Z</time></trkpt><trkpt lat="45.672425" lon="8.2152033"><ele>415.0</ele><time>2026-04-04T06:59:25.952Z</time></trkpt><trkpt lat="45.67235" lon="8.21506"><ele>415.0</ele><time>2026-04-04T06:59:26.952Z</time></trkpt><trkpt lat="45.6722717" lon="8.21493"><ele>415.0</ele><time>2026-04-04T06:59:27.952Z</time></trkpt><trkpt lat="45.6722017" lon="8.21481"><ele>415.0</ele><time>2026-04-04T06:59:28.952Z</time></trkpt><trkpt lat="45.6721433" lon="8.2146917"><ele>414.25</ele><time>2026-04-04T06:59:29.952Z</time></trkpt><trkpt lat="45.6721017" lon="8.2145667"><ele>413.5</ele><time>2026-04-04T06:59:30.952Z</time></trkpt><trkpt lat="45.6720683" lon="8.2144167"><ele>412.75</ele><time>2026-04-04T06:59:31.952Z</time></trkpt><trkpt lat="45.6720233" lon="8.2142383"><ele>412.0</ele><time>2026-04-04T06:59:32.952Z</time></trkpt><trkpt lat="45.6719633" lon="8.21403"><ele>413.0</ele><time>2026-04-04T06:59:33.952Z</time></trkpt><trkpt lat="45.6718933" lon="8.213805"><ele>414.0</ele><time>2026-04-04T06:59:34.951Z</time></trkpt><trkpt lat="45.6718217" lon="8.2135667"><ele>415.0</ele><time>2026-04-04T06:59:35.952Z</time></trkpt><trkpt lat="45.6717517" lon="8.21333"><ele>416.33333333333337</ele><time>2026-04-04T06:59:36.952Z</time></trkpt><trkpt lat="45.671675" lon="8.2130933"><ele>417.66666666666663</ele><time>2026-04-04T06:59:37.952Z</time></trkpt><trkpt lat="45.67161" lon="8.2128533"><ele>419.0</ele><time>2026-04-04T06:59:38.952Z</time></trkpt><trkpt lat="45.6715317" lon="8.2126017"><ele>419.0</ele><time>2026-04-04T06:59:39.951Z</time></trkpt><trkpt lat="45.67148" lon="8.2123583"><ele>419.0</ele><time>2026-04-04T06:59:40.952Z</time></trkpt><trkpt lat="45.6714367" lon="8.212115"><ele>419.0</ele><time>2026-04-04T06:59:41.952Z</time></trkpt><trkpt lat="45.6714133" lon="8.2118617"><ele>418.66666666666663</ele><time>2026-04-04T06:59:42.952Z</time></trkpt><trkpt lat="45.671395" lon="8.2116183"><ele>418.33333333333337</ele><time>2026-04-04T06:59:43.952Z</time></trkpt><trkpt lat="45.67139" lon="8.2113717"><ele>418.0</ele><time>2026-04-04T06:59:44.952Z</time></trkpt><trkpt lat="45.6713933" lon="8.2111117"><ele>418.0</ele><time>2026-04-04T06:59:45.952Z</time></trkpt><trkpt lat="45.671405" lon="8.210845"><ele>418.0</ele><time>2026-04-04T06:59:46.952Z</time></trkpt><trkpt lat="45.6714217" lon="8.2105817"><ele>418.0</ele><time>2026-04-04T06:59:47.951Z</time></trkpt><trkpt lat="45.6714333" lon="8.210315"><ele>418.33333333333337</ele><time>2026-04-04T06:59:48.952Z</time></trkpt><trkpt lat="45.67146" lon="8.21003"><ele>418.66666666666663</ele><time>2026-04-04T06:59:49.952Z</time></trkpt><trkpt lat="45.6714833" lon="8.209755"><ele>419.0</ele><time>2026-04-04T06:59:50.952Z</time></trkpt><trkpt lat="45.6715067" lon="8.209485"><ele>419.0</ele><time>2026-04-04T06:59:51.951Z</time></trkpt><trkpt lat="45.6715183" lon="8.2092167"><ele>419.0</ele><time>2026-04-04T06:59:52.952Z</time></trkpt><trkpt lat="45.6715383" lon="8.20895"><ele>419.0</ele><time>2026-04-04T06:59:53.951Z</time></trkpt><trkpt lat="45.6715617" lon="8.2086817"><ele>419.3333333333333</ele><time>2026-04-04T06:59:54.951Z</time></trkpt><trkpt lat="45.6715767" lon="8.208415"><ele>419.66666666666663</ele><time>2026-04-04T06:59:55.951Z</time></trkpt><trkpt lat="45.6715917" lon="8.2081533"><ele>420.0</ele><time>2026-04-04T06:59:56.952Z</time></trkpt><trkpt lat="45.67161" lon="8.2078767"><ele>421.0</ele><time>2026-04-04T06:59:57.951Z</time></trkpt><trkpt lat="45.671635" lon="8.2076"><ele>422.0</ele><time>2026-04-04T06:59:58.952Z</time></trkpt><trkpt lat="45.671665" lon="8.20733"><ele>423.0</ele><time>2026-04-04T06:59:59.951Z</time></trkpt><trkpt lat="45.671695" lon="8.20706"><ele>428.0</ele><time>2026-04-04T07:00:00.952Z</time></trkpt><trkpt lat="45.671735" lon="8.20678"><ele>433.0</ele><time>2026-04-04T07:00:01.952Z</time></trkpt><trkpt lat="45.67177" lon="8.2065117"><ele>438.0</ele><time>2026-04-04T07:00:02.952Z</time></trkpt><trkpt lat="45.6718117" lon="8.20623"><ele>439.66666666666663</ele><time>2026-04-04T07:00:03.952Z</time></trkpt><trkpt lat="45.67184" lon="8.2059583"><ele>441.3333333333333</ele><time>2026-04-04T07:00:04.952Z</time></trkpt><trkpt lat="45.6718383" lon="8.2056683"><ele>443.0</ele><time>2026-04-04T07:00:05.952Z</time></trkpt><trkpt lat="45.6718033" lon="8.2053733"><ele>440.0</ele><time>2026-04-04T07:00:06.952Z</time></trkpt><trkpt lat="45.6717667" lon="8.2050967"><ele>437.0</ele><time>2026-04-04T07:00:07.951Z</time></trkpt><trkpt lat="45.6717317" lon="8.2048167"><ele>434.0</ele><time>2026-04-04T07:00:08.952Z</time></trkpt><trkpt lat="45.6716917" lon="8.2045183"><ele>434.0</ele><time>2026-04-04T07:00:09.952Z</time></trkpt><trkpt lat="45.67166" lon="8.2042183"><ele>434.0</ele><time>2026-04-04T07:00:10.952Z</time></trkpt><trkpt lat="45.6716433" lon="8.20394"><ele>434.0</ele><time>2026-04-04T07:00:11.952Z</time></trkpt><trkpt lat="45.671645" lon="8.20368"><ele>434.3333333333333</ele><time>2026-04-04T07:00:12.952Z</time></trkpt><trkpt lat="45.671665" lon="8.2034317"><ele>434.66666666666663</ele><time>2026-04-04T07:00:13.952Z</time></trkpt><trkpt lat="45.6716983" lon="8.2031833"><ele>435.0</ele><time>2026-04-04T07:00:14.952Z</time></trkpt><trkpt lat="45.67175" lon="8.202925"><ele>435.0</ele><time>2026-04-04T07:00:15.952Z</time></trkpt><trkpt lat="45.67182" lon="8.2026783"><ele>435.0</ele><time>2026-04-04T07:00:16.952Z</time></trkpt><trkpt lat="45.671915" lon="8.2024317"><ele>435.0</ele><time>2026-04-04T07:00:17.952Z</time></trkpt><trkpt lat="45.6720217" lon="8.2022083"><ele>435.0</ele><time>2026-04-04T07:00:18.952Z</time></trkpt><trkpt lat="45.6721483" lon="8.2019933"><ele>435.0</ele><time>2026-04-04T07:00:19.952Z</time></trkpt><trkpt lat="45.67228" lon="8.2017867"><ele>435.0</ele><time>2026-04-04T07:00:20.952Z</time></trkpt><trkpt lat="45.6724333" lon="8.2016067"><ele>434.66666666666663</ele><time>2026-04-04T07:00:21.952Z</time></trkpt><trkpt lat="45.6725967" lon="8.2014383"><ele>434.3333333333333</ele><time>2026-04-04T07:00:22.952Z</time></trkpt><trkpt lat="45.6727683" lon="8.2012867"><ele>434.0</ele><time>2026-04-04T07:00:23.952Z</time></trkpt><trkpt lat="45.6729417" lon="8.20114"><ele>434.0</ele><time>2026-04-04T07:00:24.952Z</time></trkpt><trkpt lat="45.6731167" lon="8.2009867"><ele>434.0</ele><time>2026-04-04T07:00:25.952Z</time></trkpt><trkpt lat="45.6732967" lon="8.2008317"><ele>434.0</ele><time>2026-04-04T07:00:26.952Z</time></trkpt><trkpt lat="45.6734633" lon="8.2006767"><ele>434.3333333333333</ele><time>2026-04-04T07:00:27.952Z</time></trkpt><trkpt lat="45.673635" lon="8.2005267"><ele>434.66666666666663</ele><time>2026-04-04T07:00:28.952Z</time></trkpt><trkpt lat="45.6737933" lon="8.2003933"><ele>435.0</ele><time>2026-04-04T07:00:29.952Z</time></trkpt><trkpt lat="45.6739467" lon="8.200255"><ele>435.0</ele><time>2026-04-04T07:00:30.952Z</time></trkpt><trkpt lat="45.674095" lon="8.2001333"><ele>435.0</ele><time>2026-04-04T07:00:31.952Z</time></trkpt><trkpt lat="45.6742267" lon="8.2000217"><ele>435.0</ele><time>2026-04-04T07:00:32.952Z</time></trkpt><trkpt lat="45.6743467" lon="8.1999183"><ele>435.0</ele><time>2026-04-04T07:00:33.952Z</time></trkpt><trkpt lat="45.6744567" lon="8.199815"><ele>435.0</ele><time>2026-04-04T07:00:34.952Z</time></trkpt><trkpt lat="45.6745683" lon="8.1997183"><ele>435.0</ele><time>2026-04-04T07:00:35.952Z</time></trkpt><trkpt lat="45.67467" lon="8.1996283"><ele>435.0</ele><time>2026-04-04T07:00:36.952Z</time></trkpt><trkpt lat="45.674755" lon="8.19955"><ele>435.0</ele><time>2026-04-04T07:00:37.952Z</time></trkpt><trkpt lat="45.6748383" lon="8.19948"><ele>435.0</ele><time>2026-04-04T07:00:38.952Z</time></trkpt><trkpt lat="45.67491" lon="8.1994167"><ele>435.0</ele><time>2026-04-04T07:00:39.952Z</time></trkpt><trkpt lat="45.6749867" lon="8.1993633"><ele>435.0</ele><time>2026-04-04T07:00:40.952Z</time></trkpt><trkpt lat="45.6750633" lon="8.199325"><ele>435.0</ele><time>2026-04-04T07:00:41.952Z</time></trkpt><trkpt lat="45.675135" lon="8.1993167"><ele>435.0</ele><time>2026-04-04T07:00:42.952Z</time></trkpt><trkpt lat="45.675215" lon="8.19929"><ele>435.0</ele><time>2026-04-04T07:00:43.952Z</time></trkpt><trkpt lat="45.675295" lon="8.1992367"><ele>435.0</ele><time>2026-04-04T07:00:44.952Z</time></trkpt><trkpt lat="45.675375" lon="8.1991333"><ele>435.0</ele><time>2026-04-04T07:00:45.952Z</time></trkpt><trkpt lat="45.6754567" lon="8.1989983"><ele>435.0</ele><time>2026-04-04T07:00:46.952Z</time></trkpt><trkpt lat="45.6755483" lon="8.1988633"><ele>434.66666666666663</ele><time>2026-04-04T07:00:47.952Z</time></trkpt><trkpt lat="45.6756683" lon="8.1987367"><ele>434.3333333333333</ele><time>2026-04-04T07:00:48.952Z</time></trkpt><trkpt lat="45.6758" lon="8.1986217"><ele>434.0</ele><time>2026-04-04T07:00:49.951Z</time></trkpt><trkpt lat="45.6759383" lon="8.1984917"><ele>434.0</ele><time>2026-04-04T07:00:50.952Z</time></trkpt><trkpt lat="45.6760717" lon="8.19838"><ele>434.0</ele><time>2026-04-04T07:00:51.952Z</time></trkpt><trkpt lat="45.6762017" lon="8.1982633"><ele>434.0</ele><time>2026-04-04T07:00:52.952Z</time></trkpt><trkpt lat="45.67631" lon="8.1981617"><ele>434.0</ele><time>2026-04-04T07:00:53.952Z</time></trkpt><trkpt lat="45.6764217" lon="8.198065"><ele>434.6</ele><time>2026-04-04T07:00:54.951Z</time></trkpt><trkpt lat="45.6765183" lon="8.1979767"><ele>435.2</ele><time>2026-04-04T07:00:55.952Z</time></trkpt><trkpt lat="45.67661" lon="8.197905"><ele>435.80000000000007</ele><time>2026-04-04T07:00:56.952Z</time></trkpt><trkpt lat="45.6766883" lon="8.1978267"><ele>436.40000000000003</ele><time>2026-04-04T07:00:57.952Z</time></trkpt><trkpt lat="45.6767567" lon="8.1977533"><ele>437.0</ele><time>2026-04-04T07:00:58.952Z</time></trkpt><trkpt lat="45.67683" lon="8.1976967"><ele>437.0</ele><time>2026-04-04T07:00:59.952Z</time></trkpt><trkpt lat="45.6769117" lon="8.197625"><ele>437.00000000000006</ele><time>2026-04-04T07:01:00.951Z</time></trkpt><trkpt lat="45.6769933" lon="8.1975483"><ele>437.00000000000006</ele><time>2026-04-04T07:01:01.952Z</time></trkpt><trkpt lat="45.6770683" lon="8.1974783"><ele>437.0</ele><time>2026-04-04T07:01:02.952Z</time></trkpt><trkpt lat="45.677155" lon="8.1974017"><ele>437.0</ele><time>2026-04-04T07:01:03.952Z</time></trkpt><trkpt lat="45.6772617" lon="8.19731"><ele>438.0</ele><time>2026-04-04T07:01:04.951Z</time></trkpt><trkpt lat="45.6773733" lon="8.1971983"><ele>439.0</ele><time>2026-04-04T07:01:05.95Z</time></trkpt><trkpt lat="45.6775033" lon="8.19706"><ele>440.0</ele><time>2026-04-04T07:01:06.951Z</time></trkpt><trkpt lat="45.6776483" lon="8.1969117"><ele>439.3333333333333</ele><time>2026-04-04T07:01:07.952Z</time></trkpt><trkpt lat="45.6777883" lon="8.1967417"><ele>438.66666666666663</ele><time>2026-04-04T07:01:08.952Z</time></trkpt><trkpt lat="45.67793" lon="8.196565"><ele>438.0</ele><time>2026-04-04T07:01:09.951Z</time></trkpt><trkpt lat="45.6780667" lon="8.1963917"><ele>438.0</ele><time>2026-04-04T07:01:10.952Z</time></trkpt><trkpt lat="45.6781933" lon="8.1962217"><ele>438.0</ele><time>2026-04-04T07:01:11.952Z</time></trkpt><trkpt lat="45.678305" lon="8.1960383"><ele>438.0</ele><time>2026-04-04T07:01:12.952Z</time></trkpt><trkpt lat="45.6784217" lon="8.19581"><ele>438.0</ele><time>2026-04-04T07:01:13.952Z</time></trkpt><trkpt lat="45.6785517" lon="8.1955517"><ele>438.0</ele><time>2026-04-04T07:01:14.952Z</time></trkpt><trkpt lat="45.678685" lon="8.1952667"><ele>438.0</ele><time>2026-04-04T07:01:15.951Z</time></trkpt><trkpt lat="45.6788317" lon="8.1949833"><ele>438.0</ele><time>2026-04-04T07:01:16.952Z</time></trkpt><trkpt lat="45.6789667" lon="8.194685"><ele>439.0</ele><time>2026-04-04T07:01:17.952Z</time></trkpt><trkpt lat="45.67911" lon="8.1943667"><ele>440.0</ele><time>2026-04-04T07:01:18.952Z</time></trkpt><trkpt lat="45.679265" lon="8.1940283"><ele>440.5</ele><time>2026-04-04T07:01:19.952Z</time></trkpt><trkpt lat="45.6794233" lon="8.19369"><ele>441.0</ele><time>2026-04-04T07:01:20.952Z</time></trkpt><trkpt lat="45.6795767" lon="8.1933467"><ele>441.5</ele><time>2026-04-04T07:01:21.952Z</time></trkpt><trkpt lat="45.6797433" lon="8.1929917"><ele>442.0</ele><time>2026-04-04T07:01:22.952Z</time></trkpt><trkpt lat="45.6799167" lon="8.1926283"><ele>443.5</ele><time>2026-04-04T07:01:23.952Z</time></trkpt><trkpt lat="45.680085" lon="8.1922567"><ele>445.0</ele><time>2026-04-04T07:01:24.952Z</time></trkpt><trkpt lat="45.680255" lon="8.1919083"><ele>445.5</ele><time>2026-04-04T07:01:25.952Z</time></trkpt><trkpt lat="45.68041" lon="8.1915767"><ele>446.0</ele><time>2026-04-04T07:01:26.952Z</time></trkpt><trkpt lat="45.6805517" lon="8.1912667"><ele>446.5</ele><time>2026-04-04T07:01:27.952Z</time></trkpt><trkpt lat="45.68069" lon="8.190975"><ele>447.0</ele><time>2026-04-04T07:01:28.952Z</time></trkpt><trkpt lat="45.68082" lon="8.1907017"><ele>447.33333333333337</ele><time>2026-04-04T07:01:29.952Z</time></trkpt><trkpt lat="45.6809367" lon="8.1904333"><ele>447.6666666666667</ele><time>2026-04-04T07:01:30.951Z</time></trkpt><trkpt lat="45.681055" lon="8.1901633"><ele>448.0</ele><time>2026-04-04T07:01:31.952Z</time></trkpt><trkpt lat="45.68118" lon="8.1898833"><ele>446.5</ele><time>2026-04-04T07:01:32.952Z</time></trkpt><trkpt lat="45.6812967" lon="8.1895983"><ele>445.0</ele><time>2026-04-04T07:01:33.952Z</time></trkpt><trkpt lat="45.6813983" lon="8.189315"><ele>445.0</ele><time>2026-04-04T07:01:34.952Z</time></trkpt><trkpt lat="45.6814867" lon="8.1890233"><ele>445.0</ele><time>2026-04-04T07:01:35.952Z</time></trkpt><trkpt lat="45.6815617" lon="8.188715"><ele>448.0</ele><time>2026-04-04T07:01:36.952Z</time></trkpt><trkpt lat="45.6816283" lon="8.18839"><ele>451.0</ele><time>2026-04-04T07:01:37.952Z</time></trkpt><trkpt lat="45.6816883" lon="8.1880617"><ele>458.5</ele><time>2026-04-04T07:01:38.951Z</time></trkpt><trkpt lat="45.6817517" lon="8.1877233"><ele>466.0</ele><time>2026-04-04T07:01:39.951Z</time></trkpt><trkpt lat="45.681805" lon="8.1873967"><ele>473.5</ele><time>2026-04-04T07:01:40.952Z</time></trkpt><trkpt lat="45.6818517" lon="8.1870717"><ele>481.0</ele><time>2026-04-04T07:01:41.952Z</time></trkpt><trkpt lat="45.6818983" lon="8.1867417"><ele>471.0</ele><time>2026-04-04T07:01:42.952Z</time></trkpt><trkpt lat="45.6819467" lon="8.1864317"><ele>461.0</ele><time>2026-04-04T07:01:43.952Z</time></trkpt><trkpt lat="45.6819917" lon="8.186145"><ele>451.0</ele><time>2026-04-04T07:01:44.952Z</time></trkpt><trkpt lat="45.6820433" lon="8.1858817"><ele>451.6666666666667</ele><time>2026-04-04T07:01:45.952Z</time></trkpt><trkpt lat="45.6820833" lon="8.185635"><ele>452.33333333333337</ele><time>2026-04-04T07:01:46.952Z</time></trkpt><trkpt lat="45.6821167" lon="8.185395"><ele>453.0</ele><time>2026-04-04T07:01:47.952Z</time></trkpt><trkpt lat="45.68215" lon="8.1851633"><ele>453.0</ele><time>2026-04-04T07:01:48.952Z</time></trkpt><trkpt lat="45.682185" lon="8.1849533"><ele>453.0</ele><time>2026-04-04T07:01:49.952Z</time></trkpt><trkpt lat="45.6822133" lon="8.1847667"><ele>453.0</ele><time>2026-04-04T07:01:50.952Z</time></trkpt><trkpt lat="45.6822533" lon="8.1846"><ele>453.0</ele><time>2026-04-04T07:01:51.952Z</time></trkpt><trkpt lat="45.682285" lon="8.1844583"><ele>454.0</ele><time>2026-04-04T07:01:52.951Z</time></trkpt><trkpt lat="45.6823317" lon="8.1843583"><ele>455.0</ele><time>2026-04-04T07:01:53.952Z</time></trkpt><trkpt lat="45.6823883" lon="8.1843"><ele>456.0</ele><time>2026-04-04T07:01:54.951Z</time></trkpt><trkpt lat="45.6824467" lon="8.18425"><ele>457.0</ele><time>2026-04-04T07:01:55.952Z</time></trkpt><trkpt lat="45.6825033" lon="8.1840917"><ele>458.0</ele><time>2026-04-04T07:01:57.952Z</time></trkpt><trkpt lat="45.6824833" lon="8.1840017"><ele>459.0</ele><time>2026-04-04T07:01:58.952Z</time></trkpt><trkpt lat="45.6824333" lon="8.1838867"><ele>460.0</ele><time>2026-04-04T07:01:59.952Z</time></trkpt><trkpt lat="45.682385" lon="8.183745"><ele>461.0</ele><time>2026-04-04T07:02:00.952Z</time></trkpt><trkpt lat="45.6823483" lon="8.1835617"><ele>462.0</ele><time>2026-04-04T07:02:01.951Z</time></trkpt><trkpt lat="45.6823533" lon="8.1833233"><ele>463.0</ele><time>2026-04-04T07:02:02.951Z</time></trkpt><trkpt lat="45.682385" lon="8.1830683"><ele>465.6666666666667</ele><time>2026-04-04T07:02:03.952Z</time></trkpt><trkpt lat="45.6824267" lon="8.1828117"><ele>468.33333333333337</ele><time>2026-04-04T07:02:04.952Z</time></trkpt><trkpt lat="45.6824583" lon="8.1825383"><ele>471.0</ele><time>2026-04-04T07:02:05.952Z</time></trkpt><trkpt lat="45.682515" lon="8.1822583"><ele>475.0</ele><time>2026-04-04T07:02:06.952Z</time></trkpt><trkpt lat="45.6825717" lon="8.1819867"><ele>479.0</ele><time>2026-04-04T07:02:07.952Z</time></trkpt><trkpt lat="45.6826433" lon="8.181705"><ele>483.0</ele><time>2026-04-04T07:02:08.952Z</time></trkpt><trkpt lat="45.6827217" lon="8.18143"><ele>481.33333333333337</ele><time>2026-04-04T07:02:09.952Z</time></trkpt><trkpt lat="45.6828067" lon="8.18115"><ele>479.6666666666667</ele><time>2026-04-04T07:02:10.951Z</time></trkpt><trkpt lat="45.6828783" lon="8.18086"><ele>478.0</ele><time>2026-04-04T07:02:11.952Z</time></trkpt><trkpt lat="45.6829567" lon="8.18056"><ele>478.0</ele><time>2026-04-04T07:02:12.952Z</time></trkpt><trkpt lat="45.683015" lon="8.1802517"><ele>478.0</ele><time>2026-04-04T07:02:13.952Z</time></trkpt><trkpt lat="45.68308" lon="8.17996"><ele>478.0</ele><time>2026-04-04T07:02:14.952Z</time></trkpt><trkpt lat="45.683155" lon="8.1797183"><ele>480.75</ele><time>2026-04-04T07:02:15.952Z</time></trkpt><trkpt lat="45.683245" lon="8.1795367"><ele>483.5</ele><time>2026-04-04T07:02:16.952Z</time></trkpt><trkpt lat="45.6833483" lon="8.1793967"><ele>486.25</ele><time>2026-04-04T07:02:17.952Z</time></trkpt><trkpt lat="45.6834517" lon="8.17927"><ele>489.0</ele><time>2026-04-04T07:02:18.952Z</time></trkpt><trkpt lat="45.6835617" lon="8.1791667"><ele>490.4</ele><time>2026-04-04T07:02:19.952Z</time></trkpt><trkpt lat="45.68364" lon="8.17905"><ele>491.79999999999995</ele><time>2026-04-04T07:02:20.952Z</time></trkpt><trkpt lat="45.6836783" lon="8.1789033"><ele>493.20000000000005</ele><time>2026-04-04T07:02:21.952Z</time></trkpt><trkpt lat="45.6836867" lon="8.1787433"><ele>494.6</ele><time>2026-04-04T07:02:22.952Z</time></trkpt><trkpt lat="45.68366" lon="8.1785867"><ele>496.0</ele><time>2026-04-04T07:02:23.952Z</time></trkpt><trkpt lat="45.683605" lon="8.178455"><ele>498.0</ele><time>2026-04-04T07:02:24.952Z</time></trkpt><trkpt lat="45.683525" lon="8.1783683"><ele>500.0</ele><time>2026-04-04T07:02:25.952Z</time></trkpt><trkpt lat="45.6834283" lon="8.1783033"><ele>502.0</ele><time>2026-04-04T07:02:26.952Z</time></trkpt><trkpt lat="45.6833233" lon="8.1782817"><ele>504.0</ele><time>2026-04-04T07:02:27.952Z</time></trkpt><trkpt lat="45.6832083" lon="8.1783117"><ele>506.0</ele><time>2026-04-04T07:02:28.952Z</time></trkpt><trkpt lat="45.6831033" lon="8.1784017"><ele>506.0</ele><time>2026-04-04T07:02:29.951Z</time></trkpt><trkpt lat="45.6830133" lon="8.17854"><ele>506.0</ele><time>2026-04-04T07:02:30.952Z</time></trkpt><trkpt lat="45.6829283" lon="8.178725"><ele>506.0</ele><time>2026-04-04T07:02:31.952Z</time></trkpt><trkpt lat="45.6828567" lon="8.1789383"><ele>501.75</ele><time>2026-04-04T07:02:32.952Z</time></trkpt><trkpt lat="45.6827967" lon="8.1791467"><ele>497.5</ele><time>2026-04-04T07:02:33.952Z</time></trkpt><trkpt lat="45.68274" lon="8.1793433"><ele>493.25</ele><time>2026-04-04T07:02:34.952Z</time></trkpt><trkpt lat="45.682685" lon="8.1795017"><ele>489.0</ele><time>2026-04-04T07:02:35.951Z</time></trkpt><trkpt lat="45.6826533" lon="8.1796567"><ele>499.5</ele><time>2026-04-04T07:02:36.952Z</time></trkpt><trkpt lat="45.6826617" lon="8.1798367"><ele>510.0</ele><time>2026-04-04T07:02:37.952Z</time></trkpt><trkpt lat="45.6826783" lon="8.180025"><ele>520.5</ele><time>2026-04-04T07:02:38.952Z</time></trkpt><trkpt lat="45.68268" lon="8.1802133"><ele>531.0</ele><time>2026-04-04T07:02:39.952Z</time></trkpt><trkpt lat="45.6826433" lon="8.1803967"><ele>531.0</ele><time>2026-04-04T07:02:40.952Z</time></trkpt><trkpt lat="45.6825833" lon="8.1805683"><ele>531.0</ele><time>2026-04-04T07:02:41.952Z</time></trkpt><trkpt lat="45.6824983" lon="8.1807333"><ele>531.0</ele><time>2026-04-04T07:02:42.952Z</time></trkpt><trkpt lat="45.682405" lon="8.1808667"><ele>531.0</ele><time>2026-04-04T07:02:43.952Z</time></trkpt><trkpt lat="45.6823167" lon="8.1809567"><ele>532.0</ele><time>2026-04-04T07:02:44.952Z</time></trkpt><trkpt lat="45.6822033" lon="8.1810117"><ele>533.0</ele><time>2026-04-04T07:02:45.952Z</time></trkpt><trkpt lat="45.6820583" lon="8.1810283"><ele>534.0</ele><time>2026-04-04T07:02:46.952Z</time></trkpt><trkpt lat="45.6819117" lon="8.1810483"><ele>535.0</ele><time>2026-04-04T07:02:47.952Z</time></trkpt><trkpt lat="45.681765" lon="8.1810733"><ele>535.0</ele><time>2026-04-04T07:02:48.952Z</time></trkpt><trkpt lat="45.6816033" lon="8.1811233"><ele>535.0</ele><time>2026-04-04T07:02:49.952Z</time></trkpt><trkpt lat="45.6814483" lon="8.1811817"><ele>535.0</ele><time>2026-04-04T07:02:50.952Z</time></trkpt><trkpt lat="45.68133" lon="8.181235"><ele>535.0</ele><time>2026-04-04T07:02:51.952Z</time></trkpt><trkpt lat="45.6812333" lon="8.1813017"><ele>535.0</ele><time>2026-04-04T07:02:52.952Z</time></trkpt><trkpt lat="45.6811667" lon="8.1813867"><ele>535.0</ele><time>2026-04-04T07:02:53.952Z</time></trkpt><trkpt lat="45.681115" lon="8.1815233"><ele>535.0</ele><time>2026-04-04T07:02:54.951Z</time></trkpt><trkpt lat="45.6810983" lon="8.18165"><ele>535.0</ele><time>2026-04-04T07:02:55.952Z</time></trkpt><trkpt lat="45.681115" lon="8.18179"><ele>529.0</ele><time>2026-04-04T07:02:56.952Z</time></trkpt><trkpt lat="45.68117" lon="8.18195"><ele>523.0</ele><time>2026-04-04T07:02:57.952Z</time></trkpt><trkpt lat="45.6812717" lon="8.1821483"><ele>517.0</ele><time>2026-04-04T07:02:58.952Z</time></trkpt><trkpt lat="45.6814017" lon="8.18238"><ele>517.0</ele><time>2026-04-04T07:02:59.951Z</time></trkpt><trkpt lat="45.681485" lon="8.1825733"><ele>517.0</ele><time>2026-04-04T07:03:00.952Z</time></trkpt><trkpt lat="45.681525" lon="8.1827467"><ele>517.0</ele><time>2026-04-04T07:03:01.951Z</time></trkpt><trkpt lat="45.6815467" lon="8.1828917"><ele>517.0</ele><time>2026-04-04T07:03:02.952Z</time></trkpt><trkpt lat="45.6815333" lon="8.18302"><ele>517.0</ele><time>2026-04-04T07:03:03.952Z</time></trkpt><trkpt lat="45.6814917" lon="8.1831117"><ele>517.0</ele><time>2026-04-04T07:03:04.952Z</time></trkpt><trkpt lat="45.681425" lon="8.1832083"><ele>517.0</ele><time>2026-04-04T07:03:05.952Z</time></trkpt><trkpt lat="45.681365" lon="8.18334"><ele>517.0</ele><time>2026-04-04T07:03:06.952Z</time></trkpt><trkpt lat="45.6813483" lon="8.1835033"><ele>517.0</ele><time>2026-04-04T07:03:07.951Z</time></trkpt><trkpt lat="45.6813417" lon="8.1836917"><ele>517.25</ele><time>2026-04-04T07:03:08.952Z</time></trkpt><trkpt lat="45.681325" lon="8.1838583"><ele>517.5</ele><time>2026-04-04T07:03:09.951Z</time></trkpt><trkpt lat="45.6812833" lon="8.18401"><ele>517.75</ele><time>2026-04-04T07:03:10.952Z</time></trkpt><trkpt lat="45.68121" lon="8.184145"><ele>518.0</ele><time>2026-04-04T07:03:11.952Z</time></trkpt><trkpt lat="45.6811217" lon="8.1842583"><ele>522.1999999999999</ele><time>2026-04-04T07:03:12.952Z</time></trkpt><trkpt lat="45.6810233" lon="8.1843433"><ele>526.4</ele><time>2026-04-04T07:03:13.952Z</time></trkpt><trkpt lat="45.6809217" lon="8.1843683"><ele>530.5999999999999</ele><time>2026-04-04T07:03:14.952Z</time></trkpt><trkpt lat="45.68081" lon="8.184355"><ele>534.8</ele><time>2026-04-04T07:03:15.952Z</time></trkpt><trkpt lat="45.6807017" lon="8.1843017"><ele>539.0</ele><time>2026-04-04T07:03:16.952Z</time></trkpt><trkpt lat="45.6806067" lon="8.184195"><ele>539.0</ele><time>2026-04-04T07:03:17.952Z</time></trkpt><trkpt lat="45.6805317" lon="8.1840267"><ele>539.0</ele><time>2026-04-04T07:03:18.952Z</time></trkpt><trkpt lat="45.6804933" lon="8.1838417"><ele>539.0</ele><time>2026-04-04T07:03:19.952Z</time></trkpt><trkpt lat="45.6804717" lon="8.18366"><ele>539.0</ele><time>2026-04-04T07:03:20.952Z</time></trkpt><trkpt lat="45.6804483" lon="8.1834967"><ele>541.6666666666666</ele><time>2026-04-04T07:03:21.952Z</time></trkpt><trkpt lat="45.6804033" lon="8.1833633"><ele>544.3333333333333</ele><time>2026-04-04T07:03:22.952Z</time></trkpt><trkpt lat="45.6803267" lon="8.1832933"><ele>547.0</ele><time>2026-04-04T07:03:23.952Z</time></trkpt><trkpt lat="45.6802417" lon="8.1832617"><ele>549.6666666666666</ele><time>2026-04-04T07:03:24.951Z</time></trkpt><trkpt lat="45.680165" lon="8.183295"><ele>552.3333333333334</ele><time>2026-04-04T07:03:25.952Z</time></trkpt><trkpt lat="45.68011" lon="8.18339"><ele>555.0</ele><time>2026-04-04T07:03:26.952Z</time></trkpt><trkpt lat="45.6800883" lon="8.1835333"><ele>554.5</ele><time>2026-04-04T07:03:27.952Z</time></trkpt><trkpt lat="45.6800967" lon="8.1837133"><ele>554.0</ele><time>2026-04-04T07:03:28.951Z</time></trkpt><trkpt lat="45.6800867" lon="8.1838983"><ele>553.5</ele><time>2026-04-04T07:03:29.951Z</time></trkpt><trkpt lat="45.6800417" lon="8.1840567"><ele>553.0</ele><time>2026-04-04T07:03:30.952Z</time></trkpt><trkpt lat="45.67997" lon="8.1842017"><ele>553.0</ele><time>2026-04-04T07:03:31.952Z</time></trkpt><trkpt lat="45.679915" lon="8.1843617"><ele>553.0</ele><time>2026-04-04T07:03:32.952Z</time></trkpt><trkpt lat="45.6798817" lon="8.1845417"><ele>553.0</ele><time>2026-04-04T07:03:33.951Z</time></trkpt><trkpt lat="45.67988" lon="8.1847533"><ele>553.0</ele><time>2026-04-04T07:03:34.952Z</time></trkpt><trkpt lat="45.6798983" lon="8.1849783"><ele>553.0</ele><time>2026-04-04T07:03:35.952Z</time></trkpt><trkpt lat="45.6799417" lon="8.1852"><ele>553.0</ele><time>2026-04-04T07:03:36.952Z</time></trkpt><trkpt lat="45.6800067" lon="8.1854067"><ele>553.0</ele><time>2026-04-04T07:03:37.951Z</time></trkpt><trkpt lat="45.6800617" lon="8.1855667"><ele>553.0</ele><time>2026-04-04T07:03:38.952Z</time></trkpt><trkpt lat="45.6800817" lon="8.185715"><ele>554.0</ele><time>2026-04-04T07:03:39.952Z</time></trkpt><trkpt lat="45.6800567" lon="8.1858617"><ele>555.0</ele><time>2026-04-04T07:03:40.952Z</time></trkpt><trkpt lat="45.6800083" lon="8.186005"><ele>556.0</ele><time>2026-04-04T07:03:41.952Z</time></trkpt><trkpt lat="45.6799383" lon="8.1861533"><ele>557.0</ele><time>2026-04-04T07:03:42.952Z</time></trkpt><trkpt lat="45.6798483" lon="8.1862667"><ele>557.0</ele><time>2026-04-04T07:03:43.952Z</time></trkpt><trkpt lat="45.67973" lon="8.1863267"><ele>557.0</ele><time>2026-04-04T07:03:44.952Z</time></trkpt><trkpt lat="45.6796067" lon="8.1863233"><ele>557.0</ele><time>2026-04-04T07:03:45.952Z</time></trkpt><trkpt lat="45.67947" lon="8.1862767"><ele>557.0</ele><time>2026-04-04T07:03:46.952Z</time></trkpt><trkpt lat="45.679335" lon="8.1862"><ele>556.5</ele><time>2026-04-04T07:03:47.951Z</time></trkpt><trkpt lat="45.6792183" lon="8.186095"><ele>556.0</ele><time>2026-04-04T07:03:48.952Z</time></trkpt><trkpt lat="45.6791517" lon="8.1859467"><ele>555.5</ele><time>2026-04-04T07:03:49.952Z</time></trkpt><trkpt lat="45.6791117" lon="8.18577"><ele>555.0</ele><time>2026-04-04T07:03:50.952Z</time></trkpt><trkpt lat="45.679065" lon="8.185555"><ele>557.25</ele><time>2026-04-04T07:03:51.952Z</time></trkpt><trkpt lat="45.6790133" lon="8.1853467"><ele>559.5</ele><time>2026-04-04T07:03:52.952Z</time></trkpt><trkpt lat="45.67893" lon="8.1851783"><ele>561.75</ele><time>2026-04-04T07:03:53.952Z</time></trkpt><trkpt lat="45.67883" lon="8.18505"><ele>564.0</ele><time>2026-04-04T07:03:54.952Z</time></trkpt><trkpt lat="45.678745" lon="8.1849267"><ele>566.5</ele><time>2026-04-04T07:03:55.952Z</time></trkpt><trkpt lat="45.6787" lon="8.1847733"><ele>569.0</ele><time>2026-04-04T07:03:56.952Z</time></trkpt><trkpt lat="45.678685" lon="8.1845967"><ele>571.5</ele><time>2026-04-04T07:03:57.952Z</time></trkpt><trkpt lat="45.6786783" lon="8.1843867"><ele>574.0</ele><time>2026-04-04T07:03:58.952Z</time></trkpt><trkpt lat="45.6786833" lon="8.184155"><ele>576.0</ele><time>2026-04-04T07:03:59.952Z</time></trkpt><trkpt lat="45.67866" lon="8.183945"><ele>578.0</ele><time>2026-04-04T07:04:00.952Z</time></trkpt><trkpt lat="45.67864" lon="8.183755"><ele>580.0</ele><time>2026-04-04T07:04:01.952Z</time></trkpt><trkpt lat="45.6786183" lon="8.18358"><ele>582.0</ele><time>2026-04-04T07:04:02.952Z</time></trkpt><trkpt lat="45.67862" lon="8.18342"><ele>582.0</ele><time>2026-04-04T07:04:03.952Z</time></trkpt><trkpt lat="45.67865" lon="8.1833033"><ele>582.0</ele><time>2026-04-04T07:04:04.951Z</time></trkpt><trkpt lat="45.6787133" lon="8.18317"><ele>582.0</ele><time>2026-04-04T07:04:05.952Z</time></trkpt><trkpt lat="45.6787833" lon="8.18302"><ele>582.0</ele><time>2026-04-04T07:04:06.952Z</time></trkpt><trkpt lat="45.6788417" lon="8.182845"><ele>580.6666666666666</ele><time>2026-04-04T07:04:07.952Z</time></trkpt><trkpt lat="45.6788867" lon="8.1826317"><ele>579.3333333333333</ele><time>2026-04-04T07:04:08.952Z</time></trkpt><trkpt lat="45.67893" lon="8.1824"><ele>578.0</ele><time>2026-04-04T07:04:09.952Z</time></trkpt><trkpt lat="45.6789883" lon="8.1821967"><ele>578.75</ele><time>2026-04-04T07:04:10.952Z</time></trkpt><trkpt lat="45.679045" lon="8.18201"><ele>579.5</ele><time>2026-04-04T07:04:11.952Z</time></trkpt><trkpt lat="45.6790733" lon="8.1818267"><ele>580.25</ele><time>2026-04-04T07:04:12.952Z</time></trkpt><trkpt lat="45.67905" lon="8.1816267"><ele>581.0</ele><time>2026-04-04T07:04:13.952Z</time></trkpt><trkpt lat="45.6790033" lon="8.1814417"><ele>581.0</ele><time>2026-04-04T07:04:14.952Z</time></trkpt><trkpt lat="45.6789567" lon="8.1812517"><ele>581.0</ele><time>2026-04-04T07:04:15.952Z</time></trkpt><trkpt lat="45.6788833" lon="8.181065"><ele>581.0</ele><time>2026-04-04T07:04:16.952Z</time></trkpt><trkpt lat="45.6787667" lon="8.180905"><ele>581.0</ele><time>2026-04-04T07:04:17.951Z</time></trkpt><trkpt lat="45.6786317" lon="8.1807517"><ele>581.0</ele><time>2026-04-04T07:04:18.952Z</time></trkpt><trkpt lat="45.6785017" lon="8.1805833"><ele>581.0</ele><time>2026-04-04T07:04:19.952Z</time></trkpt><trkpt lat="45.678365" lon="8.1803983"><ele>590.0</ele><time>2026-04-04T07:04:20.952Z</time></trkpt><trkpt lat="45.6782383" lon="8.180195"><ele>599.0</ele><time>2026-04-04T07:04:21.952Z</time></trkpt><trkpt lat="45.6781183" lon="8.1799633"><ele>608.0</ele><time>2026-04-04T07:04:22.952Z</time></trkpt><trkpt lat="45.67802" lon="8.1797317"><ele>611.6666666666666</ele><time>2026-04-04T07:04:23.952Z</time></trkpt><trkpt lat="45.677935" lon="8.1795017"><ele>615.3333333333334</ele><time>2026-04-04T07:04:24.952Z</time></trkpt><trkpt lat="45.677885" lon="8.1793117"><ele>619.0</ele><time>2026-04-04T07:04:25.952Z</time></trkpt><trkpt lat="45.6778383" lon="8.17913"><ele>620.6666666666667</ele><time>2026-04-04T07:04:26.951Z</time></trkpt><trkpt lat="45.67778" lon="8.178935"><ele>622.3333333333334</ele><time>2026-04-04T07:04:27.952Z</time></trkpt><trkpt lat="45.6776633" lon="8.178755"><ele>624.0</ele><time>2026-04-04T07:04:28.952Z</time></trkpt><trkpt lat="45.6775567" lon="8.1785633"><ele>618.6666666666666</ele><time>2026-04-04T07:04:29.952Z</time></trkpt><trkpt lat="45.6774133" lon="8.1784217"><ele>613.3333333333333</ele><time>2026-04-04T07:04:30.952Z</time></trkpt><trkpt lat="45.6772583" lon="8.1783333"><ele>608.0</ele><time>2026-04-04T07:04:31.951Z</time></trkpt><trkpt lat="45.677115" lon="8.178275"><ele>608.0</ele><time>2026-04-04T07:04:32.952Z</time></trkpt><trkpt lat="45.6770017" lon="8.1782283"><ele>608.0</ele><time>2026-04-04T07:04:33.952Z</time></trkpt><trkpt lat="45.6769067" lon="8.1781733"><ele>608.0</ele><time>2026-04-04T07:04:34.952Z</time></trkpt><trkpt lat="45.6768317" lon="8.1781033"><ele>608.0</ele><time>2026-04-04T07:04:35.952Z</time></trkpt><trkpt lat="45.6768017" lon="8.178005"><ele>608.0</ele><time>2026-04-04T07:04:36.952Z</time></trkpt><trkpt lat="45.6768167" lon="8.1779083"><ele>609.4</ele><time>2026-04-04T07:04:37.952Z</time></trkpt><trkpt lat="45.6768567" lon="8.1778217"><ele>610.8</ele><time>2026-04-04T07:04:38.952Z</time></trkpt><trkpt lat="45.6769233" lon="8.1777483"><ele>612.2</ele><time>2026-04-04T07:04:39.952Z</time></trkpt><trkpt lat="45.677045" lon="8.1777133"><ele>613.6</ele><time>2026-04-04T07:04:40.952Z</time></trkpt><trkpt lat="45.6772133" lon="8.177695"><ele>615.0</ele><time>2026-04-04T07:04:41.951Z</time></trkpt><trkpt lat="45.6773933" lon="8.1776467"><ele>615.0</ele><time>2026-04-04T07:04:42.952Z</time></trkpt><trkpt lat="45.677555" lon="8.177565"><ele>615.0</ele><time>2026-04-04T07:04:43.952Z</time></trkpt><trkpt lat="45.677705" lon="8.1774567"><ele>615.0</ele><time>2026-04-04T07:04:44.952Z</time></trkpt><trkpt lat="45.6778333" lon="8.1773217"><ele>616.6</ele><time>2026-04-04T07:04:45.952Z</time></trkpt><trkpt lat="45.677935" lon="8.1771917"><ele>618.2</ele><time>2026-04-04T07:04:46.952Z</time></trkpt><trkpt lat="45.6780117" lon="8.1770517"><ele>619.8</ele><time>2026-04-04T07:04:47.952Z</time></trkpt><trkpt lat="45.6780317" lon="8.1769117"><ele>621.4</ele><time>2026-04-04T07:04:48.952Z</time></trkpt><trkpt lat="45.6780133" lon="8.1767983"><ele>623.0</ele><time>2026-04-04T07:04:49.952Z</time></trkpt><trkpt lat="45.6779767" lon="8.1766883"><ele>623.0</ele><time>2026-04-04T07:04:50.952Z</time></trkpt><trkpt lat="45.6779283" lon="8.1766183"><ele>623.0</ele><time>2026-04-04T07:04:51.952Z</time></trkpt><trkpt lat="45.677805" lon="8.1766233"><ele>623.0</ele><time>2026-04-04T07:04:53.952Z</time></trkpt><trkpt lat="45.6777367" lon="8.17671"><ele>623.0</ele><time>2026-04-04T07:04:54.952Z</time></trkpt><trkpt lat="45.6776517" lon="8.1768367"><ele>623.0</ele><time>2026-04-04T07:04:55.952Z</time></trkpt><trkpt lat="45.6775433" lon="8.17698"><ele>625.6666666666666</ele><time>2026-04-04T07:04:56.952Z</time></trkpt><trkpt lat="45.6774067" lon="8.1770817"><ele>628.3333333333334</ele><time>2026-04-04T07:04:57.952Z</time></trkpt><trkpt lat="45.6772417" lon="8.17717"><ele>631.0</ele><time>2026-04-04T07:04:58.952Z</time></trkpt><trkpt lat="45.67707" lon="8.1771933"><ele>635.6666666666667</ele><time>2026-04-04T07:04:59.952Z</time></trkpt><trkpt lat="45.6768817" lon="8.1771683"><ele>640.3333333333334</ele><time>2026-04-04T07:05:00.952Z</time></trkpt><trkpt lat="45.6766867" lon="8.177115"><ele>645.0</ele><time>2026-04-04T07:05:01.951Z</time></trkpt><trkpt lat="45.676485" lon="8.17704"><ele>645.0</ele><time>2026-04-04T07:05:02.952Z</time></trkpt><trkpt lat="45.6762833" lon="8.1770167"><ele>645.0</ele><time>2026-04-04T07:05:03.952Z</time></trkpt><trkpt lat="45.6761183" lon="8.1769933"><ele>645.0</ele><time>2026-04-04T07:05:04.952Z</time></trkpt><trkpt lat="45.675975" lon="8.1769633"><ele>643.0</ele><time>2026-04-04T07:05:05.952Z</time></trkpt><trkpt lat="45.6758267" lon="8.176955"><ele>641.0</ele><time>2026-04-04T07:05:06.952Z</time></trkpt><trkpt lat="45.6756983" lon="8.1769383"><ele>639.0</ele><time>2026-04-04T07:05:07.952Z</time></trkpt><trkpt lat="45.67559" lon="8.1769183"><ele>637.0</ele><time>2026-04-04T07:05:08.952Z</time></trkpt><trkpt lat="45.6754867" lon="8.1768667"><ele>637.0</ele><time>2026-04-04T07:05:09.952Z</time></trkpt><trkpt lat="45.6753917" lon="8.1767783"><ele>637.0</ele><time>2026-04-04T07:05:10.952Z</time></trkpt><trkpt lat="45.6753167" lon="8.17664"><ele>637.0</ele><time>2026-04-04T07:05:11.952Z</time></trkpt><trkpt lat="45.6752867" lon="8.1764583"><ele>637.0</ele><time>2026-04-04T07:05:12.952Z</time></trkpt><trkpt lat="45.6752633" lon="8.17627"><ele>636.5</ele><time>2026-04-04T07:05:13.952Z</time></trkpt><trkpt lat="45.6752167" lon="8.176095"><ele>636.0</ele><time>2026-04-04T07:05:14.952Z</time></trkpt><trkpt lat="45.675125" lon="8.175965"><ele>635.5</ele><time>2026-04-04T07:05:15.952Z</time></trkpt><trkpt lat="45.6750133" lon="8.1758683"><ele>635.0</ele><time>2026-04-04T07:05:16.952Z</time></trkpt><trkpt lat="45.674885" lon="8.1757383"><ele>636.6</ele><time>2026-04-04T07:05:17.952Z</time></trkpt><trkpt lat="45.6747833" lon="8.1756167"><ele>638.2</ele><time>2026-04-04T07:05:18.952Z</time></trkpt><trkpt lat="45.674695" lon="8.175505"><ele>639.8</ele><time>2026-04-04T07:05:19.952Z</time></trkpt><trkpt lat="45.67466" lon="8.1753917"><ele>641.4</ele><time>2026-04-04T07:05:20.952Z</time></trkpt><trkpt lat="45.6746933" lon="8.1752617"><ele>643.0</ele><time>2026-04-04T07:05:21.952Z</time></trkpt><trkpt lat="45.67477" lon="8.1751367"><ele>643.0</ele><time>2026-04-04T07:05:22.952Z</time></trkpt><trkpt lat="45.6748567" lon="8.1750033"><ele>643.0</ele><time>2026-04-04T07:05:23.951Z</time></trkpt><trkpt lat="45.6749483" lon="8.1748467"><ele>643.0</ele><time>2026-04-04T07:05:24.952Z</time></trkpt><trkpt lat="45.6750467" lon="8.174715"><ele>643.0</ele><time>2026-04-04T07:05:25.952Z</time></trkpt><trkpt lat="45.6751467" lon="8.1746117"><ele>644.4</ele><time>2026-04-04T07:05:26.952Z</time></trkpt><trkpt lat="45.6752333" lon="8.174515"><ele>645.8</ele><time>2026-04-04T07:05:27.952Z</time></trkpt><trkpt lat="45.675305" lon="8.174405"><ele>647.2</ele><time>2026-04-04T07:05:28.952Z</time></trkpt><trkpt lat="45.675335" lon="8.17428"><ele>648.6</ele><time>2026-04-04T07:05:29.952Z</time></trkpt><trkpt lat="45.67532" lon="8.1741567"><ele>650.0</ele><time>2026-04-04T07:05:30.951Z</time></trkpt><trkpt lat="45.6752867" lon="8.1740617"><ele>650.0</ele><time>2026-04-04T07:05:31.952Z</time></trkpt><trkpt lat="45.6752217" lon="8.1740033"><ele>650.0</ele><time>2026-04-04T07:05:32.952Z</time></trkpt><trkpt lat="45.67512" lon="8.1739833"><ele>650.0</ele><time>2026-04-04T07:05:33.952Z</time></trkpt><trkpt lat="45.6749883" lon="8.174005"><ele>650.0</ele><time>2026-04-04T07:05:34.952Z</time></trkpt><trkpt lat="45.6748433" lon="8.174045"><ele>650.0</ele><time>2026-04-04T07:05:35.952Z</time></trkpt><trkpt lat="45.6746883" lon="8.1741283"><ele>650.0</ele><time>2026-04-04T07:05:36.952Z</time></trkpt><trkpt lat="45.67456" lon="8.1742233"><ele>650.0</ele><time>2026-04-04T07:05:37.952Z</time></trkpt><trkpt lat="45.67445" lon="8.17432"><ele>650.0</ele><time>2026-04-04T07:05:38.952Z</time></trkpt><trkpt lat="45.6743567" lon="8.1744033"><ele>649.4</ele><time>2026-04-04T07:05:39.952Z</time></trkpt><trkpt lat="45.6742633" lon="8.17447"><ele>648.8</ele><time>2026-04-04T07:05:40.952Z</time></trkpt><trkpt lat="45.67417" lon="8.1744983"><ele>648.2</ele><time>2026-04-04T07:05:41.952Z</time></trkpt><trkpt lat="45.67407" lon="8.1744567"><ele>647.6</ele><time>2026-04-04T07:05:42.951Z</time></trkpt><trkpt lat="45.6739817" lon="8.1743833"><ele>647.0</ele><time>2026-04-04T07:05:43.952Z</time></trkpt><trkpt lat="45.6739333" lon="8.1742533"><ele>647.0</ele><time>2026-04-04T07:05:44.952Z</time></trkpt><trkpt lat="45.6739217" lon="8.1741167"><ele>647.0</ele><time>2026-04-04T07:05:45.952Z</time></trkpt><trkpt lat="45.6739517" lon="8.1739517"><ele>647.0</ele><time>2026-04-04T07:05:46.952Z</time></trkpt><trkpt lat="45.6740267" lon="8.1737833"><ele>647.0</ele><time>2026-04-04T07:05:47.952Z</time></trkpt><trkpt lat="45.6741233" lon="8.1736067"><ele>647.0</ele><time>2026-04-04T07:05:48.952Z</time></trkpt><trkpt lat="45.6742617" lon="8.1734083"><ele>647.0</ele><time>2026-04-04T07:05:49.952Z</time></trkpt><trkpt lat="45.674385" lon="8.1732467"><ele>647.0</ele><time>2026-04-04T07:05:50.952Z</time></trkpt><trkpt lat="45.6745" lon="8.1731067"><ele>653.25</ele><time>2026-04-04T07:05:51.952Z</time></trkpt><trkpt lat="45.6746083" lon="8.1729917"><ele>659.5</ele><time>2026-04-04T07:05:52.952Z</time></trkpt><trkpt lat="45.6747" lon="8.17288"><ele>665.75</ele><time>2026-04-04T07:05:53.952Z</time></trkpt><trkpt lat="45.6747517" lon="8.172755"><ele>672.0</ele><time>2026-04-04T07:05:54.952Z</time></trkpt><trkpt lat="45.6747717" lon="8.172625"><ele>672.0</ele><time>2026-04-04T07:05:55.952Z</time></trkpt><trkpt lat="45.6747433" lon="8.172495"><ele>672.0</ele><time>2026-04-04T07:05:56.952Z</time></trkpt><trkpt lat="45.6746767" lon="8.1723817"><ele>672.0</ele><time>2026-04-04T07:05:57.952Z</time></trkpt><trkpt lat="45.6745867" lon="8.1722917"><ele>672.0</ele><time>2026-04-04T07:05:58.952Z</time></trkpt><trkpt lat="45.6744983" lon="8.172225"><ele>672.0</ele><time>2026-04-04T07:05:59.951Z</time></trkpt><trkpt lat="45.674415" lon="8.1721083"><ele>671.75</ele><time>2026-04-04T07:06:00.952Z</time></trkpt><trkpt lat="45.67435" lon="8.1719617"><ele>671.5</ele><time>2026-04-04T07:06:01.952Z</time></trkpt><trkpt lat="45.6743133" lon="8.1717767"><ele>671.25</ele><time>2026-04-04T07:06:02.951Z</time></trkpt><trkpt lat="45.6742883" lon="8.1715967"><ele>671.0</ele><time>2026-04-04T07:06:03.952Z</time></trkpt><trkpt lat="45.67427" lon="8.1714333"><ele>671.0</ele><time>2026-04-04T07:06:04.952Z</time></trkpt><trkpt lat="45.6742467" lon="8.1712983"><ele>671.0</ele><time>2026-04-04T07:06:05.952Z</time></trkpt><trkpt lat="45.6742033" lon="8.1711967"><ele>671.0</ele><time>2026-04-04T07:06:06.952Z</time></trkpt><trkpt lat="45.674145" lon="8.1711133"><ele>671.0</ele><time>2026-04-04T07:06:07.952Z</time></trkpt><trkpt lat="45.6740817" lon="8.17106"><ele>671.0</ele><time>2026-04-04T07:06:08.952Z</time></trkpt><trkpt lat="45.6739917" lon="8.17106"><ele>671.0</ele><time>2026-04-04T07:06:09.952Z</time></trkpt><trkpt lat="45.6739117" lon="8.171105"><ele>671.0</ele><time>2026-04-04T07:06:10.951Z</time></trkpt><trkpt lat="45.6738333" lon="8.1712233"><ele>671.0</ele><time>2026-04-04T07:06:11.952Z</time></trkpt><trkpt lat="45.6737333" lon="8.1713233"><ele>671.0</ele><time>2026-04-04T07:06:12.952Z</time></trkpt><trkpt lat="45.6736367" lon="8.17138"><ele>671.0</ele><time>2026-04-04T07:06:13.951Z</time></trkpt><trkpt lat="45.6735533" lon="8.1713883"><ele>671.0</ele><time>2026-04-04T07:06:14.952Z</time></trkpt><trkpt lat="45.6734933" lon="8.1713433"><ele>668.0</ele><time>2026-04-04T07:06:15.951Z</time></trkpt><trkpt lat="45.67345" lon="8.1712417"><ele>665.0</ele><time>2026-04-04T07:06:16.951Z</time></trkpt><trkpt lat="45.67344" lon="8.171095"><ele>662.0</ele><time>2026-04-04T07:06:17.952Z</time></trkpt><trkpt lat="45.67347" lon="8.1709017"><ele>659.0</ele><time>2026-04-04T07:06:18.952Z</time></trkpt><trkpt lat="45.6735267" lon="8.170675"><ele>658.0</ele><time>2026-04-04T07:06:19.952Z</time></trkpt><trkpt lat="45.6735867" lon="8.17045"><ele>657.0</ele><time>2026-04-04T07:06:20.952Z</time></trkpt><trkpt lat="45.67364" lon="8.1702567"><ele>656.0</ele><time>2026-04-04T07:06:21.952Z</time></trkpt><trkpt lat="45.6736733" lon="8.1701083"><ele>655.0</ele><time>2026-04-04T07:06:22.952Z</time></trkpt><trkpt lat="45.673715" lon="8.16997"><ele>659.4</ele><time>2026-04-04T07:06:23.952Z</time></trkpt><trkpt lat="45.6737733" lon="8.1698517"><ele>663.8</ele><time>2026-04-04T07:06:24.952Z</time></trkpt><trkpt lat="45.673835" lon="8.1697417"><ele>668.2</ele><time>2026-04-04T07:06:25.952Z</time></trkpt><trkpt lat="45.6738967" lon="8.1696233"><ele>672.6</ele><time>2026-04-04T07:06:26.951Z</time></trkpt><trkpt lat="45.673955" lon="8.1694783"><ele>677.0</ele><time>2026-04-04T07:06:27.952Z</time></trkpt><trkpt lat="45.6740033" lon="8.1693133"><ele>677.0</ele><time>2026-04-04T07:06:28.952Z</time></trkpt><trkpt lat="45.6740383" lon="8.1691383"><ele>677.0</ele><time>2026-04-04T07:06:29.952Z</time></trkpt><trkpt lat="45.67408" lon="8.1689717"><ele>677.0</ele><time>2026-04-04T07:06:30.952Z</time></trkpt><trkpt lat="45.67415" lon="8.16882"><ele>677.0</ele><time>2026-04-04T07:06:31.952Z</time></trkpt><trkpt lat="45.67421" lon="8.168665"><ele>676.25</ele><time>2026-04-04T07:06:32.952Z</time></trkpt><trkpt lat="45.6742833" lon="8.1685067"><ele>675.5</ele><time>2026-04-04T07:06:33.952Z</time></trkpt><trkpt lat="45.674365" lon="8.1683683"><ele>674.75</ele><time>2026-04-04T07:06:34.952Z</time></trkpt><trkpt lat="45.674445" lon="8.1682717"><ele>674.0</ele><time>2026-04-04T07:06:35.952Z</time></trkpt><trkpt lat="45.674555" lon="8.168205"><ele>677.5</ele><time>2026-04-04T07:06:36.952Z</time></trkpt><trkpt lat="45.674675" lon="8.1681433"><ele>681.0</ele><time>2026-04-04T07:06:37.951Z</time></trkpt><trkpt lat="45.6747883" lon="8.16805"><ele>684.5</ele><time>2026-04-04T07:06:38.952Z</time></trkpt><trkpt lat="45.6748767" lon="8.167925"><ele>688.0</ele><time>2026-04-04T07:06:39.952Z</time></trkpt><trkpt lat="45.6749433" lon="8.1677717"><ele>688.0</ele><time>2026-04-04T07:06:40.952Z</time></trkpt><trkpt lat="45.675" lon="8.1675867"><ele>688.0</ele><time>2026-04-04T07:06:41.951Z</time></trkpt><trkpt lat="45.6750683" lon="8.1674033"><ele>688.0</ele><time>2026-04-04T07:06:42.952Z</time></trkpt><trkpt lat="45.6751217" lon="8.167225"><ele>688.0</ele><time>2026-04-04T07:06:43.952Z</time></trkpt><trkpt lat="45.6751833" lon="8.167045"><ele>688.25</ele><time>2026-04-04T07:06:44.952Z</time></trkpt><trkpt lat="45.6752283" lon="8.1668617"><ele>688.5</ele><time>2026-04-04T07:06:45.952Z</time></trkpt><trkpt lat="45.6752817" lon="8.1666833"><ele>688.75</ele><time>2026-04-04T07:06:46.952Z</time></trkpt><trkpt lat="45.6753417" lon="8.1665017"><ele>689.0</ele><time>2026-04-04T07:06:47.952Z</time></trkpt><trkpt lat="45.675395" lon="8.1663183"><ele>692.6</ele><time>2026-04-04T07:06:48.952Z</time></trkpt><trkpt lat="45.675435" lon="8.166155"><ele>696.2</ele><time>2026-04-04T07:06:49.951Z</time></trkpt><trkpt lat="45.6754717" lon="8.16601"><ele>699.8000000000001</ele><time>2026-04-04T07:06:50.952Z</time></trkpt><trkpt lat="45.6755" lon="8.1658717"><ele>703.4000000000001</ele><time>2026-04-04T07:06:51.952Z</time></trkpt><trkpt lat="45.67552" lon="8.1657483"><ele>707.0</ele><time>2026-04-04T07:06:52.952Z</time></trkpt><trkpt lat="45.6755133" lon="8.1656533"><ele>706.0</ele><time>2026-04-04T07:06:53.952Z</time></trkpt><trkpt lat="45.675455" lon="8.1655367"><ele>705.0</ele><time>2026-04-04T07:06:55.952Z</time></trkpt><trkpt lat="45.675325" lon="8.1656433"><ele>704.0</ele><time>2026-04-04T07:06:57.952Z</time></trkpt><trkpt lat="45.6752267" lon="8.16572"><ele>703.0</ele><time>2026-04-04T07:06:58.952Z</time></trkpt><trkpt lat="45.6750833" lon="8.1658183"><ele>703.0</ele><time>2026-04-04T07:06:59.952Z</time></trkpt><trkpt lat="45.6749217" lon="8.165905"><ele>703.0</ele><time>2026-04-04T07:07:00.952Z</time></trkpt><trkpt lat="45.6747717" lon="8.1659883"><ele>703.0</ele><time>2026-04-04T07:07:01.952Z</time></trkpt><trkpt lat="45.67464" lon="8.1660517"><ele>703.0</ele><time>2026-04-04T07:07:02.952Z</time></trkpt><trkpt lat="45.6745083" lon="8.16612"><ele>703.0</ele><time>2026-04-04T07:07:03.952Z</time></trkpt><trkpt lat="45.6743833" lon="8.166175"><ele>703.0</ele><time>2026-04-04T07:07:04.952Z</time></trkpt><trkpt lat="45.6742583" lon="8.16621"><ele>703.0</ele><time>2026-04-04T07:07:05.951Z</time></trkpt><trkpt lat="45.6741283" lon="8.1662267"><ele>704.2</ele><time>2026-04-04T07:07:06.952Z</time></trkpt><trkpt lat="45.6740117" lon="8.16621"><ele>705.4</ele><time>2026-04-04T07:07:07.952Z</time></trkpt><trkpt lat="45.673915" lon="8.1661917"><ele>706.6</ele><time>2026-04-04T07:07:08.952Z</time></trkpt><trkpt lat="45.6738283" lon="8.1661617"><ele>707.8000000000001</ele><time>2026-04-04T07:07:09.952Z</time></trkpt><trkpt lat="45.6737367" lon="8.1661133"><ele>709.0</ele><time>2026-04-04T07:07:10.952Z</time></trkpt><trkpt lat="45.67365" lon="8.166045"><ele>709.0</ele><time>2026-04-04T07:07:11.952Z</time></trkpt><trkpt lat="45.6735917" lon="8.1659333"><ele>709.0</ele><time>2026-04-04T07:07:12.951Z</time></trkpt><trkpt lat="45.673565" lon="8.1657867"><ele>709.0</ele><time>2026-04-04T07:07:13.952Z</time></trkpt><trkpt lat="45.6735717" lon="8.165595"><ele>709.0</ele><time>2026-04-04T07:07:14.952Z</time></trkpt><trkpt lat="45.6735867" lon="8.1653567"><ele>709.0</ele><time>2026-04-04T07:07:15.952Z</time></trkpt><trkpt lat="45.67359" lon="8.1651233"><ele>709.0</ele><time>2026-04-04T07:07:16.952Z</time></trkpt><trkpt lat="45.6736033" lon="8.164895"><ele>709.0</ele><time>2026-04-04T07:07:17.952Z</time></trkpt><trkpt lat="45.67363" lon="8.1646617"><ele>713.75</ele><time>2026-04-04T07:07:18.952Z</time></trkpt><trkpt lat="45.6736667" lon="8.1644633"><ele>718.5</ele><time>2026-04-04T07:07:19.952Z</time></trkpt><trkpt lat="45.67372" lon="8.16429"><ele>723.25</ele><time>2026-04-04T07:07:20.951Z</time></trkpt><trkpt lat="45.6737817" lon="8.1641433"><ele>728.0</ele><time>2026-04-04T07:07:21.952Z</time></trkpt><trkpt lat="45.6738167" lon="8.1639983"><ele>727.8333333333333</ele><time>2026-04-04T07:07:22.952Z</time></trkpt><trkpt lat="45.673805" lon="8.16388"><ele>727.6666666666666</ele><time>2026-04-04T07:07:23.952Z</time></trkpt><trkpt lat="45.6737617" lon="8.1637867"><ele>727.5</ele><time>2026-04-04T07:07:24.952Z</time></trkpt><trkpt lat="45.6737083" lon="8.1637267"><ele>727.3333333333334</ele><time>2026-04-04T07:07:25.952Z</time></trkpt><trkpt lat="45.673635" lon="8.1636983"><ele>727.1666666666667</ele><time>2026-04-04T07:07:26.952Z</time></trkpt><trkpt lat="45.6735367" lon="8.163695"><ele>727.0</ele><time>2026-04-04T07:07:27.952Z</time></trkpt><trkpt lat="45.6734017" lon="8.1637267"><ele>727.0</ele><time>2026-04-04T07:07:28.952Z</time></trkpt><trkpt lat="45.6732433" lon="8.16374"><ele>727.0</ele><time>2026-04-04T07:07:29.952Z</time></trkpt><trkpt lat="45.6730833" lon="8.1637067"><ele>727.0</ele><time>2026-04-04T07:07:30.952Z</time></trkpt><trkpt lat="45.6729067" lon="8.1636267"><ele>725.25</ele><time>2026-04-04T07:07:31.952Z</time></trkpt><trkpt lat="45.672745" lon="8.1634933"><ele>723.5</ele><time>2026-04-04T07:07:32.952Z</time></trkpt><trkpt lat="45.6726333" lon="8.1633917"><ele>721.75</ele><time>2026-04-04T07:07:33.952Z</time></trkpt><trkpt lat="45.6725283" lon="8.1632833"><ele>720.0</ele><time>2026-04-04T07:07:34.952Z</time></trkpt><trkpt lat="45.6724217" lon="8.16315"><ele>723.75</ele><time>2026-04-04T07:07:35.952Z</time></trkpt><trkpt lat="45.67231" lon="8.1630267"><ele>727.5</ele><time>2026-04-04T07:07:36.952Z</time></trkpt><trkpt lat="45.672205" lon="8.1628983"><ele>731.25</ele><time>2026-04-04T07:07:37.952Z</time></trkpt><trkpt lat="45.672095" lon="8.162765"><ele>735.0</ele><time>2026-04-04T07:07:38.952Z</time></trkpt><trkpt lat="45.6719817" lon="8.1626183"><ele>734.6666666666666</ele><time>2026-04-04T07:07:39.952Z</time></trkpt><trkpt lat="45.6718667" lon="8.1624667"><ele>734.3333333333333</ele><time>2026-04-04T07:07:40.951Z</time></trkpt><trkpt lat="45.671755" lon="8.1623067"><ele>734.0</ele><time>2026-04-04T07:07:41.952Z</time></trkpt><trkpt lat="45.67165" lon="8.16213"><ele>734.0</ele><time>2026-04-04T07:07:42.952Z</time></trkpt><trkpt lat="45.6715417" lon="8.1619533"><ele>734.0</ele><time>2026-04-04T07:07:43.952Z</time></trkpt><trkpt lat="45.67144" lon="8.1617667"><ele>734.0</ele><time>2026-04-04T07:07:44.952Z</time></trkpt><trkpt lat="45.6713617" lon="8.1615833"><ele>736.75</ele><time>2026-04-04T07:07:45.952Z</time></trkpt><trkpt lat="45.6712833" lon="8.1614333"><ele>739.5</ele><time>2026-04-04T07:07:46.952Z</time></trkpt><trkpt lat="45.67119" lon="8.1612833"><ele>742.25</ele><time>2026-04-04T07:07:47.952Z</time></trkpt><trkpt lat="45.6710817" lon="8.1611767"><ele>745.0</ele><time>2026-04-04T07:07:48.952Z</time></trkpt><trkpt lat="45.670965" lon="8.16113"><ele>745.0</ele><time>2026-04-04T07:07:49.952Z</time></trkpt><trkpt lat="45.6708433" lon="8.1611033"><ele>745.0</ele><time>2026-04-04T07:07:50.952Z</time></trkpt><trkpt lat="45.6707233" lon="8.1610967"><ele>745.0</ele><time>2026-04-04T07:07:51.952Z</time></trkpt><trkpt lat="45.6705983" lon="8.1610817"><ele>745.0</ele><time>2026-04-04T07:07:52.952Z</time></trkpt><trkpt lat="45.67047" lon="8.1610633"><ele>745.0</ele><time>2026-04-04T07:07:53.952Z</time></trkpt><trkpt lat="45.6703433" lon="8.1610333"><ele>745.0</ele><time>2026-04-04T07:07:54.952Z</time></trkpt><trkpt lat="45.6702367" lon="8.1610467"><ele>745.0</ele><time>2026-04-04T07:07:55.951Z</time></trkpt><trkpt lat="45.6701267" lon="8.1611167"><ele>745.0</ele><time>2026-04-04T07:07:56.952Z</time></trkpt><trkpt lat="45.6700517" lon="8.161235"><ele>744.5</ele><time>2026-04-04T07:07:57.952Z</time></trkpt><trkpt lat="45.66999" lon="8.1613583"><ele>744.0</ele><time>2026-04-04T07:07:58.952Z</time></trkpt><trkpt lat="45.669925" lon="8.1614533"><ele>743.5</ele><time>2026-04-04T07:07:59.952Z</time></trkpt><trkpt lat="45.6698583" lon="8.1615167"><ele>743.0</ele><time>2026-04-04T07:08:00.951Z</time></trkpt><trkpt lat="45.669785" lon="8.161595"><ele>742.5</ele><time>2026-04-04T07:08:02.952Z</time></trkpt><trkpt lat="45.6697183" lon="8.1615933"><ele>742.0</ele><time>2026-04-04T07:08:05.952Z</time></trkpt><trkpt lat="45.669785" lon="8.161535"><ele>743.8</ele><time>2026-04-04T07:08:08.952Z</time></trkpt><trkpt lat="45.6698483" lon="8.1614433"><ele>745.6</ele><time>2026-04-04T07:08:09.952Z</time></trkpt><trkpt lat="45.6699183" lon="8.16134"><ele>747.4</ele><time>2026-04-04T07:08:10.952Z</time></trkpt><trkpt lat="45.670005" lon="8.1611967"><ele>749.1999999999999</ele><time>2026-04-04T07:08:11.952Z</time></trkpt><trkpt lat="45.6700767" lon="8.161055"><ele>751.0</ele><time>2026-04-04T07:08:12.952Z</time></trkpt><trkpt lat="45.6701417" lon="8.160955"><ele>751.0</ele><time>2026-04-04T07:08:13.952Z</time></trkpt><trkpt lat="45.6702233" lon="8.1608783"><ele>751.0</ele><time>2026-04-04T07:08:14.952Z</time></trkpt><trkpt lat="45.670335" lon="8.16083"><ele>751.0</ele><time>2026-04-04T07:08:15.952Z</time></trkpt><trkpt lat="45.67046" lon="8.1607867"><ele>751.0</ele><time>2026-04-04T07:08:16.952Z</time></trkpt><trkpt lat="45.6705783" lon="8.1607767"><ele>751.5999999999999</ele><time>2026-04-04T07:08:17.952Z</time></trkpt><trkpt lat="45.670685" lon="8.1607733"><ele>752.2</ele><time>2026-04-04T07:08:18.952Z</time></trkpt><trkpt lat="45.6707667" lon="8.160765"><ele>752.8</ele><time>2026-04-04T07:08:19.952Z</time></trkpt><trkpt lat="45.6708283" lon="8.1607333"><ele>753.4000000000001</ele><time>2026-04-04T07:08:20.952Z</time></trkpt><trkpt lat="45.6709217" lon="8.16063"><ele>754.0</ele><time>2026-04-04T07:08:22.951Z</time></trkpt><trkpt lat="45.670965" lon="8.1605067"><ele>754.0</ele><time>2026-04-04T07:08:24.952Z</time></trkpt><trkpt lat="45.6709933" lon="8.160365"><ele>754.0</ele><time>2026-04-04T07:08:26.952Z</time></trkpt><trkpt lat="45.671" lon="8.1602367"><ele>754.0</ele><time>2026-04-04T07:08:27.952Z</time></trkpt><trkpt lat="45.6709883" lon="8.1601283"><ele>754.0</ele><time>2026-04-04T07:08:28.951Z</time></trkpt><trkpt lat="45.6709733" lon="8.1599567"><ele>754.0</ele><time>2026-04-04T07:08:29.952Z</time></trkpt><trkpt lat="45.670965" lon="8.159675"><ele>754.3333333333334</ele><time>2026-04-04T07:08:30.952Z</time></trkpt><trkpt lat="45.6709767" lon="8.15939"><ele>754.6666666666666</ele><time>2026-04-04T07:08:31.951Z</time></trkpt><trkpt lat="45.671" lon="8.1591"><ele>755.0</ele><time>2026-04-04T07:08:32.952Z</time></trkpt><trkpt lat="45.6710333" lon="8.1588283"><ele>757.4</ele><time>2026-04-04T07:08:33.952Z</time></trkpt><trkpt lat="45.671055" lon="8.1586267"><ele>759.8</ele><time>2026-04-04T07:08:34.952Z</time></trkpt><trkpt lat="45.6710717" lon="8.1584867"><ele>762.2</ele><time>2026-04-04T07:08:35.951Z</time></trkpt><trkpt lat="45.67108" lon="8.1583917"><ele>764.6</ele><time>2026-04-04T07:08:36.951Z</time></trkpt><trkpt lat="45.6710867" lon="8.1582883"><ele>767.0</ele><time>2026-04-04T07:08:38.952Z</time></trkpt><trkpt lat="45.6710217" lon="8.1582383"><ele>767.0</ele><time>2026-04-04T07:08:42.952Z</time></trkpt><trkpt lat="45.6708817" lon="8.1582783"><ele>767.0</ele><time>2026-04-04T07:08:44.952Z</time></trkpt><trkpt lat="45.6708017" lon="8.158305"><ele>767.0</ele><time>2026-04-04T07:08:45.951Z</time></trkpt><trkpt lat="45.6707383" lon="8.1583"><ele>767.0</ele><time>2026-04-04T07:08:46.952Z</time></trkpt><trkpt lat="45.6706467" lon="8.1582683"><ele>767.0</ele><time>2026-04-04T07:08:48.952Z</time></trkpt><trkpt lat="45.6706783" lon="8.15817"><ele>770.0</ele><time>2026-04-04T07:08:57.952Z</time></trkpt><trkpt lat="45.670745" lon="8.158145"><ele>773.0</ele><time>2026-04-04T07:08:58.952Z</time></trkpt><trkpt lat="45.6708367" lon="8.1581133"><ele>776.0</ele><time>2026-04-04T07:08:59.952Z</time></trkpt><trkpt lat="45.670945" lon="8.1580483"><ele>779.0</ele><time>2026-04-04T07:09:00.952Z</time></trkpt><trkpt lat="45.6710567" lon="8.1579617"><ele>782.0</ele><time>2026-04-04T07:09:01.952Z</time></trkpt><trkpt lat="45.6711667" lon="8.1578683"><ele>782.0</ele><time>2026-04-04T07:09:02.952Z</time></trkpt><trkpt lat="45.6712617" lon="8.1577833"><ele>782.0</ele><time>2026-04-04T07:09:03.952Z</time></trkpt><trkpt lat="45.6713517" lon="8.15772"><ele>782.0</ele><time>2026-04-04T07:09:04.952Z</time></trkpt><trkpt lat="45.6714233" lon="8.1576567"><ele>782.0</ele><time>2026-04-04T07:09:05.952Z</time></trkpt><trkpt lat="45.6714967" lon="8.1576133"><ele>782.0</ele><time>2026-04-04T07:09:06.952Z</time></trkpt><trkpt lat="45.67157" lon="8.1575983"><ele>782.0</ele><time>2026-04-04T07:09:07.952Z</time></trkpt><trkpt lat="45.67168" lon="8.1576333"><ele>782.0</ele><time>2026-04-04T07:09:09.952Z</time></trkpt><trkpt lat="45.6717467" lon="8.15771"><ele>782.0</ele><time>2026-04-04T07:09:11.952Z</time></trkpt><trkpt lat="45.6717817" lon="8.1578367"><ele>782.0</ele><time>2026-04-04T07:09:13.952Z</time></trkpt><trkpt lat="45.6717983" lon="8.1579333"><ele>782.0</ele><time>2026-04-04T07:09:16.952Z</time></trkpt><trkpt lat="45.6718817" lon="8.157995"><ele>781.9999999999999</ele><time>2026-04-04T07:11:03.951Z</time></trkpt><trkpt lat="45.6719576" lon="8.1580393"><ele>782.0</ele><time>2026-04-04T07:11:22.008Z</time></trkpt><trkpt lat="45.6720221" lon="8.1580066"><ele>782.0</ele><time>2026-04-04T07:15:43.002Z</time></trkpt><trkpt lat="45.6719735" lon="8.1579406"><ele>782.0</ele><time>2026-04-04T07:15:52.006Z</time></trkpt><trkpt lat="45.6719123" lon="8.1579743"><ele>782.0</ele><time>2026-04-04T07:18:55.967Z</time></trkpt><trkpt lat="45.6719712" lon="8.1580753"><ele>781.9999999999999</ele><time>2026-04-04T07:18:56.95Z</time></trkpt><trkpt lat="45.6720145" lon="8.1581596"><ele>782.0</ele><time>2026-04-04T07:18:57.95Z</time></trkpt><trkpt lat="45.6720589" lon="8.158255"><ele>782.6666666666667</ele><time>2026-04-04T07:18:58.95Z</time></trkpt><trkpt lat="45.6720998" lon="8.1583574"><ele>783.3333333333334</ele><time>2026-04-04T07:18:59.95Z</time></trkpt><trkpt lat="45.6721492" lon="8.1584491"><ele>784.0</ele><time>2026-04-04T07:19:00.95Z</time></trkpt><trkpt lat="45.6721998" lon="8.1585385"><ele>784.6666666666667</ele><time>2026-04-04T07:19:01.95Z</time></trkpt><trkpt lat="45.672263" lon="8.1586245"><ele>785.3333333333334</ele><time>2026-04-04T07:19:02.95Z</time></trkpt><trkpt lat="45.6723283" lon="8.1586961"><ele>786.0</ele><time>2026-04-04T07:19:03.95Z</time></trkpt><trkpt lat="45.6723914" lon="8.1587632"><ele>786.0</ele><time>2026-04-04T07:19:04.95Z</time></trkpt><trkpt lat="45.6724525" lon="8.1588318"><ele>786.0</ele><time>2026-04-04T07:19:05.949Z</time></trkpt><trkpt lat="45.6724968" lon="8.1588989"><ele>786.0</ele><time>2026-04-04T07:19:06.95Z</time></trkpt><trkpt lat="45.6725746" lon="8.1590423"><ele>786.0</ele><time>2026-04-04T07:19:08.95Z</time></trkpt><trkpt lat="45.6726081" lon="8.1592031"><ele>786.0</ele><time>2026-04-04T07:19:10.95Z</time></trkpt><trkpt lat="45.6725436" lon="8.15935"><ele>784.4</ele><time>2026-04-04T07:19:12.95Z</time></trkpt><trkpt lat="45.6724449" lon="8.1593949"><ele>782.8</ele><time>2026-04-04T07:19:14.95Z</time></trkpt><trkpt lat="45.6723572" lon="8.1593435"><ele>781.1999999999999</ele><time>2026-04-04T07:19:16.95Z</time></trkpt><trkpt lat="45.6722572" lon="8.1592406"><ele>779.5999999999999</ele><time>2026-04-04T07:19:18.95Z</time></trkpt><trkpt lat="45.6722059" lon="8.1591627"><ele>778.0</ele><time>2026-04-04T07:19:19.949Z</time></trkpt><trkpt lat="45.672142" lon="8.1590656"><ele>777.0</ele><time>2026-04-04T07:19:20.95Z</time></trkpt><trkpt lat="45.6720694" lon="8.1589476"><ele>776.0</ele><time>2026-04-04T07:19:21.95Z</time></trkpt><trkpt lat="45.6719801" lon="8.1588097"><ele>775.0</ele><time>2026-04-04T07:19:22.95Z</time></trkpt><trkpt lat="45.6718891" lon="8.1586745"><ele>774.0</ele><time>2026-04-04T07:19:23.95Z</time></trkpt><trkpt lat="45.6717894" lon="8.1585442"><ele>774.0</ele><time>2026-04-04T07:19:24.95Z</time></trkpt><trkpt lat="45.6716839" lon="8.1584241"><ele>774.0</ele><time>2026-04-04T07:19:25.95Z</time></trkpt><trkpt lat="45.6715673" lon="8.1583229"><ele>774.0</ele><time>2026-04-04T07:19:26.95Z</time></trkpt><trkpt lat="45.671437" lon="8.158264"><ele>774.0</ele><time>2026-04-04T07:19:27.95Z</time></trkpt><trkpt lat="45.6713051" lon="8.1582283"><ele>774.0</ele><time>2026-04-04T07:19:28.95Z</time></trkpt><trkpt lat="45.6711616" lon="8.1582188"><ele>774.0</ele><time>2026-04-04T07:19:29.95Z</time></trkpt><trkpt lat="45.671013" lon="8.1582272"><ele>774.0</ele><time>2026-04-04T07:19:30.95Z</time></trkpt><trkpt lat="45.6708764" lon="8.1582382"><ele>774.0</ele><time>2026-04-04T07:19:31.95Z</time></trkpt><trkpt lat="45.670765" lon="8.1582476"><ele>772.8333333333334</ele><time>2026-04-04T07:19:32.95Z</time></trkpt><trkpt lat="45.6706884" lon="8.1582512"><ele>771.6666666666666</ele><time>2026-04-04T07:19:33.95Z</time></trkpt><trkpt lat="45.6706175" lon="8.1582397"><ele>770.5</ele><time>2026-04-04T07:19:35.95Z</time></trkpt><trkpt lat="45.6705572" lon="8.1581174"><ele>769.3333333333333</ele><time>2026-04-04T07:19:43.95Z</time></trkpt><trkpt lat="45.6704907" lon="8.1580563"><ele>768.1666666666666</ele><time>2026-04-04T07:19:44.95Z</time></trkpt><trkpt lat="45.6704014" lon="8.1579933"><ele>767.0</ele><time>2026-04-04T07:19:45.95Z</time></trkpt><trkpt lat="45.6702953" lon="8.1579125"><ele>769.25</ele><time>2026-04-04T07:19:46.95Z</time></trkpt><trkpt lat="45.6701822" lon="8.1578027"><ele>771.5</ele><time>2026-04-04T07:19:47.949Z</time></trkpt><trkpt lat="45.6700657" lon="8.157681"><ele>773.75</ele><time>2026-04-04T07:19:48.95Z</time></trkpt><trkpt lat="45.669966" lon="8.1575608"><ele>776.0</ele><time>2026-04-04T07:19:49.95Z</time></trkpt><trkpt lat="45.6698895" lon="8.1574657"><ele>776.0</ele><time>2026-04-04T07:19:50.95Z</time></trkpt><trkpt lat="45.6698586" lon="8.1573863"><ele>776.0</ele><time>2026-04-04T07:19:51.95Z</time></trkpt><trkpt lat="45.6698644" lon="8.1572477"><ele>776.0</ele><time>2026-04-04T07:19:53.95Z</time></trkpt><trkpt lat="45.6700021" lon="8.1572185"><ele>776.0</ele><time>2026-04-04T07:19:55.95Z</time></trkpt><trkpt lat="45.6700992" lon="8.1572548"><ele>776.0</ele><time>2026-04-04T07:19:56.95Z</time></trkpt><trkpt lat="45.6702154" lon="8.1573093"><ele>777.75</ele><time>2026-04-04T07:19:57.95Z</time></trkpt><trkpt lat="45.6703549" lon="8.1573701"><ele>779.5</ele><time>2026-04-04T07:19:58.949Z</time></trkpt><trkpt lat="45.6704865" lon="8.1574221"><ele>781.25</ele><time>2026-04-04T07:19:59.949Z</time></trkpt><trkpt lat="45.6706171" lon="8.1574652"><ele>783.0</ele><time>2026-04-04T07:20:00.95Z</time></trkpt><trkpt lat="45.6707475" lon="8.1574774"><ele>783.0</ele><time>2026-04-04T07:20:01.95Z</time></trkpt><trkpt lat="45.6708736" lon="8.1574581"><ele>783.0</ele><time>2026-04-04T07:20:02.95Z</time></trkpt><trkpt lat="45.6709958" lon="8.1573981"><ele>783.0</ele><time>2026-04-04T07:20:03.95Z</time></trkpt><trkpt lat="45.6711185" lon="8.1573181"><ele>783.0</ele><time>2026-04-04T07:20:04.95Z</time></trkpt><trkpt lat="45.6712526" lon="8.1572215"><ele>790.6666666666667</ele><time>2026-04-04T07:20:05.95Z</time></trkpt><trkpt lat="45.6713971" lon="8.1571356"><ele>798.3333333333334</ele><time>2026-04-04T07:20:06.95Z</time></trkpt><trkpt lat="45.6715484" lon="8.1570875"><ele>806.0</ele><time>2026-04-04T07:20:07.95Z</time></trkpt><trkpt lat="45.6717027" lon="8.1570628"><ele>806.0</ele><time>2026-04-04T07:20:08.95Z</time></trkpt><trkpt lat="45.671849" lon="8.157045"><ele>806.0</ele><time>2026-04-04T07:20:09.95Z</time></trkpt><trkpt lat="45.6719847" lon="8.1570432"><ele>806.0</ele><time>2026-04-04T07:20:10.95Z</time></trkpt><trkpt lat="45.6721081" lon="8.1570544"><ele>806.0</ele><time>2026-04-04T07:20:11.949Z</time></trkpt><trkpt lat="45.6722224" lon="8.1570948"><ele>808.0</ele><time>2026-04-04T07:20:12.95Z</time></trkpt><trkpt lat="45.6723337" lon="8.1571859"><ele>810.0</ele><time>2026-04-04T07:20:13.95Z</time></trkpt><trkpt lat="45.6724394" lon="8.1573004"><ele>812.0</ele><time>2026-04-04T07:20:14.95Z</time></trkpt><trkpt lat="45.6725324" lon="8.1574519"><ele>814.0</ele><time>2026-04-04T07:20:15.95Z</time></trkpt><trkpt lat="45.6726101" lon="8.1576291"><ele>818.0</ele><time>2026-04-04T07:20:16.95Z</time></trkpt><trkpt lat="45.6726801" lon="8.1578111"><ele>822.0</ele><time>2026-04-04T07:20:17.95Z</time></trkpt><trkpt lat="45.6727505" lon="8.1580002"><ele>826.0</ele><time>2026-04-04T07:20:18.95Z</time></trkpt><trkpt lat="45.6728351" lon="8.1581842"><ele>830.0</ele><time>2026-04-04T07:20:19.95Z</time></trkpt><trkpt lat="45.6729352" lon="8.1583711"><ele>830.0</ele><time>2026-04-04T07:20:20.95Z</time></trkpt><trkpt lat="45.6730342" lon="8.1585371"><ele>830.0</ele><time>2026-04-04T07:20:21.949Z</time></trkpt><trkpt lat="45.6731197" lon="8.1586922"><ele>830.0</ele><time>2026-04-04T07:20:22.949Z</time></trkpt><trkpt lat="45.6731836" lon="8.1588343"><ele>830.0</ele><time>2026-04-04T07:20:23.95Z</time></trkpt><trkpt lat="45.6732265" lon="8.1589603"><ele>830.0</ele><time>2026-04-04T07:20:24.95Z</time></trkpt><trkpt lat="45.6732635" lon="8.1590708"><ele>830.0</ele><time>2026-04-04T07:20:25.95Z</time></trkpt><trkpt lat="45.6733058" lon="8.1591636"><ele>830.0</ele><time>2026-04-04T07:20:26.95Z</time></trkpt><trkpt lat="45.6733633" lon="8.159215"><ele>830.0</ele><time>2026-04-04T07:20:27.95Z</time></trkpt><trkpt lat="45.6734267" lon="8.1592233"><ele>830.0</ele><time>2026-04-04T07:20:28.95Z</time></trkpt><trkpt lat="45.6734833" lon="8.1591833"><ele>830.0</ele><time>2026-04-04T07:20:29.95Z</time></trkpt><trkpt lat="45.6735217" lon="8.1590933"><ele>830.0</ele><time>2026-04-04T07:20:30.95Z</time></trkpt><trkpt lat="45.67352" lon="8.1589867"><ele>830.0</ele><time>2026-04-04T07:20:31.95Z</time></trkpt><trkpt lat="45.6734967" lon="8.15888"><ele>830.0</ele><time>2026-04-04T07:20:32.949Z</time></trkpt><trkpt lat="45.6734467" lon="8.1587617"><ele>830.0</ele><time>2026-04-04T07:20:33.95Z</time></trkpt><trkpt lat="45.6733783" lon="8.158625"><ele>830.0</ele><time>2026-04-04T07:20:34.95Z</time></trkpt><trkpt lat="45.6733067" lon="8.158475"><ele>830.0</ele><time>2026-04-04T07:20:35.95Z</time></trkpt><trkpt lat="45.6732317" lon="8.158315"><ele>834.5</ele><time>2026-04-04T07:20:36.95Z</time></trkpt><trkpt lat="45.6731583" lon="8.15813"><ele>839.0</ele><time>2026-04-04T07:20:37.949Z</time></trkpt><trkpt lat="45.6731" lon="8.157955"><ele>843.5</ele><time>2026-04-04T07:20:38.95Z</time></trkpt><trkpt lat="45.673065" lon="8.1577817"><ele>848.0</ele><time>2026-04-04T07:20:39.95Z</time></trkpt><trkpt lat="45.6730417" lon="8.1576083"><ele>848.0</ele><time>2026-04-04T07:20:40.95Z</time></trkpt><trkpt lat="45.67303" lon="8.1574467"><ele>848.0</ele><time>2026-04-04T07:20:41.95Z</time></trkpt><trkpt lat="45.6730317" lon="8.1572817"><ele>848.0</ele><time>2026-04-04T07:20:42.95Z</time></trkpt><trkpt lat="45.673055" lon="8.1571317"><ele>848.0</ele><time>2026-04-04T07:20:43.949Z</time></trkpt><trkpt lat="45.6730733" lon="8.1569917"><ele>848.0</ele><time>2026-04-04T07:20:44.95Z</time></trkpt><trkpt lat="45.6731133" lon="8.15684"><ele>848.0</ele><time>2026-04-04T07:20:45.95Z</time></trkpt><trkpt lat="45.6731667" lon="8.15669"><ele>848.0</ele><time>2026-04-04T07:20:46.95Z</time></trkpt><trkpt lat="45.67323" lon="8.15654"><ele>848.0</ele><time>2026-04-04T07:20:47.95Z</time></trkpt><trkpt lat="45.6733017" lon="8.1563983"><ele>848.0</ele><time>2026-04-04T07:20:48.95Z</time></trkpt><trkpt lat="45.6733767" lon="8.1562517"><ele>848.0</ele><time>2026-04-04T07:20:49.95Z</time></trkpt><trkpt lat="45.6734483" lon="8.1560917"><ele>848.0</ele><time>2026-04-04T07:20:50.95Z</time></trkpt><trkpt lat="45.6735133" lon="8.1559267"><ele>848.0</ele><time>2026-04-04T07:20:51.95Z</time></trkpt><trkpt lat="45.673555" lon="8.1557883"><ele>848.0</ele><time>2026-04-04T07:20:52.95Z</time></trkpt><trkpt lat="45.6735867" lon="8.15566"><ele>852.6666666666667</ele><time>2026-04-04T07:20:53.95Z</time></trkpt><trkpt lat="45.6736117" lon="8.1555383"><ele>857.3333333333334</ele><time>2026-04-04T07:20:54.95Z</time></trkpt><trkpt lat="45.6736267" lon="8.1554183"><ele>862.0</ele><time>2026-04-04T07:20:55.95Z</time></trkpt><trkpt lat="45.6736317" lon="8.1552967"><ele>866.6666666666667</ele><time>2026-04-04T07:20:56.95Z</time></trkpt><trkpt lat="45.673645" lon="8.1551867"><ele>871.3333333333334</ele><time>2026-04-04T07:20:57.949Z</time></trkpt><trkpt lat="45.6736683" lon="8.1551"><ele>876.0</ele><time>2026-04-04T07:20:58.95Z</time></trkpt><trkpt lat="45.6737333" lon="8.1550167"><ele>876.0</ele><time>2026-04-04T07:21:00.95Z</time></trkpt><trkpt lat="45.6738217" lon="8.155005"><ele>875.9999999999999</ele><time>2026-04-04T07:21:02.95Z</time></trkpt><trkpt lat="45.6739117" lon="8.1551017"><ele>875.9999999999999</ele><time>2026-04-04T07:21:04.95Z</time></trkpt><trkpt lat="45.6739117" lon="8.15522"><ele>876.0</ele><time>2026-04-04T07:21:05.95Z</time></trkpt><trkpt lat="45.67387" lon="8.15534"><ele>876.0</ele><time>2026-04-04T07:21:06.95Z</time></trkpt><trkpt lat="45.6737983" lon="8.1554883"><ele>876.0</ele><time>2026-04-04T07:21:07.95Z</time></trkpt><trkpt lat="45.6737217" lon="8.15567"><ele>876.0</ele><time>2026-04-04T07:21:08.95Z</time></trkpt><trkpt lat="45.6736667" lon="8.155865"><ele>876.0</ele><time>2026-04-04T07:21:09.95Z</time></trkpt><trkpt lat="45.67362" lon="8.15608"><ele>870.5999999999999</ele><time>2026-04-04T07:21:10.95Z</time></trkpt><trkpt lat="45.6735883" lon="8.1562567"><ele>865.1999999999999</ele><time>2026-04-04T07:21:11.95Z</time></trkpt><trkpt lat="45.67356" lon="8.1564067"><ele>859.8</ele><time>2026-04-04T07:21:12.949Z</time></trkpt><trkpt lat="45.673535" lon="8.1565417"><ele>854.4000000000001</ele><time>2026-04-04T07:21:13.949Z</time></trkpt><trkpt lat="45.6735117" lon="8.1566817"><ele>849.0</ele><time>2026-04-04T07:21:14.949Z</time></trkpt><trkpt lat="45.67348" lon="8.156815"><ele>849.0</ele><time>2026-04-04T07:21:15.95Z</time></trkpt><trkpt lat="45.6734617" lon="8.1569617"><ele>849.0</ele><time>2026-04-04T07:21:16.95Z</time></trkpt><trkpt lat="45.6734483" lon="8.1570933"><ele>849.0</ele><time>2026-04-04T07:21:17.95Z</time></trkpt><trkpt lat="45.6734533" lon="8.1572267"><ele>849.0</ele><time>2026-04-04T07:21:18.95Z</time></trkpt><trkpt lat="45.673475" lon="8.15736"><ele>849.0</ele><time>2026-04-04T07:21:19.95Z</time></trkpt><trkpt lat="45.673505" lon="8.1574867"><ele>848.8000000000001</ele><time>2026-04-04T07:21:20.95Z</time></trkpt><trkpt lat="45.6735467" lon="8.1576017"><ele>848.6</ele><time>2026-04-04T07:21:21.95Z</time></trkpt><trkpt lat="45.6735983" lon="8.1577233"><ele>848.4</ele><time>2026-04-04T07:21:22.95Z</time></trkpt><trkpt lat="45.67366" lon="8.1578433"><ele>848.2</ele><time>2026-04-04T07:21:23.95Z</time></trkpt><trkpt lat="45.6737283" lon="8.1579583"><ele>848.0</ele><time>2026-04-04T07:21:24.95Z</time></trkpt><trkpt lat="45.6737983" lon="8.158065"><ele>851.0000000000001</ele><time>2026-04-04T07:21:25.95Z</time></trkpt><trkpt lat="45.6738567" lon="8.1581567"><ele>854.0</ele><time>2026-04-04T07:21:26.95Z</time></trkpt><trkpt lat="45.673905" lon="8.1582367"><ele>857.0</ele><time>2026-04-04T07:21:27.95Z</time></trkpt><trkpt lat="45.673965" lon="8.1583067"><ele>860.0</ele><time>2026-04-04T07:21:28.95Z</time></trkpt><trkpt lat="45.6740267" lon="8.1583483"><ele>863.0000000000001</ele><time>2026-04-04T07:21:29.95Z</time></trkpt><trkpt lat="45.6740917" lon="8.1583417"><ele>866.0</ele><time>2026-04-04T07:21:30.95Z</time></trkpt><trkpt lat="45.674195" lon="8.1582167"><ele>870.8333333333334</ele><time>2026-04-04T07:21:32.95Z</time></trkpt><trkpt lat="45.6742167" lon="8.1581183"><ele>875.6666666666667</ele><time>2026-04-04T07:21:33.949Z</time></trkpt><trkpt lat="45.6742233" lon="8.1580167"><ele>880.5</ele><time>2026-04-04T07:21:34.95Z</time></trkpt><trkpt lat="45.674185" lon="8.1579133"><ele>885.3333333333333</ele><time>2026-04-04T07:21:35.95Z</time></trkpt><trkpt lat="45.674125" lon="8.1578033"><ele>890.1666666666666</ele><time>2026-04-04T07:21:36.95Z</time></trkpt><trkpt lat="45.6740617" lon="8.1577183"><ele>895.0</ele><time>2026-04-04T07:21:37.95Z</time></trkpt><trkpt lat="45.6740033" lon="8.15761"><ele>895.0</ele><time>2026-04-04T07:21:38.949Z</time></trkpt><trkpt lat="45.6739467" lon="8.157475"><ele>895.0</ele><time>2026-04-04T07:21:39.949Z</time></trkpt><trkpt lat="45.6739083" lon="8.1573317"><ele>895.0</ele><time>2026-04-04T07:21:40.95Z</time></trkpt><trkpt lat="45.6738867" lon="8.157205"><ele>895.0</ele><time>2026-04-04T07:21:41.95Z</time></trkpt><trkpt lat="45.6738867" lon="8.1570683"><ele>895.0</ele><time>2026-04-04T07:21:42.95Z</time></trkpt><trkpt lat="45.6739167" lon="8.15693"><ele>895.4</ele><time>2026-04-04T07:21:43.95Z</time></trkpt><trkpt lat="45.6739617" lon="8.1567933"><ele>895.8</ele><time>2026-04-04T07:21:44.95Z</time></trkpt><trkpt lat="45.67401" lon="8.15664"><ele>896.2</ele><time>2026-04-04T07:21:45.95Z</time></trkpt><trkpt lat="45.6740583" lon="8.15649"><ele>896.6</ele><time>2026-04-04T07:21:46.95Z</time></trkpt><trkpt lat="45.6741083" lon="8.15636"><ele>897.0</ele><time>2026-04-04T07:21:47.95Z</time></trkpt><trkpt lat="45.6741617" lon="8.1562517"><ele>894.2</ele><time>2026-04-04T07:21:48.95Z</time></trkpt><trkpt lat="45.67422" lon="8.1561367"><ele>891.4000000000001</ele><time>2026-04-04T07:21:49.949Z</time></trkpt><trkpt lat="45.6742817" lon="8.1560317"><ele>888.5999999999999</ele><time>2026-04-04T07:21:50.95Z</time></trkpt><trkpt lat="45.6743483" lon="8.1559417"><ele>885.8</ele><time>2026-04-04T07:21:51.95Z</time></trkpt><trkpt lat="45.6744167" lon="8.15583"><ele>883.0</ele><time>2026-04-04T07:21:52.95Z</time></trkpt><trkpt lat="45.6744817" lon="8.1557183"><ele>886.8</ele><time>2026-04-04T07:21:53.95Z</time></trkpt><trkpt lat="45.67455" lon="8.1556067"><ele>890.5999999999999</ele><time>2026-04-04T07:21:54.95Z</time></trkpt><trkpt lat="45.6746117" lon="8.155495"><ele>894.4000000000001</ele><time>2026-04-04T07:21:55.95Z</time></trkpt><trkpt lat="45.6746717" lon="8.1553883"><ele>898.2</ele><time>2026-04-04T07:21:56.95Z</time></trkpt><trkpt lat="45.6747417" lon="8.1553033"><ele>902.0</ele><time>2026-04-04T07:21:57.95Z</time></trkpt><trkpt lat="45.67482" lon="8.155235"><ele>902.0000000000001</ele><time>2026-04-04T07:21:58.95Z</time></trkpt><trkpt lat="45.6749033" lon="8.1551683"><ele>902.0</ele><time>2026-04-04T07:21:59.95Z</time></trkpt><trkpt lat="45.67498" lon="8.155115"><ele>902.0</ele><time>2026-04-04T07:22:00.95Z</time></trkpt><trkpt lat="45.675055" lon="8.1551"><ele>902.0</ele><time>2026-04-04T07:22:01.95Z</time></trkpt><trkpt lat="45.6751183" lon="8.1550883"><ele>902.0000000000001</ele><time>2026-04-04T07:22:02.95Z</time></trkpt><trkpt lat="45.6751933" lon="8.15506"><ele>902.0</ele><time>2026-04-04T07:22:03.95Z</time></trkpt><trkpt lat="45.6752717" lon="8.15502"><ele>905.5000000000001</ele><time>2026-04-04T07:22:04.95Z</time></trkpt><trkpt lat="45.67536" lon="8.1549917"><ele>909.0</ele><time>2026-04-04T07:22:05.95Z</time></trkpt><trkpt lat="45.6754467" lon="8.1549683"><ele>912.5</ele><time>2026-04-04T07:22:06.95Z</time></trkpt><trkpt lat="45.67552" lon="8.154935"><ele>916.0</ele><time>2026-04-04T07:22:07.95Z</time></trkpt><trkpt lat="45.67558" lon="8.1548933"><ele>919.5000000000001</ele><time>2026-04-04T07:22:08.95Z</time></trkpt><trkpt lat="45.67564" lon="8.1548483"><ele>923.0</ele><time>2026-04-04T07:22:09.95Z</time></trkpt><trkpt lat="45.6756967" lon="8.1547583"><ele>923.0</ele><time>2026-04-04T07:22:11.95Z</time></trkpt><trkpt lat="45.675715" lon="8.1546333"><ele>923.0</ele><time>2026-04-04T07:22:39.95Z</time></trkpt><trkpt lat="45.67567" lon="8.1544583"><ele>923.0</ele><time>2026-04-04T07:22:41.95Z</time></trkpt><trkpt lat="45.6756433" lon="8.1543367"><ele>923.0</ele><time>2026-04-04T07:22:42.95Z</time></trkpt><trkpt lat="45.6756333" lon="8.15421"><ele>923.0</ele><time>2026-04-04T07:22:43.95Z</time></trkpt><trkpt lat="45.6756267" lon="8.1540767"><ele>924.8</ele><time>2026-04-04T07:22:44.95Z</time></trkpt><trkpt lat="45.6756333" lon="8.1539483"><ele>926.5999999999999</ele><time>2026-04-04T07:22:45.95Z</time></trkpt><trkpt lat="45.67564" lon="8.1538"><ele>928.4000000000001</ele><time>2026-04-04T07:22:46.95Z</time></trkpt><trkpt lat="45.6756417" lon="8.153655"><ele>930.2</ele><time>2026-04-04T07:22:47.95Z</time></trkpt><trkpt lat="45.6756333" lon="8.1534983"><ele>932.0</ele><time>2026-04-04T07:22:48.95Z</time></trkpt><trkpt lat="45.67561" lon="8.1533417"><ele>932.0000000000001</ele><time>2026-04-04T07:22:49.95Z</time></trkpt><trkpt lat="45.67557" lon="8.1532167"><ele>932.0</ele><time>2026-04-04T07:22:50.95Z</time></trkpt><trkpt lat="45.6755283" lon="8.153115"><ele>932.0</ele><time>2026-04-04T07:22:51.95Z</time></trkpt><trkpt lat="45.6755033" lon="8.1530217"><ele>932.0</ele><time>2026-04-04T07:22:52.95Z</time></trkpt><trkpt lat="45.675485" lon="8.1529067"><ele>932.0000000000001</ele><time>2026-04-04T07:22:53.95Z</time></trkpt><trkpt lat="45.6755117" lon="8.1528"><ele>932.0</ele><time>2026-04-04T07:22:55.95Z</time></trkpt><trkpt lat="45.6756233" lon="8.152865"><ele>932.0</ele><time>2026-04-04T07:22:57.95Z</time></trkpt><trkpt lat="45.675685" lon="8.1529917"><ele>932.0</ele><time>2026-04-04T07:22:58.95Z</time></trkpt><trkpt lat="45.6757333" lon="8.1531517"><ele>932.0</ele><time>2026-04-04T07:22:59.95Z</time></trkpt><trkpt lat="45.6757567" lon="8.1533433"><ele>932.0</ele><time>2026-04-04T07:23:00.95Z</time></trkpt><trkpt lat="45.6757783" lon="8.1535183"><ele>932.0</ele><time>2026-04-04T07:23:01.95Z</time></trkpt><trkpt lat="45.6757983" lon="8.1537083"><ele>932.0</ele><time>2026-04-04T07:23:02.95Z</time></trkpt><trkpt lat="45.6758183" lon="8.15389"><ele>932.0</ele><time>2026-04-04T07:23:03.95Z</time></trkpt><trkpt lat="45.6758533" lon="8.1540333"><ele>932.0</ele><time>2026-04-04T07:23:04.95Z</time></trkpt><trkpt lat="45.675895" lon="8.1541783"><ele>930.2</ele><time>2026-04-04T07:23:05.95Z</time></trkpt><trkpt lat="45.67598" lon="8.154285"><ele>928.4000000000001</ele><time>2026-04-04T07:23:06.95Z</time></trkpt><trkpt lat="45.6760517" lon="8.1543883"><ele>926.5999999999999</ele><time>2026-04-04T07:23:07.95Z</time></trkpt><trkpt lat="45.6761183" lon="8.154495"><ele>924.8</ele><time>2026-04-04T07:23:08.95Z</time></trkpt><trkpt lat="45.67618" lon="8.15462"><ele>923.0</ele><time>2026-04-04T07:23:09.95Z</time></trkpt><trkpt lat="45.6762483" lon="8.154775"><ele>929.5999999999999</ele><time>2026-04-04T07:23:10.95Z</time></trkpt><trkpt lat="45.6763167" lon="8.1549483"><ele>936.1999999999999</ele><time>2026-04-04T07:23:11.95Z</time></trkpt><trkpt lat="45.67638" lon="8.155085"><ele>942.8</ele><time>2026-04-04T07:23:12.95Z</time></trkpt><trkpt lat="45.6764233" lon="8.15522"><ele>949.4</ele><time>2026-04-04T07:23:13.95Z</time></trkpt><trkpt lat="45.6764433" lon="8.1553483"><ele>956.0</ele><time>2026-04-04T07:23:14.95Z</time></trkpt><trkpt lat="45.67644" lon="8.1554633"><ele>956.0</ele><time>2026-04-04T07:23:15.95Z</time></trkpt><trkpt lat="45.6764117" lon="8.1555733"><ele>955.9999999999999</ele><time>2026-04-04T07:23:16.95Z</time></trkpt><trkpt lat="45.6763633" lon="8.1556917"><ele>955.9999999999999</ele><time>2026-04-04T07:23:17.95Z</time></trkpt><trkpt lat="45.6762867" lon="8.1557967"><ele>956.0</ele><time>2026-04-04T07:23:18.95Z</time></trkpt><trkpt lat="45.676215" lon="8.1558983"><ele>956.0</ele><time>2026-04-04T07:23:19.95Z</time></trkpt><trkpt lat="45.676135" lon="8.15599"><ele>954.5999999999999</ele><time>2026-04-04T07:23:20.95Z</time></trkpt><trkpt lat="45.6760933" lon="8.1561017"><ele>953.1999999999999</ele><time>2026-04-04T07:23:21.95Z</time></trkpt><trkpt lat="45.67608" lon="8.1561917"><ele>951.8000000000001</ele><time>2026-04-04T07:23:22.95Z</time></trkpt><trkpt lat="45.676125" lon="8.156295"><ele>950.4000000000001</ele><time>2026-04-04T07:23:24.95Z</time></trkpt><trkpt lat="45.6762433" lon="8.1561867"><ele>949.0</ele><time>2026-04-04T07:23:26.95Z</time></trkpt><trkpt lat="45.6763283" lon="8.156075"><ele>949.0</ele><time>2026-04-04T07:23:27.95Z</time></trkpt><trkpt lat="45.6764333" lon="8.1559317"><ele>949.0</ele><time>2026-04-04T07:23:28.95Z</time></trkpt><trkpt lat="45.6765283" lon="8.1558083"><ele>949.0</ele><time>2026-04-04T07:23:29.95Z</time></trkpt><trkpt lat="45.67663" lon="8.15569"><ele>949.0</ele><time>2026-04-04T07:23:30.95Z</time></trkpt><trkpt lat="45.6766917" lon="8.1555517"><ele>950.4000000000001</ele><time>2026-04-04T07:23:31.95Z</time></trkpt><trkpt lat="45.6767317" lon="8.15542"><ele>951.8000000000001</ele><time>2026-04-04T07:23:32.95Z</time></trkpt><trkpt lat="45.6767433" lon="8.1553067"><ele>953.1999999999999</ele><time>2026-04-04T07:23:33.95Z</time></trkpt><trkpt lat="45.6767383" lon="8.155195"><ele>954.5999999999999</ele><time>2026-04-04T07:23:34.95Z</time></trkpt><trkpt lat="45.6767233" lon="8.1550617"><ele>956.0</ele><time>2026-04-04T07:23:35.95Z</time></trkpt><trkpt lat="45.6766883" lon="8.1549083"><ele>959.25</ele><time>2026-04-04T07:23:36.949Z</time></trkpt><trkpt lat="45.6766733" lon="8.154725"><ele>962.5</ele><time>2026-04-04T07:23:37.95Z</time></trkpt><trkpt lat="45.67664" lon="8.1545333"><ele>965.75</ele><time>2026-04-04T07:23:38.95Z</time></trkpt><trkpt lat="45.67662" lon="8.1543467"><ele>969.0</ele><time>2026-04-04T07:23:39.95Z</time></trkpt><trkpt lat="45.6765917" lon="8.15417"><ele>971.5</ele><time>2026-04-04T07:23:40.949Z</time></trkpt><trkpt lat="45.6765683" lon="8.1540067"><ele>974.0</ele><time>2026-04-04T07:23:41.95Z</time></trkpt><trkpt lat="45.67654" lon="8.153815"><ele>976.5</ele><time>2026-04-04T07:23:42.95Z</time></trkpt><trkpt lat="45.6765233" lon="8.153645"><ele>979.0</ele><time>2026-04-04T07:23:43.95Z</time></trkpt><trkpt lat="45.6765317" lon="8.1534767"><ele>979.0</ele><time>2026-04-04T07:23:44.95Z</time></trkpt><trkpt lat="45.6765567" lon="8.1533067"><ele>979.0</ele><time>2026-04-04T07:23:45.95Z</time></trkpt><trkpt lat="45.6766033" lon="8.1531283"><ele>979.0</ele><time>2026-04-04T07:23:46.95Z</time></trkpt><trkpt lat="45.6766633" lon="8.152935"><ele>979.0</ele><time>2026-04-04T07:23:47.95Z</time></trkpt><trkpt lat="45.67672" lon="8.1527533"><ele>978.0</ele><time>2026-04-04T07:23:48.95Z</time></trkpt><trkpt lat="45.6767767" lon="8.1525833"><ele>977.0</ele><time>2026-04-04T07:23:49.949Z</time></trkpt><trkpt lat="45.6768267" lon="8.1524267"><ele>976.0</ele><time>2026-04-04T07:23:50.949Z</time></trkpt><trkpt lat="45.6768517" lon="8.15228"><ele>975.0</ele><time>2026-04-04T07:23:51.95Z</time></trkpt><trkpt lat="45.6768633" lon="8.152145"><ele>978.4</ele><time>2026-04-04T07:23:52.95Z</time></trkpt><trkpt lat="45.6768567" lon="8.1520117"><ele>981.8</ele><time>2026-04-04T07:23:53.95Z</time></trkpt><trkpt lat="45.6768233" lon="8.1518883"><ele>985.2</ele><time>2026-04-04T07:23:54.95Z</time></trkpt><trkpt lat="45.6767467" lon="8.1517667"><ele>988.6</ele><time>2026-04-04T07:23:55.95Z</time></trkpt><trkpt lat="45.6766467" lon="8.15164"><ele>992.0</ele><time>2026-04-04T07:23:56.949Z</time></trkpt><trkpt lat="45.6765117" lon="8.1515133"><ele>1000.0</ele><time>2026-04-04T07:23:57.949Z</time></trkpt><trkpt lat="45.676435" lon="8.15135"><ele>1008.0</ele><time>2026-04-04T07:23:58.95Z</time></trkpt><trkpt lat="45.6763717" lon="8.1511983"><ele>1016.0</ele><time>2026-04-04T07:23:59.95Z</time></trkpt><trkpt lat="45.6763117" lon="8.1510433"><ele>1024.0</ele><time>2026-04-04T07:24:00.949Z</time></trkpt><trkpt lat="45.6762517" lon="8.150915"><ele>1024.0</ele><time>2026-04-04T07:24:01.95Z</time></trkpt><trkpt lat="45.676175" lon="8.1508083"><ele>1024.0</ele><time>2026-04-04T07:24:02.95Z</time></trkpt><trkpt lat="45.6760617" lon="8.1507383"><ele>1024.0</ele><time>2026-04-04T07:24:03.95Z</time></trkpt><trkpt lat="45.67595" lon="8.1507083"><ele>1024.0</ele><time>2026-04-04T07:24:04.95Z</time></trkpt><trkpt lat="45.6758217" lon="8.150725"><ele>1018.25</ele><time>2026-04-04T07:24:05.95Z</time></trkpt><trkpt lat="45.6756983" lon="8.1507733"><ele>1012.5</ele><time>2026-04-04T07:24:06.95Z</time></trkpt><trkpt lat="45.6755683" lon="8.1508367"><ele>1006.75</ele><time>2026-04-04T07:24:07.95Z</time></trkpt><trkpt lat="45.67543" lon="8.150865"><ele>1001.0</ele><time>2026-04-04T07:24:08.95Z</time></trkpt><trkpt lat="45.67531" lon="8.15084"><ele>1000.4</ele><time>2026-04-04T07:24:09.95Z</time></trkpt><trkpt lat="45.6751883" lon="8.150775"><ele>999.8</ele><time>2026-04-04T07:24:10.95Z</time></trkpt><trkpt lat="45.6750733" lon="8.1507217"><ele>999.1999999999999</ele><time>2026-04-04T07:24:11.95Z</time></trkpt><trkpt lat="45.6749717" lon="8.1506817"><ele>998.5999999999999</ele><time>2026-04-04T07:24:12.95Z</time></trkpt><trkpt lat="45.6748867" lon="8.1506433"><ele>998.0</ele><time>2026-04-04T07:24:13.95Z</time></trkpt><trkpt lat="45.674795" lon="8.1506233"><ele>998.0000000000001</ele><time>2026-04-04T07:24:14.95Z</time></trkpt><trkpt lat="45.674715" lon="8.1506417"><ele>998.0</ele><time>2026-04-04T07:24:15.95Z</time></trkpt><trkpt lat="45.674635" lon="8.1506817"><ele>998.0</ele><time>2026-04-04T07:24:16.949Z</time></trkpt><trkpt lat="45.6745533" lon="8.1507383"><ele>998.0</ele><time>2026-04-04T07:24:17.949Z</time></trkpt><trkpt lat="45.6744733" lon="8.1507683"><ele>998.0000000000001</ele><time>2026-04-04T07:24:18.949Z</time></trkpt><trkpt lat="45.6744083" lon="8.1507883"><ele>998.0</ele><time>2026-04-04T07:24:19.949Z</time></trkpt><trkpt lat="45.674335" lon="8.1507883"><ele>998.4</ele><time>2026-04-04T07:24:20.949Z</time></trkpt><trkpt lat="45.6742583" lon="8.1507683"><ele>998.8</ele><time>2026-04-04T07:24:21.949Z</time></trkpt><trkpt lat="45.67418" lon="8.1507217"><ele>999.2</ele><time>2026-04-04T07:24:22.949Z</time></trkpt><trkpt lat="45.6741" lon="8.150665"><ele>999.6</ele><time>2026-04-04T07:24:23.949Z</time></trkpt><trkpt lat="45.6740217" lon="8.1505933"><ele>1000.0</ele><time>2026-04-04T07:24:24.949Z</time></trkpt><trkpt lat="45.67394" lon="8.1504867"><ele>1005.5</ele><time>2026-04-04T07:24:25.949Z</time></trkpt><trkpt lat="45.6738517" lon="8.1503567"><ele>1011.0</ele><time>2026-04-04T07:24:26.949Z</time></trkpt><trkpt lat="45.6737633" lon="8.1502417"><ele>1016.5</ele><time>2026-04-04T07:24:27.949Z</time></trkpt><trkpt lat="45.67369" lon="8.15011"><ele>1022.0</ele><time>2026-04-04T07:24:28.949Z</time></trkpt><trkpt lat="45.67361" lon="8.1499783"><ele>1021.75</ele><time>2026-04-04T07:24:29.949Z</time></trkpt><trkpt lat="45.673535" lon="8.14985"><ele>1021.5</ele><time>2026-04-04T07:24:30.949Z</time></trkpt><trkpt lat="45.6734783" lon="8.1497067"><ele>1021.25</ele><time>2026-04-04T07:24:31.949Z</time></trkpt><trkpt lat="45.6734283" lon="8.149555"><ele>1021.0</ele><time>2026-04-04T07:24:32.949Z</time></trkpt><trkpt lat="45.67339" lon="8.1493917"><ele>1021.0</ele><time>2026-04-04T07:24:33.949Z</time></trkpt><trkpt lat="45.6733583" lon="8.1492217"><ele>1021.0</ele><time>2026-04-04T07:24:34.949Z</time></trkpt><trkpt lat="45.6733217" lon="8.1490433"><ele>1021.0</ele><time>2026-04-04T07:24:35.949Z</time></trkpt><trkpt lat="45.6732683" lon="8.1488717"><ele>1021.0</ele><time>2026-04-04T07:24:36.948Z</time></trkpt><trkpt lat="45.67319" lon="8.148725"><ele>1022.25</ele><time>2026-04-04T07:24:37.949Z</time></trkpt><trkpt lat="45.6731067" lon="8.1485767"><ele>1023.5</ele><time>2026-04-04T07:24:38.949Z</time></trkpt><trkpt lat="45.6730167" lon="8.148445"><ele>1024.75</ele><time>2026-04-04T07:24:39.948Z</time></trkpt><trkpt lat="45.6729317" lon="8.1483217"><ele>1026.0</ele><time>2026-04-04T07:24:40.949Z</time></trkpt><trkpt lat="45.6728683" lon="8.14819"><ele>1028.5</ele><time>2026-04-04T07:24:41.949Z</time></trkpt><trkpt lat="45.6728317" lon="8.1480483"><ele>1031.0</ele><time>2026-04-04T07:24:42.949Z</time></trkpt><trkpt lat="45.6728433" lon="8.147875"><ele>1033.5</ele><time>2026-04-04T07:24:43.949Z</time></trkpt><trkpt lat="45.6728633" lon="8.1476967"><ele>1036.0</ele><time>2026-04-04T07:24:44.949Z</time></trkpt><trkpt lat="45.6728883" lon="8.14754"><ele>1036.0</ele><time>2026-04-04T07:24:45.949Z</time></trkpt><trkpt lat="45.672905" lon="8.1474017"><ele>1036.0</ele><time>2026-04-04T07:24:46.949Z</time></trkpt><trkpt lat="45.6729067" lon="8.1472967"><ele>1036.0</ele><time>2026-04-04T07:24:47.949Z</time></trkpt><trkpt lat="45.6729067" lon="8.1471817"><ele>1036.0</ele><time>2026-04-04T07:24:49.949Z</time></trkpt><trkpt lat="45.6729667" lon="8.1470517"><ele>1036.0</ele><time>2026-04-04T07:25:20.949Z</time></trkpt><trkpt lat="45.67306" lon="8.14696"><ele>1036.0</ele><time>2026-04-04T07:25:22.949Z</time></trkpt><trkpt lat="45.67316" lon="8.1469633"><ele>1036.0</ele><time>2026-04-04T07:25:24.949Z</time></trkpt><trkpt lat="45.673205" lon="8.14708"><ele>1036.0</ele><time>2026-04-04T07:25:26.949Z</time></trkpt><trkpt lat="45.6732117" lon="8.1471933"><ele>1036.0</ele><time>2026-04-04T07:25:27.948Z</time></trkpt><trkpt lat="45.673215" lon="8.1473367"><ele>1036.0</ele><time>2026-04-04T07:25:28.949Z</time></trkpt><trkpt lat="45.6732017" lon="8.1475133"><ele>1036.0</ele><time>2026-04-04T07:25:29.949Z</time></trkpt><trkpt lat="45.6732067" lon="8.14769"><ele>1036.0</ele><time>2026-04-04T07:25:30.949Z</time></trkpt><trkpt lat="45.6732183" lon="8.1478633"><ele>1036.0</ele><time>2026-04-04T07:25:31.949Z</time></trkpt><trkpt lat="45.6732667" lon="8.1480167"><ele>1036.0</ele><time>2026-04-04T07:25:32.949Z</time></trkpt><trkpt lat="45.67335" lon="8.1481533"><ele>1033.5</ele><time>2026-04-04T07:25:33.949Z</time></trkpt><trkpt lat="45.6734283" lon="8.1482883"><ele>1031.0</ele><time>2026-04-04T07:25:34.949Z</time></trkpt><trkpt lat="45.67351" lon="8.1484367"><ele>1028.5</ele><time>2026-04-04T07:25:35.949Z</time></trkpt><trkpt lat="45.6735917" lon="8.1486033"><ele>1026.0</ele><time>2026-04-04T07:25:36.949Z</time></trkpt><trkpt lat="45.6736717" lon="8.1487717"><ele>1030.5</ele><time>2026-04-04T07:25:37.949Z</time></trkpt><trkpt lat="45.673745" lon="8.14895"><ele>1035.0</ele><time>2026-04-04T07:25:38.949Z</time></trkpt><trkpt lat="45.6738183" lon="8.14911"><ele>1039.5</ele><time>2026-04-04T07:25:39.949Z</time></trkpt><trkpt lat="45.673895" lon="8.14925"><ele>1044.0</ele><time>2026-04-04T07:25:40.949Z</time></trkpt><trkpt lat="45.67397" lon="8.149365"><ele>1044.0</ele><time>2026-04-04T07:25:41.949Z</time></trkpt><trkpt lat="45.6740617" lon="8.1494583"><ele>1044.0</ele><time>2026-04-04T07:25:42.949Z</time></trkpt><trkpt lat="45.6741567" lon="8.1495183"><ele>1044.0</ele><time>2026-04-04T07:25:43.949Z</time></trkpt><trkpt lat="45.6742583" lon="8.1495633"><ele>1044.0</ele><time>2026-04-04T07:25:44.949Z</time></trkpt><trkpt lat="45.67435" lon="8.1495633"><ele>1044.0</ele><time>2026-04-04T07:25:45.949Z</time></trkpt><trkpt lat="45.67445" lon="8.1495233"><ele>1046.25</ele><time>2026-04-04T07:25:46.949Z</time></trkpt><trkpt lat="45.6745467" lon="8.1494483"><ele>1048.5</ele><time>2026-04-04T07:25:47.949Z</time></trkpt><trkpt lat="45.6746567" lon="8.1493417"><ele>1050.75</ele><time>2026-04-04T07:25:48.949Z</time></trkpt><trkpt lat="45.6747717" lon="8.1492567"><ele>1053.0</ele><time>2026-04-04T07:25:49.949Z</time></trkpt><trkpt lat="45.674875" lon="8.1491967"><ele>1053.0</ele><time>2026-04-04T07:25:50.949Z</time></trkpt><trkpt lat="45.6749817" lon="8.1491967"><ele>1053.0</ele><time>2026-04-04T07:25:51.948Z</time></trkpt><trkpt lat="45.6750983" lon="8.1492217"><ele>1053.0</ele><time>2026-04-04T07:25:52.948Z</time></trkpt><trkpt lat="45.6752283" lon="8.1492083"><ele>1053.0</ele><time>2026-04-04T07:25:53.948Z</time></trkpt><trkpt lat="45.6753717" lon="8.1491617"><ele>1054.0</ele><time>2026-04-04T07:25:54.949Z</time></trkpt><trkpt lat="45.6755117" lon="8.149105"><ele>1055.0</ele><time>2026-04-04T07:25:55.949Z</time></trkpt><trkpt lat="45.6756583" lon="8.1490333"><ele>1056.0</ele><time>2026-04-04T07:25:56.949Z</time></trkpt><trkpt lat="45.6757983" lon="8.1489567"><ele>1065.5</ele><time>2026-04-04T07:25:57.949Z</time></trkpt><trkpt lat="45.67594" lon="8.1488717"><ele>1075.0</ele><time>2026-04-04T07:25:58.949Z</time></trkpt><trkpt lat="45.67607" lon="8.1487983"><ele>1084.5</ele><time>2026-04-04T07:25:59.949Z</time></trkpt><trkpt lat="45.67618" lon="8.1487367"><ele>1094.0</ele><time>2026-04-04T07:26:00.949Z</time></trkpt><trkpt lat="45.6762917" lon="8.1487183"><ele>1095.0</ele><time>2026-04-04T07:26:01.949Z</time></trkpt><trkpt lat="45.6764033" lon="8.148725"><ele>1096.0</ele><time>2026-04-04T07:26:02.949Z</time></trkpt><trkpt lat="45.6765217" lon="8.148715"><ele>1097.0</ele><time>2026-04-04T07:26:03.949Z</time></trkpt><trkpt lat="45.6766283" lon="8.1487583"><ele>1098.0</ele><time>2026-04-04T07:26:04.948Z</time></trkpt><trkpt lat="45.67675" lon="8.1488"><ele>1098.0</ele><time>2026-04-04T07:26:05.949Z</time></trkpt><trkpt lat="45.6768717" lon="8.1488683"><ele>1098.0</ele><time>2026-04-04T07:26:06.949Z</time></trkpt><trkpt lat="45.67698" lon="8.148985"><ele>1098.0</ele><time>2026-04-04T07:26:07.948Z</time></trkpt><trkpt lat="45.6770867" lon="8.14911"><ele>1098.0</ele><time>2026-04-04T07:26:08.949Z</time></trkpt><trkpt lat="45.6772017" lon="8.1492133"><ele>1094.5</ele><time>2026-04-04T07:26:09.949Z</time></trkpt><trkpt lat="45.6773183" lon="8.149285"><ele>1091.0</ele><time>2026-04-04T07:26:10.949Z</time></trkpt><trkpt lat="45.67743" lon="8.1493433"><ele>1087.5</ele><time>2026-04-04T07:26:11.949Z</time></trkpt><trkpt lat="45.6775667" lon="8.1493617"><ele>1084.0</ele><time>2026-04-04T07:26:12.949Z</time></trkpt><trkpt lat="45.6777" lon="8.149375"><ele>1085.0</ele><time>2026-04-04T07:26:13.949Z</time></trkpt><trkpt lat="45.6778333" lon="8.1493833"><ele>1086.0</ele><time>2026-04-04T07:26:14.949Z</time></trkpt><trkpt lat="45.6779667" lon="8.1494083"><ele>1087.0</ele><time>2026-04-04T07:26:15.949Z</time></trkpt><trkpt lat="45.6780883" lon="8.1494583"><ele>1088.0</ele><time>2026-04-04T07:26:16.949Z</time></trkpt><trkpt lat="45.6782167" lon="8.1494567"><ele>1088.0</ele><time>2026-04-04T07:26:17.949Z</time></trkpt><trkpt lat="45.678325" lon="8.1494467"><ele>1088.0</ele><time>2026-04-04T07:26:18.949Z</time></trkpt><trkpt lat="45.6784233" lon="8.1493867"><ele>1088.0</ele><time>2026-04-04T07:26:19.949Z</time></trkpt><trkpt lat="45.6785233" lon="8.1493"><ele>1088.0</ele><time>2026-04-04T07:26:20.949Z</time></trkpt><trkpt lat="45.6786183" lon="8.149185"><ele>1086.75</ele><time>2026-04-04T07:26:21.948Z</time></trkpt><trkpt lat="45.6786883" lon="8.1490533"><ele>1085.5</ele><time>2026-04-04T07:26:22.949Z</time></trkpt><trkpt lat="45.678745" lon="8.148895"><ele>1084.25</ele><time>2026-04-04T07:26:23.949Z</time></trkpt><trkpt lat="45.6787767" lon="8.1487283"><ele>1083.0</ele><time>2026-04-04T07:26:24.949Z</time></trkpt><trkpt lat="45.6788167" lon="8.1485567"><ele>1083.0</ele><time>2026-04-04T07:26:25.949Z</time></trkpt><trkpt lat="45.6788583" lon="8.14837"><ele>1083.0</ele><time>2026-04-04T07:26:26.948Z</time></trkpt><trkpt lat="45.6788983" lon="8.1481483"><ele>1083.0</ele><time>2026-04-04T07:26:27.948Z</time></trkpt><trkpt lat="45.67894" lon="8.1479133"><ele>1088.6666666666667</ele><time>2026-04-04T07:26:28.949Z</time></trkpt><trkpt lat="45.6790083" lon="8.14766"><ele>1094.3333333333335</ele><time>2026-04-04T07:26:29.949Z</time></trkpt><trkpt lat="45.6790933" lon="8.1473967"><ele>1100.0</ele><time>2026-04-04T07:26:30.949Z</time></trkpt><trkpt lat="45.67917" lon="8.1471617"><ele>1107.6666666666667</ele><time>2026-04-04T07:26:31.949Z</time></trkpt><trkpt lat="45.67926" lon="8.146935"><ele>1115.3333333333333</ele><time>2026-04-04T07:26:32.949Z</time></trkpt><trkpt lat="45.6793333" lon="8.146715"><ele>1123.0</ele><time>2026-04-04T07:26:33.949Z</time></trkpt><trkpt lat="45.679405" lon="8.1464867"><ele>1123.0</ele><time>2026-04-04T07:26:34.948Z</time></trkpt><trkpt lat="45.6794717" lon="8.1462633"><ele>1123.0</ele><time>2026-04-04T07:26:35.949Z</time></trkpt><trkpt lat="45.6795317" lon="8.14608"><ele>1123.0</ele><time>2026-04-04T07:26:36.949Z</time></trkpt><trkpt lat="45.6795817" lon="8.145905"><ele>1123.0</ele><time>2026-04-04T07:26:37.949Z</time></trkpt><trkpt lat="45.679645" lon="8.1457317"><ele>1127.6</ele><time>2026-04-04T07:26:38.949Z</time></trkpt><trkpt lat="45.679715" lon="8.1455717"><ele>1132.1999999999998</ele><time>2026-04-04T07:26:39.949Z</time></trkpt><trkpt lat="45.6797917" lon="8.1454533"><ele>1136.8</ele><time>2026-04-04T07:26:40.949Z</time></trkpt><trkpt lat="45.679855" lon="8.1453417"><ele>1141.3999999999999</ele><time>2026-04-04T07:26:41.949Z</time></trkpt><trkpt lat="45.6799367" lon="8.1452683"><ele>1146.0</ele><time>2026-04-04T07:26:42.949Z</time></trkpt><trkpt lat="45.6800167" lon="8.1452283"><ele>1146.0</ele><time>2026-04-04T07:26:43.949Z</time></trkpt><trkpt lat="45.6801" lon="8.14524"><ele>1146.0</ele><time>2026-04-04T07:26:44.949Z</time></trkpt><trkpt lat="45.68021" lon="8.145295"><ele>1146.0</ele><time>2026-04-04T07:26:45.949Z</time></trkpt><trkpt lat="45.680335" lon="8.14537"><ele>1146.0</ele><time>2026-04-04T07:26:46.949Z</time></trkpt><trkpt lat="45.6804783" lon="8.1454833"><ele>1147.5</ele><time>2026-04-04T07:26:47.949Z</time></trkpt><trkpt lat="45.680605" lon="8.145535"><ele>1149.0</ele><time>2026-04-04T07:26:48.949Z</time></trkpt><trkpt lat="45.680735" lon="8.1455783"><ele>1150.5</ele><time>2026-04-04T07:26:49.949Z</time></trkpt><trkpt lat="45.68085" lon="8.1455983"><ele>1152.0</ele><time>2026-04-04T07:26:50.949Z</time></trkpt><trkpt lat="45.6809683" lon="8.1455583"><ele>1152.0</ele><time>2026-04-04T07:26:51.949Z</time></trkpt><trkpt lat="45.6810417" lon="8.1455017"><ele>1152.0</ele><time>2026-04-04T07:26:52.949Z</time></trkpt><trkpt lat="45.681115" lon="8.1454117"><ele>1152.0</ele><time>2026-04-04T07:26:53.948Z</time></trkpt><trkpt lat="45.6811633" lon="8.1452883"><ele>1152.0</ele><time>2026-04-04T07:26:54.949Z</time></trkpt><trkpt lat="45.6812117" lon="8.14516"><ele>1152.0</ele><time>2026-04-04T07:26:55.949Z</time></trkpt><trkpt lat="45.6812733" lon="8.1450117"><ele>1153.75</ele><time>2026-04-04T07:26:56.949Z</time></trkpt><trkpt lat="45.6813317" lon="8.1448567"><ele>1155.5</ele><time>2026-04-04T07:26:57.949Z</time></trkpt><trkpt lat="45.6813867" lon="8.1447017"><ele>1157.25</ele><time>2026-04-04T07:26:58.949Z</time></trkpt><trkpt lat="45.6814517" lon="8.1445417"><ele>1159.0</ele><time>2026-04-04T07:26:59.949Z</time></trkpt><trkpt lat="45.68152" lon="8.1444067"><ele>1159.0</ele><time>2026-04-04T07:27:00.949Z</time></trkpt><trkpt lat="45.68158" lon="8.1442983"><ele>1159.0</ele><time>2026-04-04T07:27:01.949Z</time></trkpt><trkpt lat="45.6816583" lon="8.1442333"><ele>1159.0</ele><time>2026-04-04T07:27:02.949Z</time></trkpt><trkpt lat="45.6817533" lon="8.1441933"><ele>1159.0</ele><time>2026-04-04T07:27:03.949Z</time></trkpt><trkpt lat="45.6818867" lon="8.14417"><ele>1159.0</ele><time>2026-04-04T07:27:04.949Z</time></trkpt><trkpt lat="45.6820183" lon="8.14416"><ele>1160.0</ele><time>2026-04-04T07:27:05.949Z</time></trkpt><trkpt lat="45.6821583" lon="8.1441483"><ele>1161.0</ele><time>2026-04-04T07:27:06.949Z</time></trkpt><trkpt lat="45.6822917" lon="8.14414"><ele>1162.0</ele><time>2026-04-04T07:27:07.948Z</time></trkpt><trkpt lat="45.6824067" lon="8.1441633"><ele>1163.0</ele><time>2026-04-04T07:27:08.949Z</time></trkpt><trkpt lat="45.6825133" lon="8.1442083"><ele>1163.0</ele><time>2026-04-04T07:27:09.949Z</time></trkpt><trkpt lat="45.6826117" lon="8.1442717"><ele>1163.0</ele><time>2026-04-04T07:27:10.949Z</time></trkpt><trkpt lat="45.682725" lon="8.1443483"><ele>1163.0</ele><time>2026-04-04T07:27:11.949Z</time></trkpt><trkpt lat="45.68286" lon="8.1444117"><ele>1163.0</ele><time>2026-04-04T07:27:12.949Z</time></trkpt><trkpt lat="45.682985" lon="8.14447"><ele>1162.2</ele><time>2026-04-04T07:27:13.949Z</time></trkpt><trkpt lat="45.6830983" lon="8.14453"><ele>1161.4</ele><time>2026-04-04T07:27:14.949Z</time></trkpt><trkpt lat="45.6831983" lon="8.14461"><ele>1160.6000000000001</ele><time>2026-04-04T07:27:15.949Z</time></trkpt><trkpt lat="45.68326" lon="8.1446833"><ele>1159.8</ele><time>2026-04-04T07:27:16.949Z</time></trkpt><trkpt lat="45.68333" lon="8.1447983"><ele>1159.0</ele><time>2026-04-04T07:27:17.949Z</time></trkpt><trkpt lat="45.6834067" lon="8.1449317"><ele>1159.0</ele><time>2026-04-04T07:27:18.948Z</time></trkpt><trkpt lat="45.68352" lon="8.1450817"><ele>1159.0</ele><time>2026-04-04T07:27:19.949Z</time></trkpt><trkpt lat="45.6836317" lon="8.1452167"><ele>1159.0</ele><time>2026-04-04T07:27:20.949Z</time></trkpt><trkpt lat="45.683735" lon="8.1453333"><ele>1159.0</ele><time>2026-04-04T07:27:21.949Z</time></trkpt><trkpt lat="45.6838483" lon="8.14545"><ele>1163.5</ele><time>2026-04-04T07:27:22.949Z</time></trkpt><trkpt lat="45.6839667" lon="8.1455633"><ele>1168.0</ele><time>2026-04-04T07:27:23.949Z</time></trkpt><trkpt lat="45.6840667" lon="8.145685"><ele>1172.5</ele><time>2026-04-04T07:27:24.949Z</time></trkpt><trkpt lat="45.6841617" lon="8.1458383"><ele>1177.0</ele><time>2026-04-04T07:27:25.949Z</time></trkpt><trkpt lat="45.6842417" lon="8.1460033"><ele>1177.0</ele><time>2026-04-04T07:27:26.949Z</time></trkpt><trkpt lat="45.6843117" lon="8.1461667"><ele>1177.0</ele><time>2026-04-04T07:27:27.949Z</time></trkpt><trkpt lat="45.6843517" lon="8.1463567"><ele>1177.0</ele><time>2026-04-04T07:27:28.949Z</time></trkpt><trkpt lat="45.6843767" lon="8.1464917"><ele>1177.0</ele><time>2026-04-04T07:27:29.948Z</time></trkpt><trkpt lat="45.6843933" lon="8.1465933"><ele>1177.0</ele><time>2026-04-04T07:27:30.949Z</time></trkpt><trkpt lat="45.684455" lon="8.14667"><ele>1177.0</ele><time>2026-04-04T07:27:32.949Z</time></trkpt><trkpt lat="45.68452" lon="8.14655"><ele>1177.0</ele><time>2026-04-04T07:27:34.949Z</time></trkpt><trkpt lat="45.68452" lon="8.14645"><ele>1177.0</ele><time>2026-04-04T07:27:35.949Z</time></trkpt><trkpt lat="45.68451" lon="8.1463133"><ele>1177.0</ele><time>2026-04-04T07:27:36.949Z</time></trkpt><trkpt lat="45.684465" lon="8.1461583"><ele>1177.0</ele><time>2026-04-04T07:27:37.949Z</time></trkpt><trkpt lat="45.6844283" lon="8.14598"><ele>1177.0</ele><time>2026-04-04T07:27:38.949Z</time></trkpt><trkpt lat="45.6843767" lon="8.14582"><ele>1177.0</ele><time>2026-04-04T07:27:39.949Z</time></trkpt><trkpt lat="45.68433" lon="8.1456717"><ele>1177.0</ele><time>2026-04-04T07:27:40.949Z</time></trkpt><trkpt lat="45.684295" lon="8.1455267"><ele>1177.0</ele><time>2026-04-04T07:27:41.949Z</time></trkpt><trkpt lat="45.6842567" lon="8.145385"><ele>1181.0</ele><time>2026-04-04T07:27:42.949Z</time></trkpt><trkpt lat="45.6842117" lon="8.145255"><ele>1185.0</ele><time>2026-04-04T07:27:43.949Z</time></trkpt><trkpt lat="45.6841617" lon="8.1451333"><ele>1189.0</ele><time>2026-04-04T07:27:44.948Z</time></trkpt><trkpt lat="45.6840833" lon="8.1450217"><ele>1193.0</ele><time>2026-04-04T07:27:45.949Z</time></trkpt><trkpt lat="45.6840067" lon="8.1449"><ele>1197.0</ele><time>2026-04-04T07:27:46.948Z</time></trkpt><trkpt lat="45.68393" lon="8.1447867"><ele>1201.6</ele><time>2026-04-04T07:27:47.949Z</time></trkpt><trkpt lat="45.68386" lon="8.1446583"><ele>1206.2</ele><time>2026-04-04T07:27:48.949Z</time></trkpt><trkpt lat="45.683805" lon="8.1445267"><ele>1210.8</ele><time>2026-04-04T07:27:49.949Z</time></trkpt><trkpt lat="45.6837533" lon="8.1443983"><ele>1215.4</ele><time>2026-04-04T07:27:50.949Z</time></trkpt><trkpt lat="45.6836917" lon="8.1442667"><ele>1220.0</ele><time>2026-04-04T07:27:51.948Z</time></trkpt><trkpt lat="45.6836217" lon="8.1441467"><ele>1215.0</ele><time>2026-04-04T07:27:52.949Z</time></trkpt><trkpt lat="45.6835433" lon="8.144015"><ele>1210.0</ele><time>2026-04-04T07:27:53.949Z</time></trkpt><trkpt lat="45.6834433" lon="8.1438783"><ele>1205.0</ele><time>2026-04-04T07:27:54.949Z</time></trkpt><trkpt lat="45.68335" lon="8.14375"><ele>1200.0</ele><time>2026-04-04T07:27:55.949Z</time></trkpt><trkpt lat="45.6832517" lon="8.1436317"><ele>1200.0</ele><time>2026-04-04T07:27:56.949Z</time></trkpt><trkpt lat="45.6831367" lon="8.143505"><ele>1200.0</ele><time>2026-04-04T07:27:57.949Z</time></trkpt><trkpt lat="45.6830117" lon="8.14338"><ele>1200.0</ele><time>2026-04-04T07:27:58.948Z</time></trkpt><trkpt lat="45.6829033" lon="8.1432683"><ele>1200.0</ele><time>2026-04-04T07:27:59.949Z</time></trkpt><trkpt lat="45.6827883" lon="8.1431517"><ele>1200.75</ele><time>2026-04-04T07:28:00.949Z</time></trkpt><trkpt lat="45.6826683" lon="8.1430317"><ele>1201.5</ele><time>2026-04-04T07:28:01.948Z</time></trkpt><trkpt lat="45.682545" lon="8.142915"><ele>1202.25</ele><time>2026-04-04T07:28:02.949Z</time></trkpt><trkpt lat="45.68241" lon="8.1428133"><ele>1203.0</ele><time>2026-04-04T07:28:03.949Z</time></trkpt><trkpt lat="45.682275" lon="8.142745"><ele>1203.0</ele><time>2026-04-04T07:28:04.949Z</time></trkpt><trkpt lat="45.6821417" lon="8.1427083"><ele>1203.0</ele><time>2026-04-04T07:28:05.949Z</time></trkpt><trkpt lat="45.68199" lon="8.1426967"><ele>1203.0</ele><time>2026-04-04T07:28:06.949Z</time></trkpt><trkpt lat="45.6818467" lon="8.1427"><ele>1203.0</ele><time>2026-04-04T07:28:07.949Z</time></trkpt><trkpt lat="45.6816917" lon="8.14272"><ele>1204.25</ele><time>2026-04-04T07:28:08.949Z</time></trkpt><trkpt lat="45.6815433" lon="8.1427667"><ele>1205.5</ele><time>2026-04-04T07:28:09.949Z</time></trkpt><trkpt lat="45.6813983" lon="8.142805"><ele>1206.75</ele><time>2026-04-04T07:28:10.949Z</time></trkpt><trkpt lat="45.6812733" lon="8.1428633"><ele>1208.0</ele><time>2026-04-04T07:28:11.949Z</time></trkpt><trkpt lat="45.681155" lon="8.14294"><ele>1208.0</ele><time>2026-04-04T07:28:12.949Z</time></trkpt><trkpt lat="45.68105" lon="8.1430333"><ele>1208.0</ele><time>2026-04-04T07:28:13.949Z</time></trkpt><trkpt lat="45.6809367" lon="8.1431217"><ele>1208.0</ele><time>2026-04-04T07:28:14.949Z</time></trkpt><trkpt lat="45.6808167" lon="8.1432017"><ele>1208.0</ele><time>2026-04-04T07:28:15.949Z</time></trkpt><trkpt lat="45.6807083" lon="8.1432783"><ele>1208.0</ele><time>2026-04-04T07:28:16.949Z</time></trkpt><trkpt lat="45.6806017" lon="8.1433417"><ele>1208.0</ele><time>2026-04-04T07:28:17.949Z</time></trkpt><trkpt lat="45.6804917" lon="8.1433817"><ele>1208.0</ele><time>2026-04-04T07:28:18.949Z</time></trkpt><trkpt lat="45.680375" lon="8.143405"><ele>1208.0</ele><time>2026-04-04T07:28:19.949Z</time></trkpt><trkpt lat="45.680255" lon="8.14337"><ele>1211.25</ele><time>2026-04-04T07:28:20.949Z</time></trkpt><trkpt lat="45.680125" lon="8.1433283"><ele>1214.5</ele><time>2026-04-04T07:28:21.949Z</time></trkpt><trkpt lat="45.67999" lon="8.1433"><ele>1217.75</ele><time>2026-04-04T07:28:22.949Z</time></trkpt><trkpt lat="45.6798683" lon="8.1433"><ele>1221.0</ele><time>2026-04-04T07:28:23.948Z</time></trkpt><trkpt lat="45.6797483" lon="8.1433333"><ele>1221.0</ele><time>2026-04-04T07:28:24.948Z</time></trkpt><trkpt lat="45.6796133" lon="8.1434033"><ele>1221.0</ele><time>2026-04-04T07:28:25.949Z</time></trkpt><trkpt lat="45.6794883" lon="8.1434783"><ele>1221.0</ele><time>2026-04-04T07:28:26.949Z</time></trkpt><trkpt lat="45.679375" lon="8.14353"><ele>1221.0</ele><time>2026-04-04T07:28:27.949Z</time></trkpt><trkpt lat="45.6792617" lon="8.1435683"><ele>1224.75</ele><time>2026-04-04T07:28:28.949Z</time></trkpt><trkpt lat="45.6791517" lon="8.1435883"><ele>1228.5</ele><time>2026-04-04T07:28:29.949Z</time></trkpt><trkpt lat="45.67903" lon="8.1436"><ele>1232.25</ele><time>2026-04-04T07:28:30.949Z</time></trkpt><trkpt lat="45.678915" lon="8.1436217"><ele>1236.0</ele><time>2026-04-04T07:28:31.949Z</time></trkpt><trkpt lat="45.6788083" lon="8.143675"><ele>1236.0</ele><time>2026-04-04T07:28:32.949Z</time></trkpt><trkpt lat="45.6787117" lon="8.1437633"><ele>1236.0</ele><time>2026-04-04T07:28:33.949Z</time></trkpt><trkpt lat="45.6786317" lon="8.1438983"><ele>1236.0</ele><time>2026-04-04T07:28:34.949Z</time></trkpt><trkpt lat="45.6785667" lon="8.1440533"><ele>1236.0</ele><time>2026-04-04T07:28:35.949Z</time></trkpt><trkpt lat="45.6784783" lon="8.1442033"><ele>1236.6666666666667</ele><time>2026-04-04T07:28:36.949Z</time></trkpt><trkpt lat="45.6783833" lon="8.1443633"><ele>1237.3333333333335</ele><time>2026-04-04T07:28:37.949Z</time></trkpt><trkpt lat="45.6782783" lon="8.144525"><ele>1238.0</ele><time>2026-04-04T07:28:38.949Z</time></trkpt><trkpt lat="45.6781733" lon="8.1446833"><ele>1238.0</ele><time>2026-04-04T07:28:39.949Z</time></trkpt><trkpt lat="45.6780617" lon="8.1448283"><ele>1238.0</ele><time>2026-04-04T07:28:40.949Z</time></trkpt><trkpt lat="45.677965" lon="8.1449733"><ele>1238.0</ele><time>2026-04-04T07:28:41.949Z</time></trkpt><trkpt lat="45.6778633" lon="8.1451033"><ele>1238.0</ele><time>2026-04-04T07:28:42.949Z</time></trkpt><trkpt lat="45.6777783" lon="8.1451817"><ele>1240.2</ele><time>2026-04-04T07:28:43.949Z</time></trkpt><trkpt lat="45.67771" lon="8.1452367"><ele>1242.4</ele><time>2026-04-04T07:28:44.949Z</time></trkpt><trkpt lat="45.677615" lon="8.1452583"><ele>1244.6000000000001</ele><time>2026-04-04T07:28:45.949Z</time></trkpt><trkpt lat="45.6775117" lon="8.1452683"><ele>1246.8</ele><time>2026-04-04T07:28:46.949Z</time></trkpt><trkpt lat="45.6773867" lon="8.1452633"><ele>1249.0</ele><time>2026-04-04T07:28:47.949Z</time></trkpt><trkpt lat="45.6772417" lon="8.145245"><ele>1249.0</ele><time>2026-04-04T07:28:48.949Z</time></trkpt><trkpt lat="45.6771" lon="8.145225"><ele>1249.0</ele><time>2026-04-04T07:28:49.949Z</time></trkpt><trkpt lat="45.67696" lon="8.1451717"><ele>1249.0</ele><time>2026-04-04T07:28:50.949Z</time></trkpt><trkpt lat="45.6768517" lon="8.14511"><ele>1249.0</ele><time>2026-04-04T07:28:51.949Z</time></trkpt><trkpt lat="45.67674" lon="8.1450467"><ele>1248.2</ele><time>2026-04-04T07:28:52.949Z</time></trkpt><trkpt lat="45.6766633" lon="8.14496"><ele>1247.4</ele><time>2026-04-04T07:28:53.949Z</time></trkpt><trkpt lat="45.6765933" lon="8.1448733"><ele>1246.6</ele><time>2026-04-04T07:28:54.949Z</time></trkpt><trkpt lat="45.6765333" lon="8.1447917"><ele>1245.8</ele><time>2026-04-04T07:28:55.949Z</time></trkpt><trkpt lat="45.6764833" lon="8.14468"><ele>1245.0</ele><time>2026-04-04T07:28:56.948Z</time></trkpt><trkpt lat="45.676455" lon="8.1445233"><ele>1250.25</ele><time>2026-04-04T07:28:57.948Z</time></trkpt><trkpt lat="45.6764233" lon="8.144345"><ele>1255.5</ele><time>2026-04-04T07:28:58.949Z</time></trkpt><trkpt lat="45.6763867" lon="8.14417"><ele>1260.75</ele><time>2026-04-04T07:28:59.949Z</time></trkpt><trkpt lat="45.6763567" lon="8.14399"><ele>1266.0</ele><time>2026-04-04T07:29:00.949Z</time></trkpt><trkpt lat="45.6763283" lon="8.1438233"><ele>1271.25</ele><time>2026-04-04T07:29:01.949Z</time></trkpt><trkpt lat="45.676305" lon="8.143665"><ele>1276.5</ele><time>2026-04-04T07:29:02.949Z</time></trkpt><trkpt lat="45.67627" lon="8.1435033"><ele>1281.75</ele><time>2026-04-04T07:29:03.948Z</time></trkpt><trkpt lat="45.6762133" lon="8.1433567"><ele>1287.0</ele><time>2026-04-04T07:29:04.949Z</time></trkpt><trkpt lat="45.6761283" lon="8.143215"><ele>1283.6666666666667</ele><time>2026-04-04T07:29:05.949Z</time></trkpt><trkpt lat="45.6760133" lon="8.143095"><ele>1280.3333333333335</ele><time>2026-04-04T07:29:06.949Z</time></trkpt><trkpt lat="45.6758433" lon="8.1430117"><ele>1277.0</ele><time>2026-04-04T07:29:07.949Z</time></trkpt><trkpt lat="45.6756983" lon="8.1429267"><ele>1277.0</ele><time>2026-04-04T07:29:08.948Z</time></trkpt><trkpt lat="45.6755733" lon="8.1428"><ele>1277.0</ele><time>2026-04-04T07:29:09.949Z</time></trkpt><trkpt lat="45.6754767" lon="8.142655"><ele>1277.0</ele><time>2026-04-04T07:29:10.949Z</time></trkpt><trkpt lat="45.6753917" lon="8.1425067"><ele>1277.0</ele><time>2026-04-04T07:29:11.949Z</time></trkpt><trkpt lat="45.67531" lon="8.1423617"><ele>1272.0</ele><time>2026-04-04T07:29:12.949Z</time></trkpt><trkpt lat="45.6752317" lon="8.1422033"><ele>1267.0</ele><time>2026-04-04T07:29:13.949Z</time></trkpt><trkpt lat="45.6751667" lon="8.142025"><ele>1262.0</ele><time>2026-04-04T07:29:14.949Z</time></trkpt><trkpt lat="45.67511" lon="8.1418417"><ele>1257.0</ele><time>2026-04-04T07:29:15.948Z</time></trkpt><trkpt lat="45.6750517" lon="8.14165"><ele>1260.3333333333333</ele><time>2026-04-04T07:29:16.949Z</time></trkpt><trkpt lat="45.6750017" lon="8.141445"><ele>1263.6666666666665</ele><time>2026-04-04T07:29:17.948Z</time></trkpt><trkpt lat="45.674965" lon="8.14123"><ele>1267.0</ele><time>2026-04-04T07:29:18.949Z</time></trkpt><trkpt lat="45.6749417" lon="8.1410117"><ele>1267.0</ele><time>2026-04-04T07:29:19.949Z</time></trkpt><trkpt lat="45.6749283" lon="8.14082"><ele>1267.0</ele><time>2026-04-04T07:29:20.949Z</time></trkpt><trkpt lat="45.6749233" lon="8.1406367"><ele>1267.0</ele><time>2026-04-04T07:29:21.948Z</time></trkpt><trkpt lat="45.674915" lon="8.1404533"><ele>1267.0</ele><time>2026-04-04T07:29:22.949Z</time></trkpt><trkpt lat="45.674895" lon="8.14026"><ele>1269.25</ele><time>2026-04-04T07:29:23.949Z</time></trkpt><trkpt lat="45.6748783" lon="8.1400717"><ele>1271.5</ele><time>2026-04-04T07:29:24.948Z</time></trkpt><trkpt lat="45.6748617" lon="8.139855"><ele>1273.75</ele><time>2026-04-04T07:29:25.949Z</time></trkpt><trkpt lat="45.6748317" lon="8.139635"><ele>1276.0</ele><time>2026-04-04T07:29:26.949Z</time></trkpt><trkpt lat="45.6747867" lon="8.1394167"><ele>1279.3333333333333</ele><time>2026-04-04T07:29:27.948Z</time></trkpt><trkpt lat="45.6747267" lon="8.139225"><ele>1282.6666666666667</ele><time>2026-04-04T07:29:28.948Z</time></trkpt><trkpt lat="45.6746467" lon="8.1390383"><ele>1286.0</ele><time>2026-04-04T07:29:29.949Z</time></trkpt><trkpt lat="45.67455" lon="8.1388717"><ele>1281.75</ele><time>2026-04-04T07:29:30.949Z</time></trkpt><trkpt lat="45.6744667" lon="8.1387267"><ele>1277.5</ele><time>2026-04-04T07:29:31.949Z</time></trkpt><trkpt lat="45.6743967" lon="8.1385933"><ele>1273.25</ele><time>2026-04-04T07:29:32.949Z</time></trkpt><trkpt lat="45.6743433" lon="8.1384683"><ele>1269.0</ele><time>2026-04-04T07:29:33.949Z</time></trkpt><trkpt lat="45.6743033" lon="8.1383067"><ele>1274.5</ele><time>2026-04-04T07:29:34.949Z</time></trkpt><trkpt lat="45.6742783" lon="8.1381467"><ele>1280.0</ele><time>2026-04-04T07:29:35.949Z</time></trkpt><trkpt lat="45.6742317" lon="8.1379617"><ele>1285.5</ele><time>2026-04-04T07:29:36.949Z</time></trkpt><trkpt lat="45.6741733" lon="8.137775"><ele>1291.0</ele><time>2026-04-04T07:29:37.949Z</time></trkpt><trkpt lat="45.67411" lon="8.1375983"><ele>1291.0</ele><time>2026-04-04T07:29:38.949Z</time></trkpt><trkpt lat="45.6740367" lon="8.13742"><ele>1291.0</ele><time>2026-04-04T07:29:39.949Z</time></trkpt><trkpt lat="45.67391" lon="8.1372567"><ele>1291.0</ele><time>2026-04-04T07:29:40.949Z</time></trkpt><trkpt lat="45.6737917" lon="8.1370867"><ele>1287.3333333333333</ele><time>2026-04-04T07:29:41.949Z</time></trkpt><trkpt lat="45.673675" lon="8.1369333"><ele>1283.6666666666667</ele><time>2026-04-04T07:29:42.948Z</time></trkpt><trkpt lat="45.673555" lon="8.1367817"><ele>1280.0</ele><time>2026-04-04T07:29:43.948Z</time></trkpt><trkpt lat="45.673425" lon="8.13666"><ele>1286.0</ele><time>2026-04-04T07:29:44.949Z</time></trkpt><trkpt lat="45.673335" lon="8.1365383"><ele>1292.0</ele><time>2026-04-04T07:29:45.949Z</time></trkpt><trkpt lat="45.6732517" lon="8.136405"><ele>1298.0</ele><time>2026-04-04T07:29:46.949Z</time></trkpt><trkpt lat="45.6731733" lon="8.1362483"><ele>1304.0</ele><time>2026-04-04T07:29:47.949Z</time></trkpt><trkpt lat="45.67309" lon="8.1360967"><ele>1304.0</ele><time>2026-04-04T07:29:48.949Z</time></trkpt><trkpt lat="45.673015" lon="8.135935"><ele>1304.0</ele><time>2026-04-04T07:29:49.948Z</time></trkpt><trkpt lat="45.6729367" lon="8.1357583"><ele>1304.0</ele><time>2026-04-04T07:29:50.948Z</time></trkpt><trkpt lat="45.6728533" lon="8.135565"><ele>1304.0</ele><time>2026-04-04T07:29:51.948Z</time></trkpt><trkpt lat="45.67278" lon="8.1353633"><ele>1305.25</ele><time>2026-04-04T07:29:52.948Z</time></trkpt><trkpt lat="45.672705" lon="8.1351783"><ele>1306.5</ele><time>2026-04-04T07:29:53.948Z</time></trkpt><trkpt lat="45.67263" lon="8.1350067"><ele>1307.75</ele><time>2026-04-04T07:29:54.948Z</time></trkpt><trkpt lat="45.6725533" lon="8.1348533"><ele>1309.0</ele><time>2026-04-04T07:29:55.948Z</time></trkpt><trkpt lat="45.672465" lon="8.1346817"><ele>1309.0</ele><time>2026-04-04T07:29:56.947Z</time></trkpt><trkpt lat="45.6723683" lon="8.1345233"><ele>1309.0</ele><time>2026-04-04T07:29:57.948Z</time></trkpt><trkpt lat="45.6722633" lon="8.13436"><ele>1309.0</ele><time>2026-04-04T07:29:58.948Z</time></trkpt><trkpt lat="45.672155" lon="8.1342083"><ele>1309.0</ele><time>2026-04-04T07:29:59.948Z</time></trkpt><trkpt lat="45.6720383" lon="8.1340633"><ele>1309.0</ele><time>2026-04-04T07:30:00.948Z</time></trkpt><trkpt lat="45.6719183" lon="8.1339117"><ele>1309.0</ele><time>2026-04-04T07:30:01.948Z</time></trkpt><trkpt lat="45.671795" lon="8.1337667"><ele>1309.3333333333333</ele><time>2026-04-04T07:30:02.948Z</time></trkpt><trkpt lat="45.671675" lon="8.13362"><ele>1309.6666666666667</ele><time>2026-04-04T07:30:03.948Z</time></trkpt><trkpt lat="45.671565" lon="8.133475"><ele>1310.0</ele><time>2026-04-04T07:30:04.948Z</time></trkpt><trkpt lat="45.6714467" lon="8.133325"><ele>1311.5</ele><time>2026-04-04T07:30:05.948Z</time></trkpt><trkpt lat="45.67134" lon="8.1331733"><ele>1313.0</ele><time>2026-04-04T07:30:06.948Z</time></trkpt><trkpt lat="45.6712267" lon="8.1330333"><ele>1314.5</ele><time>2026-04-04T07:30:07.948Z</time></trkpt><trkpt lat="45.6711217" lon="8.1328967"><ele>1316.0</ele><time>2026-04-04T07:30:08.948Z</time></trkpt><trkpt lat="45.671015" lon="8.1327833"><ele>1316.0</ele><time>2026-04-04T07:30:09.948Z</time></trkpt><trkpt lat="45.67091" lon="8.13268"><ele>1316.0</ele><time>2026-04-04T07:30:10.948Z</time></trkpt><trkpt lat="45.6707833" lon="8.1325983"><ele>1316.0</ele><time>2026-04-04T07:30:11.948Z</time></trkpt><trkpt lat="45.6706567" lon="8.1325283"><ele>1316.0</ele><time>2026-04-04T07:30:12.948Z</time></trkpt><trkpt lat="45.6705267" lon="8.1324667"><ele>1316.0</ele><time>2026-04-04T07:30:13.948Z</time></trkpt><trkpt lat="45.670405" lon="8.1324317"><ele>1316.0</ele><time>2026-04-04T07:30:14.948Z</time></trkpt><trkpt lat="45.6702783" lon="8.1324133"><ele>1316.0</ele><time>2026-04-04T07:30:15.948Z</time></trkpt><trkpt lat="45.670165" lon="8.1324183"><ele>1316.0</ele><time>2026-04-04T07:30:16.948Z</time></trkpt><trkpt lat="45.6700567" lon="8.13245"><ele>1312.25</ele><time>2026-04-04T07:30:17.948Z</time></trkpt><trkpt lat="45.6699483" lon="8.1325283"><ele>1308.5</ele><time>2026-04-04T07:30:18.948Z</time></trkpt><trkpt lat="45.6698533" lon="8.1326333"><ele>1304.75</ele><time>2026-04-04T07:30:19.948Z</time></trkpt><trkpt lat="45.6697667" lon="8.13276"><ele>1301.0</ele><time>2026-04-04T07:30:20.948Z</time></trkpt><trkpt lat="45.669685" lon="8.1328983"><ele>1301.0</ele><time>2026-04-04T07:30:21.948Z</time></trkpt><trkpt lat="45.6696167" lon="8.1330233"><ele>1301.0</ele><time>2026-04-04T07:30:22.948Z</time></trkpt><trkpt lat="45.6695517" lon="8.1331417"><ele>1301.0</ele><time>2026-04-04T07:30:23.948Z</time></trkpt><trkpt lat="45.6694967" lon="8.1332617"><ele>1301.0</ele><time>2026-04-04T07:30:24.948Z</time></trkpt><trkpt lat="45.6694467" lon="8.1333717"><ele>1301.0</ele><time>2026-04-04T07:30:25.948Z</time></trkpt><trkpt lat="45.6693983" lon="8.1334683"><ele>1303.5</ele><time>2026-04-04T07:30:26.948Z</time></trkpt><trkpt lat="45.6693483" lon="8.1335433"><ele>1306.0</ele><time>2026-04-04T07:30:27.948Z</time></trkpt><trkpt lat="45.669285" lon="8.1336217"><ele>1308.5</ele><time>2026-04-04T07:30:28.948Z</time></trkpt><trkpt lat="45.6692067" lon="8.1337067"><ele>1311.0</ele><time>2026-04-04T07:30:29.948Z</time></trkpt><trkpt lat="45.669125" lon="8.1337817"><ele>1313.5</ele><time>2026-04-04T07:30:30.948Z</time></trkpt><trkpt lat="45.6690417" lon="8.1338317"><ele>1316.0</ele><time>2026-04-04T07:30:31.948Z</time></trkpt><trkpt lat="45.66897" lon="8.1338633"><ele>1316.0</ele><time>2026-04-04T07:30:32.948Z</time></trkpt><trkpt lat="45.668885" lon="8.1338433"><ele>1316.0</ele><time>2026-04-04T07:30:33.948Z</time></trkpt><trkpt lat="45.6687983" lon="8.133815"><ele>1316.0</ele><time>2026-04-04T07:30:34.948Z</time></trkpt><trkpt lat="45.668695" lon="8.1337683"><ele>1316.0</ele><time>2026-04-04T07:30:35.948Z</time></trkpt><trkpt lat="45.6686117" lon="8.1337367"><ele>1316.0</ele><time>2026-04-04T07:30:36.948Z</time></trkpt><trkpt lat="45.668545" lon="8.1337233"><ele>1316.0</ele><time>2026-04-04T07:30:37.948Z</time></trkpt><trkpt lat="45.6684433" lon="8.1337217"><ele>1315.8</ele><time>2026-04-04T07:30:39.947Z</time></trkpt><trkpt lat="45.6683617" lon="8.1336717"><ele>1315.6</ele><time>2026-04-04T07:30:41.948Z</time></trkpt><trkpt lat="45.6683033" lon="8.1335367"><ele>1315.4</ele><time>2026-04-04T07:30:43.948Z</time></trkpt><trkpt lat="45.6682567" lon="8.1333817"><ele>1315.2</ele><time>2026-04-04T07:30:45.948Z</time></trkpt><trkpt lat="45.6682333" lon="8.1332667"><ele>1315.0</ele><time>2026-04-04T07:30:46.948Z</time></trkpt><trkpt lat="45.6682017" lon="8.1331567"><ele>1319.8</ele><time>2026-04-04T07:30:47.948Z</time></trkpt><trkpt lat="45.6681783" lon="8.1330417"><ele>1324.6</ele><time>2026-04-04T07:30:48.948Z</time></trkpt><trkpt lat="45.6681533" lon="8.1329067"><ele>1329.4</ele><time>2026-04-04T07:30:49.947Z</time></trkpt><trkpt lat="45.66812" lon="8.1327667"><ele>1334.2</ele><time>2026-04-04T07:30:50.948Z</time></trkpt><trkpt lat="45.66808" lon="8.1326333"><ele>1339.0</ele><time>2026-04-04T07:30:51.948Z</time></trkpt><trkpt lat="45.6680317" lon="8.1325067"><ele>1336.6</ele><time>2026-04-04T07:30:52.948Z</time></trkpt><trkpt lat="45.6679833" lon="8.1323867"><ele>1334.2</ele><time>2026-04-04T07:30:53.947Z</time></trkpt><trkpt lat="45.667935" lon="8.1322717"><ele>1331.8</ele><time>2026-04-04T07:30:54.948Z</time></trkpt><trkpt lat="45.6678817" lon="8.1321667"><ele>1329.3999999999999</ele><time>2026-04-04T07:30:55.948Z</time></trkpt><trkpt lat="45.6678233" lon="8.13206"><ele>1327.0</ele><time>2026-04-04T07:30:56.948Z</time></trkpt><trkpt lat="45.6677683" lon="8.1319583"><ele>1327.0</ele><time>2026-04-04T07:30:57.948Z</time></trkpt><trkpt lat="45.6677083" lon="8.1318617"><ele>1327.0</ele><time>2026-04-04T07:30:58.948Z</time></trkpt><trkpt lat="45.6676517" lon="8.1317717"><ele>1327.0</ele><time>2026-04-04T07:30:59.948Z</time></trkpt><trkpt lat="45.6675933" lon="8.131675"><ele>1327.0</ele><time>2026-04-04T07:31:00.948Z</time></trkpt><trkpt lat="45.66754" lon="8.1315767"><ele>1327.0</ele><time>2026-04-04T07:31:01.948Z</time></trkpt><trkpt lat="45.66749" lon="8.131475"><ele>1327.0</ele><time>2026-04-04T07:31:02.948Z</time></trkpt><trkpt lat="45.6674467" lon="8.1313733"><ele>1330.6</ele><time>2026-04-04T07:31:03.948Z</time></trkpt><trkpt lat="45.66741" lon="8.13126"><ele>1334.1999999999998</ele><time>2026-04-04T07:31:04.948Z</time></trkpt><trkpt lat="45.6673767" lon="8.131145"><ele>1337.8</ele><time>2026-04-04T07:31:05.948Z</time></trkpt><trkpt lat="45.66735" lon="8.1310217"><ele>1341.4</ele><time>2026-04-04T07:31:06.948Z</time></trkpt><trkpt lat="45.6673167" lon="8.1308967"><ele>1345.0</ele><time>2026-04-04T07:31:07.948Z</time></trkpt><trkpt lat="45.6672867" lon="8.1307617"><ele>1345.1666666666665</ele><time>2026-04-04T07:31:08.948Z</time></trkpt><trkpt lat="45.6672617" lon="8.1306383"><ele>1345.3333333333333</ele><time>2026-04-04T07:31:09.948Z</time></trkpt><trkpt lat="45.6672533" lon="8.130515"><ele>1345.5</ele><time>2026-04-04T07:31:10.948Z</time></trkpt><trkpt lat="45.6672467" lon="8.13039"><ele>1345.6666666666667</ele><time>2026-04-04T07:31:11.948Z</time></trkpt><trkpt lat="45.6672467" lon="8.13027"><ele>1345.8333333333335</ele><time>2026-04-04T07:31:12.948Z</time></trkpt><trkpt lat="45.6672567" lon="8.1301533"><ele>1346.0</ele><time>2026-04-04T07:31:13.948Z</time></trkpt><trkpt lat="45.6672617" lon="8.1300417"><ele>1346.0</ele><time>2026-04-04T07:31:14.948Z</time></trkpt><trkpt lat="45.66727" lon="8.1299133"><ele>1346.0</ele><time>2026-04-04T07:31:15.948Z</time></trkpt><trkpt lat="45.6672817" lon="8.12977"><ele>1346.0</ele><time>2026-04-04T07:31:16.948Z</time></trkpt><trkpt lat="45.6672767" lon="8.1296267"><ele>1346.0</ele><time>2026-04-04T07:31:17.947Z</time></trkpt><trkpt lat="45.66728" lon="8.1294717"><ele>1346.0</ele><time>2026-04-04T07:31:18.948Z</time></trkpt><trkpt lat="45.6672933" lon="8.1293"><ele>1345.25</ele><time>2026-04-04T07:31:19.948Z</time></trkpt><trkpt lat="45.6673067" lon="8.129135"><ele>1344.5</ele><time>2026-04-04T07:31:20.948Z</time></trkpt><trkpt lat="45.6673233" lon="8.1289717"><ele>1343.75</ele><time>2026-04-04T07:31:21.948Z</time></trkpt><trkpt lat="45.6673433" lon="8.12879"><ele>1343.0</ele><time>2026-04-04T07:31:22.948Z</time></trkpt><trkpt lat="45.6673667" lon="8.1286067"><ele>1341.6000000000001</ele><time>2026-04-04T07:31:23.947Z</time></trkpt><trkpt lat="45.6673817" lon="8.1284333"><ele>1340.2</ele><time>2026-04-04T07:31:24.948Z</time></trkpt><trkpt lat="45.6674" lon="8.1282783"><ele>1338.8</ele><time>2026-04-04T07:31:25.948Z</time></trkpt><trkpt lat="45.6674183" lon="8.1281433"><ele>1337.4</ele><time>2026-04-04T07:31:26.948Z</time></trkpt><trkpt lat="45.66743" lon="8.1280267"><ele>1336.0</ele><time>2026-04-04T07:31:27.947Z</time></trkpt><trkpt lat="45.66743" lon="8.1279133"><ele>1336.0</ele><time>2026-04-04T07:31:28.948Z</time></trkpt><trkpt lat="45.6674483" lon="8.1277567"><ele>1336.0</ele><time>2026-04-04T07:31:30.948Z</time></trkpt><trkpt lat="45.6674567" lon="8.1276383"><ele>1336.0</ele><time>2026-04-04T07:31:32.947Z</time></trkpt><trkpt lat="45.66747" lon="8.1275483"><ele>1336.0</ele><time>2026-04-04T07:31:34.948Z</time></trkpt><trkpt lat="45.6674983" lon="8.1274633"><ele>1336.0</ele><time>2026-04-04T07:31:36.948Z</time></trkpt><trkpt lat="45.6675517" lon="8.1273717"><ele>1336.0</ele><time>2026-04-04T07:31:39.948Z</time></trkpt><trkpt lat="45.6676167" lon="8.127345"><ele>1336.0</ele><time>2026-04-04T07:31:42.948Z</time></trkpt><trkpt lat="45.667685" lon="8.1273117"><ele>1336.0</ele><time>2026-04-04T07:31:47.948Z</time></trkpt><trkpt lat="45.667635" lon="8.127255"><ele>1336.0</ele><time>2026-04-04T07:33:53.948Z</time></trkpt><trkpt lat="45.667545" lon="8.1273133"><ele>1336.0</ele><time>2026-04-04T07:33:56.948Z</time></trkpt><trkpt lat="45.66745" lon="8.1273583"><ele>1336.0</ele><time>2026-04-04T07:33:59.948Z</time></trkpt><trkpt lat="45.6673633" lon="8.1273567"><ele>1336.0</ele><time>2026-04-04T07:34:01.948Z</time></trkpt><trkpt lat="45.6672717" lon="8.1273133"><ele>1336.0</ele><time>2026-04-04T07:34:03.948Z</time></trkpt><trkpt lat="45.66717" lon="8.127235"><ele>1336.0</ele><time>2026-04-04T07:34:05.948Z</time></trkpt><trkpt lat="45.667105" lon="8.1271933"><ele>1336.0</ele><time>2026-04-04T07:34:06.948Z</time></trkpt><trkpt lat="45.667025" lon="8.1271433"><ele>1336.0</ele><time>2026-04-04T07:34:07.948Z</time></trkpt><trkpt lat="45.666915" lon="8.1270767"><ele>1336.0</ele><time>2026-04-04T07:34:08.948Z</time></trkpt><trkpt lat="45.6667917" lon="8.1270017"><ele>1338.0</ele><time>2026-04-04T07:34:09.948Z</time></trkpt><trkpt lat="45.6666483" lon="8.1268967"><ele>1340.0</ele><time>2026-04-04T07:34:10.948Z</time></trkpt><trkpt lat="45.6665167" lon="8.126815"><ele>1342.0</ele><time>2026-04-04T07:34:11.948Z</time></trkpt><trkpt lat="45.6663933" lon="8.1267533"><ele>1344.0</ele><time>2026-04-04T07:34:12.948Z</time></trkpt><trkpt lat="45.666275" lon="8.1266917"><ele>1344.0</ele><time>2026-04-04T07:34:13.948Z</time></trkpt><trkpt lat="45.6661817" lon="8.126625"><ele>1344.0</ele><time>2026-04-04T07:34:14.948Z</time></trkpt><trkpt lat="45.6661017" lon="8.1265417"><ele>1344.0</ele><time>2026-04-04T07:34:15.948Z</time></trkpt><trkpt lat="45.6660267" lon="8.1264383"><ele>1344.0</ele><time>2026-04-04T07:34:16.948Z</time></trkpt><trkpt lat="45.6659517" lon="8.1263233"><ele>1344.0</ele><time>2026-04-04T07:34:17.948Z</time></trkpt><trkpt lat="45.6658733" lon="8.1261983"><ele>1344.5</ele><time>2026-04-04T07:34:18.948Z</time></trkpt><trkpt lat="45.6657817" lon="8.1260567"><ele>1345.0</ele><time>2026-04-04T07:34:19.948Z</time></trkpt><trkpt lat="45.6656733" lon="8.12592"><ele>1345.5</ele><time>2026-04-04T07:34:20.948Z</time></trkpt><trkpt lat="45.6655683" lon="8.125765"><ele>1346.0</ele><time>2026-04-04T07:34:21.948Z</time></trkpt><trkpt lat="45.6654567" lon="8.1256117"><ele>1347.0</ele><time>2026-04-04T07:34:22.948Z</time></trkpt><trkpt lat="45.66535" lon="8.1254783"><ele>1348.0</ele><time>2026-04-04T07:34:23.948Z</time></trkpt><trkpt lat="45.6652517" lon="8.1253633"><ele>1349.0</ele><time>2026-04-04T07:34:24.948Z</time></trkpt><trkpt lat="45.6651483" lon="8.1252883"><ele>1350.0</ele><time>2026-04-04T07:34:25.948Z</time></trkpt><trkpt lat="45.665045" lon="8.1252233"><ele>1350.0</ele><time>2026-04-04T07:34:26.948Z</time></trkpt><trkpt lat="45.6649333" lon="8.1251833"><ele>1350.0</ele><time>2026-04-04T07:34:27.948Z</time></trkpt><trkpt lat="45.6648233" lon="8.1251333"><ele>1350.0</ele><time>2026-04-04T07:34:28.948Z</time></trkpt><trkpt lat="45.6647233" lon="8.1250667"><ele>1350.0</ele><time>2026-04-04T07:34:29.948Z</time></trkpt><trkpt lat="45.66462" lon="8.1249933"><ele>1350.0</ele><time>2026-04-04T07:34:30.947Z</time></trkpt><trkpt lat="45.66452" lon="8.12493"><ele>1350.0</ele><time>2026-04-04T07:34:31.948Z</time></trkpt><trkpt lat="45.6644333" lon="8.124865"><ele>1350.0</ele><time>2026-04-04T07:34:32.948Z</time></trkpt><trkpt lat="45.6643467" lon="8.1247717"><ele>1350.0</ele><time>2026-04-04T07:34:33.948Z</time></trkpt><trkpt lat="45.6642633" lon="8.12467"><ele>1350.0</ele><time>2026-04-04T07:34:34.948Z</time></trkpt><trkpt lat="45.66416" lon="8.1245883"><ele>1353.0</ele><time>2026-04-04T07:34:35.948Z</time></trkpt><trkpt lat="45.6640517" lon="8.124535"><ele>1356.0</ele><time>2026-04-04T07:34:36.947Z</time></trkpt><trkpt lat="45.6639367" lon="8.12449"><ele>1359.0</ele><time>2026-04-04T07:34:37.948Z</time></trkpt><trkpt lat="45.663805" lon="8.1244783"><ele>1362.0</ele><time>2026-04-04T07:34:38.947Z</time></trkpt><trkpt lat="45.6636767" lon="8.12447"><ele>1355.5</ele><time>2026-04-04T07:34:39.948Z</time></trkpt><trkpt lat="45.6635483" lon="8.1244967"><ele>1349.0</ele><time>2026-04-04T07:34:40.947Z</time></trkpt><trkpt lat="45.6634283" lon="8.1245517"><ele>1342.5</ele><time>2026-04-04T07:34:41.948Z</time></trkpt><trkpt lat="45.66332" lon="8.12461"><ele>1336.0</ele><time>2026-04-04T07:34:42.948Z</time></trkpt><trkpt lat="45.6632133" lon="8.12463"><ele>1336.0</ele><time>2026-04-04T07:34:43.948Z</time></trkpt><trkpt lat="45.6630967" lon="8.1246217"><ele>1336.0</ele><time>2026-04-04T07:34:44.948Z</time></trkpt><trkpt lat="45.662975" lon="8.1245817"><ele>1336.0</ele><time>2026-04-04T07:34:45.948Z</time></trkpt><trkpt lat="45.66285" lon="8.1245433"><ele>1336.0</ele><time>2026-04-04T07:34:46.948Z</time></trkpt><trkpt lat="45.6627317" lon="8.124495"><ele>1330.25</ele><time>2026-04-04T07:34:47.948Z</time></trkpt><trkpt lat="45.6626233" lon="8.1244283"><ele>1324.5</ele><time>2026-04-04T07:34:48.948Z</time></trkpt><trkpt lat="45.662525" lon="8.1243417"><ele>1318.75</ele><time>2026-04-04T07:34:49.947Z</time></trkpt><trkpt lat="45.6624483" lon="8.1242167"><ele>1313.0</ele><time>2026-04-04T07:34:50.947Z</time></trkpt><trkpt lat="45.662385" lon="8.1240833"><ele>1315.75</ele><time>2026-04-04T07:34:51.947Z</time></trkpt><trkpt lat="45.6623333" lon="8.1239267"><ele>1318.5</ele><time>2026-04-04T07:34:52.947Z</time></trkpt><trkpt lat="45.6622933" lon="8.123765"><ele>1321.25</ele><time>2026-04-04T07:34:53.947Z</time></trkpt><trkpt lat="45.66228" lon="8.123585"><ele>1324.0</ele><time>2026-04-04T07:34:54.947Z</time></trkpt><trkpt lat="45.6622667" lon="8.1234017"><ele>1321.6</ele><time>2026-04-04T07:34:55.947Z</time></trkpt><trkpt lat="45.6622617" lon="8.1232233"><ele>1319.2</ele><time>2026-04-04T07:34:56.947Z</time></trkpt><trkpt lat="45.6622567" lon="8.12306"><ele>1316.8</ele><time>2026-04-04T07:34:57.947Z</time></trkpt><trkpt lat="45.6622633" lon="8.1229283"><ele>1314.3999999999999</ele><time>2026-04-04T07:34:58.947Z</time></trkpt><trkpt lat="45.66229" lon="8.1228017"><ele>1312.0</ele><time>2026-04-04T07:34:59.947Z</time></trkpt><trkpt lat="45.6623467" lon="8.122675"><ele>1312.0</ele><time>2026-04-04T07:35:00.947Z</time></trkpt><trkpt lat="45.6624183" lon="8.1225583"><ele>1312.0</ele><time>2026-04-04T07:35:01.947Z</time></trkpt><trkpt lat="45.6626217" lon="8.1223283"><ele>1312.0</ele><time>2026-04-04T07:35:03.946Z</time></trkpt><trkpt lat="45.6627567" lon="8.122205"><ele>1307.6666666666665</ele><time>2026-04-04T07:35:04.946Z</time></trkpt><trkpt lat="45.6629017" lon="8.1220733"><ele>1303.3333333333333</ele><time>2026-04-04T07:35:05.947Z</time></trkpt><trkpt lat="45.6630367" lon="8.1219667"><ele>1299.0</ele><time>2026-04-04T07:35:06.946Z</time></trkpt><trkpt lat="45.6631633" lon="8.12189"><ele>1299.0</ele><time>2026-04-04T07:35:07.947Z</time></trkpt><trkpt lat="45.6632867" lon="8.1218367"><ele>1299.0</ele><time>2026-04-04T07:35:08.947Z</time></trkpt><trkpt lat="45.6634167" lon="8.1217983"><ele>1299.0</ele><time>2026-04-04T07:35:09.947Z</time></trkpt><trkpt lat="45.663585" lon="8.1217917"><ele>1299.0</ele><time>2026-04-04T07:35:10.947Z</time></trkpt><trkpt lat="45.6637667" lon="8.121795"><ele>1302.3333333333333</ele><time>2026-04-04T07:35:11.947Z</time></trkpt><trkpt lat="45.6639483" lon="8.1217833"><ele>1305.6666666666665</ele><time>2026-04-04T07:35:12.946Z</time></trkpt><trkpt lat="45.6641117" lon="8.1217533"><ele>1309.0</ele><time>2026-04-04T07:35:13.947Z</time></trkpt><trkpt lat="45.66426" lon="8.1216917"><ele>1309.0</ele><time>2026-04-04T07:35:14.946Z</time></trkpt><trkpt lat="45.664395" lon="8.1216033"><ele>1309.0</ele><time>2026-04-04T07:35:15.947Z</time></trkpt><trkpt lat="45.66451" lon="8.1214883"><ele>1309.0</ele><time>2026-04-04T07:35:16.947Z</time></trkpt><trkpt lat="45.6646183" lon="8.1213317"><ele>1309.0</ele><time>2026-04-04T07:35:17.947Z</time></trkpt><trkpt lat="45.6646983" lon="8.1211667"><ele>1309.5</ele><time>2026-04-04T07:35:18.947Z</time></trkpt><trkpt lat="45.6647467" lon="8.1210067"><ele>1310.0</ele><time>2026-04-04T07:35:19.947Z</time></trkpt><trkpt lat="45.6648033" lon="8.1208667"><ele>1310.5</ele><time>2026-04-04T07:35:20.947Z</time></trkpt><trkpt lat="45.6648833" lon="8.1207667"><ele>1311.0</ele><time>2026-04-04T07:35:21.947Z</time></trkpt><trkpt lat="45.66497" lon="8.1206717"><ele>1302.25</ele><time>2026-04-04T07:35:22.947Z</time></trkpt><trkpt lat="45.6650567" lon="8.1205733"><ele>1293.5</ele><time>2026-04-04T07:35:23.947Z</time></trkpt><trkpt lat="45.6651533" lon="8.1203033"><ele>1284.75</ele><time>2026-04-04T07:35:25.947Z</time></trkpt><trkpt lat="45.6652033" lon="8.120185"><ele>1276.0</ele><time>2026-04-04T07:35:26.947Z</time></trkpt><trkpt lat="45.66527" lon="8.120095"><ele>1276.0</ele><time>2026-04-04T07:35:27.946Z</time></trkpt><trkpt lat="45.6653583" lon="8.1200233"><ele>1276.0</ele><time>2026-04-04T07:35:28.947Z</time></trkpt><trkpt lat="45.6654583" lon="8.1199533"><ele>1276.0</ele><time>2026-04-04T07:35:29.947Z</time></trkpt><trkpt lat="45.6655967" lon="8.1198783"><ele>1276.0</ele><time>2026-04-04T07:35:30.947Z</time></trkpt><trkpt lat="45.6657117" lon="8.1197667"><ele>1276.0</ele><time>2026-04-04T07:35:31.947Z</time></trkpt><trkpt lat="45.66582" lon="8.119635"><ele>1276.0</ele><time>2026-04-04T07:35:32.947Z</time></trkpt><trkpt lat="45.6659283" lon="8.11949"><ele>1276.0</ele><time>2026-04-04T07:35:33.947Z</time></trkpt><trkpt lat="45.6660433" lon="8.1193567"><ele>1276.0</ele><time>2026-04-04T07:35:34.947Z</time></trkpt><trkpt lat="45.66616" lon="8.1192367"><ele>1278.75</ele><time>2026-04-04T07:35:35.947Z</time></trkpt><trkpt lat="45.666275" lon="8.1191267"><ele>1281.5</ele><time>2026-04-04T07:35:36.947Z</time></trkpt><trkpt lat="45.6663883" lon="8.1190167"><ele>1284.25</ele><time>2026-04-04T07:35:37.947Z</time></trkpt><trkpt lat="45.6664867" lon="8.1189"><ele>1287.0</ele><time>2026-04-04T07:35:38.947Z</time></trkpt><trkpt lat="45.6665733" lon="8.11877"><ele>1287.0</ele><time>2026-04-04T07:35:39.947Z</time></trkpt><trkpt lat="45.6666467" lon="8.1186367"><ele>1287.0</ele><time>2026-04-04T07:35:40.947Z</time></trkpt><trkpt lat="45.6666933" lon="8.1184817"><ele>1287.0</ele><time>2026-04-04T07:35:41.947Z</time></trkpt><trkpt lat="45.666715" lon="8.11831"><ele>1287.0</ele><time>2026-04-04T07:35:42.947Z</time></trkpt><trkpt lat="45.66672" lon="8.11812"><ele>1287.25</ele><time>2026-04-04T07:35:43.946Z</time></trkpt><trkpt lat="45.66672" lon="8.1179317"><ele>1287.5</ele><time>2026-04-04T07:35:44.947Z</time></trkpt><trkpt lat="45.6667133" lon="8.117735"><ele>1287.75</ele><time>2026-04-04T07:35:45.947Z</time></trkpt><trkpt lat="45.666715" lon="8.1175367"><ele>1288.0</ele><time>2026-04-04T07:35:46.947Z</time></trkpt><trkpt lat="45.6667083" lon="8.1173333"><ele>1291.5</ele><time>2026-04-04T07:35:47.947Z</time></trkpt><trkpt lat="45.6666917" lon="8.1171267"><ele>1295.0</ele><time>2026-04-04T07:35:48.947Z</time></trkpt><trkpt lat="45.6666717" lon="8.1169367"><ele>1298.5</ele><time>2026-04-04T07:35:49.947Z</time></trkpt><trkpt lat="45.66665" lon="8.1167467"><ele>1302.0</ele><time>2026-04-04T07:35:50.947Z</time></trkpt><trkpt lat="45.6666283" lon="8.1165717"><ele>1302.8</ele><time>2026-04-04T07:35:51.947Z</time></trkpt><trkpt lat="45.66662" lon="8.116415"><ele>1303.6</ele><time>2026-04-04T07:35:52.947Z</time></trkpt><trkpt lat="45.6666333" lon="8.1162783"><ele>1304.3999999999999</ele><time>2026-04-04T07:35:53.947Z</time></trkpt><trkpt lat="45.666665" lon="8.1161583"><ele>1305.1999999999998</ele><time>2026-04-04T07:35:54.947Z</time></trkpt><trkpt lat="45.666705" lon="8.1160133"><ele>1306.0</ele><time>2026-04-04T07:35:55.947Z</time></trkpt><trkpt lat="45.66674" lon="8.1158683"><ele>1309.25</ele><time>2026-04-04T07:35:56.947Z</time></trkpt><trkpt lat="45.666745" lon="8.1157033"><ele>1312.5</ele><time>2026-04-04T07:35:57.947Z</time></trkpt><trkpt lat="45.6667267" lon="8.1155367"><ele>1315.75</ele><time>2026-04-04T07:35:58.946Z</time></trkpt><trkpt lat="45.6667117" lon="8.11534"><ele>1319.0</ele><time>2026-04-04T07:35:59.947Z</time></trkpt><trkpt lat="45.6666667" lon="8.1151483"><ele>1319.0</ele><time>2026-04-04T07:36:00.947Z</time></trkpt><trkpt lat="45.6666133" lon="8.1149417"><ele>1319.0</ele><time>2026-04-04T07:36:01.947Z</time></trkpt><trkpt lat="45.666555" lon="8.114735"><ele>1319.0</ele><time>2026-04-04T07:36:02.947Z</time></trkpt><trkpt lat="45.6664867" lon="8.11454"><ele>1319.0</ele><time>2026-04-04T07:36:03.947Z</time></trkpt><trkpt lat="45.6664233" lon="8.114385"><ele>1319.0</ele><time>2026-04-04T07:36:04.947Z</time></trkpt><trkpt lat="45.666375" lon="8.1142367"><ele>1319.0</ele><time>2026-04-04T07:36:05.946Z</time></trkpt><trkpt lat="45.6663483" lon="8.1141183"><ele>1319.0</ele><time>2026-04-04T07:36:06.947Z</time></trkpt><trkpt lat="45.6663467" lon="8.114015"><ele>1319.0</ele><time>2026-04-04T07:36:07.947Z</time></trkpt><trkpt lat="45.6663617" lon="8.1139133"><ele>1314.0</ele><time>2026-04-04T07:36:08.946Z</time></trkpt><trkpt lat="45.6664233" lon="8.1138133"><ele>1309.0</ele><time>2026-04-04T07:36:09.947Z</time></trkpt><trkpt lat="45.6665083" lon="8.113735"><ele>1304.0</ele><time>2026-04-04T07:36:10.947Z</time></trkpt><trkpt lat="45.6666233" lon="8.1136717"><ele>1299.0</ele><time>2026-04-04T07:36:11.947Z</time></trkpt><trkpt lat="45.666765" lon="8.113595"><ele>1299.0</ele><time>2026-04-04T07:36:12.947Z</time></trkpt><trkpt lat="45.6668917" lon="8.1134983"><ele>1299.0</ele><time>2026-04-04T07:36:13.947Z</time></trkpt><trkpt lat="45.66702" lon="8.1133817"><ele>1299.0</ele><time>2026-04-04T07:36:14.947Z</time></trkpt><trkpt lat="45.66713" lon="8.113255"><ele>1299.0</ele><time>2026-04-04T07:36:15.947Z</time></trkpt><trkpt lat="45.6672417" lon="8.1130917"><ele>1306.75</ele><time>2026-04-04T07:36:16.947Z</time></trkpt><trkpt lat="45.6673067" lon="8.1129133"><ele>1314.5</ele><time>2026-04-04T07:36:17.947Z</time></trkpt><trkpt lat="45.66735" lon="8.1127217"><ele>1322.25</ele><time>2026-04-04T07:36:18.947Z</time></trkpt><trkpt lat="45.667375" lon="8.1125067"><ele>1330.0</ele><time>2026-04-04T07:36:19.946Z</time></trkpt><trkpt lat="45.6673917" lon="8.11228"><ele>1330.0</ele><time>2026-04-04T07:36:20.947Z</time></trkpt><trkpt lat="45.667415" lon="8.1120467"><ele>1330.0</ele><time>2026-04-04T07:36:21.946Z</time></trkpt><trkpt lat="45.6674283" lon="8.1117983"><ele>1330.0</ele><time>2026-04-04T07:36:22.947Z</time></trkpt><trkpt lat="45.6674417" lon="8.11155"><ele>1330.3333333333333</ele><time>2026-04-04T07:36:23.947Z</time></trkpt><trkpt lat="45.6674417" lon="8.111305"><ele>1330.6666666666667</ele><time>2026-04-04T07:36:24.947Z</time></trkpt><trkpt lat="45.6674333" lon="8.11107"><ele>1331.0</ele><time>2026-04-04T07:36:25.946Z</time></trkpt><trkpt lat="45.6674183" lon="8.1108317"><ele>1333.3333333333335</ele><time>2026-04-04T07:36:26.947Z</time></trkpt><trkpt lat="45.6674017" lon="8.1105883"><ele>1335.6666666666667</ele><time>2026-04-04T07:36:27.947Z</time></trkpt><trkpt lat="45.667375" lon="8.110355"><ele>1338.0</ele><time>2026-04-04T07:36:28.946Z</time></trkpt><trkpt lat="45.6673517" lon="8.1101267"><ele>1338.0</ele><time>2026-04-04T07:36:29.947Z</time></trkpt><trkpt lat="45.6673217" lon="8.1099267"><ele>1338.0</ele><time>2026-04-04T07:36:30.947Z</time></trkpt><trkpt lat="45.6672883" lon="8.109755"><ele>1338.0</ele><time>2026-04-04T07:36:31.947Z</time></trkpt><trkpt lat="45.6672467" lon="8.1096417"><ele>1338.0</ele><time>2026-04-04T07:36:32.947Z</time></trkpt><trkpt lat="45.6671783" lon="8.1095117"><ele>1338.0</ele><time>2026-04-04T07:36:33.947Z</time></trkpt><trkpt lat="45.667095" lon="8.1094117"><ele>1338.0</ele><time>2026-04-04T07:36:34.947Z</time></trkpt><trkpt lat="45.6669883" lon="8.10932"><ele>1338.0</ele><time>2026-04-04T07:36:35.947Z</time></trkpt><trkpt lat="45.6668517" lon="8.10926"><ele>1338.0</ele><time>2026-04-04T07:36:36.947Z</time></trkpt><trkpt lat="45.6667117" lon="8.109205"><ele>1338.0</ele><time>2026-04-04T07:36:37.947Z</time></trkpt><trkpt lat="45.66656" lon="8.109165"><ele>1338.0</ele><time>2026-04-04T07:36:38.947Z</time></trkpt><trkpt lat="45.6663967" lon="8.10915"><ele>1338.0</ele><time>2026-04-04T07:36:39.946Z</time></trkpt><trkpt lat="45.6662367" lon="8.1091233"><ele>1334.25</ele><time>2026-04-04T07:36:40.946Z</time></trkpt><trkpt lat="45.6660967" lon="8.1090783"><ele>1330.5</ele><time>2026-04-04T07:36:41.947Z</time></trkpt><trkpt lat="45.6659583" lon="8.109035"><ele>1326.75</ele><time>2026-04-04T07:36:42.947Z</time></trkpt><trkpt lat="45.6658417" lon="8.1089883"><ele>1323.0</ele><time>2026-04-04T07:36:43.947Z</time></trkpt><trkpt lat="45.665745" lon="8.1088983"><ele>1334.25</ele><time>2026-04-04T07:36:44.947Z</time></trkpt><trkpt lat="45.66567" lon="8.1087967"><ele>1345.5</ele><time>2026-04-04T07:36:45.947Z</time></trkpt><trkpt lat="45.6655983" lon="8.108665"><ele>1356.75</ele><time>2026-04-04T07:36:46.947Z</time></trkpt><trkpt lat="45.6655183" lon="8.1085233"><ele>1368.0</ele><time>2026-04-04T07:36:47.947Z</time></trkpt><trkpt lat="45.66545" lon="8.1083917"><ele>1361.0</ele><time>2026-04-04T07:36:48.947Z</time></trkpt><trkpt lat="45.66536" lon="8.1082383"><ele>1354.0</ele><time>2026-04-04T07:36:49.947Z</time></trkpt><trkpt lat="45.66528" lon="8.1080717"><ele>1347.0</ele><time>2026-04-04T07:36:50.947Z</time></trkpt><trkpt lat="45.6652117" lon="8.107915"><ele>1340.0</ele><time>2026-04-04T07:36:51.947Z</time></trkpt><trkpt lat="45.6651617" lon="8.1077667"><ele>1340.0</ele><time>2026-04-04T07:36:52.947Z</time></trkpt><trkpt lat="45.66513" lon="8.1076067"><ele>1340.0</ele><time>2026-04-04T07:36:53.947Z</time></trkpt><trkpt lat="45.6651067" lon="8.1074333"><ele>1340.0</ele><time>2026-04-04T07:36:54.947Z</time></trkpt><trkpt lat="45.6650883" lon="8.1072517"><ele>1340.0</ele><time>2026-04-04T07:36:55.946Z</time></trkpt><trkpt lat="45.6650667" lon="8.1070617"><ele>1344.0</ele><time>2026-04-04T07:36:56.947Z</time></trkpt><trkpt lat="45.66504" lon="8.1068683"><ele>1348.0</ele><time>2026-04-04T07:36:57.947Z</time></trkpt><trkpt lat="45.66501" lon="8.10667"><ele>1352.0</ele><time>2026-04-04T07:36:58.947Z</time></trkpt><trkpt lat="45.664995" lon="8.1064667"><ele>1356.0</ele><time>2026-04-04T07:36:59.947Z</time></trkpt><trkpt lat="45.6649767" lon="8.1062717"><ele>1361.5</ele><time>2026-04-04T07:37:00.947Z</time></trkpt><trkpt lat="45.664955" lon="8.1060833"><ele>1367.0</ele><time>2026-04-04T07:37:01.947Z</time></trkpt><trkpt lat="45.6649383" lon="8.105905"><ele>1372.5</ele><time>2026-04-04T07:37:02.947Z</time></trkpt><trkpt lat="45.6649267" lon="8.105725"><ele>1378.0</ele><time>2026-04-04T07:37:03.947Z</time></trkpt><trkpt lat="45.6646267" lon="8.1036683"><ele>1386.6666666666665</ele><time>2026-04-04T07:37:12.95Z</time></trkpt><trkpt lat="45.6646" lon="8.1034283"><ele>1395.3333333333333</ele><time>2026-04-04T07:37:13.95Z</time></trkpt><trkpt lat="45.6645533" lon="8.1031967"><ele>1404.0</ele><time>2026-04-04T07:37:14.95Z</time></trkpt><trkpt lat="45.6644867" lon="8.1029967"><ele>1410.6666666666667</ele><time>2026-04-04T07:37:15.95Z</time></trkpt><trkpt lat="45.66442" lon="8.1027867"><ele>1417.3333333333335</ele><time>2026-04-04T07:37:16.95Z</time></trkpt><trkpt lat="45.6643533" lon="8.1025883"><ele>1424.0</ele><time>2026-04-04T07:37:17.95Z</time></trkpt><trkpt lat="45.6642867" lon="8.1023733"><ele>1424.0</ele><time>2026-04-04T07:37:18.95Z</time></trkpt><trkpt lat="45.6642183" lon="8.102155"><ele>1424.0</ele><time>2026-04-04T07:37:19.95Z</time></trkpt><trkpt lat="45.6641433" lon="8.101945"><ele>1424.0</ele><time>2026-04-04T07:37:20.95Z</time></trkpt><trkpt lat="45.664065" lon="8.1017267"><ele>1430.3333333333335</ele><time>2026-04-04T07:37:21.95Z</time></trkpt><trkpt lat="45.663975" lon="8.10151"><ele>1436.6666666666667</ele><time>2026-04-04T07:37:22.95Z</time></trkpt><trkpt lat="45.6638983" lon="8.1012917"><ele>1443.0</ele><time>2026-04-04T07:37:23.95Z</time></trkpt><trkpt lat="45.6637867" lon="8.0996817"><ele>1444.3333333333333</ele><time>2026-04-04T07:37:30.951Z</time></trkpt><trkpt lat="45.6637317" lon="8.0994917"><ele>1445.6666666666665</ele><time>2026-04-04T07:37:31.951Z</time></trkpt><trkpt lat="45.66364" lon="8.0993133"><ele>1447.0</ele><time>2026-04-04T07:37:32.951Z</time></trkpt><trkpt lat="45.6635017" lon="8.0991183"><ele>1439.0</ele><time>2026-04-04T07:37:33.951Z</time></trkpt><trkpt lat="45.6634183" lon="8.0989267"><ele>1431.0</ele><time>2026-04-04T07:37:34.951Z</time></trkpt><trkpt lat="45.6633117" lon="8.0987633"><ele>1423.0</ele><time>2026-04-04T07:37:35.951Z</time></trkpt><trkpt lat="45.6631917" lon="8.0986283"><ele>1423.0</ele><time>2026-04-04T07:37:36.951Z</time></trkpt><trkpt lat="45.6630617" lon="8.098535"><ele>1423.0</ele><time>2026-04-04T07:37:37.951Z</time></trkpt><trkpt lat="45.6629317" lon="8.0984633"><ele>1423.0</ele><time>2026-04-04T07:37:38.951Z</time></trkpt><trkpt lat="45.6627917" lon="8.098395"><ele>1423.0</ele><time>2026-04-04T07:37:39.95Z</time></trkpt><trkpt lat="45.6626417" lon="8.0983233"><ele>1422.75</ele><time>2026-04-04T07:37:40.951Z</time></trkpt><trkpt lat="45.6624967" lon="8.0982367"><ele>1422.5</ele><time>2026-04-04T07:37:41.951Z</time></trkpt><trkpt lat="45.6623633" lon="8.0981567"><ele>1422.25</ele><time>2026-04-04T07:37:42.951Z</time></trkpt><trkpt lat="45.6622483" lon="8.0980917"><ele>1422.0</ele><time>2026-04-04T07:37:43.951Z</time></trkpt><trkpt lat="45.6621467" lon="8.0980417"><ele>1422.0</ele><time>2026-04-04T07:37:44.95Z</time></trkpt><trkpt lat="45.6620683" lon="8.0979717"><ele>1422.0</ele><time>2026-04-04T07:37:45.951Z</time></trkpt><trkpt lat="45.6620183" lon="8.0978917"><ele>1422.0</ele><time>2026-04-04T07:37:46.951Z</time></trkpt><trkpt lat="45.6619983" lon="8.0978"><ele>1422.0</ele><time>2026-04-04T07:37:47.951Z</time></trkpt><trkpt lat="45.6620133" lon="8.0976983"><ele>1422.0</ele><time>2026-04-04T07:37:48.951Z</time></trkpt><trkpt lat="45.6620583" lon="8.09759"><ele>1422.0</ele><time>2026-04-04T07:37:49.951Z</time></trkpt><trkpt lat="45.662125" lon="8.0974767"><ele>1418.0</ele><time>2026-04-04T07:37:50.951Z</time></trkpt><trkpt lat="45.6622167" lon="8.0973383"><ele>1414.0</ele><time>2026-04-04T07:37:51.951Z</time></trkpt><trkpt lat="45.6623583" lon="8.09719"><ele>1410.0</ele><time>2026-04-04T07:37:52.951Z</time></trkpt><trkpt lat="45.6624933" lon="8.0970517"><ele>1410.0</ele><time>2026-04-04T07:37:53.95Z</time></trkpt><trkpt lat="45.662635" lon="8.0969117"><ele>1410.0</ele><time>2026-04-04T07:37:54.951Z</time></trkpt><trkpt lat="45.6627733" lon="8.096755"><ele>1410.0</ele><time>2026-04-04T07:37:55.951Z</time></trkpt><trkpt lat="45.6629017" lon="8.0966183"><ele>1419.0</ele><time>2026-04-04T07:37:56.951Z</time></trkpt><trkpt lat="45.6629883" lon="8.0964867"><ele>1428.0</ele><time>2026-04-04T07:37:57.951Z</time></trkpt><trkpt lat="45.6630417" lon="8.09634"><ele>1437.0</ele><time>2026-04-04T07:37:58.951Z</time></trkpt><trkpt lat="45.6630683" lon="8.0961717"><ele>1446.0</ele><time>2026-04-04T07:37:59.951Z</time></trkpt><trkpt lat="45.663095" lon="8.0959983"><ele>1446.0</ele><time>2026-04-04T07:38:00.951Z</time></trkpt><trkpt lat="45.6630883" lon="8.0957983"><ele>1446.0</ele><time>2026-04-04T07:38:01.951Z</time></trkpt><trkpt lat="45.6630733" lon="8.0955833"><ele>1446.0</ele><time>2026-04-04T07:38:02.951Z</time></trkpt><trkpt lat="45.6630633" lon="8.09536"><ele>1446.0</ele><time>2026-04-04T07:38:03.951Z</time></trkpt><trkpt lat="45.6630517" lon="8.0951483"><ele>1448.75</ele><time>2026-04-04T07:38:04.95Z</time></trkpt><trkpt lat="45.6630333" lon="8.0949583"><ele>1451.5</ele><time>2026-04-04T07:38:05.951Z</time></trkpt><trkpt lat="45.6629933" lon="8.0947733"><ele>1454.25</ele><time>2026-04-04T07:38:06.951Z</time></trkpt><trkpt lat="45.6629333" lon="8.094605"><ele>1457.0</ele><time>2026-04-04T07:38:07.951Z</time></trkpt><trkpt lat="45.6628567" lon="8.0944833"><ele>1455.1999999999998</ele><time>2026-04-04T07:38:08.951Z</time></trkpt><trkpt lat="45.6627733" lon="8.0943683"><ele>1453.4</ele><time>2026-04-04T07:38:09.951Z</time></trkpt><trkpt lat="45.662725" lon="8.0942483"><ele>1451.6</ele><time>2026-04-04T07:38:10.951Z</time></trkpt><trkpt lat="45.6626983" lon="8.0941083"><ele>1449.8000000000002</ele><time>2026-04-04T07:38:11.951Z</time></trkpt><trkpt lat="45.6626733" lon="8.0939333"><ele>1448.0</ele><time>2026-04-04T07:38:12.951Z</time></trkpt><trkpt lat="45.6626367" lon="8.0937333"><ele>1448.0</ele><time>2026-04-04T07:38:13.951Z</time></trkpt><trkpt lat="45.6625883" lon="8.0935233"><ele>1448.0</ele><time>2026-04-04T07:38:14.951Z</time></trkpt><trkpt lat="45.6625233" lon="8.0933217"><ele>1448.0</ele><time>2026-04-04T07:38:15.951Z</time></trkpt><trkpt lat="45.66244" lon="8.0931333"><ele>1454.75</ele><time>2026-04-04T07:38:16.951Z</time></trkpt><trkpt lat="45.66236" lon="8.0929533"><ele>1461.5</ele><time>2026-04-04T07:38:17.951Z</time></trkpt><trkpt lat="45.6622717" lon="8.0927883"><ele>1468.25</ele><time>2026-04-04T07:38:18.951Z</time></trkpt><trkpt lat="45.6622" lon="8.092635"><ele>1475.0</ele><time>2026-04-04T07:38:19.951Z</time></trkpt><trkpt lat="45.662115" lon="8.0925183"><ele>1477.75</ele><time>2026-04-04T07:38:20.951Z</time></trkpt><trkpt lat="45.6620417" lon="8.0924033"><ele>1480.5</ele><time>2026-04-04T07:38:21.951Z</time></trkpt><trkpt lat="45.66198" lon="8.0922783"><ele>1483.25</ele><time>2026-04-04T07:38:22.951Z</time></trkpt><trkpt lat="45.661945" lon="8.0921233"><ele>1486.0</ele><time>2026-04-04T07:38:23.951Z</time></trkpt><trkpt lat="45.6619283" lon="8.091945"><ele>1486.5</ele><time>2026-04-04T07:38:24.951Z</time></trkpt><trkpt lat="45.6619267" lon="8.091775"><ele>1487.0</ele><time>2026-04-04T07:38:25.951Z</time></trkpt><trkpt lat="45.6619483" lon="8.0916033"><ele>1487.5</ele><time>2026-04-04T07:38:26.951Z</time></trkpt><trkpt lat="45.6619733" lon="8.0914133"><ele>1488.0</ele><time>2026-04-04T07:38:27.951Z</time></trkpt><trkpt lat="45.661995" lon="8.0912367"><ele>1488.0</ele><time>2026-04-04T07:38:28.95Z</time></trkpt><trkpt lat="45.66199" lon="8.0910333"><ele>1488.0</ele><time>2026-04-04T07:38:29.951Z</time></trkpt><trkpt lat="45.66196" lon="8.0908433"><ele>1488.0</ele><time>2026-04-04T07:38:30.951Z</time></trkpt><trkpt lat="45.6619117" lon="8.0906717"><ele>1488.0</ele><time>2026-04-04T07:38:31.951Z</time></trkpt><trkpt lat="45.6618417" lon="8.090515"><ele>1482.6000000000001</ele><time>2026-04-04T07:38:32.951Z</time></trkpt><trkpt lat="45.661805" lon="8.090375"><ele>1477.2</ele><time>2026-04-04T07:38:33.951Z</time></trkpt><trkpt lat="45.6617833" lon="8.0902283"><ele>1471.8</ele><time>2026-04-04T07:38:34.951Z</time></trkpt><trkpt lat="45.661785" lon="8.0900717"><ele>1466.4</ele><time>2026-04-04T07:38:35.951Z</time></trkpt><trkpt lat="45.6618133" lon="8.0898967"><ele>1461.0</ele><time>2026-04-04T07:38:36.951Z</time></trkpt><trkpt lat="45.6618483" lon="8.0896867"><ele>1461.0</ele><time>2026-04-04T07:38:37.951Z</time></trkpt><trkpt lat="45.6618717" lon="8.0894783"><ele>1461.0</ele><time>2026-04-04T07:38:38.951Z</time></trkpt><trkpt lat="45.6618883" lon="8.0892567"><ele>1461.0</ele><time>2026-04-04T07:38:39.951Z</time></trkpt><trkpt lat="45.66188" lon="8.089015"><ele>1466.3333333333333</ele><time>2026-04-04T07:38:40.95Z</time></trkpt><trkpt lat="45.661865" lon="8.0887633"><ele>1471.6666666666665</ele><time>2026-04-04T07:38:41.951Z</time></trkpt><trkpt lat="45.661835" lon="8.088535"><ele>1477.0</ele><time>2026-04-04T07:38:42.95Z</time></trkpt><trkpt lat="45.66181" lon="8.08832"><ele>1476.75</ele><time>2026-04-04T07:38:43.951Z</time></trkpt><trkpt lat="45.6617933" lon="8.0881083"><ele>1476.5</ele><time>2026-04-04T07:38:44.951Z</time></trkpt><trkpt lat="45.6617883" lon="8.0879267"><ele>1476.25</ele><time>2026-04-04T07:38:45.951Z</time></trkpt><trkpt lat="45.661805" lon="8.0877667"><ele>1476.0</ele><time>2026-04-04T07:38:46.951Z</time></trkpt><trkpt lat="45.661835" lon="8.0876367"><ele>1476.0</ele><time>2026-04-04T07:38:47.951Z</time></trkpt><trkpt lat="45.6618767" lon="8.087505"><ele>1476.0</ele><time>2026-04-04T07:38:48.95Z</time></trkpt><trkpt lat="45.661935" lon="8.0873717"><ele>1476.0</ele><time>2026-04-04T07:38:49.951Z</time></trkpt><trkpt lat="45.6620017" lon="8.0872267"><ele>1476.0</ele><time>2026-04-04T07:38:50.95Z</time></trkpt><trkpt lat="45.662075" lon="8.08709"><ele>1477.1999999999998</ele><time>2026-04-04T07:38:51.951Z</time></trkpt><trkpt lat="45.6621517" lon="8.0869533"><ele>1478.3999999999999</ele><time>2026-04-04T07:38:52.951Z</time></trkpt><trkpt lat="45.6622283" lon="8.08683"><ele>1479.6</ele><time>2026-04-04T07:38:53.951Z</time></trkpt><trkpt lat="45.6623033" lon="8.0867083"><ele>1480.8</ele><time>2026-04-04T07:38:54.951Z</time></trkpt><trkpt lat="45.662365" lon="8.0866"><ele>1482.0</ele><time>2026-04-04T07:38:55.951Z</time></trkpt><trkpt lat="45.6624117" lon="8.086495"><ele>1482.0</ele><time>2026-04-04T07:38:56.951Z</time></trkpt><trkpt lat="45.662445" lon="8.08639"><ele>1482.0</ele><time>2026-04-04T07:38:57.951Z</time></trkpt><trkpt lat="45.6624617" lon="8.0862683"><ele>1482.0</ele><time>2026-04-04T07:38:58.951Z</time></trkpt><trkpt lat="45.6624617" lon="8.08613"><ele>1482.0</ele><time>2026-04-04T07:38:59.95Z</time></trkpt><trkpt lat="45.6624517" lon="8.0859817"><ele>1482.0</ele><time>2026-04-04T07:39:00.95Z</time></trkpt><trkpt lat="45.662435" lon="8.0858433"><ele>1482.3999999999999</ele><time>2026-04-04T07:39:01.95Z</time></trkpt><trkpt lat="45.6624083" lon="8.0857283"><ele>1482.8</ele><time>2026-04-04T07:39:02.95Z</time></trkpt><trkpt lat="45.662365" lon="8.085605"><ele>1483.2</ele><time>2026-04-04T07:39:03.95Z</time></trkpt><trkpt lat="45.66232" lon="8.0854817"><ele>1483.6</ele><time>2026-04-04T07:39:04.95Z</time></trkpt><trkpt lat="45.6622717" lon="8.0853617"><ele>1484.0</ele><time>2026-04-04T07:39:05.95Z</time></trkpt><trkpt lat="45.66224" lon="8.0852467"><ele>1484.0</ele><time>2026-04-04T07:39:06.95Z</time></trkpt><trkpt lat="45.6622233" lon="8.0851317"><ele>1484.0</ele><time>2026-04-04T07:39:07.95Z</time></trkpt><trkpt lat="45.66222" lon="8.0850417"><ele>1484.0</ele><time>2026-04-04T07:39:08.95Z</time></trkpt><trkpt lat="45.6622283" lon="8.0849333"><ele>1484.0</ele><time>2026-04-04T07:39:10.95Z</time></trkpt><trkpt lat="45.6622433" lon="8.084765"><ele>1484.0</ele><time>2026-04-04T07:39:58.95Z</time></trkpt><trkpt lat="45.6622533" lon="8.0846567"><ele>1484.0</ele><time>2026-04-04T07:39:59.95Z</time></trkpt><trkpt lat="45.6622717" lon="8.0845433"><ele>1483.8333333333335</ele><time>2026-04-04T07:40:00.95Z</time></trkpt><trkpt lat="45.6623" lon="8.0844333"><ele>1483.6666666666667</ele><time>2026-04-04T07:40:01.95Z</time></trkpt><trkpt lat="45.6623433" lon="8.0843333"><ele>1483.5</ele><time>2026-04-04T07:40:02.95Z</time></trkpt><trkpt lat="45.6624017" lon="8.0842583"><ele>1483.3333333333333</ele><time>2026-04-04T07:40:03.95Z</time></trkpt><trkpt lat="45.6624733" lon="8.0841883"><ele>1483.1666666666665</ele><time>2026-04-04T07:40:04.949Z</time></trkpt><trkpt lat="45.6625633" lon="8.08413"><ele>1483.0</ele><time>2026-04-04T07:40:05.95Z</time></trkpt><trkpt lat="45.6626517" lon="8.084095"><ele>1483.4</ele><time>2026-04-04T07:40:06.95Z</time></trkpt><trkpt lat="45.662765" lon="8.0840617"><ele>1483.8000000000002</ele><time>2026-04-04T07:40:07.95Z</time></trkpt><trkpt lat="45.662885" lon="8.0840333"><ele>1484.2</ele><time>2026-04-04T07:40:08.949Z</time></trkpt><trkpt lat="45.6629933" lon="8.08399"><ele>1484.6</ele><time>2026-04-04T07:40:09.95Z</time></trkpt><trkpt lat="45.6630767" lon="8.0839467"><ele>1485.0</ele><time>2026-04-04T07:40:10.95Z</time></trkpt><trkpt lat="45.66315" lon="8.08387"><ele>1485.0</ele><time>2026-04-04T07:40:11.95Z</time></trkpt><trkpt lat="45.663215" lon="8.0837667"><ele>1485.0</ele><time>2026-04-04T07:40:13.95Z</time></trkpt><trkpt lat="45.6632817" lon="8.0836917"><ele>1485.0</ele><time>2026-04-04T07:42:05.95Z</time></trkpt><trkpt lat="45.6633183" lon="8.083555"><ele>1485.0</ele><time>2026-04-04T07:42:07.949Z</time></trkpt><trkpt lat="45.6633483" lon="8.08345"><ele>1485.0</ele><time>2026-04-04T07:42:08.95Z</time></trkpt><trkpt lat="45.66338" lon="8.08332"><ele>1485.8</ele><time>2026-04-04T07:42:09.95Z</time></trkpt><trkpt lat="45.6634017" lon="8.0831867"><ele>1486.6</ele><time>2026-04-04T07:42:10.95Z</time></trkpt><trkpt lat="45.6634183" lon="8.0830483"><ele>1487.4</ele><time>2026-04-04T07:42:11.95Z</time></trkpt><trkpt lat="45.6634117" lon="8.082895"><ele>1488.2</ele><time>2026-04-04T07:42:12.95Z</time></trkpt><trkpt lat="45.6633983" lon="8.0827233"><ele>1489.0</ele><time>2026-04-04T07:42:13.95Z</time></trkpt><trkpt lat="45.6633883" lon="8.0825333"><ele>1490.25</ele><time>2026-04-04T07:42:14.95Z</time></trkpt><trkpt lat="45.6633533" lon="8.0823517"><ele>1491.5</ele><time>2026-04-04T07:42:15.95Z</time></trkpt><trkpt lat="45.663325" lon="8.0821733"><ele>1492.75</ele><time>2026-04-04T07:42:16.95Z</time></trkpt><trkpt lat="45.6632967" lon="8.0819817"><ele>1494.0</ele><time>2026-04-04T07:42:17.95Z</time></trkpt><trkpt lat="45.6632883" lon="8.0818133"><ele>1494.0</ele><time>2026-04-04T07:42:18.95Z</time></trkpt><trkpt lat="45.663305" lon="8.0816417"><ele>1494.0</ele><time>2026-04-04T07:42:19.95Z</time></trkpt><trkpt lat="45.6633283" lon="8.0814867"><ele>1494.0</ele><time>2026-04-04T07:42:20.95Z</time></trkpt><trkpt lat="45.6633317" lon="8.0813317"><ele>1494.0</ele><time>2026-04-04T07:42:21.95Z</time></trkpt><trkpt lat="45.6633267" lon="8.081195"><ele>1494.0</ele><time>2026-04-04T07:42:22.949Z</time></trkpt><trkpt lat="45.6633017" lon="8.0810533"><ele>1495.75</ele><time>2026-04-04T07:42:23.95Z</time></trkpt><trkpt lat="45.6632517" lon="8.0809333"><ele>1497.5</ele><time>2026-04-04T07:42:24.95Z</time></trkpt><trkpt lat="45.6631617" lon="8.0808233"><ele>1499.25</ele><time>2026-04-04T07:42:25.95Z</time></trkpt><trkpt lat="45.6630583" lon="8.0806567"><ele>1501.0</ele><time>2026-04-04T07:42:26.95Z</time></trkpt><trkpt lat="45.662955" lon="8.08052"><ele>1497.5</ele><time>2026-04-04T07:42:27.95Z</time></trkpt><trkpt lat="45.6628517" lon="8.0803817"><ele>1494.0</ele><time>2026-04-04T07:42:28.95Z</time></trkpt><trkpt lat="45.66275" lon="8.080235"><ele>1490.5</ele><time>2026-04-04T07:42:29.95Z</time></trkpt><trkpt lat="45.6626517" lon="8.0800917"><ele>1487.0</ele><time>2026-04-04T07:42:30.95Z</time></trkpt><trkpt lat="45.662565" lon="8.07993"><ele>1487.0</ele><time>2026-04-04T07:42:31.95Z</time></trkpt><trkpt lat="45.6624817" lon="8.0797717"><ele>1487.0</ele><time>2026-04-04T07:42:32.95Z</time></trkpt><trkpt lat="45.6624167" lon="8.0796033"><ele>1487.0</ele><time>2026-04-04T07:42:33.95Z</time></trkpt><trkpt lat="45.662365" lon="8.07944"><ele>1487.0</ele><time>2026-04-04T07:42:34.95Z</time></trkpt><trkpt lat="45.6623133" lon="8.07928"><ele>1487.0</ele><time>2026-04-04T07:42:35.95Z</time></trkpt><trkpt lat="45.6622917" lon="8.0791267"><ele>1487.0</ele><time>2026-04-04T07:42:36.95Z</time></trkpt><trkpt lat="45.6622933" lon="8.079"><ele>1487.0</ele><time>2026-04-04T07:42:37.95Z</time></trkpt><trkpt lat="45.6623133" lon="8.0788517"><ele>1487.0</ele><time>2026-04-04T07:42:38.95Z</time></trkpt><trkpt lat="45.662335" lon="8.0787033"><ele>1487.0</ele><time>2026-04-04T07:42:39.95Z</time></trkpt><trkpt lat="45.662355" lon="8.0785583"><ele>1487.0</ele><time>2026-04-04T07:42:40.949Z</time></trkpt><trkpt lat="45.6623683" lon="8.0784117"><ele>1487.0</ele><time>2026-04-04T07:42:41.95Z</time></trkpt><trkpt lat="45.6623667" lon="8.0782667"><ele>1487.0</ele><time>2026-04-04T07:42:42.95Z</time></trkpt><trkpt lat="45.66234" lon="8.0781333"><ele>1487.0</ele><time>2026-04-04T07:42:43.95Z</time></trkpt><trkpt lat="45.6623" lon="8.0779833"><ele>1487.0</ele><time>2026-04-04T07:42:44.949Z</time></trkpt><trkpt lat="45.6622533" lon="8.077825"><ele>1489.0</ele><time>2026-04-04T07:42:45.95Z</time></trkpt><trkpt lat="45.6622067" lon="8.077655"><ele>1491.0</ele><time>2026-04-04T07:42:46.95Z</time></trkpt><trkpt lat="45.6621467" lon="8.0774783"><ele>1493.0</ele><time>2026-04-04T07:42:47.95Z</time></trkpt><trkpt lat="45.6620667" lon="8.07731"><ele>1495.0</ele><time>2026-04-04T07:42:48.95Z</time></trkpt><trkpt lat="45.66196" lon="8.07713"><ele>1495.0</ele><time>2026-04-04T07:42:49.95Z</time></trkpt><trkpt lat="45.661855" lon="8.0769533"><ele>1495.0</ele><time>2026-04-04T07:42:50.95Z</time></trkpt><trkpt lat="45.6617467" lon="8.0767683"><ele>1495.0</ele><time>2026-04-04T07:42:51.95Z</time></trkpt><trkpt lat="45.6616417" lon="8.0765917"><ele>1495.0</ele><time>2026-04-04T07:42:52.95Z</time></trkpt><trkpt lat="45.6615317" lon="8.0764367"><ele>1495.0</ele><time>2026-04-04T07:42:53.95Z</time></trkpt><trkpt lat="45.6614117" lon="8.0763117"><ele>1495.0</ele><time>2026-04-04T07:42:54.95Z</time></trkpt><trkpt lat="45.661295" lon="8.0762067"><ele>1495.0</ele><time>2026-04-04T07:42:55.95Z</time></trkpt><trkpt lat="45.661175" lon="8.0761133"><ele>1488.75</ele><time>2026-04-04T07:42:56.95Z</time></trkpt><trkpt lat="45.66105" lon="8.07602"><ele>1482.5</ele><time>2026-04-04T07:42:57.949Z</time></trkpt><trkpt lat="45.6609383" lon="8.07592"><ele>1476.25</ele><time>2026-04-04T07:42:58.95Z</time></trkpt><trkpt lat="45.66083" lon="8.07582"><ele>1470.0</ele><time>2026-04-04T07:42:59.95Z</time></trkpt><trkpt lat="45.6607433" lon="8.0757167"><ele>1470.0</ele><time>2026-04-04T07:43:00.95Z</time></trkpt><trkpt lat="45.6606933" lon="8.0756317"><ele>1470.0</ele><time>2026-04-04T07:43:01.95Z</time></trkpt><trkpt lat="45.66065" lon="8.0755383"><ele>1470.0</ele><time>2026-04-04T07:43:02.95Z</time></trkpt><trkpt lat="45.66064" lon="8.0754267"><ele>1470.0</ele><time>2026-04-04T07:43:03.95Z</time></trkpt><trkpt lat="45.6606483" lon="8.075285"><ele>1470.0</ele><time>2026-04-04T07:43:04.95Z</time></trkpt><trkpt lat="45.6606633" lon="8.0751267"><ele>1470.0</ele><time>2026-04-04T07:43:05.95Z</time></trkpt><trkpt lat="45.6607117" lon="8.074925"><ele>1464.3333333333333</ele><time>2026-04-04T07:43:06.95Z</time></trkpt><trkpt lat="45.6607767" lon="8.0747017"><ele>1458.6666666666665</ele><time>2026-04-04T07:43:07.95Z</time></trkpt><trkpt lat="45.6608533" lon="8.07449"><ele>1453.0</ele><time>2026-04-04T07:43:08.95Z</time></trkpt><trkpt lat="45.6609483" lon="8.074295"><ele>1453.0</ele><time>2026-04-04T07:43:09.95Z</time></trkpt><trkpt lat="45.661045" lon="8.0741217"><ele>1453.0</ele><time>2026-04-04T07:43:10.95Z</time></trkpt><trkpt lat="45.6611583" lon="8.07396"><ele>1453.0</ele><time>2026-04-04T07:43:11.95Z</time></trkpt><trkpt lat="45.661285" lon="8.0738083"><ele>1452.0</ele><time>2026-04-04T07:43:12.95Z</time></trkpt><trkpt lat="45.6614233" lon="8.0736583"><ele>1451.0</ele><time>2026-04-04T07:43:13.95Z</time></trkpt><trkpt lat="45.6615633" lon="8.073515"><ele>1450.0</ele><time>2026-04-04T07:43:14.95Z</time></trkpt><trkpt lat="45.661705" lon="8.0733717"><ele>1449.6666666666665</ele><time>2026-04-04T07:43:15.95Z</time></trkpt><trkpt lat="45.6618383" lon="8.0732367"><ele>1449.3333333333333</ele><time>2026-04-04T07:43:16.949Z</time></trkpt><trkpt lat="45.6619733" lon="8.07314"><ele>1449.0</ele><time>2026-04-04T07:43:17.95Z</time></trkpt><trkpt lat="45.662105" lon="8.073055"><ele>1449.0</ele><time>2026-04-04T07:43:18.949Z</time></trkpt><trkpt lat="45.6622367" lon="8.0729767"><ele>1449.0</ele><time>2026-04-04T07:43:19.95Z</time></trkpt><trkpt lat="45.662355" lon="8.07287"><ele>1449.0</ele><time>2026-04-04T07:43:20.95Z</time></trkpt><trkpt lat="45.6624567" lon="8.0727283"><ele>1449.0</ele><time>2026-04-04T07:43:21.95Z</time></trkpt><trkpt lat="45.6625433" lon="8.0725667"><ele>1444.75</ele><time>2026-04-04T07:43:22.95Z</time></trkpt><trkpt lat="45.6626183" lon="8.0723917"><ele>1440.5</ele><time>2026-04-04T07:43:23.95Z</time></trkpt><trkpt lat="45.6626667" lon="8.0722033"><ele>1436.25</ele><time>2026-04-04T07:43:24.95Z</time></trkpt><trkpt lat="45.66268" lon="8.072015"><ele>1432.0</ele><time>2026-04-04T07:43:25.95Z</time></trkpt><trkpt lat="45.66267" lon="8.0718167"><ele>1432.0</ele><time>2026-04-04T07:43:26.95Z</time></trkpt><trkpt lat="45.6626667" lon="8.0716183"><ele>1432.0</ele><time>2026-04-04T07:43:27.95Z</time></trkpt><trkpt lat="45.6626817" lon="8.0714233"><ele>1432.0</ele><time>2026-04-04T07:43:28.95Z</time></trkpt><trkpt lat="45.6627267" lon="8.071235"><ele>1432.0</ele><time>2026-04-04T07:43:29.95Z</time></trkpt><trkpt lat="45.66278" lon="8.0710283"><ele>1435.5</ele><time>2026-04-04T07:43:30.95Z</time></trkpt><trkpt lat="45.6628417" lon="8.0708283"><ele>1439.0</ele><time>2026-04-04T07:43:31.95Z</time></trkpt><trkpt lat="45.6629" lon="8.0706333"><ele>1442.5</ele><time>2026-04-04T07:43:32.95Z</time></trkpt><trkpt lat="45.6629233" lon="8.0704717"><ele>1446.0</ele><time>2026-04-04T07:43:33.95Z</time></trkpt><trkpt lat="45.6629267" lon="8.070315"><ele>1446.75</ele><time>2026-04-04T07:43:34.95Z</time></trkpt><trkpt lat="45.6628867" lon="8.07017"><ele>1447.5</ele><time>2026-04-04T07:43:35.95Z</time></trkpt><trkpt lat="45.6628233" lon="8.0700217"><ele>1448.25</ele><time>2026-04-04T07:43:36.95Z</time></trkpt><trkpt lat="45.6627417" lon="8.069865"><ele>1449.0</ele><time>2026-04-04T07:43:37.95Z</time></trkpt><trkpt lat="45.6626517" lon="8.069705"><ele>1442.25</ele><time>2026-04-04T07:43:38.95Z</time></trkpt><trkpt lat="45.6625617" lon="8.0695717"><ele>1435.5</ele><time>2026-04-04T07:43:39.949Z</time></trkpt><trkpt lat="45.662465" lon="8.069395"><ele>1428.75</ele><time>2026-04-04T07:43:40.949Z</time></trkpt><trkpt lat="45.6623667" lon="8.0692167"><ele>1422.0</ele><time>2026-04-04T07:43:41.949Z</time></trkpt><trkpt lat="45.6623017" lon="8.0690483"><ele>1422.0</ele><time>2026-04-04T07:43:42.949Z</time></trkpt><trkpt lat="45.6622383" lon="8.0688733"><ele>1422.0</ele><time>2026-04-04T07:43:43.949Z</time></trkpt><trkpt lat="45.6621817" lon="8.0686767"><ele>1422.0</ele><time>2026-04-04T07:43:44.949Z</time></trkpt><trkpt lat="45.6621417" lon="8.0684833"><ele>1422.0</ele><time>2026-04-04T07:43:45.949Z</time></trkpt><trkpt lat="45.66211" lon="8.0682917"><ele>1421.5</ele><time>2026-04-04T07:43:46.949Z</time></trkpt><trkpt lat="45.6620883" lon="8.0680983"><ele>1421.0</ele><time>2026-04-04T07:43:47.949Z</time></trkpt><trkpt lat="45.662075" lon="8.06791"><ele>1420.5</ele><time>2026-04-04T07:43:48.949Z</time></trkpt><trkpt lat="45.662075" lon="8.0677167"><ele>1420.0</ele><time>2026-04-04T07:43:49.949Z</time></trkpt><trkpt lat="45.6620983" lon="8.067525"><ele>1419.5</ele><time>2026-04-04T07:43:50.949Z</time></trkpt><trkpt lat="45.6621333" lon="8.0673383"><ele>1419.0</ele><time>2026-04-04T07:43:51.949Z</time></trkpt><trkpt lat="45.6621733" lon="8.06716"><ele>1418.5</ele><time>2026-04-04T07:43:52.949Z</time></trkpt><trkpt lat="45.66221" lon="8.06695"><ele>1418.0</ele><time>2026-04-04T07:43:53.949Z</time></trkpt><trkpt lat="45.6622267" lon="8.0667567"><ele>1416.25</ele><time>2026-04-04T07:43:54.949Z</time></trkpt><trkpt lat="45.662225" lon="8.0665517"><ele>1414.5</ele><time>2026-04-04T07:43:55.949Z</time></trkpt><trkpt lat="45.6622233" lon="8.0663283"><ele>1412.75</ele><time>2026-04-04T07:43:56.949Z</time></trkpt><trkpt lat="45.6622283" lon="8.066115"><ele>1411.0</ele><time>2026-04-04T07:43:57.949Z</time></trkpt><trkpt lat="45.6622417" lon="8.0658917"><ele>1406.0</ele><time>2026-04-04T07:43:58.949Z</time></trkpt><trkpt lat="45.6622817" lon="8.0656683"><ele>1401.0</ele><time>2026-04-04T07:43:59.949Z</time></trkpt><trkpt lat="45.6623033" lon="8.0654133"><ele>1396.0</ele><time>2026-04-04T07:44:00.949Z</time></trkpt><trkpt lat="45.662315" lon="8.06516"><ele>1392.6666666666665</ele><time>2026-04-04T07:44:01.949Z</time></trkpt><trkpt lat="45.6623433" lon="8.064915"><ele>1389.3333333333333</ele><time>2026-04-04T07:44:02.949Z</time></trkpt><trkpt lat="45.6623667" lon="8.0646783"><ele>1386.0</ele><time>2026-04-04T07:44:03.949Z</time></trkpt><trkpt lat="45.6623883" lon="8.06445"><ele>1386.0</ele><time>2026-04-04T07:44:04.949Z</time></trkpt><trkpt lat="45.662405" lon="8.06422"><ele>1386.0</ele><time>2026-04-04T07:44:05.949Z</time></trkpt><trkpt lat="45.6624283" lon="8.0640017"><ele>1386.0</ele><time>2026-04-04T07:44:06.948Z</time></trkpt><trkpt lat="45.6624617" lon="8.0637967"><ele>1381.75</ele><time>2026-04-04T07:44:07.949Z</time></trkpt><trkpt lat="45.6625067" lon="8.0636067"><ele>1377.5</ele><time>2026-04-04T07:44:08.949Z</time></trkpt><trkpt lat="45.662555" lon="8.0634467"><ele>1373.25</ele><time>2026-04-04T07:44:09.949Z</time></trkpt><trkpt lat="45.6625983" lon="8.0633233"><ele>1369.0</ele><time>2026-04-04T07:44:10.948Z</time></trkpt><trkpt lat="45.662655" lon="8.0632167"><ele>1368.0</ele><time>2026-04-04T07:44:11.949Z</time></trkpt><trkpt lat="45.6627333" lon="8.0631233"><ele>1367.0</ele><time>2026-04-04T07:44:12.949Z</time></trkpt><trkpt lat="45.6628267" lon="8.0630417"><ele>1366.0</ele><time>2026-04-04T07:44:13.949Z</time></trkpt><trkpt lat="45.6629583" lon="8.0629783"><ele>1365.0</ele><time>2026-04-04T07:44:14.949Z</time></trkpt><trkpt lat="45.66312" lon="8.062925"><ele>1365.0</ele><time>2026-04-04T07:44:15.949Z</time></trkpt><trkpt lat="45.6632817" lon="8.06288"><ele>1365.0</ele><time>2026-04-04T07:44:16.949Z</time></trkpt><trkpt lat="45.6634083" lon="8.0628133"><ele>1365.0</ele><time>2026-04-04T07:44:17.949Z</time></trkpt><trkpt lat="45.66352" lon="8.06275"><ele>1365.0</ele><time>2026-04-04T07:44:18.949Z</time></trkpt><trkpt lat="45.6636067" lon="8.062655"><ele>1367.2</ele><time>2026-04-04T07:44:19.949Z</time></trkpt><trkpt lat="45.6636533" lon="8.0625233"><ele>1369.4</ele><time>2026-04-04T07:44:20.949Z</time></trkpt><trkpt lat="45.6636783" lon="8.0623767"><ele>1371.6</ele><time>2026-04-04T07:44:21.949Z</time></trkpt><trkpt lat="45.6636817" lon="8.0622267"><ele>1373.8</ele><time>2026-04-04T07:44:22.949Z</time></trkpt><trkpt lat="45.6636717" lon="8.062055"><ele>1376.0</ele><time>2026-04-04T07:44:23.948Z</time></trkpt><trkpt lat="45.6636667" lon="8.0618683"><ele>1379.25</ele><time>2026-04-04T07:44:24.949Z</time></trkpt><trkpt lat="45.663655" lon="8.061675"><ele>1382.5</ele><time>2026-04-04T07:44:25.948Z</time></trkpt><trkpt lat="45.663635" lon="8.0614717"><ele>1385.75</ele><time>2026-04-04T07:44:26.949Z</time></trkpt><trkpt lat="45.6636033" lon="8.0612583"><ele>1389.0</ele><time>2026-04-04T07:44:27.948Z</time></trkpt><trkpt lat="45.663575" lon="8.0610433"><ele>1383.75</ele><time>2026-04-04T07:44:28.949Z</time></trkpt><trkpt lat="45.6635417" lon="8.0608367"><ele>1378.5</ele><time>2026-04-04T07:44:29.949Z</time></trkpt><trkpt lat="45.6635133" lon="8.06063"><ele>1373.25</ele><time>2026-04-04T07:44:30.949Z</time></trkpt><trkpt lat="45.66348" lon="8.0604383"><ele>1368.0</ele><time>2026-04-04T07:44:31.949Z</time></trkpt><trkpt lat="45.6634367" lon="8.0602383"><ele>1368.0</ele><time>2026-04-04T07:44:32.949Z</time></trkpt><trkpt lat="45.663395" lon="8.0600533"><ele>1368.0</ele><time>2026-04-04T07:44:33.949Z</time></trkpt><trkpt lat="45.6633267" lon="8.0598733"><ele>1368.0</ele><time>2026-04-04T07:44:34.949Z</time></trkpt><trkpt lat="45.6632567" lon="8.0597083"><ele>1368.0</ele><time>2026-04-04T07:44:35.949Z</time></trkpt><trkpt lat="45.6631583" lon="8.059555"><ele>1364.6666666666667</ele><time>2026-04-04T07:44:36.949Z</time></trkpt><trkpt lat="45.6630267" lon="8.0594267"><ele>1361.3333333333335</ele><time>2026-04-04T07:44:37.948Z</time></trkpt><trkpt lat="45.6628783" lon="8.0593417"><ele>1358.0</ele><time>2026-04-04T07:44:38.949Z</time></trkpt><trkpt lat="45.66274" lon="8.0592817"><ele>1358.0</ele><time>2026-04-04T07:44:39.949Z</time></trkpt><trkpt lat="45.662605" lon="8.0592583"><ele>1358.0</ele><time>2026-04-04T07:44:40.949Z</time></trkpt><trkpt lat="45.6624867" lon="8.0592233"><ele>1358.0</ele><time>2026-04-04T07:44:41.949Z</time></trkpt><trkpt lat="45.6623833" lon="8.05918"><ele>1358.0</ele><time>2026-04-04T07:44:42.949Z</time></trkpt><trkpt lat="45.6622967" lon="8.059095"><ele>1365.25</ele><time>2026-04-04T07:44:43.949Z</time></trkpt><trkpt lat="45.6622367" lon="8.0589517"><ele>1372.5</ele><time>2026-04-04T07:44:44.949Z</time></trkpt><trkpt lat="45.662175" lon="8.0587817"><ele>1379.75</ele><time>2026-04-04T07:44:45.949Z</time></trkpt><trkpt lat="45.6621067" lon="8.058615"><ele>1387.0</ele><time>2026-04-04T07:44:46.949Z</time></trkpt><trkpt lat="45.6619983" lon="8.0584433"><ele>1384.3333333333333</ele><time>2026-04-04T07:44:47.948Z</time></trkpt><trkpt lat="45.6618633" lon="8.0583083"><ele>1381.6666666666667</ele><time>2026-04-04T07:44:48.949Z</time></trkpt><trkpt lat="45.6617167" lon="8.0581833"><ele>1379.0</ele><time>2026-04-04T07:44:49.949Z</time></trkpt><trkpt lat="45.6615633" lon="8.058045"><ele>1379.0</ele><time>2026-04-04T07:44:50.949Z</time></trkpt><trkpt lat="45.66143" lon="8.0579017"><ele>1379.0</ele><time>2026-04-04T07:44:51.949Z</time></trkpt><trkpt lat="45.6613083" lon="8.057765"><ele>1379.0</ele><time>2026-04-04T07:44:52.949Z</time></trkpt><trkpt lat="45.661195" lon="8.0576483"><ele>1374.6</ele><time>2026-04-04T07:44:53.949Z</time></trkpt><trkpt lat="45.6610867" lon="8.0575583"><ele>1370.2</ele><time>2026-04-04T07:44:54.948Z</time></trkpt><trkpt lat="45.660975" lon="8.05752"><ele>1365.8</ele><time>2026-04-04T07:44:55.949Z</time></trkpt><trkpt lat="45.6608567" lon="8.05754"><ele>1361.3999999999999</ele><time>2026-04-04T07:44:56.949Z</time></trkpt><trkpt lat="45.660775" lon="8.0575917"><ele>1357.0</ele><time>2026-04-04T07:44:57.949Z</time></trkpt><trkpt lat="45.6607" lon="8.05765"><ele>1357.0</ele><time>2026-04-04T07:44:58.949Z</time></trkpt><trkpt lat="45.6606267" lon="8.0577317"><ele>1357.0</ele><time>2026-04-04T07:44:59.949Z</time></trkpt><trkpt lat="45.66053" lon="8.0578283"><ele>1357.0</ele><time>2026-04-04T07:45:00.949Z</time></trkpt><trkpt lat="45.6604267" lon="8.0579117"><ele>1357.0</ele><time>2026-04-04T07:45:01.948Z</time></trkpt><trkpt lat="45.66032" lon="8.0579967"><ele>1357.1999999999998</ele><time>2026-04-04T07:45:02.949Z</time></trkpt><trkpt lat="45.6602217" lon="8.058065"><ele>1357.4</ele><time>2026-04-04T07:45:03.949Z</time></trkpt><trkpt lat="45.6601433" lon="8.0581033"><ele>1357.6</ele><time>2026-04-04T07:45:04.949Z</time></trkpt><trkpt lat="45.6600617" lon="8.0581083"><ele>1357.8000000000002</ele><time>2026-04-04T07:45:05.949Z</time></trkpt><trkpt lat="45.659965" lon="8.0580833"><ele>1358.0</ele><time>2026-04-04T07:45:06.949Z</time></trkpt><trkpt lat="45.6598467" lon="8.05801"><ele>1358.0</ele><time>2026-04-04T07:45:07.948Z</time></trkpt><trkpt lat="45.6597217" lon="8.0579217"><ele>1358.0</ele><time>2026-04-04T07:45:08.949Z</time></trkpt><trkpt lat="45.6595917" lon="8.05785"><ele>1358.0</ele><time>2026-04-04T07:45:09.949Z</time></trkpt><trkpt lat="45.6594783" lon="8.0577683"><ele>1358.0</ele><time>2026-04-04T07:45:10.949Z</time></trkpt><trkpt lat="45.6593783" lon="8.0576817"><ele>1354.4</ele><time>2026-04-04T07:45:11.949Z</time></trkpt><trkpt lat="45.6593" lon="8.0575883"><ele>1350.8000000000002</ele><time>2026-04-04T07:45:12.949Z</time></trkpt><trkpt lat="45.6592333" lon="8.0574767"><ele>1347.2</ele><time>2026-04-04T07:45:13.948Z</time></trkpt><trkpt lat="45.6591883" lon="8.0573283"><ele>1343.6</ele><time>2026-04-04T07:45:14.949Z</time></trkpt><trkpt lat="45.6591617" lon="8.0571567"><ele>1340.0</ele><time>2026-04-04T07:45:15.949Z</time></trkpt><trkpt lat="45.6591417" lon="8.0569433"><ele>1340.0</ele><time>2026-04-04T07:45:16.949Z</time></trkpt><trkpt lat="45.6591233" lon="8.056715"><ele>1340.0</ele><time>2026-04-04T07:45:17.949Z</time></trkpt><trkpt lat="45.6590867" lon="8.056495"><ele>1340.0</ele><time>2026-04-04T07:45:18.949Z</time></trkpt><trkpt lat="45.659025" lon="8.0563033"><ele>1342.25</ele><time>2026-04-04T07:45:19.949Z</time></trkpt><trkpt lat="45.6589417" lon="8.0561283"><ele>1344.5</ele><time>2026-04-04T07:45:20.949Z</time></trkpt><trkpt lat="45.6588333" lon="8.055985"><ele>1346.75</ele><time>2026-04-04T07:45:21.948Z</time></trkpt><trkpt lat="45.6587067" lon="8.05586"><ele>1349.0</ele><time>2026-04-04T07:45:22.949Z</time></trkpt><trkpt lat="45.6585567" lon="8.0557683"><ele>1349.0</ele><time>2026-04-04T07:45:23.948Z</time></trkpt><trkpt lat="45.6583967" lon="8.0557167"><ele>1349.0</ele><time>2026-04-04T07:45:24.949Z</time></trkpt><trkpt lat="45.6582433" lon="8.05568"><ele>1349.0</ele><time>2026-04-04T07:45:25.949Z</time></trkpt><trkpt lat="45.658095" lon="8.0556467"><ele>1349.0</ele><time>2026-04-04T07:45:26.949Z</time></trkpt><trkpt lat="45.6579733" lon="8.0555883"><ele>1349.0</ele><time>2026-04-04T07:45:27.949Z</time></trkpt><trkpt lat="45.6578767" lon="8.0555183"><ele>1349.0</ele><time>2026-04-04T07:45:28.949Z</time></trkpt><trkpt lat="45.6578" lon="8.0554117"><ele>1349.0</ele><time>2026-04-04T07:45:29.949Z</time></trkpt><trkpt lat="45.6577567" lon="8.0552767"><ele>1349.0</ele><time>2026-04-04T07:45:30.949Z</time></trkpt><trkpt lat="45.6577317" lon="8.055095"><ele>1340.0</ele><time>2026-04-04T07:45:31.949Z</time></trkpt><trkpt lat="45.6577033" lon="8.0548783"><ele>1331.0</ele><time>2026-04-04T07:45:32.949Z</time></trkpt><trkpt lat="45.65767" lon="8.054645"><ele>1322.0</ele><time>2026-04-04T07:45:33.949Z</time></trkpt><trkpt lat="45.6576317" lon="8.0544283"><ele>1322.0</ele><time>2026-04-04T07:45:34.948Z</time></trkpt><trkpt lat="45.6576033" lon="8.0542217"><ele>1322.0</ele><time>2026-04-04T07:45:35.949Z</time></trkpt><trkpt lat="45.6575683" lon="8.0540267"><ele>1322.0</ele><time>2026-04-04T07:45:36.949Z</time></trkpt><trkpt lat="45.6575333" lon="8.0538467"><ele>1322.0</ele><time>2026-04-04T07:45:37.949Z</time></trkpt><trkpt lat="45.6574983" lon="8.0536633"><ele>1323.25</ele><time>2026-04-04T07:45:38.949Z</time></trkpt><trkpt lat="45.657475" lon="8.0534733"><ele>1324.5</ele><time>2026-04-04T07:45:39.949Z</time></trkpt><trkpt lat="45.6574567" lon="8.05327"><ele>1325.75</ele><time>2026-04-04T07:45:40.949Z</time></trkpt><trkpt lat="45.6574433" lon="8.0530467"><ele>1327.0</ele><time>2026-04-04T07:45:41.949Z</time></trkpt><trkpt lat="45.6574467" lon="8.05282"><ele>1327.5</ele><time>2026-04-04T07:45:42.949Z</time></trkpt><trkpt lat="45.6574533" lon="8.0525983"><ele>1328.0</ele><time>2026-04-04T07:45:43.949Z</time></trkpt><trkpt lat="45.6574683" lon="8.05241"><ele>1328.5</ele><time>2026-04-04T07:45:44.949Z</time></trkpt><trkpt lat="45.65747" lon="8.0522517"><ele>1329.0</ele><time>2026-04-04T07:45:45.949Z</time></trkpt><trkpt lat="45.6574367" lon="8.0521033"><ele>1331.75</ele><time>2026-04-04T07:45:46.949Z</time></trkpt><trkpt lat="45.65737" lon="8.0519717"><ele>1334.5</ele><time>2026-04-04T07:45:47.949Z</time></trkpt><trkpt lat="45.6572883" lon="8.0518733"><ele>1337.25</ele><time>2026-04-04T07:45:48.949Z</time></trkpt><trkpt lat="45.6571767" lon="8.0518233"><ele>1340.0</ele><time>2026-04-04T07:45:49.949Z</time></trkpt><trkpt lat="45.6570483" lon="8.0518083"><ele>1334.5</ele><time>2026-04-04T07:45:50.949Z</time></trkpt><trkpt lat="45.6569067" lon="8.0518117"><ele>1329.0</ele><time>2026-04-04T07:45:51.949Z</time></trkpt><trkpt lat="45.65677" lon="8.0518067"><ele>1323.5</ele><time>2026-04-04T07:45:52.949Z</time></trkpt><trkpt lat="45.656635" lon="8.0517917"><ele>1318.0</ele><time>2026-04-04T07:45:53.949Z</time></trkpt><trkpt lat="45.6565033" lon="8.0517533"><ele>1318.0</ele><time>2026-04-04T07:45:54.949Z</time></trkpt><trkpt lat="45.6563917" lon="8.0516467"><ele>1318.0</ele><time>2026-04-04T07:45:55.949Z</time></trkpt><trkpt lat="45.6562733" lon="8.0514983"><ele>1318.0</ele><time>2026-04-04T07:45:56.949Z</time></trkpt><trkpt lat="45.6561467" lon="8.05132"><ele>1316.0</ele><time>2026-04-04T07:45:57.949Z</time></trkpt><trkpt lat="45.65601" lon="8.0511117"><ele>1314.0</ele><time>2026-04-04T07:45:58.949Z</time></trkpt><trkpt lat="45.655865" lon="8.0508933"><ele>1312.0</ele><time>2026-04-04T07:45:59.949Z</time></trkpt><trkpt lat="45.65572" lon="8.05067"><ele>1317.0</ele><time>2026-04-04T07:46:00.949Z</time></trkpt><trkpt lat="45.65559" lon="8.0504717"><ele>1322.0</ele><time>2026-04-04T07:46:01.948Z</time></trkpt><trkpt lat="45.6554683" lon="8.050295"><ele>1327.0</ele><time>2026-04-04T07:46:02.949Z</time></trkpt><trkpt lat="45.6553567" lon="8.0501183"><ele>1321.6666666666665</ele><time>2026-04-04T07:46:03.949Z</time></trkpt><trkpt lat="45.65525" lon="8.0499433"><ele>1316.3333333333333</ele><time>2026-04-04T07:46:04.949Z</time></trkpt><trkpt lat="45.6551567" lon="8.04978"><ele>1311.0</ele><time>2026-04-04T07:46:05.949Z</time></trkpt><trkpt lat="45.6550917" lon="8.0495983"><ele>1311.0</ele><time>2026-04-04T07:46:06.949Z</time></trkpt><trkpt lat="45.6550433" lon="8.0493867"><ele>1311.0</ele><time>2026-04-04T07:46:07.949Z</time></trkpt><trkpt lat="45.6549933" lon="8.049145"><ele>1311.0</ele><time>2026-04-04T07:46:08.949Z</time></trkpt><trkpt lat="45.65494" lon="8.0488967"><ele>1312.0</ele><time>2026-04-04T07:46:09.949Z</time></trkpt><trkpt lat="45.6548817" lon="8.0486367"><ele>1313.0</ele><time>2026-04-04T07:46:10.949Z</time></trkpt><trkpt lat="45.6548217" lon="8.0483867"><ele>1314.0</ele><time>2026-04-04T07:46:11.949Z</time></trkpt><trkpt lat="45.6547667" lon="8.048155"><ele>1314.75</ele><time>2026-04-04T07:46:12.949Z</time></trkpt><trkpt lat="45.6547117" lon="8.04794"><ele>1315.5</ele><time>2026-04-04T07:46:13.949Z</time></trkpt><trkpt lat="45.654675" lon="8.0477483"><ele>1316.25</ele><time>2026-04-04T07:46:14.949Z</time></trkpt><trkpt lat="45.6546333" lon="8.0475433"><ele>1317.0</ele><time>2026-04-04T07:46:15.948Z</time></trkpt><trkpt lat="45.6545933" lon="8.0473283"><ele>1319.0</ele><time>2026-04-04T07:46:16.949Z</time></trkpt><trkpt lat="45.6545367" lon="8.0471083"><ele>1321.0</ele><time>2026-04-04T07:46:17.949Z</time></trkpt><trkpt lat="45.6544817" lon="8.04689"><ele>1323.0</ele><time>2026-04-04T07:46:18.949Z</time></trkpt><trkpt lat="45.654435" lon="8.04669"><ele>1322.5</ele><time>2026-04-04T07:46:19.949Z</time></trkpt><trkpt lat="45.6543717" lon="8.046505"><ele>1322.0</ele><time>2026-04-04T07:46:20.949Z</time></trkpt><trkpt lat="45.6542883" lon="8.0463383"><ele>1321.5</ele><time>2026-04-04T07:46:21.949Z</time></trkpt><trkpt lat="45.6541967" lon="8.0462067"><ele>1321.0</ele><time>2026-04-04T07:46:22.949Z</time></trkpt><trkpt lat="45.6540683" lon="8.0461183"><ele>1321.0</ele><time>2026-04-04T07:46:23.949Z</time></trkpt><trkpt lat="45.65392" lon="8.0460783"><ele>1321.0</ele><time>2026-04-04T07:46:24.949Z</time></trkpt><trkpt lat="45.6537517" lon="8.04608"><ele>1321.0</ele><time>2026-04-04T07:46:25.949Z</time></trkpt><trkpt lat="45.6535833" lon="8.0460883"><ele>1316.3333333333333</ele><time>2026-04-04T07:46:26.949Z</time></trkpt><trkpt lat="45.6534117" lon="8.04608"><ele>1311.6666666666667</ele><time>2026-04-04T07:46:27.948Z</time></trkpt><trkpt lat="45.65326" lon="8.0460733"><ele>1307.0</ele><time>2026-04-04T07:46:28.949Z</time></trkpt><trkpt lat="45.6531233" lon="8.0460567"><ele>1307.0</ele><time>2026-04-04T07:46:29.948Z</time></trkpt><trkpt lat="45.6530017" lon="8.0460133"><ele>1307.0</ele><time>2026-04-04T07:46:30.949Z</time></trkpt><trkpt lat="45.6529033" lon="8.0459333"><ele>1307.0</ele><time>2026-04-04T07:46:31.949Z</time></trkpt><trkpt lat="45.6528217" lon="8.045805"><ele>1307.0</ele><time>2026-04-04T07:46:32.949Z</time></trkpt><trkpt lat="45.65275" lon="8.0456417"><ele>1306.0</ele><time>2026-04-04T07:46:33.949Z</time></trkpt><trkpt lat="45.652685" lon="8.04546"><ele>1305.0</ele><time>2026-04-04T07:46:34.949Z</time></trkpt><trkpt lat="45.6525967" lon="8.0452783"><ele>1304.0</ele><time>2026-04-04T07:46:35.948Z</time></trkpt><trkpt lat="45.6524983" lon="8.045135"><ele>1303.0</ele><time>2026-04-04T07:46:36.949Z</time></trkpt><trkpt lat="45.6523817" lon="8.0450367"><ele>1301.0</ele><time>2026-04-04T07:46:37.949Z</time></trkpt><trkpt lat="45.6522567" lon="8.04496"><ele>1299.0</ele><time>2026-04-04T07:46:38.949Z</time></trkpt><trkpt lat="45.652105" lon="8.04488"><ele>1297.0</ele><time>2026-04-04T07:46:39.949Z</time></trkpt><trkpt lat="45.6519433" lon="8.0448017"><ele>1297.0</ele><time>2026-04-04T07:46:40.948Z</time></trkpt><trkpt lat="45.651785" lon="8.044715"><ele>1297.0</ele><time>2026-04-04T07:46:41.949Z</time></trkpt><trkpt lat="45.651635" lon="8.0446517"><ele>1297.0</ele><time>2026-04-04T07:46:42.949Z</time></trkpt><trkpt lat="45.6515133" lon="8.0445683"><ele>1297.0</ele><time>2026-04-04T07:46:43.949Z</time></trkpt><trkpt lat="45.6514083" lon="8.0444633"><ele>1297.0</ele><time>2026-04-04T07:46:44.949Z</time></trkpt><trkpt lat="45.6513433" lon="8.0443317"><ele>1297.0</ele><time>2026-04-04T07:46:45.949Z</time></trkpt><trkpt lat="45.6513017" lon="8.0441667"><ele>1297.0</ele><time>2026-04-04T07:46:46.949Z</time></trkpt><trkpt lat="45.6513117" lon="8.0439833"><ele>1297.3333333333333</ele><time>2026-04-04T07:46:47.949Z</time></trkpt><trkpt lat="45.65135" lon="8.0437733"><ele>1297.6666666666667</ele><time>2026-04-04T07:46:48.949Z</time></trkpt><trkpt lat="45.6513967" lon="8.0435217"><ele>1298.0</ele><time>2026-04-04T07:46:49.949Z</time></trkpt><trkpt lat="45.651445" lon="8.04326"><ele>1294.6666666666667</ele><time>2026-04-04T07:46:50.949Z</time></trkpt><trkpt lat="45.6514917" lon="8.04301"><ele>1291.3333333333333</ele><time>2026-04-04T07:46:51.949Z</time></trkpt><trkpt lat="45.6515317" lon="8.0427933"><ele>1288.0</ele><time>2026-04-04T07:46:52.949Z</time></trkpt><trkpt lat="45.65159" lon="8.0425967"><ele>1282.3333333333333</ele><time>2026-04-04T07:46:53.949Z</time></trkpt><trkpt lat="45.65168" lon="8.0424083"><ele>1276.6666666666667</ele><time>2026-04-04T07:46:54.949Z</time></trkpt><trkpt lat="45.651795" lon="8.042215"><ele>1271.0</ele><time>2026-04-04T07:46:55.949Z</time></trkpt><trkpt lat="45.6519167" lon="8.042035"><ele>1273.6666666666667</ele><time>2026-04-04T07:46:56.949Z</time></trkpt><trkpt lat="45.6520433" lon="8.04186"><ele>1276.3333333333333</ele><time>2026-04-04T07:46:57.949Z</time></trkpt><trkpt lat="45.6521483" lon="8.0417167"><ele>1279.0</ele><time>2026-04-04T07:46:58.949Z</time></trkpt><trkpt lat="45.6522367" lon="8.0415833"><ele>1279.0</ele><time>2026-04-04T07:46:59.949Z</time></trkpt><trkpt lat="45.6523" lon="8.0414817"><ele>1279.0</ele><time>2026-04-04T07:47:00.949Z</time></trkpt><trkpt lat="45.6523467" lon="8.0414"><ele>1279.0</ele><time>2026-04-04T07:47:01.948Z</time></trkpt><trkpt lat="45.6524033" lon="8.041345"><ele>1279.0</ele><time>2026-04-04T07:47:03.949Z</time></trkpt><trkpt lat="45.6524567" lon="8.0412483"><ele>1279.0</ele><time>2026-04-04T07:48:12.949Z</time></trkpt><trkpt lat="45.6524967" lon="8.0411667"><ele>1279.0</ele><time>2026-04-04T07:48:14.948Z</time></trkpt><trkpt lat="45.6525417" lon="8.0411033"><ele>1279.0</ele><time>2026-04-04T07:48:15.948Z</time></trkpt><trkpt lat="45.6526017" lon="8.04101"><ele>1279.0</ele><time>2026-04-04T07:48:16.949Z</time></trkpt><trkpt lat="45.65268" lon="8.0408933"><ele>1279.0</ele><time>2026-04-04T07:48:17.949Z</time></trkpt><trkpt lat="45.6527767" lon="8.040755"><ele>1279.0</ele><time>2026-04-04T07:48:18.949Z</time></trkpt><trkpt lat="45.6529083" lon="8.04058"><ele>1281.0</ele><time>2026-04-04T07:48:19.949Z</time></trkpt><trkpt lat="45.6530317" lon="8.0404117"><ele>1283.0</ele><time>2026-04-04T07:48:20.949Z</time></trkpt><trkpt lat="45.6531167" lon="8.0402733"><ele>1285.0</ele><time>2026-04-04T07:48:21.949Z</time></trkpt><trkpt lat="45.653175" lon="8.0401267"><ele>1287.0</ele><time>2026-04-04T07:48:22.948Z</time></trkpt><trkpt lat="45.653225" lon="8.0399833"><ele>1283.5</ele><time>2026-04-04T07:48:23.949Z</time></trkpt><trkpt lat="45.653275" lon="8.0398"><ele>1280.0</ele><time>2026-04-04T07:48:24.949Z</time></trkpt><trkpt lat="45.653315" lon="8.03962"><ele>1276.5</ele><time>2026-04-04T07:48:25.949Z</time></trkpt><trkpt lat="45.6533617" lon="8.039405"><ele>1273.0</ele><time>2026-04-04T07:48:26.948Z</time></trkpt><trkpt lat="45.6534033" lon="8.0391867"><ele>1270.0</ele><time>2026-04-04T07:48:27.949Z</time></trkpt><trkpt lat="45.6534467" lon="8.0389717"><ele>1267.0</ele><time>2026-04-04T07:48:28.949Z</time></trkpt><trkpt lat="45.6534867" lon="8.03874"><ele>1264.0</ele><time>2026-04-04T07:48:29.949Z</time></trkpt><trkpt lat="45.65353" lon="8.0385183"><ele>1262.3333333333333</ele><time>2026-04-04T07:48:30.949Z</time></trkpt><trkpt lat="45.653575" lon="8.03829"><ele>1260.6666666666667</ele><time>2026-04-04T07:48:31.949Z</time></trkpt><trkpt lat="45.65361" lon="8.0380767"><ele>1259.0</ele><time>2026-04-04T07:48:32.948Z</time></trkpt><trkpt lat="45.6536333" lon="8.0378833"><ele>1258.0</ele><time>2026-04-04T07:48:33.948Z</time></trkpt><trkpt lat="45.6536433" lon="8.0377167"><ele>1257.0</ele><time>2026-04-04T07:48:34.948Z</time></trkpt><trkpt lat="45.6536283" lon="8.0375483"><ele>1256.0</ele><time>2026-04-04T07:48:35.948Z</time></trkpt><trkpt lat="45.653585" lon="8.0373683"><ele>1255.0</ele><time>2026-04-04T07:48:36.948Z</time></trkpt><trkpt lat="45.6535283" lon="8.0371867"><ele>1255.0</ele><time>2026-04-04T07:48:37.948Z</time></trkpt><trkpt lat="45.65348" lon="8.0370167"><ele>1255.0</ele><time>2026-04-04T07:48:38.948Z</time></trkpt><trkpt lat="45.653445" lon="8.0368783"><ele>1255.0</ele><time>2026-04-04T07:48:39.948Z</time></trkpt><trkpt lat="45.65343" lon="8.03676"><ele>1255.0</ele><time>2026-04-04T07:48:40.948Z</time></trkpt><trkpt lat="45.6534417" lon="8.0366467"><ele>1255.0</ele><time>2026-04-04T07:48:41.948Z</time></trkpt><trkpt lat="45.6534783" lon="8.0365317"><ele>1254.0</ele><time>2026-04-04T07:48:42.948Z</time></trkpt><trkpt lat="45.6535333" lon="8.0364217"><ele>1253.0</ele><time>2026-04-04T07:48:43.948Z</time></trkpt><trkpt lat="45.6535883" lon="8.0363533"><ele>1252.0</ele><time>2026-04-04T07:48:44.948Z</time></trkpt><trkpt lat="45.6536883" lon="8.0363017"><ele>1251.0</ele><time>2026-04-04T07:48:45.948Z</time></trkpt><trkpt lat="45.6538233" lon="8.0362883"><ele>1250.0</ele><time>2026-04-04T07:48:46.948Z</time></trkpt><trkpt lat="45.6539783" lon="8.0363017"><ele>1250.0</ele><time>2026-04-04T07:48:47.948Z</time></trkpt><trkpt lat="45.65416" lon="8.036315"><ele>1250.0</ele><time>2026-04-04T07:48:48.947Z</time></trkpt><trkpt lat="45.6543567" lon="8.0363283"><ele>1250.0</ele><time>2026-04-04T07:48:49.948Z</time></trkpt><trkpt lat="45.6545583" lon="8.0363417"><ele>1247.6666666666667</ele><time>2026-04-04T07:48:50.948Z</time></trkpt><trkpt lat="45.6547683" lon="8.0363533"><ele>1245.3333333333333</ele><time>2026-04-04T07:48:51.948Z</time></trkpt><trkpt lat="45.6549783" lon="8.03636"><ele>1243.0</ele><time>2026-04-04T07:48:52.948Z</time></trkpt><trkpt lat="45.6551867" lon="8.0363617"><ele>1242.3333333333333</ele><time>2026-04-04T07:48:53.948Z</time></trkpt><trkpt lat="45.6553767" lon="8.0363667"><ele>1241.6666666666667</ele><time>2026-04-04T07:48:54.947Z</time></trkpt><trkpt lat="45.6555683" lon="8.0363733"><ele>1241.0</ele><time>2026-04-04T07:48:55.947Z</time></trkpt><trkpt lat="45.6557467" lon="8.0363667"><ele>1241.0</ele><time>2026-04-04T07:48:56.948Z</time></trkpt><trkpt lat="45.6559167" lon="8.0363867"><ele>1241.0</ele><time>2026-04-04T07:48:57.948Z</time></trkpt><trkpt lat="45.6560717" lon="8.0363783"><ele>1241.0</ele><time>2026-04-04T07:48:58.948Z</time></trkpt><trkpt lat="45.6561983" lon="8.0363717"><ele>1242.8</ele><time>2026-04-04T07:48:59.948Z</time></trkpt><trkpt lat="45.65631" lon="8.0363533"><ele>1244.6</ele><time>2026-04-04T07:49:00.948Z</time></trkpt><trkpt lat="45.6564017" lon="8.0363267"><ele>1246.4</ele><time>2026-04-04T07:49:01.948Z</time></trkpt><trkpt lat="45.6564767" lon="8.0362683"><ele>1248.2</ele><time>2026-04-04T07:49:02.948Z</time></trkpt><trkpt lat="45.6565517" lon="8.0361767"><ele>1250.0</ele><time>2026-04-04T07:49:03.948Z</time></trkpt><trkpt lat="45.6565983" lon="8.0360483"><ele>1250.0</ele><time>2026-04-04T07:49:04.948Z</time></trkpt><trkpt lat="45.656625" lon="8.0358967"><ele>1250.0</ele><time>2026-04-04T07:49:05.948Z</time></trkpt><trkpt lat="45.65663" lon="8.0357117"><ele>1250.0</ele><time>2026-04-04T07:49:06.948Z</time></trkpt><trkpt lat="45.6566267" lon="8.035485"><ele>1250.0</ele><time>2026-04-04T07:49:07.948Z</time></trkpt><trkpt lat="45.6566267" lon="8.0352467"><ele>1247.0</ele><time>2026-04-04T07:49:08.948Z</time></trkpt><trkpt lat="45.6566333" lon="8.0350333"><ele>1244.0</ele><time>2026-04-04T07:49:09.948Z</time></trkpt><trkpt lat="45.656645" lon="8.0348467"><ele>1241.0</ele><time>2026-04-04T07:49:10.948Z</time></trkpt><trkpt lat="45.65667" lon="8.0346883"><ele>1238.0</ele><time>2026-04-04T07:49:11.948Z</time></trkpt><trkpt lat="45.656715" lon="8.0345517"><ele>1236.75</ele><time>2026-04-04T07:49:12.948Z</time></trkpt><trkpt lat="45.6567733" lon="8.0344283"><ele>1235.5</ele><time>2026-04-04T07:49:13.948Z</time></trkpt><trkpt lat="45.65685" lon="8.03432"><ele>1234.25</ele><time>2026-04-04T07:49:14.947Z</time></trkpt><trkpt lat="45.6569517" lon="8.0342033"><ele>1233.0</ele><time>2026-04-04T07:49:15.948Z</time></trkpt><trkpt lat="45.6570733" lon="8.034075"><ele>1233.0</ele><time>2026-04-04T07:49:16.948Z</time></trkpt><trkpt lat="45.6572117" lon="8.033935"><ele>1233.0</ele><time>2026-04-04T07:49:17.948Z</time></trkpt><trkpt lat="45.6573583" lon="8.0337767"><ele>1233.0</ele><time>2026-04-04T07:49:18.948Z</time></trkpt><trkpt lat="45.6575067" lon="8.0336133"><ele>1233.0</ele><time>2026-04-04T07:49:19.948Z</time></trkpt><trkpt lat="45.6576633" lon="8.0334517"><ele>1233.0</ele><time>2026-04-04T07:49:20.948Z</time></trkpt><trkpt lat="45.6578317" lon="8.03328"><ele>1233.0</ele><time>2026-04-04T07:49:21.948Z</time></trkpt><trkpt lat="45.6580033" lon="8.0331"><ele>1232.0</ele><time>2026-04-04T07:49:22.947Z</time></trkpt><trkpt lat="45.6581783" lon="8.0329117"><ele>1231.0</ele><time>2026-04-04T07:49:23.948Z</time></trkpt><trkpt lat="45.65834" lon="8.0327283"><ele>1230.0</ele><time>2026-04-04T07:49:24.948Z</time></trkpt><trkpt lat="45.65849" lon="8.032555"><ele>1225.6666666666667</ele><time>2026-04-04T07:49:25.948Z</time></trkpt><trkpt lat="45.6586317" lon="8.0323917"><ele>1221.3333333333335</ele><time>2026-04-04T07:49:26.948Z</time></trkpt><trkpt lat="45.6587633" lon="8.0322533"><ele>1217.0</ele><time>2026-04-04T07:49:27.948Z</time></trkpt><trkpt lat="45.6588867" lon="8.0321317"><ele>1217.0</ele><time>2026-04-04T07:49:28.948Z</time></trkpt><trkpt lat="45.6589967" lon="8.0320333"><ele>1217.0</ele><time>2026-04-04T07:49:29.948Z</time></trkpt><trkpt lat="45.6591117" lon="8.0319667"><ele>1217.0</ele><time>2026-04-04T07:49:30.948Z</time></trkpt><trkpt lat="45.6592483" lon="8.0319333"><ele>1217.0</ele><time>2026-04-04T07:49:31.948Z</time></trkpt><trkpt lat="45.6594133" lon="8.0319283"><ele>1216.3333333333335</ele><time>2026-04-04T07:49:32.948Z</time></trkpt><trkpt lat="45.6595867" lon="8.0319483"><ele>1215.6666666666667</ele><time>2026-04-04T07:49:33.948Z</time></trkpt><trkpt lat="45.6597633" lon="8.03197"><ele>1215.0</ele><time>2026-04-04T07:49:34.948Z</time></trkpt><trkpt lat="45.65994" lon="8.03199"><ele>1215.0</ele><time>2026-04-04T07:49:35.947Z</time></trkpt><trkpt lat="45.6601067" lon="8.0320067"><ele>1215.0</ele><time>2026-04-04T07:49:36.948Z</time></trkpt><trkpt lat="45.6602533" lon="8.0320017"><ele>1215.0</ele><time>2026-04-04T07:49:37.948Z</time></trkpt><trkpt lat="45.66039" lon="8.0319767"><ele>1216.5</ele><time>2026-04-04T07:49:38.948Z</time></trkpt><trkpt lat="45.6605167" lon="8.03193"><ele>1218.0</ele><time>2026-04-04T07:49:39.948Z</time></trkpt><trkpt lat="45.6606267" lon="8.0318517"><ele>1219.5</ele><time>2026-04-04T07:49:40.948Z</time></trkpt><trkpt lat="45.6607417" lon="8.0317383"><ele>1221.0</ele><time>2026-04-04T07:49:41.947Z</time></trkpt><trkpt lat="45.660835" lon="8.031565"><ele>1217.75</ele><time>2026-04-04T07:49:42.948Z</time></trkpt><trkpt lat="45.660915" lon="8.031375"><ele>1214.5</ele><time>2026-04-04T07:49:43.948Z</time></trkpt><trkpt lat="45.6609783" lon="8.031185"><ele>1211.25</ele><time>2026-04-04T07:49:44.948Z</time></trkpt><trkpt lat="45.6610233" lon="8.031"><ele>1208.0</ele><time>2026-04-04T07:49:45.948Z</time></trkpt><trkpt lat="45.6610717" lon="8.030855"><ele>1204.6</ele><time>2026-04-04T07:49:46.948Z</time></trkpt><trkpt lat="45.66112" lon="8.030755"><ele>1201.1999999999998</ele><time>2026-04-04T07:49:47.948Z</time></trkpt><trkpt lat="45.6611833" lon="8.0306917"><ele>1197.8</ele><time>2026-04-04T07:49:48.948Z</time></trkpt><trkpt lat="45.661255" lon="8.0306433"><ele>1194.3999999999999</ele><time>2026-04-04T07:49:49.948Z</time></trkpt><trkpt lat="45.6613567" lon="8.0306383"><ele>1191.0</ele><time>2026-04-04T07:49:50.948Z</time></trkpt><trkpt lat="45.6614683" lon="8.0306683"><ele>1191.0</ele><time>2026-04-04T07:49:51.948Z</time></trkpt><trkpt lat="45.66161" lon="8.0307217"><ele>1191.0</ele><time>2026-04-04T07:49:52.948Z</time></trkpt><trkpt lat="45.6617717" lon="8.0307883"><ele>1191.0</ele><time>2026-04-04T07:49:53.948Z</time></trkpt><trkpt lat="45.6619233" lon="8.0308517"><ele>1196.0</ele><time>2026-04-04T07:49:54.948Z</time></trkpt><trkpt lat="45.66205" lon="8.0308717"><ele>1201.0</ele><time>2026-04-04T07:49:55.948Z</time></trkpt><trkpt lat="45.662165" lon="8.0308617"><ele>1206.0</ele><time>2026-04-04T07:49:56.948Z</time></trkpt><trkpt lat="45.6622617" lon="8.030795"><ele>1211.0</ele><time>2026-04-04T07:49:57.948Z</time></trkpt><trkpt lat="45.6623417" lon="8.0306817"><ele>1211.0</ele><time>2026-04-04T07:49:58.948Z</time></trkpt><trkpt lat="45.6624067" lon="8.03052"><ele>1211.0</ele><time>2026-04-04T07:49:59.948Z</time></trkpt><trkpt lat="45.6624267" lon="8.0303417"><ele>1211.0</ele><time>2026-04-04T07:50:00.948Z</time></trkpt><trkpt lat="45.6624217" lon="8.0301333"><ele>1211.0</ele><time>2026-04-04T07:50:01.948Z</time></trkpt><trkpt lat="45.6624033" lon="8.0299033"><ele>1212.3333333333335</ele><time>2026-04-04T07:50:02.948Z</time></trkpt><trkpt lat="45.6623867" lon="8.0296533"><ele>1213.6666666666667</ele><time>2026-04-04T07:50:03.947Z</time></trkpt><trkpt lat="45.662375" lon="8.02939"><ele>1215.0</ele><time>2026-04-04T07:50:04.948Z</time></trkpt><trkpt lat="45.66236" lon="8.02913"><ele>1216.0</ele><time>2026-04-04T07:50:05.948Z</time></trkpt><trkpt lat="45.6623417" lon="8.0288817"><ele>1217.0</ele><time>2026-04-04T07:50:06.948Z</time></trkpt><trkpt lat="45.6623117" lon="8.0286483"><ele>1218.0</ele><time>2026-04-04T07:50:07.948Z</time></trkpt><trkpt lat="45.662275" lon="8.0284367"><ele>1214.25</ele><time>2026-04-04T07:50:08.948Z</time></trkpt><trkpt lat="45.6622317" lon="8.0282483"><ele>1210.5</ele><time>2026-04-04T07:50:09.948Z</time></trkpt><trkpt lat="45.6621983" lon="8.0280667"><ele>1206.75</ele><time>2026-04-04T07:50:10.948Z</time></trkpt><trkpt lat="45.662195" lon="8.027905"><ele>1203.0</ele><time>2026-04-04T07:50:11.947Z</time></trkpt><trkpt lat="45.6622233" lon="8.027755"><ele>1203.0</ele><time>2026-04-04T07:50:12.947Z</time></trkpt><trkpt lat="45.6622817" lon="8.0276233"><ele>1203.0</ele><time>2026-04-04T07:50:13.948Z</time></trkpt><trkpt lat="45.6623417" lon="8.027535"><ele>1203.0</ele><time>2026-04-04T07:50:14.948Z</time></trkpt><trkpt lat="45.6624167" lon="8.0274733"><ele>1203.0</ele><time>2026-04-04T07:50:15.947Z</time></trkpt><trkpt lat="45.6625183" lon="8.027425"><ele>1203.0</ele><time>2026-04-04T07:50:16.947Z</time></trkpt><trkpt lat="45.662645" lon="8.0273833"><ele>1194.6666666666667</ele><time>2026-04-04T07:50:17.948Z</time></trkpt><trkpt lat="45.6628" lon="8.0273267"><ele>1186.3333333333335</ele><time>2026-04-04T07:50:18.948Z</time></trkpt><trkpt lat="45.6629783" lon="8.02726"><ele>1178.0</ele><time>2026-04-04T07:50:19.947Z</time></trkpt><trkpt lat="45.6631783" lon="8.02721"><ele>1178.0</ele><time>2026-04-04T07:50:20.948Z</time></trkpt><trkpt lat="45.6633783" lon="8.0271617"><ele>1178.0</ele><time>2026-04-04T07:50:21.948Z</time></trkpt><trkpt lat="45.6635667" lon="8.02711"><ele>1178.0</ele><time>2026-04-04T07:50:22.947Z</time></trkpt><trkpt lat="45.6637583" lon="8.0270917"><ele>1180.6666666666667</ele><time>2026-04-04T07:50:23.948Z</time></trkpt><trkpt lat="45.6639267" lon="8.0270583"><ele>1183.3333333333333</ele><time>2026-04-04T07:50:24.948Z</time></trkpt><trkpt lat="45.66409" lon="8.0270233"><ele>1186.0</ele><time>2026-04-04T07:50:25.948Z</time></trkpt><trkpt lat="45.6642567" lon="8.0270067"><ele>1186.0</ele><time>2026-04-04T07:50:26.948Z</time></trkpt><trkpt lat="45.6644233" lon="8.0269917"><ele>1186.0</ele><time>2026-04-04T07:50:27.948Z</time></trkpt><trkpt lat="45.6646067" lon="8.026945"><ele>1186.0</ele><time>2026-04-04T07:50:28.948Z</time></trkpt><trkpt lat="45.66479" lon="8.0268817"><ele>1189.0</ele><time>2026-04-04T07:50:29.948Z</time></trkpt><trkpt lat="45.66496" lon="8.0268083"><ele>1192.0</ele><time>2026-04-04T07:50:30.948Z</time></trkpt><trkpt lat="45.6651133" lon="8.02674"><ele>1195.0</ele><time>2026-04-04T07:50:31.948Z</time></trkpt><trkpt lat="45.6652583" lon="8.02669"><ele>1195.75</ele><time>2026-04-04T07:50:32.947Z</time></trkpt><trkpt lat="45.6653917" lon="8.026615"><ele>1196.5</ele><time>2026-04-04T07:50:33.948Z</time></trkpt><trkpt lat="45.6654983" lon="8.0265467"><ele>1197.25</ele><time>2026-04-04T07:50:34.948Z</time></trkpt><trkpt lat="45.6655783" lon="8.026465"><ele>1198.0</ele><time>2026-04-04T07:50:35.948Z</time></trkpt><trkpt lat="45.6656533" lon="8.0263283"><ele>1198.0</ele><time>2026-04-04T07:50:36.948Z</time></trkpt><trkpt lat="45.6657017" lon="8.0261633"><ele>1198.0</ele><time>2026-04-04T07:50:37.948Z</time></trkpt><trkpt lat="45.665715" lon="8.0259667"><ele>1198.0</ele><time>2026-04-04T07:50:38.948Z</time></trkpt><trkpt lat="45.6657217" lon="8.0257717"><ele>1198.0</ele><time>2026-04-04T07:50:39.948Z</time></trkpt><trkpt lat="45.6657367" lon="8.0255667"><ele>1195.5</ele><time>2026-04-04T07:50:40.948Z</time></trkpt><trkpt lat="45.66578" lon="8.02537"><ele>1193.0</ele><time>2026-04-04T07:50:41.947Z</time></trkpt><trkpt lat="45.6658533" lon="8.02519"><ele>1190.5</ele><time>2026-04-04T07:50:42.948Z</time></trkpt><trkpt lat="45.665945" lon="8.02502"><ele>1188.0</ele><time>2026-04-04T07:50:43.948Z</time></trkpt><trkpt lat="45.666035" lon="8.0248517"><ele>1193.25</ele><time>2026-04-04T07:50:44.947Z</time></trkpt><trkpt lat="45.6661133" lon="8.0246933"><ele>1198.5</ele><time>2026-04-04T07:50:45.947Z</time></trkpt><trkpt lat="45.6661517" lon="8.02453"><ele>1203.75</ele><time>2026-04-04T07:50:46.948Z</time></trkpt><trkpt lat="45.6661583" lon="8.0243517"><ele>1209.0</ele><time>2026-04-04T07:50:47.947Z</time></trkpt><trkpt lat="45.6661217" lon="8.024175"><ele>1213.75</ele><time>2026-04-04T07:50:48.948Z</time></trkpt><trkpt lat="45.6660533" lon="8.0240367"><ele>1218.5</ele><time>2026-04-04T07:50:49.948Z</time></trkpt><trkpt lat="45.6659317" lon="8.023955"><ele>1223.25</ele><time>2026-04-04T07:50:50.948Z</time></trkpt><trkpt lat="45.665795" lon="8.0239017"><ele>1228.0</ele><time>2026-04-04T07:50:51.948Z</time></trkpt><trkpt lat="45.66563" lon="8.02389"><ele>1228.0</ele><time>2026-04-04T07:50:52.948Z</time></trkpt><trkpt lat="45.665465" lon="8.023875"><ele>1228.0</ele><time>2026-04-04T07:50:53.948Z</time></trkpt><trkpt lat="45.6652717" lon="8.0239067"><ele>1228.0</ele><time>2026-04-04T07:50:54.947Z</time></trkpt><trkpt lat="45.6650817" lon="8.0239017"><ele>1222.6666666666665</ele><time>2026-04-04T07:50:55.948Z</time></trkpt><trkpt lat="45.6648817" lon="8.0239017"><ele>1217.3333333333333</ele><time>2026-04-04T07:50:56.948Z</time></trkpt><trkpt lat="45.664695" lon="8.0239033"><ele>1212.0</ele><time>2026-04-04T07:50:57.948Z</time></trkpt><trkpt lat="45.6645217" lon="8.0239"><ele>1201.0</ele><time>2026-04-04T07:50:58.947Z</time></trkpt><trkpt lat="45.664355" lon="8.0238633"><ele>1190.0</ele><time>2026-04-04T07:50:59.948Z</time></trkpt><trkpt lat="45.6641917" lon="8.0238383"><ele>1179.0</ele><time>2026-04-04T07:51:00.948Z</time></trkpt><trkpt lat="45.6640733" lon="8.0237883"><ele>1179.0</ele><time>2026-04-04T07:51:01.948Z</time></trkpt><trkpt lat="45.663985" lon="8.0237167"><ele>1179.0</ele><time>2026-04-04T07:51:02.948Z</time></trkpt><trkpt lat="45.6639283" lon="8.0236133"><ele>1179.0</ele><time>2026-04-04T07:51:03.948Z</time></trkpt><trkpt lat="45.66391" lon="8.0234833"><ele>1179.0</ele><time>2026-04-04T07:51:04.948Z</time></trkpt><trkpt lat="45.6639117" lon="8.023335"><ele>1179.0</ele><time>2026-04-04T07:51:05.948Z</time></trkpt><trkpt lat="45.6639333" lon="8.0231583"><ele>1180.5</ele><time>2026-04-04T07:51:06.948Z</time></trkpt><trkpt lat="45.6640067" lon="8.02297"><ele>1182.0</ele><time>2026-04-04T07:51:07.947Z</time></trkpt><trkpt lat="45.6640817" lon="8.022785"><ele>1183.5</ele><time>2026-04-04T07:51:08.948Z</time></trkpt><trkpt lat="45.6641417" lon="8.0226083"><ele>1185.0</ele><time>2026-04-04T07:51:09.948Z</time></trkpt><trkpt lat="45.664155" lon="8.0224483"><ele>1189.4</ele><time>2026-04-04T07:51:10.948Z</time></trkpt><trkpt lat="45.6641233" lon="8.0223283"><ele>1193.8</ele><time>2026-04-04T07:51:11.947Z</time></trkpt><trkpt lat="45.6640517" lon="8.0222317"><ele>1198.2</ele><time>2026-04-04T07:51:12.948Z</time></trkpt><trkpt lat="45.663945" lon="8.0221633"><ele>1202.6</ele><time>2026-04-04T07:51:13.948Z</time></trkpt><trkpt lat="45.663815" lon="8.0221083"><ele>1207.0</ele><time>2026-04-04T07:51:14.948Z</time></trkpt><trkpt lat="45.663655" lon="8.022075"><ele>1201.3333333333333</ele><time>2026-04-04T07:51:15.948Z</time></trkpt><trkpt lat="45.6634717" lon="8.0220283"><ele>1195.6666666666667</ele><time>2026-04-04T07:51:16.948Z</time></trkpt><trkpt lat="45.6632867" lon="8.022"><ele>1190.0</ele><time>2026-04-04T07:51:17.948Z</time></trkpt><trkpt lat="45.6631033" lon="8.0220017"><ele>1190.0</ele><time>2026-04-04T07:51:18.948Z</time></trkpt><trkpt lat="45.6629317" lon="8.0220067"><ele>1190.0</ele><time>2026-04-04T07:51:19.948Z</time></trkpt><trkpt lat="45.6627583" lon="8.0219917"><ele>1190.0</ele><time>2026-04-04T07:51:20.948Z</time></trkpt><trkpt lat="45.6625967" lon="8.021945"><ele>1187.25</ele><time>2026-04-04T07:51:21.948Z</time></trkpt><trkpt lat="45.6624633" lon="8.02184"><ele>1184.5</ele><time>2026-04-04T07:51:22.947Z</time></trkpt><trkpt lat="45.6623383" lon="8.02175"><ele>1181.75</ele><time>2026-04-04T07:51:23.948Z</time></trkpt><trkpt lat="45.6622217" lon="8.0217233"><ele>1179.0</ele><time>2026-04-04T07:51:24.948Z</time></trkpt><trkpt lat="45.6620983" lon="8.0217483"><ele>1179.0</ele><time>2026-04-04T07:51:25.948Z</time></trkpt><trkpt lat="45.66198" lon="8.0218017"><ele>1179.0</ele><time>2026-04-04T07:51:26.948Z</time></trkpt><trkpt lat="45.6618267" lon="8.0218383"><ele>1179.0</ele><time>2026-04-04T07:51:27.948Z</time></trkpt><trkpt lat="45.6616767" lon="8.0218483"><ele>1179.0</ele><time>2026-04-04T07:51:28.948Z</time></trkpt><trkpt lat="45.6615117" lon="8.02184"><ele>1175.6666666666667</ele><time>2026-04-04T07:51:29.948Z</time></trkpt><trkpt lat="45.66134" lon="8.0218133"><ele>1172.3333333333335</ele><time>2026-04-04T07:51:30.948Z</time></trkpt><trkpt lat="45.66118" lon="8.0217717"><ele>1169.0</ele><time>2026-04-04T07:51:31.948Z</time></trkpt><trkpt lat="45.6610133" lon="8.0217117"><ele>1175.6666666666667</ele><time>2026-04-04T07:51:32.948Z</time></trkpt><trkpt lat="45.6608683" lon="8.02161"><ele>1182.3333333333333</ele><time>2026-04-04T07:51:33.948Z</time></trkpt><trkpt lat="45.6607317" lon="8.0214967"><ele>1189.0</ele><time>2026-04-04T07:51:34.948Z</time></trkpt><trkpt lat="45.6606067" lon="8.0213883"><ele>1189.0</ele><time>2026-04-04T07:51:35.948Z</time></trkpt><trkpt lat="45.660495" lon="8.021325"><ele>1189.0</ele><time>2026-04-04T07:51:36.948Z</time></trkpt><trkpt lat="45.6603733" lon="8.02132"><ele>1189.0</ele><time>2026-04-04T07:51:37.948Z</time></trkpt><trkpt lat="45.6602333" lon="8.021345"><ele>1189.0</ele><time>2026-04-04T07:51:38.948Z</time></trkpt><trkpt lat="45.6600783" lon="8.0213983"><ele>1185.3333333333333</ele><time>2026-04-04T07:51:39.948Z</time></trkpt><trkpt lat="45.6599083" lon="8.021455"><ele>1181.6666666666667</ele><time>2026-04-04T07:51:40.947Z</time></trkpt><trkpt lat="45.65973" lon="8.021485"><ele>1178.0</ele><time>2026-04-04T07:51:41.948Z</time></trkpt><trkpt lat="45.659555" lon="8.021525"><ele>1173.0</ele><time>2026-04-04T07:51:42.948Z</time></trkpt><trkpt lat="45.6594" lon="8.0215233"><ele>1168.0</ele><time>2026-04-04T07:51:43.948Z</time></trkpt><trkpt lat="45.6592417" lon="8.0214883"><ele>1163.0</ele><time>2026-04-04T07:51:44.948Z</time></trkpt><trkpt lat="45.659085" lon="8.02142"><ele>1163.0</ele><time>2026-04-04T07:51:45.948Z</time></trkpt><trkpt lat="45.658915" lon="8.0213433"><ele>1163.0</ele><time>2026-04-04T07:51:46.947Z</time></trkpt><trkpt lat="45.65875" lon="8.0212967"><ele>1163.0</ele><time>2026-04-04T07:51:47.947Z</time></trkpt><trkpt lat="45.6585917" lon="8.02128"><ele>1157.3333333333335</ele><time>2026-04-04T07:51:48.948Z</time></trkpt><trkpt lat="45.6584267" lon="8.0213033"><ele>1151.6666666666667</ele><time>2026-04-04T07:51:49.948Z</time></trkpt><trkpt lat="45.658245" lon="8.0213333"><ele>1146.0</ele><time>2026-04-04T07:51:50.947Z</time></trkpt><trkpt lat="45.6580483" lon="8.02135"><ele>1146.0</ele><time>2026-04-04T07:51:51.948Z</time></trkpt><trkpt lat="45.6578417" lon="8.0213483"><ele>1146.0</ele><time>2026-04-04T07:51:52.948Z</time></trkpt><trkpt lat="45.6576617" lon="8.0213383"><ele>1146.0</ele><time>2026-04-04T07:51:53.948Z</time></trkpt><trkpt lat="45.6575133" lon="8.0213233"><ele>1144.2</ele><time>2026-04-04T07:51:54.948Z</time></trkpt><trkpt lat="45.6573883" lon="8.0213067"><ele>1142.3999999999999</ele><time>2026-04-04T07:51:55.948Z</time></trkpt><trkpt lat="45.6572783" lon="8.0212883"><ele>1140.6</ele><time>2026-04-04T07:51:56.948Z</time></trkpt><trkpt lat="45.657185" lon="8.02125"><ele>1138.8</ele><time>2026-04-04T07:51:57.948Z</time></trkpt><trkpt lat="45.6571333" lon="8.021165"><ele>1137.0</ele><time>2026-04-04T07:51:58.947Z</time></trkpt><trkpt lat="45.65711" lon="8.02104"><ele>1137.0</ele><time>2026-04-04T07:51:59.948Z</time></trkpt><trkpt lat="45.6570933" lon="8.02093"><ele>1137.0</ele><time>2026-04-04T07:52:00.948Z</time></trkpt><trkpt lat="45.6571067" lon="8.02079"><ele>1137.0</ele><time>2026-04-04T07:52:01.948Z</time></trkpt><trkpt lat="45.6571667" lon="8.0206683"><ele>1137.0</ele><time>2026-04-04T07:52:02.947Z</time></trkpt><trkpt lat="45.6572483" lon="8.0205433"><ele>1137.0</ele><time>2026-04-04T07:52:03.948Z</time></trkpt><trkpt lat="45.657365" lon="8.0204283"><ele>1136.0</ele><time>2026-04-04T07:52:04.948Z</time></trkpt><trkpt lat="45.6575483" lon="8.0203"><ele>1135.0</ele><time>2026-04-04T07:52:05.948Z</time></trkpt><trkpt lat="45.65776" lon="8.0201667"><ele>1134.0</ele><time>2026-04-04T07:52:06.948Z</time></trkpt><trkpt lat="45.657995" lon="8.020045"><ele>1113.0</ele><time>2026-04-04T07:52:07.948Z</time></trkpt><trkpt lat="45.6582333" lon="8.0199233"><ele>1092.0</ele><time>2026-04-04T07:52:08.948Z</time></trkpt><trkpt lat="45.658435" lon="8.0198367"><ele>1092.0</ele><time>2026-04-04T07:52:09.948Z</time></trkpt><trkpt lat="45.6585783" lon="8.019755"><ele>1092.0</ele><time>2026-04-04T07:52:10.948Z</time></trkpt><trkpt lat="45.65869" lon="8.0196417"><ele>1092.0</ele><time>2026-04-04T07:52:11.948Z</time></trkpt><trkpt lat="45.6588" lon="8.0194867"><ele>1092.0</ele><time>2026-04-04T07:52:12.948Z</time></trkpt><trkpt lat="45.6588917" lon="8.019315"><ele>1101.5</ele><time>2026-04-04T07:52:13.948Z</time></trkpt><trkpt lat="45.6589567" lon="8.019135"><ele>1111.0</ele><time>2026-04-04T07:52:14.948Z</time></trkpt><trkpt lat="45.6590033" lon="8.01894"><ele>1120.5</ele><time>2026-04-04T07:52:15.948Z</time></trkpt><trkpt lat="45.6590217" lon="8.018735"><ele>1130.0</ele><time>2026-04-04T07:52:16.948Z</time></trkpt><trkpt lat="45.65901" lon="8.0185183"><ele>1125.0</ele><time>2026-04-04T07:52:17.948Z</time></trkpt><trkpt lat="45.65899" lon="8.0182767"><ele>1120.0</ele><time>2026-04-04T07:52:18.948Z</time></trkpt><trkpt lat="45.65898" lon="8.018045"><ele>1115.0</ele><time>2026-04-04T07:52:19.948Z</time></trkpt><trkpt lat="45.6589867" lon="8.01785"><ele>1115.0</ele><time>2026-04-04T07:52:20.948Z</time></trkpt><trkpt lat="45.6590233" lon="8.017655"><ele>1115.0</ele><time>2026-04-04T07:52:21.948Z</time></trkpt><trkpt lat="45.6590883" lon="8.0174483"><ele>1115.0</ele><time>2026-04-04T07:52:22.948Z</time></trkpt><trkpt lat="45.6591717" lon="8.0172467"><ele>1116.25</ele><time>2026-04-04T07:52:23.948Z</time></trkpt><trkpt lat="45.65925" lon="8.0170633"><ele>1117.5</ele><time>2026-04-04T07:52:24.948Z</time></trkpt><trkpt lat="45.6593283" lon="8.0168967"><ele>1118.75</ele><time>2026-04-04T07:52:25.948Z</time></trkpt><trkpt lat="45.6594217" lon="8.0168133"><ele>1120.0</ele><time>2026-04-04T07:52:26.947Z</time></trkpt><trkpt lat="45.6595" lon="8.0167233"><ele>1120.0</ele><time>2026-04-04T07:52:27.948Z</time></trkpt><trkpt lat="45.6595817" lon="8.0166617"><ele>1120.0</ele><time>2026-04-04T07:52:28.948Z</time></trkpt><trkpt lat="45.65968" lon="8.0166217"><ele>1120.0</ele><time>2026-04-04T07:52:29.948Z</time></trkpt><trkpt lat="45.6598083" lon="8.0166117"><ele>1120.0</ele><time>2026-04-04T07:52:30.948Z</time></trkpt><trkpt lat="45.659965" lon="8.0166033"><ele>1109.0</ele><time>2026-04-04T07:52:31.948Z</time></trkpt><trkpt lat="45.6601233" lon="8.0165433"><ele>1098.0</ele><time>2026-04-04T07:52:32.948Z</time></trkpt><trkpt lat="45.6602667" lon="8.0164117"><ele>1087.0</ele><time>2026-04-04T07:52:33.948Z</time></trkpt><trkpt lat="45.6604033" lon="8.016285"><ele>1087.0</ele><time>2026-04-04T07:52:34.948Z</time></trkpt><trkpt lat="45.6605367" lon="8.01616"><ele>1087.0</ele><time>2026-04-04T07:52:35.948Z</time></trkpt><trkpt lat="45.66067" lon="8.01611"><ele>1087.0</ele><time>2026-04-04T07:52:36.948Z</time></trkpt><trkpt lat="45.6607983" lon="8.0161167"><ele>1087.0</ele><time>2026-04-04T07:52:37.947Z</time></trkpt><trkpt lat="45.6609233" lon="8.0161133"><ele>1087.0</ele><time>2026-04-04T07:52:38.948Z</time></trkpt><trkpt lat="45.661045" lon="8.0160833"><ele>1087.0</ele><time>2026-04-04T07:52:39.948Z</time></trkpt><trkpt lat="45.6611667" lon="8.016015"><ele>1087.0</ele><time>2026-04-04T07:52:40.948Z</time></trkpt><trkpt lat="45.6612867" lon="8.015925"><ele>1087.0</ele><time>2026-04-04T07:52:41.948Z</time></trkpt><trkpt lat="45.661425" lon="8.0158417"><ele>1079.6666666666665</ele><time>2026-04-04T07:52:42.948Z</time></trkpt><trkpt lat="45.6615667" lon="8.0157767"><ele>1072.3333333333333</ele><time>2026-04-04T07:52:43.948Z</time></trkpt><trkpt lat="45.661715" lon="8.0157133"><ele>1065.0</ele><time>2026-04-04T07:52:44.948Z</time></trkpt><trkpt lat="45.6618483" lon="8.0156183"><ele>1079.6666666666667</ele><time>2026-04-04T07:52:45.948Z</time></trkpt><trkpt lat="45.6619667" lon="8.015485"><ele>1094.3333333333335</ele><time>2026-04-04T07:52:46.948Z</time></trkpt><trkpt lat="45.6620783" lon="8.0152917"><ele>1109.0</ele><time>2026-04-04T07:52:47.948Z</time></trkpt><trkpt lat="45.66219" lon="8.015095"><ele>1103.25</ele><time>2026-04-04T07:52:48.948Z</time></trkpt><trkpt lat="45.6622817" lon="8.0149433"><ele>1097.5</ele><time>2026-04-04T07:52:49.948Z</time></trkpt><trkpt lat="45.6623583" lon="8.0147817"><ele>1091.75</ele><time>2026-04-04T07:52:50.948Z</time></trkpt><trkpt lat="45.6624" lon="8.0145983"><ele>1086.0</ele><time>2026-04-04T07:52:51.947Z</time></trkpt><trkpt lat="45.6624183" lon="8.0144"><ele>1086.0</ele><time>2026-04-04T07:52:52.947Z</time></trkpt><trkpt lat="45.6624117" lon="8.014175"><ele>1086.0</ele><time>2026-04-04T07:52:53.948Z</time></trkpt><trkpt lat="45.6623617" lon="8.0139567"><ele>1086.0</ele><time>2026-04-04T07:52:54.948Z</time></trkpt><trkpt lat="45.6623083" lon="8.01375"><ele>1081.5</ele><time>2026-04-04T07:52:55.948Z</time></trkpt><trkpt lat="45.66227" lon="8.0135633"><ele>1077.0</ele><time>2026-04-04T07:52:56.948Z</time></trkpt><trkpt lat="45.6622467" lon="8.0133967"><ele>1072.5</ele><time>2026-04-04T07:52:57.948Z</time></trkpt><trkpt lat="45.6622633" lon="8.01324"><ele>1068.0</ele><time>2026-04-04T07:52:58.947Z</time></trkpt><trkpt lat="45.66231" lon="8.0131217"><ele>1064.4</ele><time>2026-04-04T07:52:59.948Z</time></trkpt><trkpt lat="45.662385" lon="8.013025"><ele>1060.8</ele><time>2026-04-04T07:53:00.948Z</time></trkpt><trkpt lat="45.6624783" lon="8.0129967"><ele>1057.2</ele><time>2026-04-04T07:53:01.948Z</time></trkpt><trkpt lat="45.6626017" lon="8.01303"><ele>1053.6</ele><time>2026-04-04T07:53:02.947Z</time></trkpt><trkpt lat="45.6627183" lon="8.0130933"><ele>1050.0</ele><time>2026-04-04T07:53:03.948Z</time></trkpt><trkpt lat="45.6628267" lon="8.0132317"><ele>1058.5</ele><time>2026-04-04T07:53:04.948Z</time></trkpt><trkpt lat="45.6629433" lon="8.0133683"><ele>1067.0</ele><time>2026-04-04T07:53:05.948Z</time></trkpt><trkpt lat="45.663065" lon="8.0134417"><ele>1075.5</ele><time>2026-04-04T07:53:06.948Z</time></trkpt><trkpt lat="45.6631933" lon="8.0134617"><ele>1084.0</ele><time>2026-04-04T07:53:07.948Z</time></trkpt><trkpt lat="45.663305" lon="8.0134283"><ele>1072.6666666666665</ele><time>2026-04-04T07:53:08.948Z</time></trkpt><trkpt lat="45.6633967" lon="8.01332"><ele>1061.3333333333333</ele><time>2026-04-04T07:53:09.948Z</time></trkpt><trkpt lat="45.66349" lon="8.0131383"><ele>1050.0</ele><time>2026-04-04T07:53:10.948Z</time></trkpt><trkpt lat="45.6635983" lon="8.0129333"><ele>1049.0</ele><time>2026-04-04T07:53:11.948Z</time></trkpt><trkpt lat="45.6637033" lon="8.0127133"><ele>1048.0</ele><time>2026-04-04T07:53:12.948Z</time></trkpt><trkpt lat="45.66381" lon="8.0124817"><ele>1047.0</ele><time>2026-04-04T07:53:13.948Z</time></trkpt><trkpt lat="45.6639033" lon="8.0122817"><ele>1047.0</ele><time>2026-04-04T07:53:14.948Z</time></trkpt><trkpt lat="45.663985" lon="8.01212"><ele>1047.0</ele><time>2026-04-04T07:53:15.948Z</time></trkpt><trkpt lat="45.6640533" lon="8.011995"><ele>1047.0</ele><time>2026-04-04T07:53:16.948Z</time></trkpt><trkpt lat="45.6641317" lon="8.0118933"><ele>1047.0</ele><time>2026-04-04T07:53:17.948Z</time></trkpt><trkpt lat="45.6642217" lon="8.01185"><ele>1047.0</ele><time>2026-04-04T07:53:18.947Z</time></trkpt><trkpt lat="45.66433" lon="8.0118517"><ele>1047.0</ele><time>2026-04-04T07:53:19.948Z</time></trkpt><trkpt lat="45.6644467" lon="8.011885"><ele>1047.0</ele><time>2026-04-04T07:53:20.948Z</time></trkpt><trkpt lat="45.664565" lon="8.011935"><ele>1047.0</ele><time>2026-04-04T07:53:21.948Z</time></trkpt><trkpt lat="45.6646817" lon="8.0119417"><ele>1043.25</ele><time>2026-04-04T07:53:22.948Z</time></trkpt><trkpt lat="45.6647933" lon="8.0118767"><ele>1039.5</ele><time>2026-04-04T07:53:23.948Z</time></trkpt><trkpt lat="45.6649067" lon="8.0117817"><ele>1035.75</ele><time>2026-04-04T07:53:24.948Z</time></trkpt><trkpt lat="45.665015" lon="8.0116667"><ele>1032.0</ele><time>2026-04-04T07:53:25.948Z</time></trkpt><trkpt lat="45.6651183" lon="8.0115517"><ele>1032.0</ele><time>2026-04-04T07:53:26.948Z</time></trkpt><trkpt lat="45.6652267" lon="8.011465"><ele>1032.0</ele><time>2026-04-04T07:53:27.948Z</time></trkpt><trkpt lat="45.6653417" lon="8.01144"><ele>1032.0</ele><time>2026-04-04T07:53:28.947Z</time></trkpt><trkpt lat="45.6654667" lon="8.0114617"><ele>1032.0</ele><time>2026-04-04T07:53:29.947Z</time></trkpt><trkpt lat="45.6655983" lon="8.0115067"><ele>1040.75</ele><time>2026-04-04T07:53:30.947Z</time></trkpt><trkpt lat="45.66572" lon="8.011535"><ele>1049.5</ele><time>2026-04-04T07:53:31.947Z</time></trkpt><trkpt lat="45.6658217" lon="8.0114933"><ele>1058.25</ele><time>2026-04-04T07:53:32.947Z</time></trkpt><trkpt lat="45.665905" lon="8.0114117"><ele>1067.0</ele><time>2026-04-04T07:53:33.947Z</time></trkpt><trkpt lat="45.6659933" lon="8.011265"><ele>1067.0</ele><time>2026-04-04T07:53:34.947Z</time></trkpt><trkpt lat="45.6660467" lon="8.0110967"><ele>1067.0</ele><time>2026-04-04T07:53:35.947Z</time></trkpt><trkpt lat="45.6660833" lon="8.010925"><ele>1067.0</ele><time>2026-04-04T07:53:36.947Z</time></trkpt><trkpt lat="45.666085" lon="8.0107533"><ele>1067.0</ele><time>2026-04-04T07:53:37.947Z</time></trkpt><trkpt lat="45.6660417" lon="8.010565"><ele>1071.6666666666667</ele><time>2026-04-04T07:53:38.946Z</time></trkpt><trkpt lat="45.665955" lon="8.01038"><ele>1076.3333333333333</ele><time>2026-04-04T07:53:39.947Z</time></trkpt><trkpt lat="45.665815" lon="8.0102067"><ele>1081.0</ele><time>2026-04-04T07:53:40.947Z</time></trkpt><trkpt lat="45.6656367" lon="8.0100367"><ele>1085.3333333333333</ele><time>2026-04-04T07:53:41.947Z</time></trkpt><trkpt lat="45.6654567" lon="8.0098917"><ele>1089.6666666666667</ele><time>2026-04-04T07:53:42.947Z</time></trkpt><trkpt lat="45.6653183" lon="8.0097683"><ele>1094.0</ele><time>2026-04-04T07:53:43.947Z</time></trkpt><trkpt lat="45.6652117" lon="8.00965"><ele>1082.5</ele><time>2026-04-04T07:53:44.947Z</time></trkpt><trkpt lat="45.6651467" lon="8.0094983"><ele>1071.0</ele><time>2026-04-04T07:53:45.946Z</time></trkpt><trkpt lat="45.66512" lon="8.0093383"><ele>1059.5</ele><time>2026-04-04T07:53:46.947Z</time></trkpt><trkpt lat="45.66511" lon="8.00914"><ele>1048.0</ele><time>2026-04-04T07:53:47.947Z</time></trkpt><trkpt lat="45.66511" lon="8.0089233"><ele>1046.25</ele><time>2026-04-04T07:53:48.947Z</time></trkpt><trkpt lat="45.665105" lon="8.008725"><ele>1044.5</ele><time>2026-04-04T07:53:49.947Z</time></trkpt><trkpt lat="45.6651033" lon="8.0085417"><ele>1042.75</ele><time>2026-04-04T07:53:50.946Z</time></trkpt><trkpt lat="45.66512" lon="8.008375"><ele>1041.0</ele><time>2026-04-04T07:53:51.947Z</time></trkpt><trkpt lat="45.665165" lon="8.008245"><ele>1040.25</ele><time>2026-04-04T07:53:52.947Z</time></trkpt><trkpt lat="45.6652317" lon="8.00812"><ele>1039.5</ele><time>2026-04-04T07:53:53.947Z</time></trkpt><trkpt lat="45.665325" lon="8.00801"><ele>1038.75</ele><time>2026-04-04T07:53:54.947Z</time></trkpt><trkpt lat="45.6654267" lon="8.0079267"><ele>1038.0</ele><time>2026-04-04T07:53:55.947Z</time></trkpt><trkpt lat="45.6655317" lon="8.0078467"><ele>1038.0</ele><time>2026-04-04T07:53:56.947Z</time></trkpt><trkpt lat="45.665675" lon="8.00779"><ele>1038.0</ele><time>2026-04-04T07:53:57.947Z</time></trkpt><trkpt lat="45.665805" lon="8.0077367"><ele>1038.0</ele><time>2026-04-04T07:53:58.947Z</time></trkpt><trkpt lat="45.6659333" lon="8.00766"><ele>1038.0</ele><time>2026-04-04T07:53:59.947Z</time></trkpt><trkpt lat="45.6660383" lon="8.007555"><ele>1038.75</ele><time>2026-04-04T07:54:00.947Z</time></trkpt><trkpt lat="45.6661267" lon="8.0074033"><ele>1039.5</ele><time>2026-04-04T07:54:01.947Z</time></trkpt><trkpt lat="45.6661833" lon="8.0072167"><ele>1040.25</ele><time>2026-04-04T07:54:02.947Z</time></trkpt><trkpt lat="45.6662183" lon="8.0070333"><ele>1041.0</ele><time>2026-04-04T07:54:03.947Z</time></trkpt><trkpt lat="45.6662267" lon="8.006845"><ele>1041.0</ele><time>2026-04-04T07:54:04.947Z</time></trkpt><trkpt lat="45.6662467" lon="8.00669"><ele>1041.0</ele><time>2026-04-04T07:54:05.947Z</time></trkpt><trkpt lat="45.6662933" lon="8.0065683"><ele>1041.0</ele><time>2026-04-04T07:54:06.947Z</time></trkpt><trkpt lat="45.6663667" lon="8.0064733"><ele>1041.0</ele><time>2026-04-04T07:54:07.947Z</time></trkpt><trkpt lat="45.6664583" lon="8.00641"><ele>1041.0</ele><time>2026-04-04T07:54:08.947Z</time></trkpt><trkpt lat="45.6665683" lon="8.0063817"><ele>1036.25</ele><time>2026-04-04T07:54:09.947Z</time></trkpt><trkpt lat="45.6667" lon="8.0063733"><ele>1031.5</ele><time>2026-04-04T07:54:10.946Z</time></trkpt><trkpt lat="45.6668433" lon="8.0063783"><ele>1026.75</ele><time>2026-04-04T07:54:11.947Z</time></trkpt><trkpt lat="45.6669917" lon="8.0063983"><ele>1022.0</ele><time>2026-04-04T07:54:12.947Z</time></trkpt><trkpt lat="45.6671067" lon="8.0064133"><ele>1022.0</ele><time>2026-04-04T07:54:13.947Z</time></trkpt><trkpt lat="45.6672233" lon="8.006375"><ele>1022.0</ele><time>2026-04-04T07:54:14.947Z</time></trkpt><trkpt lat="45.6673" lon="8.0062917"><ele>1022.0</ele><time>2026-04-04T07:54:15.947Z</time></trkpt><trkpt lat="45.6673767" lon="8.0061533"><ele>1022.0</ele><time>2026-04-04T07:54:16.947Z</time></trkpt><trkpt lat="45.667445" lon="8.0059817"><ele>1019.75</ele><time>2026-04-04T07:54:17.947Z</time></trkpt><trkpt lat="45.6675067" lon="8.0057983"><ele>1017.5</ele><time>2026-04-04T07:54:18.946Z</time></trkpt><trkpt lat="45.6675617" lon="8.0055933"><ele>1015.25</ele><time>2026-04-04T07:54:19.947Z</time></trkpt><trkpt lat="45.667615" lon="8.0053917"><ele>1013.0</ele><time>2026-04-04T07:54:20.947Z</time></trkpt><trkpt lat="45.66764" lon="8.0051933"><ele>1014.6666666666667</ele><time>2026-04-04T07:54:21.947Z</time></trkpt><trkpt lat="45.6676217" lon="8.0049783"><ele>1016.3333333333333</ele><time>2026-04-04T07:54:22.947Z</time></trkpt><trkpt lat="45.6675983" lon="8.0047717"><ele>1018.0</ele><time>2026-04-04T07:54:23.947Z</time></trkpt><trkpt lat="45.6675483" lon="8.0045483"><ele>1018.0</ele><time>2026-04-04T07:54:24.947Z</time></trkpt><trkpt lat="45.66748" lon="8.0043167"><ele>1018.0</ele><time>2026-04-04T07:54:25.947Z</time></trkpt><trkpt lat="45.6674267" lon="8.00409"><ele>1018.0</ele><time>2026-04-04T07:54:26.947Z</time></trkpt><trkpt lat="45.6673817" lon="8.0039067"><ele>1014.25</ele><time>2026-04-04T07:54:27.946Z</time></trkpt><trkpt lat="45.66738" lon="8.0037283"><ele>1010.5</ele><time>2026-04-04T07:54:28.946Z</time></trkpt><trkpt lat="45.6674017" lon="8.0035817"><ele>1006.75</ele><time>2026-04-04T07:54:29.947Z</time></trkpt><trkpt lat="45.6674583" lon="8.003445"><ele>1003.0</ele><time>2026-04-04T07:54:30.947Z</time></trkpt><trkpt lat="45.66754" lon="8.003315"><ele>1005.6666666666666</ele><time>2026-04-04T07:54:31.947Z</time></trkpt><trkpt lat="45.6676533" lon="8.0031617"><ele>1008.3333333333333</ele><time>2026-04-04T07:54:32.946Z</time></trkpt><trkpt lat="45.6677967" lon="8.0030133"><ele>1011.0</ele><time>2026-04-04T07:54:33.947Z</time></trkpt><trkpt lat="45.6679467" lon="8.0028433"><ele>1011.0</ele><time>2026-04-04T07:54:34.947Z</time></trkpt><trkpt lat="45.6681067" lon="8.002665"><ele>1011.0</ele><time>2026-04-04T07:54:35.947Z</time></trkpt><trkpt lat="45.66826" lon="8.0024617"><ele>1011.0</ele><time>2026-04-04T07:54:36.947Z</time></trkpt><trkpt lat="45.6684" lon="8.0022667"><ele>1013.6666666666667</ele><time>2026-04-04T07:54:37.947Z</time></trkpt><trkpt lat="45.66854" lon="8.0020917"><ele>1016.3333333333334</ele><time>2026-04-04T07:54:38.947Z</time></trkpt><trkpt lat="45.668665" lon="8.0019267"><ele>1019.0</ele><time>2026-04-04T07:54:39.947Z</time></trkpt><trkpt lat="45.6687667" lon="8.0017917"><ele>1015.0</ele><time>2026-04-04T07:54:40.947Z</time></trkpt><trkpt lat="45.66884" lon="8.001665"><ele>1011.0</ele><time>2026-04-04T07:54:41.946Z</time></trkpt><trkpt lat="45.668885" lon="8.0015317"><ele>1007.0</ele><time>2026-04-04T07:54:42.947Z</time></trkpt><trkpt lat="45.6688967" lon="8.001365"><ele>1003.0</ele><time>2026-04-04T07:54:43.947Z</time></trkpt><trkpt lat="45.6688917" lon="8.0011883"><ele>1002.9999999999999</ele><time>2026-04-04T07:54:44.947Z</time></trkpt><trkpt lat="45.66889" lon="8.0010283"><ele>1003.0</ele><time>2026-04-04T07:54:45.947Z</time></trkpt><trkpt lat="45.668905" lon="8.0009033"><ele>1003.0</ele><time>2026-04-04T07:54:46.946Z</time></trkpt><trkpt lat="45.6689417" lon="8.0008133"><ele>1003.0</ele><time>2026-04-04T07:54:47.947Z</time></trkpt><trkpt lat="45.669" lon="8.0007333"><ele>1002.9999999999999</ele><time>2026-04-04T07:54:48.947Z</time></trkpt><trkpt lat="45.6690783" lon="8.0006567"><ele>1003.0</ele><time>2026-04-04T07:54:49.947Z</time></trkpt><trkpt lat="45.6691783" lon="8.00059"><ele>998.5</ele><time>2026-04-04T07:54:50.947Z</time></trkpt><trkpt lat="45.6693083" lon="8.0005533"><ele>994.0</ele><time>2026-04-04T07:54:51.946Z</time></trkpt><trkpt lat="45.6694333" lon="8.0005233"><ele>989.5</ele><time>2026-04-04T07:54:52.947Z</time></trkpt><trkpt lat="45.66954" lon="8.0004667"><ele>985.0</ele><time>2026-04-04T07:54:53.947Z</time></trkpt><trkpt lat="45.6696183" lon="8.00038"><ele>993.4</ele><time>2026-04-04T07:54:54.947Z</time></trkpt><trkpt lat="45.6696667" lon="8.000265"><ele>1001.8</ele><time>2026-04-04T07:54:55.947Z</time></trkpt><trkpt lat="45.66968" lon="8.0001267"><ele>1010.2</ele><time>2026-04-04T07:54:56.947Z</time></trkpt><trkpt lat="45.66966" lon="7.9999833"><ele>1018.6</ele><time>2026-04-04T07:54:57.947Z</time></trkpt><trkpt lat="45.6696317" lon="7.99986"><ele>1027.0</ele><time>2026-04-04T07:54:58.946Z</time></trkpt><trkpt lat="45.6695633" lon="7.999715"><ele>1027.0</ele><time>2026-04-04T07:54:59.947Z</time></trkpt><trkpt lat="45.6695017" lon="7.9995433"><ele>1027.0</ele><time>2026-04-04T07:55:00.946Z</time></trkpt><trkpt lat="45.6694367" lon="7.9993667"><ele>1027.0</ele><time>2026-04-04T07:55:01.947Z</time></trkpt><trkpt lat="45.669375" lon="7.999175"><ele>1027.0</ele><time>2026-04-04T07:55:02.947Z</time></trkpt><trkpt lat="45.6693183" lon="7.998985"><ele>1016.5</ele><time>2026-04-04T07:55:03.947Z</time></trkpt><trkpt lat="45.6692683" lon="7.998795"><ele>1006.0</ele><time>2026-04-04T07:55:04.947Z</time></trkpt><trkpt lat="45.6692017" lon="7.9986217"><ele>995.5</ele><time>2026-04-04T07:55:05.947Z</time></trkpt><trkpt lat="45.6691083" lon="7.998475"><ele>985.0</ele><time>2026-04-04T07:55:06.947Z</time></trkpt><trkpt lat="45.6689867" lon="7.9983633"><ele>986.25</ele><time>2026-04-04T07:55:07.946Z</time></trkpt><trkpt lat="45.6688683" lon="7.99826"><ele>987.5</ele><time>2026-04-04T07:55:08.947Z</time></trkpt><trkpt lat="45.6687567" lon="7.99814"><ele>988.75</ele><time>2026-04-04T07:55:09.947Z</time></trkpt><trkpt lat="45.66864" lon="7.9980367"><ele>990.0</ele><time>2026-04-04T07:55:10.947Z</time></trkpt><trkpt lat="45.6685317" lon="7.9979183"><ele>987.4</ele><time>2026-04-04T07:55:11.947Z</time></trkpt><trkpt lat="45.6684317" lon="7.9978017"><ele>984.8</ele><time>2026-04-04T07:55:12.947Z</time></trkpt><trkpt lat="45.6683567" lon="7.997685"><ele>982.2</ele><time>2026-04-04T07:55:13.947Z</time></trkpt><trkpt lat="45.66831" lon="7.9975583"><ele>979.6</ele><time>2026-04-04T07:55:14.947Z</time></trkpt><trkpt lat="45.6683017" lon="7.997415"><ele>977.0</ele><time>2026-04-04T07:55:15.947Z</time></trkpt><trkpt lat="45.6683383" lon="7.997285"><ele>977.0</ele><time>2026-04-04T07:55:16.947Z</time></trkpt><trkpt lat="45.668395" lon="7.997175"><ele>977.0</ele><time>2026-04-04T07:55:17.946Z</time></trkpt><trkpt lat="45.6684817" lon="7.9970817"><ele>977.0</ele><time>2026-04-04T07:55:18.947Z</time></trkpt><trkpt lat="45.66861" lon="7.9970433"><ele>977.0</ele><time>2026-04-04T07:55:19.947Z</time></trkpt><trkpt lat="45.6687633" lon="7.99701"><ele>981.6666666666667</ele><time>2026-04-04T07:55:20.947Z</time></trkpt><trkpt lat="45.6689183" lon="7.9969633"><ele>986.3333333333333</ele><time>2026-04-04T07:55:21.947Z</time></trkpt><trkpt lat="45.669075" lon="7.9969117"><ele>991.0</ele><time>2026-04-04T07:55:22.947Z</time></trkpt><trkpt lat="45.6692233" lon="7.9968567"><ele>991.0</ele><time>2026-04-04T07:55:23.947Z</time></trkpt><trkpt lat="45.66937" lon="7.9967967"><ele>991.0</ele><time>2026-04-04T07:55:24.947Z</time></trkpt><trkpt lat="45.6694933" lon="7.9967367"><ele>991.0</ele><time>2026-04-04T07:55:25.947Z</time></trkpt><trkpt lat="45.669595" lon="7.996645"><ele>991.0</ele><time>2026-04-04T07:55:26.947Z</time></trkpt><trkpt lat="45.6696833" lon="7.9965067"><ele>990.3333333333333</ele><time>2026-04-04T07:55:27.947Z</time></trkpt><trkpt lat="45.6697483" lon="7.9963217"><ele>989.6666666666667</ele><time>2026-04-04T07:55:28.947Z</time></trkpt><trkpt lat="45.6698067" lon="7.9961167"><ele>989.0</ele><time>2026-04-04T07:55:29.947Z</time></trkpt><trkpt lat="45.6698717" lon="7.9958917"><ele>987.0</ele><time>2026-04-04T07:55:30.947Z</time></trkpt><trkpt lat="45.6699267" lon="7.99566"><ele>985.0</ele><time>2026-04-04T07:55:31.947Z</time></trkpt><trkpt lat="45.669955" lon="7.9954367"><ele>983.0</ele><time>2026-04-04T07:55:32.947Z</time></trkpt><trkpt lat="45.6699683" lon="7.9952367"><ele>983.0</ele><time>2026-04-04T07:55:33.947Z</time></trkpt><trkpt lat="45.6699683" lon="7.995055"><ele>983.0</ele><time>2026-04-04T07:55:34.946Z</time></trkpt><trkpt lat="45.6699633" lon="7.9948767"><ele>983.0</ele><time>2026-04-04T07:55:35.947Z</time></trkpt><trkpt lat="45.6699917" lon="7.99472"><ele>983.0</ele><time>2026-04-04T07:55:36.947Z</time></trkpt><trkpt lat="45.67004" lon="7.9945983"><ele>983.2</ele><time>2026-04-04T07:55:37.946Z</time></trkpt><trkpt lat="45.670115" lon="7.9945267"><ele>983.4</ele><time>2026-04-04T07:55:38.947Z</time></trkpt><trkpt lat="45.670205" lon="7.9944767"><ele>983.6000000000001</ele><time>2026-04-04T07:55:39.946Z</time></trkpt><trkpt lat="45.6702967" lon="7.9944633"><ele>983.8000000000001</ele><time>2026-04-04T07:55:40.947Z</time></trkpt><trkpt lat="45.6704067" lon="7.9944567"><ele>984.0</ele><time>2026-04-04T07:55:41.947Z</time></trkpt><trkpt lat="45.6705333" lon="7.9944667"><ele>984.0</ele><time>2026-04-04T07:55:42.947Z</time></trkpt><trkpt lat="45.670655" lon="7.99448"><ele>984.0000000000001</ele><time>2026-04-04T07:55:43.947Z</time></trkpt><trkpt lat="45.6707633" lon="7.9944917"><ele>984.0000000000001</ele><time>2026-04-04T07:55:44.947Z</time></trkpt><trkpt lat="45.6708633" lon="7.9945433"><ele>984.0</ele><time>2026-04-04T07:55:45.947Z</time></trkpt><trkpt lat="45.67095" lon="7.9946433"><ele>984.0</ele><time>2026-04-04T07:55:46.946Z</time></trkpt><trkpt lat="45.6710317" lon="7.9947633"><ele>984.0</ele><time>2026-04-04T07:55:47.946Z</time></trkpt><trkpt lat="45.67108" lon="7.9949367"><ele>984.0</ele><time>2026-04-04T07:55:48.947Z</time></trkpt><trkpt lat="45.6711" lon="7.9951217"><ele>984.0</ele><time>2026-04-04T07:55:49.947Z</time></trkpt><trkpt lat="45.6711033" lon="7.9953183"><ele>984.0</ele><time>2026-04-04T07:55:50.947Z</time></trkpt><trkpt lat="45.671115" lon="7.995505"><ele>986.75</ele><time>2026-04-04T07:55:51.947Z</time></trkpt><trkpt lat="45.6711533" lon="7.9956733"><ele>989.5</ele><time>2026-04-04T07:55:52.947Z</time></trkpt><trkpt lat="45.671225" lon="7.99581"><ele>992.25</ele><time>2026-04-04T07:55:53.947Z</time></trkpt><trkpt lat="45.6713183" lon="7.9959267"><ele>995.0</ele><time>2026-04-04T07:55:54.947Z</time></trkpt><trkpt lat="45.6714067" lon="7.996025"><ele>995.0</ele><time>2026-04-04T07:55:55.947Z</time></trkpt><trkpt lat="45.6715183" lon="7.996115"><ele>995.0</ele><time>2026-04-04T07:55:56.947Z</time></trkpt><trkpt lat="45.6716533" lon="7.9961883"><ele>995.0</ele><time>2026-04-04T07:55:57.947Z</time></trkpt><trkpt lat="45.671785" lon="7.99624"><ele>995.0</ele><time>2026-04-04T07:55:58.947Z</time></trkpt><trkpt lat="45.6719183" lon="7.9962483"><ele>993.6666666666667</ele><time>2026-04-04T07:55:59.947Z</time></trkpt><trkpt lat="45.6720683" lon="7.9962283"><ele>992.3333333333333</ele><time>2026-04-04T07:56:00.947Z</time></trkpt><trkpt lat="45.6722367" lon="7.9961717"><ele>991.0</ele><time>2026-04-04T07:56:01.947Z</time></trkpt><trkpt lat="45.6724017" lon="7.9961083"><ele>991.0</ele><time>2026-04-04T07:56:02.947Z</time></trkpt><trkpt lat="45.6725633" lon="7.99602"><ele>991.0</ele><time>2026-04-04T07:56:03.947Z</time></trkpt><trkpt lat="45.6727" lon="7.9959567"><ele>991.0</ele><time>2026-04-04T07:56:04.947Z</time></trkpt><trkpt lat="45.672815" lon="7.99589"><ele>991.0</ele><time>2026-04-04T07:56:05.946Z</time></trkpt><trkpt lat="45.6729" lon="7.99581"><ele>987.1999999999999</ele><time>2026-04-04T07:56:06.947Z</time></trkpt><trkpt lat="45.67297" lon="7.9957"><ele>983.3999999999999</ele><time>2026-04-04T07:56:07.947Z</time></trkpt><trkpt lat="45.6730117" lon="7.9955767"><ele>979.6</ele><time>2026-04-04T07:56:08.947Z</time></trkpt><trkpt lat="45.673015" lon="7.9954333"><ele>975.8</ele><time>2026-04-04T07:56:09.947Z</time></trkpt><trkpt lat="45.6730033" lon="7.9952983"><ele>972.0</ele><time>2026-04-04T07:56:10.947Z</time></trkpt><trkpt lat="45.67294" lon="7.9951617"><ele>972.0</ele><time>2026-04-04T07:56:11.947Z</time></trkpt><trkpt lat="45.67284" lon="7.9950517"><ele>972.0</ele><time>2026-04-04T07:56:12.947Z</time></trkpt><trkpt lat="45.6727267" lon="7.9949583"><ele>972.0</ele><time>2026-04-04T07:56:13.947Z</time></trkpt><trkpt lat="45.672635" lon="7.99486"><ele>972.0</ele><time>2026-04-04T07:56:14.947Z</time></trkpt><trkpt lat="45.672565" lon="7.994755"><ele>966.4000000000001</ele><time>2026-04-04T07:56:15.947Z</time></trkpt><trkpt lat="45.6725317" lon="7.9946333"><ele>960.8000000000001</ele><time>2026-04-04T07:56:16.947Z</time></trkpt><trkpt lat="45.6725333" lon="7.9945"><ele>955.2</ele><time>2026-04-04T07:56:17.947Z</time></trkpt><trkpt lat="45.6725567" lon="7.9943533"><ele>949.6</ele><time>2026-04-04T07:56:18.947Z</time></trkpt><trkpt lat="45.6725983" lon="7.994185"><ele>944.0</ele><time>2026-04-04T07:56:19.946Z</time></trkpt><trkpt lat="45.6726167" lon="7.9940117"><ele>943.0</ele><time>2026-04-04T07:56:20.947Z</time></trkpt><trkpt lat="45.672605" lon="7.9938483"><ele>942.0</ele><time>2026-04-04T07:56:21.946Z</time></trkpt><trkpt lat="45.67257" lon="7.9936667"><ele>941.0</ele><time>2026-04-04T07:56:22.947Z</time></trkpt><trkpt lat="45.672525" lon="7.99347"><ele>940.0</ele><time>2026-04-04T07:56:23.947Z</time></trkpt><trkpt lat="45.6724867" lon="7.9932533"><ele>940.0</ele><time>2026-04-04T07:56:24.947Z</time></trkpt><trkpt lat="45.6724533" lon="7.99302"><ele>940.0</ele><time>2026-04-04T07:56:25.947Z</time></trkpt><trkpt lat="45.672405" lon="7.9927967"><ele>940.0</ele><time>2026-04-04T07:56:26.947Z</time></trkpt><trkpt lat="45.67232" lon="7.9926217"><ele>941.75</ele><time>2026-04-04T07:56:27.946Z</time></trkpt><trkpt lat="45.6722133" lon="7.9924517"><ele>943.5</ele><time>2026-04-04T07:56:28.947Z</time></trkpt><trkpt lat="45.6721117" lon="7.9923183"><ele>945.25</ele><time>2026-04-04T07:56:29.947Z</time></trkpt><trkpt lat="45.6720217" lon="7.9921917"><ele>947.0</ele><time>2026-04-04T07:56:30.947Z</time></trkpt><trkpt lat="45.671975" lon="7.99208"><ele>946.75</ele><time>2026-04-04T07:56:31.947Z</time></trkpt><trkpt lat="45.6719233" lon="7.9919633"><ele>946.5</ele><time>2026-04-04T07:56:32.947Z</time></trkpt><trkpt lat="45.671935" lon="7.9917867"><ele>946.25</ele><time>2026-04-04T07:56:33.947Z</time></trkpt><trkpt lat="45.6719833" lon="7.991625"><ele>946.0</ele><time>2026-04-04T07:56:34.947Z</time></trkpt><trkpt lat="45.6720483" lon="7.9914717"><ele>946.0</ele><time>2026-04-04T07:56:35.947Z</time></trkpt><trkpt lat="45.6721467" lon="7.9913433"><ele>946.0</ele><time>2026-04-04T07:56:36.946Z</time></trkpt><trkpt lat="45.67223" lon="7.9912083"><ele>946.0</ele><time>2026-04-04T07:56:37.947Z</time></trkpt><trkpt lat="45.672275" lon="7.991065"><ele>946.0</ele><time>2026-04-04T07:56:38.947Z</time></trkpt><trkpt lat="45.6722767" lon="7.99091"><ele>943.8</ele><time>2026-04-04T07:56:39.947Z</time></trkpt><trkpt lat="45.672245" lon="7.99077"><ele>941.5999999999999</ele><time>2026-04-04T07:56:40.947Z</time></trkpt><trkpt lat="45.6721833" lon="7.99066"><ele>939.4</ele><time>2026-04-04T07:56:41.947Z</time></trkpt><trkpt lat="45.6720833" lon="7.9905483"><ele>937.2</ele><time>2026-04-04T07:56:42.947Z</time></trkpt><trkpt lat="45.6719917" lon="7.990435"><ele>935.0</ele><time>2026-04-04T07:56:43.947Z</time></trkpt><trkpt lat="45.6719167" lon="7.9903183"><ele>935.2</ele><time>2026-04-04T07:56:44.947Z</time></trkpt><trkpt lat="45.6718667" lon="7.9901967"><ele>935.4</ele><time>2026-04-04T07:56:45.947Z</time></trkpt><trkpt lat="45.671865" lon="7.9900617"><ele>935.5999999999999</ele><time>2026-04-04T07:56:46.947Z</time></trkpt><trkpt lat="45.671895" lon="7.9899267"><ele>935.8</ele><time>2026-04-04T07:56:47.947Z</time></trkpt><trkpt lat="45.6719517" lon="7.989835"><ele>936.0</ele><time>2026-04-04T07:56:48.947Z</time></trkpt><trkpt lat="45.6720383" lon="7.989765"><ele>936.0</ele><time>2026-04-04T07:56:49.947Z</time></trkpt><trkpt lat="45.6721583" lon="7.9897017"><ele>936.0</ele><time>2026-04-04T07:56:50.947Z</time></trkpt><trkpt lat="45.6722717" lon="7.9896033"><ele>936.0</ele><time>2026-04-04T07:56:51.947Z</time></trkpt><trkpt lat="45.6723683" lon="7.9894417"><ele>936.0</ele><time>2026-04-04T07:56:52.947Z</time></trkpt><trkpt lat="45.672465" lon="7.9892317"><ele>931.0</ele><time>2026-04-04T07:56:53.947Z</time></trkpt><trkpt lat="45.67256" lon="7.9890033"><ele>926.0</ele><time>2026-04-04T07:56:54.947Z</time></trkpt><trkpt lat="45.6726617" lon="7.9887933"><ele>921.0</ele><time>2026-04-04T07:56:55.947Z</time></trkpt><trkpt lat="45.6727633" lon="7.9885917"><ele>926.6666666666667</ele><time>2026-04-04T07:56:56.947Z</time></trkpt><trkpt lat="45.6728717" lon="7.988425"><ele>932.3333333333334</ele><time>2026-04-04T07:56:57.947Z</time></trkpt><trkpt lat="45.6729817" lon="7.9882617"><ele>938.0</ele><time>2026-04-04T07:56:58.947Z</time></trkpt><trkpt lat="45.6730867" lon="7.9880933"><ele>938.0</ele><time>2026-04-04T07:56:59.946Z</time></trkpt><trkpt lat="45.6732" lon="7.987945"><ele>938.0</ele><time>2026-04-04T07:57:00.947Z</time></trkpt><trkpt lat="45.6732617" lon="7.9877567"><ele>938.0</ele><time>2026-04-04T07:57:01.947Z</time></trkpt><trkpt lat="45.6733067" lon="7.9875533"><ele>938.0</ele><time>2026-04-04T07:57:02.947Z</time></trkpt><trkpt lat="45.673335" lon="7.9873333"><ele>932.0</ele><time>2026-04-04T07:57:03.947Z</time></trkpt><trkpt lat="45.6733567" lon="7.9870767"><ele>926.0</ele><time>2026-04-04T07:57:04.946Z</time></trkpt><trkpt lat="45.67339" lon="7.9868117"><ele>920.0</ele><time>2026-04-04T07:57:05.947Z</time></trkpt><trkpt lat="45.6734183" lon="7.98654"><ele>916.0</ele><time>2026-04-04T07:57:06.947Z</time></trkpt><trkpt lat="45.6734483" lon="7.9862817"><ele>912.0</ele><time>2026-04-04T07:57:07.947Z</time></trkpt><trkpt lat="45.67347" lon="7.9859967"><ele>908.0</ele><time>2026-04-04T07:57:08.946Z</time></trkpt><trkpt lat="45.67349" lon="7.98571"><ele>904.3333333333334</ele><time>2026-04-04T07:57:09.947Z</time></trkpt><trkpt lat="45.6735017" lon="7.9854417"><ele>900.6666666666667</ele><time>2026-04-04T07:57:10.947Z</time></trkpt><trkpt lat="45.6735183" lon="7.985165"><ele>897.0</ele><time>2026-04-04T07:57:11.947Z</time></trkpt><trkpt lat="45.6735267" lon="7.9849133"><ele>895.3333333333333</ele><time>2026-04-04T07:57:12.947Z</time></trkpt><trkpt lat="45.6735283" lon="7.9846533"><ele>893.6666666666666</ele><time>2026-04-04T07:57:13.947Z</time></trkpt><trkpt lat="45.6735283" lon="7.9844083"><ele>892.0</ele><time>2026-04-04T07:57:14.947Z</time></trkpt><trkpt lat="45.6735333" lon="7.9841683"><ele>890.5</ele><time>2026-04-04T07:57:15.947Z</time></trkpt><trkpt lat="45.6735383" lon="7.9839367"><ele>889.0</ele><time>2026-04-04T07:57:16.947Z</time></trkpt><trkpt lat="45.67355" lon="7.983725"><ele>887.5</ele><time>2026-04-04T07:57:17.947Z</time></trkpt><trkpt lat="45.67358" lon="7.9835367"><ele>886.0</ele><time>2026-04-04T07:57:18.947Z</time></trkpt><trkpt lat="45.6736383" lon="7.9833733"><ele>889.0</ele><time>2026-04-04T07:57:19.947Z</time></trkpt><trkpt lat="45.673735" lon="7.983245"><ele>892.0</ele><time>2026-04-04T07:57:20.947Z</time></trkpt><trkpt lat="45.67383" lon="7.9831283"><ele>895.0</ele><time>2026-04-04T07:57:21.946Z</time></trkpt><trkpt lat="45.6739467" lon="7.983055"><ele>898.0</ele><time>2026-04-04T07:57:22.947Z</time></trkpt><trkpt lat="45.67407" lon="7.983"><ele>897.9999999999999</ele><time>2026-04-04T07:57:23.947Z</time></trkpt><trkpt lat="45.6741883" lon="7.9829883"><ele>898.0</ele><time>2026-04-04T07:57:24.947Z</time></trkpt><trkpt lat="45.6742767" lon="7.9829867"><ele>898.0</ele><time>2026-04-04T07:57:25.947Z</time></trkpt><trkpt lat="45.67435" lon="7.9829633"><ele>898.0</ele><time>2026-04-04T07:57:26.947Z</time></trkpt><trkpt lat="45.6744033" lon="7.9829117"><ele>897.9999999999999</ele><time>2026-04-04T07:57:27.947Z</time></trkpt><trkpt lat="45.6744233" lon="7.9827783"><ele>898.0</ele><time>2026-04-04T07:57:29.947Z</time></trkpt><trkpt lat="45.6742933" lon="7.982715"><ele>898.0</ele><time>2026-04-04T07:57:31.946Z</time></trkpt><trkpt lat="45.6741917" lon="7.9827483"><ele>898.0</ele><time>2026-04-04T07:57:32.947Z</time></trkpt><trkpt lat="45.6740617" lon="7.98284"><ele>898.0</ele><time>2026-04-04T07:57:33.946Z</time></trkpt><trkpt lat="45.6739167" lon="7.9829467"><ele>898.0</ele><time>2026-04-04T07:57:34.947Z</time></trkpt><trkpt lat="45.673785" lon="7.9830467"><ele>898.0</ele><time>2026-04-04T07:57:35.946Z</time></trkpt><trkpt lat="45.673685" lon="7.9831267"><ele>898.0</ele><time>2026-04-04T07:57:36.947Z</time></trkpt><trkpt lat="45.6736" lon="7.98318"><ele>898.0</ele><time>2026-04-04T07:57:37.947Z</time></trkpt><trkpt lat="45.6735333" lon="7.9832117"><ele>898.0</ele><time>2026-04-04T07:57:38.947Z</time></trkpt><trkpt lat="45.6734167" lon="7.9831767"><ele>898.0</ele><time>2026-04-04T07:57:40.947Z</time></trkpt><trkpt lat="45.67336" lon="7.9830617"><ele>898.0</ele><time>2026-04-04T07:57:42.947Z</time></trkpt><trkpt lat="45.6733917" lon="7.9829017"><ele>898.0</ele><time>2026-04-04T07:57:44.946Z</time></trkpt><trkpt lat="45.6734583" lon="7.9828267"><ele>898.0</ele><time>2026-04-04T07:57:45.947Z</time></trkpt><trkpt lat="45.6735683" lon="7.9827883"><ele>898.0</ele><time>2026-04-04T07:57:46.947Z</time></trkpt><trkpt lat="45.6737117" lon="7.9827617"><ele>898.0</ele><time>2026-04-04T07:57:47.947Z</time></trkpt><trkpt lat="45.6738767" lon="7.98275"><ele>898.0</ele><time>2026-04-04T07:57:48.947Z</time></trkpt><trkpt lat="45.67401" lon="7.9827233"><ele>898.0</ele><time>2026-04-04T07:57:49.947Z</time></trkpt><trkpt lat="45.67411" lon="7.9826767"><ele>898.0</ele><time>2026-04-04T07:57:50.947Z</time></trkpt><trkpt lat="45.67417" lon="7.982605"><ele>892.2</ele><time>2026-04-04T07:57:51.947Z</time></trkpt><trkpt lat="45.6742367" lon="7.9824767"><ele>886.4</ele><time>2026-04-04T07:57:53.947Z</time></trkpt><trkpt lat="45.674295" lon="7.9823783"><ele>880.6000000000001</ele><time>2026-04-04T07:57:55.947Z</time></trkpt><trkpt lat="45.6743483" lon="7.9822933"><ele>874.8000000000001</ele><time>2026-04-04T07:57:57.947Z</time></trkpt><trkpt lat="45.674385" lon="7.982175"><ele>869.0</ele><time>2026-04-04T07:57:59.947Z</time></trkpt><trkpt lat="45.6743667" lon="7.9820067"><ele>869.0</ele><time>2026-04-04T07:58:01.947Z</time></trkpt><trkpt lat="45.674325" lon="7.9819133"><ele>869.0000000000001</ele><time>2026-04-04T07:58:02.947Z</time></trkpt><trkpt lat="45.6742767" lon="7.9818367"><ele>869.0000000000001</ele><time>2026-04-04T07:58:03.947Z</time></trkpt><trkpt lat="45.6742117" lon="7.9817683"><ele>869.0</ele><time>2026-04-04T07:58:04.947Z</time></trkpt><trkpt lat="45.674115" lon="7.9816917"><ele>869.0</ele><time>2026-04-04T07:58:05.947Z</time></trkpt><trkpt lat="45.674025" lon="7.9816"><ele>870.25</ele><time>2026-04-04T07:58:06.947Z</time></trkpt><trkpt lat="45.67392" lon="7.9814883"><ele>871.5</ele><time>2026-04-04T07:58:07.947Z</time></trkpt><trkpt lat="45.67381" lon="7.9813883"><ele>872.75</ele><time>2026-04-04T07:58:08.947Z</time></trkpt><trkpt lat="45.673695" lon="7.9813217"><ele>874.0</ele><time>2026-04-04T07:58:09.947Z</time></trkpt><trkpt lat="45.6735617" lon="7.9812967"><ele>874.0</ele><time>2026-04-04T07:58:10.946Z</time></trkpt><trkpt lat="45.673405" lon="7.9812867"><ele>874.0</ele><time>2026-04-04T07:58:11.947Z</time></trkpt><trkpt lat="45.6732583" lon="7.9812517"><ele>874.0</ele><time>2026-04-04T07:58:12.947Z</time></trkpt><trkpt lat="45.673115" lon="7.98125"><ele>874.0</ele><time>2026-04-04T07:58:13.947Z</time></trkpt><trkpt lat="45.67298" lon="7.9813017"><ele>874.0</ele><time>2026-04-04T07:58:14.947Z</time></trkpt><trkpt lat="45.6728433" lon="7.9813533"><ele>874.0</ele><time>2026-04-04T07:58:15.947Z</time></trkpt><trkpt lat="45.6727017" lon="7.9814367"><ele>874.0</ele><time>2026-04-04T07:58:16.947Z</time></trkpt><trkpt lat="45.6725617" lon="7.9815033"><ele>874.0</ele><time>2026-04-04T07:58:17.947Z</time></trkpt><trkpt lat="45.6724317" lon="7.9815883"><ele>869.3333333333333</ele><time>2026-04-04T07:58:18.947Z</time></trkpt><trkpt lat="45.6722967" lon="7.9816867"><ele>864.6666666666667</ele><time>2026-04-04T07:58:19.947Z</time></trkpt><trkpt lat="45.6721533" lon="7.9817883"><ele>860.0</ele><time>2026-04-04T07:58:20.947Z</time></trkpt><trkpt lat="45.6719983" lon="7.9818983"><ele>868.5</ele><time>2026-04-04T07:58:21.946Z</time></trkpt><trkpt lat="45.6718683" lon="7.9820033"><ele>877.0</ele><time>2026-04-04T07:58:22.947Z</time></trkpt><trkpt lat="45.67176" lon="7.9821067"><ele>885.5</ele><time>2026-04-04T07:58:23.947Z</time></trkpt><trkpt lat="45.6716617" lon="7.9822"><ele>894.0</ele><time>2026-04-04T07:58:24.947Z</time></trkpt><trkpt lat="45.67157" lon="7.9822867"><ele>894.0</ele><time>2026-04-04T07:58:25.947Z</time></trkpt><trkpt lat="45.6715017" lon="7.982355"><ele>894.0000000000001</ele><time>2026-04-04T07:58:26.947Z</time></trkpt><trkpt lat="45.6714467" lon="7.9824367"><ele>894.0000000000001</ele><time>2026-04-04T07:58:27.947Z</time></trkpt><trkpt lat="45.6714083" lon="7.9825483"><ele>894.0</ele><time>2026-04-04T07:58:28.947Z</time></trkpt><trkpt lat="45.671385" lon="7.9827067"><ele>894.0</ele><time>2026-04-04T07:58:29.947Z</time></trkpt><trkpt lat="45.6713833" lon="7.9828817"><ele>889.8000000000001</ele><time>2026-04-04T07:58:30.947Z</time></trkpt><trkpt lat="45.67137" lon="7.9830283"><ele>885.6000000000001</ele><time>2026-04-04T07:58:31.947Z</time></trkpt><trkpt lat="45.6713433" lon="7.9831583"><ele>881.4</ele><time>2026-04-04T07:58:32.947Z</time></trkpt><trkpt lat="45.6712967" lon="7.9832767"><ele>877.2</ele><time>2026-04-04T07:58:33.946Z</time></trkpt><trkpt lat="45.6712417" lon="7.9833867"><ele>873.0</ele><time>2026-04-04T07:58:34.947Z</time></trkpt><trkpt lat="45.671175" lon="7.9835067"><ele>882.75</ele><time>2026-04-04T07:58:35.947Z</time></trkpt><trkpt lat="45.671095" lon="7.9836217"><ele>892.5</ele><time>2026-04-04T07:58:36.947Z</time></trkpt><trkpt lat="45.67101" lon="7.98374"><ele>902.25</ele><time>2026-04-04T07:58:37.947Z</time></trkpt><trkpt lat="45.670925" lon="7.98387"><ele>912.0</ele><time>2026-04-04T07:58:38.947Z</time></trkpt><trkpt lat="45.67084" lon="7.9840067"><ele>912.0</ele><time>2026-04-04T07:58:39.947Z</time></trkpt><trkpt lat="45.67075" lon="7.9841517"><ele>912.0</ele><time>2026-04-04T07:58:40.946Z</time></trkpt><trkpt lat="45.6706567" lon="7.9843017"><ele>912.0</ele><time>2026-04-04T07:58:41.947Z</time></trkpt><trkpt lat="45.6705617" lon="7.9844367"><ele>912.0</ele><time>2026-04-04T07:58:42.947Z</time></trkpt><trkpt lat="45.6704583" lon="7.9845683"><ele>914.75</ele><time>2026-04-04T07:58:43.947Z</time></trkpt><trkpt lat="45.6703467" lon="7.9847"><ele>917.5</ele><time>2026-04-04T07:58:44.947Z</time></trkpt><trkpt lat="45.6702283" lon="7.98484"><ele>920.25</ele><time>2026-04-04T07:58:45.947Z</time></trkpt><trkpt lat="45.67012" lon="7.9849783"><ele>923.0</ele><time>2026-04-04T07:58:46.946Z</time></trkpt><trkpt lat="45.6700317" lon="7.9851067"><ele>916.75</ele><time>2026-04-04T07:58:47.947Z</time></trkpt><trkpt lat="45.6699583" lon="7.985235"><ele>910.5</ele><time>2026-04-04T07:58:48.947Z</time></trkpt><trkpt lat="45.6698783" lon="7.9853333"><ele>904.25</ele><time>2026-04-04T07:58:49.946Z</time></trkpt><trkpt lat="45.6697817" lon="7.9854067"><ele>898.0</ele><time>2026-04-04T07:58:50.947Z</time></trkpt><trkpt lat="45.6696717" lon="7.9854733"><ele>898.0</ele><time>2026-04-04T07:58:51.947Z</time></trkpt><trkpt lat="45.6695583" lon="7.9855683"><ele>898.0</ele><time>2026-04-04T07:58:52.947Z</time></trkpt><trkpt lat="45.6694433" lon="7.9856883"><ele>898.0</ele><time>2026-04-04T07:58:53.947Z</time></trkpt><trkpt lat="45.66933" lon="7.9858267"><ele>898.0</ele><time>2026-04-04T07:58:54.947Z</time></trkpt><trkpt lat="45.6692183" lon="7.98595"><ele>898.75</ele><time>2026-04-04T07:58:55.947Z</time></trkpt><trkpt lat="45.6691033" lon="7.9860633"><ele>899.5</ele><time>2026-04-04T07:58:56.947Z</time></trkpt><trkpt lat="45.66899" lon="7.9861733"><ele>900.25</ele><time>2026-04-04T07:58:57.947Z</time></trkpt><trkpt lat="45.6688833" lon="7.986265"><ele>901.0</ele><time>2026-04-04T07:58:58.946Z</time></trkpt><trkpt lat="45.6687867" lon="7.9863317"><ele>900.9999999999999</ele><time>2026-04-04T07:58:59.946Z</time></trkpt><trkpt lat="45.6687067" lon="7.98639"><ele>901.0</ele><time>2026-04-04T07:59:00.946Z</time></trkpt><trkpt lat="45.66863" lon="7.98642"><ele>901.0</ele><time>2026-04-04T07:59:01.946Z</time></trkpt><trkpt lat="45.668545" lon="7.9864383"><ele>901.0</ele><time>2026-04-04T07:59:02.946Z</time></trkpt><trkpt lat="45.6684583" lon="7.986435"><ele>900.9999999999999</ele><time>2026-04-04T07:59:03.946Z</time></trkpt><trkpt lat="45.66836" lon="7.986405"><ele>901.0</ele><time>2026-04-04T07:59:04.946Z</time></trkpt><trkpt lat="45.6682317" lon="7.9863483"><ele>905.5</ele><time>2026-04-04T07:59:05.946Z</time></trkpt><trkpt lat="45.6681133" lon="7.98632"><ele>910.0</ele><time>2026-04-04T07:59:06.946Z</time></trkpt><trkpt lat="45.6679817" lon="7.9863067"><ele>914.5</ele><time>2026-04-04T07:59:07.946Z</time></trkpt><trkpt lat="45.6678467" lon="7.9862917"><ele>919.0</ele><time>2026-04-04T07:59:08.945Z</time></trkpt><trkpt lat="45.6677283" lon="7.98629"><ele>922.6666666666666</ele><time>2026-04-04T07:59:09.946Z</time></trkpt><trkpt lat="45.6676433" lon="7.9862867"><ele>926.3333333333333</ele><time>2026-04-04T07:59:10.946Z</time></trkpt><trkpt lat="45.6675533" lon="7.9862833"><ele>930.0</ele><time>2026-04-04T07:59:11.946Z</time></trkpt><trkpt lat="45.6674817" lon="7.9863"><ele>933.6666666666667</ele><time>2026-04-04T07:59:12.946Z</time></trkpt><trkpt lat="45.6674233" lon="7.9863617"><ele>937.3333333333334</ele><time>2026-04-04T07:59:13.946Z</time></trkpt><trkpt lat="45.667385" lon="7.98646"><ele>941.0</ele><time>2026-04-04T07:59:14.946Z</time></trkpt><trkpt lat="45.66739" lon="7.98656"><ele>941.0000000000001</ele><time>2026-04-04T07:59:15.946Z</time></trkpt><trkpt lat="45.6674167" lon="7.9866567"><ele>941.0</ele><time>2026-04-04T07:59:16.946Z</time></trkpt><trkpt lat="45.66749" lon="7.9867983"><ele>941.0</ele><time>2026-04-04T07:59:18.946Z</time></trkpt><trkpt lat="45.66753" lon="7.98687"><ele>941.0</ele><time>2026-04-04T07:59:19.946Z</time></trkpt><trkpt lat="45.66758" lon="7.9869667"><ele>941.0000000000001</ele><time>2026-04-04T07:59:20.945Z</time></trkpt><trkpt lat="45.6676067" lon="7.9870817"><ele>941.0</ele><time>2026-04-04T07:59:21.946Z</time></trkpt><trkpt lat="45.667625" lon="7.98722"><ele>941.3333333333334</ele><time>2026-04-04T07:59:22.946Z</time></trkpt><trkpt lat="45.6676267" lon="7.98736"><ele>941.6666666666667</ele><time>2026-04-04T07:59:23.946Z</time></trkpt><trkpt lat="45.6676167" lon="7.987505"><ele>942.0</ele><time>2026-04-04T07:59:24.946Z</time></trkpt><trkpt lat="45.667605" lon="7.9876217"><ele>942.3333333333333</ele><time>2026-04-04T07:59:25.946Z</time></trkpt><trkpt lat="45.6675883" lon="7.9877133"><ele>942.6666666666666</ele><time>2026-04-04T07:59:26.945Z</time></trkpt><trkpt lat="45.6675633" lon="7.9878067"><ele>943.0</ele><time>2026-04-04T07:59:27.946Z</time></trkpt><trkpt lat="45.6675283" lon="7.9878967"><ele>940.8333333333333</ele><time>2026-04-04T07:59:28.946Z</time></trkpt><trkpt lat="45.667475" lon="7.9879967"><ele>938.6666666666666</ele><time>2026-04-04T07:59:29.945Z</time></trkpt><trkpt lat="45.6674217" lon="7.98808"><ele>936.5</ele><time>2026-04-04T07:59:30.946Z</time></trkpt><trkpt lat="45.66736" lon="7.988155"><ele>934.3333333333333</ele><time>2026-04-04T07:59:31.946Z</time></trkpt><trkpt lat="45.6672883" lon="7.9882333"><ele>932.1666666666666</ele><time>2026-04-04T07:59:32.946Z</time></trkpt><trkpt lat="45.6672133" lon="7.988305"><ele>930.0</ele><time>2026-04-04T07:59:33.945Z</time></trkpt><trkpt lat="45.6671267" lon="7.9883533"><ele>930.0</ele><time>2026-04-04T07:59:34.946Z</time></trkpt><trkpt lat="45.6670283" lon="7.9883983"><ele>930.0</ele><time>2026-04-04T07:59:35.946Z</time></trkpt><trkpt lat="45.6669417" lon="7.9884567"><ele>930.0</ele><time>2026-04-04T07:59:36.946Z</time></trkpt><trkpt lat="45.6668683" lon="7.9885383"><ele>930.0</ele><time>2026-04-04T07:59:37.945Z</time></trkpt><trkpt lat="45.666785" lon="7.98865"><ele>930.0</ele><time>2026-04-04T07:59:38.946Z</time></trkpt><trkpt lat="45.6667133" lon="7.9887467"><ele>930.0</ele><time>2026-04-04T07:59:39.946Z</time></trkpt><trkpt lat="45.66664" lon="7.9888333"><ele>930.0</ele><time>2026-04-04T07:59:40.946Z</time></trkpt><trkpt lat="45.6665683" lon="7.9888967"><ele>930.0</ele><time>2026-04-04T07:59:41.945Z</time></trkpt><trkpt lat="45.6664867" lon="7.9889467"><ele>930.0</ele><time>2026-04-04T07:59:42.946Z</time></trkpt><trkpt lat="45.6664033" lon="7.9889733"><ele>930.0</ele><time>2026-04-04T07:59:43.946Z</time></trkpt><trkpt lat="45.6663" lon="7.9889633"><ele>930.0</ele><time>2026-04-04T07:59:44.946Z</time></trkpt><trkpt lat="45.6661917" lon="7.9889333"><ele>930.0</ele><time>2026-04-04T07:59:45.946Z</time></trkpt><trkpt lat="45.6660783" lon="7.9888633"><ele>930.0</ele><time>2026-04-04T07:59:46.946Z</time></trkpt><trkpt lat="45.6659683" lon="7.988785"><ele>930.0</ele><time>2026-04-04T07:59:47.946Z</time></trkpt><trkpt lat="45.665865" lon="7.9887183"><ele>931.2</ele><time>2026-04-04T07:59:48.946Z</time></trkpt><trkpt lat="45.6657667" lon="7.98868"><ele>932.4</ele><time>2026-04-04T07:59:49.946Z</time></trkpt><trkpt lat="45.6656817" lon="7.9886517"><ele>933.5999999999999</ele><time>2026-04-04T07:59:50.946Z</time></trkpt><trkpt lat="45.6656" lon="7.98862"><ele>934.8</ele><time>2026-04-04T07:59:51.946Z</time></trkpt><trkpt lat="45.6655167" lon="7.9885617"><ele>936.0</ele><time>2026-04-04T07:59:52.946Z</time></trkpt><trkpt lat="45.6654283" lon="7.9885117"><ele>936.0</ele><time>2026-04-04T07:59:53.945Z</time></trkpt><trkpt lat="45.6653517" lon="7.98847"><ele>936.0</ele><time>2026-04-04T07:59:54.946Z</time></trkpt><trkpt lat="45.6652667" lon="7.9884367"><ele>936.0</ele><time>2026-04-04T07:59:55.946Z</time></trkpt><trkpt lat="45.66518" lon="7.98843"><ele>936.0</ele><time>2026-04-04T07:59:56.946Z</time></trkpt><trkpt lat="45.6650917" lon="7.9884483"><ele>936.0</ele><time>2026-04-04T07:59:57.946Z</time></trkpt><trkpt lat="45.6649933" lon="7.9884667"><ele>936.0</ele><time>2026-04-04T07:59:58.946Z</time></trkpt><trkpt lat="45.66489" lon="7.98849"><ele>935.8</ele><time>2026-04-04T07:59:59.946Z</time></trkpt><trkpt lat="45.6647967" lon="7.9884867"><ele>935.5999999999999</ele><time>2026-04-04T08:00:00.946Z</time></trkpt><trkpt lat="45.6647083" lon="7.9884767"><ele>935.4</ele><time>2026-04-04T08:00:01.946Z</time></trkpt><trkpt lat="45.66462" lon="7.988435"><ele>935.2</ele><time>2026-04-04T08:00:02.946Z</time></trkpt><trkpt lat="45.66453" lon="7.9883983"><ele>935.0</ele><time>2026-04-04T08:00:03.946Z</time></trkpt><trkpt lat="45.6644417" lon="7.9884033"><ele>939.0</ele><time>2026-04-04T08:00:04.946Z</time></trkpt><trkpt lat="45.664365" lon="7.988435"><ele>943.0</ele><time>2026-04-04T08:00:05.945Z</time></trkpt><trkpt lat="45.6642983" lon="7.9885133"><ele>947.0</ele><time>2026-04-04T08:00:06.946Z</time></trkpt><trkpt lat="45.664235" lon="7.9886083"><ele>951.0</ele><time>2026-04-04T08:00:07.946Z</time></trkpt><trkpt lat="45.6641783" lon="7.9887283"><ele>955.0</ele><time>2026-04-04T08:00:08.946Z</time></trkpt><trkpt lat="45.6641233" lon="7.9888417"><ele>955.0</ele><time>2026-04-04T08:00:09.946Z</time></trkpt><trkpt lat="45.6640683" lon="7.9889717"><ele>955.0</ele><time>2026-04-04T08:00:10.946Z</time></trkpt><trkpt lat="45.6640067" lon="7.989105"><ele>955.0</ele><time>2026-04-04T08:00:11.946Z</time></trkpt><trkpt lat="45.6639483" lon="7.9892367"><ele>955.0</ele><time>2026-04-04T08:00:12.945Z</time></trkpt><trkpt lat="45.6639" lon="7.989355"><ele>955.0</ele><time>2026-04-04T08:00:13.946Z</time></trkpt><trkpt lat="45.663855" lon="7.9894567"><ele>955.1666666666666</ele><time>2026-04-04T08:00:14.946Z</time></trkpt><trkpt lat="45.6638167" lon="7.9895483"><ele>955.3333333333333</ele><time>2026-04-04T08:00:15.946Z</time></trkpt><trkpt lat="45.6637967" lon="7.9896417"><ele>955.5</ele><time>2026-04-04T08:00:16.946Z</time></trkpt><trkpt lat="45.6638083" lon="7.9897367"><ele>955.6666666666667</ele><time>2026-04-04T08:00:17.946Z</time></trkpt><trkpt lat="45.6638517" lon="7.9898333"><ele>955.8333333333334</ele><time>2026-04-04T08:00:18.946Z</time></trkpt><trkpt lat="45.66392" lon="7.989925"><ele>956.0</ele><time>2026-04-04T08:00:19.946Z</time></trkpt><trkpt lat="45.6640017" lon="7.9900333"><ele>956.0</ele><time>2026-04-04T08:00:20.946Z</time></trkpt><trkpt lat="45.6640767" lon="7.9901433"><ele>955.9999999999999</ele><time>2026-04-04T08:00:21.946Z</time></trkpt><trkpt lat="45.6641217" lon="7.9902733"><ele>955.9999999999999</ele><time>2026-04-04T08:00:22.946Z</time></trkpt><trkpt lat="45.6641317" lon="7.9904233"><ele>956.0</ele><time>2026-04-04T08:00:23.946Z</time></trkpt><trkpt lat="45.6641183" lon="7.9905733"><ele>956.0</ele><time>2026-04-04T08:00:24.946Z</time></trkpt><trkpt lat="45.66408" lon="7.9907233"><ele>951.5</ele><time>2026-04-04T08:00:25.945Z</time></trkpt><trkpt lat="45.6640217" lon="7.9908733"><ele>947.0</ele><time>2026-04-04T08:00:26.946Z</time></trkpt><trkpt lat="45.66395" lon="7.9910067"><ele>942.5</ele><time>2026-04-04T08:00:27.946Z</time></trkpt><trkpt lat="45.66387" lon="7.991125"><ele>938.0</ele><time>2026-04-04T08:00:28.946Z</time></trkpt><trkpt lat="45.6637933" lon="7.9912333"><ele>938.0</ele><time>2026-04-04T08:00:29.946Z</time></trkpt><trkpt lat="45.663705" lon="7.9913467"><ele>938.0</ele><time>2026-04-04T08:00:30.946Z</time></trkpt><trkpt lat="45.6636217" lon="7.991465"><ele>938.0</ele><time>2026-04-04T08:00:31.946Z</time></trkpt><trkpt lat="45.6635117" lon="7.99159"><ele>938.0</ele><time>2026-04-04T08:00:32.946Z</time></trkpt><trkpt lat="45.6633983" lon="7.9917267"><ele>940.75</ele><time>2026-04-04T08:00:33.946Z</time></trkpt><trkpt lat="45.6632917" lon="7.991855"><ele>943.5</ele><time>2026-04-04T08:00:34.946Z</time></trkpt><trkpt lat="45.663195" lon="7.9919683"><ele>946.25</ele><time>2026-04-04T08:00:35.946Z</time></trkpt><trkpt lat="45.6630883" lon="7.9920617"><ele>949.0</ele><time>2026-04-04T08:00:36.946Z</time></trkpt><trkpt lat="45.662985" lon="7.9921333"><ele>949.0</ele><time>2026-04-04T08:00:37.946Z</time></trkpt><trkpt lat="45.6628833" lon="7.99219"><ele>949.0</ele><time>2026-04-04T08:00:38.946Z</time></trkpt><trkpt lat="45.6627867" lon="7.9922467"><ele>949.0</ele><time>2026-04-04T08:00:39.946Z</time></trkpt><trkpt lat="45.6626567" lon="7.9922433"><ele>949.0</ele><time>2026-04-04T08:00:40.945Z</time></trkpt><trkpt lat="45.6625233" lon="7.9922583"><ele>959.3333333333333</ele><time>2026-04-04T08:00:41.946Z</time></trkpt><trkpt lat="45.662355" lon="7.9922833"><ele>969.6666666666667</ele><time>2026-04-04T08:00:42.946Z</time></trkpt><trkpt lat="45.6622067" lon="7.992305"><ele>980.0</ele><time>2026-04-04T08:00:43.945Z</time></trkpt><trkpt lat="45.6620717" lon="7.9923233"><ele>980.0</ele><time>2026-04-04T08:00:44.946Z</time></trkpt><trkpt lat="45.6619583" lon="7.992325"><ele>980.0</ele><time>2026-04-04T08:00:45.946Z</time></trkpt><trkpt lat="45.6618517" lon="7.9923167"><ele>980.0</ele><time>2026-04-04T08:00:46.945Z</time></trkpt><trkpt lat="45.6617433" lon="7.9922633"><ele>980.0</ele><time>2026-04-04T08:00:47.945Z</time></trkpt><trkpt lat="45.6616467" lon="7.9922133"><ele>980.0</ele><time>2026-04-04T08:00:48.946Z</time></trkpt><trkpt lat="45.6615633" lon="7.992185"><ele>978.8</ele><time>2026-04-04T08:00:49.946Z</time></trkpt><trkpt lat="45.6614833" lon="7.9921867"><ele>977.6</ele><time>2026-04-04T08:00:50.946Z</time></trkpt><trkpt lat="45.661415" lon="7.9922333"><ele>976.4000000000001</ele><time>2026-04-04T08:00:51.946Z</time></trkpt><trkpt lat="45.6613483" lon="7.9922933"><ele>975.2</ele><time>2026-04-04T08:00:52.945Z</time></trkpt><trkpt lat="45.6612883" lon="7.992405"><ele>974.0</ele><time>2026-04-04T08:00:53.945Z</time></trkpt><trkpt lat="45.6612183" lon="7.9925483"><ele>974.0</ele><time>2026-04-04T08:00:54.946Z</time></trkpt><trkpt lat="45.6611417" lon="7.9927067"><ele>974.0</ele><time>2026-04-04T08:00:55.946Z</time></trkpt><trkpt lat="45.6610617" lon="7.9928533"><ele>974.0</ele><time>2026-04-04T08:00:56.946Z</time></trkpt><trkpt lat="45.6609733" lon="7.993"><ele>974.0</ele><time>2026-04-04T08:00:57.945Z</time></trkpt><trkpt lat="45.66088" lon="7.993135"><ele>977.25</ele><time>2026-04-04T08:00:58.946Z</time></trkpt><trkpt lat="45.6607733" lon="7.9932683"><ele>980.5</ele><time>2026-04-04T08:00:59.946Z</time></trkpt><trkpt lat="45.66067" lon="7.9934167"><ele>983.75</ele><time>2026-04-04T08:01:00.945Z</time></trkpt><trkpt lat="45.66056" lon="7.9935667"><ele>987.0</ele><time>2026-04-04T08:01:01.946Z</time></trkpt><trkpt lat="45.660455" lon="7.9937283"><ele>987.0</ele><time>2026-04-04T08:01:02.946Z</time></trkpt><trkpt lat="45.660345" lon="7.993875"><ele>987.0</ele><time>2026-04-04T08:01:03.946Z</time></trkpt><trkpt lat="45.66026" lon="7.994015"><ele>987.0</ele><time>2026-04-04T08:01:04.946Z</time></trkpt><trkpt lat="45.6601733" lon="7.9941567"><ele>987.0</ele><time>2026-04-04T08:01:05.946Z</time></trkpt><trkpt lat="45.6600967" lon="7.99429"><ele>987.6666666666666</ele><time>2026-04-04T08:01:06.946Z</time></trkpt><trkpt lat="45.6600617" lon="7.994415"><ele>988.3333333333333</ele><time>2026-04-04T08:01:07.946Z</time></trkpt><trkpt lat="45.6599983" lon="7.9945117"><ele>989.0</ele><time>2026-04-04T08:01:08.946Z</time></trkpt><trkpt lat="45.6599383" lon="7.9945783"><ele>989.6666666666666</ele><time>2026-04-04T08:01:09.946Z</time></trkpt><trkpt lat="45.6598617" lon="7.9946267"><ele>990.3333333333333</ele><time>2026-04-04T08:01:10.946Z</time></trkpt><trkpt lat="45.6597683" lon="7.9946567"><ele>991.0</ele><time>2026-04-04T08:01:11.946Z</time></trkpt><trkpt lat="45.6596517" lon="7.994675"><ele>991.0</ele><time>2026-04-04T08:01:12.946Z</time></trkpt><trkpt lat="45.6595233" lon="7.99468"><ele>991.0</ele><time>2026-04-04T08:01:13.946Z</time></trkpt><trkpt lat="45.6593817" lon="7.99468"><ele>991.0</ele><time>2026-04-04T08:01:14.946Z</time></trkpt><trkpt lat="45.65924" lon="7.9946883"><ele>991.0</ele><time>2026-04-04T08:01:15.946Z</time></trkpt><trkpt lat="45.6591183" lon="7.9947083"><ele>992.6666666666666</ele><time>2026-04-04T08:01:16.946Z</time></trkpt><trkpt lat="45.659025" lon="7.9946967"><ele>994.3333333333333</ele><time>2026-04-04T08:01:17.946Z</time></trkpt><trkpt lat="45.6589533" lon="7.99467"><ele>996.0</ele><time>2026-04-04T08:01:18.946Z</time></trkpt><trkpt lat="45.6589" lon="7.9945967"><ele>997.6666666666667</ele><time>2026-04-04T08:01:19.946Z</time></trkpt><trkpt lat="45.6588583" lon="7.9944833"><ele>999.3333333333334</ele><time>2026-04-04T08:01:20.946Z</time></trkpt><trkpt lat="45.6588067" lon="7.9943567"><ele>1001.0</ele><time>2026-04-04T08:01:21.946Z</time></trkpt><trkpt lat="45.65876" lon="7.9942117"><ele>1005.0</ele><time>2026-04-04T08:01:22.946Z</time></trkpt><trkpt lat="45.6587183" lon="7.9940867"><ele>1008.9999999999999</ele><time>2026-04-04T08:01:23.946Z</time></trkpt><trkpt lat="45.6586917" lon="7.9939617"><ele>1012.9999999999999</ele><time>2026-04-04T08:01:24.946Z</time></trkpt><trkpt lat="45.6586967" lon="7.9938217"><ele>1017.0</ele><time>2026-04-04T08:01:25.946Z</time></trkpt><trkpt lat="45.65869" lon="7.99369"><ele>1021.0</ele><time>2026-04-04T08:01:26.946Z</time></trkpt><trkpt lat="45.6586667" lon="7.993555"><ele>1021.0</ele><time>2026-04-04T08:01:27.946Z</time></trkpt><trkpt lat="45.6586283" lon="7.9934167"><ele>1020.9999999999999</ele><time>2026-04-04T08:01:28.946Z</time></trkpt><trkpt lat="45.658585" lon="7.9932783"><ele>1020.9999999999999</ele><time>2026-04-04T08:01:29.946Z</time></trkpt><trkpt lat="45.658555" lon="7.9931583"><ele>1021.0</ele><time>2026-04-04T08:01:30.946Z</time></trkpt><trkpt lat="45.6585083" lon="7.9930567"><ele>1021.0</ele><time>2026-04-04T08:01:31.945Z</time></trkpt><trkpt lat="45.6584517" lon="7.9929633"><ele>1021.4999999999999</ele><time>2026-04-04T08:01:32.946Z</time></trkpt><trkpt lat="45.6584033" lon="7.9928733"><ele>1022.0</ele><time>2026-04-04T08:01:33.946Z</time></trkpt><trkpt lat="45.658345" lon="7.9927883"><ele>1022.5</ele><time>2026-04-04T08:01:34.946Z</time></trkpt><trkpt lat="45.65831" lon="7.9926967"><ele>1023.0</ele><time>2026-04-04T08:01:35.946Z</time></trkpt><trkpt lat="45.65829" lon="7.992575"><ele>1023.4999999999999</ele><time>2026-04-04T08:01:36.946Z</time></trkpt><trkpt lat="45.6582783" lon="7.9924433"><ele>1024.0</ele><time>2026-04-04T08:01:37.946Z</time></trkpt><trkpt lat="45.658285" lon="7.9923167"><ele>1026.2</ele><time>2026-04-04T08:01:38.946Z</time></trkpt><trkpt lat="45.6582783" lon="7.99219"><ele>1028.4</ele><time>2026-04-04T08:01:39.946Z</time></trkpt><trkpt lat="45.658255" lon="7.9920533"><ele>1030.6</ele><time>2026-04-04T08:01:40.945Z</time></trkpt><trkpt lat="45.6582117" lon="7.99191"><ele>1032.8</ele><time>2026-04-04T08:01:41.946Z</time></trkpt><trkpt lat="45.6581767" lon="7.9917483"><ele>1035.0</ele><time>2026-04-04T08:01:42.946Z</time></trkpt><trkpt lat="45.65816" lon="7.991605"><ele>1035.5</ele><time>2026-04-04T08:01:43.946Z</time></trkpt><trkpt lat="45.6581717" lon="7.99148"><ele>1036.0</ele><time>2026-04-04T08:01:44.946Z</time></trkpt><trkpt lat="45.6582067" lon="7.9913383"><ele>1036.5</ele><time>2026-04-04T08:01:45.946Z</time></trkpt><trkpt lat="45.6582483" lon="7.991165"><ele>1037.0</ele><time>2026-04-04T08:01:46.946Z</time></trkpt><trkpt lat="45.6582833" lon="7.99098"><ele>1038.4</ele><time>2026-04-04T08:01:47.946Z</time></trkpt><trkpt lat="45.6583033" lon="7.9908233"><ele>1039.8000000000002</ele><time>2026-04-04T08:01:48.946Z</time></trkpt><trkpt lat="45.658295" lon="7.9906667"><ele>1041.2</ele><time>2026-04-04T08:01:49.946Z</time></trkpt><trkpt lat="45.6582683" lon="7.9905217"><ele>1042.6000000000001</ele><time>2026-04-04T08:01:50.946Z</time></trkpt><trkpt lat="45.658225" lon="7.990415"><ele>1044.0</ele><time>2026-04-04T08:01:51.946Z</time></trkpt><trkpt lat="45.6581667" lon="7.99034"><ele>1044.0</ele><time>2026-04-04T08:01:52.946Z</time></trkpt><trkpt lat="45.6580967" lon="7.9902967"><ele>1044.0</ele><time>2026-04-04T08:01:53.946Z</time></trkpt><trkpt lat="45.6580217" lon="7.9902967"><ele>1044.0</ele><time>2026-04-04T08:01:54.946Z</time></trkpt><trkpt lat="45.657945" lon="7.9903267"><ele>1044.0</ele><time>2026-04-04T08:01:55.946Z</time></trkpt><trkpt lat="45.657865" lon="7.9903783"><ele>1044.0</ele><time>2026-04-04T08:01:56.946Z</time></trkpt><trkpt lat="45.657765" lon="7.9904567"><ele>1044.0</ele><time>2026-04-04T08:01:57.946Z</time></trkpt><trkpt lat="45.6576533" lon="7.9905317"><ele>1045.0</ele><time>2026-04-04T08:01:58.946Z</time></trkpt><trkpt lat="45.65754" lon="7.9905933"><ele>1046.0</ele><time>2026-04-04T08:01:59.946Z</time></trkpt><trkpt lat="45.6574167" lon="7.99064"><ele>1047.0</ele><time>2026-04-04T08:02:00.946Z</time></trkpt><trkpt lat="45.6572917" lon="7.9906917"><ele>1048.0</ele><time>2026-04-04T08:02:01.946Z</time></trkpt><trkpt lat="45.6571817" lon="7.990755"><ele>1048.0</ele><time>2026-04-04T08:02:02.946Z</time></trkpt><trkpt lat="45.6570667" lon="7.9908317"><ele>1048.0</ele><time>2026-04-04T08:02:03.946Z</time></trkpt><trkpt lat="45.6569533" lon="7.990915"><ele>1048.0</ele><time>2026-04-04T08:02:04.946Z</time></trkpt><trkpt lat="45.656855" lon="7.991"><ele>1048.0</ele><time>2026-04-04T08:02:05.946Z</time></trkpt><trkpt lat="45.6567667" lon="7.9910667"><ele>1047.0</ele><time>2026-04-04T08:02:06.946Z</time></trkpt><trkpt lat="45.6566783" lon="7.99112"><ele>1046.0</ele><time>2026-04-04T08:02:07.946Z</time></trkpt><trkpt lat="45.6565817" lon="7.991155"><ele>1045.0</ele><time>2026-04-04T08:02:08.946Z</time></trkpt><trkpt lat="45.6564783" lon="7.99119"><ele>1044.0</ele><time>2026-04-04T08:02:09.946Z</time></trkpt><trkpt lat="45.6563717" lon="7.9912217"><ele>1043.0</ele><time>2026-04-04T08:02:10.946Z</time></trkpt><trkpt lat="45.6562817" lon="7.9912367"><ele>1043.0</ele><time>2026-04-04T08:02:11.946Z</time></trkpt><trkpt lat="45.6561983" lon="7.9912567"><ele>1043.0</ele><time>2026-04-04T08:02:12.946Z</time></trkpt><trkpt lat="45.6561233" lon="7.9912533"><ele>1043.0</ele><time>2026-04-04T08:02:13.946Z</time></trkpt><trkpt lat="45.6560533" lon="7.99123"><ele>1043.0</ele><time>2026-04-04T08:02:14.946Z</time></trkpt><trkpt lat="45.6559967" lon="7.9911867"><ele>1043.0</ele><time>2026-04-04T08:02:15.946Z</time></trkpt><trkpt lat="45.6559617" lon="7.99111"><ele>1043.0</ele><time>2026-04-04T08:02:16.946Z</time></trkpt><trkpt lat="45.6559283" lon="7.9910317"><ele>1043.0</ele><time>2026-04-04T08:02:17.946Z</time></trkpt><trkpt lat="45.6558833" lon="7.9909533"><ele>1041.6</ele><time>2026-04-04T08:02:18.946Z</time></trkpt><trkpt lat="45.6558233" lon="7.9908633"><ele>1040.1999999999998</ele><time>2026-04-04T08:02:19.946Z</time></trkpt><trkpt lat="45.655765" lon="7.9907483"><ele>1038.8</ele><time>2026-04-04T08:02:20.946Z</time></trkpt><trkpt lat="45.655705" lon="7.990645"><ele>1037.3999999999999</ele><time>2026-04-04T08:02:21.946Z</time></trkpt><trkpt lat="45.6556483" lon="7.9905333"><ele>1036.0</ele><time>2026-04-04T08:02:22.946Z</time></trkpt><trkpt lat="45.6556033" lon="7.9904133"><ele>1040.3999999999999</ele><time>2026-04-04T08:02:23.946Z</time></trkpt><trkpt lat="45.65557" lon="7.99029"><ele>1044.8</ele><time>2026-04-04T08:02:24.946Z</time></trkpt><trkpt lat="45.65556" lon="7.9901533"><ele>1049.1999999999998</ele><time>2026-04-04T08:02:25.945Z</time></trkpt><trkpt lat="45.6555533" lon="7.990025"><ele>1053.6</ele><time>2026-04-04T08:02:26.946Z</time></trkpt><trkpt lat="45.65554" lon="7.9898917"><ele>1058.0</ele><time>2026-04-04T08:02:27.946Z</time></trkpt><trkpt lat="45.6555317" lon="7.98975"><ele>1062.25</ele><time>2026-04-04T08:02:28.946Z</time></trkpt><trkpt lat="45.6555183" lon="7.9895967"><ele>1066.5</ele><time>2026-04-04T08:02:29.946Z</time></trkpt><trkpt lat="45.6555083" lon="7.9894383"><ele>1070.75</ele><time>2026-04-04T08:02:30.946Z</time></trkpt><trkpt lat="45.6554967" lon="7.989265"><ele>1075.0</ele><time>2026-04-04T08:02:31.946Z</time></trkpt><trkpt lat="45.65547" lon="7.9890833"><ele>1073.75</ele><time>2026-04-04T08:02:32.946Z</time></trkpt><trkpt lat="45.65543" lon="7.9889133"><ele>1072.5</ele><time>2026-04-04T08:02:33.946Z</time></trkpt><trkpt lat="45.655385" lon="7.98871"><ele>1071.25</ele><time>2026-04-04T08:02:34.946Z</time></trkpt><trkpt lat="45.65534" lon="7.9885267"><ele>1070.0</ele><time>2026-04-04T08:02:35.946Z</time></trkpt><trkpt lat="45.6552833" lon="7.98836"><ele>1071.8</ele><time>2026-04-04T08:02:36.946Z</time></trkpt><trkpt lat="45.65522" lon="7.98821"><ele>1073.6</ele><time>2026-04-04T08:02:37.946Z</time></trkpt><trkpt lat="45.6551567" lon="7.98807"><ele>1075.4</ele><time>2026-04-04T08:02:38.945Z</time></trkpt><trkpt lat="45.6551067" lon="7.9879467"><ele>1077.2</ele><time>2026-04-04T08:02:39.946Z</time></trkpt><trkpt lat="45.6550533" lon="7.98785"><ele>1079.0</ele><time>2026-04-04T08:02:40.946Z</time></trkpt><trkpt lat="45.6549983" lon="7.9877617"><ele>1079.0</ele><time>2026-04-04T08:02:41.946Z</time></trkpt><trkpt lat="45.65492" lon="7.9876733"><ele>1079.0</ele><time>2026-04-04T08:02:43.946Z</time></trkpt><trkpt lat="45.6548517" lon="7.9876583"><ele>1079.0</ele><time>2026-04-04T08:02:45.946Z</time></trkpt><trkpt lat="45.6547733" lon="7.9876933"><ele>1079.0</ele><time>2026-04-04T08:02:47.946Z</time></trkpt><trkpt lat="45.6547033" lon="7.9877767"><ele>1079.0</ele><time>2026-04-04T08:02:49.945Z</time></trkpt><trkpt lat="45.65467" lon="7.98787"><ele>1079.0</ele><time>2026-04-04T08:02:50.946Z</time></trkpt><trkpt lat="45.65464" lon="7.9879867"><ele>1079.0</ele><time>2026-04-04T08:02:51.946Z</time></trkpt><trkpt lat="45.6546167" lon="7.98811"><ele>1079.0</ele><time>2026-04-04T08:02:52.946Z</time></trkpt><trkpt lat="45.654595" lon="7.9882617"><ele>1079.0</ele><time>2026-04-04T08:02:53.946Z</time></trkpt><trkpt lat="45.654585" lon="7.98842"><ele>1079.0</ele><time>2026-04-04T08:02:54.946Z</time></trkpt><trkpt lat="45.6545817" lon="7.9885883"><ele>1079.0</ele><time>2026-04-04T08:02:55.946Z</time></trkpt><trkpt lat="45.6545683" lon="7.9887567"><ele>1080.4</ele><time>2026-04-04T08:02:56.945Z</time></trkpt><trkpt lat="45.65456" lon="7.9889283"><ele>1081.8000000000002</ele><time>2026-04-04T08:02:57.946Z</time></trkpt><trkpt lat="45.654555" lon="7.989085"><ele>1083.1999999999998</ele><time>2026-04-04T08:02:58.946Z</time></trkpt><trkpt lat="45.6545367" lon="7.9892117"><ele>1084.6</ele><time>2026-04-04T08:02:59.946Z</time></trkpt><trkpt lat="45.6545033" lon="7.9893217"><ele>1086.0</ele><time>2026-04-04T08:03:00.946Z</time></trkpt><trkpt lat="45.6544517" lon="7.9894133"><ele>1086.0</ele><time>2026-04-04T08:03:01.946Z</time></trkpt><trkpt lat="45.654405" lon="7.9894817"><ele>1086.0</ele><time>2026-04-04T08:03:02.946Z</time></trkpt><trkpt lat="45.6543417" lon="7.9895117"><ele>1086.0</ele><time>2026-04-04T08:03:03.945Z</time></trkpt><trkpt lat="45.654275" lon="7.9895367"><ele>1086.0</ele><time>2026-04-04T08:03:04.946Z</time></trkpt><trkpt lat="45.6542017" lon="7.989565"><ele>1086.0</ele><time>2026-04-04T08:03:05.946Z</time></trkpt><trkpt lat="45.6541333" lon="7.9896167"><ele>1086.0</ele><time>2026-04-04T08:03:06.946Z</time></trkpt><trkpt lat="45.6540633" lon="7.989685"><ele>1086.0</ele><time>2026-04-04T08:03:07.946Z</time></trkpt><trkpt lat="45.6539983" lon="7.98976"><ele>1086.0</ele><time>2026-04-04T08:03:08.946Z</time></trkpt><trkpt lat="45.653935" lon="7.9898433"><ele>1086.0</ele><time>2026-04-04T08:03:09.946Z</time></trkpt><trkpt lat="45.6538767" lon="7.9899017"><ele>1086.0</ele><time>2026-04-04T08:03:10.946Z</time></trkpt><trkpt lat="45.6537833" lon="7.989995"><ele>1086.0</ele><time>2026-04-04T08:03:12.946Z</time></trkpt><trkpt lat="45.6536817" lon="7.9901133"><ele>1086.0</ele><time>2026-04-04T08:03:14.946Z</time></trkpt><trkpt lat="45.6536267" lon="7.99022"><ele>1092.75</ele><time>2026-04-04T08:03:15.946Z</time></trkpt><trkpt lat="45.653575" lon="7.9903517"><ele>1099.5</ele><time>2026-04-04T08:03:16.946Z</time></trkpt><trkpt lat="45.653515" lon="7.9905"><ele>1106.25</ele><time>2026-04-04T08:03:17.946Z</time></trkpt><trkpt lat="45.6534683" lon="7.9906683"><ele>1113.0</ele><time>2026-04-04T08:03:18.946Z</time></trkpt><trkpt lat="45.6534283" lon="7.99084"><ele>1109.5</ele><time>2026-04-04T08:03:19.946Z</time></trkpt><trkpt lat="45.653395" lon="7.9910033"><ele>1106.0</ele><time>2026-04-04T08:03:20.946Z</time></trkpt><trkpt lat="45.6533567" lon="7.991165"><ele>1102.5</ele><time>2026-04-04T08:03:21.946Z</time></trkpt><trkpt lat="45.6533183" lon="7.9913183"><ele>1099.0</ele><time>2026-04-04T08:03:22.946Z</time></trkpt><trkpt lat="45.653255" lon="7.9914417"><ele>1099.0</ele><time>2026-04-04T08:03:23.946Z</time></trkpt><trkpt lat="45.65317" lon="7.9915533"><ele>1099.0</ele><time>2026-04-04T08:03:24.946Z</time></trkpt><trkpt lat="45.6530817" lon="7.99164"><ele>1099.0</ele><time>2026-04-04T08:03:25.946Z</time></trkpt><trkpt lat="45.6530167" lon="7.991685"><ele>1099.0</ele><time>2026-04-04T08:03:26.946Z</time></trkpt><trkpt lat="45.65295" lon="7.991655"><ele>1099.0</ele><time>2026-04-04T08:03:28.946Z</time></trkpt><trkpt lat="45.652935" lon="7.9915583"><ele>1099.0</ele><time>2026-04-04T08:03:30.945Z</time></trkpt><trkpt lat="45.652975" lon="7.9914833"><ele>1099.0</ele><time>2026-04-04T08:03:32.946Z</time></trkpt><trkpt lat="45.6530433" lon="7.9913867"><ele>1099.0</ele><time>2026-04-04T08:03:34.946Z</time></trkpt><trkpt lat="45.6530733" lon="7.99129"><ele>1099.0</ele><time>2026-04-04T08:03:35.946Z</time></trkpt><trkpt lat="45.653095" lon="7.9911517"><ele>1099.0</ele><time>2026-04-04T08:03:36.946Z</time></trkpt><trkpt lat="45.6531167" lon="7.9909917"><ele>1099.0</ele><time>2026-04-04T08:03:37.946Z</time></trkpt><trkpt lat="45.65314" lon="7.990825"><ele>1102.5</ele><time>2026-04-04T08:03:38.946Z</time></trkpt><trkpt lat="45.6531583" lon="7.9906317"><ele>1106.0</ele><time>2026-04-04T08:03:39.946Z</time></trkpt><trkpt lat="45.6531767" lon="7.9904333"><ele>1109.5</ele><time>2026-04-04T08:03:40.946Z</time></trkpt><trkpt lat="45.6532017" lon="7.9902333"><ele>1113.0</ele><time>2026-04-04T08:03:41.946Z</time></trkpt><trkpt lat="45.65324" lon="7.9900233"><ele>1118.0</ele><time>2026-04-04T08:03:42.946Z</time></trkpt><trkpt lat="45.65329" lon="7.9898167"><ele>1123.0</ele><time>2026-04-04T08:03:43.946Z</time></trkpt><trkpt lat="45.6533517" lon="7.9896"><ele>1128.0</ele><time>2026-04-04T08:03:44.946Z</time></trkpt><trkpt lat="45.6534183" lon="7.9893967"><ele>1128.0</ele><time>2026-04-04T08:03:45.946Z</time></trkpt><trkpt lat="45.6534883" lon="7.9892"><ele>1128.0</ele><time>2026-04-04T08:03:46.946Z</time></trkpt><trkpt lat="45.65356" lon="7.9890283"><ele>1128.0</ele><time>2026-04-04T08:03:47.946Z</time></trkpt><trkpt lat="45.65362" lon="7.9888767"><ele>1128.0</ele><time>2026-04-04T08:03:48.946Z</time></trkpt><trkpt lat="45.6536617" lon="7.9887433"><ele>1124.8333333333333</ele><time>2026-04-04T08:03:49.946Z</time></trkpt><trkpt lat="45.6537033" lon="7.98863"><ele>1121.6666666666667</ele><time>2026-04-04T08:03:50.946Z</time></trkpt><trkpt lat="45.6537567" lon="7.9885367"><ele>1118.5</ele><time>2026-04-04T08:03:51.946Z</time></trkpt><trkpt lat="45.65381" lon="7.9884717"><ele>1115.3333333333335</ele><time>2026-04-04T08:03:52.946Z</time></trkpt><trkpt lat="45.6538617" lon="7.9883883"><ele>1112.1666666666667</ele><time>2026-04-04T08:03:54.946Z</time></trkpt><trkpt lat="45.6537433" lon="7.98839"><ele>1109.0</ele><time>2026-04-04T08:03:59.946Z</time></trkpt><trkpt lat="45.653695" lon="7.988465"><ele>1109.0</ele><time>2026-04-04T08:04:00.946Z</time></trkpt><trkpt lat="45.6536383" lon="7.98856"><ele>1109.0</ele><time>2026-04-04T08:04:01.946Z</time></trkpt><trkpt lat="45.653575" lon="7.9886717"><ele>1109.0</ele><time>2026-04-04T08:04:02.946Z</time></trkpt><trkpt lat="45.6534983" lon="7.9887967"><ele>1109.0</ele><time>2026-04-04T08:04:03.946Z</time></trkpt><trkpt lat="45.6534083" lon="7.988915"><ele>1109.0</ele><time>2026-04-04T08:04:04.946Z</time></trkpt><trkpt lat="45.653305" lon="7.9890383"><ele>1113.75</ele><time>2026-04-04T08:04:05.946Z</time></trkpt><trkpt lat="45.653195" lon="7.98917"><ele>1118.5</ele><time>2026-04-04T08:04:06.946Z</time></trkpt><trkpt lat="45.6530967" lon="7.9893083"><ele>1123.25</ele><time>2026-04-04T08:04:07.946Z</time></trkpt><trkpt lat="45.653005" lon="7.9894333"><ele>1128.0</ele><time>2026-04-04T08:04:08.946Z</time></trkpt><trkpt lat="45.6529217" lon="7.9895683"><ele>1128.0</ele><time>2026-04-04T08:04:09.945Z</time></trkpt><trkpt lat="45.6528467" lon="7.989705"><ele>1128.0</ele><time>2026-04-04T08:04:10.945Z</time></trkpt><trkpt lat="45.6527833" lon="7.9898133"><ele>1128.0</ele><time>2026-04-04T08:04:11.945Z</time></trkpt><trkpt lat="45.6527283" lon="7.9899183"><ele>1128.0</ele><time>2026-04-04T08:04:12.945Z</time></trkpt><trkpt lat="45.6526767" lon="7.9900167"><ele>1128.0</ele><time>2026-04-04T08:04:13.945Z</time></trkpt><trkpt lat="45.6526217" lon="7.9901083"><ele>1131.0</ele><time>2026-04-04T08:04:14.944Z</time></trkpt><trkpt lat="45.652565" lon="7.9901817"><ele>1134.0</ele><time>2026-04-04T08:04:15.945Z</time></trkpt><trkpt lat="45.6525067" lon="7.9902467"><ele>1137.0</ele><time>2026-04-04T08:04:16.945Z</time></trkpt><trkpt lat="45.6524517" lon="7.990305"><ele>1140.0</ele><time>2026-04-04T08:04:17.945Z</time></trkpt><trkpt lat="45.6523867" lon="7.9903567"><ele>1143.0</ele><time>2026-04-04T08:04:19.945Z</time></trkpt><trkpt lat="45.65237" lon="7.9902417"><ele>1146.0</ele><time>2026-04-04T08:04:23.945Z</time></trkpt><trkpt lat="45.6524467" lon="7.9900767"><ele>1150.6</ele><time>2026-04-04T08:04:25.945Z</time></trkpt><trkpt lat="45.65248" lon="7.9899717"><ele>1155.1999999999998</ele><time>2026-04-04T08:04:26.945Z</time></trkpt><trkpt lat="45.65252" lon="7.9898417"><ele>1159.8000000000002</ele><time>2026-04-04T08:04:27.945Z</time></trkpt><trkpt lat="45.6525633" lon="7.9896983"><ele>1164.4</ele><time>2026-04-04T08:04:28.945Z</time></trkpt><trkpt lat="45.6526167" lon="7.9895583"><ele>1169.0</ele><time>2026-04-04T08:04:29.945Z</time></trkpt><trkpt lat="45.6526733" lon="7.9894367"><ele>1169.0</ele><time>2026-04-04T08:04:30.945Z</time></trkpt><trkpt lat="45.6527283" lon="7.9893367"><ele>1169.0</ele><time>2026-04-04T08:04:31.945Z</time></trkpt><trkpt lat="45.6527667" lon="7.989265"><ele>1169.0</ele><time>2026-04-04T08:04:32.945Z</time></trkpt><trkpt lat="45.6527883" lon="7.9891417"><ele>1169.0</ele><time>2026-04-04T08:04:34.945Z</time></trkpt><trkpt lat="45.652715" lon="7.9891033"><ele>1169.0</ele><time>2026-04-04T08:04:37.945Z</time></trkpt><trkpt lat="45.652655" lon="7.9892067"><ele>1169.0</ele><time>2026-04-04T08:04:39.945Z</time></trkpt><trkpt lat="45.652615" lon="7.9892967"><ele>1169.0</ele><time>2026-04-04T08:04:40.945Z</time></trkpt><trkpt lat="45.652555" lon="7.9894017"><ele>1169.0</ele><time>2026-04-04T08:04:41.945Z</time></trkpt><trkpt lat="45.6524833" lon="7.9895183"><ele>1169.0</ele><time>2026-04-04T08:04:42.945Z</time></trkpt><trkpt lat="45.6524067" lon="7.98962"><ele>1169.0</ele><time>2026-04-04T08:04:43.945Z</time></trkpt><trkpt lat="45.6523133" lon="7.989725"><ele>1169.0</ele><time>2026-04-04T08:04:44.945Z</time></trkpt><trkpt lat="45.6522133" lon="7.9898133"><ele>1169.0</ele><time>2026-04-04T08:04:45.945Z</time></trkpt><trkpt lat="45.65211" lon="7.9898883"><ele>1169.0</ele><time>2026-04-04T08:04:46.945Z</time></trkpt><trkpt lat="45.652005" lon="7.9899683"><ele>1169.0</ele><time>2026-04-04T08:04:47.945Z</time></trkpt><trkpt lat="45.65189" lon="7.9900383"><ele>1169.0</ele><time>2026-04-04T08:04:48.945Z</time></trkpt><trkpt lat="45.651785" lon="7.990065"><ele>1172.0</ele><time>2026-04-04T08:04:49.945Z</time></trkpt><trkpt lat="45.6516983" lon="7.9900633"><ele>1175.0</ele><time>2026-04-04T08:04:50.945Z</time></trkpt><trkpt lat="45.6516167" lon="7.990045"><ele>1178.0</ele><time>2026-04-04T08:04:51.945Z</time></trkpt><trkpt lat="45.6515417" lon="7.9900067"><ele>1181.0</ele><time>2026-04-04T08:04:52.945Z</time></trkpt><trkpt lat="45.6514667" lon="7.9899283"><ele>1184.0</ele><time>2026-04-04T08:04:53.945Z</time></trkpt><trkpt lat="45.6513767" lon="7.9898333"><ele>1184.0</ele><time>2026-04-04T08:04:54.945Z</time></trkpt><trkpt lat="45.6512867" lon="7.9897367"><ele>1184.0</ele><time>2026-04-04T08:04:55.945Z</time></trkpt><trkpt lat="45.6511883" lon="7.9896383"><ele>1184.0</ele><time>2026-04-04T08:04:56.945Z</time></trkpt><trkpt lat="45.6510917" lon="7.98954"><ele>1184.0</ele><time>2026-04-04T08:04:57.945Z</time></trkpt><trkpt lat="45.6509983" lon="7.9894467"><ele>1182.4</ele><time>2026-04-04T08:04:58.945Z</time></trkpt><trkpt lat="45.6509067" lon="7.9893633"><ele>1180.8000000000002</ele><time>2026-04-04T08:04:59.945Z</time></trkpt><trkpt lat="45.6508167" lon="7.989285"><ele>1179.1999999999998</ele><time>2026-04-04T08:05:00.945Z</time></trkpt><trkpt lat="45.650735" lon="7.9892017"><ele>1177.6</ele><time>2026-04-04T08:05:01.944Z</time></trkpt><trkpt lat="45.65065" lon="7.9891183"><ele>1176.0</ele><time>2026-04-04T08:05:02.945Z</time></trkpt><trkpt lat="45.6505683" lon="7.9890383"><ele>1181.3999999999999</ele><time>2026-04-04T08:05:03.945Z</time></trkpt><trkpt lat="45.650475" lon="7.988955"><ele>1186.8</ele><time>2026-04-04T08:05:04.945Z</time></trkpt><trkpt lat="45.6503817" lon="7.98887"><ele>1192.1999999999998</ele><time>2026-04-04T08:05:05.945Z</time></trkpt><trkpt lat="45.65029" lon="7.9887767"><ele>1197.6</ele><time>2026-04-04T08:05:06.945Z</time></trkpt><trkpt lat="45.6501883" lon="7.9887083"><ele>1203.0</ele><time>2026-04-04T08:05:07.945Z</time></trkpt><trkpt lat="45.65009" lon="7.9886367"><ele>1203.0</ele><time>2026-04-04T08:05:08.945Z</time></trkpt><trkpt lat="45.6500017" lon="7.98859"><ele>1203.0</ele><time>2026-04-04T08:05:09.945Z</time></trkpt><trkpt lat="45.6499233" lon="7.9885633"><ele>1203.0</ele><time>2026-04-04T08:05:10.945Z</time></trkpt><trkpt lat="45.6498183" lon="7.9885467"><ele>1203.0</ele><time>2026-04-04T08:05:12.945Z</time></trkpt><trkpt lat="45.6497217" lon="7.9885883"><ele>1203.0</ele><time>2026-04-04T08:05:15.945Z</time></trkpt><trkpt lat="45.6496633" lon="7.988665"><ele>1203.0</ele><time>2026-04-04T08:05:17.945Z</time></trkpt><trkpt lat="45.6496283" lon="7.988805"><ele>1203.0</ele><time>2026-04-04T08:05:19.944Z</time></trkpt><trkpt lat="45.64962" lon="7.9889"><ele>1203.0</ele><time>2026-04-04T08:05:20.945Z</time></trkpt><trkpt lat="45.64962" lon="7.989"><ele>1203.0</ele><time>2026-04-04T08:05:21.945Z</time></trkpt><trkpt lat="45.6496317" lon="7.9891083"><ele>1203.0</ele><time>2026-04-04T08:05:22.945Z</time></trkpt><trkpt lat="45.64965" lon="7.98921"><ele>1203.0</ele><time>2026-04-04T08:05:23.945Z</time></trkpt><trkpt lat="45.649675" lon="7.98936"><ele>1203.1666666666667</ele><time>2026-04-04T08:05:25.945Z</time></trkpt><trkpt lat="45.6496583" lon="7.98947"><ele>1203.3333333333333</ele><time>2026-04-04T08:05:27.945Z</time></trkpt><trkpt lat="45.6496217" lon="7.9896333"><ele>1203.5</ele><time>2026-04-04T08:05:29.945Z</time></trkpt><trkpt lat="45.649605" lon="7.989745"><ele>1203.6666666666665</ele><time>2026-04-04T08:05:30.945Z</time></trkpt><trkpt lat="45.6495967" lon="7.9898583"><ele>1203.8333333333333</ele><time>2026-04-04T08:05:31.945Z</time></trkpt><trkpt lat="45.6495817" lon="7.98997"><ele>1204.0</ele><time>2026-04-04T08:05:32.945Z</time></trkpt><trkpt lat="45.64958" lon="7.9900817"><ele>1205.3333333333333</ele><time>2026-04-04T08:05:33.945Z</time></trkpt><trkpt lat="45.6496" lon="7.9902017"><ele>1206.6666666666665</ele><time>2026-04-04T08:05:34.945Z</time></trkpt><trkpt lat="45.6496183" lon="7.99032"><ele>1208.0</ele><time>2026-04-04T08:05:35.945Z</time></trkpt><trkpt lat="45.6496183" lon="7.9904483"><ele>1209.3333333333333</ele><time>2026-04-04T08:05:36.945Z</time></trkpt><trkpt lat="45.64962" lon="7.9905517"><ele>1210.6666666666667</ele><time>2026-04-04T08:05:37.945Z</time></trkpt><trkpt lat="45.6496283" lon="7.9906467"><ele>1212.0</ele><time>2026-04-04T08:05:38.945Z</time></trkpt><trkpt lat="45.6496483" lon="7.9907333"><ele>1213.8</ele><time>2026-04-04T08:05:39.945Z</time></trkpt><trkpt lat="45.6496733" lon="7.990865"><ele>1215.6</ele><time>2026-04-04T08:05:41.944Z</time></trkpt><trkpt lat="45.649635" lon="7.991"><ele>1217.3999999999999</ele><time>2026-04-04T08:05:43.945Z</time></trkpt><trkpt lat="45.649595" lon="7.991125"><ele>1219.2</ele><time>2026-04-04T08:05:45.945Z</time></trkpt><trkpt lat="45.6495817" lon="7.9912783"><ele>1221.0</ele><time>2026-04-04T08:05:47.945Z</time></trkpt><trkpt lat="45.64958" lon="7.9913767"><ele>1221.0</ele><time>2026-04-04T08:05:48.945Z</time></trkpt><trkpt lat="45.6495833" lon="7.9914917"><ele>1221.0</ele><time>2026-04-04T08:05:49.945Z</time></trkpt><trkpt lat="45.6495917" lon="7.99162"><ele>1221.0</ele><time>2026-04-04T08:05:50.945Z</time></trkpt><trkpt lat="45.6496083" lon="7.991735"><ele>1221.0</ele><time>2026-04-04T08:05:51.944Z</time></trkpt><trkpt lat="45.6496167" lon="7.9918517"><ele>1221.0</ele><time>2026-04-04T08:05:52.945Z</time></trkpt><trkpt lat="45.64961" lon="7.99198"><ele>1221.0</ele><time>2026-04-04T08:05:53.945Z</time></trkpt><trkpt lat="45.64959" lon="7.9921083"><ele>1221.0</ele><time>2026-04-04T08:05:54.945Z</time></trkpt><trkpt lat="45.649565" lon="7.99225"><ele>1221.0</ele><time>2026-04-04T08:05:55.945Z</time></trkpt><trkpt lat="45.6495417" lon="7.9924017"><ele>1221.0</ele><time>2026-04-04T08:05:56.945Z</time></trkpt><trkpt lat="45.6495033" lon="7.9925433"><ele>1221.0</ele><time>2026-04-04T08:05:57.945Z</time></trkpt><trkpt lat="45.6494683" lon="7.99269"><ele>1221.0</ele><time>2026-04-04T08:05:58.945Z</time></trkpt><trkpt lat="45.6494383" lon="7.9928383"><ele>1222.1666666666667</ele><time>2026-04-04T08:05:59.945Z</time></trkpt><trkpt lat="45.6494033" lon="7.992975"><ele>1223.3333333333333</ele><time>2026-04-04T08:06:00.945Z</time></trkpt><trkpt lat="45.64937" lon="7.9930967"><ele>1224.5</ele><time>2026-04-04T08:06:01.945Z</time></trkpt><trkpt lat="45.6493317" lon="7.9932017"><ele>1225.6666666666665</ele><time>2026-04-04T08:06:02.945Z</time></trkpt><trkpt lat="45.6492933" lon="7.9932933"><ele>1226.8333333333333</ele><time>2026-04-04T08:06:03.944Z</time></trkpt><trkpt lat="45.64925" lon="7.99337"><ele>1228.0</ele><time>2026-04-04T08:06:04.944Z</time></trkpt><trkpt lat="45.64919" lon="7.9934317"><ele>1228.0</ele><time>2026-04-04T08:06:05.944Z</time></trkpt><trkpt lat="45.64913" lon="7.993495"><ele>1228.0</ele><time>2026-04-04T08:06:06.945Z</time></trkpt><trkpt lat="45.6490617" lon="7.99354"><ele>1228.0</ele><time>2026-04-04T08:06:07.945Z</time></trkpt><trkpt lat="45.6489833" lon="7.9935883"><ele>1228.0</ele><time>2026-04-04T08:06:08.945Z</time></trkpt><trkpt lat="45.6489017" lon="7.993625"><ele>1228.0</ele><time>2026-04-04T08:06:09.945Z</time></trkpt><trkpt lat="45.6488217" lon="7.993645"><ele>1228.0</ele><time>2026-04-04T08:06:10.945Z</time></trkpt><trkpt lat="45.6487317" lon="7.9936233"><ele>1228.0</ele><time>2026-04-04T08:06:11.945Z</time></trkpt><trkpt lat="45.64864" lon="7.9935833"><ele>1228.0</ele><time>2026-04-04T08:06:12.945Z</time></trkpt><trkpt lat="45.64853" lon="7.9935183"><ele>1228.0</ele><time>2026-04-04T08:06:13.945Z</time></trkpt><trkpt lat="45.64843" lon="7.9934517"><ele>1228.0</ele><time>2026-04-04T08:06:14.945Z</time></trkpt><trkpt lat="45.6483417" lon="7.99338"><ele>1228.0</ele><time>2026-04-04T08:06:15.945Z</time></trkpt><trkpt lat="45.648245" lon="7.9933117"><ele>1235.8</ele><time>2026-04-04T08:06:16.945Z</time></trkpt><trkpt lat="45.64815" lon="7.993265"><ele>1243.6</ele><time>2026-04-04T08:06:17.945Z</time></trkpt><trkpt lat="45.6480583" lon="7.9932283"><ele>1251.4</ele><time>2026-04-04T08:06:18.945Z</time></trkpt><trkpt lat="45.647975" lon="7.993185"><ele>1259.2</ele><time>2026-04-04T08:06:19.945Z</time></trkpt><trkpt lat="45.6478933" lon="7.9931467"><ele>1267.0</ele><time>2026-04-04T08:06:20.945Z</time></trkpt><trkpt lat="45.6478183" lon="7.993095"><ele>1268.1666666666665</ele><time>2026-04-04T08:06:21.945Z</time></trkpt><trkpt lat="45.6477367" lon="7.9930317"><ele>1269.3333333333333</ele><time>2026-04-04T08:06:22.945Z</time></trkpt><trkpt lat="45.6476567" lon="7.99298"><ele>1270.5</ele><time>2026-04-04T08:06:23.945Z</time></trkpt><trkpt lat="45.6475733" lon="7.992945"><ele>1271.6666666666667</ele><time>2026-04-04T08:06:24.945Z</time></trkpt><trkpt lat="45.6474983" lon="7.9929267"><ele>1272.8333333333335</ele><time>2026-04-04T08:06:25.945Z</time></trkpt><trkpt lat="45.6474183" lon="7.9929167"><ele>1274.0</ele><time>2026-04-04T08:06:26.944Z</time></trkpt><trkpt lat="45.64735" lon="7.9929383"><ele>1274.0</ele><time>2026-04-04T08:06:27.945Z</time></trkpt><trkpt lat="45.6472833" lon="7.99298"><ele>1274.0</ele><time>2026-04-04T08:06:28.945Z</time></trkpt><trkpt lat="45.6472183" lon="7.9930417"><ele>1274.0</ele><time>2026-04-04T08:06:29.945Z</time></trkpt><trkpt lat="45.6471683" lon="7.9931217"><ele>1274.0</ele><time>2026-04-04T08:06:30.945Z</time></trkpt><trkpt lat="45.6471283" lon="7.9932067"><ele>1274.0</ele><time>2026-04-04T08:06:31.944Z</time></trkpt><trkpt lat="45.6470867" lon="7.993305"><ele>1274.0</ele><time>2026-04-04T08:06:32.945Z</time></trkpt><trkpt lat="45.6470517" lon="7.9933983"><ele>1274.0</ele><time>2026-04-04T08:06:33.945Z</time></trkpt><trkpt lat="45.6470017" lon="7.9935317"><ele>1274.0</ele><time>2026-04-04T08:06:35.945Z</time></trkpt><trkpt lat="45.6469183" lon="7.9934833"><ele>1274.0</ele><time>2026-04-04T08:06:38.945Z</time></trkpt><trkpt lat="45.646905" lon="7.9933333"><ele>1274.0</ele><time>2026-04-04T08:06:40.945Z</time></trkpt><trkpt lat="45.646935" lon="7.993245"><ele>1274.0</ele><time>2026-04-04T08:06:41.945Z</time></trkpt><trkpt lat="45.6469933" lon="7.993155"><ele>1274.0</ele><time>2026-04-04T08:06:42.945Z</time></trkpt><trkpt lat="45.647065" lon="7.993055"><ele>1274.0</ele><time>2026-04-04T08:06:43.945Z</time></trkpt><trkpt lat="45.6471433" lon="7.9929667"><ele>1274.0</ele><time>2026-04-04T08:06:44.945Z</time></trkpt><trkpt lat="45.6472217" lon="7.9928667"><ele>1274.0</ele><time>2026-04-04T08:06:45.945Z</time></trkpt><trkpt lat="45.6473067" lon="7.9927717"><ele>1274.0</ele><time>2026-04-04T08:06:46.945Z</time></trkpt><trkpt lat="45.64739" lon="7.9926983"><ele>1274.0</ele><time>2026-04-04T08:06:47.945Z</time></trkpt><trkpt lat="45.6474833" lon="7.992655"><ele>1274.0</ele><time>2026-04-04T08:06:48.945Z</time></trkpt><trkpt lat="45.6475817" lon="7.9926317"><ele>1274.0</ele><time>2026-04-04T08:06:49.945Z</time></trkpt><trkpt lat="45.6476883" lon="7.9926117"><ele>1274.0</ele><time>2026-04-04T08:06:50.945Z</time></trkpt><trkpt lat="45.6478017" lon="7.99261"><ele>1274.0</ele><time>2026-04-04T08:06:51.945Z</time></trkpt><trkpt lat="45.6479183" lon="7.992605"><ele>1272.25</ele><time>2026-04-04T08:06:52.945Z</time></trkpt><trkpt lat="45.648035" lon="7.9926133"><ele>1270.5</ele><time>2026-04-04T08:06:53.945Z</time></trkpt><trkpt lat="45.6481567" lon="7.9926183"><ele>1268.75</ele><time>2026-04-04T08:06:54.945Z</time></trkpt><trkpt lat="45.6482667" lon="7.9926267"><ele>1267.0</ele><time>2026-04-04T08:06:55.945Z</time></trkpt><trkpt lat="45.6483667" lon="7.99265"><ele>1267.0</ele><time>2026-04-04T08:06:56.944Z</time></trkpt><trkpt lat="45.6484517" lon="7.99267"><ele>1267.0</ele><time>2026-04-04T08:06:57.945Z</time></trkpt><trkpt lat="45.64856" lon="7.9926567"><ele>1267.0</ele><time>2026-04-04T08:06:59.945Z</time></trkpt><trkpt lat="45.6486033" lon="7.9925883"><ele>1267.0</ele><time>2026-04-04T08:07:00.945Z</time></trkpt><trkpt lat="45.648635" lon="7.9924983"><ele>1267.0</ele><time>2026-04-04T08:07:01.945Z</time></trkpt><trkpt lat="45.6486683" lon="7.9923917"><ele>1267.0</ele><time>2026-04-04T08:07:02.945Z</time></trkpt><trkpt lat="45.6486967" lon="7.992275"><ele>1267.6</ele><time>2026-04-04T08:07:03.945Z</time></trkpt><trkpt lat="45.6487233" lon="7.9921517"><ele>1268.2</ele><time>2026-04-04T08:07:05.945Z</time></trkpt><trkpt lat="45.648655" lon="7.992205"><ele>1268.8</ele><time>2026-04-04T08:07:10.945Z</time></trkpt><trkpt lat="45.6486117" lon="7.9923433"><ele>1269.4</ele><time>2026-04-04T08:07:12.945Z</time></trkpt><trkpt lat="45.6485267" lon="7.9924667"><ele>1270.0</ele><time>2026-04-04T08:07:14.945Z</time></trkpt><trkpt lat="45.64841" lon="7.9925"><ele>1277.4</ele><time>2026-04-04T08:07:16.945Z</time></trkpt><trkpt lat="45.6483333" lon="7.9924817"><ele>1284.8</ele><time>2026-04-04T08:07:17.945Z</time></trkpt><trkpt lat="45.6482467" lon="7.992445"><ele>1292.1999999999998</ele><time>2026-04-04T08:07:18.945Z</time></trkpt><trkpt lat="45.6481517" lon="7.9924"><ele>1299.6</ele><time>2026-04-04T08:07:19.945Z</time></trkpt><trkpt lat="45.6480367" lon="7.9923567"><ele>1307.0</ele><time>2026-04-04T08:07:20.945Z</time></trkpt><trkpt lat="45.64792" lon="7.99232"><ele>1307.0</ele><time>2026-04-04T08:07:21.945Z</time></trkpt><trkpt lat="45.647795" lon="7.9922783"><ele>1307.0</ele><time>2026-04-04T08:07:22.944Z</time></trkpt><trkpt lat="45.6476717" lon="7.9922383"><ele>1307.0</ele><time>2026-04-04T08:07:23.944Z</time></trkpt><trkpt lat="45.64754" lon="7.9922183"><ele>1307.0</ele><time>2026-04-04T08:07:24.945Z</time></trkpt><trkpt lat="45.64741" lon="7.992185"><ele>1307.0</ele><time>2026-04-04T08:07:25.945Z</time></trkpt><trkpt lat="45.6473117" lon="7.9921633"><ele>1307.0</ele><time>2026-04-04T08:07:26.945Z</time></trkpt><trkpt lat="45.647245" lon="7.992155"><ele>1307.0</ele><time>2026-04-04T08:07:27.944Z</time></trkpt><trkpt lat="45.6471567" lon="7.9921333"><ele>1307.0</ele><time>2026-04-04T08:07:29.945Z</time></trkpt><trkpt lat="45.64721" lon="7.9920583"><ele>1307.0</ele><time>2026-04-04T08:07:33.945Z</time></trkpt><trkpt lat="45.6472767" lon="7.99208"><ele>1307.0</ele><time>2026-04-04T08:07:35.945Z</time></trkpt><trkpt lat="45.6473983" lon="7.992075"><ele>1307.0</ele><time>2026-04-04T08:07:37.945Z</time></trkpt><trkpt lat="45.6474867" lon="7.992065"><ele>1307.0</ele><time>2026-04-04T08:07:38.945Z</time></trkpt><trkpt lat="45.6475883" lon="7.99206"><ele>1307.0</ele><time>2026-04-04T08:07:39.945Z</time></trkpt><trkpt lat="45.6476933" lon="7.992065"><ele>1307.0</ele><time>2026-04-04T08:07:40.945Z</time></trkpt><trkpt lat="45.647795" lon="7.9920667"><ele>1307.0</ele><time>2026-04-04T08:07:41.945Z</time></trkpt><trkpt lat="45.6479033" lon="7.9920467"><ele>1307.0</ele><time>2026-04-04T08:07:42.944Z</time></trkpt><trkpt lat="45.6480133" lon="7.992025"><ele>1307.0</ele><time>2026-04-04T08:07:43.945Z</time></trkpt><trkpt lat="45.6481167" lon="7.992005"><ele>1307.0</ele><time>2026-04-04T08:07:44.945Z</time></trkpt><trkpt lat="45.648205" lon="7.9919917"><ele>1307.0</ele><time>2026-04-04T08:07:45.944Z</time></trkpt><trkpt lat="45.6482733" lon="7.991975"><ele>1307.0</ele><time>2026-04-04T08:07:46.945Z</time></trkpt><trkpt lat="45.6483533" lon="7.9919317"><ele>1307.0</ele><time>2026-04-04T08:07:48.945Z</time></trkpt><trkpt lat="45.6482717" lon="7.9919067"><ele>1307.0</ele><time>2026-04-04T08:07:55.945Z</time></trkpt><trkpt lat="45.6482" lon="7.991935"><ele>1307.0</ele><time>2026-04-04T08:07:56.945Z</time></trkpt><trkpt lat="45.6481133" lon="7.9919417"><ele>1307.0</ele><time>2026-04-04T08:07:57.944Z</time></trkpt><trkpt lat="45.6480033" lon="7.9919317"><ele>1307.0</ele><time>2026-04-04T08:07:58.944Z</time></trkpt><trkpt lat="45.6478917" lon="7.9919183"><ele>1307.0</ele><time>2026-04-04T08:07:59.945Z</time></trkpt><trkpt lat="45.6477783" lon="7.9918967"><ele>1307.0</ele><time>2026-04-04T08:08:00.945Z</time></trkpt><trkpt lat="45.647675" lon="7.9918633"><ele>1307.0</ele><time>2026-04-04T08:08:01.945Z</time></trkpt><trkpt lat="45.6475683" lon="7.99181"><ele>1307.0</ele><time>2026-04-04T08:08:02.945Z</time></trkpt><trkpt lat="45.6474517" lon="7.9917633"><ele>1307.0</ele><time>2026-04-04T08:08:03.945Z</time></trkpt><trkpt lat="45.647375" lon="7.991725"><ele>1307.0</ele><time>2026-04-04T08:08:04.945Z</time></trkpt><trkpt lat="45.6473083" lon="7.9917"><ele>1307.0</ele><time>2026-04-04T08:08:05.944Z</time></trkpt><trkpt lat="45.64723" lon="7.991665"><ele>1307.0</ele><time>2026-04-04T08:08:07.945Z</time></trkpt><trkpt lat="45.6472783" lon="7.9916017"><ele>1307.0</ele><time>2026-04-04T08:08:10.945Z</time></trkpt><trkpt lat="45.64738" lon="7.9916383"><ele>1307.0</ele><time>2026-04-04T08:08:13.945Z</time></trkpt><trkpt lat="45.6474433" lon="7.9916533"><ele>1312.6</ele><time>2026-04-04T08:08:14.944Z</time></trkpt><trkpt lat="45.6475417" lon="7.99166"><ele>1318.1999999999998</ele><time>2026-04-04T08:08:15.945Z</time></trkpt><trkpt lat="45.647645" lon="7.9916617"><ele>1323.8</ele><time>2026-04-04T08:08:16.945Z</time></trkpt><trkpt lat="45.64774" lon="7.9916633"><ele>1329.4</ele><time>2026-04-04T08:08:17.945Z</time></trkpt><trkpt lat="45.647835" lon="7.9916517"><ele>1335.0</ele><time>2026-04-04T08:08:18.945Z</time></trkpt><trkpt lat="45.6479233" lon="7.9916367"><ele>1335.0</ele><time>2026-04-04T08:08:19.944Z</time></trkpt><trkpt lat="45.648005" lon="7.9916033"><ele>1335.0</ele><time>2026-04-04T08:08:20.945Z</time></trkpt><trkpt lat="45.64807" lon="7.9915467"><ele>1335.0</ele><time>2026-04-04T08:08:21.945Z</time></trkpt><trkpt lat="45.6481317" lon="7.9914533"><ele>1335.0</ele><time>2026-04-04T08:08:23.945Z</time></trkpt><trkpt lat="45.6480717" lon="7.99149"><ele>1335.0</ele><time>2026-04-04T08:13:43.942Z</time></trkpt><trkpt lat="45.6480167" lon="7.9915967"><ele>1335.0</ele><time>2026-04-04T08:13:46.943Z</time></trkpt><trkpt lat="45.6479" lon="7.9916667"><ele>1336.2857142857142</ele><time>2026-04-04T08:13:48.943Z</time></trkpt><trkpt lat="45.6478333" lon="7.9916833"><ele>1337.5714285714287</ele><time>2026-04-04T08:13:49.942Z</time></trkpt><trkpt lat="45.6477617" lon="7.991695"><ele>1338.857142857143</ele><time>2026-04-04T08:13:50.943Z</time></trkpt><trkpt lat="45.6476867" lon="7.9916833"><ele>1340.142857142857</ele><time>2026-04-04T08:13:51.943Z</time></trkpt><trkpt lat="45.647615" lon="7.9916617"><ele>1341.4285714285716</ele><time>2026-04-04T08:13:52.943Z</time></trkpt><trkpt lat="45.6475383" lon="7.9916433"><ele>1342.7142857142858</ele><time>2026-04-04T08:13:53.943Z</time></trkpt><trkpt lat="45.6474583" lon="7.991635"><ele>1344.0</ele><time>2026-04-04T08:13:54.943Z</time></trkpt><trkpt lat="45.647385" lon="7.9916133"><ele>1344.0</ele><time>2026-04-04T08:13:55.943Z</time></trkpt><trkpt lat="45.6472933" lon="7.9915783"><ele>1344.0</ele><time>2026-04-04T08:13:57.943Z</time></trkpt><trkpt lat="45.647315" lon="7.9916667"><ele>1344.0</ele><time>2026-04-04T08:14:02.943Z</time></trkpt><trkpt lat="45.64742" lon="7.9917083"><ele>1344.0</ele><time>2026-04-04T08:14:04.943Z</time></trkpt><trkpt lat="45.647505" lon="7.9917517"><ele>1344.0</ele><time>2026-04-04T08:14:05.943Z</time></trkpt><trkpt lat="45.6475983" lon="7.9918033"><ele>1336.6</ele><time>2026-04-04T08:14:06.943Z</time></trkpt><trkpt lat="45.6476917" lon="7.9918433"><ele>1329.2</ele><time>2026-04-04T08:14:07.943Z</time></trkpt><trkpt lat="45.6477817" lon="7.991875"><ele>1321.8</ele><time>2026-04-04T08:14:08.943Z</time></trkpt><trkpt lat="45.647875" lon="7.9918967"><ele>1314.3999999999999</ele><time>2026-04-04T08:14:09.943Z</time></trkpt><trkpt lat="45.647965" lon="7.9919133"><ele>1307.0</ele><time>2026-04-04T08:14:10.943Z</time></trkpt><trkpt lat="45.6480583" lon="7.991915"><ele>1307.0</ele><time>2026-04-04T08:14:11.942Z</time></trkpt><trkpt lat="45.64814" lon="7.9919067"><ele>1307.0</ele><time>2026-04-04T08:14:12.943Z</time></trkpt><trkpt lat="45.6482083" lon="7.9918967"><ele>1307.0</ele><time>2026-04-04T08:14:13.943Z</time></trkpt><trkpt lat="45.6482967" lon="7.9918717"><ele>1307.0</ele><time>2026-04-04T08:14:15.943Z</time></trkpt><trkpt lat="45.6483183" lon="7.9919583"><ele>1307.0</ele><time>2026-04-04T08:14:19.943Z</time></trkpt><trkpt lat="45.6482133" lon="7.9920033"><ele>1307.0</ele><time>2026-04-04T08:14:22.943Z</time></trkpt><trkpt lat="45.64814" lon="7.9920083"><ele>1307.0</ele><time>2026-04-04T08:14:23.942Z</time></trkpt><trkpt lat="45.6480433" lon="7.9920333"><ele>1307.0</ele><time>2026-04-04T08:14:24.943Z</time></trkpt><trkpt lat="45.6479383" lon="7.9920483"><ele>1307.0</ele><time>2026-04-04T08:14:25.942Z</time></trkpt><trkpt lat="45.647845" lon="7.9920633"><ele>1307.0</ele><time>2026-04-04T08:14:26.942Z</time></trkpt><trkpt lat="45.64777" lon="7.992065"><ele>1307.0</ele><time>2026-04-04T08:14:27.943Z</time></trkpt><trkpt lat="45.64768" lon="7.9920633"><ele>1307.0</ele><time>2026-04-04T08:14:28.943Z</time></trkpt><trkpt lat="45.6475733" lon="7.992055"><ele>1307.0</ele><time>2026-04-04T08:14:29.943Z</time></trkpt><trkpt lat="45.6474833" lon="7.9920467"><ele>1307.0</ele><time>2026-04-04T08:14:30.943Z</time></trkpt><trkpt lat="45.6473917" lon="7.9920683"><ele>1307.0</ele><time>2026-04-04T08:14:31.943Z</time></trkpt><trkpt lat="45.647305" lon="7.9920867"><ele>1307.0</ele><time>2026-04-04T08:14:32.943Z</time></trkpt><trkpt lat="45.6472367" lon="7.9920917"><ele>1307.0</ele><time>2026-04-04T08:14:33.943Z</time></trkpt><trkpt lat="45.647175" lon="7.992065"><ele>1307.0</ele><time>2026-04-04T08:14:36.942Z</time></trkpt><trkpt lat="45.6472417" lon="7.99213"><ele>1307.0</ele><time>2026-04-04T08:14:40.943Z</time></trkpt><trkpt lat="45.6473533" lon="7.99215"><ele>1307.0</ele><time>2026-04-04T08:14:42.943Z</time></trkpt><trkpt lat="45.6474317" lon="7.9921683"><ele>1307.0</ele><time>2026-04-04T08:14:43.943Z</time></trkpt><trkpt lat="45.6475233" lon="7.992185"><ele>1307.0</ele><time>2026-04-04T08:14:44.943Z</time></trkpt><trkpt lat="45.6476133" lon="7.9922033"><ele>1307.0</ele><time>2026-04-04T08:14:45.942Z</time></trkpt><trkpt lat="45.6477033" lon="7.9922317"><ele>1307.0</ele><time>2026-04-04T08:14:46.943Z</time></trkpt><trkpt lat="45.6478067" lon="7.9922633"><ele>1307.0</ele><time>2026-04-04T08:14:47.943Z</time></trkpt><trkpt lat="45.6479133" lon="7.9923017"><ele>1307.0</ele><time>2026-04-04T08:14:48.943Z</time></trkpt><trkpt lat="45.648025" lon="7.99233"><ele>1307.0</ele><time>2026-04-04T08:14:49.943Z</time></trkpt><trkpt lat="45.64814" lon="7.9923567"><ele>1307.0</ele><time>2026-04-04T08:14:50.943Z</time></trkpt><trkpt lat="45.6482533" lon="7.9923817"><ele>1307.0</ele><time>2026-04-04T08:14:51.943Z</time></trkpt><trkpt lat="45.6483517" lon="7.9924233"><ele>1307.0</ele><time>2026-04-04T08:14:52.943Z</time></trkpt><trkpt lat="45.6484267" lon="7.9924633"><ele>1307.0</ele><time>2026-04-04T08:14:53.943Z</time></trkpt><trkpt lat="45.64849" lon="7.9924833"><ele>1307.0</ele><time>2026-04-04T08:14:54.943Z</time></trkpt><trkpt lat="45.64859" lon="7.9924233"><ele>1307.0</ele><time>2026-04-04T08:14:56.943Z</time></trkpt><trkpt lat="45.648625" lon="7.992345"><ele>1307.0</ele><time>2026-04-04T08:14:57.943Z</time></trkpt><trkpt lat="45.6486467" lon="7.9921933"><ele>1307.0</ele><time>2026-04-04T08:14:59.943Z</time></trkpt><trkpt lat="45.6486967" lon="7.992265"><ele>1307.0</ele><time>2026-04-04T08:15:05.942Z</time></trkpt><trkpt lat="45.6486567" lon="7.9924017"><ele>1307.0</ele><time>2026-04-04T08:15:07.943Z</time></trkpt><trkpt lat="45.6486133" lon="7.9924917"><ele>1307.0</ele><time>2026-04-04T08:15:08.943Z</time></trkpt><trkpt lat="45.6485683" lon="7.9925633"><ele>1299.0</ele><time>2026-04-04T08:15:09.943Z</time></trkpt><trkpt lat="45.648475" lon="7.9926333"><ele>1291.0</ele><time>2026-04-04T08:15:11.943Z</time></trkpt><trkpt lat="45.648405" lon="7.9926333"><ele>1283.0</ele><time>2026-04-04T08:15:12.943Z</time></trkpt><trkpt lat="45.64832" lon="7.9926267"><ele>1275.0</ele><time>2026-04-04T08:15:13.943Z</time></trkpt><trkpt lat="45.6482217" lon="7.99262"><ele>1267.0</ele><time>2026-04-04T08:15:14.942Z</time></trkpt><trkpt lat="45.6481183" lon="7.9926117"><ele>1267.0</ele><time>2026-04-04T08:15:15.943Z</time></trkpt><trkpt lat="45.6480133" lon="7.9926033"><ele>1267.0</ele><time>2026-04-04T08:15:16.943Z</time></trkpt><trkpt lat="45.6479033" lon="7.9926133"><ele>1267.0</ele><time>2026-04-04T08:15:17.943Z</time></trkpt><trkpt lat="45.64779" lon="7.99262"><ele>1267.0</ele><time>2026-04-04T08:15:18.943Z</time></trkpt><trkpt lat="45.64769" lon="7.9926267"><ele>1267.0</ele><time>2026-04-04T08:15:19.943Z</time></trkpt><trkpt lat="45.6476033" lon="7.9926267"><ele>1268.4</ele><time>2026-04-04T08:15:20.943Z</time></trkpt><trkpt lat="45.6475117" lon="7.992645"><ele>1269.8000000000002</ele><time>2026-04-04T08:15:21.942Z</time></trkpt><trkpt lat="45.64742" lon="7.9926917"><ele>1271.2</ele><time>2026-04-04T08:15:22.943Z</time></trkpt><trkpt lat="45.6473333" lon="7.9927367"><ele>1272.6000000000001</ele><time>2026-04-04T08:15:23.943Z</time></trkpt><trkpt lat="45.6472633" lon="7.9928067"><ele>1274.0</ele><time>2026-04-04T08:15:24.943Z</time></trkpt><trkpt lat="45.64719" lon="7.992895"><ele>1274.0</ele><time>2026-04-04T08:15:25.943Z</time></trkpt><trkpt lat="45.64712" lon="7.9929833"><ele>1274.0</ele><time>2026-04-04T08:15:26.943Z</time></trkpt><trkpt lat="45.647065" lon="7.993065"><ele>1274.0</ele><time>2026-04-04T08:15:27.943Z</time></trkpt><trkpt lat="45.647" lon="7.993145"><ele>1274.0</ele><time>2026-04-04T08:15:28.943Z</time></trkpt><trkpt lat="45.6469483" lon="7.99322"><ele>1274.0</ele><time>2026-04-04T08:15:29.943Z</time></trkpt><trkpt lat="45.6469117" lon="7.993295"><ele>1274.0</ele><time>2026-04-04T08:15:30.943Z</time></trkpt><trkpt lat="45.6469" lon="7.9934533"><ele>1274.0</ele><time>2026-04-04T08:15:32.943Z</time></trkpt><trkpt lat="45.6469483" lon="7.9935683"><ele>1274.0</ele><time>2026-04-04T08:15:34.942Z</time></trkpt><trkpt lat="45.647025" lon="7.99355"><ele>1274.0</ele><time>2026-04-04T08:15:36.942Z</time></trkpt><trkpt lat="45.6470967" lon="7.9933717"><ele>1274.0</ele><time>2026-04-04T08:15:38.943Z</time></trkpt><trkpt lat="45.6471383" lon="7.99325"><ele>1274.0</ele><time>2026-04-04T08:15:39.943Z</time></trkpt><trkpt lat="45.64718" lon="7.993145"><ele>1274.0</ele><time>2026-04-04T08:15:40.943Z</time></trkpt><trkpt lat="45.647245" lon="7.9930633"><ele>1274.0</ele><time>2026-04-04T08:15:41.943Z</time></trkpt><trkpt lat="45.647315" lon="7.993005"><ele>1274.0</ele><time>2026-04-04T08:15:42.943Z</time></trkpt><trkpt lat="45.647375" lon="7.9929683"><ele>1274.0</ele><time>2026-04-04T08:15:43.943Z</time></trkpt><trkpt lat="45.6474417" lon="7.9929567"><ele>1274.0</ele><time>2026-04-04T08:15:44.942Z</time></trkpt><trkpt lat="45.6475167" lon="7.992965"><ele>1274.0</ele><time>2026-04-04T08:15:45.943Z</time></trkpt><trkpt lat="45.6475833" lon="7.9929967"><ele>1274.0</ele><time>2026-04-04T08:15:46.942Z</time></trkpt><trkpt lat="45.647655" lon="7.9930217"><ele>1274.0</ele><time>2026-04-04T08:15:47.943Z</time></trkpt><trkpt lat="45.6477383" lon="7.9930683"><ele>1274.0</ele><time>2026-04-04T08:15:48.943Z</time></trkpt><trkpt lat="45.6478183" lon="7.9931267"><ele>1274.0</ele><time>2026-04-04T08:15:49.943Z</time></trkpt><trkpt lat="45.6478917" lon="7.993185"><ele>1274.0</ele><time>2026-04-04T08:15:50.942Z</time></trkpt><trkpt lat="45.6479717" lon="7.99323"><ele>1274.0</ele><time>2026-04-04T08:15:51.943Z</time></trkpt><trkpt lat="45.64805" lon="7.9932617"><ele>1274.0</ele><time>2026-04-04T08:15:52.943Z</time></trkpt><trkpt lat="45.6481317" lon="7.9932817"><ele>1272.8333333333335</ele><time>2026-04-04T08:15:53.943Z</time></trkpt><trkpt lat="45.64821" lon="7.9933083"><ele>1271.6666666666667</ele><time>2026-04-04T08:15:54.942Z</time></trkpt><trkpt lat="45.648285" lon="7.9933383"><ele>1270.5</ele><time>2026-04-04T08:15:55.942Z</time></trkpt><trkpt lat="45.6483683" lon="7.9933817"><ele>1269.3333333333333</ele><time>2026-04-04T08:15:56.943Z</time></trkpt><trkpt lat="45.6484567" lon="7.9934433"><ele>1268.1666666666665</ele><time>2026-04-04T08:15:57.943Z</time></trkpt><trkpt lat="45.6485367" lon="7.9935033"><ele>1267.0</ele><time>2026-04-04T08:15:58.943Z</time></trkpt><trkpt lat="45.6486117" lon="7.9935517"><ele>1260.5</ele><time>2026-04-04T08:15:59.943Z</time></trkpt><trkpt lat="45.6486967" lon="7.9935767"><ele>1254.0</ele><time>2026-04-04T08:16:00.943Z</time></trkpt><trkpt lat="45.6487833" lon="7.9935867"><ele>1247.5</ele><time>2026-04-04T08:16:01.943Z</time></trkpt><trkpt lat="45.6488717" lon="7.9935767"><ele>1241.0</ele><time>2026-04-04T08:16:02.943Z</time></trkpt><trkpt lat="45.6489633" lon="7.9935433"><ele>1234.5</ele><time>2026-04-04T08:16:03.943Z</time></trkpt><trkpt lat="45.6490467" lon="7.9934867"><ele>1228.0</ele><time>2026-04-04T08:16:04.943Z</time></trkpt><trkpt lat="45.64912" lon="7.9934317"><ele>1228.0</ele><time>2026-04-04T08:16:05.942Z</time></trkpt><trkpt lat="45.6491883" lon="7.99336"><ele>1228.0</ele><time>2026-04-04T08:16:06.943Z</time></trkpt><trkpt lat="45.6492467" lon="7.99327"><ele>1228.0</ele><time>2026-04-04T08:16:07.943Z</time></trkpt><trkpt lat="45.6492967" lon="7.99317"><ele>1228.0</ele><time>2026-04-04T08:16:08.943Z</time></trkpt><trkpt lat="45.6493333" lon="7.9930617"><ele>1228.0</ele><time>2026-04-04T08:16:09.943Z</time></trkpt><trkpt lat="45.649355" lon="7.992945"><ele>1228.0</ele><time>2026-04-04T08:16:10.943Z</time></trkpt><trkpt lat="45.6493683" lon="7.9928233"><ele>1226.8333333333333</ele><time>2026-04-04T08:16:11.943Z</time></trkpt><trkpt lat="45.6493883" lon="7.9927117"><ele>1225.6666666666665</ele><time>2026-04-04T08:16:12.943Z</time></trkpt><trkpt lat="45.6494" lon="7.9925933"><ele>1224.5</ele><time>2026-04-04T08:16:13.943Z</time></trkpt><trkpt lat="45.649415" lon="7.992475"><ele>1223.3333333333333</ele><time>2026-04-04T08:16:14.943Z</time></trkpt><trkpt lat="45.649445" lon="7.992345"><ele>1222.1666666666667</ele><time>2026-04-04T08:16:15.943Z</time></trkpt><trkpt lat="45.6494817" lon="7.9922183"><ele>1221.0</ele><time>2026-04-04T08:16:16.943Z</time></trkpt><trkpt lat="45.649515" lon="7.99209"><ele>1221.0</ele><time>2026-04-04T08:16:17.943Z</time></trkpt><trkpt lat="45.6495467" lon="7.99196"><ele>1221.0</ele><time>2026-04-04T08:16:18.943Z</time></trkpt><trkpt lat="45.6495733" lon="7.99184"><ele>1221.0</ele><time>2026-04-04T08:16:19.943Z</time></trkpt><trkpt lat="45.649595" lon="7.9917133"><ele>1221.0</ele><time>2026-04-04T08:16:20.943Z</time></trkpt><trkpt lat="45.649615" lon="7.9915917"><ele>1221.0</ele><time>2026-04-04T08:16:21.943Z</time></trkpt><trkpt lat="45.64961" lon="7.9914733"><ele>1221.0</ele><time>2026-04-04T08:16:22.943Z</time></trkpt><trkpt lat="45.649605" lon="7.9913667"><ele>1221.0</ele><time>2026-04-04T08:16:23.943Z</time></trkpt><trkpt lat="45.6496" lon="7.9912767"><ele>1221.0</ele><time>2026-04-04T08:16:24.943Z</time></trkpt><trkpt lat="45.6495967" lon="7.9911333"><ele>1221.0</ele><time>2026-04-04T08:16:26.943Z</time></trkpt><trkpt lat="45.6496483" lon="7.9910017"><ele>1221.0</ele><time>2026-04-04T08:16:28.943Z</time></trkpt><trkpt lat="45.649685" lon="7.9908717"><ele>1221.0</ele><time>2026-04-04T08:16:30.943Z</time></trkpt><trkpt lat="45.649675" lon="7.9907067"><ele>1219.5</ele><time>2026-04-04T08:16:32.942Z</time></trkpt><trkpt lat="45.649645" lon="7.9905233"><ele>1218.0</ele><time>2026-04-04T08:16:34.942Z</time></trkpt><trkpt lat="45.6496367" lon="7.9904217"><ele>1216.5</ele><time>2026-04-04T08:16:35.942Z</time></trkpt><trkpt lat="45.649635" lon="7.990325"><ele>1215.0</ele><time>2026-04-04T08:16:36.942Z</time></trkpt><trkpt lat="45.6496217" lon="7.990215"><ele>1213.5</ele><time>2026-04-04T08:16:37.942Z</time></trkpt><trkpt lat="45.6496033" lon="7.9901067"><ele>1212.0</ele><time>2026-04-04T08:16:38.942Z</time></trkpt><trkpt lat="45.64959" lon="7.9899967"><ele>1210.6666666666667</ele><time>2026-04-04T08:16:39.942Z</time></trkpt><trkpt lat="45.6495867" lon="7.98988"><ele>1209.3333333333333</ele><time>2026-04-04T08:16:40.942Z</time></trkpt><trkpt lat="45.649585" lon="7.98977"><ele>1208.0</ele><time>2026-04-04T08:16:41.942Z</time></trkpt><trkpt lat="45.6495833" lon="7.9896717"><ele>1206.6666666666665</ele><time>2026-04-04T08:16:42.942Z</time></trkpt><trkpt lat="45.6495883" lon="7.9895717"><ele>1205.3333333333333</ele><time>2026-04-04T08:16:43.942Z</time></trkpt><trkpt lat="45.64961" lon="7.98948"><ele>1204.0</ele><time>2026-04-04T08:16:44.942Z</time></trkpt><trkpt lat="45.6496683" lon="7.9893433"><ele>1204.0</ele><time>2026-04-04T08:16:46.942Z</time></trkpt><trkpt lat="45.6496883" lon="7.9891967"><ele>1204.0</ele><time>2026-04-04T08:16:48.942Z</time></trkpt><trkpt lat="45.6496667" lon="7.9890333"><ele>1204.0</ele><time>2026-04-04T08:16:50.941Z</time></trkpt><trkpt lat="45.649655" lon="7.9889367"><ele>1204.0</ele><time>2026-04-04T08:16:51.942Z</time></trkpt><trkpt lat="45.6496417" lon="7.9887883"><ele>1204.0</ele><time>2026-04-04T08:16:53.942Z</time></trkpt><trkpt lat="45.6496667" lon="7.988665"><ele>1203.8</ele><time>2026-04-04T08:16:55.941Z</time></trkpt><trkpt lat="45.64972" lon="7.98861"><ele>1203.6000000000001</ele><time>2026-04-04T08:16:56.941Z</time></trkpt><trkpt lat="45.649825" lon="7.9885417"><ele>1203.4</ele><time>2026-04-04T08:16:58.942Z</time></trkpt><trkpt lat="45.6499283" lon="7.988545"><ele>1203.2</ele><time>2026-04-04T08:17:00.942Z</time></trkpt><trkpt lat="45.650005" lon="7.988575"><ele>1203.0</ele><time>2026-04-04T08:17:01.942Z</time></trkpt><trkpt lat="45.6501" lon="7.988625"><ele>1203.0</ele><time>2026-04-04T08:17:02.942Z</time></trkpt><trkpt lat="45.6502117" lon="7.9886917"><ele>1203.0</ele><time>2026-04-04T08:17:03.942Z</time></trkpt><trkpt lat="45.650325" lon="7.988785"><ele>1203.0</ele><time>2026-04-04T08:17:04.942Z</time></trkpt><trkpt lat="45.6504367" lon="7.9888733"><ele>1203.0</ele><time>2026-04-04T08:17:05.942Z</time></trkpt><trkpt lat="45.65053" lon="7.9889617"><ele>1203.5</ele><time>2026-04-04T08:17:06.942Z</time></trkpt><trkpt lat="45.65063" lon="7.9890533"><ele>1204.0</ele><time>2026-04-04T08:17:07.942Z</time></trkpt><trkpt lat="45.6507267" lon="7.989145"><ele>1204.5</ele><time>2026-04-04T08:17:08.942Z</time></trkpt><trkpt lat="45.6508217" lon="7.9892417"><ele>1205.0</ele><time>2026-04-04T08:17:09.941Z</time></trkpt><trkpt lat="45.65091" lon="7.9893417"><ele>1200.8</ele><time>2026-04-04T08:17:10.942Z</time></trkpt><trkpt lat="45.6510083" lon="7.9894267"><ele>1196.6</ele><time>2026-04-04T08:17:11.942Z</time></trkpt><trkpt lat="45.6510983" lon="7.9895083"><ele>1192.4</ele><time>2026-04-04T08:17:12.942Z</time></trkpt><trkpt lat="45.6511933" lon="7.9895817"><ele>1188.2</ele><time>2026-04-04T08:17:13.942Z</time></trkpt><trkpt lat="45.6512817" lon="7.9896633"><ele>1184.0</ele><time>2026-04-04T08:17:14.942Z</time></trkpt><trkpt lat="45.6513717" lon="7.989755"><ele>1184.0</ele><time>2026-04-04T08:17:15.942Z</time></trkpt><trkpt lat="45.651455" lon="7.9898433"><ele>1184.0</ele><time>2026-04-04T08:17:16.942Z</time></trkpt><trkpt lat="45.6515333" lon="7.9899233"><ele>1184.0</ele><time>2026-04-04T08:17:17.942Z</time></trkpt><trkpt lat="45.6516083" lon="7.9899833"><ele>1184.0</ele><time>2026-04-04T08:17:18.942Z</time></trkpt><trkpt lat="45.6516767" lon="7.99003"><ele>1184.0</ele><time>2026-04-04T08:17:19.942Z</time></trkpt><trkpt lat="45.65174" lon="7.99006"><ele>1184.0</ele><time>2026-04-04T08:17:20.942Z</time></trkpt><trkpt lat="45.6518067" lon="7.9900767"><ele>1181.0</ele><time>2026-04-04T08:17:21.942Z</time></trkpt><trkpt lat="45.6518767" lon="7.9900633"><ele>1178.0</ele><time>2026-04-04T08:17:22.941Z</time></trkpt><trkpt lat="45.6519683" lon="7.9900317"><ele>1175.0</ele><time>2026-04-04T08:17:23.942Z</time></trkpt><trkpt lat="45.6520683" lon="7.98997"><ele>1172.0</ele><time>2026-04-04T08:17:24.942Z</time></trkpt><trkpt lat="45.6521633" lon="7.9898883"><ele>1169.0</ele><time>2026-04-04T08:17:25.942Z</time></trkpt><trkpt lat="45.6522533" lon="7.9897983"><ele>1169.0</ele><time>2026-04-04T08:17:26.942Z</time></trkpt><trkpt lat="45.6523483" lon="7.989715"><ele>1169.0</ele><time>2026-04-04T08:17:27.942Z</time></trkpt><trkpt lat="45.6524217" lon="7.98961"><ele>1169.0</ele><time>2026-04-04T08:17:28.942Z</time></trkpt><trkpt lat="45.6524833" lon="7.9895"><ele>1169.0</ele><time>2026-04-04T08:17:29.942Z</time></trkpt><trkpt lat="45.6525433" lon="7.989385"><ele>1169.0</ele><time>2026-04-04T08:17:30.942Z</time></trkpt><trkpt lat="45.6525883" lon="7.9892867"><ele>1169.0</ele><time>2026-04-04T08:17:31.942Z</time></trkpt><trkpt lat="45.652625" lon="7.9892"><ele>1169.0</ele><time>2026-04-04T08:17:32.942Z</time></trkpt><trkpt lat="45.6526767" lon="7.9891283"><ele>1169.0</ele><time>2026-04-04T08:17:35.942Z</time></trkpt><trkpt lat="45.6527117" lon="7.9892233"><ele>1169.0</ele><time>2026-04-04T08:17:38.942Z</time></trkpt><trkpt lat="45.6526983" lon="7.989335"><ele>1169.0</ele><time>2026-04-04T08:17:40.942Z</time></trkpt><trkpt lat="45.65265" lon="7.9894933"><ele>1169.0</ele><time>2026-04-04T08:17:42.942Z</time></trkpt><trkpt lat="45.65262" lon="7.9896017"><ele>1169.0</ele><time>2026-04-04T08:17:43.942Z</time></trkpt><trkpt lat="45.6525767" lon="7.98972"><ele>1169.0</ele><time>2026-04-04T08:17:44.942Z</time></trkpt><trkpt lat="45.6525317" lon="7.9898417"><ele>1169.0</ele><time>2026-04-04T08:17:45.942Z</time></trkpt><trkpt lat="45.65249" lon="7.98995"><ele>1169.0</ele><time>2026-04-04T08:17:46.942Z</time></trkpt><trkpt lat="45.6524283" lon="7.9900617"><ele>1169.0</ele><time>2026-04-04T08:17:47.941Z</time></trkpt><trkpt lat="45.652355" lon="7.9901633"><ele>1165.1666666666667</ele><time>2026-04-04T08:17:48.942Z</time></trkpt><trkpt lat="45.6523033" lon="7.9902267"><ele>1161.3333333333335</ele><time>2026-04-04T08:17:49.942Z</time></trkpt><trkpt lat="45.6522667" lon="7.990315"><ele>1157.5</ele><time>2026-04-04T08:17:51.942Z</time></trkpt><trkpt lat="45.65232" lon="7.9903717"><ele>1153.6666666666667</ele><time>2026-04-04T08:17:54.942Z</time></trkpt><trkpt lat="45.6523983" lon="7.99033"><ele>1149.8333333333333</ele><time>2026-04-04T08:17:56.941Z</time></trkpt><trkpt lat="45.652455" lon="7.9902733"><ele>1146.0</ele><time>2026-04-04T08:17:57.942Z</time></trkpt><trkpt lat="45.652525" lon="7.9901883"><ele>1146.0</ele><time>2026-04-04T08:17:58.942Z</time></trkpt><trkpt lat="45.652605" lon="7.990075"><ele>1146.0</ele><time>2026-04-04T08:17:59.942Z</time></trkpt><trkpt lat="45.6526883" lon="7.9899383"><ele>1146.0</ele><time>2026-04-04T08:18:00.942Z</time></trkpt><trkpt lat="45.6527783" lon="7.9897883"><ele>1146.0</ele><time>2026-04-04T08:18:01.942Z</time></trkpt><trkpt lat="45.652865" lon="7.9896317"><ele>1145.0</ele><time>2026-04-04T08:18:02.942Z</time></trkpt><trkpt lat="45.6529517" lon="7.98949"><ele>1144.0</ele><time>2026-04-04T08:18:03.942Z</time></trkpt><trkpt lat="45.65303" lon="7.9893667"><ele>1143.0</ele><time>2026-04-04T08:18:04.942Z</time></trkpt><trkpt lat="45.65311" lon="7.9892567"><ele>1142.0</ele><time>2026-04-04T08:18:05.941Z</time></trkpt><trkpt lat="45.6532017" lon="7.9891517"><ele>1142.0</ele><time>2026-04-04T08:18:06.942Z</time></trkpt><trkpt lat="45.653295" lon="7.9890483"><ele>1142.0</ele><time>2026-04-04T08:18:07.942Z</time></trkpt><trkpt lat="45.6533833" lon="7.9889433"><ele>1142.0</ele><time>2026-04-04T08:18:08.942Z</time></trkpt><trkpt lat="45.653465" lon="7.9888383"><ele>1142.0</ele><time>2026-04-04T08:18:09.942Z</time></trkpt><trkpt lat="45.6535333" lon="7.9887217"><ele>1142.0</ele><time>2026-04-04T08:18:10.941Z</time></trkpt><trkpt lat="45.6535917" lon="7.98862"><ele>1136.5</ele><time>2026-04-04T08:18:11.942Z</time></trkpt><trkpt lat="45.6536383" lon="7.9885417"><ele>1131.0</ele><time>2026-04-04T08:18:12.942Z</time></trkpt><trkpt lat="45.6537117" lon="7.9884167"><ele>1125.5</ele><time>2026-04-04T08:18:14.942Z</time></trkpt><trkpt lat="45.65377" lon="7.9883633"><ele>1120.0</ele><time>2026-04-04T08:18:16.941Z</time></trkpt><trkpt lat="45.6538217" lon="7.988445"><ele>1114.5</ele><time>2026-04-04T08:18:19.942Z</time></trkpt><trkpt lat="45.65377" lon="7.9885567"><ele>1109.0</ele><time>2026-04-04T08:18:21.942Z</time></trkpt><trkpt lat="45.65373" lon="7.9886333"><ele>1109.0</ele><time>2026-04-04T08:18:22.942Z</time></trkpt><trkpt lat="45.6536867" lon="7.9887333"><ele>1109.0</ele><time>2026-04-04T08:18:23.942Z</time></trkpt><trkpt lat="45.6536417" lon="7.98887"><ele>1109.0</ele><time>2026-04-04T08:18:24.942Z</time></trkpt><trkpt lat="45.6535933" lon="7.9890283"><ele>1109.0</ele><time>2026-04-04T08:18:25.942Z</time></trkpt><trkpt lat="45.65354" lon="7.9891817"><ele>1109.0</ele><time>2026-04-04T08:18:26.941Z</time></trkpt><trkpt lat="45.6534883" lon="7.9893217"><ele>1113.75</ele><time>2026-04-04T08:18:27.942Z</time></trkpt><trkpt lat="45.6534267" lon="7.9894733"><ele>1118.5</ele><time>2026-04-04T08:18:28.942Z</time></trkpt><trkpt lat="45.6533783" lon="7.989625"><ele>1123.25</ele><time>2026-04-04T08:18:29.942Z</time></trkpt><trkpt lat="45.6533333" lon="7.98979"><ele>1128.0</ele><time>2026-04-04T08:18:30.942Z</time></trkpt><trkpt lat="45.653295" lon="7.9899567"><ele>1124.25</ele><time>2026-04-04T08:18:31.942Z</time></trkpt><trkpt lat="45.6532467" lon="7.990125"><ele>1120.5</ele><time>2026-04-04T08:18:32.942Z</time></trkpt><trkpt lat="45.653205" lon="7.99031"><ele>1116.75</ele><time>2026-04-04T08:18:33.942Z</time></trkpt><trkpt lat="45.6531583" lon="7.990505"><ele>1113.0</ele><time>2026-04-04T08:18:34.942Z</time></trkpt><trkpt lat="45.6531217" lon="7.9906733"><ele>1113.0</ele><time>2026-04-04T08:18:35.942Z</time></trkpt><trkpt lat="45.6531" lon="7.99082"><ele>1113.0</ele><time>2026-04-04T08:18:36.942Z</time></trkpt><trkpt lat="45.6530933" lon="7.9909667"><ele>1113.0</ele><time>2026-04-04T08:18:37.942Z</time></trkpt><trkpt lat="45.65309" lon="7.9911033"><ele>1113.0</ele><time>2026-04-04T08:18:38.942Z</time></trkpt><trkpt lat="45.6530733" lon="7.991225"><ele>1113.0</ele><time>2026-04-04T08:18:39.942Z</time></trkpt><trkpt lat="45.6530517" lon="7.99132"><ele>1110.6666666666667</ele><time>2026-04-04T08:18:40.942Z</time></trkpt><trkpt lat="45.6530233" lon="7.9914067"><ele>1108.3333333333333</ele><time>2026-04-04T08:18:41.942Z</time></trkpt><trkpt lat="45.6529683" lon="7.9915467"><ele>1106.0</ele><time>2026-04-04T08:18:43.942Z</time></trkpt><trkpt lat="45.6529383" lon="7.99165"><ele>1103.6666666666665</ele><time>2026-04-04T08:18:45.942Z</time></trkpt><trkpt lat="45.6530083" lon="7.9916633"><ele>1101.3333333333333</ele><time>2026-04-04T08:18:47.942Z</time></trkpt><trkpt lat="45.653075" lon="7.99161"><ele>1099.0</ele><time>2026-04-04T08:18:48.942Z</time></trkpt><trkpt lat="45.6531417" lon="7.9915367"><ele>1099.0</ele><time>2026-04-04T08:18:49.941Z</time></trkpt><trkpt lat="45.65321" lon="7.9914383"><ele>1099.0</ele><time>2026-04-04T08:18:50.942Z</time></trkpt><trkpt lat="45.653265" lon="7.9913267"><ele>1099.0</ele><time>2026-04-04T08:18:51.942Z</time></trkpt><trkpt lat="45.6533167" lon="7.9912083"><ele>1099.0</ele><time>2026-04-04T08:18:52.942Z</time></trkpt><trkpt lat="45.65334" lon="7.9910833"><ele>1099.0</ele><time>2026-04-04T08:18:53.942Z</time></trkpt><trkpt lat="45.6533517" lon="7.9909483"><ele>1101.8</ele><time>2026-04-04T08:18:54.942Z</time></trkpt><trkpt lat="45.6533667" lon="7.99082"><ele>1104.6000000000001</ele><time>2026-04-04T08:18:55.942Z</time></trkpt><trkpt lat="45.6533767" lon="7.990685"><ele>1107.4</ele><time>2026-04-04T08:18:56.941Z</time></trkpt><trkpt lat="45.6534133" lon="7.99057"><ele>1110.2</ele><time>2026-04-04T08:18:57.942Z</time></trkpt><trkpt lat="45.653465" lon="7.9904317"><ele>1113.0</ele><time>2026-04-04T08:18:58.942Z</time></trkpt><trkpt lat="45.653505" lon="7.9903067"><ele>1113.0</ele><time>2026-04-04T08:18:59.942Z</time></trkpt><trkpt lat="45.65356" lon="7.9902033"><ele>1113.0</ele><time>2026-04-04T08:19:00.942Z</time></trkpt><trkpt lat="45.65363" lon="7.99011"><ele>1113.0</ele><time>2026-04-04T08:19:01.942Z</time></trkpt><trkpt lat="45.6537183" lon="7.9900383"><ele>1113.0</ele><time>2026-04-04T08:19:02.942Z</time></trkpt><trkpt lat="45.653825" lon="7.9899383"><ele>1113.0</ele><time>2026-04-04T08:19:03.942Z</time></trkpt><trkpt lat="45.6539283" lon="7.9898233"><ele>1107.6</ele><time>2026-04-04T08:19:04.942Z</time></trkpt><trkpt lat="45.654015" lon="7.9897083"><ele>1102.1999999999998</ele><time>2026-04-04T08:19:05.942Z</time></trkpt><trkpt lat="45.6540883" lon="7.9896033"><ele>1096.8</ele><time>2026-04-04T08:19:06.942Z</time></trkpt><trkpt lat="45.6541467" lon="7.9895233"><ele>1091.3999999999999</ele><time>2026-04-04T08:19:07.942Z</time></trkpt><trkpt lat="45.6542567" lon="7.9894433"><ele>1086.0</ele><time>2026-04-04T08:19:09.941Z</time></trkpt><trkpt lat="45.6543233" lon="7.9894267"><ele>1086.0</ele><time>2026-04-04T08:19:10.942Z</time></trkpt><trkpt lat="45.65443" lon="7.9893433"><ele>1086.0</ele><time>2026-04-04T08:19:12.942Z</time></trkpt><trkpt lat="45.65448" lon="7.9892583"><ele>1086.0</ele><time>2026-04-04T08:19:13.942Z</time></trkpt><trkpt lat="45.654525" lon="7.989135"><ele>1086.0</ele><time>2026-04-04T08:19:14.942Z</time></trkpt><trkpt lat="45.6545467" lon="7.9889933"><ele>1086.0</ele><time>2026-04-04T08:19:15.942Z</time></trkpt><trkpt lat="45.6545533" lon="7.9888483"><ele>1084.6</ele><time>2026-04-04T08:19:16.942Z</time></trkpt><trkpt lat="45.6545383" lon="7.988695"><ele>1083.1999999999998</ele><time>2026-04-04T08:19:17.942Z</time></trkpt><trkpt lat="45.6545283" lon="7.988555"><ele>1081.8000000000002</ele><time>2026-04-04T08:19:18.942Z</time></trkpt><trkpt lat="45.6545217" lon="7.9884233"><ele>1080.4</ele><time>2026-04-04T08:19:19.942Z</time></trkpt><trkpt lat="45.6545217" lon="7.9883017"><ele>1079.0</ele><time>2026-04-04T08:19:20.942Z</time></trkpt><trkpt lat="45.6545217" lon="7.9881917"><ele>1079.0</ele><time>2026-04-04T08:19:21.942Z</time></trkpt><trkpt lat="45.6545233" lon="7.9880917"><ele>1079.0</ele><time>2026-04-04T08:19:22.941Z</time></trkpt><trkpt lat="45.65454" lon="7.987995"><ele>1079.0</ele><time>2026-04-04T08:19:23.942Z</time></trkpt><trkpt lat="45.6545667" lon="7.9879"><ele>1079.0</ele><time>2026-04-04T08:19:24.942Z</time></trkpt><trkpt lat="45.65462" lon="7.9878183"><ele>1079.0</ele><time>2026-04-04T08:19:25.942Z</time></trkpt><trkpt lat="45.654685" lon="7.98776"><ele>1079.0</ele><time>2026-04-04T08:19:26.942Z</time></trkpt><trkpt lat="45.65475" lon="7.9877217"><ele>1079.0</ele><time>2026-04-04T08:19:27.942Z</time></trkpt><trkpt lat="45.65482" lon="7.9876983"><ele>1079.0</ele><time>2026-04-04T08:19:28.941Z</time></trkpt><trkpt lat="45.6549317" lon="7.987695"><ele>1079.0</ele><time>2026-04-04T08:19:30.942Z</time></trkpt><trkpt lat="45.6550317" lon="7.9877867"><ele>1079.0</ele><time>2026-04-04T08:19:32.942Z</time></trkpt><trkpt lat="45.65509" lon="7.98787"><ele>1079.0</ele><time>2026-04-04T08:19:33.942Z</time></trkpt><trkpt lat="45.6551533" lon="7.987985"><ele>1079.0</ele><time>2026-04-04T08:19:34.941Z</time></trkpt><trkpt lat="45.6552133" lon="7.988115"><ele>1079.0</ele><time>2026-04-04T08:19:35.942Z</time></trkpt><trkpt lat="45.65527" lon="7.9882683"><ele>1079.0</ele><time>2026-04-04T08:19:36.942Z</time></trkpt><trkpt lat="45.6553383" lon="7.9884283"><ele>1079.0</ele><time>2026-04-04T08:19:37.942Z</time></trkpt><trkpt lat="45.655405" lon="7.988595"><ele>1079.0</ele><time>2026-04-04T08:19:38.942Z</time></trkpt><trkpt lat="45.6554717" lon="7.9887583"><ele>1078.0</ele><time>2026-04-04T08:19:39.942Z</time></trkpt><trkpt lat="45.65552" lon="7.9889233"><ele>1077.0</ele><time>2026-04-04T08:19:40.942Z</time></trkpt><trkpt lat="45.6555567" lon="7.98908"><ele>1076.0</ele><time>2026-04-04T08:19:41.942Z</time></trkpt><trkpt lat="45.65559" lon="7.9892417"><ele>1075.0</ele><time>2026-04-04T08:19:42.942Z</time></trkpt><trkpt lat="45.65562" lon="7.98939"><ele>1075.0</ele><time>2026-04-04T08:19:43.942Z</time></trkpt><trkpt lat="45.65567" lon="7.989535"><ele>1075.0</ele><time>2026-04-04T08:19:44.942Z</time></trkpt><trkpt lat="45.6557183" lon="7.9896467"><ele>1075.0</ele><time>2026-04-04T08:19:45.942Z</time></trkpt><trkpt lat="45.6557517" lon="7.98975"><ele>1075.0</ele><time>2026-04-04T08:19:46.942Z</time></trkpt><trkpt lat="45.6557867" lon="7.98986"><ele>1075.0</ele><time>2026-04-04T08:19:47.942Z</time></trkpt><trkpt lat="45.65579" lon="7.9899817"><ele>1071.6</ele><time>2026-04-04T08:19:48.942Z</time></trkpt><trkpt lat="45.6557867" lon="7.9901117"><ele>1068.2</ele><time>2026-04-04T08:19:49.942Z</time></trkpt><trkpt lat="45.6557867" lon="7.990255"><ele>1064.8</ele><time>2026-04-04T08:19:50.942Z</time></trkpt><trkpt lat="45.6558" lon="7.9903767"><ele>1061.4</ele><time>2026-04-04T08:19:51.942Z</time></trkpt><trkpt lat="45.655835" lon="7.990485"><ele>1058.0</ele><time>2026-04-04T08:19:52.942Z</time></trkpt><trkpt lat="45.65589" lon="7.9906"><ele>1058.0</ele><time>2026-04-04T08:19:53.942Z</time></trkpt><trkpt lat="45.6559533" lon="7.9907167"><ele>1058.0</ele><time>2026-04-04T08:19:54.941Z</time></trkpt><trkpt lat="45.6560217" lon="7.99085"><ele>1058.0</ele><time>2026-04-04T08:19:55.942Z</time></trkpt><trkpt lat="45.656075" lon="7.9909783"><ele>1058.0</ele><time>2026-04-04T08:19:56.942Z</time></trkpt><trkpt lat="45.6561017" lon="7.9911083"><ele>1058.0</ele><time>2026-04-04T08:19:57.942Z</time></trkpt><trkpt lat="45.6561217" lon="7.991215"><ele>1055.0</ele><time>2026-04-04T08:19:58.942Z</time></trkpt><trkpt lat="45.6561567" lon="7.991295"><ele>1052.0</ele><time>2026-04-04T08:19:59.942Z</time></trkpt><trkpt lat="45.65626" lon="7.9913567"><ele>1049.0</ele><time>2026-04-04T08:20:01.942Z</time></trkpt><trkpt lat="45.6563517" lon="7.9913567"><ele>1046.0</ele><time>2026-04-04T08:20:02.942Z</time></trkpt><trkpt lat="45.6564633" lon="7.9913183"><ele>1043.0</ele><time>2026-04-04T08:20:03.942Z</time></trkpt><trkpt lat="45.6565883" lon="7.9912667"><ele>1043.0</ele><time>2026-04-04T08:20:04.942Z</time></trkpt><trkpt lat="45.656705" lon="7.99121"><ele>1043.0</ele><time>2026-04-04T08:20:05.942Z</time></trkpt><trkpt lat="45.6568117" lon="7.9911467"><ele>1043.0</ele><time>2026-04-04T08:20:06.942Z</time></trkpt><trkpt lat="45.6569117" lon="7.9910533"><ele>1043.0</ele><time>2026-04-04T08:20:07.942Z</time></trkpt><trkpt lat="45.65701" lon="7.990945"><ele>1044.25</ele><time>2026-04-04T08:20:08.942Z</time></trkpt><trkpt lat="45.6571183" lon="7.990835"><ele>1045.5</ele><time>2026-04-04T08:20:09.941Z</time></trkpt><trkpt lat="45.6572333" lon="7.9907517"><ele>1046.75</ele><time>2026-04-04T08:20:10.942Z</time></trkpt><trkpt lat="45.6573567" lon="7.990685"><ele>1048.0</ele><time>2026-04-04T08:20:11.941Z</time></trkpt><trkpt lat="45.6574633" lon="7.9906267"><ele>1048.0</ele><time>2026-04-04T08:20:12.941Z</time></trkpt><trkpt lat="45.6575633" lon="7.9905817"><ele>1048.0</ele><time>2026-04-04T08:20:13.941Z</time></trkpt><trkpt lat="45.6576817" lon="7.990535"><ele>1048.0</ele><time>2026-04-04T08:20:14.94Z</time></trkpt><trkpt lat="45.657785" lon="7.990485"><ele>1048.0</ele><time>2026-04-04T08:20:15.941Z</time></trkpt><trkpt lat="45.65788" lon="7.9904367"><ele>1048.0</ele><time>2026-04-04T08:20:16.941Z</time></trkpt><trkpt lat="45.657965" lon="7.9903967"><ele>1047.2</ele><time>2026-04-04T08:20:17.941Z</time></trkpt><trkpt lat="45.65803" lon="7.9903783"><ele>1046.4</ele><time>2026-04-04T08:20:18.941Z</time></trkpt><trkpt lat="45.6581467" lon="7.9903933"><ele>1045.6000000000001</ele><time>2026-04-04T08:20:20.941Z</time></trkpt><trkpt lat="45.6582417" lon="7.9905133"><ele>1044.8</ele><time>2026-04-04T08:20:22.941Z</time></trkpt><trkpt lat="45.6582933" lon="7.9906317"><ele>1044.0</ele><time>2026-04-04T08:20:23.941Z</time></trkpt><trkpt lat="45.6583233" lon="7.9907783"><ele>1042.6000000000001</ele><time>2026-04-04T08:20:24.941Z</time></trkpt><trkpt lat="45.65832" lon="7.9909467"><ele>1041.2</ele><time>2026-04-04T08:20:25.94Z</time></trkpt><trkpt lat="45.658295" lon="7.99112"><ele>1039.8000000000002</ele><time>2026-04-04T08:20:26.941Z</time></trkpt><trkpt lat="45.6582517" lon="7.991275"><ele>1038.4</ele><time>2026-04-04T08:20:27.941Z</time></trkpt><trkpt lat="45.6582033" lon="7.9913783"><ele>1037.0</ele><time>2026-04-04T08:20:28.94Z</time></trkpt><trkpt lat="45.6581733" lon="7.9914917"><ele>1037.0</ele><time>2026-04-04T08:20:29.941Z</time></trkpt><trkpt lat="45.6581533" lon="7.9916067"><ele>1037.0</ele><time>2026-04-04T08:20:30.941Z</time></trkpt><trkpt lat="45.6581533" lon="7.9917233"><ele>1037.0</ele><time>2026-04-04T08:20:31.941Z</time></trkpt><trkpt lat="45.6581683" lon="7.9918533"><ele>1037.0</ele><time>2026-04-04T08:20:32.941Z</time></trkpt><trkpt lat="45.6582083" lon="7.9919783"><ele>1037.0</ele><time>2026-04-04T08:20:33.941Z</time></trkpt><trkpt lat="45.65825" lon="7.99209"><ele>1037.0</ele><time>2026-04-04T08:20:34.941Z</time></trkpt><trkpt lat="45.65828" lon="7.9921933"><ele>1036.6666666666667</ele><time>2026-04-04T08:20:35.941Z</time></trkpt><trkpt lat="45.6582983" lon="7.9922967"><ele>1036.3333333333335</ele><time>2026-04-04T08:20:36.941Z</time></trkpt><trkpt lat="45.6583033" lon="7.99241"><ele>1036.0</ele><time>2026-04-04T08:20:37.941Z</time></trkpt><trkpt lat="45.6583" lon="7.99252"><ele>1035.6666666666667</ele><time>2026-04-04T08:20:38.941Z</time></trkpt><trkpt lat="45.6582933" lon="7.99261"><ele>1035.3333333333333</ele><time>2026-04-04T08:20:39.941Z</time></trkpt><trkpt lat="45.6582933" lon="7.99277"><ele>1035.0</ele><time>2026-04-04T08:20:41.94Z</time></trkpt><trkpt lat="45.65833" lon="7.99286"><ele>1033.1666666666667</ele><time>2026-04-04T08:20:42.941Z</time></trkpt><trkpt lat="45.658365" lon="7.9929733"><ele>1031.3333333333333</ele><time>2026-04-04T08:20:43.941Z</time></trkpt><trkpt lat="45.65841" lon="7.9930617"><ele>1029.5</ele><time>2026-04-04T08:20:44.941Z</time></trkpt><trkpt lat="45.6584567" lon="7.9931633"><ele>1027.6666666666665</ele><time>2026-04-04T08:20:45.941Z</time></trkpt><trkpt lat="45.6585033" lon="7.99328"><ele>1025.8333333333333</ele><time>2026-04-04T08:20:46.941Z</time></trkpt><trkpt lat="45.6585517" lon="7.993415"><ele>1024.0</ele><time>2026-04-04T08:20:47.941Z</time></trkpt><trkpt lat="45.6585983" lon="7.9935683"><ele>1023.4000000000001</ele><time>2026-04-04T08:20:48.941Z</time></trkpt><trkpt lat="45.65863" lon="7.9937133"><ele>1022.8000000000001</ele><time>2026-04-04T08:20:49.94Z</time></trkpt><trkpt lat="45.65863" lon="7.9938617"><ele>1022.1999999999999</ele><time>2026-04-04T08:20:50.941Z</time></trkpt><trkpt lat="45.6586533" lon="7.9939917"><ele>1021.5999999999999</ele><time>2026-04-04T08:20:51.941Z</time></trkpt><trkpt lat="45.65868" lon="7.9941283"><ele>1021.0</ele><time>2026-04-04T08:20:52.941Z</time></trkpt><trkpt lat="45.65872" lon="7.9942733"><ele>1017.0</ele><time>2026-04-04T08:20:53.94Z</time></trkpt><trkpt lat="45.65878" lon="7.994425"><ele>1012.9999999999999</ele><time>2026-04-04T08:20:54.941Z</time></trkpt><trkpt lat="45.6588467" lon="7.9945767"><ele>1008.9999999999999</ele><time>2026-04-04T08:20:55.941Z</time></trkpt><trkpt lat="45.6589117" lon="7.9946817"><ele>1005.0</ele><time>2026-04-04T08:20:56.941Z</time></trkpt><trkpt lat="45.6589817" lon="7.9947467"><ele>1001.0</ele><time>2026-04-04T08:20:57.941Z</time></trkpt><trkpt lat="45.6590567" lon="7.9947767"><ele>1001.0</ele><time>2026-04-04T08:20:58.941Z</time></trkpt><trkpt lat="45.659145" lon="7.9947683"><ele>1000.9999999999999</ele><time>2026-04-04T08:20:59.941Z</time></trkpt><trkpt lat="45.6592483" lon="7.994745"><ele>1000.9999999999999</ele><time>2026-04-04T08:21:00.94Z</time></trkpt><trkpt lat="45.6593617" lon="7.9947117"><ele>1001.0</ele><time>2026-04-04T08:21:01.941Z</time></trkpt><trkpt lat="45.659465" lon="7.9946867"><ele>1001.0</ele><time>2026-04-04T08:21:02.941Z</time></trkpt><trkpt lat="45.659565" lon="7.9946617"><ele>999.3333333333334</ele><time>2026-04-04T08:21:03.941Z</time></trkpt><trkpt lat="45.659665" lon="7.994655"><ele>997.6666666666667</ele><time>2026-04-04T08:21:04.941Z</time></trkpt><trkpt lat="45.6597617" lon="7.994645"><ele>996.0</ele><time>2026-04-04T08:21:05.941Z</time></trkpt><trkpt lat="45.65984" lon="7.9946283"><ele>994.3333333333333</ele><time>2026-04-04T08:21:06.941Z</time></trkpt><trkpt lat="45.659905" lon="7.994585"><ele>992.6666666666666</ele><time>2026-04-04T08:21:07.941Z</time></trkpt><trkpt lat="45.659975" lon="7.994515"><ele>991.0</ele><time>2026-04-04T08:21:08.941Z</time></trkpt><trkpt lat="45.6600383" lon="7.9944117"><ele>991.0</ele><time>2026-04-04T08:21:09.941Z</time></trkpt><trkpt lat="45.6600917" lon="7.9942767"><ele>991.0</ele><time>2026-04-04T08:21:10.941Z</time></trkpt><trkpt lat="45.6601633" lon="7.9941217"><ele>991.0</ele><time>2026-04-04T08:21:11.941Z</time></trkpt><trkpt lat="45.66025" lon="7.9939383"><ele>991.0</ele><time>2026-04-04T08:21:12.941Z</time></trkpt><trkpt lat="45.6603433" lon="7.99375"><ele>990.0</ele><time>2026-04-04T08:21:13.941Z</time></trkpt><trkpt lat="45.660445" lon="7.99358"><ele>989.0</ele><time>2026-04-04T08:21:14.94Z</time></trkpt><trkpt lat="45.6605433" lon="7.9934433"><ele>988.0</ele><time>2026-04-04T08:21:15.941Z</time></trkpt><trkpt lat="45.6606483" lon="7.9933117"><ele>987.0</ele><time>2026-04-04T08:21:16.941Z</time></trkpt><trkpt lat="45.6607417" lon="7.9931967"><ele>983.75</ele><time>2026-04-04T08:21:17.941Z</time></trkpt><trkpt lat="45.66084" lon="7.9930717"><ele>980.5</ele><time>2026-04-04T08:21:18.941Z</time></trkpt><trkpt lat="45.66096" lon="7.9929383"><ele>977.25</ele><time>2026-04-04T08:21:19.94Z</time></trkpt><trkpt lat="45.661075" lon="7.9927917"><ele>974.0</ele><time>2026-04-04T08:21:20.941Z</time></trkpt><trkpt lat="45.66116" lon="7.992655"><ele>974.0</ele><time>2026-04-04T08:21:21.941Z</time></trkpt><trkpt lat="45.6612417" lon="7.9925367"><ele>974.0000000000001</ele><time>2026-04-04T08:21:22.941Z</time></trkpt><trkpt lat="45.6613233" lon="7.9924433"><ele>974.0000000000001</ele><time>2026-04-04T08:21:23.941Z</time></trkpt><trkpt lat="45.6613883" lon="7.9923583"><ele>974.0</ele><time>2026-04-04T08:21:24.94Z</time></trkpt><trkpt lat="45.661455" lon="7.992275"><ele>974.0</ele><time>2026-04-04T08:21:25.941Z</time></trkpt><trkpt lat="45.6615283" lon="7.9922083"><ele>975.0000000000001</ele><time>2026-04-04T08:21:26.941Z</time></trkpt><trkpt lat="45.6615883" lon="7.992175"><ele>976.0</ele><time>2026-04-04T08:21:27.941Z</time></trkpt><trkpt lat="45.6616617" lon="7.9921767"><ele>977.0</ele><time>2026-04-04T08:21:28.941Z</time></trkpt><trkpt lat="45.6617367" lon="7.9922017"><ele>978.0</ele><time>2026-04-04T08:21:29.941Z</time></trkpt><trkpt lat="45.6618183" lon="7.9922517"><ele>979.0000000000001</ele><time>2026-04-04T08:21:30.941Z</time></trkpt><trkpt lat="45.6619117" lon="7.9922833"><ele>980.0</ele><time>2026-04-04T08:21:31.941Z</time></trkpt><trkpt lat="45.6620183" lon="7.992285"><ele>980.0</ele><time>2026-04-04T08:21:32.941Z</time></trkpt><trkpt lat="45.662135" lon="7.99226"><ele>980.0</ele><time>2026-04-04T08:21:33.941Z</time></trkpt><trkpt lat="45.6622583" lon="7.992235"><ele>980.0</ele><time>2026-04-04T08:21:34.941Z</time></trkpt><trkpt lat="45.6623867" lon="7.9922233"><ele>980.0</ele><time>2026-04-04T08:21:35.941Z</time></trkpt><trkpt lat="45.6625017" lon="7.9922233"><ele>980.0</ele><time>2026-04-04T08:21:36.941Z</time></trkpt><trkpt lat="45.6626033" lon="7.99223"><ele>980.0</ele><time>2026-04-04T08:21:37.941Z</time></trkpt><trkpt lat="45.66271" lon="7.9922217"><ele>980.0</ele><time>2026-04-04T08:21:38.941Z</time></trkpt><trkpt lat="45.6628267" lon="7.9922"><ele>980.0</ele><time>2026-04-04T08:21:39.941Z</time></trkpt><trkpt lat="45.662945" lon="7.9921483"><ele>972.25</ele><time>2026-04-04T08:21:40.941Z</time></trkpt><trkpt lat="45.6630633" lon="7.9920683"><ele>964.5</ele><time>2026-04-04T08:21:41.941Z</time></trkpt><trkpt lat="45.66317" lon="7.991975"><ele>956.75</ele><time>2026-04-04T08:21:42.941Z</time></trkpt><trkpt lat="45.6632817" lon="7.9918533"><ele>949.0</ele><time>2026-04-04T08:21:43.941Z</time></trkpt><trkpt lat="45.6633867" lon="7.9917083"><ele>946.25</ele><time>2026-04-04T08:21:44.941Z</time></trkpt><trkpt lat="45.6634767" lon="7.9915567"><ele>943.5</ele><time>2026-04-04T08:21:45.941Z</time></trkpt><trkpt lat="45.663575" lon="7.991415"><ele>940.75</ele><time>2026-04-04T08:21:46.941Z</time></trkpt><trkpt lat="45.66367" lon="7.9912883"><ele>938.0</ele><time>2026-04-04T08:21:47.941Z</time></trkpt><trkpt lat="45.66376" lon="7.9911583"><ele>938.0</ele><time>2026-04-04T08:21:48.941Z</time></trkpt><trkpt lat="45.6638517" lon="7.99104"><ele>938.0</ele><time>2026-04-04T08:21:49.941Z</time></trkpt><trkpt lat="45.6639317" lon="7.990925"><ele>938.0</ele><time>2026-04-04T08:21:50.941Z</time></trkpt><trkpt lat="45.6640033" lon="7.990795"><ele>938.0</ele><time>2026-04-04T08:21:51.941Z</time></trkpt><trkpt lat="45.6640567" lon="7.99065"><ele>941.0</ele><time>2026-04-04T08:21:52.94Z</time></trkpt><trkpt lat="45.664085" lon="7.9905"><ele>944.0</ele><time>2026-04-04T08:21:53.941Z</time></trkpt><trkpt lat="45.6640717" lon="7.9903567"><ele>947.0</ele><time>2026-04-04T08:21:54.941Z</time></trkpt><trkpt lat="45.6640433" lon="7.9902133"><ele>950.0</ele><time>2026-04-04T08:21:55.941Z</time></trkpt><trkpt lat="45.6639967" lon="7.9900767"><ele>953.0</ele><time>2026-04-04T08:21:56.941Z</time></trkpt><trkpt lat="45.6639367" lon="7.9899533"><ele>953.0000000000001</ele><time>2026-04-04T08:21:57.941Z</time></trkpt><trkpt lat="45.6638817" lon="7.9898483"><ele>953.0</ele><time>2026-04-04T08:21:58.94Z</time></trkpt><trkpt lat="45.66383" lon="7.9897633"><ele>953.0</ele><time>2026-04-04T08:21:59.941Z</time></trkpt><trkpt lat="45.6637883" lon="7.9896667"><ele>953.0</ele><time>2026-04-04T08:22:00.941Z</time></trkpt><trkpt lat="45.66376" lon="7.989555"><ele>953.0000000000001</ele><time>2026-04-04T08:22:01.941Z</time></trkpt><trkpt lat="45.6637717" lon="7.989455"><ele>953.0</ele><time>2026-04-04T08:22:02.941Z</time></trkpt><trkpt lat="45.6637933" lon="7.9893533"><ele>953.0</ele><time>2026-04-04T08:22:03.941Z</time></trkpt><trkpt lat="45.6638433" lon="7.9892333"><ele>953.0</ele><time>2026-04-04T08:22:04.941Z</time></trkpt><trkpt lat="45.66392" lon="7.9890983"><ele>953.0</ele><time>2026-04-04T08:22:05.941Z</time></trkpt><trkpt lat="45.6640183" lon="7.9889283"><ele>953.0</ele><time>2026-04-04T08:22:06.941Z</time></trkpt><trkpt lat="45.6641167" lon="7.9887567"><ele>953.4</ele><time>2026-04-04T08:22:07.941Z</time></trkpt><trkpt lat="45.6641867" lon="7.9886133"><ele>953.8</ele><time>2026-04-04T08:22:08.941Z</time></trkpt><trkpt lat="45.664265" lon="7.9885017"><ele>954.2</ele><time>2026-04-04T08:22:09.941Z</time></trkpt><trkpt lat="45.66436" lon="7.9884333"><ele>954.6</ele><time>2026-04-04T08:22:10.941Z</time></trkpt><trkpt lat="45.6644567" lon="7.9884067"><ele>955.0</ele><time>2026-04-04T08:22:11.941Z</time></trkpt><trkpt lat="45.664555" lon="7.9883983"><ele>951.0</ele><time>2026-04-04T08:22:12.941Z</time></trkpt><trkpt lat="45.664655" lon="7.9884217"><ele>947.0</ele><time>2026-04-04T08:22:13.941Z</time></trkpt><trkpt lat="45.6647533" lon="7.988445"><ele>943.0</ele><time>2026-04-04T08:22:14.941Z</time></trkpt><trkpt lat="45.6648767" lon="7.98845"><ele>939.0</ele><time>2026-04-04T08:22:15.941Z</time></trkpt><trkpt lat="45.6649967" lon="7.9884317"><ele>935.0</ele><time>2026-04-04T08:22:16.941Z</time></trkpt><trkpt lat="45.6651133" lon="7.9883983"><ele>935.0</ele><time>2026-04-04T08:22:17.941Z</time></trkpt><trkpt lat="45.6652283" lon="7.9883767"><ele>935.0</ele><time>2026-04-04T08:22:18.941Z</time></trkpt><trkpt lat="45.6653283" lon="7.9883783"><ele>935.0</ele><time>2026-04-04T08:22:19.94Z</time></trkpt><trkpt lat="45.6654117" lon="7.9884117"><ele>935.0</ele><time>2026-04-04T08:22:20.94Z</time></trkpt><trkpt lat="45.6654917" lon="7.98847"><ele>935.0</ele><time>2026-04-04T08:22:21.941Z</time></trkpt><trkpt lat="45.6655533" lon="7.988535"><ele>935.1666666666667</ele><time>2026-04-04T08:22:22.941Z</time></trkpt><trkpt lat="45.665625" lon="7.9885867"><ele>935.3333333333334</ele><time>2026-04-04T08:22:23.941Z</time></trkpt><trkpt lat="45.6656917" lon="7.9886217"><ele>935.5</ele><time>2026-04-04T08:22:24.94Z</time></trkpt><trkpt lat="45.6657617" lon="7.9886283"><ele>935.6666666666667</ele><time>2026-04-04T08:22:25.94Z</time></trkpt><trkpt lat="45.6658433" lon="7.988655"><ele>935.8333333333334</ele><time>2026-04-04T08:22:26.941Z</time></trkpt><trkpt lat="45.665925" lon="7.988705"><ele>936.0</ele><time>2026-04-04T08:22:27.941Z</time></trkpt><trkpt lat="45.6660133" lon="7.988775"><ele>936.0</ele><time>2026-04-04T08:22:28.941Z</time></trkpt><trkpt lat="45.6661017" lon="7.98884"><ele>935.9999999999999</ele><time>2026-04-04T08:22:29.94Z</time></trkpt><trkpt lat="45.6661917" lon="7.9888817"><ele>935.9999999999999</ele><time>2026-04-04T08:22:30.941Z</time></trkpt><trkpt lat="45.6662867" lon="7.9889183"><ele>936.0</ele><time>2026-04-04T08:22:31.941Z</time></trkpt><trkpt lat="45.6663833" lon="7.98893"><ele>936.0</ele><time>2026-04-04T08:22:32.941Z</time></trkpt><trkpt lat="45.6664817" lon="7.988915"><ele>934.8</ele><time>2026-04-04T08:22:33.94Z</time></trkpt><trkpt lat="45.66658" lon="7.9888783"><ele>933.5999999999999</ele><time>2026-04-04T08:22:34.941Z</time></trkpt><trkpt lat="45.6666617" lon="7.9888083"><ele>932.4</ele><time>2026-04-04T08:22:35.941Z</time></trkpt><trkpt lat="45.6667383" lon="7.9887033"><ele>931.2</ele><time>2026-04-04T08:22:36.941Z</time></trkpt><trkpt lat="45.666805" lon="7.9885933"><ele>930.0</ele><time>2026-04-04T08:22:37.941Z</time></trkpt><trkpt lat="45.66686" lon="7.9885117"><ele>930.0</ele><time>2026-04-04T08:22:38.94Z</time></trkpt><trkpt lat="45.6669317" lon="7.9884383"><ele>930.0</ele><time>2026-04-04T08:22:39.941Z</time></trkpt><trkpt lat="45.6670217" lon="7.9884033"><ele>930.0</ele><time>2026-04-04T08:22:40.941Z</time></trkpt><trkpt lat="45.6671367" lon="7.98836"><ele>930.0</ele><time>2026-04-04T08:22:41.941Z</time></trkpt><trkpt lat="45.6672517" lon="7.9882933"><ele>930.0</ele><time>2026-04-04T08:22:42.941Z</time></trkpt><trkpt lat="45.66737" lon="7.9882067"><ele>930.0</ele><time>2026-04-04T08:22:43.941Z</time></trkpt><trkpt lat="45.6674667" lon="7.9881117"><ele>930.0</ele><time>2026-04-04T08:22:44.941Z</time></trkpt><trkpt lat="45.6675417" lon="7.9880267"><ele>930.0</ele><time>2026-04-04T08:22:45.941Z</time></trkpt><trkpt lat="45.6676117" lon="7.98794"><ele>930.0</ele><time>2026-04-04T08:22:46.941Z</time></trkpt><trkpt lat="45.6676617" lon="7.9878483"><ele>930.0</ele><time>2026-04-04T08:22:47.941Z</time></trkpt><trkpt lat="45.6676917" lon="7.98775"><ele>930.0</ele><time>2026-04-04T08:22:48.941Z</time></trkpt><trkpt lat="45.6677117" lon="7.987625"><ele>930.0</ele><time>2026-04-04T08:22:49.941Z</time></trkpt><trkpt lat="45.6677083" lon="7.9874983"><ele>930.0</ele><time>2026-04-04T08:22:50.941Z</time></trkpt><trkpt lat="45.6677017" lon="7.98737"><ele>930.0</ele><time>2026-04-04T08:22:51.941Z</time></trkpt><trkpt lat="45.6676967" lon="7.9872433"><ele>930.0</ele><time>2026-04-04T08:22:52.941Z</time></trkpt><trkpt lat="45.66769" lon="7.98713"><ele>930.0</ele><time>2026-04-04T08:22:53.941Z</time></trkpt><trkpt lat="45.66768" lon="7.987015"><ele>931.8333333333334</ele><time>2026-04-04T08:22:54.941Z</time></trkpt><trkpt lat="45.6676583" lon="7.986895"><ele>933.6666666666667</ele><time>2026-04-04T08:22:55.941Z</time></trkpt><trkpt lat="45.6676267" lon="7.98679"><ele>935.5</ele><time>2026-04-04T08:22:56.94Z</time></trkpt><trkpt lat="45.66758" lon="7.986705"><ele>937.3333333333334</ele><time>2026-04-04T08:22:57.941Z</time></trkpt><trkpt lat="45.66754" lon="7.986635"><ele>939.1666666666667</ele><time>2026-04-04T08:22:58.941Z</time></trkpt><trkpt lat="45.6674967" lon="7.9864833"><ele>941.0</ele><time>2026-04-04T08:23:00.94Z</time></trkpt><trkpt lat="45.6675233" lon="7.9863467"><ele>941.0</ele><time>2026-04-04T08:23:02.941Z</time></trkpt><trkpt lat="45.667625" lon="7.9862583"><ele>941.0</ele><time>2026-04-04T08:23:04.941Z</time></trkpt><trkpt lat="45.6677283" lon="7.9862467"><ele>941.0</ele><time>2026-04-04T08:23:05.941Z</time></trkpt><trkpt lat="45.6678583" lon="7.9862567"><ele>941.0</ele><time>2026-04-04T08:23:06.941Z</time></trkpt><trkpt lat="45.6680217" lon="7.9862817"><ele>935.5</ele><time>2026-04-04T08:23:07.941Z</time></trkpt><trkpt lat="45.6681767" lon="7.9863233"><ele>930.0</ele><time>2026-04-04T08:23:08.941Z</time></trkpt><trkpt lat="45.6683017" lon="7.986375"><ele>924.5</ele><time>2026-04-04T08:23:09.941Z</time></trkpt><trkpt lat="45.6684133" lon="7.9864183"><ele>919.0</ele><time>2026-04-04T08:23:10.941Z</time></trkpt><trkpt lat="45.6685183" lon="7.9864517"><ele>915.4000000000001</ele><time>2026-04-04T08:23:11.941Z</time></trkpt><trkpt lat="45.6686183" lon="7.9864683"><ele>911.8000000000001</ele><time>2026-04-04T08:23:12.941Z</time></trkpt><trkpt lat="45.668705" lon="7.9864633"><ele>908.1999999999999</ele><time>2026-04-04T08:23:13.941Z</time></trkpt><trkpt lat="45.6688017" lon="7.9864317"><ele>904.5999999999999</ele><time>2026-04-04T08:23:14.941Z</time></trkpt><trkpt lat="45.668885" lon="7.986405"><ele>901.0</ele><time>2026-04-04T08:23:15.941Z</time></trkpt><trkpt lat="45.668995" lon="7.9863067"><ele>901.0</ele><time>2026-04-04T08:23:16.941Z</time></trkpt><trkpt lat="45.66912" lon="7.9861983"><ele>901.0</ele><time>2026-04-04T08:23:17.941Z</time></trkpt><trkpt lat="45.66923" lon="7.986095"><ele>901.0</ele><time>2026-04-04T08:23:18.941Z</time></trkpt><trkpt lat="45.6693333" lon="7.9859783"><ele>901.0</ele><time>2026-04-04T08:23:19.941Z</time></trkpt><trkpt lat="45.6694217" lon="7.9858633"><ele>900.25</ele><time>2026-04-04T08:23:20.941Z</time></trkpt><trkpt lat="45.66951" lon="7.98574"><ele>899.5</ele><time>2026-04-04T08:23:21.941Z</time></trkpt><trkpt lat="45.6695917" lon="7.9856167"><ele>898.75</ele><time>2026-04-04T08:23:22.941Z</time></trkpt><trkpt lat="45.6696733" lon="7.985515"><ele>898.0</ele><time>2026-04-04T08:23:23.941Z</time></trkpt><trkpt lat="45.669765" lon="7.9854567"><ele>898.0</ele><time>2026-04-04T08:23:24.941Z</time></trkpt><trkpt lat="45.6698583" lon="7.9854"><ele>898.0</ele><time>2026-04-04T08:23:25.941Z</time></trkpt><trkpt lat="45.6699433" lon="7.985305"><ele>898.0</ele><time>2026-04-04T08:23:26.941Z</time></trkpt><trkpt lat="45.670025" lon="7.985175"><ele>898.0</ele><time>2026-04-04T08:23:27.941Z</time></trkpt><trkpt lat="45.6701117" lon="7.985005"><ele>894.6666666666666</ele><time>2026-04-04T08:23:28.941Z</time></trkpt><trkpt lat="45.6702167" lon="7.9848433"><ele>891.3333333333333</ele><time>2026-04-04T08:23:29.941Z</time></trkpt><trkpt lat="45.6703333" lon="7.9846967"><ele>888.0</ele><time>2026-04-04T08:23:30.941Z</time></trkpt><trkpt lat="45.6704633" lon="7.9845633"><ele>888.0</ele><time>2026-04-04T08:23:31.941Z</time></trkpt><trkpt lat="45.6705783" lon="7.9844183"><ele>888.0</ele><time>2026-04-04T08:23:32.941Z</time></trkpt><trkpt lat="45.6706817" lon="7.98426"><ele>888.0</ele><time>2026-04-04T08:23:33.941Z</time></trkpt><trkpt lat="45.67078" lon="7.9841133"><ele>888.0</ele><time>2026-04-04T08:23:34.941Z</time></trkpt><trkpt lat="45.670865" lon="7.9839633"><ele>894.0</ele><time>2026-04-04T08:23:35.94Z</time></trkpt><trkpt lat="45.6709483" lon="7.9838167"><ele>900.0</ele><time>2026-04-04T08:23:36.941Z</time></trkpt><trkpt lat="45.67103" lon="7.9836767"><ele>906.0</ele><time>2026-04-04T08:23:37.94Z</time></trkpt><trkpt lat="45.67111" lon="7.9835417"><ele>912.0</ele><time>2026-04-04T08:23:38.94Z</time></trkpt><trkpt lat="45.6711833" lon="7.9834167"><ele>904.2</ele><time>2026-04-04T08:23:39.941Z</time></trkpt><trkpt lat="45.6712483" lon="7.9832833"><ele>896.4000000000001</ele><time>2026-04-04T08:23:40.941Z</time></trkpt><trkpt lat="45.6713183" lon="7.98317"><ele>888.5999999999999</ele><time>2026-04-04T08:23:41.94Z</time></trkpt><trkpt lat="45.6713767" lon="7.983065"><ele>880.8</ele><time>2026-04-04T08:23:42.941Z</time></trkpt><trkpt lat="45.6714217" lon="7.9829567"><ele>873.0</ele><time>2026-04-04T08:23:43.94Z</time></trkpt><trkpt lat="45.671445" lon="7.9828517"><ele>873.0</ele><time>2026-04-04T08:23:44.941Z</time></trkpt><trkpt lat="45.6714433" lon="7.9827467"><ele>873.0</ele><time>2026-04-04T08:23:45.941Z</time></trkpt><trkpt lat="45.6714467" lon="7.98264"><ele>873.0</ele><time>2026-04-04T08:23:46.941Z</time></trkpt><trkpt lat="45.6714533" lon="7.98254"><ele>873.0</ele><time>2026-04-04T08:23:47.941Z</time></trkpt><trkpt lat="45.6714817" lon="7.9824517"><ele>873.0</ele><time>2026-04-04T08:23:48.941Z</time></trkpt><trkpt lat="45.6715367" lon="7.9823517"><ele>873.0</ele><time>2026-04-04T08:23:49.941Z</time></trkpt><trkpt lat="45.6716133" lon="7.98227"><ele>869.75</ele><time>2026-04-04T08:23:50.941Z</time></trkpt><trkpt lat="45.671705" lon="7.9821817"><ele>866.5</ele><time>2026-04-04T08:23:51.941Z</time></trkpt><trkpt lat="45.671825" lon="7.9820817"><ele>863.25</ele><time>2026-04-04T08:23:52.941Z</time></trkpt><trkpt lat="45.6719433" lon="7.9819717"><ele>860.0</ele><time>2026-04-04T08:23:53.941Z</time></trkpt><trkpt lat="45.6720633" lon="7.9818467"><ele>860.0</ele><time>2026-04-04T08:23:54.94Z</time></trkpt><trkpt lat="45.6721933" lon="7.9817467"><ele>860.0</ele><time>2026-04-04T08:23:55.941Z</time></trkpt><trkpt lat="45.6723267" lon="7.9816583"><ele>860.0</ele><time>2026-04-04T08:23:56.941Z</time></trkpt><trkpt lat="45.67245" lon="7.9815717"><ele>860.0</ele><time>2026-04-04T08:23:57.941Z</time></trkpt><trkpt lat="45.672565" lon="7.9814917"><ele>863.5</ele><time>2026-04-04T08:23:58.941Z</time></trkpt><trkpt lat="45.6726817" lon="7.9814067"><ele>867.0</ele><time>2026-04-04T08:23:59.941Z</time></trkpt><trkpt lat="45.6727983" lon="7.981345"><ele>870.5</ele><time>2026-04-04T08:24:00.941Z</time></trkpt><trkpt lat="45.672925" lon="7.9813033"><ele>874.0</ele><time>2026-04-04T08:24:01.941Z</time></trkpt><trkpt lat="45.6730583" lon="7.9812683"><ele>874.0</ele><time>2026-04-04T08:24:02.941Z</time></trkpt><trkpt lat="45.67318" lon="7.9812683"><ele>874.0</ele><time>2026-04-04T08:24:03.941Z</time></trkpt><trkpt lat="45.673305" lon="7.981285"><ele>874.0</ele><time>2026-04-04T08:24:04.94Z</time></trkpt><trkpt lat="45.6734383" lon="7.981305"><ele>874.0</ele><time>2026-04-04T08:24:05.94Z</time></trkpt><trkpt lat="45.6735567" lon="7.9813367"><ele>875.75</ele><time>2026-04-04T08:24:06.94Z</time></trkpt><trkpt lat="45.6736717" lon="7.9813733"><ele>877.5</ele><time>2026-04-04T08:24:07.94Z</time></trkpt><trkpt lat="45.6737767" lon="7.981425"><ele>879.25</ele><time>2026-04-04T08:24:08.94Z</time></trkpt><trkpt lat="45.6738733" lon="7.981495"><ele>881.0</ele><time>2026-04-04T08:24:09.94Z</time></trkpt><trkpt lat="45.6739733" lon="7.9815733"><ele>881.0</ele><time>2026-04-04T08:24:10.94Z</time></trkpt><trkpt lat="45.674065" lon="7.9816683"><ele>880.9999999999999</ele><time>2026-04-04T08:24:11.94Z</time></trkpt><trkpt lat="45.67414" lon="7.9817583"><ele>880.9999999999999</ele><time>2026-04-04T08:24:12.94Z</time></trkpt><trkpt lat="45.6741983" lon="7.9818333"><ele>881.0</ele><time>2026-04-04T08:24:13.94Z</time></trkpt><trkpt lat="45.6742483" lon="7.9819033"><ele>881.0</ele><time>2026-04-04T08:24:14.94Z</time></trkpt><trkpt lat="45.6743283" lon="7.9820167"><ele>879.0000000000001</ele><time>2026-04-04T08:24:16.94Z</time></trkpt><trkpt lat="45.6743717" lon="7.98212"><ele>877.0</ele><time>2026-04-04T08:24:19.94Z</time></trkpt><trkpt lat="45.674345" lon="7.9822267"><ele>875.0</ele><time>2026-04-04T08:24:21.94Z</time></trkpt><trkpt lat="45.6743" lon="7.9823033"><ele>873.0</ele><time>2026-04-04T08:24:22.94Z</time></trkpt><trkpt lat="45.67424" lon="7.98241"><ele>871.0000000000001</ele><time>2026-04-04T08:24:23.939Z</time></trkpt><trkpt lat="45.6741633" lon="7.9825367"><ele>869.0</ele><time>2026-04-04T08:24:24.94Z</time></trkpt><trkpt lat="45.674075" lon="7.982645"><ele>870.25</ele><time>2026-04-04T08:24:25.94Z</time></trkpt><trkpt lat="45.67397" lon="7.9827117"><ele>871.5</ele><time>2026-04-04T08:24:26.94Z</time></trkpt><trkpt lat="45.6738367" lon="7.9827667"><ele>872.75</ele><time>2026-04-04T08:24:27.94Z</time></trkpt><trkpt lat="45.6736933" lon="7.98281"><ele>874.0</ele><time>2026-04-04T08:24:28.94Z</time></trkpt><trkpt lat="45.6735683" lon="7.98287"><ele>874.0</ele><time>2026-04-04T08:24:29.94Z</time></trkpt><trkpt lat="45.6734383" lon="7.98293"><ele>874.0</ele><time>2026-04-04T08:24:30.94Z</time></trkpt><trkpt lat="45.6733067" lon="7.98304"><ele>874.0</ele><time>2026-04-04T08:24:31.94Z</time></trkpt><trkpt lat="45.6731983" lon="7.9831683"><ele>874.0</ele><time>2026-04-04T08:24:32.94Z</time></trkpt><trkpt lat="45.6731017" lon="7.9832933"><ele>877.0</ele><time>2026-04-04T08:24:33.94Z</time></trkpt><trkpt lat="45.67306" lon="7.9834267"><ele>880.0</ele><time>2026-04-04T08:24:34.94Z</time></trkpt><trkpt lat="45.673015" lon="7.98356"><ele>883.0</ele><time>2026-04-04T08:24:35.94Z</time></trkpt><trkpt lat="45.672975" lon="7.9837283"><ele>886.0</ele><time>2026-04-04T08:24:36.94Z</time></trkpt><trkpt lat="45.672945" lon="7.9839167"><ele>886.0</ele><time>2026-04-04T08:24:37.94Z</time></trkpt><trkpt lat="45.67292" lon="7.9841067"><ele>886.0</ele><time>2026-04-04T08:24:38.94Z</time></trkpt><trkpt lat="45.6728833" lon="7.9842933"><ele>886.0</ele><time>2026-04-04T08:24:39.94Z</time></trkpt><trkpt lat="45.672845" lon="7.9844567"><ele>886.0</ele><time>2026-04-04T08:24:40.94Z</time></trkpt><trkpt lat="45.6728033" lon="7.984625"><ele>877.75</ele><time>2026-04-04T08:24:41.94Z</time></trkpt><trkpt lat="45.672765" lon="7.9847717"><ele>869.5</ele><time>2026-04-04T08:24:42.94Z</time></trkpt><trkpt lat="45.672735" lon="7.9849133"><ele>861.25</ele><time>2026-04-04T08:24:43.94Z</time></trkpt><trkpt lat="45.67271" lon="7.98506"><ele>853.0</ele><time>2026-04-04T08:24:44.94Z</time></trkpt><trkpt lat="45.6726717" lon="7.9853917"><ele>853.0</ele><time>2026-04-04T08:24:46.94Z</time></trkpt><trkpt lat="45.6726733" lon="7.9855617"><ele>853.0</ele><time>2026-04-04T08:24:47.94Z</time></trkpt><trkpt lat="45.6726767" lon="7.9857083"><ele>853.0</ele><time>2026-04-04T08:24:48.94Z</time></trkpt><trkpt lat="45.672685" lon="7.9858333"><ele>853.0</ele><time>2026-04-04T08:24:49.94Z</time></trkpt><trkpt lat="45.6726767" lon="7.985975"><ele>853.0</ele><time>2026-04-04T08:24:50.94Z</time></trkpt><trkpt lat="45.6726517" lon="7.9861133"><ele>854.2</ele><time>2026-04-04T08:24:51.94Z</time></trkpt><trkpt lat="45.6726083" lon="7.9862417"><ele>855.4</ele><time>2026-04-04T08:24:52.94Z</time></trkpt><trkpt lat="45.67257" lon="7.986375"><ele>856.6000000000001</ele><time>2026-04-04T08:24:53.94Z</time></trkpt><trkpt lat="45.67254" lon="7.9865183"><ele>857.8000000000001</ele><time>2026-04-04T08:24:54.94Z</time></trkpt><trkpt lat="45.6725083" lon="7.9866883"><ele>859.0</ele><time>2026-04-04T08:24:55.939Z</time></trkpt><trkpt lat="45.672465" lon="7.986845"><ele>861.4000000000001</ele><time>2026-04-04T08:24:56.94Z</time></trkpt><trkpt lat="45.6724083" lon="7.9869783"><ele>863.8000000000001</ele><time>2026-04-04T08:24:57.94Z</time></trkpt><trkpt lat="45.6723417" lon="7.9870917"><ele>866.1999999999999</ele><time>2026-04-04T08:24:58.94Z</time></trkpt><trkpt lat="45.6722633" lon="7.9872"><ele>868.5999999999999</ele><time>2026-04-04T08:24:59.94Z</time></trkpt><trkpt lat="45.6721883" lon="7.9873217"><ele>871.0</ele><time>2026-04-04T08:25:00.94Z</time></trkpt><trkpt lat="45.6721183" lon="7.9874567"><ele>874.75</ele><time>2026-04-04T08:25:01.94Z</time></trkpt><trkpt lat="45.672035" lon="7.9876"><ele>878.5</ele><time>2026-04-04T08:25:02.939Z</time></trkpt><trkpt lat="45.6719467" lon="7.98775"><ele>882.25</ele><time>2026-04-04T08:25:03.94Z</time></trkpt><trkpt lat="45.6718417" lon="7.9878983"><ele>886.0</ele><time>2026-04-04T08:25:04.939Z</time></trkpt><trkpt lat="45.671735" lon="7.988055"><ele>884.5</ele><time>2026-04-04T08:25:05.94Z</time></trkpt><trkpt lat="45.671625" lon="7.9882117"><ele>883.0</ele><time>2026-04-04T08:25:06.94Z</time></trkpt><trkpt lat="45.6715033" lon="7.9883433"><ele>881.5</ele><time>2026-04-04T08:25:07.94Z</time></trkpt><trkpt lat="45.6713967" lon="7.98847"><ele>880.0</ele><time>2026-04-04T08:25:08.94Z</time></trkpt><trkpt lat="45.6712817" lon="7.9886117"><ele>880.0</ele><time>2026-04-04T08:25:09.94Z</time></trkpt><trkpt lat="45.6711417" lon="7.988755"><ele>880.0</ele><time>2026-04-04T08:25:10.94Z</time></trkpt><trkpt lat="45.6710067" lon="7.9889183"><ele>880.0</ele><time>2026-04-04T08:25:11.94Z</time></trkpt><trkpt lat="45.670885" lon="7.9891083"><ele>876.0</ele><time>2026-04-04T08:25:12.94Z</time></trkpt><trkpt lat="45.670755" lon="7.9893083"><ele>872.0</ele><time>2026-04-04T08:25:13.94Z</time></trkpt><trkpt lat="45.6706233" lon="7.9895083"><ele>868.0</ele><time>2026-04-04T08:25:14.94Z</time></trkpt><trkpt lat="45.6704867" lon="7.9897067"><ele>868.0</ele><time>2026-04-04T08:25:15.94Z</time></trkpt><trkpt lat="45.6703417" lon="7.98989"><ele>868.0</ele><time>2026-04-04T08:25:16.94Z</time></trkpt><trkpt lat="45.6702017" lon="7.990075"><ele>868.0</ele><time>2026-04-04T08:25:17.94Z</time></trkpt><trkpt lat="45.67006" lon="7.9902433"><ele>861.3333333333333</ele><time>2026-04-04T08:25:18.94Z</time></trkpt><trkpt lat="45.6699117" lon="7.99043"><ele>854.6666666666667</ele><time>2026-04-04T08:25:19.94Z</time></trkpt><trkpt lat="45.669735" lon="7.9906083"><ele>848.0</ele><time>2026-04-04T08:25:20.94Z</time></trkpt><trkpt lat="45.669565" lon="7.9908"><ele>853.0</ele><time>2026-04-04T08:25:21.94Z</time></trkpt><trkpt lat="45.6693933" lon="7.9909867"><ele>858.0</ele><time>2026-04-04T08:25:22.939Z</time></trkpt><trkpt lat="45.6692017" lon="7.9911633"><ele>863.0</ele><time>2026-04-04T08:25:23.94Z</time></trkpt><trkpt lat="45.6690217" lon="7.9913533"><ele>863.0</ele><time>2026-04-04T08:25:24.94Z</time></trkpt><trkpt lat="45.668845" lon="7.991515"><ele>863.0</ele><time>2026-04-04T08:25:25.94Z</time></trkpt><trkpt lat="45.66867" lon="7.991675"><ele>863.0</ele><time>2026-04-04T08:25:26.94Z</time></trkpt><trkpt lat="45.6685117" lon="7.9918283"><ele>862.6666666666667</ele><time>2026-04-04T08:25:27.94Z</time></trkpt><trkpt lat="45.66834" lon="7.9919317"><ele>862.3333333333333</ele><time>2026-04-04T08:25:28.94Z</time></trkpt><trkpt lat="45.6681633" lon="7.9920217"><ele>862.0</ele><time>2026-04-04T08:25:29.94Z</time></trkpt><trkpt lat="45.6679967" lon="7.9920717"><ele>862.0</ele><time>2026-04-04T08:25:30.94Z</time></trkpt><trkpt lat="45.6678367" lon="7.9921383"><ele>862.0</ele><time>2026-04-04T08:25:31.94Z</time></trkpt><trkpt lat="45.6676917" lon="7.9922433"><ele>862.0</ele><time>2026-04-04T08:25:32.94Z</time></trkpt><trkpt lat="45.66754" lon="7.9923833"><ele>855.6666666666666</ele><time>2026-04-04T08:25:33.94Z</time></trkpt><trkpt lat="45.66738" lon="7.9925367"><ele>849.3333333333333</ele><time>2026-04-04T08:25:34.94Z</time></trkpt><trkpt lat="45.6672233" lon="7.9926983"><ele>843.0</ele><time>2026-04-04T08:25:35.94Z</time></trkpt><trkpt lat="45.6670733" lon="7.9928817"><ele>839.6666666666667</ele><time>2026-04-04T08:25:36.94Z</time></trkpt><trkpt lat="45.6669267" lon="7.993065"><ele>836.3333333333334</ele><time>2026-04-04T08:25:37.939Z</time></trkpt><trkpt lat="45.6667767" lon="7.99323"><ele>833.0</ele><time>2026-04-04T08:25:38.94Z</time></trkpt><trkpt lat="45.6666283" lon="7.99339"><ele>833.0</ele><time>2026-04-04T08:25:39.94Z</time></trkpt><trkpt lat="45.6664783" lon="7.993545"><ele>833.0</ele><time>2026-04-04T08:25:40.94Z</time></trkpt><trkpt lat="45.666335" lon="7.9937"><ele>833.0</ele><time>2026-04-04T08:25:41.94Z</time></trkpt><trkpt lat="45.666195" lon="7.99388"><ele>828.3333333333334</ele><time>2026-04-04T08:25:42.94Z</time></trkpt><trkpt lat="45.66606" lon="7.9940717"><ele>823.6666666666667</ele><time>2026-04-04T08:25:43.94Z</time></trkpt><trkpt lat="45.6659383" lon="7.9942583"><ele>819.0</ele><time>2026-04-04T08:25:44.94Z</time></trkpt><trkpt lat="45.6658167" lon="7.9944833"><ele>819.0</ele><time>2026-04-04T08:25:45.94Z</time></trkpt><trkpt lat="45.6657067" lon="7.9947217"><ele>819.0</ele><time>2026-04-04T08:25:46.94Z</time></trkpt><trkpt lat="45.665615" lon="7.994955"><ele>819.0</ele><time>2026-04-04T08:25:47.939Z</time></trkpt><trkpt lat="45.665525" lon="7.995195"><ele>819.6666666666667</ele><time>2026-04-04T08:25:48.94Z</time></trkpt><trkpt lat="45.66544" lon="7.99543"><ele>820.3333333333334</ele><time>2026-04-04T08:25:49.939Z</time></trkpt><trkpt lat="45.6653483" lon="7.9956467"><ele>821.0</ele><time>2026-04-04T08:25:50.94Z</time></trkpt><trkpt lat="45.6652633" lon="7.9958383"><ele>821.0</ele><time>2026-04-04T08:25:51.94Z</time></trkpt><trkpt lat="45.6651683" lon="7.99601"><ele>821.0</ele><time>2026-04-04T08:25:52.94Z</time></trkpt><trkpt lat="45.6650667" lon="7.9961567"><ele>821.0</ele><time>2026-04-04T08:25:53.94Z</time></trkpt><trkpt lat="45.664945" lon="7.9962883"><ele>821.0</ele><time>2026-04-04T08:25:54.94Z</time></trkpt><trkpt lat="45.6648033" lon="7.9964233"><ele>821.0</ele><time>2026-04-04T08:25:55.94Z</time></trkpt><trkpt lat="45.664685" lon="7.9965633"><ele>821.0</ele><time>2026-04-04T08:25:56.94Z</time></trkpt><trkpt lat="45.6645517" lon="7.9966883"><ele>818.25</ele><time>2026-04-04T08:25:57.94Z</time></trkpt><trkpt lat="45.6644217" lon="7.9968133"><ele>815.5</ele><time>2026-04-04T08:25:58.94Z</time></trkpt><trkpt lat="45.6643067" lon="7.9969417"><ele>812.75</ele><time>2026-04-04T08:25:59.94Z</time></trkpt><trkpt lat="45.6642033" lon="7.997035"><ele>810.0</ele><time>2026-04-04T08:26:00.94Z</time></trkpt><trkpt lat="45.66408" lon="7.997105"><ele>810.0</ele><time>2026-04-04T08:26:01.94Z</time></trkpt><trkpt lat="45.66394" lon="7.9971583"><ele>810.0</ele><time>2026-04-04T08:26:02.94Z</time></trkpt><trkpt lat="45.6638317" lon="7.9972083"><ele>810.0</ele><time>2026-04-04T08:26:03.94Z</time></trkpt><trkpt lat="45.6637517" lon="7.997275"><ele>810.0</ele><time>2026-04-04T08:26:04.94Z</time></trkpt><trkpt lat="45.6636833" lon="7.9973583"><ele>810.0</ele><time>2026-04-04T08:26:05.94Z</time></trkpt><trkpt lat="45.66363" lon="7.9974583"><ele>806.2</ele><time>2026-04-04T08:26:06.94Z</time></trkpt><trkpt lat="45.66357" lon="7.99756"><ele>802.4</ele><time>2026-04-04T08:26:07.939Z</time></trkpt><trkpt lat="45.6635367" lon="7.99769"><ele>798.5999999999999</ele><time>2026-04-04T08:26:08.94Z</time></trkpt><trkpt lat="45.6634817" lon="7.9978033"><ele>794.8</ele><time>2026-04-04T08:26:09.94Z</time></trkpt><trkpt lat="45.6634283" lon="7.9979317"><ele>791.0</ele><time>2026-04-04T08:26:10.94Z</time></trkpt><trkpt lat="45.6633717" lon="7.998065"><ele>791.0</ele><time>2026-04-04T08:26:11.94Z</time></trkpt><trkpt lat="45.6633217" lon="7.9981817"><ele>791.0</ele><time>2026-04-04T08:26:12.94Z</time></trkpt><trkpt lat="45.663265" lon="7.9982967"><ele>791.0</ele><time>2026-04-04T08:26:13.94Z</time></trkpt><trkpt lat="45.6632517" lon="7.9984267"><ele>791.0</ele><time>2026-04-04T08:26:14.94Z</time></trkpt><trkpt lat="45.66324" lon="7.9985517"><ele>791.0</ele><time>2026-04-04T08:26:15.94Z</time></trkpt><trkpt lat="45.6632433" lon="7.998685"><ele>792.0</ele><time>2026-04-04T08:26:16.94Z</time></trkpt><trkpt lat="45.6632567" lon="7.99883"><ele>793.0</ele><time>2026-04-04T08:26:17.94Z</time></trkpt><trkpt lat="45.6632767" lon="7.9989833"><ele>794.0</ele><time>2026-04-04T08:26:18.94Z</time></trkpt><trkpt lat="45.6633033" lon="7.999125"><ele>795.0</ele><time>2026-04-04T08:26:19.94Z</time></trkpt><trkpt lat="45.6633067" lon="7.9992583"><ele>796.0</ele><time>2026-04-04T08:26:20.94Z</time></trkpt><trkpt lat="45.66329" lon="7.9994067"><ele>799.0</ele><time>2026-04-04T08:26:21.939Z</time></trkpt><trkpt lat="45.6632667" lon="7.99957"><ele>802.0</ele><time>2026-04-04T08:26:22.94Z</time></trkpt><trkpt lat="45.6632417" lon="7.999725"><ele>805.0</ele><time>2026-04-04T08:26:23.94Z</time></trkpt><trkpt lat="45.663205" lon="7.9998817"><ele>808.0</ele><time>2026-04-04T08:26:24.94Z</time></trkpt><trkpt lat="45.6631667" lon="8.0000283"><ele>808.0</ele><time>2026-04-04T08:26:25.94Z</time></trkpt><trkpt lat="45.6631317" lon="8.0001583"><ele>808.0</ele><time>2026-04-04T08:26:26.94Z</time></trkpt><trkpt lat="45.6631" lon="8.0003017"><ele>808.0</ele><time>2026-04-04T08:26:27.94Z</time></trkpt><trkpt lat="45.663055" lon="8.0004433"><ele>808.0</ele><time>2026-04-04T08:26:28.94Z</time></trkpt><trkpt lat="45.66301" lon="8.000575"><ele>808.0</ele><time>2026-04-04T08:26:29.94Z</time></trkpt><trkpt lat="45.6629633" lon="8.0007133"><ele>811.4</ele><time>2026-04-04T08:26:30.94Z</time></trkpt><trkpt lat="45.6629133" lon="8.000845"><ele>814.8</ele><time>2026-04-04T08:26:31.94Z</time></trkpt><trkpt lat="45.66286" lon="8.0009767"><ele>818.2</ele><time>2026-04-04T08:26:32.94Z</time></trkpt><trkpt lat="45.6628" lon="8.00111"><ele>821.6</ele><time>2026-04-04T08:26:33.94Z</time></trkpt><trkpt lat="45.662735" lon="8.0012383"><ele>825.0</ele><time>2026-04-04T08:26:34.94Z</time></trkpt><trkpt lat="45.66265" lon="8.0013517"><ele>818.5</ele><time>2026-04-04T08:26:35.94Z</time></trkpt><trkpt lat="45.6625683" lon="8.0014783"><ele>812.0</ele><time>2026-04-04T08:26:36.94Z</time></trkpt><trkpt lat="45.6624883" lon="8.001615"><ele>805.5</ele><time>2026-04-04T08:26:37.94Z</time></trkpt><trkpt lat="45.662405" lon="8.0017583"><ele>799.0</ele><time>2026-04-04T08:26:38.94Z</time></trkpt><trkpt lat="45.6623217" lon="8.0018567"><ele>799.0</ele><time>2026-04-04T08:26:39.94Z</time></trkpt><trkpt lat="45.6622217" lon="8.00192"><ele>799.0</ele><time>2026-04-04T08:26:40.94Z</time></trkpt><trkpt lat="45.662125" lon="8.0019817"><ele>799.0</ele><time>2026-04-04T08:26:41.94Z</time></trkpt><trkpt lat="45.662025" lon="8.00206"><ele>799.0</ele><time>2026-04-04T08:26:42.94Z</time></trkpt><trkpt lat="45.6619367" lon="8.0021517"><ele>799.0</ele><time>2026-04-04T08:26:43.939Z</time></trkpt><trkpt lat="45.6618633" lon="8.0022733"><ele>795.75</ele><time>2026-04-04T08:26:44.94Z</time></trkpt><trkpt lat="45.661785" lon="8.0024017"><ele>792.5</ele><time>2026-04-04T08:26:45.94Z</time></trkpt><trkpt lat="45.6617233" lon="8.0025417"><ele>789.25</ele><time>2026-04-04T08:26:46.94Z</time></trkpt><trkpt lat="45.661655" lon="8.002665"><ele>786.0</ele><time>2026-04-04T08:26:47.94Z</time></trkpt><trkpt lat="45.6615917" lon="8.0027867"><ele>786.0</ele><time>2026-04-04T08:26:48.94Z</time></trkpt><trkpt lat="45.6615333" lon="8.0028833"><ele>786.0</ele><time>2026-04-04T08:26:49.94Z</time></trkpt><trkpt lat="45.6614583" lon="8.0029533"><ele>786.0</ele><time>2026-04-04T08:26:50.94Z</time></trkpt><trkpt lat="45.661345" lon="8.0030183"><ele>786.0</ele><time>2026-04-04T08:26:51.94Z</time></trkpt><trkpt lat="45.6612233" lon="8.0030983"><ele>786.0</ele><time>2026-04-04T08:26:52.94Z</time></trkpt><trkpt lat="45.6611033" lon="8.0032"><ele>781.6666666666667</ele><time>2026-04-04T08:26:53.94Z</time></trkpt><trkpt lat="45.660995" lon="8.0033233"><ele>777.3333333333334</ele><time>2026-04-04T08:26:54.94Z</time></trkpt><trkpt lat="45.66089" lon="8.0034917"><ele>773.0</ele><time>2026-04-04T08:26:55.94Z</time></trkpt><trkpt lat="45.6607883" lon="8.003685"><ele>773.0</ele><time>2026-04-04T08:26:56.939Z</time></trkpt><trkpt lat="45.6606917" lon="8.0039033"><ele>773.0</ele><time>2026-04-04T08:26:57.94Z</time></trkpt><trkpt lat="45.660565" lon="8.0041233"><ele>773.0</ele><time>2026-04-04T08:26:58.94Z</time></trkpt><trkpt lat="45.6604417" lon="8.0043583"><ele>769.0</ele><time>2026-04-04T08:26:59.94Z</time></trkpt><trkpt lat="45.6603217" lon="8.0045833"><ele>765.0</ele><time>2026-04-04T08:27:00.94Z</time></trkpt><trkpt lat="45.6602017" lon="8.0047867"><ele>761.0</ele><time>2026-04-04T08:27:01.94Z</time></trkpt><trkpt lat="45.660085" lon="8.00497"><ele>765.0</ele><time>2026-04-04T08:27:02.94Z</time></trkpt><trkpt lat="45.6599817" lon="8.0051783"><ele>769.0</ele><time>2026-04-04T08:27:03.94Z</time></trkpt><trkpt lat="45.6598717" lon="8.005355"><ele>773.0</ele><time>2026-04-04T08:27:04.94Z</time></trkpt><trkpt lat="45.6597533" lon="8.00552"><ele>773.0</ele><time>2026-04-04T08:27:05.939Z</time></trkpt><trkpt lat="45.65964" lon="8.0056867"><ele>773.0</ele><time>2026-04-04T08:27:06.94Z</time></trkpt><trkpt lat="45.65953" lon="8.00584"><ele>773.0</ele><time>2026-04-04T08:27:07.94Z</time></trkpt><trkpt lat="45.6594233" lon="8.0059883"><ele>767.6666666666667</ele><time>2026-04-04T08:27:08.94Z</time></trkpt><trkpt lat="45.659295" lon="8.0061317"><ele>762.3333333333334</ele><time>2026-04-04T08:27:09.94Z</time></trkpt><trkpt lat="45.6591433" lon="8.0062283"><ele>757.0</ele><time>2026-04-04T08:27:10.94Z</time></trkpt><trkpt lat="45.658985" lon="8.00634"><ele>757.0</ele><time>2026-04-04T08:27:11.94Z</time></trkpt><trkpt lat="45.6588133" lon="8.006455"><ele>757.0</ele><time>2026-04-04T08:27:12.94Z</time></trkpt><trkpt lat="45.658635" lon="8.0065867"><ele>757.0</ele><time>2026-04-04T08:27:13.94Z</time></trkpt><trkpt lat="45.6584367" lon="8.0067217"><ele>757.3333333333334</ele><time>2026-04-04T08:27:14.94Z</time></trkpt><trkpt lat="45.6582333" lon="8.0068433"><ele>757.6666666666666</ele><time>2026-04-04T08:27:15.94Z</time></trkpt><trkpt lat="45.65802" lon="8.006925"><ele>758.0</ele><time>2026-04-04T08:27:16.94Z</time></trkpt><trkpt lat="45.657835" lon="8.0070217"><ele>756.25</ele><time>2026-04-04T08:27:17.94Z</time></trkpt><trkpt lat="45.65768" lon="8.0070867"><ele>754.5</ele><time>2026-04-04T08:27:18.94Z</time></trkpt><trkpt lat="45.6575533" lon="8.0071617"><ele>752.75</ele><time>2026-04-04T08:27:19.94Z</time></trkpt><trkpt lat="45.6574383" lon="8.0072117"><ele>751.0</ele><time>2026-04-04T08:27:20.94Z</time></trkpt><trkpt lat="45.65734" lon="8.00725"><ele>751.0</ele><time>2026-04-04T08:27:21.94Z</time></trkpt><trkpt lat="45.657255" lon="8.0072967"><ele>751.0</ele><time>2026-04-04T08:27:22.94Z</time></trkpt><trkpt lat="45.6571817" lon="8.007335"><ele>751.0</ele><time>2026-04-04T08:27:23.94Z</time></trkpt><trkpt lat="45.6570883" lon="8.0073817"><ele>751.0</ele><time>2026-04-04T08:27:25.94Z</time></trkpt><trkpt lat="45.6570283" lon="8.007305"><ele>751.0</ele><time>2026-04-04T08:27:28.94Z</time></trkpt><trkpt lat="45.6570117" lon="8.0072083"><ele>751.0</ele><time>2026-04-04T08:27:29.94Z</time></trkpt><trkpt lat="45.6569867" lon="8.0071083"><ele>751.0</ele><time>2026-04-04T08:27:30.94Z</time></trkpt><trkpt lat="45.6569633" lon="8.0070183"><ele>751.0</ele><time>2026-04-04T08:27:31.94Z</time></trkpt><trkpt lat="45.656915" lon="8.00687"><ele>751.0</ele><time>2026-04-04T08:27:33.94Z</time></trkpt><trkpt lat="45.656875" lon="8.0067733"><ele>751.0</ele><time>2026-04-04T08:27:35.94Z</time></trkpt><trkpt lat="45.6568633" lon="8.0066717"><ele>751.0</ele><time>2026-04-04T08:27:38.94Z</time></trkpt><trkpt lat="45.65688" lon="8.0067983"><ele>751.0</ele><time>2026-04-04T08:27:46.94Z</time></trkpt><trkpt lat="45.6569183" lon="8.0068967"><ele>751.0</ele><time>2026-04-04T08:27:47.94Z</time></trkpt><trkpt lat="45.6569583" lon="8.0070167"><ele>751.0</ele><time>2026-04-04T08:27:48.94Z</time></trkpt><trkpt lat="45.6569967" lon="8.0071333"><ele>751.0</ele><time>2026-04-04T08:27:49.94Z</time></trkpt><trkpt lat="45.6570317" lon="8.0072417"><ele>751.0</ele><time>2026-04-04T08:27:50.94Z</time></trkpt><trkpt lat="45.6570567" lon="8.0073267"><ele>751.0</ele><time>2026-04-04T08:27:51.94Z</time></trkpt><trkpt lat="45.65708" lon="8.0074433"><ele>751.0</ele><time>2026-04-04T08:27:53.94Z</time></trkpt><trkpt lat="45.65706" lon="8.00754"><ele>750.0</ele><time>2026-04-04T08:27:55.94Z</time></trkpt><trkpt lat="45.6569667" lon="8.0076733"><ele>749.0</ele><time>2026-04-04T08:27:57.94Z</time></trkpt><trkpt lat="45.656865" lon="8.007745"><ele>748.0</ele><time>2026-04-04T08:27:58.94Z</time></trkpt><trkpt lat="45.6567517" lon="8.007835"><ele>747.0</ele><time>2026-04-04T08:27:59.939Z</time></trkpt><trkpt lat="45.6566417" lon="8.0079667"><ele>747.0</ele><time>2026-04-04T08:28:00.94Z</time></trkpt><trkpt lat="45.656525" lon="8.0081067"><ele>747.0</ele><time>2026-04-04T08:28:01.94Z</time></trkpt><trkpt lat="45.6563933" lon="8.0082483"><ele>747.0</ele><time>2026-04-04T08:28:02.94Z</time></trkpt><trkpt lat="45.6562667" lon="8.0084083"><ele>743.6666666666666</ele><time>2026-04-04T08:28:03.94Z</time></trkpt><trkpt lat="45.65615" lon="8.0085783"><ele>740.3333333333333</ele><time>2026-04-04T08:28:04.94Z</time></trkpt><trkpt lat="45.656025" lon="8.0087567"><ele>737.0</ele><time>2026-04-04T08:28:05.94Z</time></trkpt><trkpt lat="45.6558967" lon="8.0089283"><ele>737.0</ele><time>2026-04-04T08:28:06.94Z</time></trkpt><trkpt lat="45.655775" lon="8.0090867"><ele>737.0</ele><time>2026-04-04T08:28:07.94Z</time></trkpt><trkpt lat="45.6556583" lon="8.009245"><ele>737.0</ele><time>2026-04-04T08:28:08.94Z</time></trkpt><trkpt lat="45.6555333" lon="8.009405"><ele>735.6666666666666</ele><time>2026-04-04T08:28:09.94Z</time></trkpt><trkpt lat="45.6554283" lon="8.0096067"><ele>734.3333333333334</ele><time>2026-04-04T08:28:10.94Z</time></trkpt><trkpt lat="45.65532" lon="8.0098"><ele>733.0</ele><time>2026-04-04T08:28:11.94Z</time></trkpt><trkpt lat="45.655225" lon="8.010015"><ele>733.0</ele><time>2026-04-04T08:28:12.94Z</time></trkpt><trkpt lat="45.6551433" lon="8.0102083"><ele>733.0</ele><time>2026-04-04T08:28:13.94Z</time></trkpt><trkpt lat="45.6550633" lon="8.010385"><ele>733.0</ele><time>2026-04-04T08:28:14.94Z</time></trkpt><trkpt lat="45.6549967" lon="8.0105567"><ele>733.0</ele><time>2026-04-04T08:28:15.94Z</time></trkpt><trkpt lat="45.6549133" lon="8.0107183"><ele>735.25</ele><time>2026-04-04T08:28:16.939Z</time></trkpt><trkpt lat="45.6548367" lon="8.0108733"><ele>737.5</ele><time>2026-04-04T08:28:17.939Z</time></trkpt><trkpt lat="45.6547783" lon="8.011015"><ele>739.75</ele><time>2026-04-04T08:28:18.939Z</time></trkpt><trkpt lat="45.65473" lon="8.01116"><ele>742.0</ele><time>2026-04-04T08:28:19.939Z</time></trkpt><trkpt lat="45.6546867" lon="8.0112817"><ele>742.0</ele><time>2026-04-04T08:28:20.939Z</time></trkpt><trkpt lat="45.65466" lon="8.0114033"><ele>742.0</ele><time>2026-04-04T08:28:21.939Z</time></trkpt><trkpt lat="45.65463" lon="8.0115317"><ele>742.0</ele><time>2026-04-04T08:28:22.939Z</time></trkpt><trkpt lat="45.6546" lon="8.011665"><ele>742.0</ele><time>2026-04-04T08:28:23.939Z</time></trkpt><trkpt lat="45.65456" lon="8.0118"><ele>742.0</ele><time>2026-04-04T08:28:24.939Z</time></trkpt><trkpt lat="45.6545233" lon="8.0119167"><ele>739.0</ele><time>2026-04-04T08:28:25.939Z</time></trkpt><trkpt lat="45.6544583" lon="8.0120233"><ele>736.0</ele><time>2026-04-04T08:28:26.939Z</time></trkpt><trkpt lat="45.6543783" lon="8.0121333"><ele>733.0</ele><time>2026-04-04T08:28:27.939Z</time></trkpt><trkpt lat="45.6542567" lon="8.0122283"><ele>730.0</ele><time>2026-04-04T08:28:28.939Z</time></trkpt><trkpt lat="45.6541333" lon="8.0123033"><ele>730.0</ele><time>2026-04-04T08:28:29.939Z</time></trkpt><trkpt lat="45.6539967" lon="8.012345"><ele>730.0</ele><time>2026-04-04T08:28:30.939Z</time></trkpt><trkpt lat="45.6538567" lon="8.0123933"><ele>730.0</ele><time>2026-04-04T08:28:31.939Z</time></trkpt><trkpt lat="45.6536917" lon="8.0124117"><ele>730.0</ele><time>2026-04-04T08:28:32.939Z</time></trkpt><trkpt lat="45.6535383" lon="8.0124783"><ele>729.6666666666667</ele><time>2026-04-04T08:28:33.939Z</time></trkpt><trkpt lat="45.653395" lon="8.0126"><ele>729.3333333333334</ele><time>2026-04-04T08:28:34.939Z</time></trkpt><trkpt lat="45.653245" lon="8.01272"><ele>729.0</ele><time>2026-04-04T08:28:35.939Z</time></trkpt><trkpt lat="45.653085" lon="8.012835"><ele>729.0</ele><time>2026-04-04T08:28:36.939Z</time></trkpt><trkpt lat="45.6529483" lon="8.0129183"><ele>729.0</ele><time>2026-04-04T08:28:37.939Z</time></trkpt><trkpt lat="45.652805" lon="8.0129717"><ele>729.0</ele><time>2026-04-04T08:28:38.939Z</time></trkpt><trkpt lat="45.6526467" lon="8.0129667"><ele>726.3333333333334</ele><time>2026-04-04T08:28:39.939Z</time></trkpt><trkpt lat="45.652495" lon="8.0129283"><ele>723.6666666666667</ele><time>2026-04-04T08:28:40.939Z</time></trkpt><trkpt lat="45.6523317" lon="8.01287"><ele>721.0</ele><time>2026-04-04T08:28:41.938Z</time></trkpt><trkpt lat="45.6521717" lon="8.0128233"><ele>721.0</ele><time>2026-04-04T08:28:42.939Z</time></trkpt><trkpt lat="45.6520233" lon="8.012815"><ele>721.0</ele><time>2026-04-04T08:28:43.939Z</time></trkpt><trkpt lat="45.65186" lon="8.012845"><ele>721.0</ele><time>2026-04-04T08:28:44.939Z</time></trkpt><trkpt lat="45.651705" lon="8.0129083"><ele>720.25</ele><time>2026-04-04T08:28:45.939Z</time></trkpt><trkpt lat="45.6515733" lon="8.0129667"><ele>719.5</ele><time>2026-04-04T08:28:46.938Z</time></trkpt><trkpt lat="45.6514583" lon="8.0130217"><ele>718.75</ele><time>2026-04-04T08:28:47.939Z</time></trkpt><trkpt lat="45.651345" lon="8.0131017"><ele>718.0</ele><time>2026-04-04T08:28:48.939Z</time></trkpt><trkpt lat="45.65124" lon="8.0132133"><ele>715.5</ele><time>2026-04-04T08:28:49.939Z</time></trkpt><trkpt lat="45.65115" lon="8.01338"><ele>713.0</ele><time>2026-04-04T08:28:50.939Z</time></trkpt><trkpt lat="45.651075" lon="8.0135617"><ele>710.5</ele><time>2026-04-04T08:28:51.939Z</time></trkpt><trkpt lat="45.6510033" lon="8.0137217"><ele>708.0</ele><time>2026-04-04T08:28:52.939Z</time></trkpt><trkpt lat="45.6509217" lon="8.0138833"><ele>708.0</ele><time>2026-04-04T08:28:53.939Z</time></trkpt><trkpt lat="45.6508117" lon="8.0140367"><ele>708.0</ele><time>2026-04-04T08:28:54.939Z</time></trkpt><trkpt lat="45.650675" lon="8.014215"><ele>708.0</ele><time>2026-04-04T08:28:55.939Z</time></trkpt><trkpt lat="45.65053" lon="8.0144067"><ele>708.0</ele><time>2026-04-04T08:28:56.939Z</time></trkpt><trkpt lat="45.650395" lon="8.014595"><ele>708.0</ele><time>2026-04-04T08:28:57.939Z</time></trkpt><trkpt lat="45.6502633" lon="8.0147617"><ele>708.0</ele><time>2026-04-04T08:28:58.939Z</time></trkpt><trkpt lat="45.6501533" lon="8.01492"><ele>710.0</ele><time>2026-04-04T08:28:59.939Z</time></trkpt><trkpt lat="45.6500133" lon="8.0150333"><ele>712.0</ele><time>2026-04-04T08:29:00.939Z</time></trkpt><trkpt lat="45.6498883" lon="8.0151417"><ele>714.0</ele><time>2026-04-04T08:29:01.939Z</time></trkpt><trkpt lat="45.6497367" lon="8.0152483"><ele>714.0</ele><time>2026-04-04T08:29:02.939Z</time></trkpt><trkpt lat="45.6495683" lon="8.0153667"><ele>714.0</ele><time>2026-04-04T08:29:03.939Z</time></trkpt><trkpt lat="45.64937" lon="8.0154717"><ele>714.0</ele><time>2026-04-04T08:29:04.939Z</time></trkpt><trkpt lat="45.649185" lon="8.015595"><ele>713.6666666666666</ele><time>2026-04-04T08:29:05.939Z</time></trkpt><trkpt lat="45.6489883" lon="8.0156967"><ele>713.3333333333333</ele><time>2026-04-04T08:29:06.939Z</time></trkpt><trkpt lat="45.6488017" lon="8.01579"><ele>713.0</ele><time>2026-04-04T08:29:07.939Z</time></trkpt><trkpt lat="45.64863" lon="8.015875"><ele>709.0</ele><time>2026-04-04T08:29:08.939Z</time></trkpt><trkpt lat="45.64848" lon="8.0159683"><ele>705.0</ele><time>2026-04-04T08:29:09.939Z</time></trkpt><trkpt lat="45.6483467" lon="8.0160467"><ele>701.0</ele><time>2026-04-04T08:29:10.939Z</time></trkpt><trkpt lat="45.64823" lon="8.01612"><ele>697.0</ele><time>2026-04-04T08:29:11.939Z</time></trkpt><trkpt lat="45.6481183" lon="8.016215"><ele>697.0</ele><time>2026-04-04T08:29:12.939Z</time></trkpt><trkpt lat="45.6480267" lon="8.0163283"><ele>697.0</ele><time>2026-04-04T08:29:13.939Z</time></trkpt><trkpt lat="45.647955" lon="8.0164867"><ele>697.0</ele><time>2026-04-04T08:29:14.938Z</time></trkpt><trkpt lat="45.6479167" lon="8.0166633"><ele>697.0</ele><time>2026-04-04T08:29:15.939Z</time></trkpt><trkpt lat="45.6478767" lon="8.01683"><ele>693.75</ele><time>2026-04-04T08:29:16.939Z</time></trkpt><trkpt lat="45.6478183" lon="8.0169883"><ele>690.5</ele><time>2026-04-04T08:29:17.939Z</time></trkpt><trkpt lat="45.647745" lon="8.0171383"><ele>687.25</ele><time>2026-04-04T08:29:18.939Z</time></trkpt><trkpt lat="45.647655" lon="8.017295"><ele>684.0</ele><time>2026-04-04T08:29:19.939Z</time></trkpt><trkpt lat="45.6475383" lon="8.0174467"><ele>687.6666666666666</ele><time>2026-04-04T08:29:20.939Z</time></trkpt><trkpt lat="45.6473983" lon="8.0176017"><ele>691.3333333333333</ele><time>2026-04-04T08:29:21.939Z</time></trkpt><trkpt lat="45.6472783" lon="8.0177617"><ele>695.0</ele><time>2026-04-04T08:29:22.939Z</time></trkpt><trkpt lat="45.6471417" lon="8.0179217"><ele>695.0</ele><time>2026-04-04T08:29:23.939Z</time></trkpt><trkpt lat="45.64702" lon="8.0180583"><ele>695.0</ele><time>2026-04-04T08:29:24.939Z</time></trkpt><trkpt lat="45.6469083" lon="8.0182017"><ele>695.0</ele><time>2026-04-04T08:29:25.939Z</time></trkpt><trkpt lat="45.646805" lon="8.0183567"><ele>694.0</ele><time>2026-04-04T08:29:26.939Z</time></trkpt><trkpt lat="45.6466817" lon="8.0185317"><ele>693.0</ele><time>2026-04-04T08:29:27.939Z</time></trkpt><trkpt lat="45.646565" lon="8.0186983"><ele>692.0</ele><time>2026-04-04T08:29:28.939Z</time></trkpt><trkpt lat="45.64646" lon="8.0188533"><ele>692.0</ele><time>2026-04-04T08:29:29.939Z</time></trkpt><trkpt lat="45.6463467" lon="8.0189917"><ele>692.0</ele><time>2026-04-04T08:29:30.939Z</time></trkpt><trkpt lat="45.6462167" lon="8.019115"><ele>692.0</ele><time>2026-04-04T08:29:31.939Z</time></trkpt><trkpt lat="45.6460717" lon="8.0192183"><ele>692.3333333333333</ele><time>2026-04-04T08:29:32.939Z</time></trkpt><trkpt lat="45.6459333" lon="8.0193083"><ele>692.6666666666666</ele><time>2026-04-04T08:29:33.939Z</time></trkpt><trkpt lat="45.6457783" lon="8.0193667"><ele>693.0</ele><time>2026-04-04T08:29:34.939Z</time></trkpt><trkpt lat="45.6456383" lon="8.0194333"><ele>693.0</ele><time>2026-04-04T08:29:35.938Z</time></trkpt><trkpt lat="45.6455133" lon="8.0195133"><ele>693.0</ele><time>2026-04-04T08:29:36.938Z</time></trkpt><trkpt lat="45.6454167" lon="8.0195933"><ele>693.0</ele><time>2026-04-04T08:29:37.938Z</time></trkpt><trkpt lat="45.64534" lon="8.0197"><ele>693.0</ele><time>2026-04-04T08:29:38.938Z</time></trkpt><trkpt lat="45.6452783" lon="8.0198333"><ele>688.5</ele><time>2026-04-04T08:29:39.939Z</time></trkpt><trkpt lat="45.645225" lon="8.01999"><ele>684.0</ele><time>2026-04-04T08:29:40.939Z</time></trkpt><trkpt lat="45.6451917" lon="8.0201683"><ele>679.5</ele><time>2026-04-04T08:29:41.939Z</time></trkpt><trkpt lat="45.6451483" lon="8.020375"><ele>675.0</ele><time>2026-04-04T08:29:42.939Z</time></trkpt><trkpt lat="45.6451067" lon="8.0205983"><ele>677.0</ele><time>2026-04-04T08:29:43.939Z</time></trkpt><trkpt lat="45.6450617" lon="8.02085"><ele>679.0</ele><time>2026-04-04T08:29:44.939Z</time></trkpt><trkpt lat="45.6450233" lon="8.0211117"><ele>681.0</ele><time>2026-04-04T08:29:45.939Z</time></trkpt><trkpt lat="45.6449717" lon="8.02134"><ele>681.0</ele><time>2026-04-04T08:29:46.939Z</time></trkpt><trkpt lat="45.6449333" lon="8.0215533"><ele>681.0</ele><time>2026-04-04T08:29:47.939Z</time></trkpt><trkpt lat="45.6449267" lon="8.0217733"><ele>681.0</ele><time>2026-04-04T08:29:48.938Z</time></trkpt><trkpt lat="45.64494" lon="8.0219667"><ele>681.0</ele><time>2026-04-04T08:29:49.939Z</time></trkpt><trkpt lat="45.6449467" lon="8.0221367"><ele>680.0</ele><time>2026-04-04T08:29:50.938Z</time></trkpt><trkpt lat="45.6449467" lon="8.0223"><ele>679.0</ele><time>2026-04-04T08:29:51.939Z</time></trkpt><trkpt lat="45.6449233" lon="8.0224583"><ele>678.0</ele><time>2026-04-04T08:29:52.939Z</time></trkpt><trkpt lat="45.64489" lon="8.022635"><ele>677.0</ele><time>2026-04-04T08:29:53.939Z</time></trkpt><trkpt lat="45.6448017" lon="8.0228433"><ele>677.0</ele><time>2026-04-04T08:29:54.939Z</time></trkpt><trkpt lat="45.6447217" lon="8.02305"><ele>677.0</ele><time>2026-04-04T08:29:55.939Z</time></trkpt><trkpt lat="45.6446283" lon="8.0232483"><ele>677.0</ele><time>2026-04-04T08:29:56.939Z</time></trkpt><trkpt lat="45.6445383" lon="8.0234283"><ele>673.0</ele><time>2026-04-04T08:29:57.939Z</time></trkpt><trkpt lat="45.64444" lon="8.023595"><ele>669.0</ele><time>2026-04-04T08:29:58.939Z</time></trkpt><trkpt lat="45.6443267" lon="8.0237417"><ele>665.0</ele><time>2026-04-04T08:29:59.939Z</time></trkpt><trkpt lat="45.6442133" lon="8.023875"><ele>665.0</ele><time>2026-04-04T08:30:00.939Z</time></trkpt><trkpt lat="45.6440867" lon="8.0239983"><ele>665.0</ele><time>2026-04-04T08:30:01.939Z</time></trkpt><trkpt lat="45.64394" lon="8.024095"><ele>665.0</ele><time>2026-04-04T08:30:02.939Z</time></trkpt><trkpt lat="45.643795" lon="8.024175"><ele>667.3333333333333</ele><time>2026-04-04T08:30:03.939Z</time></trkpt><trkpt lat="45.6436267" lon="8.0242233"><ele>669.6666666666666</ele><time>2026-04-04T08:30:04.939Z</time></trkpt><trkpt lat="45.6434533" lon="8.024245"><ele>672.0</ele><time>2026-04-04T08:30:05.939Z</time></trkpt><trkpt lat="45.6432733" lon="8.0242533"><ele>672.0</ele><time>2026-04-04T08:30:06.939Z</time></trkpt><trkpt lat="45.6430717" lon="8.0242333"><ele>672.0</ele><time>2026-04-04T08:30:07.939Z</time></trkpt><trkpt lat="45.64286" lon="8.0242183"><ele>672.0</ele><time>2026-04-04T08:30:08.939Z</time></trkpt><trkpt lat="45.6426533" lon="8.0242017"><ele>668.0</ele><time>2026-04-04T08:30:09.939Z</time></trkpt><trkpt lat="45.6424633" lon="8.0242233"><ele>664.0</ele><time>2026-04-04T08:30:10.939Z</time></trkpt><trkpt lat="45.642295" lon="8.02426"><ele>660.0</ele><time>2026-04-04T08:30:11.939Z</time></trkpt><trkpt lat="45.6421317" lon="8.0243117"><ele>658.3333333333334</ele><time>2026-04-04T08:30:12.939Z</time></trkpt><trkpt lat="45.6419567" lon="8.0243633"><ele>656.6666666666667</ele><time>2026-04-04T08:30:13.939Z</time></trkpt><trkpt lat="45.64178" lon="8.02444"><ele>655.0</ele><time>2026-04-04T08:30:14.939Z</time></trkpt><trkpt lat="45.6416017" lon="8.0245283"><ele>655.0</ele><time>2026-04-04T08:30:15.939Z</time></trkpt><trkpt lat="45.6414283" lon="8.0246417"><ele>655.0</ele><time>2026-04-04T08:30:16.938Z</time></trkpt><trkpt lat="45.64126" lon="8.0247683"><ele>655.0</ele><time>2026-04-04T08:30:17.939Z</time></trkpt><trkpt lat="45.6410933" lon="8.0248867"><ele>655.6666666666667</ele><time>2026-04-04T08:30:18.939Z</time></trkpt><trkpt lat="45.6409183" lon="8.0250117"><ele>656.3333333333334</ele><time>2026-04-04T08:30:19.939Z</time></trkpt><trkpt lat="45.640745" lon="8.025155"><ele>657.0</ele><time>2026-04-04T08:30:20.939Z</time></trkpt><trkpt lat="45.640595" lon="8.025315"><ele>657.0</ele><time>2026-04-04T08:30:21.939Z</time></trkpt><trkpt lat="45.6404733" lon="8.0255167"><ele>657.0</ele><time>2026-04-04T08:30:22.939Z</time></trkpt><trkpt lat="45.6403433" lon="8.0257283"><ele>657.0</ele><time>2026-04-04T08:30:23.939Z</time></trkpt><trkpt lat="45.64021" lon="8.0259467"><ele>652.3333333333334</ele><time>2026-04-04T08:30:24.939Z</time></trkpt><trkpt lat="45.6400967" lon="8.0261717"><ele>647.6666666666667</ele><time>2026-04-04T08:30:25.939Z</time></trkpt><trkpt lat="45.64" lon="8.026385"><ele>643.0</ele><time>2026-04-04T08:30:26.939Z</time></trkpt><trkpt lat="45.6399067" lon="8.0266083"><ele>650.6666666666667</ele><time>2026-04-04T08:30:27.939Z</time></trkpt><trkpt lat="45.639815" lon="8.0268383"><ele>658.3333333333334</ele><time>2026-04-04T08:30:28.939Z</time></trkpt><trkpt lat="45.6397167" lon="8.0270817"><ele>666.0</ele><time>2026-04-04T08:30:29.939Z</time></trkpt><trkpt lat="45.6396317" lon="8.02733"><ele>668.3333333333334</ele><time>2026-04-04T08:30:30.939Z</time></trkpt><trkpt lat="45.6395533" lon="8.0275717"><ele>670.6666666666667</ele><time>2026-04-04T08:30:31.939Z</time></trkpt><trkpt lat="45.63948" lon="8.027825"><ele>673.0</ele><time>2026-04-04T08:30:32.939Z</time></trkpt><trkpt lat="45.6394317" lon="8.028075"><ele>660.0</ele><time>2026-04-04T08:30:33.939Z</time></trkpt><trkpt lat="45.6393617" lon="8.0283233"><ele>647.0</ele><time>2026-04-04T08:30:34.939Z</time></trkpt><trkpt lat="45.6393017" lon="8.028575"><ele>634.0</ele><time>2026-04-04T08:30:35.938Z</time></trkpt><trkpt lat="45.63924" lon="8.0288"><ele>634.0</ele><time>2026-04-04T08:30:36.939Z</time></trkpt><trkpt lat="45.6391533" lon="8.029005"><ele>634.0</ele><time>2026-04-04T08:30:37.939Z</time></trkpt><trkpt lat="45.6390567" lon="8.0291917"><ele>634.0</ele><time>2026-04-04T08:30:38.939Z</time></trkpt><trkpt lat="45.6389717" lon="8.0293617"><ele>633.3333333333334</ele><time>2026-04-04T08:30:39.939Z</time></trkpt><trkpt lat="45.6388617" lon="8.0295517"><ele>632.6666666666666</ele><time>2026-04-04T08:30:40.938Z</time></trkpt><trkpt lat="45.6387167" lon="8.0297417"><ele>632.0</ele><time>2026-04-04T08:30:41.939Z</time></trkpt><trkpt lat="45.6385767" lon="8.0299217"><ele>637.6666666666666</ele><time>2026-04-04T08:30:42.939Z</time></trkpt><trkpt lat="45.63842" lon="8.0300767"><ele>643.3333333333334</ele><time>2026-04-04T08:30:43.939Z</time></trkpt><trkpt lat="45.638255" lon="8.0301933"><ele>649.0</ele><time>2026-04-04T08:30:44.939Z</time></trkpt><trkpt lat="45.63808" lon="8.030295"><ele>649.0</ele><time>2026-04-04T08:30:45.939Z</time></trkpt><trkpt lat="45.6378967" lon="8.030355"><ele>649.0</ele><time>2026-04-04T08:30:46.938Z</time></trkpt><trkpt lat="45.6377017" lon="8.0304317"><ele>649.0</ele><time>2026-04-04T08:30:47.939Z</time></trkpt><trkpt lat="45.6375067" lon="8.0304983"><ele>643.3333333333334</ele><time>2026-04-04T08:30:48.939Z</time></trkpt><trkpt lat="45.6373083" lon="8.03058"><ele>637.6666666666666</ele><time>2026-04-04T08:30:49.939Z</time></trkpt><trkpt lat="45.637125" lon="8.03067"><ele>632.0</ele><time>2026-04-04T08:30:50.939Z</time></trkpt><trkpt lat="45.6369667" lon="8.030755"><ele>633.3333333333333</ele><time>2026-04-04T08:30:51.939Z</time></trkpt><trkpt lat="45.636825" lon="8.0308617"><ele>634.6666666666666</ele><time>2026-04-04T08:30:52.938Z</time></trkpt><trkpt lat="45.63669" lon="8.0309817"><ele>636.0</ele><time>2026-04-04T08:30:53.939Z</time></trkpt><trkpt lat="45.636555" lon="8.0311533"><ele>636.0</ele><time>2026-04-04T08:30:54.939Z</time></trkpt><trkpt lat="45.636425" lon="8.0313367"><ele>636.0</ele><time>2026-04-04T08:30:55.938Z</time></trkpt><trkpt lat="45.636295" lon="8.0315433"><ele>636.0</ele><time>2026-04-04T08:30:56.939Z</time></trkpt><trkpt lat="45.6361767" lon="8.031725"><ele>632.0</ele><time>2026-04-04T08:30:57.939Z</time></trkpt><trkpt lat="45.636065" lon="8.0319067"><ele>628.0</ele><time>2026-04-04T08:30:58.938Z</time></trkpt><trkpt lat="45.63596" lon="8.032075"><ele>624.0</ele><time>2026-04-04T08:30:59.939Z</time></trkpt><trkpt lat="45.635875" lon="8.03226"><ele>624.0</ele><time>2026-04-04T08:31:00.939Z</time></trkpt><trkpt lat="45.6357983" lon="8.0324533"><ele>624.0</ele><time>2026-04-04T08:31:01.939Z</time></trkpt><trkpt lat="45.6357233" lon="8.03265"><ele>624.0</ele><time>2026-04-04T08:31:02.939Z</time></trkpt><trkpt lat="45.6356267" lon="8.03286"><ele>631.0</ele><time>2026-04-04T08:31:03.939Z</time></trkpt><trkpt lat="45.6355283" lon="8.0330633"><ele>638.0</ele><time>2026-04-04T08:31:04.939Z</time></trkpt><trkpt lat="45.63544" lon="8.0332717"><ele>645.0</ele><time>2026-04-04T08:31:05.939Z</time></trkpt><trkpt lat="45.6353233" lon="8.0334667"><ele>637.6666666666666</ele><time>2026-04-04T08:31:06.939Z</time></trkpt><trkpt lat="45.6352317" lon="8.0336733"><ele>630.3333333333333</ele><time>2026-04-04T08:31:07.939Z</time></trkpt><trkpt lat="45.6351133" lon="8.0338667"><ele>623.0</ele><time>2026-04-04T08:31:08.939Z</time></trkpt><trkpt lat="45.6349983" lon="8.03405"><ele>629.0</ele><time>2026-04-04T08:31:09.939Z</time></trkpt><trkpt lat="45.6348667" lon="8.03423"><ele>635.0</ele><time>2026-04-04T08:31:10.939Z</time></trkpt><trkpt lat="45.634715" lon="8.0343967"><ele>641.0</ele><time>2026-04-04T08:31:11.939Z</time></trkpt><trkpt lat="45.634485" lon="8.0347583"><ele>636.5</ele><time>2026-04-04T08:31:13.939Z</time></trkpt><trkpt lat="45.6344067" lon="8.0349433"><ele>632.0</ele><time>2026-04-04T08:31:14.939Z</time></trkpt><trkpt lat="45.6343233" lon="8.035105"><ele>627.5</ele><time>2026-04-04T08:31:15.939Z</time></trkpt><trkpt lat="45.6342417" lon="8.035255"><ele>623.0</ele><time>2026-04-04T08:31:16.939Z</time></trkpt><trkpt lat="45.634125" lon="8.0353683"><ele>623.0</ele><time>2026-04-04T08:31:17.939Z</time></trkpt><trkpt lat="45.6339783" lon="8.03545"><ele>623.0</ele><time>2026-04-04T08:31:18.939Z</time></trkpt><trkpt lat="45.6338217" lon="8.0354867"><ele>623.0</ele><time>2026-04-04T08:31:19.939Z</time></trkpt><trkpt lat="45.6336683" lon="8.0354933"><ele>620.75</ele><time>2026-04-04T08:31:20.939Z</time></trkpt><trkpt lat="45.6335067" lon="8.0354883"><ele>618.5</ele><time>2026-04-04T08:31:21.939Z</time></trkpt><trkpt lat="45.6333583" lon="8.0355133"><ele>616.25</ele><time>2026-04-04T08:31:22.939Z</time></trkpt><trkpt lat="45.6332283" lon="8.0355617"><ele>614.0</ele><time>2026-04-04T08:31:23.939Z</time></trkpt><trkpt lat="45.633135" lon="8.0356717"><ele>617.25</ele><time>2026-04-04T08:31:24.938Z</time></trkpt><trkpt lat="45.63306" lon="8.0358267"><ele>620.5</ele><time>2026-04-04T08:31:25.939Z</time></trkpt><trkpt lat="45.6329867" lon="8.0360217"><ele>623.75</ele><time>2026-04-04T08:31:26.939Z</time></trkpt><trkpt lat="45.6328933" lon="8.0361983"><ele>627.0</ele><time>2026-04-04T08:31:27.939Z</time></trkpt><trkpt lat="45.63283" lon="8.03639"><ele>623.3333333333334</ele><time>2026-04-04T08:31:28.939Z</time></trkpt><trkpt lat="45.63279" lon="8.0366017"><ele>619.6666666666667</ele><time>2026-04-04T08:31:29.939Z</time></trkpt><trkpt lat="45.6327633" lon="8.0368367"><ele>616.0</ele><time>2026-04-04T08:31:30.939Z</time></trkpt><trkpt lat="45.6327367" lon="8.0370733"><ele>614.3333333333334</ele><time>2026-04-04T08:31:31.939Z</time></trkpt><trkpt lat="45.6327083" lon="8.03733"><ele>612.6666666666666</ele><time>2026-04-04T08:31:32.939Z</time></trkpt><trkpt lat="45.6326783" lon="8.03758"><ele>611.0</ele><time>2026-04-04T08:31:33.939Z</time></trkpt><trkpt lat="45.632655" lon="8.0378117"><ele>611.0</ele><time>2026-04-04T08:31:34.939Z</time></trkpt><trkpt lat="45.6326217" lon="8.0380333"><ele>611.0</ele><time>2026-04-04T08:31:35.939Z</time></trkpt><trkpt lat="45.63259" lon="8.0382417"><ele>611.0</ele><time>2026-04-04T08:31:36.939Z</time></trkpt><trkpt lat="45.6325283" lon="8.0384183"><ele>611.0</ele><time>2026-04-04T08:31:37.939Z</time></trkpt><trkpt lat="45.632435" lon="8.0385733"><ele>612.6666666666666</ele><time>2026-04-04T08:31:38.939Z</time></trkpt><trkpt lat="45.6323283" lon="8.0387283"><ele>614.3333333333334</ele><time>2026-04-04T08:31:39.938Z</time></trkpt><trkpt lat="45.6322133" lon="8.0388883"><ele>616.0</ele><time>2026-04-04T08:31:40.939Z</time></trkpt><trkpt lat="45.6320917" lon="8.0390617"><ele>613.3333333333334</ele><time>2026-04-04T08:31:41.939Z</time></trkpt><trkpt lat="45.63197" lon="8.0392467"><ele>610.6666666666666</ele><time>2026-04-04T08:31:42.939Z</time></trkpt><trkpt lat="45.631855" lon="8.0394333"><ele>608.0</ele><time>2026-04-04T08:31:43.939Z</time></trkpt><trkpt lat="45.6317333" lon="8.0396233"><ele>608.0</ele><time>2026-04-04T08:31:44.939Z</time></trkpt><trkpt lat="45.631605" lon="8.03981"><ele>608.0</ele><time>2026-04-04T08:31:45.938Z</time></trkpt><trkpt lat="45.6314833" lon="8.0400267"><ele>608.0</ele><time>2026-04-04T08:31:46.939Z</time></trkpt><trkpt lat="45.631355" lon="8.0402517"><ele>608.0</ele><time>2026-04-04T08:31:47.939Z</time></trkpt><trkpt lat="45.631225" lon="8.040475"><ele>608.0</ele><time>2026-04-04T08:31:48.939Z</time></trkpt><trkpt lat="45.6311017" lon="8.0406967"><ele>608.0</ele><time>2026-04-04T08:31:49.939Z</time></trkpt><trkpt lat="45.6309983" lon="8.04093"><ele>608.0</ele><time>2026-04-04T08:31:50.938Z</time></trkpt><trkpt lat="45.6308883" lon="8.041145"><ele>608.0</ele><time>2026-04-04T08:31:51.939Z</time></trkpt><trkpt lat="45.6307733" lon="8.0413617"><ele>608.0</ele><time>2026-04-04T08:31:52.939Z</time></trkpt><trkpt lat="45.6306667" lon="8.041575"><ele>610.3333333333333</ele><time>2026-04-04T08:31:53.939Z</time></trkpt><trkpt lat="45.6305567" lon="8.0417817"><ele>612.6666666666666</ele><time>2026-04-04T08:31:54.939Z</time></trkpt><trkpt lat="45.63043" lon="8.041985"><ele>615.0</ele><time>2026-04-04T08:31:55.939Z</time></trkpt><trkpt lat="45.6303133" lon="8.042185"><ele>613.0</ele><time>2026-04-04T08:31:56.939Z</time></trkpt><trkpt lat="45.6302217" lon="8.0423533"><ele>611.0</ele><time>2026-04-04T08:31:57.939Z</time></trkpt><trkpt lat="45.6301233" lon="8.0424983"><ele>609.0</ele><time>2026-04-04T08:31:58.939Z</time></trkpt><trkpt lat="45.6299917" lon="8.0426517"><ele>609.0</ele><time>2026-04-04T08:31:59.939Z</time></trkpt><trkpt lat="45.6298383" lon="8.04275"><ele>609.0</ele><time>2026-04-04T08:32:00.939Z</time></trkpt><trkpt lat="45.6296733" lon="8.0428583"><ele>609.0</ele><time>2026-04-04T08:32:01.939Z</time></trkpt><trkpt lat="45.629495" lon="8.0429517"><ele>606.0</ele><time>2026-04-04T08:32:02.939Z</time></trkpt><trkpt lat="45.6293133" lon="8.0430517"><ele>603.0</ele><time>2026-04-04T08:32:03.939Z</time></trkpt><trkpt lat="45.6291233" lon="8.04316"><ele>600.0</ele><time>2026-04-04T08:32:04.939Z</time></trkpt><trkpt lat="45.6289367" lon="8.0432483"><ele>600.0</ele><time>2026-04-04T08:32:05.939Z</time></trkpt><trkpt lat="45.6287367" lon="8.0433583"><ele>600.0</ele><time>2026-04-04T08:32:06.939Z</time></trkpt><trkpt lat="45.628535" lon="8.0434667"><ele>600.0</ele><time>2026-04-04T08:32:07.939Z</time></trkpt><trkpt lat="45.6283283" lon="8.0435667"><ele>600.0</ele><time>2026-04-04T08:32:08.938Z</time></trkpt><trkpt lat="45.6281183" lon="8.0436817"><ele>600.0</ele><time>2026-04-04T08:32:09.938Z</time></trkpt><trkpt lat="45.6279033" lon="8.0437867"><ele>598.0</ele><time>2026-04-04T08:32:10.939Z</time></trkpt><trkpt lat="45.62771" lon="8.0438883"><ele>596.0</ele><time>2026-04-04T08:32:11.939Z</time></trkpt><trkpt lat="45.6275217" lon="8.0439817"><ele>594.0</ele><time>2026-04-04T08:32:12.938Z</time></trkpt><trkpt lat="45.6273367" lon="8.0440667"><ele>595.6666666666666</ele><time>2026-04-04T08:32:13.939Z</time></trkpt><trkpt lat="45.6271483" lon="8.04414"><ele>597.3333333333333</ele><time>2026-04-04T08:32:14.939Z</time></trkpt><trkpt lat="45.6269767" lon="8.0441833"><ele>599.0</ele><time>2026-04-04T08:32:15.939Z</time></trkpt><trkpt lat="45.6267783" lon="8.0442083"><ele>599.0</ele><time>2026-04-04T08:32:16.939Z</time></trkpt><trkpt lat="45.6265717" lon="8.04424"><ele>599.0</ele><time>2026-04-04T08:32:17.939Z</time></trkpt><trkpt lat="45.6263667" lon="8.044265"><ele>599.0</ele><time>2026-04-04T08:32:18.939Z</time></trkpt><trkpt lat="45.62617" lon="8.0442633"><ele>598.0</ele><time>2026-04-04T08:32:19.939Z</time></trkpt><trkpt lat="45.6260067" lon="8.0442817"><ele>597.0</ele><time>2026-04-04T08:32:20.939Z</time></trkpt><trkpt lat="45.6258567" lon="8.0442733"><ele>596.0</ele><time>2026-04-04T08:32:21.938Z</time></trkpt><trkpt lat="45.6257283" lon="8.044285"><ele>595.0</ele><time>2026-04-04T08:32:22.939Z</time></trkpt><trkpt lat="45.62562" lon="8.0443567"><ele>595.0</ele><time>2026-04-04T08:32:23.939Z</time></trkpt><trkpt lat="45.6254983" lon="8.0444883"><ele>595.0</ele><time>2026-04-04T08:32:24.939Z</time></trkpt><trkpt lat="45.625375" lon="8.04464"><ele>595.0</ele><time>2026-04-04T08:32:25.939Z</time></trkpt><trkpt lat="45.6252367" lon="8.0447833"><ele>593.6666666666667</ele><time>2026-04-04T08:32:26.939Z</time></trkpt><trkpt lat="45.6250933" lon="8.0449067"><ele>592.3333333333334</ele><time>2026-04-04T08:32:27.939Z</time></trkpt><trkpt lat="45.6249333" lon="8.0450267"><ele>591.0</ele><time>2026-04-04T08:32:28.939Z</time></trkpt><trkpt lat="45.62477" lon="8.04512"><ele>593.0</ele><time>2026-04-04T08:32:29.939Z</time></trkpt><trkpt lat="45.624605" lon="8.0451983"><ele>595.0</ele><time>2026-04-04T08:32:30.939Z</time></trkpt><trkpt lat="45.6244233" lon="8.0452567"><ele>597.0</ele><time>2026-04-04T08:32:31.938Z</time></trkpt><trkpt lat="45.6242283" lon="8.0452867"><ele>597.0</ele><time>2026-04-04T08:32:32.939Z</time></trkpt><trkpt lat="45.6240167" lon="8.0453283"><ele>597.0</ele><time>2026-04-04T08:32:33.939Z</time></trkpt><trkpt lat="45.6238183" lon="8.04539"><ele>597.0</ele><time>2026-04-04T08:32:34.938Z</time></trkpt><trkpt lat="45.6236017" lon="8.0454583"><ele>596.6666666666666</ele><time>2026-04-04T08:32:35.939Z</time></trkpt><trkpt lat="45.6234067" lon="8.04553"><ele>596.3333333333333</ele><time>2026-04-04T08:32:36.939Z</time></trkpt><trkpt lat="45.62322" lon="8.0456133"><ele>596.0</ele><time>2026-04-04T08:32:37.939Z</time></trkpt><trkpt lat="45.62305" lon="8.045705"><ele>596.0</ele><time>2026-04-04T08:32:38.939Z</time></trkpt><trkpt lat="45.6228467" lon="8.0457933"><ele>596.0</ele><time>2026-04-04T08:32:39.939Z</time></trkpt><trkpt lat="45.62265" lon="8.045875"><ele>596.0</ele><time>2026-04-04T08:32:40.939Z</time></trkpt><trkpt lat="45.6224683" lon="8.04595"><ele>595.3333333333333</ele><time>2026-04-04T08:32:41.938Z</time></trkpt><trkpt lat="45.6222967" lon="8.046025"><ele>594.6666666666666</ele><time>2026-04-04T08:32:42.939Z</time></trkpt><trkpt lat="45.6221333" lon="8.046095"><ele>594.0</ele><time>2026-04-04T08:32:43.939Z</time></trkpt><trkpt lat="45.62196" lon="8.0461567"><ele>593.6666666666666</ele><time>2026-04-04T08:32:44.939Z</time></trkpt><trkpt lat="45.6217817" lon="8.04621"><ele>593.3333333333333</ele><time>2026-04-04T08:32:45.939Z</time></trkpt><trkpt lat="45.621605" lon="8.0462367"><ele>593.0</ele><time>2026-04-04T08:32:46.939Z</time></trkpt><trkpt lat="45.6214283" lon="8.0462617"><ele>593.0</ele><time>2026-04-04T08:32:47.939Z</time></trkpt><trkpt lat="45.6212433" lon="8.0462867"><ele>593.0</ele><time>2026-04-04T08:32:48.939Z</time></trkpt><trkpt lat="45.6210617" lon="8.0463383"><ele>593.0</ele><time>2026-04-04T08:32:49.939Z</time></trkpt><trkpt lat="45.620885" lon="8.0464183"><ele>591.6666666666666</ele><time>2026-04-04T08:32:50.938Z</time></trkpt><trkpt lat="45.620705" lon="8.0465117"><ele>590.3333333333334</ele><time>2026-04-04T08:32:51.939Z</time></trkpt><trkpt lat="45.620515" lon="8.0466117"><ele>589.0</ele><time>2026-04-04T08:32:52.939Z</time></trkpt><trkpt lat="45.620325" lon="8.0467217"><ele>589.6666666666667</ele><time>2026-04-04T08:32:53.939Z</time></trkpt><trkpt lat="45.6201117" lon="8.0468067"><ele>590.3333333333334</ele><time>2026-04-04T08:32:54.939Z</time></trkpt><trkpt lat="45.6199167" lon="8.0468983"><ele>591.0</ele><time>2026-04-04T08:32:55.939Z</time></trkpt><trkpt lat="45.6197283" lon="8.0469833"><ele>591.0</ele><time>2026-04-04T08:32:56.939Z</time></trkpt><trkpt lat="45.619545" lon="8.0470667"><ele>591.0</ele><time>2026-04-04T08:32:57.939Z</time></trkpt><trkpt lat="45.61938" lon="8.0471617"><ele>591.0</ele><time>2026-04-04T08:32:58.939Z</time></trkpt><trkpt lat="45.6192233" lon="8.04726"><ele>592.25</ele><time>2026-04-04T08:32:59.938Z</time></trkpt><trkpt lat="45.6190883" lon="8.04737"><ele>593.5</ele><time>2026-04-04T08:33:00.938Z</time></trkpt><trkpt lat="45.6189633" lon="8.0474767"><ele>594.75</ele><time>2026-04-04T08:33:01.938Z</time></trkpt><trkpt lat="45.618845" lon="8.0475867"><ele>596.0</ele><time>2026-04-04T08:33:02.938Z</time></trkpt><trkpt lat="45.6187367" lon="8.0477083"><ele>589.6666666666666</ele><time>2026-04-04T08:33:03.938Z</time></trkpt><trkpt lat="45.6186333" lon="8.0478633"><ele>583.3333333333334</ele><time>2026-04-04T08:33:04.937Z</time></trkpt><trkpt lat="45.618535" lon="8.0480517"><ele>577.0</ele><time>2026-04-04T08:33:05.938Z</time></trkpt><trkpt lat="45.6184433" lon="8.0482517"><ele>578.6666666666667</ele><time>2026-04-04T08:33:06.938Z</time></trkpt><trkpt lat="45.6183483" lon="8.0484617"><ele>580.3333333333334</ele><time>2026-04-04T08:33:07.938Z</time></trkpt><trkpt lat="45.6182533" lon="8.0486767"><ele>582.0</ele><time>2026-04-04T08:33:08.938Z</time></trkpt><trkpt lat="45.6181567" lon="8.0488717"><ele>582.0</ele><time>2026-04-04T08:33:09.938Z</time></trkpt><trkpt lat="45.6180317" lon="8.0490283"><ele>582.0</ele><time>2026-04-04T08:33:10.938Z</time></trkpt><trkpt lat="45.6179217" lon="8.0491933"><ele>582.0</ele><time>2026-04-04T08:33:11.938Z</time></trkpt><trkpt lat="45.617775" lon="8.0493167"><ele>580.0</ele><time>2026-04-04T08:33:12.937Z</time></trkpt><trkpt lat="45.6176267" lon="8.0493817"><ele>578.0</ele><time>2026-04-04T08:33:13.938Z</time></trkpt><trkpt lat="45.617495" lon="8.0494533"><ele>576.0</ele><time>2026-04-04T08:33:14.938Z</time></trkpt><trkpt lat="45.61737" lon="8.0494767"><ele>574.0</ele><time>2026-04-04T08:33:15.938Z</time></trkpt><trkpt lat="45.6172867" lon="8.0494767"><ele>574.0</ele><time>2026-04-04T08:33:16.938Z</time></trkpt><trkpt lat="45.6171783" lon="8.04945"><ele>574.0</ele><time>2026-04-04T08:33:18.938Z</time></trkpt><trkpt lat="45.6170633" lon="8.0494217"><ele>574.0</ele><time>2026-04-04T08:33:20.938Z</time></trkpt><trkpt lat="45.6169817" lon="8.0494167"><ele>574.0</ele><time>2026-04-04T08:33:21.938Z</time></trkpt><trkpt lat="45.616895" lon="8.0494083"><ele>574.0</ele><time>2026-04-04T08:33:22.937Z</time></trkpt><trkpt lat="45.6168033" lon="8.0493967"><ele>573.4</ele><time>2026-04-04T08:33:23.937Z</time></trkpt><trkpt lat="45.61672" lon="8.0493817"><ele>572.8</ele><time>2026-04-04T08:33:24.938Z</time></trkpt><trkpt lat="45.616635" lon="8.04937"><ele>572.2</ele><time>2026-04-04T08:33:25.938Z</time></trkpt><trkpt lat="45.6165517" lon="8.04932"><ele>571.6</ele><time>2026-04-04T08:33:26.938Z</time></trkpt><trkpt lat="45.61646" lon="8.049275"><ele>571.0</ele><time>2026-04-04T08:33:27.938Z</time></trkpt><trkpt lat="45.616345" lon="8.0492433"><ele>571.0</ele><time>2026-04-04T08:33:28.938Z</time></trkpt><trkpt lat="45.6162167" lon="8.0492067"><ele>571.0</ele><time>2026-04-04T08:33:29.938Z</time></trkpt><trkpt lat="45.6160833" lon="8.049185"><ele>571.0</ele><time>2026-04-04T08:33:30.938Z</time></trkpt><trkpt lat="45.61594" lon="8.0491717"><ele>571.0</ele><time>2026-04-04T08:33:31.938Z</time></trkpt><trkpt lat="45.61579" lon="8.049175"><ele>570.0</ele><time>2026-04-04T08:33:32.938Z</time></trkpt><trkpt lat="45.6156267" lon="8.0492067"><ele>569.0</ele><time>2026-04-04T08:33:33.937Z</time></trkpt><trkpt lat="45.61547" lon="8.0492383"><ele>568.0</ele><time>2026-04-04T08:33:34.938Z</time></trkpt><trkpt lat="45.615295" lon="8.0492717"><ele>566.6666666666667</ele><time>2026-04-04T08:33:35.938Z</time></trkpt><trkpt lat="45.6151367" lon="8.0493617"><ele>565.3333333333334</ele><time>2026-04-04T08:33:36.938Z</time></trkpt><trkpt lat="45.6149367" lon="8.0494033"><ele>564.0</ele><time>2026-04-04T08:33:37.938Z</time></trkpt><trkpt lat="45.6147483" lon="8.0494567"><ele>564.0</ele><time>2026-04-04T08:33:38.938Z</time></trkpt><trkpt lat="45.6145717" lon="8.049535"><ele>564.0</ele><time>2026-04-04T08:33:39.938Z</time></trkpt><trkpt lat="45.6144117" lon="8.0496083"><ele>564.0</ele><time>2026-04-04T08:33:40.938Z</time></trkpt><trkpt lat="45.61427" lon="8.0497133"><ele>562.6666666666666</ele><time>2026-04-04T08:33:41.938Z</time></trkpt><trkpt lat="45.6141383" lon="8.0498317"><ele>561.3333333333333</ele><time>2026-04-04T08:33:42.938Z</time></trkpt><trkpt lat="45.6140133" lon="8.049965"><ele>560.0</ele><time>2026-04-04T08:33:43.938Z</time></trkpt><trkpt lat="45.613895" lon="8.0501233"><ele>560.0</ele><time>2026-04-04T08:33:44.938Z</time></trkpt><trkpt lat="45.6137783" lon="8.0503083"><ele>560.0</ele><time>2026-04-04T08:33:45.938Z</time></trkpt><trkpt lat="45.6136817" lon="8.0505067"><ele>560.0</ele><time>2026-04-04T08:33:46.938Z</time></trkpt><trkpt lat="45.6135883" lon="8.0506817"><ele>559.5</ele><time>2026-04-04T08:33:47.938Z</time></trkpt><trkpt lat="45.6134983" lon="8.0508517"><ele>559.0</ele><time>2026-04-04T08:33:48.938Z</time></trkpt><trkpt lat="45.6134033" lon="8.0510017"><ele>558.5</ele><time>2026-04-04T08:33:49.938Z</time></trkpt><trkpt lat="45.61334" lon="8.051145"><ele>558.0</ele><time>2026-04-04T08:33:50.938Z</time></trkpt><trkpt lat="45.613265" lon="8.051275"><ele>558.0</ele><time>2026-04-04T08:33:51.938Z</time></trkpt><trkpt lat="45.6131833" lon="8.0514"><ele>558.0</ele><time>2026-04-04T08:33:52.938Z</time></trkpt><trkpt lat="45.6130883" lon="8.0515133"><ele>558.0</ele><time>2026-04-04T08:33:53.938Z</time></trkpt><trkpt lat="45.6130083" lon="8.0516267"><ele>558.0</ele><time>2026-04-04T08:33:54.938Z</time></trkpt><trkpt lat="45.6129283" lon="8.0517367"><ele>557.8</ele><time>2026-04-04T08:33:55.938Z</time></trkpt><trkpt lat="45.6128533" lon="8.0518217"><ele>557.5999999999999</ele><time>2026-04-04T08:33:56.938Z</time></trkpt><trkpt lat="45.61276" lon="8.0518933"><ele>557.4000000000001</ele><time>2026-04-04T08:33:57.938Z</time></trkpt><trkpt lat="45.61266" lon="8.0519367"><ele>557.2</ele><time>2026-04-04T08:33:58.938Z</time></trkpt><trkpt lat="45.612545" lon="8.0519933"><ele>557.0</ele><time>2026-04-04T08:33:59.938Z</time></trkpt><trkpt lat="45.6124383" lon="8.0520433"><ele>557.0</ele><time>2026-04-04T08:34:00.937Z</time></trkpt><trkpt lat="45.6123317" lon="8.0520917"><ele>557.0</ele><time>2026-04-04T08:34:01.938Z</time></trkpt><trkpt lat="45.6122167" lon="8.0521233"><ele>557.0</ele><time>2026-04-04T08:34:02.938Z</time></trkpt><trkpt lat="45.61211" lon="8.0521533"><ele>557.0</ele><time>2026-04-04T08:34:03.937Z</time></trkpt><trkpt lat="45.6119917" lon="8.052195"><ele>556.25</ele><time>2026-04-04T08:34:04.938Z</time></trkpt><trkpt lat="45.61187" lon="8.05225"><ele>555.5</ele><time>2026-04-04T08:34:05.938Z</time></trkpt><trkpt lat="45.6117317" lon="8.052305"><ele>554.75</ele><time>2026-04-04T08:34:06.938Z</time></trkpt><trkpt lat="45.6115867" lon="8.0523533"><ele>554.0</ele><time>2026-04-04T08:34:07.938Z</time></trkpt><trkpt lat="45.6114383" lon="8.0524067"><ele>553.75</ele><time>2026-04-04T08:34:08.938Z</time></trkpt><trkpt lat="45.6113067" lon="8.0524683"><ele>553.5</ele><time>2026-04-04T08:34:09.938Z</time></trkpt><trkpt lat="45.6111733" lon="8.0525083"><ele>553.25</ele><time>2026-04-04T08:34:10.938Z</time></trkpt><trkpt lat="45.611045" lon="8.05255"><ele>553.0</ele><time>2026-04-04T08:34:11.938Z</time></trkpt><trkpt lat="45.61092" lon="8.052585"><ele>552.1999999999999</ele><time>2026-04-04T08:34:12.938Z</time></trkpt><trkpt lat="45.6108" lon="8.0526267"><ele>551.4</ele><time>2026-04-04T08:34:13.938Z</time></trkpt><trkpt lat="45.6107017" lon="8.05266"><ele>550.5999999999999</ele><time>2026-04-04T08:34:14.938Z</time></trkpt><trkpt lat="45.6106033" lon="8.052695"><ele>549.8</ele><time>2026-04-04T08:34:15.938Z</time></trkpt><trkpt lat="45.6105033" lon="8.0527317"><ele>549.0</ele><time>2026-04-04T08:34:16.938Z</time></trkpt><trkpt lat="45.6104083" lon="8.0527583"><ele>548.4</ele><time>2026-04-04T08:34:17.938Z</time></trkpt><trkpt lat="45.6103217" lon="8.0527967"><ele>547.8</ele><time>2026-04-04T08:34:18.938Z</time></trkpt><trkpt lat="45.6102233" lon="8.0528267"><ele>547.2</ele><time>2026-04-04T08:34:19.938Z</time></trkpt><trkpt lat="45.6101267" lon="8.052855"><ele>546.6</ele><time>2026-04-04T08:34:20.938Z</time></trkpt><trkpt lat="45.6100283" lon="8.0528833"><ele>546.0</ele><time>2026-04-04T08:34:21.938Z</time></trkpt><trkpt lat="45.6099317" lon="8.0529217"><ele>546.0</ele><time>2026-04-04T08:34:22.938Z</time></trkpt><trkpt lat="45.60983" lon="8.0529567"><ele>546.0</ele><time>2026-04-04T08:34:23.938Z</time></trkpt><trkpt lat="45.6097133" lon="8.0529967"><ele>546.0</ele><time>2026-04-04T08:34:24.938Z</time></trkpt><trkpt lat="45.609595" lon="8.0530317"><ele>546.0</ele><time>2026-04-04T08:34:25.938Z</time></trkpt><trkpt lat="45.6094817" lon="8.0530717"><ele>545.5</ele><time>2026-04-04T08:34:26.938Z</time></trkpt><trkpt lat="45.6093717" lon="8.0531217"><ele>545.0</ele><time>2026-04-04T08:34:27.938Z</time></trkpt><trkpt lat="45.6092617" lon="8.05316"><ele>544.5</ele><time>2026-04-04T08:34:28.937Z</time></trkpt><trkpt lat="45.6091567" lon="8.053195"><ele>544.0</ele><time>2026-04-04T08:34:29.938Z</time></trkpt><trkpt lat="45.609045" lon="8.05324"><ele>543.75</ele><time>2026-04-04T08:34:30.938Z</time></trkpt><trkpt lat="45.60892" lon="8.0532967"><ele>543.5</ele><time>2026-04-04T08:34:31.938Z</time></trkpt><trkpt lat="45.608785" lon="8.0533517"><ele>543.25</ele><time>2026-04-04T08:34:32.937Z</time></trkpt><trkpt lat="45.608645" lon="8.053395"><ele>543.0</ele><time>2026-04-04T08:34:33.938Z</time></trkpt><trkpt lat="45.6085" lon="8.0534033"><ele>542.0</ele><time>2026-04-04T08:34:34.938Z</time></trkpt><trkpt lat="45.6083517" lon="8.0533883"><ele>541.0</ele><time>2026-04-04T08:34:35.938Z</time></trkpt><trkpt lat="45.60821" lon="8.0533533"><ele>540.0</ele><time>2026-04-04T08:34:36.938Z</time></trkpt><trkpt lat="45.6080683" lon="8.0533317"><ele>539.0</ele><time>2026-04-04T08:34:37.938Z</time></trkpt><trkpt lat="45.6079117" lon="8.0533317"><ele>539.6666666666666</ele><time>2026-04-04T08:34:38.938Z</time></trkpt><trkpt lat="45.60774" lon="8.0533583"><ele>540.3333333333334</ele><time>2026-04-04T08:34:39.938Z</time></trkpt><trkpt lat="45.60756" lon="8.0534267"><ele>541.0</ele><time>2026-04-04T08:34:40.938Z</time></trkpt><trkpt lat="45.6073533" lon="8.0535133"><ele>541.0</ele><time>2026-04-04T08:34:41.938Z</time></trkpt><trkpt lat="45.607145" lon="8.05362"><ele>541.0</ele><time>2026-04-04T08:34:42.938Z</time></trkpt><trkpt lat="45.6069333" lon="8.05368"><ele>541.0</ele><time>2026-04-04T08:34:43.937Z</time></trkpt><trkpt lat="45.6067017" lon="8.05373"><ele>539.3333333333334</ele><time>2026-04-04T08:34:44.937Z</time></trkpt><trkpt lat="45.6064917" lon="8.0537983"><ele>537.6666666666666</ele><time>2026-04-04T08:34:45.938Z</time></trkpt><trkpt lat="45.6062783" lon="8.0538567"><ele>536.0</ele><time>2026-04-04T08:34:46.938Z</time></trkpt><trkpt lat="45.6060883" lon="8.053925"><ele>534.3333333333333</ele><time>2026-04-04T08:34:47.938Z</time></trkpt><trkpt lat="45.6059017" lon="8.0539967"><ele>532.6666666666666</ele><time>2026-04-04T08:34:48.938Z</time></trkpt><trkpt lat="45.605705" lon="8.0540683"><ele>531.0</ele><time>2026-04-04T08:34:49.937Z</time></trkpt><trkpt lat="45.6054983" lon="8.05415"><ele>530.0</ele><time>2026-04-04T08:34:50.938Z</time></trkpt><trkpt lat="45.60529" lon="8.0542067"><ele>529.0</ele><time>2026-04-04T08:34:51.938Z</time></trkpt><trkpt lat="45.6050883" lon="8.0542667"><ele>528.0</ele><time>2026-04-04T08:34:52.938Z</time></trkpt><trkpt lat="45.6048983" lon="8.054315"><ele>528.0</ele><time>2026-04-04T08:34:53.938Z</time></trkpt><trkpt lat="45.6047233" lon="8.05434"><ele>528.0</ele><time>2026-04-04T08:34:54.938Z</time></trkpt><trkpt lat="45.6045417" lon="8.0543467"><ele>528.0</ele><time>2026-04-04T08:34:55.938Z</time></trkpt><trkpt lat="45.6043633" lon="8.0543317"><ele>526.6666666666666</ele><time>2026-04-04T08:34:56.937Z</time></trkpt><trkpt lat="45.604185" lon="8.0543083"><ele>525.3333333333333</ele><time>2026-04-04T08:34:57.938Z</time></trkpt><trkpt lat="45.604025" lon="8.0543167"><ele>524.0</ele><time>2026-04-04T08:34:58.938Z</time></trkpt><trkpt lat="45.6038683" lon="8.0543617"><ele>524.0</ele><time>2026-04-04T08:34:59.938Z</time></trkpt><trkpt lat="45.6037183" lon="8.054445"><ele>524.0</ele><time>2026-04-04T08:35:00.937Z</time></trkpt><trkpt lat="45.6035633" lon="8.0545583"><ele>524.0</ele><time>2026-04-04T08:35:01.938Z</time></trkpt><trkpt lat="45.60344" lon="8.05472"><ele>523.3333333333333</ele><time>2026-04-04T08:35:02.938Z</time></trkpt><trkpt lat="45.603345" lon="8.05491"><ele>522.6666666666666</ele><time>2026-04-04T08:35:03.938Z</time></trkpt><trkpt lat="45.60327" lon="8.0551033"><ele>522.0</ele><time>2026-04-04T08:35:04.938Z</time></trkpt><trkpt lat="45.60321" lon="8.0552717"><ele>522.0</ele><time>2026-04-04T08:35:05.938Z</time></trkpt><trkpt lat="45.6031617" lon="8.0553783"><ele>522.0</ele><time>2026-04-04T08:35:06.938Z</time></trkpt><trkpt lat="45.6031133" lon="8.0554817"><ele>522.0</ele><time>2026-04-04T08:35:08.938Z</time></trkpt><trkpt lat="45.603025" lon="8.0555483"><ele>522.0</ele><time>2026-04-04T08:35:11.938Z</time></trkpt><trkpt lat="45.6029217" lon="8.0555933"><ele>522.0</ele><time>2026-04-04T08:35:13.938Z</time></trkpt><trkpt lat="45.60283" lon="8.0555917"><ele>521.0</ele><time>2026-04-04T08:35:14.938Z</time></trkpt><trkpt lat="45.6027267" lon="8.0555733"><ele>520.0</ele><time>2026-04-04T08:35:15.938Z</time></trkpt><trkpt lat="45.602605" lon="8.0555417"><ele>519.0</ele><time>2026-04-04T08:35:16.937Z</time></trkpt><trkpt lat="45.60245" lon="8.0554967"><ele>518.0</ele><time>2026-04-04T08:35:17.938Z</time></trkpt><trkpt lat="45.6022967" lon="8.0554533"><ele>518.0</ele><time>2026-04-04T08:35:18.937Z</time></trkpt><trkpt lat="45.602135" lon="8.05542"><ele>518.0</ele><time>2026-04-04T08:35:19.938Z</time></trkpt><trkpt lat="45.6019683" lon="8.0553933"><ele>518.0</ele><time>2026-04-04T08:35:20.938Z</time></trkpt><trkpt lat="45.6018033" lon="8.05537"><ele>516.3333333333333</ele><time>2026-04-04T08:35:21.937Z</time></trkpt><trkpt lat="45.6016417" lon="8.0553483"><ele>514.6666666666666</ele><time>2026-04-04T08:35:22.938Z</time></trkpt><trkpt lat="45.60149" lon="8.055325"><ele>513.0</ele><time>2026-04-04T08:35:23.938Z</time></trkpt><trkpt lat="45.60135" lon="8.0553033"><ele>513.0</ele><time>2026-04-04T08:35:24.938Z</time></trkpt><trkpt lat="45.601215" lon="8.0552817"><ele>513.0</ele><time>2026-04-04T08:35:25.938Z</time></trkpt><trkpt lat="45.6010667" lon="8.055245"><ele>513.0</ele><time>2026-04-04T08:35:26.938Z</time></trkpt><trkpt lat="45.6009183" lon="8.05522"><ele>513.0</ele><time>2026-04-04T08:35:27.938Z</time></trkpt><trkpt lat="45.6007533" lon="8.0551967"><ele>510.66666666666663</ele><time>2026-04-04T08:35:28.938Z</time></trkpt><trkpt lat="45.6005683" lon="8.055155"><ele>508.3333333333333</ele><time>2026-04-04T08:35:29.938Z</time></trkpt><trkpt lat="45.6003867" lon="8.05512"><ele>506.0</ele><time>2026-04-04T08:35:30.938Z</time></trkpt><trkpt lat="45.6002117" lon="8.0550867"><ele>505.25</ele><time>2026-04-04T08:35:31.938Z</time></trkpt><trkpt lat="45.6000417" lon="8.0550583"><ele>504.5</ele><time>2026-04-04T08:35:32.938Z</time></trkpt><trkpt lat="45.5998967" lon="8.055035"><ele>503.75</ele><time>2026-04-04T08:35:33.938Z</time></trkpt><trkpt lat="45.5997767" lon="8.05501"><ele>503.0</ele><time>2026-04-04T08:35:34.937Z</time></trkpt><trkpt lat="45.59969" lon="8.0550017"><ele>503.0</ele><time>2026-04-04T08:35:35.938Z</time></trkpt><trkpt lat="45.59962" lon="8.0549917"><ele>502.99999999999994</ele><time>2026-04-04T08:35:36.938Z</time></trkpt><trkpt lat="45.5995383" lon="8.0548867"><ele>502.99999999999994</ele><time>2026-04-04T08:35:38.938Z</time></trkpt><trkpt lat="45.5995617" lon="8.054725"><ele>503.0</ele><time>2026-04-04T08:35:40.938Z</time></trkpt><trkpt lat="45.59963" lon="8.0546267"><ele>503.0</ele><time>2026-04-04T08:35:41.938Z</time></trkpt><trkpt lat="45.5997383" lon="8.0545317"><ele>500.3333333333333</ele><time>2026-04-04T08:35:42.938Z</time></trkpt><trkpt lat="45.599885" lon="8.054455"><ele>497.66666666666663</ele><time>2026-04-04T08:35:43.938Z</time></trkpt><trkpt lat="45.6000633" lon="8.0543917"><ele>495.0</ele><time>2026-04-04T08:35:44.938Z</time></trkpt><trkpt lat="45.6002" lon="8.05434"><ele>495.0</ele><time>2026-04-04T08:35:45.938Z</time></trkpt><trkpt lat="45.60031" lon="8.054285"><ele>495.0</ele><time>2026-04-04T08:35:46.938Z</time></trkpt><trkpt lat="45.6003933" lon="8.0542217"><ele>495.0</ele><time>2026-04-04T08:35:47.938Z</time></trkpt><trkpt lat="45.6004433" lon="8.0541483"><ele>495.0</ele><time>2026-04-04T08:35:48.938Z</time></trkpt><trkpt lat="45.6004517" lon="8.0540067"><ele>495.0</ele><time>2026-04-04T08:35:50.938Z</time></trkpt><trkpt lat="45.6003167" lon="8.05396"><ele>495.0</ele><time>2026-04-04T08:35:52.938Z</time></trkpt><trkpt lat="45.6002033" lon="8.0539983"><ele>495.0</ele><time>2026-04-04T08:35:53.938Z</time></trkpt><trkpt lat="45.6000567" lon="8.0540783"><ele>495.0</ele><time>2026-04-04T08:35:54.938Z</time></trkpt><trkpt lat="45.599885" lon="8.0541783"><ele>495.0</ele><time>2026-04-04T08:35:55.938Z</time></trkpt><trkpt lat="45.59968" lon="8.054295"><ele>495.0</ele><time>2026-04-04T08:35:56.938Z</time></trkpt><trkpt lat="45.5995233" lon="8.054375"><ele>495.0</ele><time>2026-04-04T08:35:57.938Z</time></trkpt><trkpt lat="45.5993817" lon="8.0544067"><ele>492.75</ele><time>2026-04-04T08:35:58.938Z</time></trkpt><trkpt lat="45.5992567" lon="8.0544067"><ele>490.5</ele><time>2026-04-04T08:35:59.938Z</time></trkpt><trkpt lat="45.5991383" lon="8.0543667"><ele>488.25</ele><time>2026-04-04T08:36:00.938Z</time></trkpt><trkpt lat="45.5990417" lon="8.0543267"><ele>486.0</ele><time>2026-04-04T08:36:01.938Z</time></trkpt><trkpt lat="45.598935" lon="8.0542817"><ele>486.0</ele><time>2026-04-04T08:36:02.938Z</time></trkpt><trkpt lat="45.598815" lon="8.0542283"><ele>486.0</ele><time>2026-04-04T08:36:03.938Z</time></trkpt><trkpt lat="45.598735" lon="8.0541633"><ele>486.0</ele><time>2026-04-04T08:36:04.937Z</time></trkpt><trkpt lat="45.598645" lon="8.054095"><ele>486.0</ele><time>2026-04-04T08:36:05.938Z</time></trkpt><trkpt lat="45.5985733" lon="8.0539783"><ele>486.0</ele><time>2026-04-04T08:36:06.938Z</time></trkpt><trkpt lat="45.59851" lon="8.0538083"><ele>484.0</ele><time>2026-04-04T08:36:07.938Z</time></trkpt><trkpt lat="45.5984467" lon="8.0536367"><ele>482.0</ele><time>2026-04-04T08:36:08.938Z</time></trkpt><trkpt lat="45.5983783" lon="8.053495"><ele>480.0</ele><time>2026-04-04T08:36:09.938Z</time></trkpt><trkpt lat="45.5982967" lon="8.0533767"><ele>478.0</ele><time>2026-04-04T08:36:10.938Z</time></trkpt><trkpt lat="45.5981883" lon="8.053305"><ele>478.0</ele><time>2026-04-04T08:36:11.938Z</time></trkpt><trkpt lat="45.5980667" lon="8.05328"><ele>478.0</ele><time>2026-04-04T08:36:12.937Z</time></trkpt><trkpt lat="45.597935" lon="8.0533017"><ele>478.0</ele><time>2026-04-04T08:36:13.938Z</time></trkpt><trkpt lat="45.5977917" lon="8.0533783"><ele>478.0</ele><time>2026-04-04T08:36:14.938Z</time></trkpt><trkpt lat="45.5976417" lon="8.05347"><ele>482.0</ele><time>2026-04-04T08:36:15.938Z</time></trkpt><trkpt lat="45.5974817" lon="8.0535733"><ele>486.0</ele><time>2026-04-04T08:36:16.938Z</time></trkpt><trkpt lat="45.59732" lon="8.05369"><ele>490.0</ele><time>2026-04-04T08:36:17.938Z</time></trkpt><trkpt lat="45.5971517" lon="8.0537833"><ele>501.0</ele><time>2026-04-04T08:36:18.938Z</time></trkpt><trkpt lat="45.59699" lon="8.0538733"><ele>512.0</ele><time>2026-04-04T08:36:19.938Z</time></trkpt><trkpt lat="45.596835" lon="8.0539717"><ele>523.0</ele><time>2026-04-04T08:36:20.938Z</time></trkpt><trkpt lat="45.5966767" lon="8.0540483"><ele>523.0</ele><time>2026-04-04T08:36:21.938Z</time></trkpt><trkpt lat="45.5965117" lon="8.0541133"><ele>523.0</ele><time>2026-04-04T08:36:22.938Z</time></trkpt><trkpt lat="45.59636" lon="8.05419"><ele>523.0</ele><time>2026-04-04T08:36:23.938Z</time></trkpt><trkpt lat="45.59619" lon="8.0542933"><ele>516.0</ele><time>2026-04-04T08:36:24.937Z</time></trkpt><trkpt lat="45.596025" lon="8.0543733"><ele>509.0</ele><time>2026-04-04T08:36:25.938Z</time></trkpt><trkpt lat="45.5958683" lon="8.054435"><ele>502.0</ele><time>2026-04-04T08:36:26.938Z</time></trkpt><trkpt lat="45.5957217" lon="8.0544783"><ele>502.0</ele><time>2026-04-04T08:36:27.937Z</time></trkpt><trkpt lat="45.595585" lon="8.0545"><ele>502.0</ele><time>2026-04-04T08:36:28.938Z</time></trkpt><trkpt lat="45.5954467" lon="8.0545083"><ele>502.0</ele><time>2026-04-04T08:36:29.938Z</time></trkpt><trkpt lat="45.5952933" lon="8.0544833"><ele>502.0</ele><time>2026-04-04T08:36:30.938Z</time></trkpt><trkpt lat="45.5951417" lon="8.0544633"><ele>500.33333333333337</ele><time>2026-04-04T08:36:31.938Z</time></trkpt><trkpt lat="45.594985" lon="8.05446"><ele>498.66666666666663</ele><time>2026-04-04T08:36:32.938Z</time></trkpt><trkpt lat="45.59482" lon="8.0544733"><ele>497.0</ele><time>2026-04-04T08:36:33.937Z</time></trkpt><trkpt lat="45.5946583" lon="8.0545033"><ele>497.0</ele><time>2026-04-04T08:36:34.938Z</time></trkpt><trkpt lat="45.594505" lon="8.0545633"><ele>497.0</ele><time>2026-04-04T08:36:35.938Z</time></trkpt><trkpt lat="45.594355" lon="8.0546333"><ele>497.0</ele><time>2026-04-04T08:36:36.938Z</time></trkpt><trkpt lat="45.5942117" lon="8.0546883"><ele>496.5</ele><time>2026-04-04T08:36:37.938Z</time></trkpt><trkpt lat="45.594075" lon="8.0547317"><ele>496.0</ele><time>2026-04-04T08:36:38.938Z</time></trkpt><trkpt lat="45.5939367" lon="8.0547533"><ele>495.5</ele><time>2026-04-04T08:36:39.938Z</time></trkpt><trkpt lat="45.5937967" lon="8.0547617"><ele>495.0</ele><time>2026-04-04T08:36:40.938Z</time></trkpt><trkpt lat="45.5936467" lon="8.0547733"><ele>494.33333333333337</ele><time>2026-04-04T08:36:41.938Z</time></trkpt><trkpt lat="45.593485" lon="8.05476"><ele>493.6666666666667</ele><time>2026-04-04T08:36:42.938Z</time></trkpt><trkpt lat="45.5933167" lon="8.0547733"><ele>493.0</ele><time>2026-04-04T08:36:43.938Z</time></trkpt><trkpt lat="45.5931317" lon="8.0547967"><ele>493.0</ele><time>2026-04-04T08:36:44.938Z</time></trkpt><trkpt lat="45.5929483" lon="8.0548217"><ele>493.0</ele><time>2026-04-04T08:36:45.938Z</time></trkpt><trkpt lat="45.59278" lon="8.0548333"><ele>493.0</ele><time>2026-04-04T08:36:46.937Z</time></trkpt><trkpt lat="45.5926333" lon="8.0548683"><ele>492.25</ele><time>2026-04-04T08:36:47.938Z</time></trkpt><trkpt lat="45.5925083" lon="8.0548617"><ele>491.5</ele><time>2026-04-04T08:36:48.938Z</time></trkpt><trkpt lat="45.592405" lon="8.0548383"><ele>490.75</ele><time>2026-04-04T08:36:49.938Z</time></trkpt><trkpt lat="45.5923067" lon="8.0547583"><ele>490.0</ele><time>2026-04-04T08:36:50.938Z</time></trkpt><trkpt lat="45.592215" lon="8.05465"><ele>490.0</ele><time>2026-04-04T08:36:51.938Z</time></trkpt><trkpt lat="45.59214" lon="8.0545067"><ele>490.0</ele><time>2026-04-04T08:36:52.938Z</time></trkpt><trkpt lat="45.59208" lon="8.0543283"><ele>490.0</ele><time>2026-04-04T08:36:53.938Z</time></trkpt><trkpt lat="45.5920383" lon="8.0541117"><ele>490.0</ele><time>2026-04-04T08:36:54.938Z</time></trkpt><trkpt lat="45.59199" lon="8.05388"><ele>490.33333333333337</ele><time>2026-04-04T08:36:55.938Z</time></trkpt><trkpt lat="45.591945" lon="8.053635"><ele>490.66666666666663</ele><time>2026-04-04T08:36:56.938Z</time></trkpt><trkpt lat="45.5918833" lon="8.05338"><ele>491.0</ele><time>2026-04-04T08:36:57.938Z</time></trkpt><trkpt lat="45.5918267" lon="8.0531483"><ele>491.0</ele><time>2026-04-04T08:36:58.938Z</time></trkpt><trkpt lat="45.5917683" lon="8.05293"><ele>491.0</ele><time>2026-04-04T08:36:59.938Z</time></trkpt><trkpt lat="45.5917167" lon="8.052745"><ele>491.0</ele><time>2026-04-04T08:37:00.938Z</time></trkpt><trkpt lat="45.59167" lon="8.05259"><ele>491.0</ele><time>2026-04-04T08:37:01.938Z</time></trkpt><trkpt lat="45.591635" lon="8.0524633"><ele>490.8</ele><time>2026-04-04T08:37:02.938Z</time></trkpt><trkpt lat="45.5915917" lon="8.0523067"><ele>490.6</ele><time>2026-04-04T08:37:04.938Z</time></trkpt><trkpt lat="45.59156" lon="8.0522017"><ele>490.4</ele><time>2026-04-04T08:37:06.938Z</time></trkpt><trkpt lat="45.5915617" lon="8.052075"><ele>490.2</ele><time>2026-04-04T08:37:08.938Z</time></trkpt><trkpt lat="45.59157" lon="8.0519183"><ele>490.0</ele><time>2026-04-04T08:37:10.938Z</time></trkpt><trkpt lat="45.591485" lon="8.05181"><ele>490.0</ele><time>2026-04-04T08:37:12.938Z</time></trkpt><trkpt lat="45.5914117" lon="8.0517617"><ele>490.0</ele><time>2026-04-04T08:37:13.938Z</time></trkpt><trkpt lat="45.5913233" lon="8.0517117"><ele>490.0</ele><time>2026-04-04T08:37:14.938Z</time></trkpt><trkpt lat="45.5912167" lon="8.0516617"><ele>490.0</ele><time>2026-04-04T08:37:15.938Z</time></trkpt><trkpt lat="45.5911033" lon="8.05161"><ele>490.0</ele><time>2026-04-04T08:37:16.938Z</time></trkpt><trkpt lat="45.5909917" lon="8.0515583"><ele>488.75</ele><time>2026-04-04T08:37:17.938Z</time></trkpt><trkpt lat="45.590875" lon="8.0514933"><ele>487.5</ele><time>2026-04-04T08:37:18.938Z</time></trkpt><trkpt lat="45.590745" lon="8.0514233"><ele>486.25</ele><time>2026-04-04T08:37:19.938Z</time></trkpt><trkpt lat="45.5906" lon="8.051335"><ele>485.0</ele><time>2026-04-04T08:37:20.938Z</time></trkpt><trkpt lat="45.5904617" lon="8.0512567"><ele>484.75</ele><time>2026-04-04T08:37:21.938Z</time></trkpt><trkpt lat="45.590325" lon="8.051185"><ele>484.5</ele><time>2026-04-04T08:37:22.938Z</time></trkpt><trkpt lat="45.590185" lon="8.0511333"><ele>484.25</ele><time>2026-04-04T08:37:23.938Z</time></trkpt><trkpt lat="45.590075" lon="8.0510633"><ele>484.0</ele><time>2026-04-04T08:37:24.938Z</time></trkpt><trkpt lat="45.58997" lon="8.050985"><ele>484.0</ele><time>2026-04-04T08:37:25.937Z</time></trkpt><trkpt lat="45.5898567" lon="8.050915"><ele>484.0</ele><time>2026-04-04T08:37:26.938Z</time></trkpt><trkpt lat="45.589745" lon="8.0508583"><ele>484.0</ele><time>2026-04-04T08:37:27.938Z</time></trkpt><trkpt lat="45.58965" lon="8.0508067"><ele>484.0</ele><time>2026-04-04T08:37:28.937Z</time></trkpt><trkpt lat="45.58957" lon="8.05076"><ele>484.0</ele><time>2026-04-04T08:37:29.938Z</time></trkpt><trkpt lat="45.5895017" lon="8.0507367"><ele>483.0</ele><time>2026-04-04T08:37:30.938Z</time></trkpt><trkpt lat="45.5894117" lon="8.0506433"><ele>482.0</ele><time>2026-04-04T08:37:32.938Z</time></trkpt><trkpt lat="45.58939" lon="8.05051"><ele>481.0</ele><time>2026-04-04T08:37:34.938Z</time></trkpt><trkpt lat="45.589405" lon="8.050405"><ele>480.0</ele><time>2026-04-04T08:37:35.938Z</time></trkpt><trkpt lat="45.5894367" lon="8.0502717"><ele>479.0</ele><time>2026-04-04T08:37:36.938Z</time></trkpt><trkpt lat="45.5895" lon="8.0500683"><ele>480.0</ele><time>2026-04-04T08:37:37.938Z</time></trkpt><trkpt lat="45.5895817" lon="8.0498133"><ele>481.0</ele><time>2026-04-04T08:37:38.938Z</time></trkpt><trkpt lat="45.58966" lon="8.0495417"><ele>482.0</ele><time>2026-04-04T08:37:39.938Z</time></trkpt><trkpt lat="45.58971" lon="8.0492783"><ele>482.0</ele><time>2026-04-04T08:37:40.937Z</time></trkpt><trkpt lat="45.5897533" lon="8.0490267"><ele>482.0</ele><time>2026-04-04T08:37:41.938Z</time></trkpt><trkpt lat="45.5898017" lon="8.0487783"><ele>482.0</ele><time>2026-04-04T08:37:42.938Z</time></trkpt><trkpt lat="45.5898467" lon="8.0485617"><ele>482.0</ele><time>2026-04-04T08:37:43.938Z</time></trkpt><trkpt lat="45.5898867" lon="8.0483617"><ele>482.0</ele><time>2026-04-04T08:37:44.938Z</time></trkpt><trkpt lat="45.5899217" lon="8.0481767"><ele>482.0</ele><time>2026-04-04T08:37:45.938Z</time></trkpt><trkpt lat="45.5899717" lon="8.04801"><ele>482.0</ele><time>2026-04-04T08:37:46.938Z</time></trkpt><trkpt lat="45.5900267" lon="8.0478167"><ele>482.0</ele><time>2026-04-04T08:37:47.938Z</time></trkpt><trkpt lat="45.590095" lon="8.04763"><ele>482.0</ele><time>2026-04-04T08:37:48.938Z</time></trkpt><trkpt lat="45.590175" lon="8.04746"><ele>482.0</ele><time>2026-04-04T08:37:49.938Z</time></trkpt><trkpt lat="45.5902633" lon="8.0472783"><ele>482.0</ele><time>2026-04-04T08:37:50.938Z</time></trkpt><trkpt lat="45.5903683" lon="8.0471"><ele>485.0</ele><time>2026-04-04T08:37:51.937Z</time></trkpt><trkpt lat="45.5904933" lon="8.0469533"><ele>488.0</ele><time>2026-04-04T08:37:52.938Z</time></trkpt><trkpt lat="45.5906367" lon="8.0468233"><ele>491.0</ele><time>2026-04-04T08:37:53.938Z</time></trkpt><trkpt lat="45.59078" lon="8.04669"><ele>488.66666666666663</ele><time>2026-04-04T08:37:54.938Z</time></trkpt><trkpt lat="45.590925" lon="8.04656"><ele>486.33333333333337</ele><time>2026-04-04T08:37:55.938Z</time></trkpt><trkpt lat="45.591075" lon="8.0464117"><ele>484.0</ele><time>2026-04-04T08:37:56.938Z</time></trkpt><trkpt lat="45.591215" lon="8.046235"><ele>488.6666666666667</ele><time>2026-04-04T08:37:57.938Z</time></trkpt><trkpt lat="45.5913467" lon="8.0460567"><ele>493.33333333333337</ele><time>2026-04-04T08:37:58.938Z</time></trkpt><trkpt lat="45.5914567" lon="8.0458883"><ele>498.0</ele><time>2026-04-04T08:37:59.938Z</time></trkpt><trkpt lat="45.5915517" lon="8.0457267"><ele>498.0</ele><time>2026-04-04T08:38:00.938Z</time></trkpt><trkpt lat="45.5916467" lon="8.045605"><ele>498.0</ele><time>2026-04-04T08:38:01.938Z</time></trkpt><trkpt lat="45.5917183" lon="8.0454683"><ele>498.0</ele><time>2026-04-04T08:38:02.938Z</time></trkpt><trkpt lat="45.5917617" lon="8.04531"><ele>498.0</ele><time>2026-04-04T08:38:03.938Z</time></trkpt><trkpt lat="45.591795" lon="8.0451383"><ele>498.0</ele><time>2026-04-04T08:38:04.938Z</time></trkpt><trkpt lat="45.5918017" lon="8.044965"><ele>498.0</ele><time>2026-04-04T08:38:05.938Z</time></trkpt><trkpt lat="45.5917767" lon="8.0447867"><ele>498.0</ele><time>2026-04-04T08:38:06.938Z</time></trkpt><trkpt lat="45.5917233" lon="8.04462"><ele>498.0</ele><time>2026-04-04T08:38:07.938Z</time></trkpt><trkpt lat="45.591665" lon="8.0444767"><ele>500.2</ele><time>2026-04-04T08:38:08.938Z</time></trkpt><trkpt lat="45.59159" lon="8.0443733"><ele>502.4</ele><time>2026-04-04T08:38:09.938Z</time></trkpt><trkpt lat="45.5914917" lon="8.0442817"><ele>504.59999999999997</ele><time>2026-04-04T08:38:10.937Z</time></trkpt><trkpt lat="45.5913917" lon="8.044215"><ele>506.79999999999995</ele><time>2026-04-04T08:38:11.937Z</time></trkpt><trkpt lat="45.5912867" lon="8.0441583"><ele>509.0</ele><time>2026-04-04T08:38:12.938Z</time></trkpt><trkpt lat="45.5911883" lon="8.0441217"><ele>509.2</ele><time>2026-04-04T08:38:13.938Z</time></trkpt><trkpt lat="45.5911033" lon="8.0441167"><ele>509.4</ele><time>2026-04-04T08:38:14.938Z</time></trkpt><trkpt lat="45.5910083" lon="8.0441683"><ele>509.6</ele><time>2026-04-04T08:38:15.938Z</time></trkpt><trkpt lat="45.5908967" lon="8.0442383"><ele>509.8</ele><time>2026-04-04T08:38:16.938Z</time></trkpt><trkpt lat="45.5907867" lon="8.0442933"><ele>510.0</ele><time>2026-04-04T08:38:17.938Z</time></trkpt><trkpt lat="45.5906833" lon="8.0443417"><ele>510.0</ele><time>2026-04-04T08:38:18.938Z</time></trkpt><trkpt lat="45.59059" lon="8.04436"><ele>510.0</ele><time>2026-04-04T08:38:19.938Z</time></trkpt><trkpt lat="45.5905133" lon="8.0443583"><ele>510.0</ele><time>2026-04-04T08:38:20.938Z</time></trkpt><trkpt lat="45.59045" lon="8.044325"><ele>510.0</ele><time>2026-04-04T08:38:21.938Z</time></trkpt><trkpt lat="45.5903867" lon="8.04425"><ele>510.0</ele><time>2026-04-04T08:38:22.938Z</time></trkpt><trkpt lat="45.5903" lon="8.0441833"><ele>510.0</ele><time>2026-04-04T08:38:23.938Z</time></trkpt><trkpt lat="45.5902117" lon="8.0441267"><ele>510.2</ele><time>2026-04-04T08:38:24.937Z</time></trkpt><trkpt lat="45.5901233" lon="8.044095"><ele>510.4</ele><time>2026-04-04T08:38:25.938Z</time></trkpt><trkpt lat="45.590035" lon="8.0441"><ele>510.6</ele><time>2026-04-04T08:38:26.938Z</time></trkpt><trkpt lat="45.5899417" lon="8.0441483"><ele>510.8</ele><time>2026-04-04T08:38:27.938Z</time></trkpt><trkpt lat="45.5898383" lon="8.0442467"><ele>511.0</ele><time>2026-04-04T08:38:28.938Z</time></trkpt><trkpt lat="45.5897167" lon="8.044405"><ele>511.0</ele><time>2026-04-04T08:38:29.938Z</time></trkpt><trkpt lat="45.5896033" lon="8.0445517"><ele>511.0</ele><time>2026-04-04T08:38:30.938Z</time></trkpt><trkpt lat="45.589495" lon="8.04471"><ele>511.0</ele><time>2026-04-04T08:38:31.938Z</time></trkpt><trkpt lat="45.5893917" lon="8.0448233"><ele>511.0</ele><time>2026-04-04T08:38:32.938Z</time></trkpt><trkpt lat="45.5892917" lon="8.0449217"><ele>513.25</ele><time>2026-04-04T08:38:33.938Z</time></trkpt><trkpt lat="45.5891767" lon="8.04501"><ele>515.5</ele><time>2026-04-04T08:38:34.938Z</time></trkpt><trkpt lat="45.58905" lon="8.045105"><ele>517.75</ele><time>2026-04-04T08:38:35.937Z</time></trkpt><trkpt lat="45.5889417" lon="8.04518"><ele>520.0</ele><time>2026-04-04T08:38:36.937Z</time></trkpt><trkpt lat="45.588835" lon="8.045235"><ele>520.0</ele><time>2026-04-04T08:38:37.937Z</time></trkpt><trkpt lat="45.58873" lon="8.04528"><ele>520.0</ele><time>2026-04-04T08:38:38.937Z</time></trkpt><trkpt lat="45.588635" lon="8.0453"><ele>520.0</ele><time>2026-04-04T08:38:39.937Z</time></trkpt><trkpt lat="45.5885617" lon="8.0453017"><ele>520.0</ele><time>2026-04-04T08:38:40.936Z</time></trkpt><trkpt lat="45.5884583" lon="8.0452433"><ele>520.0</ele><time>2026-04-04T08:38:42.937Z</time></trkpt><trkpt lat="45.5885117" lon="8.0451633"><ele>520.0</ele><time>2026-04-04T08:38:44.937Z</time></trkpt><trkpt lat="45.5886433" lon="8.0451267"><ele>520.0</ele><time>2026-04-04T08:38:46.937Z</time></trkpt><trkpt lat="45.5887433" lon="8.0450817"><ele>520.0</ele><time>2026-04-04T08:38:47.937Z</time></trkpt><trkpt lat="45.5888533" lon="8.0450083"><ele>520.0</ele><time>2026-04-04T08:38:48.937Z</time></trkpt><trkpt lat="45.58897" lon="8.0448833"><ele>522.0</ele><time>2026-04-04T08:38:49.937Z</time></trkpt><trkpt lat="45.5890783" lon="8.04474"><ele>524.0</ele><time>2026-04-04T08:38:50.937Z</time></trkpt><trkpt lat="45.58918" lon="8.044605"><ele>526.0</ele><time>2026-04-04T08:38:51.936Z</time></trkpt><trkpt lat="45.5892683" lon="8.0444517"><ele>528.0</ele><time>2026-04-04T08:38:52.937Z</time></trkpt><trkpt lat="45.5893133" lon="8.044285"><ele>529.75</ele><time>2026-04-04T08:38:53.937Z</time></trkpt><trkpt lat="45.5893433" lon="8.0441017"><ele>531.5</ele><time>2026-04-04T08:38:54.937Z</time></trkpt><trkpt lat="45.5893667" lon="8.0439033"><ele>533.25</ele><time>2026-04-04T08:38:55.937Z</time></trkpt><trkpt lat="45.58937" lon="8.0437267"><ele>535.0</ele><time>2026-04-04T08:38:56.937Z</time></trkpt><trkpt lat="45.5893733" lon="8.0435783"><ele>535.0</ele><time>2026-04-04T08:38:57.937Z</time></trkpt><trkpt lat="45.5893967" lon="8.04346"><ele>535.0</ele><time>2026-04-04T08:38:58.937Z</time></trkpt><trkpt lat="45.5894317" lon="8.043345"><ele>535.0</ele><time>2026-04-04T08:38:59.937Z</time></trkpt><trkpt lat="45.589475" lon="8.043205"><ele>535.0</ele><time>2026-04-04T08:39:00.937Z</time></trkpt><trkpt lat="45.5895267" lon="8.0430583"><ele>535.0</ele><time>2026-04-04T08:39:01.937Z</time></trkpt><trkpt lat="45.5895783" lon="8.0429283"><ele>535.0</ele><time>2026-04-04T08:39:02.937Z</time></trkpt><trkpt lat="45.5896317" lon="8.04281"><ele>535.0</ele><time>2026-04-04T08:39:03.937Z</time></trkpt><trkpt lat="45.5896867" lon="8.04271"><ele>535.0</ele><time>2026-04-04T08:39:04.937Z</time></trkpt><trkpt lat="45.589735" lon="8.0426033"><ele>535.0</ele><time>2026-04-04T08:39:05.937Z</time></trkpt><trkpt lat="45.5897667" lon="8.0424583"><ele>535.0</ele><time>2026-04-04T08:39:06.936Z</time></trkpt><trkpt lat="45.5897917" lon="8.04231"><ele>536.2</ele><time>2026-04-04T08:39:07.937Z</time></trkpt><trkpt lat="45.5898133" lon="8.0421467"><ele>537.4</ele><time>2026-04-04T08:39:08.937Z</time></trkpt><trkpt lat="45.5898467" lon="8.042015"><ele>538.6</ele><time>2026-04-04T08:39:09.937Z</time></trkpt><trkpt lat="45.5898933" lon="8.0418833"><ele>539.8</ele><time>2026-04-04T08:39:10.937Z</time></trkpt><trkpt lat="45.5899633" lon="8.0417617"><ele>541.0</ele><time>2026-04-04T08:39:11.937Z</time></trkpt><trkpt lat="45.59005" lon="8.0416317"><ele>542.0</ele><time>2026-04-04T08:39:12.937Z</time></trkpt><trkpt lat="45.59014" lon="8.0415033"><ele>543.0</ele><time>2026-04-04T08:39:13.937Z</time></trkpt><trkpt lat="45.5902467" lon="8.0413667"><ele>544.0</ele><time>2026-04-04T08:39:14.937Z</time></trkpt><trkpt lat="45.590365" lon="8.0412183"><ele>545.0</ele><time>2026-04-04T08:39:15.937Z</time></trkpt><trkpt lat="45.59048" lon="8.0410567"><ele>545.3333333333333</ele><time>2026-04-04T08:39:16.937Z</time></trkpt><trkpt lat="45.590605" lon="8.0408933"><ele>545.6666666666666</ele><time>2026-04-04T08:39:17.937Z</time></trkpt><trkpt lat="45.590735" lon="8.0407333"><ele>546.0</ele><time>2026-04-04T08:39:18.937Z</time></trkpt><trkpt lat="45.5908583" lon="8.0405617"><ele>546.6666666666666</ele><time>2026-04-04T08:39:19.937Z</time></trkpt><trkpt lat="45.5909933" lon="8.040405"><ele>547.3333333333333</ele><time>2026-04-04T08:39:20.937Z</time></trkpt><trkpt lat="45.5911117" lon="8.04023"><ele>548.0</ele><time>2026-04-04T08:39:21.937Z</time></trkpt><trkpt lat="45.5912367" lon="8.040075"><ele>549.0</ele><time>2026-04-04T08:39:22.937Z</time></trkpt><trkpt lat="45.5913333" lon="8.03992"><ele>550.0</ele><time>2026-04-04T08:39:23.937Z</time></trkpt><trkpt lat="45.5914133" lon="8.039795"><ele>551.0</ele><time>2026-04-04T08:39:24.937Z</time></trkpt><trkpt lat="45.5914933" lon="8.039685"><ele>552.0</ele><time>2026-04-04T08:39:25.937Z</time></trkpt><trkpt lat="45.5915567" lon="8.0395833"><ele>552.0</ele><time>2026-04-04T08:39:26.937Z</time></trkpt><trkpt lat="45.5916033" lon="8.0394983"><ele>552.0</ele><time>2026-04-04T08:39:27.937Z</time></trkpt><trkpt lat="45.5916467" lon="8.0394233"><ele>552.0</ele><time>2026-04-04T08:39:29.937Z</time></trkpt><trkpt lat="45.5916317" lon="8.03933"><ele>552.0</ele><time>2026-04-04T08:39:36.937Z</time></trkpt><trkpt lat="45.5915333" lon="8.039235"><ele>552.0</ele><time>2026-04-04T08:39:38.937Z</time></trkpt><trkpt lat="45.59146" lon="8.0391367"><ele>552.0</ele><time>2026-04-04T08:39:39.937Z</time></trkpt><trkpt lat="45.5913783" lon="8.0390267"><ele>552.0</ele><time>2026-04-04T08:39:40.937Z</time></trkpt><trkpt lat="45.5912867" lon="8.03892"><ele>552.0</ele><time>2026-04-04T08:39:41.937Z</time></trkpt><trkpt lat="45.5911883" lon="8.0388133"><ele>552.0</ele><time>2026-04-04T08:39:42.937Z</time></trkpt><trkpt lat="45.5911" lon="8.0387117"><ele>552.0</ele><time>2026-04-04T08:39:43.937Z</time></trkpt><trkpt lat="45.59101" lon="8.0386017"><ele>552.0</ele><time>2026-04-04T08:39:44.937Z</time></trkpt><trkpt lat="45.59092" lon="8.0385"><ele>552.0</ele><time>2026-04-04T08:39:45.937Z</time></trkpt><trkpt lat="45.5908367" lon="8.0383933"><ele>552.0</ele><time>2026-04-04T08:39:46.937Z</time></trkpt><trkpt lat="45.5907417" lon="8.0382667"><ele>552.0</ele><time>2026-04-04T08:39:47.937Z</time></trkpt><trkpt lat="45.5906583" lon="8.0381567"><ele>551.6666666666666</ele><time>2026-04-04T08:39:48.937Z</time></trkpt><trkpt lat="45.5906017" lon="8.0380567"><ele>551.3333333333334</ele><time>2026-04-04T08:39:49.936Z</time></trkpt><trkpt lat="45.5905417" lon="8.038"><ele>551.0</ele><time>2026-04-04T08:39:50.937Z</time></trkpt><trkpt lat="45.5904583" lon="8.0379217"><ele>550.6666666666667</ele><time>2026-04-04T08:39:52.937Z</time></trkpt><trkpt lat="45.590415" lon="8.037845"><ele>550.3333333333334</ele><time>2026-04-04T08:40:36.937Z</time></trkpt><trkpt lat="45.59033" lon="8.0377533"><ele>550.0</ele><time>2026-04-04T08:40:38.937Z</time></trkpt><trkpt lat="45.5902717" lon="8.0376867"><ele>550.0</ele><time>2026-04-04T08:40:39.937Z</time></trkpt><trkpt lat="45.5902067" lon="8.0376117"><ele>550.0</ele><time>2026-04-04T08:40:40.937Z</time></trkpt><trkpt lat="45.5901383" lon="8.0375333"><ele>550.0</ele><time>2026-04-04T08:40:41.937Z</time></trkpt><trkpt lat="45.5900767" lon="8.0374567"><ele>550.0</ele><time>2026-04-04T08:40:42.937Z</time></trkpt><trkpt lat="45.5900467" lon="8.0373617"><ele>550.0</ele><time>2026-04-04T08:40:43.937Z</time></trkpt><trkpt lat="45.590035" lon="8.037265"><ele>550.0</ele><time>2026-04-04T08:40:44.937Z</time></trkpt><trkpt lat="45.590045" lon="8.03714"><ele>549.25</ele><time>2026-04-04T08:40:45.937Z</time></trkpt><trkpt lat="45.5900717" lon="8.0370017"><ele>548.5</ele><time>2026-04-04T08:40:46.937Z</time></trkpt><trkpt lat="45.5901133" lon="8.0368333"><ele>547.75</ele><time>2026-04-04T08:40:47.937Z</time></trkpt><trkpt lat="45.5901317" lon="8.0366633"><ele>547.0</ele><time>2026-04-04T08:40:48.937Z</time></trkpt><trkpt lat="45.59014" lon="8.036495"><ele>545.6</ele><time>2026-04-04T08:40:49.937Z</time></trkpt><trkpt lat="45.59013" lon="8.036335"><ele>544.2</ele><time>2026-04-04T08:40:50.936Z</time></trkpt><trkpt lat="45.5901233" lon="8.0361933"><ele>542.8</ele><time>2026-04-04T08:40:51.937Z</time></trkpt><trkpt lat="45.5901183" lon="8.03607"><ele>541.4</ele><time>2026-04-04T08:40:52.936Z</time></trkpt><trkpt lat="45.5901267" lon="8.03595"><ele>540.0</ele><time>2026-04-04T08:40:53.937Z</time></trkpt><trkpt lat="45.59015" lon="8.0358067"><ele>541.2</ele><time>2026-04-04T08:40:54.937Z</time></trkpt><trkpt lat="45.5901967" lon="8.0356633"><ele>542.4</ele><time>2026-04-04T08:40:55.937Z</time></trkpt><trkpt lat="45.5902367" lon="8.0355217"><ele>543.6</ele><time>2026-04-04T08:40:56.937Z</time></trkpt><trkpt lat="45.5902817" lon="8.035395"><ele>544.8</ele><time>2026-04-04T08:40:57.937Z</time></trkpt><trkpt lat="45.5903433" lon="8.0352767"><ele>546.0</ele><time>2026-04-04T08:40:58.937Z</time></trkpt><trkpt lat="45.5904133" lon="8.0351717"><ele>546.0</ele><time>2026-04-04T08:40:59.937Z</time></trkpt><trkpt lat="45.590495" lon="8.0350783"><ele>546.0</ele><time>2026-04-04T08:41:00.937Z</time></trkpt><trkpt lat="45.5906017" lon="8.03499"><ele>546.0</ele><time>2026-04-04T08:41:01.937Z</time></trkpt><trkpt lat="45.5907183" lon="8.034905"><ele>546.0</ele><time>2026-04-04T08:41:02.937Z</time></trkpt><trkpt lat="45.5908467" lon="8.0347867"><ele>544.6666666666666</ele><time>2026-04-04T08:41:03.937Z</time></trkpt><trkpt lat="45.591015" lon="8.0346667"><ele>543.3333333333333</ele><time>2026-04-04T08:41:04.937Z</time></trkpt><trkpt lat="45.591195" lon="8.0345483"><ele>542.0</ele><time>2026-04-04T08:41:05.937Z</time></trkpt><trkpt lat="45.5913683" lon="8.0344317"><ele>542.0</ele><time>2026-04-04T08:41:06.937Z</time></trkpt><trkpt lat="45.59153" lon="8.0343217"><ele>542.0</ele><time>2026-04-04T08:41:07.937Z</time></trkpt><trkpt lat="45.5916817" lon="8.034215"><ele>542.0</ele><time>2026-04-04T08:41:08.937Z</time></trkpt><trkpt lat="45.5918083" lon="8.0341183"><ele>541.25</ele><time>2026-04-04T08:41:09.937Z</time></trkpt><trkpt lat="45.5919117" lon="8.0340183"><ele>540.5</ele><time>2026-04-04T08:41:10.936Z</time></trkpt><trkpt lat="45.5920167" lon="8.0339"><ele>539.75</ele><time>2026-04-04T08:41:11.937Z</time></trkpt><trkpt lat="45.592115" lon="8.0337517"><ele>539.0</ele><time>2026-04-04T08:41:12.937Z</time></trkpt><trkpt lat="45.59221" lon="8.033585"><ele>539.0</ele><time>2026-04-04T08:41:13.937Z</time></trkpt><trkpt lat="45.59231" lon="8.0333917"><ele>539.0</ele><time>2026-04-04T08:41:14.937Z</time></trkpt><trkpt lat="45.5924217" lon="8.03319"><ele>539.0</ele><time>2026-04-04T08:41:15.936Z</time></trkpt><trkpt lat="45.5925317" lon="8.0329967"><ele>540.0</ele><time>2026-04-04T08:41:16.937Z</time></trkpt><trkpt lat="45.59264" lon="8.0328267"><ele>541.0</ele><time>2026-04-04T08:41:17.937Z</time></trkpt><trkpt lat="45.5927283" lon="8.0326717"><ele>542.0</ele><time>2026-04-04T08:41:18.937Z</time></trkpt><trkpt lat="45.5927967" lon="8.03253"><ele>543.0</ele><time>2026-04-04T08:41:19.937Z</time></trkpt><trkpt lat="45.5928417" lon="8.0323783"><ele>543.0</ele><time>2026-04-04T08:41:20.937Z</time></trkpt><trkpt lat="45.5928617" lon="8.03222"><ele>543.0</ele><time>2026-04-04T08:41:21.937Z</time></trkpt><trkpt lat="45.592875" lon="8.0320433"><ele>543.0</ele><time>2026-04-04T08:41:22.937Z</time></trkpt><trkpt lat="45.5928967" lon="8.0318717"><ele>543.0</ele><time>2026-04-04T08:41:23.937Z</time></trkpt><trkpt lat="45.5929383" lon="8.03172"><ele>540.5</ele><time>2026-04-04T08:41:24.936Z</time></trkpt><trkpt lat="45.592995" lon="8.0315833"><ele>538.0</ele><time>2026-04-04T08:41:25.937Z</time></trkpt><trkpt lat="45.5930767" lon="8.03144"><ele>535.5</ele><time>2026-04-04T08:41:26.937Z</time></trkpt><trkpt lat="45.5931867" lon="8.0313083"><ele>533.0</ele><time>2026-04-04T08:41:27.937Z</time></trkpt><trkpt lat="45.59329" lon="8.03118"><ele>533.0</ele><time>2026-04-04T08:41:28.937Z</time></trkpt><trkpt lat="45.5933733" lon="8.031065"><ele>533.0</ele><time>2026-04-04T08:41:29.937Z</time></trkpt><trkpt lat="45.593445" lon="8.0309733"><ele>533.0</ele><time>2026-04-04T08:41:30.936Z</time></trkpt><trkpt lat="45.5934917" lon="8.030865"><ele>533.0</ele><time>2026-04-04T08:41:31.936Z</time></trkpt><trkpt lat="45.59352" lon="8.0307483"><ele>533.0</ele><time>2026-04-04T08:41:32.937Z</time></trkpt><trkpt lat="45.5935233" lon="8.030595"><ele>533.0</ele><time>2026-04-04T08:41:33.937Z</time></trkpt><trkpt lat="45.5935033" lon="8.0304167"><ele>533.0</ele><time>2026-04-04T08:41:34.937Z</time></trkpt><trkpt lat="45.593455" lon="8.030195"><ele>533.0</ele><time>2026-04-04T08:41:35.937Z</time></trkpt><trkpt lat="45.593415" lon="8.0299767"><ele>533.0</ele><time>2026-04-04T08:41:36.937Z</time></trkpt><trkpt lat="45.593385" lon="8.0297667"><ele>534.4</ele><time>2026-04-04T08:41:37.937Z</time></trkpt><trkpt lat="45.5933567" lon="8.0295883"><ele>535.8</ele><time>2026-04-04T08:41:38.937Z</time></trkpt><trkpt lat="45.5933167" lon="8.02944"><ele>537.2</ele><time>2026-04-04T08:41:39.936Z</time></trkpt><trkpt lat="45.59327" lon="8.0293483"><ele>538.6</ele><time>2026-04-04T08:41:40.936Z</time></trkpt><trkpt lat="45.59318" lon="8.0292867"><ele>540.0</ele><time>2026-04-04T08:41:41.937Z</time></trkpt><trkpt lat="45.59306" lon="8.0292733"><ele>540.0</ele><time>2026-04-04T08:41:42.937Z</time></trkpt><trkpt lat="45.592925" lon="8.0292967"><ele>540.0</ele><time>2026-04-04T08:41:43.937Z</time></trkpt><trkpt lat="45.5927867" lon="8.0293617"><ele>540.0</ele><time>2026-04-04T08:41:44.937Z</time></trkpt><trkpt lat="45.592625" lon="8.02946"><ele>545.0</ele><time>2026-04-04T08:41:45.937Z</time></trkpt><trkpt lat="45.5924717" lon="8.0295617"><ele>550.0</ele><time>2026-04-04T08:41:46.937Z</time></trkpt><trkpt lat="45.5923317" lon="8.0296517"><ele>555.0</ele><time>2026-04-04T08:41:47.937Z</time></trkpt><trkpt lat="45.5922067" lon="8.029775"><ele>555.0</ele><time>2026-04-04T08:41:48.936Z</time></trkpt><trkpt lat="45.5920883" lon="8.0298883"><ele>555.0</ele><time>2026-04-04T08:41:49.937Z</time></trkpt><trkpt lat="45.5919733" lon="8.0300033"><ele>555.0</ele><time>2026-04-04T08:41:50.936Z</time></trkpt><trkpt lat="45.59187" lon="8.030095"><ele>555.0</ele><time>2026-04-04T08:41:51.937Z</time></trkpt><trkpt lat="45.5917583" lon="8.0301917"><ele>556.2</ele><time>2026-04-04T08:41:52.937Z</time></trkpt><trkpt lat="45.5916517" lon="8.03028"><ele>557.4</ele><time>2026-04-04T08:41:53.937Z</time></trkpt><trkpt lat="45.59156" lon="8.0303567"><ele>558.6</ele><time>2026-04-04T08:41:54.937Z</time></trkpt><trkpt lat="45.5914617" lon="8.0304083"><ele>559.8</ele><time>2026-04-04T08:41:55.937Z</time></trkpt><trkpt lat="45.59137" lon="8.0304483"><ele>561.0</ele><time>2026-04-04T08:41:56.937Z</time></trkpt><trkpt lat="45.5912633" lon="8.0304583"><ele>564.0</ele><time>2026-04-04T08:41:57.937Z</time></trkpt><trkpt lat="45.5911467" lon="8.0304567"><ele>567.0</ele><time>2026-04-04T08:41:58.937Z</time></trkpt><trkpt lat="45.5910217" lon="8.03042"><ele>570.0</ele><time>2026-04-04T08:41:59.937Z</time></trkpt><trkpt lat="45.5908917" lon="8.030385"><ele>573.0</ele><time>2026-04-04T08:42:00.937Z</time></trkpt><trkpt lat="45.590745" lon="8.0304067"><ele>573.0</ele><time>2026-04-04T08:42:01.937Z</time></trkpt><trkpt lat="45.590605" lon="8.0304617"><ele>573.0</ele><time>2026-04-04T08:42:02.937Z</time></trkpt><trkpt lat="45.5904433" lon="8.0304983"><ele>573.0</ele><time>2026-04-04T08:42:03.937Z</time></trkpt><trkpt lat="45.5903017" lon="8.0305417"><ele>574.0</ele><time>2026-04-04T08:42:04.937Z</time></trkpt><trkpt lat="45.5901333" lon="8.03055"><ele>575.0</ele><time>2026-04-04T08:42:05.937Z</time></trkpt><trkpt lat="45.5899517" lon="8.0305883"><ele>576.0</ele><time>2026-04-04T08:42:06.937Z</time></trkpt><trkpt lat="45.5897933" lon="8.03063"><ele>576.0</ele><time>2026-04-04T08:42:07.936Z</time></trkpt><trkpt lat="45.589615" lon="8.0306833"><ele>576.0</ele><time>2026-04-04T08:42:08.937Z</time></trkpt><trkpt lat="45.5894433" lon="8.0307433"><ele>576.0</ele><time>2026-04-04T08:42:09.937Z</time></trkpt><trkpt lat="45.5892967" lon="8.030775"><ele>573.8</ele><time>2026-04-04T08:42:10.937Z</time></trkpt><trkpt lat="45.589175" lon="8.03079"><ele>571.6</ele><time>2026-04-04T08:42:11.937Z</time></trkpt><trkpt lat="45.5890733" lon="8.03077"><ele>569.4</ele><time>2026-04-04T08:42:12.936Z</time></trkpt><trkpt lat="45.5889983" lon="8.030745"><ele>567.2</ele><time>2026-04-04T08:42:13.937Z</time></trkpt><trkpt lat="45.5889267" lon="8.0306967"><ele>565.0</ele><time>2026-04-04T08:42:15.937Z</time></trkpt><trkpt lat="45.5889417" lon="8.03058"><ele>565.0</ele><time>2026-04-04T08:42:21.937Z</time></trkpt><trkpt lat="45.5889883" lon="8.03051"><ele>565.0</ele><time>2026-04-04T08:42:22.936Z</time></trkpt><trkpt lat="45.5890583" lon="8.0304133"><ele>565.0</ele><time>2026-04-04T08:42:23.937Z</time></trkpt><trkpt lat="45.5891483" lon="8.0303183"><ele>565.0</ele><time>2026-04-04T08:42:24.937Z</time></trkpt><trkpt lat="45.5892417" lon="8.0302133"><ele>565.0</ele><time>2026-04-04T08:42:25.937Z</time></trkpt><trkpt lat="45.5893683" lon="8.0301117"><ele>568.3333333333334</ele><time>2026-04-04T08:42:26.937Z</time></trkpt><trkpt lat="45.5895183" lon="8.0300117"><ele>571.6666666666666</ele><time>2026-04-04T08:42:27.937Z</time></trkpt><trkpt lat="45.58969" lon="8.0299567"><ele>575.0</ele><time>2026-04-04T08:42:28.937Z</time></trkpt><trkpt lat="45.58986" lon="8.0299067"><ele>575.0</ele><time>2026-04-04T08:42:29.937Z</time></trkpt><trkpt lat="45.590055" lon="8.02987"><ele>575.0</ele><time>2026-04-04T08:42:30.936Z</time></trkpt><trkpt lat="45.5902467" lon="8.0298217"><ele>575.0</ele><time>2026-04-04T08:42:31.937Z</time></trkpt><trkpt lat="45.5904133" lon="8.0297867"><ele>577.6666666666666</ele><time>2026-04-04T08:42:32.937Z</time></trkpt><trkpt lat="45.5905683" lon="8.0297267"><ele>580.3333333333334</ele><time>2026-04-04T08:42:33.937Z</time></trkpt><trkpt lat="45.59073" lon="8.02964"><ele>583.0</ele><time>2026-04-04T08:42:34.937Z</time></trkpt><trkpt lat="45.5908917" lon="8.0295383"><ele>583.0</ele><time>2026-04-04T08:42:35.937Z</time></trkpt><trkpt lat="45.5910383" lon="8.0294083"><ele>583.0</ele><time>2026-04-04T08:42:36.937Z</time></trkpt><trkpt lat="45.5911833" lon="8.0292583"><ele>583.0</ele><time>2026-04-04T08:42:37.937Z</time></trkpt><trkpt lat="45.5913183" lon="8.0291"><ele>584.6666666666667</ele><time>2026-04-04T08:42:38.937Z</time></trkpt><trkpt lat="45.5914333" lon="8.028915"><ele>586.3333333333334</ele><time>2026-04-04T08:42:39.937Z</time></trkpt><trkpt lat="45.5915317" lon="8.0287217"><ele>588.0</ele><time>2026-04-04T08:42:40.937Z</time></trkpt><trkpt lat="45.591625" lon="8.028535"><ele>588.0</ele><time>2026-04-04T08:42:41.937Z</time></trkpt><trkpt lat="45.5917117" lon="8.0283467"><ele>588.0</ele><time>2026-04-04T08:42:42.936Z</time></trkpt><trkpt lat="45.591805" lon="8.028145"><ele>588.0</ele><time>2026-04-04T08:42:43.937Z</time></trkpt><trkpt lat="45.591895" lon="8.0279333"><ele>587.6666666666666</ele><time>2026-04-04T08:42:44.937Z</time></trkpt><trkpt lat="45.5919867" lon="8.02773"><ele>587.3333333333333</ele><time>2026-04-04T08:42:45.937Z</time></trkpt><trkpt lat="45.5920783" lon="8.027525"><ele>587.0</ele><time>2026-04-04T08:42:46.937Z</time></trkpt><trkpt lat="45.592155" lon="8.0273117"><ele>587.6666666666666</ele><time>2026-04-04T08:42:47.937Z</time></trkpt><trkpt lat="45.59225" lon="8.0271"><ele>588.3333333333334</ele><time>2026-04-04T08:42:48.936Z</time></trkpt><trkpt lat="45.5923383" lon="8.02691"><ele>589.0</ele><time>2026-04-04T08:42:49.937Z</time></trkpt><trkpt lat="45.5924467" lon="8.0267383"><ele>589.0</ele><time>2026-04-04T08:42:50.937Z</time></trkpt><trkpt lat="45.5925667" lon="8.0265733"><ele>589.0</ele><time>2026-04-04T08:42:51.937Z</time></trkpt><trkpt lat="45.5926883" lon="8.0264233"><ele>589.0</ele><time>2026-04-04T08:42:52.937Z</time></trkpt><trkpt lat="45.592805" lon="8.0262617"><ele>588.3333333333334</ele><time>2026-04-04T08:42:53.936Z</time></trkpt><trkpt lat="45.592925" lon="8.0261167"><ele>587.6666666666666</ele><time>2026-04-04T08:42:54.937Z</time></trkpt><trkpt lat="45.5930367" lon="8.025955"><ele>587.0</ele><time>2026-04-04T08:42:55.937Z</time></trkpt><trkpt lat="45.5931333" lon="8.0258233"><ele>588.25</ele><time>2026-04-04T08:42:56.937Z</time></trkpt><trkpt lat="45.5932383" lon="8.0257"><ele>589.5</ele><time>2026-04-04T08:42:57.937Z</time></trkpt><trkpt lat="45.593355" lon="8.025585"><ele>590.75</ele><time>2026-04-04T08:42:58.937Z</time></trkpt><trkpt lat="45.5934717" lon="8.0254667"><ele>592.0</ele><time>2026-04-04T08:42:59.936Z</time></trkpt><trkpt lat="45.5935917" lon="8.0253733"><ele>593.0</ele><time>2026-04-04T08:43:00.937Z</time></trkpt><trkpt lat="45.5936933" lon="8.0253033"><ele>594.0</ele><time>2026-04-04T08:43:01.937Z</time></trkpt><trkpt lat="45.5938083" lon="8.0252267"><ele>595.0</ele><time>2026-04-04T08:43:02.937Z</time></trkpt><trkpt lat="45.5939217" lon="8.02515"><ele>596.0</ele><time>2026-04-04T08:43:03.937Z</time></trkpt><trkpt lat="45.5940383" lon="8.0250867"><ele>596.0</ele><time>2026-04-04T08:43:04.937Z</time></trkpt><trkpt lat="45.5941583" lon="8.0250317"><ele>596.0</ele><time>2026-04-04T08:43:05.937Z</time></trkpt><trkpt lat="45.5942767" lon="8.024985"><ele>596.0</ele><time>2026-04-04T08:43:06.936Z</time></trkpt><trkpt lat="45.5944117" lon="8.024945"><ele>596.0</ele><time>2026-04-04T08:43:07.937Z</time></trkpt><trkpt lat="45.5945567" lon="8.0249183"><ele>599.0</ele><time>2026-04-04T08:43:08.937Z</time></trkpt><trkpt lat="45.594695" lon="8.0248833"><ele>602.0</ele><time>2026-04-04T08:43:09.937Z</time></trkpt><trkpt lat="45.5948367" lon="8.0248733"><ele>605.0</ele><time>2026-04-04T08:43:10.936Z</time></trkpt><trkpt lat="45.5949583" lon="8.0248433"><ele>608.0</ele><time>2026-04-04T08:43:11.937Z</time></trkpt><trkpt lat="45.595065" lon="8.0248267"><ele>608.0</ele><time>2026-04-04T08:43:12.937Z</time></trkpt><trkpt lat="45.595165" lon="8.0248317"><ele>608.0</ele><time>2026-04-04T08:43:13.937Z</time></trkpt><trkpt lat="45.5952583" lon="8.02483"><ele>608.0</ele><time>2026-04-04T08:43:14.937Z</time></trkpt><trkpt lat="45.5953633" lon="8.0248333"><ele>608.0</ele><time>2026-04-04T08:43:15.937Z</time></trkpt><trkpt lat="45.59547" lon="8.0248367"><ele>608.0</ele><time>2026-04-04T08:43:16.937Z</time></trkpt><trkpt lat="45.5955733" lon="8.0248317"><ele>609.25</ele><time>2026-04-04T08:43:17.937Z</time></trkpt><trkpt lat="45.5956967" lon="8.0248133"><ele>610.5</ele><time>2026-04-04T08:43:18.937Z</time></trkpt><trkpt lat="45.5958217" lon="8.02477"><ele>611.75</ele><time>2026-04-04T08:43:19.937Z</time></trkpt><trkpt lat="45.5959283" lon="8.024705"><ele>613.0</ele><time>2026-04-04T08:43:20.937Z</time></trkpt><trkpt lat="45.5960333" lon="8.0246217"><ele>613.0</ele><time>2026-04-04T08:43:21.937Z</time></trkpt><trkpt lat="45.5961333" lon="8.0245317"><ele>613.0</ele><time>2026-04-04T08:43:22.937Z</time></trkpt><trkpt lat="45.5962233" lon="8.0244283"><ele>613.0</ele><time>2026-04-04T08:43:23.937Z</time></trkpt><trkpt lat="45.5963317" lon="8.0243367"><ele>613.0</ele><time>2026-04-04T08:43:24.937Z</time></trkpt><trkpt lat="45.5964333" lon="8.0242583"><ele>614.4</ele><time>2026-04-04T08:43:25.936Z</time></trkpt><trkpt lat="45.5965333" lon="8.0241883"><ele>615.8</ele><time>2026-04-04T08:43:26.937Z</time></trkpt><trkpt lat="45.5966417" lon="8.0241467"><ele>617.2</ele><time>2026-04-04T08:43:27.937Z</time></trkpt><trkpt lat="45.5967483" lon="8.0240967"><ele>618.6</ele><time>2026-04-04T08:43:28.937Z</time></trkpt><trkpt lat="45.5968483" lon="8.02407"><ele>620.0</ele><time>2026-04-04T08:43:29.936Z</time></trkpt><trkpt lat="45.596945" lon="8.0240483"><ele>621.4</ele><time>2026-04-04T08:43:30.936Z</time></trkpt><trkpt lat="45.597025" lon="8.024015"><ele>622.8</ele><time>2026-04-04T08:43:31.936Z</time></trkpt><trkpt lat="45.59711" lon="8.023955"><ele>624.2</ele><time>2026-04-04T08:43:32.936Z</time></trkpt><trkpt lat="45.5971833" lon="8.0238733"><ele>625.6</ele><time>2026-04-04T08:43:33.936Z</time></trkpt><trkpt lat="45.59724" lon="8.023775"><ele>627.0</ele><time>2026-04-04T08:43:34.936Z</time></trkpt><trkpt lat="45.5972833" lon="8.0236533"><ele>627.0</ele><time>2026-04-04T08:43:35.936Z</time></trkpt><trkpt lat="45.5973317" lon="8.02353"><ele>627.0</ele><time>2026-04-04T08:43:36.936Z</time></trkpt><trkpt lat="45.5973617" lon="8.023405"><ele>627.0</ele><time>2026-04-04T08:43:37.936Z</time></trkpt><trkpt lat="45.5974083" lon="8.0232883"><ele>627.0</ele><time>2026-04-04T08:43:38.936Z</time></trkpt><trkpt lat="45.59745" lon="8.023175"><ele>627.0</ele><time>2026-04-04T08:43:39.936Z</time></trkpt><trkpt lat="45.5975" lon="8.0230567"><ele>628.0</ele><time>2026-04-04T08:43:40.936Z</time></trkpt><trkpt lat="45.5975433" lon="8.02293"><ele>629.0</ele><time>2026-04-04T08:43:41.936Z</time></trkpt><trkpt lat="45.597575" lon="8.0227983"><ele>630.0</ele><time>2026-04-04T08:43:42.936Z</time></trkpt><trkpt lat="45.597605" lon="8.0226583"><ele>631.0</ele><time>2026-04-04T08:43:43.936Z</time></trkpt><trkpt lat="45.59763" lon="8.0225067"><ele>632.0</ele><time>2026-04-04T08:43:44.936Z</time></trkpt><trkpt lat="45.5976433" lon="8.022345"><ele>634.5</ele><time>2026-04-04T08:43:45.936Z</time></trkpt><trkpt lat="45.597655" lon="8.0221833"><ele>637.0</ele><time>2026-04-04T08:43:46.936Z</time></trkpt><trkpt lat="45.5976567" lon="8.0220267"><ele>639.5</ele><time>2026-04-04T08:43:47.936Z</time></trkpt><trkpt lat="45.5976583" lon="8.021855"><ele>642.0</ele><time>2026-04-04T08:43:48.936Z</time></trkpt><trkpt lat="45.59767" lon="8.0216883"><ele>644.25</ele><time>2026-04-04T08:43:49.936Z</time></trkpt><trkpt lat="45.5976733" lon="8.0215317"><ele>646.5</ele><time>2026-04-04T08:43:50.936Z</time></trkpt><trkpt lat="45.59767" lon="8.021385"><ele>648.75</ele><time>2026-04-04T08:43:51.936Z</time></trkpt><trkpt lat="45.597675" lon="8.02122"><ele>651.0</ele><time>2026-04-04T08:43:52.936Z</time></trkpt><trkpt lat="45.5976567" lon="8.0210433"><ele>651.0</ele><time>2026-04-04T08:43:53.936Z</time></trkpt><trkpt lat="45.5976233" lon="8.0208883"><ele>651.0</ele><time>2026-04-04T08:43:54.936Z</time></trkpt><trkpt lat="45.5975583" lon="8.0207267"><ele>651.0</ele><time>2026-04-04T08:43:55.936Z</time></trkpt><trkpt lat="45.5974833" lon="8.0205767"><ele>651.0</ele><time>2026-04-04T08:43:56.936Z</time></trkpt><trkpt lat="45.5974167" lon="8.0204383"><ele>652.8</ele><time>2026-04-04T08:43:57.936Z</time></trkpt><trkpt lat="45.59736" lon="8.02031"><ele>654.5999999999999</ele><time>2026-04-04T08:43:58.936Z</time></trkpt><trkpt lat="45.59732" lon="8.0201633"><ele>656.4</ele><time>2026-04-04T08:43:59.936Z</time></trkpt><trkpt lat="45.5973017" lon="8.02002"><ele>658.2</ele><time>2026-04-04T08:44:00.935Z</time></trkpt><trkpt lat="45.5973083" lon="8.0198733"><ele>660.0</ele><time>2026-04-04T08:44:01.936Z</time></trkpt><trkpt lat="45.597335" lon="8.0197117"><ele>660.25</ele><time>2026-04-04T08:44:02.935Z</time></trkpt><trkpt lat="45.5973817" lon="8.0195567"><ele>660.5</ele><time>2026-04-04T08:44:03.936Z</time></trkpt><trkpt lat="45.5974383" lon="8.0194333"><ele>660.75</ele><time>2026-04-04T08:44:04.936Z</time></trkpt><trkpt lat="45.59753" lon="8.0193133"><ele>661.0</ele><time>2026-04-04T08:44:05.936Z</time></trkpt><trkpt lat="45.5976283" lon="8.0191933"><ele>663.0</ele><time>2026-04-04T08:44:06.936Z</time></trkpt><trkpt lat="45.5977217" lon="8.0190733"><ele>665.0</ele><time>2026-04-04T08:44:07.936Z</time></trkpt><trkpt lat="45.5978183" lon="8.018955"><ele>667.0</ele><time>2026-04-04T08:44:08.936Z</time></trkpt><trkpt lat="45.5978917" lon="8.0188367"><ele>669.0</ele><time>2026-04-04T08:44:09.935Z</time></trkpt><trkpt lat="45.597925" lon="8.0187217"><ele>672.0</ele><time>2026-04-04T08:44:10.936Z</time></trkpt><trkpt lat="45.597925" lon="8.0186133"><ele>675.0</ele><time>2026-04-04T08:44:11.936Z</time></trkpt><trkpt lat="45.597915" lon="8.0185117"><ele>678.0</ele><time>2026-04-04T08:44:12.936Z</time></trkpt><trkpt lat="45.5978583" lon="8.018405"><ele>681.0</ele><time>2026-04-04T08:44:13.936Z</time></trkpt><trkpt lat="45.5977867" lon="8.0182717"><ele>684.0</ele><time>2026-04-04T08:44:14.936Z</time></trkpt><trkpt lat="45.59773" lon="8.018115"><ele>684.0</ele><time>2026-04-04T08:44:15.936Z</time></trkpt><trkpt lat="45.5976983" lon="8.0179617"><ele>684.0</ele><time>2026-04-04T08:44:16.935Z</time></trkpt><trkpt lat="45.59768" lon="8.0178083"><ele>684.0</ele><time>2026-04-04T08:44:17.936Z</time></trkpt><trkpt lat="45.5976783" lon="8.01765"><ele>684.0</ele><time>2026-04-04T08:44:18.936Z</time></trkpt><trkpt lat="45.5976833" lon="8.0175033"><ele>684.0</ele><time>2026-04-04T08:44:19.936Z</time></trkpt><trkpt lat="45.5976833" lon="8.0173567"><ele>685.8000000000001</ele><time>2026-04-04T08:44:20.936Z</time></trkpt><trkpt lat="45.5976567" lon="8.0172233"><ele>687.6</ele><time>2026-04-04T08:44:21.936Z</time></trkpt><trkpt lat="45.59761" lon="8.0171067"><ele>689.4</ele><time>2026-04-04T08:44:22.936Z</time></trkpt><trkpt lat="45.5975367" lon="8.0170067"><ele>691.2</ele><time>2026-04-04T08:44:23.936Z</time></trkpt><trkpt lat="45.597495" lon="8.0168933"><ele>693.0</ele><time>2026-04-04T08:44:24.936Z</time></trkpt><trkpt lat="45.5974683" lon="8.0167767"><ele>693.0</ele><time>2026-04-04T08:44:25.936Z</time></trkpt><trkpt lat="45.597455" lon="8.0166617"><ele>693.0</ele><time>2026-04-04T08:44:26.936Z</time></trkpt><trkpt lat="45.5974617" lon="8.0165383"><ele>693.0</ele><time>2026-04-04T08:44:27.936Z</time></trkpt><trkpt lat="45.5974767" lon="8.01641"><ele>693.0</ele><time>2026-04-04T08:44:28.936Z</time></trkpt><trkpt lat="45.5975067" lon="8.01628"><ele>693.0</ele><time>2026-04-04T08:44:29.936Z</time></trkpt><trkpt lat="45.5975517" lon="8.016155"><ele>694.2</ele><time>2026-04-04T08:44:30.936Z</time></trkpt><trkpt lat="45.597615" lon="8.01605"><ele>695.4</ele><time>2026-04-04T08:44:31.936Z</time></trkpt><trkpt lat="45.5976833" lon="8.0159267"><ele>696.6</ele><time>2026-04-04T08:44:32.936Z</time></trkpt><trkpt lat="45.5977217" lon="8.015805"><ele>697.8000000000001</ele><time>2026-04-04T08:44:33.936Z</time></trkpt><trkpt lat="45.5977183" lon="8.0156767"><ele>699.0</ele><time>2026-04-04T08:44:34.936Z</time></trkpt><trkpt lat="45.5977067" lon="8.0155417"><ele>702.0</ele><time>2026-04-04T08:44:35.936Z</time></trkpt><trkpt lat="45.5976717" lon="8.0154117"><ele>705.0</ele><time>2026-04-04T08:44:36.935Z</time></trkpt><trkpt lat="45.597615" lon="8.0152767"><ele>708.0</ele><time>2026-04-04T08:44:37.936Z</time></trkpt><trkpt lat="45.5975383" lon="8.015145"><ele>711.0</ele><time>2026-04-04T08:44:38.936Z</time></trkpt><trkpt lat="45.59745" lon="8.0150317"><ele>714.0</ele><time>2026-04-04T08:44:39.936Z</time></trkpt><trkpt lat="45.5973617" lon="8.0149183"><ele>716.2</ele><time>2026-04-04T08:44:40.936Z</time></trkpt><trkpt lat="45.5973033" lon="8.0148117"><ele>718.4000000000001</ele><time>2026-04-04T08:44:41.936Z</time></trkpt><trkpt lat="45.5972683" lon="8.0146833"><ele>720.6</ele><time>2026-04-04T08:44:42.936Z</time></trkpt><trkpt lat="45.5972583" lon="8.014555"><ele>722.8</ele><time>2026-04-04T08:44:43.936Z</time></trkpt><trkpt lat="45.597255" lon="8.0144283"><ele>725.0</ele><time>2026-04-04T08:44:44.936Z</time></trkpt><trkpt lat="45.5972567" lon="8.0142733"><ele>725.75</ele><time>2026-04-04T08:44:45.936Z</time></trkpt><trkpt lat="45.5972583" lon="8.0140933"><ele>726.5</ele><time>2026-04-04T08:44:46.936Z</time></trkpt><trkpt lat="45.5972767" lon="8.0139183"><ele>727.25</ele><time>2026-04-04T08:44:47.935Z</time></trkpt><trkpt lat="45.5973033" lon="8.0137417"><ele>728.0</ele><time>2026-04-04T08:44:48.936Z</time></trkpt><trkpt lat="45.5973267" lon="8.0135467"><ele>728.0</ele><time>2026-04-04T08:44:49.936Z</time></trkpt><trkpt lat="45.5973383" lon="8.0133617"><ele>728.0</ele><time>2026-04-04T08:44:50.935Z</time></trkpt><trkpt lat="45.597355" lon="8.0131833"><ele>728.0</ele><time>2026-04-04T08:44:51.936Z</time></trkpt><trkpt lat="45.5973767" lon="8.0129933"><ele>728.0</ele><time>2026-04-04T08:44:52.936Z</time></trkpt><trkpt lat="45.597395" lon="8.0128083"><ele>727.5</ele><time>2026-04-04T08:44:53.935Z</time></trkpt><trkpt lat="45.597415" lon="8.0126533"><ele>727.0</ele><time>2026-04-04T08:44:54.936Z</time></trkpt><trkpt lat="45.5974283" lon="8.0124967"><ele>726.5</ele><time>2026-04-04T08:44:55.936Z</time></trkpt><trkpt lat="45.5974583" lon="8.0123367"><ele>726.0</ele><time>2026-04-04T08:44:56.936Z</time></trkpt><trkpt lat="45.59752" lon="8.0121917"><ele>726.0</ele><time>2026-04-04T08:44:57.936Z</time></trkpt><trkpt lat="45.597585" lon="8.0120567"><ele>726.0</ele><time>2026-04-04T08:44:58.936Z</time></trkpt><trkpt lat="45.59765" lon="8.0119183"><ele>726.0</ele><time>2026-04-04T08:44:59.936Z</time></trkpt><trkpt lat="45.597705" lon="8.0117667"><ele>726.0</ele><time>2026-04-04T08:45:00.936Z</time></trkpt><trkpt lat="45.5977333" lon="8.0116"><ele>726.25</ele><time>2026-04-04T08:45:01.936Z</time></trkpt><trkpt lat="45.5977367" lon="8.01141"><ele>726.5</ele><time>2026-04-04T08:45:02.936Z</time></trkpt><trkpt lat="45.5977233" lon="8.011235"><ele>726.75</ele><time>2026-04-04T08:45:03.936Z</time></trkpt><trkpt lat="45.5977117" lon="8.01105"><ele>727.0</ele><time>2026-04-04T08:45:04.935Z</time></trkpt><trkpt lat="45.5977067" lon="8.0108767"><ele>728.75</ele><time>2026-04-04T08:45:05.936Z</time></trkpt><trkpt lat="45.5977333" lon="8.0107083"><ele>730.5</ele><time>2026-04-04T08:45:06.936Z</time></trkpt><trkpt lat="45.5977517" lon="8.01054"><ele>732.25</ele><time>2026-04-04T08:45:07.936Z</time></trkpt><trkpt lat="45.59778" lon="8.0103633"><ele>734.0</ele><time>2026-04-04T08:45:08.935Z</time></trkpt><trkpt lat="45.5977883" lon="8.0101967"><ele>734.0</ele><time>2026-04-04T08:45:09.936Z</time></trkpt><trkpt lat="45.5977767" lon="8.0100317"><ele>734.0</ele><time>2026-04-04T08:45:10.936Z</time></trkpt><trkpt lat="45.5977567" lon="8.0098667"><ele>734.0</ele><time>2026-04-04T08:45:11.936Z</time></trkpt><trkpt lat="45.5977383" lon="8.009705"><ele>734.0</ele><time>2026-04-04T08:45:12.936Z</time></trkpt><trkpt lat="45.5977367" lon="8.00954"><ele>736.4000000000001</ele><time>2026-04-04T08:45:13.936Z</time></trkpt><trkpt lat="45.59775" lon="8.0093833"><ele>738.8</ele><time>2026-04-04T08:45:14.936Z</time></trkpt><trkpt lat="45.597765" lon="8.0092267"><ele>741.2</ele><time>2026-04-04T08:45:15.936Z</time></trkpt><trkpt lat="45.5977817" lon="8.0090683"><ele>743.5999999999999</ele><time>2026-04-04T08:45:16.936Z</time></trkpt><trkpt lat="45.597795" lon="8.0089067"><ele>746.0</ele><time>2026-04-04T08:45:17.936Z</time></trkpt><trkpt lat="45.59782" lon="8.00876"><ele>749.1999999999999</ele><time>2026-04-04T08:45:18.936Z</time></trkpt><trkpt lat="45.59785" lon="8.0086317"><ele>752.4</ele><time>2026-04-04T08:45:19.936Z</time></trkpt><trkpt lat="45.5978767" lon="8.0085217"><ele>755.6</ele><time>2026-04-04T08:45:20.936Z</time></trkpt><trkpt lat="45.597915" lon="8.008395"><ele>758.8</ele><time>2026-04-04T08:45:22.935Z</time></trkpt><trkpt lat="45.59797" lon="8.0082567"><ele>762.0</ele><time>2026-04-04T08:45:24.936Z</time></trkpt><trkpt lat="45.5980217" lon="8.0081683"><ele>762.1666666666666</ele><time>2026-04-04T08:45:25.936Z</time></trkpt><trkpt lat="45.5980683" lon="8.00807"><ele>762.3333333333334</ele><time>2026-04-04T08:45:26.936Z</time></trkpt><trkpt lat="45.598115" lon="8.00798"><ele>762.5</ele><time>2026-04-04T08:45:27.936Z</time></trkpt><trkpt lat="45.5981583" lon="8.0078933"><ele>762.6666666666667</ele><time>2026-04-04T08:45:28.936Z</time></trkpt><trkpt lat="45.5981933" lon="8.0078"><ele>762.8333333333334</ele><time>2026-04-04T08:45:29.936Z</time></trkpt><trkpt lat="45.59822" lon="8.0077167"><ele>763.0</ele><time>2026-04-04T08:45:30.936Z</time></trkpt><trkpt lat="45.598275" lon="8.007575"><ele>764.0</ele><time>2026-04-04T08:45:32.936Z</time></trkpt><trkpt lat="45.5983617" lon="8.0074467"><ele>765.0</ele><time>2026-04-04T08:45:34.936Z</time></trkpt><trkpt lat="45.5984067" lon="8.0073733"><ele>766.0</ele><time>2026-04-04T08:45:35.936Z</time></trkpt><trkpt lat="45.5984633" lon="8.0072917"><ele>767.0</ele><time>2026-04-04T08:45:36.936Z</time></trkpt><trkpt lat="45.5985183" lon="8.0072167"><ele>767.9999999999999</ele><time>2026-04-04T08:45:37.936Z</time></trkpt><trkpt lat="45.5985717" lon="8.0071417"><ele>769.0</ele><time>2026-04-04T08:45:38.936Z</time></trkpt><trkpt lat="45.5986133" lon="8.0070517"><ele>768.9999999999999</ele><time>2026-04-04T08:45:39.936Z</time></trkpt><trkpt lat="45.5986633" lon="8.00697"><ele>769.0</ele><time>2026-04-04T08:45:40.935Z</time></trkpt><trkpt lat="45.598705" lon="8.0068883"><ele>769.0</ele><time>2026-04-04T08:45:41.935Z</time></trkpt><trkpt lat="45.5987333" lon="8.00678"><ele>769.0</ele><time>2026-04-04T08:45:42.936Z</time></trkpt><trkpt lat="45.598775" lon="8.0066767"><ele>768.9999999999999</ele><time>2026-04-04T08:45:43.935Z</time></trkpt><trkpt lat="45.598815" lon="8.0065817"><ele>769.0</ele><time>2026-04-04T08:45:44.936Z</time></trkpt><trkpt lat="45.598855" lon="8.0064933"><ele>765.6666666666666</ele><time>2026-04-04T08:45:45.936Z</time></trkpt><trkpt lat="45.5988767" lon="8.0064067"><ele>762.3333333333333</ele><time>2026-04-04T08:45:46.936Z</time></trkpt><trkpt lat="45.5988767" lon="8.0062317"><ele>759.0</ele><time>2026-04-04T08:45:48.936Z</time></trkpt><trkpt lat="45.59888" lon="8.006125"><ele>755.6666666666666</ele><time>2026-04-04T08:45:49.935Z</time></trkpt><trkpt lat="45.59887" lon="8.00601"><ele>752.3333333333333</ele><time>2026-04-04T08:45:50.935Z</time></trkpt><trkpt lat="45.598835" lon="8.0059033"><ele>749.0</ele><time>2026-04-04T08:45:51.935Z</time></trkpt><trkpt lat="45.598795" lon="8.0057617"><ele>749.0</ele><time>2026-04-04T08:45:52.936Z</time></trkpt><trkpt lat="45.5987467" lon="8.00561"><ele>749.0</ele><time>2026-04-04T08:45:53.936Z</time></trkpt><trkpt lat="45.5986967" lon="8.005465"><ele>749.0</ele><time>2026-04-04T08:45:54.935Z</time></trkpt><trkpt lat="45.5986433" lon="8.00534"><ele>749.0</ele><time>2026-04-04T08:45:55.936Z</time></trkpt><trkpt lat="45.598595" lon="8.0052133"><ele>749.0</ele><time>2026-04-04T08:45:56.936Z</time></trkpt><trkpt lat="45.5985483" lon="8.0050783"><ele>752.4000000000001</ele><time>2026-04-04T08:45:57.936Z</time></trkpt><trkpt lat="45.59851" lon="8.0049433"><ele>755.8</ele><time>2026-04-04T08:45:58.936Z</time></trkpt><trkpt lat="45.5984767" lon="8.004815"><ele>759.2</ele><time>2026-04-04T08:45:59.936Z</time></trkpt><trkpt lat="45.5984333" lon="8.00468"><ele>762.5999999999999</ele><time>2026-04-04T08:46:00.936Z</time></trkpt><trkpt lat="45.59838" lon="8.0045667"><ele>766.0</ele><time>2026-04-04T08:46:01.936Z</time></trkpt><trkpt lat="45.598315" lon="8.0044667"><ele>766.0</ele><time>2026-04-04T08:46:02.936Z</time></trkpt><trkpt lat="45.5982467" lon="8.0043633"><ele>766.0</ele><time>2026-04-04T08:46:03.936Z</time></trkpt><trkpt lat="45.5981817" lon="8.00427"><ele>766.0</ele><time>2026-04-04T08:46:04.936Z</time></trkpt><trkpt lat="45.598135" lon="8.0041917"><ele>766.0</ele><time>2026-04-04T08:46:05.936Z</time></trkpt><trkpt lat="45.5980933" lon="8.00411"><ele>766.0</ele><time>2026-04-04T08:46:06.936Z</time></trkpt><trkpt lat="45.59808" lon="8.0040183"><ele>766.0</ele><time>2026-04-04T08:46:07.936Z</time></trkpt><trkpt lat="45.5980817" lon="8.003915"><ele>766.6666666666667</ele><time>2026-04-04T08:46:08.936Z</time></trkpt><trkpt lat="45.5981133" lon="8.0038333"><ele>767.3333333333334</ele><time>2026-04-04T08:46:09.936Z</time></trkpt><trkpt lat="45.5981767" lon="8.0037467"><ele>768.0</ele><time>2026-04-04T08:46:11.936Z</time></trkpt><trkpt lat="45.5982467" lon="8.003685"><ele>768.6666666666667</ele><time>2026-04-04T08:46:14.936Z</time></trkpt><trkpt lat="45.59833" lon="8.0036133"><ele>769.3333333333334</ele><time>2026-04-04T08:46:16.936Z</time></trkpt><trkpt lat="45.5984017" lon="8.003575"><ele>770.0</ele><time>2026-04-04T08:46:17.936Z</time></trkpt><trkpt lat="45.59853" lon="8.0035733"><ele>773.0</ele><time>2026-04-04T08:46:18.935Z</time></trkpt><trkpt lat="45.5986867" lon="8.0035683"><ele>776.0</ele><time>2026-04-04T08:46:19.936Z</time></trkpt><trkpt lat="45.5988583" lon="8.003535"><ele>779.0</ele><time>2026-04-04T08:46:20.936Z</time></trkpt><trkpt lat="45.59903" lon="8.0035"><ele>779.0</ele><time>2026-04-04T08:46:21.936Z</time></trkpt><trkpt lat="45.5991883" lon="8.0034683"><ele>779.0</ele><time>2026-04-04T08:46:22.936Z</time></trkpt><trkpt lat="45.5993317" lon="8.0034517"><ele>779.0</ele><time>2026-04-04T08:46:23.936Z</time></trkpt><trkpt lat="45.5994483" lon="8.00346"><ele>779.0</ele><time>2026-04-04T08:46:24.936Z</time></trkpt><trkpt lat="45.599535" lon="8.003485"><ele>781.0</ele><time>2026-04-04T08:46:25.936Z</time></trkpt><trkpt lat="45.599615" lon="8.0035317"><ele>783.0</ele><time>2026-04-04T08:46:26.936Z</time></trkpt><trkpt lat="45.5996817" lon="8.0036017"><ele>785.0</ele><time>2026-04-04T08:46:27.936Z</time></trkpt><trkpt lat="45.59974" lon="8.0037067"><ele>787.0</ele><time>2026-04-04T08:46:28.936Z</time></trkpt><trkpt lat="45.5998083" lon="8.003825"><ele>789.0</ele><time>2026-04-04T08:46:29.936Z</time></trkpt><trkpt lat="45.59989" lon="8.0039167"><ele>789.0</ele><time>2026-04-04T08:46:30.936Z</time></trkpt><trkpt lat="45.5999783" lon="8.0039633"><ele>789.0</ele><time>2026-04-04T08:46:31.936Z</time></trkpt><trkpt lat="45.6000717" lon="8.0039567"><ele>789.0</ele><time>2026-04-04T08:46:32.936Z</time></trkpt><trkpt lat="45.6001717" lon="8.0039067"><ele>789.0</ele><time>2026-04-04T08:46:33.936Z</time></trkpt><trkpt lat="45.6002567" lon="8.00382"><ele>789.0</ele><time>2026-04-04T08:46:34.936Z</time></trkpt><trkpt lat="45.6003033" lon="8.0036883"><ele>789.0</ele><time>2026-04-04T08:46:35.935Z</time></trkpt><trkpt lat="45.600325" lon="8.0035333"><ele>789.0</ele><time>2026-04-04T08:46:36.936Z</time></trkpt><trkpt lat="45.6003183" lon="8.0033683"><ele>789.0</ele><time>2026-04-04T08:46:37.936Z</time></trkpt><trkpt lat="45.600275" lon="8.0032133"><ele>789.0</ele><time>2026-04-04T08:46:38.936Z</time></trkpt><trkpt lat="45.600215" lon="8.003065"><ele>790.6</ele><time>2026-04-04T08:46:39.936Z</time></trkpt><trkpt lat="45.60015" lon="8.00294"><ele>792.2</ele><time>2026-04-04T08:46:40.936Z</time></trkpt><trkpt lat="45.60011" lon="8.0028117"><ele>793.8000000000001</ele><time>2026-04-04T08:46:41.936Z</time></trkpt><trkpt lat="45.6000767" lon="8.0026667"><ele>795.4000000000001</ele><time>2026-04-04T08:46:42.935Z</time></trkpt><trkpt lat="45.6000633" lon="8.0025067"><ele>797.0</ele><time>2026-04-04T08:46:43.936Z</time></trkpt><trkpt lat="45.60007" lon="8.0023183"><ele>799.5</ele><time>2026-04-04T08:46:44.936Z</time></trkpt><trkpt lat="45.6000633" lon="8.002105"><ele>802.0</ele><time>2026-04-04T08:46:45.936Z</time></trkpt><trkpt lat="45.60004" lon="8.0019033"><ele>804.5</ele><time>2026-04-04T08:46:46.936Z</time></trkpt><trkpt lat="45.6" lon="8.0017083"><ele>807.0</ele><time>2026-04-04T08:46:47.936Z</time></trkpt><trkpt lat="45.599925" lon="8.001525"><ele>810.0</ele><time>2026-04-04T08:46:48.935Z</time></trkpt><trkpt lat="45.5998767" lon="8.00134"><ele>813.0</ele><time>2026-04-04T08:46:49.935Z</time></trkpt><trkpt lat="45.5998333" lon="8.0011767"><ele>816.0</ele><time>2026-04-04T08:46:50.936Z</time></trkpt><trkpt lat="45.5998033" lon="8.0010383"><ele>819.0</ele><time>2026-04-04T08:46:51.936Z</time></trkpt><trkpt lat="45.5997983" lon="8.0009267"><ele>822.0</ele><time>2026-04-04T08:46:52.935Z</time></trkpt><trkpt lat="45.5998067" lon="8.0008067"><ele>826.25</ele><time>2026-04-04T08:46:53.936Z</time></trkpt><trkpt lat="45.5998367" lon="8.000685"><ele>830.5</ele><time>2026-04-04T08:46:54.936Z</time></trkpt><trkpt lat="45.59988" lon="8.0005417"><ele>834.75</ele><time>2026-04-04T08:46:55.936Z</time></trkpt><trkpt lat="45.59992" lon="8.0003783"><ele>839.0</ele><time>2026-04-04T08:46:56.936Z</time></trkpt><trkpt lat="45.5999533" lon="8.0002"><ele>839.0</ele><time>2026-04-04T08:46:57.936Z</time></trkpt><trkpt lat="45.5999767" lon="8.0000217"><ele>839.0</ele><time>2026-04-04T08:46:58.936Z</time></trkpt><trkpt lat="45.6000167" lon="7.9998733"><ele>839.0</ele><time>2026-04-04T08:46:59.935Z</time></trkpt><trkpt lat="45.60006" lon="7.9997533"><ele>839.0</ele><time>2026-04-04T08:47:00.936Z</time></trkpt><trkpt lat="45.60012" lon="7.9996683"><ele>839.0</ele><time>2026-04-04T08:47:01.936Z</time></trkpt><trkpt lat="45.600205" lon="7.9996133"><ele>839.0</ele><time>2026-04-04T08:47:02.936Z</time></trkpt><trkpt lat="45.600285" lon="7.9996183"><ele>839.0</ele><time>2026-04-04T08:47:03.936Z</time></trkpt><trkpt lat="45.6003717" lon="7.9996683"><ele>839.0</ele><time>2026-04-04T08:47:04.936Z</time></trkpt><trkpt lat="45.6004583" lon="7.9997783"><ele>839.0</ele><time>2026-04-04T08:47:05.936Z</time></trkpt><trkpt lat="45.600575" lon="7.99989"><ele>839.0</ele><time>2026-04-04T08:47:06.936Z</time></trkpt><trkpt lat="45.6006983" lon="7.9999467"><ele>838.25</ele><time>2026-04-04T08:47:07.936Z</time></trkpt><trkpt lat="45.60082" lon="7.9999533"><ele>837.5</ele><time>2026-04-04T08:47:08.936Z</time></trkpt><trkpt lat="45.60094" lon="7.9999083"><ele>836.75</ele><time>2026-04-04T08:47:09.936Z</time></trkpt><trkpt lat="45.6010417" lon="7.9998183"><ele>836.0</ele><time>2026-04-04T08:47:10.936Z</time></trkpt><trkpt lat="45.6011367" lon="7.9996883"><ele>834.25</ele><time>2026-04-04T08:47:11.936Z</time></trkpt><trkpt lat="45.6012067" lon="7.9995367"><ele>832.5</ele><time>2026-04-04T08:47:12.936Z</time></trkpt><trkpt lat="45.6012817" lon="7.999355"><ele>830.75</ele><time>2026-04-04T08:47:13.936Z</time></trkpt><trkpt lat="45.6013467" lon="7.999175"><ele>829.0</ele><time>2026-04-04T08:47:14.936Z</time></trkpt><trkpt lat="45.6013833" lon="7.9989817"><ele>833.25</ele><time>2026-04-04T08:47:15.936Z</time></trkpt><trkpt lat="45.6013917" lon="7.9987933"><ele>837.5</ele><time>2026-04-04T08:47:16.936Z</time></trkpt><trkpt lat="45.601375" lon="7.9986133"><ele>841.75</ele><time>2026-04-04T08:47:17.936Z</time></trkpt><trkpt lat="45.6013667" lon="7.9984567"><ele>846.0</ele><time>2026-04-04T08:47:18.936Z</time></trkpt><trkpt lat="45.60139" lon="7.9983217"><ele>850.0</ele><time>2026-04-04T08:47:19.936Z</time></trkpt><trkpt lat="45.6014333" lon="7.99821"><ele>854.0</ele><time>2026-04-04T08:47:20.936Z</time></trkpt><trkpt lat="45.6015067" lon="7.9981133"><ele>857.9999999999999</ele><time>2026-04-04T08:47:21.936Z</time></trkpt><trkpt lat="45.6015983" lon="7.9980467"><ele>862.0</ele><time>2026-04-04T08:47:22.936Z</time></trkpt><trkpt lat="45.6017117" lon="7.9980167"><ele>866.0</ele><time>2026-04-04T08:47:23.936Z</time></trkpt><trkpt lat="45.6018367" lon="7.9980283"><ele>866.0</ele><time>2026-04-04T08:47:24.936Z</time></trkpt><trkpt lat="45.601965" lon="7.9980767"><ele>866.0</ele><time>2026-04-04T08:47:25.936Z</time></trkpt><trkpt lat="45.602095" lon="7.99814"><ele>866.0</ele><time>2026-04-04T08:47:26.936Z</time></trkpt><trkpt lat="45.6022217" lon="7.998185"><ele>866.0</ele><time>2026-04-04T08:47:27.936Z</time></trkpt><trkpt lat="45.6023267" lon="7.998185"><ele>864.8</ele><time>2026-04-04T08:47:28.935Z</time></trkpt><trkpt lat="45.602415" lon="7.99812"><ele>863.5999999999999</ele><time>2026-04-04T08:47:29.936Z</time></trkpt><trkpt lat="45.602465" lon="7.997995"><ele>862.4</ele><time>2026-04-04T08:47:30.936Z</time></trkpt><trkpt lat="45.6024883" lon="7.9978467"><ele>861.2</ele><time>2026-04-04T08:47:31.936Z</time></trkpt><trkpt lat="45.6024917" lon="7.99768"><ele>860.0</ele><time>2026-04-04T08:47:32.936Z</time></trkpt><trkpt lat="45.602485" lon="7.997505"><ele>864.5</ele><time>2026-04-04T08:47:33.936Z</time></trkpt><trkpt lat="45.6024967" lon="7.9973283"><ele>869.0</ele><time>2026-04-04T08:47:34.936Z</time></trkpt><trkpt lat="45.6025317" lon="7.9971717"><ele>873.5</ele><time>2026-04-04T08:47:35.936Z</time></trkpt><trkpt lat="45.6025817" lon="7.99703"><ele>878.0</ele><time>2026-04-04T08:47:36.936Z</time></trkpt><trkpt lat="45.6026467" lon="7.99692"><ele>878.0</ele><time>2026-04-04T08:47:37.936Z</time></trkpt><trkpt lat="45.60276" lon="7.99684"><ele>878.0</ele><time>2026-04-04T08:47:38.936Z</time></trkpt><trkpt lat="45.6028867" lon="7.9967917"><ele>878.0</ele><time>2026-04-04T08:47:39.936Z</time></trkpt><trkpt lat="45.6030317" lon="7.996785"><ele>878.0</ele><time>2026-04-04T08:47:40.936Z</time></trkpt><trkpt lat="45.6031783" lon="7.99676"><ele>880.5</ele><time>2026-04-04T08:47:41.936Z</time></trkpt><trkpt lat="45.6033033" lon="7.9967117"><ele>883.0</ele><time>2026-04-04T08:47:42.936Z</time></trkpt><trkpt lat="45.6034267" lon="7.9966617"><ele>885.5</ele><time>2026-04-04T08:47:43.936Z</time></trkpt><trkpt lat="45.603525" lon="7.9965583"><ele>888.0</ele><time>2026-04-04T08:47:44.936Z</time></trkpt><trkpt lat="45.6036017" lon="7.9963983"><ele>882.0</ele><time>2026-04-04T08:47:45.936Z</time></trkpt><trkpt lat="45.603675" lon="7.99623"><ele>876.0</ele><time>2026-04-04T08:47:46.936Z</time></trkpt><trkpt lat="45.60377" lon="7.99605"><ele>870.0</ele><time>2026-04-04T08:47:47.936Z</time></trkpt><trkpt lat="45.6038717" lon="7.9958517"><ele>877.6666666666667</ele><time>2026-04-04T08:47:48.936Z</time></trkpt><trkpt lat="45.603995" lon="7.99567"><ele>885.3333333333334</ele><time>2026-04-04T08:47:49.936Z</time></trkpt><trkpt lat="45.6041067" lon="7.99546"><ele>893.0</ele><time>2026-04-04T08:47:50.936Z</time></trkpt><trkpt lat="45.6042233" lon="7.9952717"><ele>893.0</ele><time>2026-04-04T08:47:51.936Z</time></trkpt><trkpt lat="45.60432" lon="7.9950983"><ele>893.0</ele><time>2026-04-04T08:47:52.936Z</time></trkpt><trkpt lat="45.6043967" lon="7.9949117"><ele>893.0</ele><time>2026-04-04T08:47:53.936Z</time></trkpt><trkpt lat="45.6044233" lon="7.9947433"><ele>893.0</ele><time>2026-04-04T08:47:54.935Z</time></trkpt><trkpt lat="45.6044583" lon="7.9945833"><ele>893.8</ele><time>2026-04-04T08:47:55.935Z</time></trkpt><trkpt lat="45.6045133" lon="7.9944633"><ele>894.5999999999999</ele><time>2026-04-04T08:47:56.935Z</time></trkpt><trkpt lat="45.6045917" lon="7.99439"><ele>895.4000000000001</ele><time>2026-04-04T08:47:57.935Z</time></trkpt><trkpt lat="45.6047" lon="7.9943417"><ele>896.2</ele><time>2026-04-04T08:47:58.935Z</time></trkpt><trkpt lat="45.60484" lon="7.99432"><ele>897.0</ele><time>2026-04-04T08:47:59.935Z</time></trkpt><trkpt lat="45.60498" lon="7.9943233"><ele>897.0</ele><time>2026-04-04T08:48:00.935Z</time></trkpt><trkpt lat="45.60512" lon="7.9943633"><ele>897.0</ele><time>2026-04-04T08:48:01.935Z</time></trkpt><trkpt lat="45.6052683" lon="7.994395"><ele>897.0</ele><time>2026-04-04T08:48:02.935Z</time></trkpt><trkpt lat="45.605425" lon="7.9943717"><ele>896.0</ele><time>2026-04-04T08:48:03.935Z</time></trkpt><trkpt lat="45.60558" lon="7.9942983"><ele>895.0</ele><time>2026-04-04T08:48:04.935Z</time></trkpt><trkpt lat="45.6057317" lon="7.9941983"><ele>894.0</ele><time>2026-04-04T08:48:05.935Z</time></trkpt><trkpt lat="45.6058683" lon="7.9940583"><ele>902.3333333333333</ele><time>2026-04-04T08:48:06.935Z</time></trkpt><trkpt lat="45.6059817" lon="7.9939"><ele>910.6666666666666</ele><time>2026-04-04T08:48:07.935Z</time></trkpt><trkpt lat="45.606075" lon="7.9937083"><ele>919.0</ele><time>2026-04-04T08:48:08.935Z</time></trkpt><trkpt lat="45.60616" lon="7.9934983"><ele>916.6666666666666</ele><time>2026-04-04T08:48:09.935Z</time></trkpt><trkpt lat="45.60625" lon="7.993285"><ele>914.3333333333333</ele><time>2026-04-04T08:48:10.935Z</time></trkpt><trkpt lat="45.606345" lon="7.9930717"><ele>912.0</ele><time>2026-04-04T08:48:11.935Z</time></trkpt><trkpt lat="45.6064417" lon="7.9928633"><ele>912.0</ele><time>2026-04-04T08:48:12.935Z</time></trkpt><trkpt lat="45.6065267" lon="7.9926633"><ele>912.0</ele><time>2026-04-04T08:48:13.935Z</time></trkpt><trkpt lat="45.6066067" lon="7.9924817"><ele>912.0</ele><time>2026-04-04T08:48:14.935Z</time></trkpt><trkpt lat="45.6066733" lon="7.9923167"><ele>912.0</ele><time>2026-04-04T08:48:15.935Z</time></trkpt><trkpt lat="45.6067417" lon="7.9921667"><ele>908.5</ele><time>2026-04-04T08:48:16.935Z</time></trkpt><trkpt lat="45.60682" lon="7.9920317"><ele>905.0</ele><time>2026-04-04T08:48:17.935Z</time></trkpt><trkpt lat="45.606915" lon="7.991895"><ele>901.5</ele><time>2026-04-04T08:48:18.935Z</time></trkpt><trkpt lat="45.607035" lon="7.9917867"><ele>898.0</ele><time>2026-04-04T08:48:19.935Z</time></trkpt><trkpt lat="45.6071467" lon="7.9916933"><ele>904.0</ele><time>2026-04-04T08:48:20.935Z</time></trkpt><trkpt lat="45.6072467" lon="7.9915983"><ele>910.0</ele><time>2026-04-04T08:48:21.935Z</time></trkpt><trkpt lat="45.6073217" lon="7.9914767"><ele>916.0</ele><time>2026-04-04T08:48:22.934Z</time></trkpt><trkpt lat="45.6073633" lon="7.991335"><ele>922.0</ele><time>2026-04-04T08:48:23.935Z</time></trkpt><trkpt lat="45.60738" lon="7.9911683"><ele>922.0</ele><time>2026-04-04T08:48:24.935Z</time></trkpt><trkpt lat="45.6073767" lon="7.990985"><ele>922.0</ele><time>2026-04-04T08:48:25.935Z</time></trkpt><trkpt lat="45.60738" lon="7.9908"><ele>922.0</ele><time>2026-04-04T08:48:26.935Z</time></trkpt><trkpt lat="45.60739" lon="7.9906133"><ele>922.0</ele><time>2026-04-04T08:48:27.935Z</time></trkpt><trkpt lat="45.6074033" lon="7.9904433"><ele>925.2</ele><time>2026-04-04T08:48:28.935Z</time></trkpt><trkpt lat="45.6074267" lon="7.9902917"><ele>928.4000000000001</ele><time>2026-04-04T08:48:29.935Z</time></trkpt><trkpt lat="45.60747" lon="7.9901617"><ele>931.5999999999999</ele><time>2026-04-04T08:48:30.935Z</time></trkpt><trkpt lat="45.6075333" lon="7.99003"><ele>934.8</ele><time>2026-04-04T08:48:31.935Z</time></trkpt><trkpt lat="45.6075967" lon="7.9898867"><ele>938.0</ele><time>2026-04-04T08:48:32.935Z</time></trkpt><trkpt lat="45.6076667" lon="7.9897483"><ele>937.75</ele><time>2026-04-04T08:48:33.935Z</time></trkpt><trkpt lat="45.6077467" lon="7.9896033"><ele>937.5</ele><time>2026-04-04T08:48:34.934Z</time></trkpt><trkpt lat="45.607835" lon="7.9894433"><ele>937.25</ele><time>2026-04-04T08:48:35.934Z</time></trkpt><trkpt lat="45.607925" lon="7.9892817"><ele>937.0</ele><time>2026-04-04T08:48:36.935Z</time></trkpt><trkpt lat="45.6080083" lon="7.989125"><ele>937.0</ele><time>2026-04-04T08:48:37.934Z</time></trkpt><trkpt lat="45.608075" lon="7.98897"><ele>937.0</ele><time>2026-04-04T08:48:38.935Z</time></trkpt><trkpt lat="45.608125" lon="7.9888217"><ele>937.0</ele><time>2026-04-04T08:48:39.935Z</time></trkpt><trkpt lat="45.6081433" lon="7.9886817"><ele>937.0</ele><time>2026-04-04T08:48:40.935Z</time></trkpt><trkpt lat="45.6081433" lon="7.988545"><ele>937.0</ele><time>2026-04-04T08:48:41.935Z</time></trkpt><trkpt lat="45.6081383" lon="7.9884317"><ele>940.8333333333333</ele><time>2026-04-04T08:48:42.935Z</time></trkpt><trkpt lat="45.6081317" lon="7.9883267"><ele>944.6666666666666</ele><time>2026-04-04T08:48:43.935Z</time></trkpt><trkpt lat="45.60814" lon="7.9881567"><ele>948.5</ele><time>2026-04-04T08:48:45.935Z</time></trkpt><trkpt lat="45.6081917" lon="7.988075"><ele>952.3333333333333</ele><time>2026-04-04T08:48:46.935Z</time></trkpt><trkpt lat="45.6082633" lon="7.988035"><ele>956.1666666666666</ele><time>2026-04-04T08:48:47.935Z</time></trkpt><trkpt lat="45.6083583" lon="7.9880233"><ele>960.0</ele><time>2026-04-04T08:48:48.935Z</time></trkpt><trkpt lat="45.6084717" lon="7.988015"><ele>960.0</ele><time>2026-04-04T08:48:49.935Z</time></trkpt><trkpt lat="45.60861" lon="7.988"><ele>960.0</ele><time>2026-04-04T08:48:50.935Z</time></trkpt><trkpt lat="45.6087383" lon="7.9879533"><ele>960.0</ele><time>2026-04-04T08:48:51.935Z</time></trkpt><trkpt lat="45.6088533" lon="7.9878633"><ele>960.0</ele><time>2026-04-04T08:48:52.935Z</time></trkpt><trkpt lat="45.6089467" lon="7.9877517"><ele>962.5</ele><time>2026-04-04T08:48:53.934Z</time></trkpt><trkpt lat="45.6090133" lon="7.98765"><ele>965.0</ele><time>2026-04-04T08:48:54.935Z</time></trkpt><trkpt lat="45.60907" lon="7.987555"><ele>967.5</ele><time>2026-04-04T08:48:55.935Z</time></trkpt><trkpt lat="45.6091133" lon="7.9874667"><ele>970.0</ele><time>2026-04-04T08:48:56.935Z</time></trkpt><trkpt lat="45.60916" lon="7.9873933"><ele>972.5</ele><time>2026-04-04T08:48:57.935Z</time></trkpt><trkpt lat="45.6092233" lon="7.9872783"><ele>975.0</ele><time>2026-04-04T08:48:59.935Z</time></trkpt><trkpt lat="45.6092933" lon="7.9872167"><ele>975.0</ele><time>2026-04-04T08:49:01.935Z</time></trkpt><trkpt lat="45.6093983" lon="7.9872367"><ele>975.0</ele><time>2026-04-04T08:49:03.935Z</time></trkpt><trkpt lat="45.609455" lon="7.9872833"><ele>975.0</ele><time>2026-04-04T08:49:04.935Z</time></trkpt><trkpt lat="45.609505" lon="7.98737"><ele>975.0</ele><time>2026-04-04T08:49:05.935Z</time></trkpt><trkpt lat="45.6095467" lon="7.9874883"><ele>975.0</ele><time>2026-04-04T08:49:06.935Z</time></trkpt><trkpt lat="45.6095733" lon="7.987625"><ele>975.0</ele><time>2026-04-04T08:49:07.934Z</time></trkpt><trkpt lat="45.6096" lon="7.9877467"><ele>971.0</ele><time>2026-04-04T08:49:08.935Z</time></trkpt><trkpt lat="45.6096417" lon="7.9878633"><ele>967.0</ele><time>2026-04-04T08:49:09.934Z</time></trkpt><trkpt lat="45.6097083" lon="7.9879517"><ele>963.0</ele><time>2026-04-04T08:49:10.935Z</time></trkpt><trkpt lat="45.60977" lon="7.988015"><ele>959.0</ele><time>2026-04-04T08:49:11.935Z</time></trkpt><trkpt lat="45.609845" lon="7.9880517"><ele>955.0</ele><time>2026-04-04T08:49:12.935Z</time></trkpt><trkpt lat="45.6099367" lon="7.9880567"><ele>951.0</ele><time>2026-04-04T08:49:13.935Z</time></trkpt><trkpt lat="45.6100317" lon="7.988055"><ele>951.0</ele><time>2026-04-04T08:49:14.935Z</time></trkpt><trkpt lat="45.6101517" lon="7.98803"><ele>951.0</ele><time>2026-04-04T08:49:15.935Z</time></trkpt><trkpt lat="45.61029" lon="7.9879883"><ele>951.0</ele><time>2026-04-04T08:49:16.935Z</time></trkpt><trkpt lat="45.6104483" lon="7.987945"><ele>951.0</ele><time>2026-04-04T08:49:17.935Z</time></trkpt><trkpt lat="45.610625" lon="7.9878667"><ele>954.0</ele><time>2026-04-04T08:49:18.935Z</time></trkpt><trkpt lat="45.6108017" lon="7.9878083"><ele>957.0</ele><time>2026-04-04T08:49:19.935Z</time></trkpt><trkpt lat="45.611015" lon="7.9877867"><ele>960.0</ele><time>2026-04-04T08:49:20.935Z</time></trkpt><trkpt lat="45.611225" lon="7.9877583"><ele>962.6666666666667</ele><time>2026-04-04T08:49:21.935Z</time></trkpt><trkpt lat="45.6114483" lon="7.9877183"><ele>965.3333333333334</ele><time>2026-04-04T08:49:22.935Z</time></trkpt><trkpt lat="45.6116583" lon="7.9876767"><ele>968.0</ele><time>2026-04-04T08:49:23.935Z</time></trkpt><trkpt lat="45.61187" lon="7.9876133"><ele>967.0</ele><time>2026-04-04T08:49:24.935Z</time></trkpt><trkpt lat="45.61208" lon="7.98754"><ele>966.0</ele><time>2026-04-04T08:49:25.934Z</time></trkpt><trkpt lat="45.6122667" lon="7.9874733"><ele>965.0</ele><time>2026-04-04T08:49:26.935Z</time></trkpt><trkpt lat="45.6124417" lon="7.9873833"><ele>969.0</ele><time>2026-04-04T08:49:27.935Z</time></trkpt><trkpt lat="45.612575" lon="7.9872867"><ele>973.0</ele><time>2026-04-04T08:49:28.935Z</time></trkpt><trkpt lat="45.61268" lon="7.9871617"><ele>977.0</ele><time>2026-04-04T08:49:29.935Z</time></trkpt><trkpt lat="45.61277" lon="7.98702"><ele>981.0</ele><time>2026-04-04T08:49:30.935Z</time></trkpt><trkpt lat="45.61285" lon="7.9868717"><ele>981.0</ele><time>2026-04-04T08:49:31.935Z</time></trkpt><trkpt lat="45.6129117" lon="7.9867117"><ele>981.0</ele><time>2026-04-04T08:49:32.935Z</time></trkpt><trkpt lat="45.6129867" lon="7.986575"><ele>981.0</ele><time>2026-04-04T08:49:33.935Z</time></trkpt><trkpt lat="45.613085" lon="7.9864617"><ele>981.0</ele><time>2026-04-04T08:49:34.935Z</time></trkpt><trkpt lat="45.6132217" lon="7.98639"><ele>988.6666666666667</ele><time>2026-04-04T08:49:35.935Z</time></trkpt><trkpt lat="45.61336" lon="7.986335"><ele>996.3333333333334</ele><time>2026-04-04T08:49:36.935Z</time></trkpt><trkpt lat="45.613515" lon="7.9863133"><ele>1004.0</ele><time>2026-04-04T08:49:37.935Z</time></trkpt><trkpt lat="45.6136667" lon="7.986345"><ele>1005.6666666666667</ele><time>2026-04-04T08:49:38.935Z</time></trkpt><trkpt lat="45.6138183" lon="7.9863883"><ele>1007.3333333333333</ele><time>2026-04-04T08:49:39.935Z</time></trkpt><trkpt lat="45.6139833" lon="7.9864067"><ele>1009.0</ele><time>2026-04-04T08:49:40.935Z</time></trkpt><trkpt lat="45.6141383" lon="7.9863833"><ele>1009.0</ele><time>2026-04-04T08:49:41.935Z</time></trkpt><trkpt lat="45.6142967" lon="7.9863633"><ele>1009.0</ele><time>2026-04-04T08:49:42.935Z</time></trkpt><trkpt lat="45.6144517" lon="7.986345"><ele>1009.0</ele><time>2026-04-04T08:49:43.935Z</time></trkpt><trkpt lat="45.6145883" lon="7.98636"><ele>1011.25</ele><time>2026-04-04T08:49:44.935Z</time></trkpt><trkpt lat="45.61471" lon="7.9864217"><ele>1013.5</ele><time>2026-04-04T08:49:45.935Z</time></trkpt><trkpt lat="45.6148483" lon="7.9864583"><ele>1015.75</ele><time>2026-04-04T08:49:46.935Z</time></trkpt><trkpt lat="45.6149733" lon="7.9865083"><ele>1018.0</ele><time>2026-04-04T08:49:47.935Z</time></trkpt><trkpt lat="45.6151" lon="7.9865133"><ele>1018.0</ele><time>2026-04-04T08:49:48.935Z</time></trkpt><trkpt lat="45.6152333" lon="7.9864667"><ele>1018.0</ele><time>2026-04-04T08:49:49.935Z</time></trkpt><trkpt lat="45.6153683" lon="7.9863983"><ele>1018.0</ele><time>2026-04-04T08:49:50.935Z</time></trkpt><trkpt lat="45.6154967" lon="7.9863017"><ele>1018.0</ele><time>2026-04-04T08:49:51.935Z</time></trkpt><trkpt lat="45.615625" lon="7.9861983"><ele>1015.25</ele><time>2026-04-04T08:49:52.935Z</time></trkpt><trkpt lat="45.6157433" lon="7.9861017"><ele>1012.5</ele><time>2026-04-04T08:49:53.935Z</time></trkpt><trkpt lat="45.6158417" lon="7.9859983"><ele>1009.75</ele><time>2026-04-04T08:49:54.935Z</time></trkpt><trkpt lat="45.6159433" lon="7.9858817"><ele>1007.0</ele><time>2026-04-04T08:49:55.935Z</time></trkpt><trkpt lat="45.616015" lon="7.98575"><ele>1016.0</ele><time>2026-04-04T08:49:56.935Z</time></trkpt><trkpt lat="45.6160417" lon="7.9856017"><ele>1025.0</ele><time>2026-04-04T08:49:57.935Z</time></trkpt><trkpt lat="45.6160617" lon="7.9854583"><ele>1034.0</ele><time>2026-04-04T08:49:58.935Z</time></trkpt><trkpt lat="45.6160733" lon="7.9852783"><ele>1043.0</ele><time>2026-04-04T08:49:59.935Z</time></trkpt><trkpt lat="45.616075" lon="7.9850767"><ele>1051.0</ele><time>2026-04-04T08:50:00.935Z</time></trkpt><trkpt lat="45.616075" lon="7.9848617"><ele>1059.0</ele><time>2026-04-04T08:50:01.935Z</time></trkpt><trkpt lat="45.6160783" lon="7.9846417"><ele>1067.0</ele><time>2026-04-04T08:50:02.935Z</time></trkpt><trkpt lat="45.61609" lon="7.9844217"><ele>1070.0</ele><time>2026-04-04T08:50:03.935Z</time></trkpt><trkpt lat="45.6161017" lon="7.98417"><ele>1073.0</ele><time>2026-04-04T08:50:04.935Z</time></trkpt><trkpt lat="45.616105" lon="7.98394"><ele>1076.0</ele><time>2026-04-04T08:50:05.935Z</time></trkpt><trkpt lat="45.6161267" lon="7.9837217"><ele>1067.5</ele><time>2026-04-04T08:50:06.935Z</time></trkpt><trkpt lat="45.6161617" lon="7.9835267"><ele>1059.0</ele><time>2026-04-04T08:50:07.935Z</time></trkpt><trkpt lat="45.616225" lon="7.9833633"><ele>1050.5</ele><time>2026-04-04T08:50:08.935Z</time></trkpt><trkpt lat="45.61632" lon="7.9832217"><ele>1042.0</ele><time>2026-04-04T08:50:09.935Z</time></trkpt><trkpt lat="45.6163933" lon="7.9830883"><ele>1042.0</ele><time>2026-04-04T08:50:10.935Z</time></trkpt><trkpt lat="45.616475" lon="7.982985"><ele>1042.0</ele><time>2026-04-04T08:50:11.935Z</time></trkpt><trkpt lat="45.616575" lon="7.9828767"><ele>1042.0</ele><time>2026-04-04T08:50:12.935Z</time></trkpt><trkpt lat="45.6166983" lon="7.9827733"><ele>1042.0</ele><time>2026-04-04T08:50:13.935Z</time></trkpt><trkpt lat="45.61683" lon="7.9826683"><ele>1042.0</ele><time>2026-04-04T08:50:14.935Z</time></trkpt><trkpt lat="45.6169633" lon="7.98256"><ele>1042.0</ele><time>2026-04-04T08:50:15.935Z</time></trkpt><trkpt lat="45.6170883" lon="7.982475"><ele>1042.0</ele><time>2026-04-04T08:50:16.935Z</time></trkpt><trkpt lat="45.6172017" lon="7.9823817"><ele>1042.0</ele><time>2026-04-04T08:50:17.935Z</time></trkpt><trkpt lat="45.6172983" lon="7.9822967"><ele>1046.0</ele><time>2026-04-04T08:50:18.934Z</time></trkpt><trkpt lat="45.6173933" lon="7.98223"><ele>1050.0</ele><time>2026-04-04T08:50:19.934Z</time></trkpt><trkpt lat="45.6174833" lon="7.982195"><ele>1054.0</ele><time>2026-04-04T08:50:20.935Z</time></trkpt><trkpt lat="45.6175767" lon="7.9822033"><ele>1058.0</ele><time>2026-04-04T08:50:21.935Z</time></trkpt><trkpt lat="45.6176817" lon="7.9822383"><ele>1062.0</ele><time>2026-04-04T08:50:22.935Z</time></trkpt><trkpt lat="45.6177767" lon="7.9823183"><ele>1065.5</ele><time>2026-04-04T08:50:23.935Z</time></trkpt><trkpt lat="45.6178617" lon="7.9824167"><ele>1069.0</ele><time>2026-04-04T08:50:24.935Z</time></trkpt><trkpt lat="45.6179667" lon="7.9825267"><ele>1072.5</ele><time>2026-04-04T08:50:25.934Z</time></trkpt><trkpt lat="45.6180683" lon="7.9826233"><ele>1076.0</ele><time>2026-04-04T08:50:26.935Z</time></trkpt><trkpt lat="45.6181833" lon="7.9827033"><ele>1064.5</ele><time>2026-04-04T08:50:27.935Z</time></trkpt><trkpt lat="45.6182967" lon="7.98275"><ele>1053.0</ele><time>2026-04-04T08:50:28.935Z</time></trkpt><trkpt lat="45.61841" lon="7.982785"><ele>1041.5</ele><time>2026-04-04T08:50:29.935Z</time></trkpt><trkpt lat="45.6185167" lon="7.9827867"><ele>1030.0</ele><time>2026-04-04T08:50:30.935Z</time></trkpt><trkpt lat="45.61863" lon="7.98277"><ele>1036.25</ele><time>2026-04-04T08:50:31.935Z</time></trkpt><trkpt lat="45.61873" lon="7.98276"><ele>1042.5</ele><time>2026-04-04T08:50:32.934Z</time></trkpt><trkpt lat="45.618825" lon="7.9827683"><ele>1048.75</ele><time>2026-04-04T08:50:33.935Z</time></trkpt><trkpt lat="45.61894" lon="7.9828217"><ele>1055.0</ele><time>2026-04-04T08:50:34.935Z</time></trkpt><trkpt lat="45.6190717" lon="7.9829017"><ele>1055.0</ele><time>2026-04-04T08:50:35.935Z</time></trkpt><trkpt lat="45.6191983" lon="7.98298"><ele>1055.0</ele><time>2026-04-04T08:50:36.935Z</time></trkpt><trkpt lat="45.61932" lon="7.9830883"><ele>1055.0</ele><time>2026-04-04T08:50:37.935Z</time></trkpt><trkpt lat="45.6194417" lon="7.9831917"><ele>1055.0</ele><time>2026-04-04T08:50:38.935Z</time></trkpt><trkpt lat="45.6195367" lon="7.983265"><ele>1056.4</ele><time>2026-04-04T08:50:39.935Z</time></trkpt><trkpt lat="45.6196283" lon="7.9833117"><ele>1057.8</ele><time>2026-04-04T08:50:40.935Z</time></trkpt><trkpt lat="45.61971" lon="7.9833333"><ele>1059.2</ele><time>2026-04-04T08:50:41.935Z</time></trkpt><trkpt lat="45.6198067" lon="7.9833033"><ele>1060.6</ele><time>2026-04-04T08:50:42.935Z</time></trkpt><trkpt lat="45.6198917" lon="7.98323"><ele>1062.0</ele><time>2026-04-04T08:50:43.935Z</time></trkpt><trkpt lat="45.6199717" lon="7.9831483"><ele>1062.0</ele><time>2026-04-04T08:50:44.935Z</time></trkpt><trkpt lat="45.6200467" lon="7.9830533"><ele>1062.0</ele><time>2026-04-04T08:50:45.935Z</time></trkpt><trkpt lat="45.6200933" lon="7.9828933"><ele>1062.0</ele><time>2026-04-04T08:50:46.935Z</time></trkpt><trkpt lat="45.620105" lon="7.98272"><ele>1062.0</ele><time>2026-04-04T08:50:47.934Z</time></trkpt><trkpt lat="45.6200983" lon="7.9825333"><ele>1066.5</ele><time>2026-04-04T08:50:48.935Z</time></trkpt><trkpt lat="45.6200717" lon="7.9823367"><ele>1071.0</ele><time>2026-04-04T08:50:49.935Z</time></trkpt><trkpt lat="45.6200317" lon="7.98215"><ele>1075.5</ele><time>2026-04-04T08:50:50.935Z</time></trkpt><trkpt lat="45.6200167" lon="7.9819767"><ele>1080.0</ele><time>2026-04-04T08:50:51.935Z</time></trkpt><trkpt lat="45.6200033" lon="7.9818517"><ele>1080.0</ele><time>2026-04-04T08:50:52.935Z</time></trkpt><trkpt lat="45.6199967" lon="7.9817467"><ele>1080.0</ele><time>2026-04-04T08:50:53.935Z</time></trkpt><trkpt lat="45.6200183" lon="7.981595"><ele>1080.0</ele><time>2026-04-04T08:50:55.935Z</time></trkpt><trkpt lat="45.6201467" lon="7.9815467"><ele>1080.0</ele><time>2026-04-04T08:50:57.934Z</time></trkpt><trkpt lat="45.6202617" lon="7.9815433"><ele>1080.0</ele><time>2026-04-04T08:50:58.935Z</time></trkpt><trkpt lat="45.6204183" lon="7.9815567"><ele>1085.3333333333333</ele><time>2026-04-04T08:50:59.935Z</time></trkpt><trkpt lat="45.620615" lon="7.9815833"><ele>1090.6666666666665</ele><time>2026-04-04T08:51:00.935Z</time></trkpt><trkpt lat="45.6208433" lon="7.9816217"><ele>1096.0</ele><time>2026-04-04T08:51:01.935Z</time></trkpt><trkpt lat="45.6210567" lon="7.981625"><ele>1087.3333333333333</ele><time>2026-04-04T08:51:02.935Z</time></trkpt><trkpt lat="45.621245" lon="7.9816833"><ele>1078.6666666666667</ele><time>2026-04-04T08:51:03.935Z</time></trkpt><trkpt lat="45.6214417" lon="7.9817433"><ele>1070.0</ele><time>2026-04-04T08:51:04.935Z</time></trkpt><trkpt lat="45.6216217" lon="7.9818083"><ele>1070.0</ele><time>2026-04-04T08:51:05.935Z</time></trkpt><trkpt lat="45.6217783" lon="7.9818783"><ele>1070.0</ele><time>2026-04-04T08:51:06.935Z</time></trkpt><trkpt lat="45.6219183" lon="7.9819367"><ele>1070.0</ele><time>2026-04-04T08:51:07.935Z</time></trkpt><trkpt lat="45.62204" lon="7.9819833"><ele>1070.0</ele><time>2026-04-04T08:51:08.934Z</time></trkpt><trkpt lat="45.622145" lon="7.9820183"><ele>1075.0</ele><time>2026-04-04T08:51:09.935Z</time></trkpt><trkpt lat="45.6222417" lon="7.98201"><ele>1080.0</ele><time>2026-04-04T08:51:10.935Z</time></trkpt><trkpt lat="45.62233" lon="7.98196"><ele>1085.0</ele><time>2026-04-04T08:51:11.935Z</time></trkpt><trkpt lat="45.6224217" lon="7.9818783"><ele>1090.0</ele><time>2026-04-04T08:51:12.935Z</time></trkpt><trkpt lat="45.6225083" lon="7.98179"><ele>1095.0</ele><time>2026-04-04T08:51:13.935Z</time></trkpt><trkpt lat="45.6226033" lon="7.9817217"><ele>1097.3333333333333</ele><time>2026-04-04T08:51:14.935Z</time></trkpt><trkpt lat="45.62268" lon="7.9816517"><ele>1099.6666666666667</ele><time>2026-04-04T08:51:15.935Z</time></trkpt><trkpt lat="45.6227583" lon="7.9815967"><ele>1102.0</ele><time>2026-04-04T08:51:16.935Z</time></trkpt><trkpt lat="45.622825" lon="7.98157"><ele>1104.3333333333335</ele><time>2026-04-04T08:51:17.935Z</time></trkpt><trkpt lat="45.6229383" lon="7.9816083"><ele>1106.6666666666667</ele><time>2026-04-04T08:51:19.934Z</time></trkpt><trkpt lat="45.62298" lon="7.9816767"><ele>1109.0</ele><time>2026-04-04T08:51:20.935Z</time></trkpt><trkpt lat="45.6230033" lon="7.9817817"><ele>1111.0</ele><time>2026-04-04T08:51:21.935Z</time></trkpt><trkpt lat="45.6230233" lon="7.9819167"><ele>1113.0</ele><time>2026-04-04T08:51:22.935Z</time></trkpt><trkpt lat="45.6230417" lon="7.9820633"><ele>1115.0</ele><time>2026-04-04T08:51:23.935Z</time></trkpt><trkpt lat="45.6230533" lon="7.9822167"><ele>1117.0</ele><time>2026-04-04T08:51:24.935Z</time></trkpt><trkpt lat="45.6230683" lon="7.9824033"><ele>1119.0</ele><time>2026-04-04T08:51:25.935Z</time></trkpt><trkpt lat="45.62307" lon="7.9825967"><ele>1119.0</ele><time>2026-04-04T08:51:26.934Z</time></trkpt><trkpt lat="45.6230783" lon="7.98277"><ele>1119.0</ele><time>2026-04-04T08:51:27.935Z</time></trkpt><trkpt lat="45.623095" lon="7.9829483"><ele>1119.0</ele><time>2026-04-04T08:51:28.935Z</time></trkpt><trkpt lat="45.6231167" lon="7.9831467"><ele>1119.0</ele><time>2026-04-04T08:51:29.935Z</time></trkpt><trkpt lat="45.6231367" lon="7.98333"><ele>1117.5</ele><time>2026-04-04T08:51:30.934Z</time></trkpt><trkpt lat="45.62315" lon="7.983525"><ele>1116.0</ele><time>2026-04-04T08:51:31.935Z</time></trkpt><trkpt lat="45.6231633" lon="7.983715"><ele>1114.5</ele><time>2026-04-04T08:51:32.935Z</time></trkpt><trkpt lat="45.6231817" lon="7.9838883"><ele>1113.0</ele><time>2026-04-04T08:51:33.935Z</time></trkpt><trkpt lat="45.6232" lon="7.984035"><ele>1113.0</ele><time>2026-04-04T08:51:34.935Z</time></trkpt><trkpt lat="45.6232233" lon="7.9841533"><ele>1113.0</ele><time>2026-04-04T08:51:35.935Z</time></trkpt><trkpt lat="45.6232633" lon="7.9842483"><ele>1113.0</ele><time>2026-04-04T08:51:36.935Z</time></trkpt><trkpt lat="45.6233517" lon="7.984305"><ele>1113.0</ele><time>2026-04-04T08:51:38.934Z</time></trkpt><trkpt lat="45.623415" lon="7.984255"><ele>1113.0</ele><time>2026-04-04T08:51:39.935Z</time></trkpt><trkpt lat="45.6234933" lon="7.984145"><ele>1113.0</ele><time>2026-04-04T08:51:40.935Z</time></trkpt><trkpt lat="45.623565" lon="7.98403"><ele>1113.0</ele><time>2026-04-04T08:51:41.935Z</time></trkpt><trkpt lat="45.6236383" lon="7.9839367"><ele>1113.0</ele><time>2026-04-04T08:51:42.935Z</time></trkpt><trkpt lat="45.6237017" lon="7.9838433"><ele>1113.0</ele><time>2026-04-04T08:51:43.935Z</time></trkpt><trkpt lat="45.623765" lon="7.983775"><ele>1113.0</ele><time>2026-04-04T08:51:44.935Z</time></trkpt><trkpt lat="45.62387" lon="7.98371"><ele>1113.0</ele><time>2026-04-04T08:51:46.935Z</time></trkpt><trkpt lat="45.62396" lon="7.9837417"><ele>1114.2</ele><time>2026-04-04T08:51:48.935Z</time></trkpt><trkpt lat="45.62401" lon="7.98381"><ele>1115.4</ele><time>2026-04-04T08:51:49.934Z</time></trkpt><trkpt lat="45.6240667" lon="7.9839067"><ele>1116.6000000000001</ele><time>2026-04-04T08:51:50.935Z</time></trkpt><trkpt lat="45.6241333" lon="7.9839983"><ele>1117.8</ele><time>2026-04-04T08:51:51.935Z</time></trkpt><trkpt lat="45.6242033" lon="7.9840917"><ele>1119.0</ele><time>2026-04-04T08:51:52.935Z</time></trkpt><trkpt lat="45.6242833" lon="7.9841867"><ele>1116.4</ele><time>2026-04-04T08:51:53.935Z</time></trkpt><trkpt lat="45.6243667" lon="7.984275"><ele>1113.8000000000002</ele><time>2026-04-04T08:51:54.935Z</time></trkpt><trkpt lat="45.6244467" lon="7.9843617"><ele>1111.1999999999998</ele><time>2026-04-04T08:51:55.933Z</time></trkpt><trkpt lat="45.62452" lon="7.9844283"><ele>1108.6</ele><time>2026-04-04T08:51:56.934Z</time></trkpt><trkpt lat="45.6245817" lon="7.98448"><ele>1106.0</ele><time>2026-04-04T08:51:57.934Z</time></trkpt><trkpt lat="45.6247033" lon="7.984475"><ele>1105.3333333333335</ele><time>2026-04-04T08:51:59.934Z</time></trkpt><trkpt lat="45.62477" lon="7.9844167"><ele>1104.6666666666667</ele><time>2026-04-04T08:52:00.934Z</time></trkpt><trkpt lat="45.6248333" lon="7.9843367"><ele>1104.0</ele><time>2026-04-04T08:52:01.934Z</time></trkpt><trkpt lat="45.62489" lon="7.9842483"><ele>1103.3333333333333</ele><time>2026-04-04T08:52:02.933Z</time></trkpt><trkpt lat="45.6249517" lon="7.98415"><ele>1102.6666666666665</ele><time>2026-04-04T08:52:03.934Z</time></trkpt><trkpt lat="45.62501" lon="7.9840533"><ele>1102.0</ele><time>2026-04-04T08:52:04.934Z</time></trkpt><trkpt lat="45.6250667" lon="7.9839617"><ele>1105.1666666666665</ele><time>2026-04-04T08:52:05.934Z</time></trkpt><trkpt lat="45.6251267" lon="7.9838733"><ele>1108.3333333333333</ele><time>2026-04-04T08:52:06.934Z</time></trkpt><trkpt lat="45.62519" lon="7.983785"><ele>1111.5</ele><time>2026-04-04T08:52:07.934Z</time></trkpt><trkpt lat="45.6252517" lon="7.9836967"><ele>1114.6666666666667</ele><time>2026-04-04T08:52:08.934Z</time></trkpt><trkpt lat="45.62531" lon="7.9836017"><ele>1117.8333333333335</ele><time>2026-04-04T08:52:09.934Z</time></trkpt><trkpt lat="45.6253667" lon="7.9835233"><ele>1121.0</ele><time>2026-04-04T08:52:10.934Z</time></trkpt><trkpt lat="45.6254217" lon="7.9834383"><ele>1121.0</ele><time>2026-04-04T08:52:11.934Z</time></trkpt><trkpt lat="45.6254767" lon="7.98335"><ele>1121.0</ele><time>2026-04-04T08:52:12.934Z</time></trkpt><trkpt lat="45.6255283" lon="7.9832583"><ele>1121.0</ele><time>2026-04-04T08:52:13.934Z</time></trkpt><trkpt lat="45.6255733" lon="7.98318"><ele>1121.0</ele><time>2026-04-04T08:52:14.934Z</time></trkpt><trkpt lat="45.6256567" lon="7.9830383"><ele>1121.0</ele><time>2026-04-04T08:52:16.934Z</time></trkpt><trkpt lat="45.6256967" lon="7.9829583"><ele>1121.0</ele><time>2026-04-04T08:52:17.934Z</time></trkpt><trkpt lat="45.6257267" lon="7.982865"><ele>1125.0</ele><time>2026-04-04T08:52:18.934Z</time></trkpt><trkpt lat="45.625735" lon="7.9827233"><ele>1129.0</ele><time>2026-04-04T08:52:20.934Z</time></trkpt><trkpt lat="45.625715" lon="7.9826283"><ele>1133.0</ele><time>2026-04-04T08:52:22.934Z</time></trkpt><trkpt lat="45.6256383" lon="7.98259"><ele>1137.0</ele><time>2026-04-04T08:52:25.934Z</time></trkpt><trkpt lat="45.6255633" lon="7.982495"><ele>1141.0</ele><time>2026-04-04T08:57:08.932Z</time></trkpt><trkpt lat="45.6254967" lon="7.982365"><ele>1141.8</ele><time>2026-04-04T08:57:10.933Z</time></trkpt><trkpt lat="45.6254533" lon="7.982285"><ele>1142.6</ele><time>2026-04-04T08:57:11.933Z</time></trkpt><trkpt lat="45.6253583" lon="7.982155"><ele>1143.4</ele><time>2026-04-04T08:57:13.933Z</time></trkpt><trkpt lat="45.6252867" lon="7.982065"><ele>1144.2</ele><time>2026-04-04T08:57:15.933Z</time></trkpt><trkpt lat="45.6252" lon="7.98207"><ele>1145.0</ele><time>2026-04-04T08:57:18.932Z</time></trkpt><trkpt lat="45.6250917" lon="7.9821483"><ele>1145.2</ele><time>2026-04-04T08:57:20.933Z</time></trkpt><trkpt lat="45.6250317" lon="7.98222"><ele>1145.4</ele><time>2026-04-04T08:57:21.933Z</time></trkpt><trkpt lat="45.6249767" lon="7.9823017"><ele>1145.6</ele><time>2026-04-04T08:57:22.933Z</time></trkpt><trkpt lat="45.6249017" lon="7.9824033"><ele>1145.8</ele><time>2026-04-04T08:57:23.933Z</time></trkpt><trkpt lat="45.62481" lon="7.9825317"><ele>1146.0</ele><time>2026-04-04T08:57:24.932Z</time></trkpt><trkpt lat="45.6247167" lon="7.98267"><ele>1143.75</ele><time>2026-04-04T08:57:25.933Z</time></trkpt><trkpt lat="45.62462" lon="7.9827933"><ele>1141.5</ele><time>2026-04-04T08:57:26.932Z</time></trkpt><trkpt lat="45.624515" lon="7.98293"><ele>1139.25</ele><time>2026-04-04T08:57:27.932Z</time></trkpt><trkpt lat="45.6244067" lon="7.98307"><ele>1137.0</ele><time>2026-04-04T08:57:28.933Z</time></trkpt><trkpt lat="45.62415" lon="7.9833467"><ele>1131.0</ele><time>2026-04-04T08:57:30.933Z</time></trkpt><trkpt lat="45.6240217" lon="7.9834867"><ele>1125.0</ele><time>2026-04-04T08:57:31.933Z</time></trkpt><trkpt lat="45.6238833" lon="7.9836333"><ele>1119.0</ele><time>2026-04-04T08:57:32.933Z</time></trkpt><trkpt lat="45.6237617" lon="7.9837817"><ele>1117.5</ele><time>2026-04-04T08:57:33.933Z</time></trkpt><trkpt lat="45.6236433" lon="7.983925"><ele>1116.0</ele><time>2026-04-04T08:57:34.933Z</time></trkpt><trkpt lat="45.6235417" lon="7.9840517"><ele>1114.5</ele><time>2026-04-04T08:57:35.933Z</time></trkpt><trkpt lat="45.6234517" lon="7.98415"><ele>1113.0</ele><time>2026-04-04T08:57:36.933Z</time></trkpt><trkpt lat="45.6233783" lon="7.9842117"><ele>1113.0</ele><time>2026-04-04T08:57:37.933Z</time></trkpt><trkpt lat="45.62327" lon="7.9842417"><ele>1113.0</ele><time>2026-04-04T08:57:39.933Z</time></trkpt><trkpt lat="45.623185" lon="7.9841567"><ele>1113.0</ele><time>2026-04-04T08:57:41.933Z</time></trkpt><trkpt lat="45.6231233" lon="7.9839633"><ele>1113.0</ele><time>2026-04-04T08:57:43.932Z</time></trkpt><trkpt lat="45.62311" lon="7.9838033"><ele>1113.0</ele><time>2026-04-04T08:57:44.933Z</time></trkpt><trkpt lat="45.6230967" lon="7.98359"><ele>1113.0</ele><time>2026-04-04T08:57:45.933Z</time></trkpt><trkpt lat="45.6230867" lon="7.9833567"><ele>1113.0</ele><time>2026-04-04T08:57:46.933Z</time></trkpt><trkpt lat="45.62308" lon="7.982865"><ele>1115.0</ele><time>2026-04-04T08:57:48.933Z</time></trkpt><trkpt lat="45.6230833" lon="7.982635"><ele>1117.0</ele><time>2026-04-04T08:57:49.932Z</time></trkpt><trkpt lat="45.62306" lon="7.9824117"><ele>1119.0</ele><time>2026-04-04T08:57:50.933Z</time></trkpt><trkpt lat="45.6230183" lon="7.9820267"><ele>1119.4</ele><time>2026-04-04T08:57:52.933Z</time></trkpt><trkpt lat="45.622985" lon="7.9818767"><ele>1119.8000000000002</ele><time>2026-04-04T08:57:53.932Z</time></trkpt><trkpt lat="45.6229533" lon="7.9817717"><ele>1120.1999999999998</ele><time>2026-04-04T08:57:54.932Z</time></trkpt><trkpt lat="45.6229167" lon="7.9816733"><ele>1120.6</ele><time>2026-04-04T08:57:55.933Z</time></trkpt><trkpt lat="45.6228133" lon="7.9816"><ele>1121.0</ele><time>2026-04-04T08:57:57.932Z</time></trkpt><trkpt lat="45.62274" lon="7.981605"><ele>1118.6</ele><time>2026-04-04T08:57:58.933Z</time></trkpt><trkpt lat="45.62267" lon="7.9816383"><ele>1116.1999999999998</ele><time>2026-04-04T08:57:59.933Z</time></trkpt><trkpt lat="45.6225983" lon="7.9816967"><ele>1113.8000000000002</ele><time>2026-04-04T08:58:00.933Z</time></trkpt><trkpt lat="45.6224967" lon="7.9817917"><ele>1111.4</ele><time>2026-04-04T08:58:01.933Z</time></trkpt><trkpt lat="45.62239" lon="7.9818917"><ele>1109.0</ele><time>2026-04-04T08:58:02.933Z</time></trkpt><trkpt lat="45.622275" lon="7.9819667"><ele>1105.5</ele><time>2026-04-04T08:58:03.933Z</time></trkpt><trkpt lat="45.6221483" lon="7.9820133"><ele>1102.0</ele><time>2026-04-04T08:58:04.933Z</time></trkpt><trkpt lat="45.6220433" lon="7.9820017"><ele>1098.5</ele><time>2026-04-04T08:58:05.933Z</time></trkpt><trkpt lat="45.6219183" lon="7.9819733"><ele>1095.0</ele><time>2026-04-04T08:58:06.933Z</time></trkpt><trkpt lat="45.6217783" lon="7.98194"><ele>1086.6666666666667</ele><time>2026-04-04T08:58:07.933Z</time></trkpt><trkpt lat="45.6216067" lon="7.98187"><ele>1078.3333333333335</ele><time>2026-04-04T08:58:08.933Z</time></trkpt><trkpt lat="45.6214267" lon="7.9817883"><ele>1070.0</ele><time>2026-04-04T08:58:09.933Z</time></trkpt><trkpt lat="45.621245" lon="7.9817217"><ele>1066.0</ele><time>2026-04-04T08:58:10.933Z</time></trkpt><trkpt lat="45.621055" lon="7.9816833"><ele>1062.0</ele><time>2026-04-04T08:58:11.933Z</time></trkpt><trkpt lat="45.62086" lon="7.9816617"><ele>1058.0</ele><time>2026-04-04T08:58:12.933Z</time></trkpt><trkpt lat="45.62066" lon="7.98165"><ele>1069.3333333333335</ele><time>2026-04-04T08:58:13.933Z</time></trkpt><trkpt lat="45.62047" lon="7.9816433"><ele>1080.6666666666667</ele><time>2026-04-04T08:58:14.933Z</time></trkpt><trkpt lat="45.620305" lon="7.9816383"><ele>1092.0</ele><time>2026-04-04T08:58:15.933Z</time></trkpt><trkpt lat="45.6201733" lon="7.9816433"><ele>1092.0</ele><time>2026-04-04T08:58:16.933Z</time></trkpt><trkpt lat="45.62008" lon="7.981665"><ele>1092.0</ele><time>2026-04-04T08:58:17.933Z</time></trkpt><trkpt lat="45.6200167" lon="7.9817067"><ele>1092.0</ele><time>2026-04-04T08:58:18.933Z</time></trkpt><trkpt lat="45.6199667" lon="7.9817667"><ele>1092.0</ele><time>2026-04-04T08:58:19.933Z</time></trkpt><trkpt lat="45.6199183" lon="7.9819683"><ele>1092.0</ele><time>2026-04-04T08:58:21.933Z</time></trkpt><trkpt lat="45.6199283" lon="7.98211"><ele>1089.0</ele><time>2026-04-04T08:58:22.933Z</time></trkpt><trkpt lat="45.6199733" lon="7.9822933"><ele>1086.0</ele><time>2026-04-04T08:58:23.933Z</time></trkpt><trkpt lat="45.6200233" lon="7.982495"><ele>1083.0</ele><time>2026-04-04T08:58:24.933Z</time></trkpt><trkpt lat="45.620055" lon="7.9826833"><ele>1080.0</ele><time>2026-04-04T08:58:25.933Z</time></trkpt><trkpt lat="45.6200633" lon="7.982845"><ele>1076.4</ele><time>2026-04-04T08:58:26.933Z</time></trkpt><trkpt lat="45.620035" lon="7.983"><ele>1072.8</ele><time>2026-04-04T08:58:27.933Z</time></trkpt><trkpt lat="45.6199817" lon="7.983125"><ele>1069.2</ele><time>2026-04-04T08:58:28.933Z</time></trkpt><trkpt lat="45.6199017" lon="7.9832233"><ele>1065.6</ele><time>2026-04-04T08:58:29.933Z</time></trkpt><trkpt lat="45.61982" lon="7.9832967"><ele>1062.0</ele><time>2026-04-04T08:58:30.933Z</time></trkpt><trkpt lat="45.6197217" lon="7.9833267"><ele>1062.0</ele><time>2026-04-04T08:58:31.933Z</time></trkpt><trkpt lat="45.61962" lon="7.9833183"><ele>1062.0</ele><time>2026-04-04T08:58:32.933Z</time></trkpt><trkpt lat="45.6195067" lon="7.9832733"><ele>1062.0</ele><time>2026-04-04T08:58:33.933Z</time></trkpt><trkpt lat="45.619385" lon="7.9831733"><ele>1062.0</ele><time>2026-04-04T08:58:34.933Z</time></trkpt><trkpt lat="45.6192583" lon="7.983035"><ele>1060.25</ele><time>2026-04-04T08:58:35.933Z</time></trkpt><trkpt lat="45.61913" lon="7.9829133"><ele>1058.5</ele><time>2026-04-04T08:58:36.933Z</time></trkpt><trkpt lat="45.6190033" lon="7.9828033"><ele>1056.75</ele><time>2026-04-04T08:58:37.933Z</time></trkpt><trkpt lat="45.6188733" lon="7.9827283"><ele>1055.0</ele><time>2026-04-04T08:58:38.933Z</time></trkpt><trkpt lat="45.6187533" lon="7.98269"><ele>1050.0</ele><time>2026-04-04T08:58:39.933Z</time></trkpt><trkpt lat="45.61865" lon="7.9826867"><ele>1045.0</ele><time>2026-04-04T08:58:40.933Z</time></trkpt><trkpt lat="45.6185383" lon="7.982695"><ele>1040.0</ele><time>2026-04-04T08:58:41.933Z</time></trkpt><trkpt lat="45.61843" lon="7.982695"><ele>1035.0</ele><time>2026-04-04T08:58:42.933Z</time></trkpt><trkpt lat="45.6183233" lon="7.98268"><ele>1030.0</ele><time>2026-04-04T08:58:43.933Z</time></trkpt><trkpt lat="45.6182033" lon="7.982655"><ele>1030.0</ele><time>2026-04-04T08:58:44.933Z</time></trkpt><trkpt lat="45.6180883" lon="7.9825733"><ele>1030.0</ele><time>2026-04-04T08:58:45.933Z</time></trkpt><trkpt lat="45.6179817" lon="7.9824617"><ele>1030.0</ele><time>2026-04-04T08:58:46.933Z</time></trkpt><trkpt lat="45.6178883" lon="7.9823533"><ele>1030.0</ele><time>2026-04-04T08:58:47.933Z</time></trkpt><trkpt lat="45.6177733" lon="7.982255"><ele>1036.4</ele><time>2026-04-04T08:58:48.933Z</time></trkpt><trkpt lat="45.61766" lon="7.9821883"><ele>1042.8</ele><time>2026-04-04T08:58:49.933Z</time></trkpt><trkpt lat="45.617555" lon="7.9821583"><ele>1049.2</ele><time>2026-04-04T08:58:50.933Z</time></trkpt><trkpt lat="45.6174567" lon="7.9821583"><ele>1055.6</ele><time>2026-04-04T08:58:51.933Z</time></trkpt><trkpt lat="45.6173533" lon="7.9822017"><ele>1062.0</ele><time>2026-04-04T08:58:52.933Z</time></trkpt><trkpt lat="45.61725" lon="7.98229"><ele>1062.0</ele><time>2026-04-04T08:58:53.933Z</time></trkpt><trkpt lat="45.6171333" lon="7.982415"><ele>1062.0</ele><time>2026-04-04T08:58:54.933Z</time></trkpt><trkpt lat="45.617005" lon="7.98255"><ele>1062.0</ele><time>2026-04-04T08:58:55.933Z</time></trkpt><trkpt lat="45.61686" lon="7.9826833"><ele>1055.3333333333333</ele><time>2026-04-04T08:58:56.933Z</time></trkpt><trkpt lat="45.6167067" lon="7.9828233"><ele>1048.6666666666665</ele><time>2026-04-04T08:58:57.933Z</time></trkpt><trkpt lat="45.6165633" lon="7.9829733"><ele>1042.0</ele><time>2026-04-04T08:58:58.933Z</time></trkpt><trkpt lat="45.6164333" lon="7.9831167"><ele>1042.0</ele><time>2026-04-04T08:58:59.933Z</time></trkpt><trkpt lat="45.6163267" lon="7.983255"><ele>1042.0</ele><time>2026-04-04T08:59:00.932Z</time></trkpt><trkpt lat="45.61624" lon="7.9833883"><ele>1042.0</ele><time>2026-04-04T08:59:01.933Z</time></trkpt><trkpt lat="45.6161833" lon="7.9835417"><ele>1042.0</ele><time>2026-04-04T08:59:02.933Z</time></trkpt><trkpt lat="45.6161617" lon="7.983695"><ele>1050.3333333333333</ele><time>2026-04-04T08:59:03.933Z</time></trkpt><trkpt lat="45.6161383" lon="7.9838933"><ele>1058.6666666666667</ele><time>2026-04-04T08:59:04.933Z</time></trkpt><trkpt lat="45.616135" lon="7.9841183"><ele>1067.0</ele><time>2026-04-04T08:59:05.933Z</time></trkpt><trkpt lat="45.6161283" lon="7.98437"><ele>1067.0</ele><time>2026-04-04T08:59:06.933Z</time></trkpt><trkpt lat="45.6161133" lon="7.9846217"><ele>1067.0</ele><time>2026-04-04T08:59:07.933Z</time></trkpt><trkpt lat="45.6161033" lon="7.9848683"><ele>1067.0</ele><time>2026-04-04T08:59:08.933Z</time></trkpt><trkpt lat="45.6160817" lon="7.9851067"><ele>1061.0</ele><time>2026-04-04T08:59:09.933Z</time></trkpt><trkpt lat="45.6160633" lon="7.9853133"><ele>1055.0</ele><time>2026-04-04T08:59:10.932Z</time></trkpt><trkpt lat="45.61603" lon="7.9855"><ele>1049.0</ele><time>2026-04-04T08:59:11.933Z</time></trkpt><trkpt lat="45.6159883" lon="7.9856733"><ele>1043.0</ele><time>2026-04-04T08:59:12.933Z</time></trkpt><trkpt lat="45.6159317" lon="7.9858217"><ele>1034.0</ele><time>2026-04-04T08:59:13.933Z</time></trkpt><trkpt lat="45.61586" lon="7.985945"><ele>1025.0</ele><time>2026-04-04T08:59:14.932Z</time></trkpt><trkpt lat="45.6157767" lon="7.9860467"><ele>1016.0</ele><time>2026-04-04T08:59:15.933Z</time></trkpt><trkpt lat="45.6156767" lon="7.98614"><ele>1007.0</ele><time>2026-04-04T08:59:16.932Z</time></trkpt><trkpt lat="45.6155517" lon="7.9862233"><ele>1007.0</ele><time>2026-04-04T08:59:17.932Z</time></trkpt><trkpt lat="45.6154233" lon="7.9863183"><ele>1007.0</ele><time>2026-04-04T08:59:18.933Z</time></trkpt><trkpt lat="45.615295" lon="7.986405"><ele>1007.0</ele><time>2026-04-04T08:59:19.933Z</time></trkpt><trkpt lat="45.6151617" lon="7.9864683"><ele>1007.0</ele><time>2026-04-04T08:59:20.933Z</time></trkpt><trkpt lat="45.6150317" lon="7.9864833"><ele>1010.6666666666667</ele><time>2026-04-04T08:59:21.932Z</time></trkpt><trkpt lat="45.6148983" lon="7.9864533"><ele>1014.3333333333333</ele><time>2026-04-04T08:59:22.933Z</time></trkpt><trkpt lat="45.6147417" lon="7.9863933"><ele>1018.0</ele><time>2026-04-04T08:59:23.932Z</time></trkpt><trkpt lat="45.6145617" lon="7.986355"><ele>1015.0</ele><time>2026-04-04T08:59:24.933Z</time></trkpt><trkpt lat="45.6143583" lon="7.9863517"><ele>1012.0</ele><time>2026-04-04T08:59:25.933Z</time></trkpt><trkpt lat="45.6141417" lon="7.98636"><ele>1009.0</ele><time>2026-04-04T08:59:26.933Z</time></trkpt><trkpt lat="45.6139533" lon="7.9863717"><ele>1009.0</ele><time>2026-04-04T08:59:27.933Z</time></trkpt><trkpt lat="45.613785" lon="7.9863533"><ele>1009.0</ele><time>2026-04-04T08:59:28.932Z</time></trkpt><trkpt lat="45.6136317" lon="7.9863433"><ele>1009.0</ele><time>2026-04-04T08:59:29.933Z</time></trkpt><trkpt lat="45.6135067" lon="7.9863267"><ele>1009.0</ele><time>2026-04-04T08:59:30.932Z</time></trkpt><trkpt lat="45.61338" lon="7.98632"><ele>1007.75</ele><time>2026-04-04T08:59:31.933Z</time></trkpt><trkpt lat="45.6132283" lon="7.9863567"><ele>1006.5</ele><time>2026-04-04T08:59:32.933Z</time></trkpt><trkpt lat="45.6130833" lon="7.986425"><ele>1005.25</ele><time>2026-04-04T08:59:33.933Z</time></trkpt><trkpt lat="45.61296" lon="7.9865267"><ele>1004.0</ele><time>2026-04-04T08:59:34.933Z</time></trkpt><trkpt lat="45.6128467" lon="7.9866617"><ele>1000.25</ele><time>2026-04-04T08:59:35.933Z</time></trkpt><trkpt lat="45.6127517" lon="7.9868183"><ele>996.5</ele><time>2026-04-04T08:59:36.932Z</time></trkpt><trkpt lat="45.61269" lon="7.9869983"><ele>992.75</ele><time>2026-04-04T08:59:37.933Z</time></trkpt><trkpt lat="45.61262" lon="7.987145"><ele>989.0</ele><time>2026-04-04T08:59:38.933Z</time></trkpt><trkpt lat="45.6125467" lon="7.9872683"><ele>989.0</ele><time>2026-04-04T08:59:39.932Z</time></trkpt><trkpt lat="45.612445" lon="7.9873667"><ele>989.0</ele><time>2026-04-04T08:59:40.932Z</time></trkpt><trkpt lat="45.6123" lon="7.98745"><ele>989.0</ele><time>2026-04-04T08:59:41.932Z</time></trkpt><trkpt lat="45.6121333" lon="7.9875133"><ele>982.0</ele><time>2026-04-04T08:59:42.932Z</time></trkpt><trkpt lat="45.611945" lon="7.98757"><ele>975.0</ele><time>2026-04-04T08:59:43.932Z</time></trkpt><trkpt lat="45.6117583" lon="7.9876317"><ele>968.0</ele><time>2026-04-04T08:59:44.932Z</time></trkpt><trkpt lat="45.6115567" lon="7.9876833"><ele>968.0</ele><time>2026-04-04T08:59:45.932Z</time></trkpt><trkpt lat="45.611355" lon="7.9877117"><ele>968.0</ele><time>2026-04-04T08:59:46.932Z</time></trkpt><trkpt lat="45.6111583" lon="7.9877333"><ele>968.0</ele><time>2026-04-04T08:59:47.932Z</time></trkpt><trkpt lat="45.6109583" lon="7.9877583"><ele>965.3333333333334</ele><time>2026-04-04T08:59:48.932Z</time></trkpt><trkpt lat="45.6107833" lon="7.9877783"><ele>962.6666666666667</ele><time>2026-04-04T08:59:49.932Z</time></trkpt><trkpt lat="45.6106117" lon="7.9878267"><ele>960.0</ele><time>2026-04-04T08:59:50.932Z</time></trkpt><trkpt lat="45.610435" lon="7.9878817"><ele>957.0</ele><time>2026-04-04T08:59:51.932Z</time></trkpt><trkpt lat="45.6102667" lon="7.98795"><ele>954.0</ele><time>2026-04-04T08:59:52.932Z</time></trkpt><trkpt lat="45.61012" lon="7.9880017"><ele>951.0</ele><time>2026-04-04T08:59:53.932Z</time></trkpt><trkpt lat="45.6099833" lon="7.9880083"><ele>951.0</ele><time>2026-04-04T08:59:54.932Z</time></trkpt><trkpt lat="45.609855" lon="7.9880133"><ele>950.9999999999999</ele><time>2026-04-04T08:59:55.932Z</time></trkpt><trkpt lat="45.6097433" lon="7.9879883"><ele>950.9999999999999</ele><time>2026-04-04T08:59:56.932Z</time></trkpt><trkpt lat="45.6096517" lon="7.9879267"><ele>951.0</ele><time>2026-04-04T08:59:57.931Z</time></trkpt><trkpt lat="45.60958" lon="7.987835"><ele>951.0</ele><time>2026-04-04T08:59:58.932Z</time></trkpt><trkpt lat="45.609535" lon="7.9877083"><ele>951.0</ele><time>2026-04-04T08:59:59.932Z</time></trkpt><trkpt lat="45.6094967" lon="7.9875633"><ele>951.0</ele><time>2026-04-04T09:00:00.932Z</time></trkpt><trkpt lat="45.6094583" lon="7.987415"><ele>951.0</ele><time>2026-04-04T09:00:01.932Z</time></trkpt><trkpt lat="45.6094283" lon="7.9873167"><ele>951.0</ele><time>2026-04-04T09:00:02.932Z</time></trkpt><trkpt lat="45.60939" lon="7.9872333"><ele>951.0</ele><time>2026-04-04T09:00:03.932Z</time></trkpt><trkpt lat="45.6093117" lon="7.9871883"><ele>951.0</ele><time>2026-04-04T09:00:04.932Z</time></trkpt><trkpt lat="45.6092383" lon="7.9871967"><ele>947.5</ele><time>2026-04-04T09:00:05.932Z</time></trkpt><trkpt lat="45.609165" lon="7.9872483"><ele>944.0</ele><time>2026-04-04T09:00:06.932Z</time></trkpt><trkpt lat="45.609085" lon="7.98736"><ele>940.5</ele><time>2026-04-04T09:00:07.932Z</time></trkpt><trkpt lat="45.6089933" lon="7.987565"><ele>937.0</ele><time>2026-04-04T09:00:08.932Z</time></trkpt><trkpt lat="45.6089" lon="7.987745"><ele>937.0</ele><time>2026-04-04T09:00:09.932Z</time></trkpt><trkpt lat="45.6088" lon="7.9878517"><ele>937.0</ele><time>2026-04-04T09:00:10.932Z</time></trkpt><trkpt lat="45.6087017" lon="7.98793"><ele>937.0</ele><time>2026-04-04T09:00:11.932Z</time></trkpt><trkpt lat="45.608595" lon="7.9879933"><ele>937.0</ele><time>2026-04-04T09:00:12.932Z</time></trkpt><trkpt lat="45.6084783" lon="7.9880167"><ele>940.8333333333333</ele><time>2026-04-04T09:00:13.932Z</time></trkpt><trkpt lat="45.6083717" lon="7.98801"><ele>944.6666666666666</ele><time>2026-04-04T09:00:14.931Z</time></trkpt><trkpt lat="45.60829" lon="7.9879967"><ele>948.5</ele><time>2026-04-04T09:00:15.931Z</time></trkpt><trkpt lat="45.6082233" lon="7.9880017"><ele>952.3333333333333</ele><time>2026-04-04T09:00:16.932Z</time></trkpt><trkpt lat="45.60813" lon="7.9880117"><ele>956.1666666666666</ele><time>2026-04-04T09:00:18.932Z</time></trkpt><trkpt lat="45.6081033" lon="7.988095"><ele>960.0</ele><time>2026-04-04T09:00:58.932Z</time></trkpt><trkpt lat="45.6080967" lon="7.988275"><ele>955.4</ele><time>2026-04-04T09:01:00.932Z</time></trkpt><trkpt lat="45.6081083" lon="7.9884017"><ele>950.8</ele><time>2026-04-04T09:01:01.932Z</time></trkpt><trkpt lat="45.60812" lon="7.9885383"><ele>946.2</ele><time>2026-04-04T09:01:02.932Z</time></trkpt><trkpt lat="45.6081367" lon="7.9886833"><ele>941.6</ele><time>2026-04-04T09:01:03.932Z</time></trkpt><trkpt lat="45.60812" lon="7.9888367"><ele>937.0</ele><time>2026-04-04T09:01:04.932Z</time></trkpt><trkpt lat="45.608065" lon="7.98899"><ele>937.0</ele><time>2026-04-04T09:01:05.932Z</time></trkpt><trkpt lat="45.608" lon="7.989145"><ele>937.0</ele><time>2026-04-04T09:01:06.932Z</time></trkpt><trkpt lat="45.6079283" lon="7.989295"><ele>937.0</ele><time>2026-04-04T09:01:07.932Z</time></trkpt><trkpt lat="45.6078383" lon="7.9894517"><ele>937.0</ele><time>2026-04-04T09:01:08.932Z</time></trkpt><trkpt lat="45.6077267" lon="7.9896117"><ele>937.25</ele><time>2026-04-04T09:01:09.932Z</time></trkpt><trkpt lat="45.6076183" lon="7.9897783"><ele>937.5</ele><time>2026-04-04T09:01:10.932Z</time></trkpt><trkpt lat="45.60752" lon="7.9899417"><ele>937.75</ele><time>2026-04-04T09:01:11.932Z</time></trkpt><trkpt lat="45.6074433" lon="7.9901083"><ele>938.0</ele><time>2026-04-04T09:01:12.932Z</time></trkpt><trkpt lat="45.60738" lon="7.9902967"><ele>938.0</ele><time>2026-04-04T09:01:13.932Z</time></trkpt><trkpt lat="45.607335" lon="7.9905167"><ele>938.0</ele><time>2026-04-04T09:01:14.931Z</time></trkpt><trkpt lat="45.6073083" lon="7.9907567"><ele>938.0</ele><time>2026-04-04T09:01:15.932Z</time></trkpt><trkpt lat="45.60729" lon="7.9909733"><ele>934.0</ele><time>2026-04-04T09:01:16.932Z</time></trkpt><trkpt lat="45.6072833" lon="7.9911767"><ele>930.0</ele><time>2026-04-04T09:01:17.932Z</time></trkpt><trkpt lat="45.607275" lon="7.9913467"><ele>926.0</ele><time>2026-04-04T09:01:18.931Z</time></trkpt><trkpt lat="45.607235" lon="7.9915067"><ele>922.0</ele><time>2026-04-04T09:01:19.932Z</time></trkpt><trkpt lat="45.607175" lon="7.9916367"><ele>924.0</ele><time>2026-04-04T09:01:20.932Z</time></trkpt><trkpt lat="45.6070933" lon="7.9917417"><ele>926.0</ele><time>2026-04-04T09:01:21.932Z</time></trkpt><trkpt lat="45.6069633" lon="7.991835"><ele>928.0</ele><time>2026-04-04T09:01:22.932Z</time></trkpt><trkpt lat="45.606835" lon="7.9919733"><ele>930.0</ele><time>2026-04-04T09:01:23.932Z</time></trkpt><trkpt lat="45.606715" lon="7.99215"><ele>930.0</ele><time>2026-04-04T09:01:24.931Z</time></trkpt><trkpt lat="45.6066" lon="7.9923683"><ele>930.0</ele><time>2026-04-04T09:01:25.932Z</time></trkpt><trkpt lat="45.6064883" lon="7.99262"><ele>930.0</ele><time>2026-04-04T09:01:26.932Z</time></trkpt><trkpt lat="45.606365" lon="7.9928733"><ele>926.3333333333333</ele><time>2026-04-04T09:01:27.932Z</time></trkpt><trkpt lat="45.6062617" lon="7.993125"><ele>922.6666666666666</ele><time>2026-04-04T09:01:28.931Z</time></trkpt><trkpt lat="45.606165" lon="7.9933533"><ele>919.0</ele><time>2026-04-04T09:01:29.932Z</time></trkpt><trkpt lat="45.6060733" lon="7.9935583"><ele>919.0</ele><time>2026-04-04T09:01:30.932Z</time></trkpt><trkpt lat="45.605995" lon="7.9937517"><ele>919.0</ele><time>2026-04-04T09:01:31.932Z</time></trkpt><trkpt lat="45.605915" lon="7.9939033"><ele>919.0</ele><time>2026-04-04T09:01:32.932Z</time></trkpt><trkpt lat="45.6058383" lon="7.9940483"><ele>919.0</ele><time>2026-04-04T09:01:33.932Z</time></trkpt><trkpt lat="45.6057483" lon="7.9941467"><ele>913.5</ele><time>2026-04-04T09:01:34.932Z</time></trkpt><trkpt lat="45.6056367" lon="7.9942417"><ele>908.0</ele><time>2026-04-04T09:01:35.932Z</time></trkpt><trkpt lat="45.605515" lon="7.9943183"><ele>902.5</ele><time>2026-04-04T09:01:36.931Z</time></trkpt><trkpt lat="45.6053817" lon="7.9943683"><ele>897.0</ele><time>2026-04-04T09:01:37.932Z</time></trkpt><trkpt lat="45.605235" lon="7.9943667"><ele>897.0</ele><time>2026-04-04T09:01:38.932Z</time></trkpt><trkpt lat="45.6051017" lon="7.9943217"><ele>897.0</ele><time>2026-04-04T09:01:39.932Z</time></trkpt><trkpt lat="45.6049767" lon="7.9942867"><ele>897.0</ele><time>2026-04-04T09:01:40.932Z</time></trkpt><trkpt lat="45.604845" lon="7.9942783"><ele>897.0</ele><time>2026-04-04T09:01:41.932Z</time></trkpt><trkpt lat="45.604715" lon="7.99431"><ele>897.0</ele><time>2026-04-04T09:01:42.931Z</time></trkpt><trkpt lat="45.6046" lon="7.9943867"><ele>897.0</ele><time>2026-04-04T09:01:43.932Z</time></trkpt><trkpt lat="45.6044967" lon="7.9944633"><ele>897.0</ele><time>2026-04-04T09:01:44.932Z</time></trkpt><trkpt lat="45.60443" lon="7.9946117"><ele>897.0</ele><time>2026-04-04T09:01:45.932Z</time></trkpt><trkpt lat="45.6043817" lon="7.9947783"><ele>895.6666666666667</ele><time>2026-04-04T09:01:46.932Z</time></trkpt><trkpt lat="45.6043483" lon="7.994965"><ele>894.3333333333334</ele><time>2026-04-04T09:01:47.932Z</time></trkpt><trkpt lat="45.604285" lon="7.9951633"><ele>893.0</ele><time>2026-04-04T09:01:48.932Z</time></trkpt><trkpt lat="45.6041817" lon="7.9953683"><ele>893.0</ele><time>2026-04-04T09:01:49.932Z</time></trkpt><trkpt lat="45.604055" lon="7.9955817"><ele>893.0</ele><time>2026-04-04T09:01:50.932Z</time></trkpt><trkpt lat="45.6039383" lon="7.9957817"><ele>893.0</ele><time>2026-04-04T09:01:51.932Z</time></trkpt><trkpt lat="45.6038217" lon="7.9959717"><ele>891.75</ele><time>2026-04-04T09:01:52.932Z</time></trkpt><trkpt lat="45.6037283" lon="7.9961733"><ele>890.5</ele><time>2026-04-04T09:01:53.932Z</time></trkpt><trkpt lat="45.6036483" lon="7.9963267"><ele>889.25</ele><time>2026-04-04T09:01:54.932Z</time></trkpt><trkpt lat="45.6035683" lon="7.996455"><ele>888.0</ele><time>2026-04-04T09:01:55.931Z</time></trkpt><trkpt lat="45.6034933" lon="7.996555"><ele>888.0</ele><time>2026-04-04T09:01:56.932Z</time></trkpt><trkpt lat="45.6033967" lon="7.9966317"><ele>888.0</ele><time>2026-04-04T09:01:57.931Z</time></trkpt><trkpt lat="45.6032833" lon="7.9966967"><ele>888.0</ele><time>2026-04-04T09:01:58.932Z</time></trkpt><trkpt lat="45.6031667" lon="7.996755"><ele>888.0</ele><time>2026-04-04T09:01:59.932Z</time></trkpt><trkpt lat="45.6030367" lon="7.9967867"><ele>886.0</ele><time>2026-04-04T09:02:00.932Z</time></trkpt><trkpt lat="45.602915" lon="7.99682"><ele>884.0</ele><time>2026-04-04T09:02:01.932Z</time></trkpt><trkpt lat="45.6028033" lon="7.9968567"><ele>882.0</ele><time>2026-04-04T09:02:02.932Z</time></trkpt><trkpt lat="45.6027117" lon="7.996925"><ele>880.0</ele><time>2026-04-04T09:02:03.932Z</time></trkpt><trkpt lat="45.6026317" lon="7.9970183"><ele>878.0</ele><time>2026-04-04T09:02:04.932Z</time></trkpt><trkpt lat="45.602555" lon="7.9971383"><ele>878.0</ele><time>2026-04-04T09:02:05.932Z</time></trkpt><trkpt lat="45.6025117" lon="7.9972633"><ele>878.0</ele><time>2026-04-04T09:02:06.932Z</time></trkpt><trkpt lat="45.60248" lon="7.9973883"><ele>878.0</ele><time>2026-04-04T09:02:07.932Z</time></trkpt><trkpt lat="45.60247" lon="7.9975417"><ele>878.0</ele><time>2026-04-04T09:02:08.932Z</time></trkpt><trkpt lat="45.6024667" lon="7.9976933"><ele>878.0</ele><time>2026-04-04T09:02:09.932Z</time></trkpt><trkpt lat="45.6024617" lon="7.9978383"><ele>875.0000000000001</ele><time>2026-04-04T09:02:10.932Z</time></trkpt><trkpt lat="45.6024533" lon="7.9979567"><ele>872.0</ele><time>2026-04-04T09:02:11.932Z</time></trkpt><trkpt lat="45.6024233" lon="7.9980567"><ele>869.0</ele><time>2026-04-04T09:02:12.932Z</time></trkpt><trkpt lat="45.6023733" lon="7.99812"><ele>866.0</ele><time>2026-04-04T09:02:13.931Z</time></trkpt><trkpt lat="45.6023133" lon="7.9981583"><ele>863.0000000000001</ele><time>2026-04-04T09:02:14.932Z</time></trkpt><trkpt lat="45.6022367" lon="7.9981467"><ele>860.0</ele><time>2026-04-04T09:02:15.931Z</time></trkpt><trkpt lat="45.6021033" lon="7.9980583"><ele>861.5</ele><time>2026-04-04T09:02:16.932Z</time></trkpt><trkpt lat="45.6019767" lon="7.9979883"><ele>863.0</ele><time>2026-04-04T09:02:17.932Z</time></trkpt><trkpt lat="45.6018633" lon="7.9979483"><ele>864.5</ele><time>2026-04-04T09:02:18.932Z</time></trkpt><trkpt lat="45.6017667" lon="7.997955"><ele>866.0</ele><time>2026-04-04T09:02:19.932Z</time></trkpt><trkpt lat="45.601665" lon="7.997975"><ele>866.0</ele><time>2026-04-04T09:02:20.931Z</time></trkpt><trkpt lat="45.6015783" lon="7.9980317"><ele>865.9999999999999</ele><time>2026-04-04T09:02:21.932Z</time></trkpt><trkpt lat="45.6015317" lon="7.9981317"><ele>865.9999999999999</ele><time>2026-04-04T09:02:22.932Z</time></trkpt><trkpt lat="45.6014833" lon="7.9982517"><ele>866.0</ele><time>2026-04-04T09:02:23.932Z</time></trkpt><trkpt lat="45.6014333" lon="7.9984133"><ele>866.0</ele><time>2026-04-04T09:02:24.932Z</time></trkpt><trkpt lat="45.601405" lon="7.9986"><ele>859.3333333333334</ele><time>2026-04-04T09:02:25.932Z</time></trkpt><trkpt lat="45.6013867" lon="7.99881"><ele>852.6666666666667</ele><time>2026-04-04T09:02:26.932Z</time></trkpt><trkpt lat="45.601375" lon="7.9990367"><ele>846.0</ele><time>2026-04-04T09:02:27.932Z</time></trkpt><trkpt lat="45.6013267" lon="7.9992533"><ele>843.5</ele><time>2026-04-04T09:02:28.932Z</time></trkpt><trkpt lat="45.6012517" lon="7.999445"><ele>841.0</ele><time>2026-04-04T09:02:29.932Z</time></trkpt><trkpt lat="45.6011767" lon="7.999615"><ele>838.5</ele><time>2026-04-04T09:02:30.932Z</time></trkpt><trkpt lat="45.6010983" lon="7.9997683"><ele>836.0</ele><time>2026-04-04T09:02:31.932Z</time></trkpt><trkpt lat="45.6010133" lon="7.9998817"><ele>836.0</ele><time>2026-04-04T09:02:32.932Z</time></trkpt><trkpt lat="45.6009067" lon="7.9999433"><ele>836.0</ele><time>2026-04-04T09:02:33.932Z</time></trkpt><trkpt lat="45.6008" lon="7.9999883"><ele>836.0</ele><time>2026-04-04T09:02:34.932Z</time></trkpt><trkpt lat="45.6006933" lon="7.99997"><ele>836.0</ele><time>2026-04-04T09:02:35.932Z</time></trkpt><trkpt lat="45.6005967" lon="7.9998983"><ele>836.0</ele><time>2026-04-04T09:02:36.932Z</time></trkpt><trkpt lat="45.60051" lon="7.999825"><ele>836.0</ele><time>2026-04-04T09:02:37.931Z</time></trkpt><trkpt lat="45.6004217" lon="7.9997267"><ele>836.0</ele><time>2026-04-04T09:02:38.932Z</time></trkpt><trkpt lat="45.60032" lon="7.9996467"><ele>836.0</ele><time>2026-04-04T09:02:39.932Z</time></trkpt><trkpt lat="45.6002233" lon="7.999625"><ele>836.0</ele><time>2026-04-04T09:02:40.932Z</time></trkpt><trkpt lat="45.6001283" lon="7.9996833"><ele>836.0</ele><time>2026-04-04T09:02:41.932Z</time></trkpt><trkpt lat="45.600065" lon="7.9997933"><ele>836.75</ele><time>2026-04-04T09:02:42.932Z</time></trkpt><trkpt lat="45.6000017" lon="7.9999567"><ele>837.5</ele><time>2026-04-04T09:02:43.931Z</time></trkpt><trkpt lat="45.59997" lon="8.000145"><ele>838.25</ele><time>2026-04-04T09:02:44.932Z</time></trkpt><trkpt lat="45.599935" lon="8.000355"><ele>839.0</ele><time>2026-04-04T09:02:45.932Z</time></trkpt><trkpt lat="45.59989" lon="8.0005683"><ele>839.0</ele><time>2026-04-04T09:02:46.932Z</time></trkpt><trkpt lat="45.59983" lon="8.0007283"><ele>839.0</ele><time>2026-04-04T09:02:47.932Z</time></trkpt><trkpt lat="45.5997583" lon="8.0008817"><ele>839.0</ele><time>2026-04-04T09:02:48.932Z</time></trkpt><trkpt lat="45.5996983" lon="8.001025"><ele>839.0</ele><time>2026-04-04T09:02:49.932Z</time></trkpt><trkpt lat="45.5996467" lon="8.0011817"><ele>834.75</ele><time>2026-04-04T09:02:50.932Z</time></trkpt><trkpt lat="45.5995967" lon="8.0013533"><ele>830.5</ele><time>2026-04-04T09:02:51.932Z</time></trkpt><trkpt lat="45.5995433" lon="8.00154"><ele>826.25</ele><time>2026-04-04T09:02:52.932Z</time></trkpt><trkpt lat="45.5995033" lon="8.001725"><ele>822.0</ele><time>2026-04-04T09:02:53.931Z</time></trkpt><trkpt lat="45.5994533" lon="8.0018883"><ele>820.0</ele><time>2026-04-04T09:02:54.932Z</time></trkpt><trkpt lat="45.5994017" lon="8.0020183"><ele>818.0</ele><time>2026-04-04T09:02:55.932Z</time></trkpt><trkpt lat="45.59932" lon="8.0020933"><ele>816.0</ele><time>2026-04-04T09:02:56.932Z</time></trkpt><trkpt lat="45.599215" lon="8.0021283"><ele>814.0</ele><time>2026-04-04T09:02:57.932Z</time></trkpt><trkpt lat="45.5990833" lon="8.00211"><ele>812.0</ele><time>2026-04-04T09:02:58.932Z</time></trkpt><trkpt lat="45.5989667" lon="8.002055"><ele>812.0</ele><time>2026-04-04T09:02:59.932Z</time></trkpt><trkpt lat="45.5988483" lon="8.001965"><ele>812.0</ele><time>2026-04-04T09:03:00.932Z</time></trkpt><trkpt lat="45.5987567" lon="8.00184"><ele>812.0</ele><time>2026-04-04T09:03:01.932Z</time></trkpt><trkpt lat="45.5986833" lon="8.0016883"><ele>812.0</ele><time>2026-04-04T09:03:02.931Z</time></trkpt><trkpt lat="45.598615" lon="8.001505"><ele>808.3333333333334</ele><time>2026-04-04T09:03:03.931Z</time></trkpt><trkpt lat="45.5985317" lon="8.0012833"><ele>804.6666666666667</ele><time>2026-04-04T09:03:04.931Z</time></trkpt><trkpt lat="45.5984283" lon="8.0010683"><ele>801.0</ele><time>2026-04-04T09:03:05.932Z</time></trkpt><trkpt lat="45.59834" lon="8.0008383"><ele>805.0</ele><time>2026-04-04T09:03:06.932Z</time></trkpt><trkpt lat="45.5982567" lon="8.0006233"><ele>809.0</ele><time>2026-04-04T09:03:07.932Z</time></trkpt><trkpt lat="45.5981933" lon="8.0004233"><ele>813.0</ele><time>2026-04-04T09:03:08.931Z</time></trkpt><trkpt lat="45.5981317" lon="8.0002617"><ele>813.0</ele><time>2026-04-04T09:03:09.932Z</time></trkpt><trkpt lat="45.59804" lon="8.0001517"><ele>813.0</ele><time>2026-04-04T09:03:10.932Z</time></trkpt><trkpt lat="45.5979267" lon="8.0000883"><ele>813.0</ele><time>2026-04-04T09:03:11.932Z</time></trkpt><trkpt lat="45.5978083" lon="8.0000533"><ele>813.0</ele><time>2026-04-04T09:03:12.932Z</time></trkpt><trkpt lat="45.5976967" lon="8.0000017"><ele>807.4</ele><time>2026-04-04T09:03:13.932Z</time></trkpt><trkpt lat="45.597615" lon="7.9999417"><ele>801.8</ele><time>2026-04-04T09:03:14.932Z</time></trkpt><trkpt lat="45.5975733" lon="7.9998483"><ele>796.2</ele><time>2026-04-04T09:03:15.932Z</time></trkpt><trkpt lat="45.597545" lon="7.999725"><ele>790.6</ele><time>2026-04-04T09:03:16.932Z</time></trkpt><trkpt lat="45.5975517" lon="7.9995833"><ele>785.0</ele><time>2026-04-04T09:03:17.932Z</time></trkpt><trkpt lat="45.5975917" lon="7.9994367"><ele>785.0</ele><time>2026-04-04T09:03:18.932Z</time></trkpt><trkpt lat="45.5976533" lon="7.9992917"><ele>785.0</ele><time>2026-04-04T09:03:19.932Z</time></trkpt><trkpt lat="45.5977" lon="7.9991483"><ele>785.0</ele><time>2026-04-04T09:03:20.932Z</time></trkpt><trkpt lat="45.59772" lon="7.99902"><ele>785.0</ele><time>2026-04-04T09:03:21.932Z</time></trkpt><trkpt lat="45.597725" lon="7.9989117"><ele>785.0</ele><time>2026-04-04T09:03:22.931Z</time></trkpt><trkpt lat="45.5977133" lon="7.9988083"><ele>786.4</ele><time>2026-04-04T09:03:23.931Z</time></trkpt><trkpt lat="45.5976633" lon="7.9987533"><ele>787.8</ele><time>2026-04-04T09:03:24.932Z</time></trkpt><trkpt lat="45.597585" lon="7.9987483"><ele>789.2</ele><time>2026-04-04T09:03:25.932Z</time></trkpt><trkpt lat="45.5975033" lon="7.9988167"><ele>790.6</ele><time>2026-04-04T09:03:26.932Z</time></trkpt><trkpt lat="45.5974417" lon="7.9989117"><ele>792.0</ele><time>2026-04-04T09:03:27.932Z</time></trkpt><trkpt lat="45.5974" lon="7.999115"><ele>789.6666666666667</ele><time>2026-04-04T09:03:28.932Z</time></trkpt><trkpt lat="45.59737" lon="7.9993433"><ele>787.3333333333334</ele><time>2026-04-04T09:03:29.931Z</time></trkpt><trkpt lat="45.5973517" lon="7.999595"><ele>785.0</ele><time>2026-04-04T09:03:30.931Z</time></trkpt><trkpt lat="45.5973483" lon="7.9998233"><ele>785.0</ele><time>2026-04-04T09:03:31.931Z</time></trkpt><trkpt lat="45.59736" lon="8.0000417"><ele>785.0</ele><time>2026-04-04T09:03:32.931Z</time></trkpt><trkpt lat="45.5973983" lon="8.0002833"><ele>785.0</ele><time>2026-04-04T09:03:33.931Z</time></trkpt><trkpt lat="45.5974617" lon="8.0005233"><ele>785.0</ele><time>2026-04-04T09:03:34.931Z</time></trkpt><trkpt lat="45.5975567" lon="8.000785"><ele>785.0</ele><time>2026-04-04T09:03:35.93Z</time></trkpt><trkpt lat="45.59765" lon="8.0010717"><ele>785.0</ele><time>2026-04-04T09:03:36.931Z</time></trkpt><trkpt lat="45.5977267" lon="8.001365"><ele>786.6666666666667</ele><time>2026-04-04T09:03:37.931Z</time></trkpt><trkpt lat="45.597805" lon="8.0016717"><ele>788.3333333333333</ele><time>2026-04-04T09:03:38.931Z</time></trkpt><trkpt lat="45.597875" lon="8.0019433"><ele>790.0</ele><time>2026-04-04T09:03:39.931Z</time></trkpt><trkpt lat="45.5979133" lon="8.0021733"><ele>790.0</ele><time>2026-04-04T09:03:40.931Z</time></trkpt><trkpt lat="45.5979467" lon="8.0023833"><ele>790.0</ele><time>2026-04-04T09:03:41.931Z</time></trkpt><trkpt lat="45.597965" lon="8.002575"><ele>790.0</ele><time>2026-04-04T09:03:42.931Z</time></trkpt><trkpt lat="45.5979267" lon="8.0027833"><ele>790.0</ele><time>2026-04-04T09:03:43.931Z</time></trkpt><trkpt lat="45.597845" lon="8.0029733"><ele>778.6666666666666</ele><time>2026-04-04T09:03:44.931Z</time></trkpt><trkpt lat="45.5977333" lon="8.0031433"><ele>767.3333333333333</ele><time>2026-04-04T09:03:45.93Z</time></trkpt><trkpt lat="45.5976433" lon="8.0033283"><ele>756.0</ele><time>2026-04-04T09:03:46.931Z</time></trkpt><trkpt lat="45.5975417" lon="8.003505"><ele>755.5</ele><time>2026-04-04T09:03:47.931Z</time></trkpt><trkpt lat="45.5974583" lon="8.0036717"><ele>755.0</ele><time>2026-04-04T09:03:48.931Z</time></trkpt><trkpt lat="45.597405" lon="8.00382"><ele>754.5</ele><time>2026-04-04T09:03:49.931Z</time></trkpt><trkpt lat="45.5973783" lon="8.0039817"><ele>754.0</ele><time>2026-04-04T09:03:50.931Z</time></trkpt><trkpt lat="45.5973833" lon="8.00416"><ele>755.0</ele><time>2026-04-04T09:03:51.931Z</time></trkpt><trkpt lat="45.5974117" lon="8.00437"><ele>756.0</ele><time>2026-04-04T09:03:52.931Z</time></trkpt><trkpt lat="45.59746" lon="8.0046033"><ele>757.0</ele><time>2026-04-04T09:03:53.931Z</time></trkpt><trkpt lat="45.5975067" lon="8.0048467"><ele>756.6666666666667</ele><time>2026-04-04T09:03:54.931Z</time></trkpt><trkpt lat="45.5975217" lon="8.0050933"><ele>756.3333333333334</ele><time>2026-04-04T09:03:55.931Z</time></trkpt><trkpt lat="45.597495" lon="8.0053417"><ele>756.0</ele><time>2026-04-04T09:03:56.93Z</time></trkpt><trkpt lat="45.5974667" lon="8.00561"><ele>756.0</ele><time>2026-04-04T09:03:57.93Z</time></trkpt><trkpt lat="45.5974217" lon="8.0058517"><ele>756.0</ele><time>2026-04-04T09:03:58.931Z</time></trkpt><trkpt lat="45.5973783" lon="8.006085"><ele>756.0</ele><time>2026-04-04T09:03:59.931Z</time></trkpt><trkpt lat="45.5973133" lon="8.006315"><ele>756.0</ele><time>2026-04-04T09:04:00.931Z</time></trkpt><trkpt lat="45.5972267" lon="8.0065283"><ele>756.0</ele><time>2026-04-04T09:04:01.931Z</time></trkpt><trkpt lat="45.59713" lon="8.00675"><ele>756.0</ele><time>2026-04-04T09:04:02.931Z</time></trkpt><trkpt lat="45.5970283" lon="8.00695"><ele>750.0</ele><time>2026-04-04T09:04:03.931Z</time></trkpt><trkpt lat="45.59692" lon="8.007145"><ele>744.0</ele><time>2026-04-04T09:04:04.931Z</time></trkpt><trkpt lat="45.5967683" lon="8.0073317"><ele>738.0</ele><time>2026-04-04T09:04:05.93Z</time></trkpt><trkpt lat="45.5966117" lon="8.0075183"><ele>738.0</ele><time>2026-04-04T09:04:06.93Z</time></trkpt><trkpt lat="45.5964467" lon="8.0076867"><ele>738.0</ele><time>2026-04-04T09:04:07.93Z</time></trkpt><trkpt lat="45.5962733" lon="8.0078417"><ele>738.0</ele><time>2026-04-04T09:04:08.931Z</time></trkpt><trkpt lat="45.5961233" lon="8.0079633"><ele>736.5</ele><time>2026-04-04T09:04:09.931Z</time></trkpt><trkpt lat="45.59601" lon="8.0080667"><ele>735.0</ele><time>2026-04-04T09:04:10.931Z</time></trkpt><trkpt lat="45.5959167" lon="8.0081767"><ele>733.5</ele><time>2026-04-04T09:04:11.931Z</time></trkpt><trkpt lat="45.595865" lon="8.008305"><ele>732.0</ele><time>2026-04-04T09:04:12.931Z</time></trkpt><trkpt lat="45.59582" lon="8.0084383"><ele>732.0</ele><time>2026-04-04T09:04:13.93Z</time></trkpt><trkpt lat="45.5957783" lon="8.0085767"><ele>732.0</ele><time>2026-04-04T09:04:14.931Z</time></trkpt><trkpt lat="45.5957317" lon="8.0087117"><ele>732.0</ele><time>2026-04-04T09:04:15.931Z</time></trkpt><trkpt lat="45.5956483" lon="8.00903"><ele>732.0</ele><time>2026-04-04T09:04:17.95Z</time></trkpt><trkpt lat="45.59562" lon="8.0092767"><ele>732.25</ele><time>2026-04-04T09:04:18.95Z</time></trkpt><trkpt lat="45.5955633" lon="8.0094183"><ele>732.5</ele><time>2026-04-04T09:04:19.95Z</time></trkpt><trkpt lat="45.59546" lon="8.0095733"><ele>732.75</ele><time>2026-04-04T09:04:20.949Z</time></trkpt><trkpt lat="45.5953333" lon="8.009715"><ele>733.0</ele><time>2026-04-04T09:04:21.95Z</time></trkpt><trkpt lat="45.5952017" lon="8.0098567"><ele>734.0</ele><time>2026-04-04T09:04:22.95Z</time></trkpt><trkpt lat="45.5950817" lon="8.0100133"><ele>735.0</ele><time>2026-04-04T09:04:23.949Z</time></trkpt><trkpt lat="45.5950133" lon="8.0101867"><ele>736.0</ele><time>2026-04-04T09:04:24.95Z</time></trkpt><trkpt lat="45.594945" lon="8.0103883"><ele>736.0</ele><time>2026-04-04T09:04:25.95Z</time></trkpt><trkpt lat="45.59489" lon="8.010595"><ele>736.0</ele><time>2026-04-04T09:04:26.95Z</time></trkpt><trkpt lat="45.5948733" lon="8.010795"><ele>736.0</ele><time>2026-04-04T09:04:27.95Z</time></trkpt><trkpt lat="45.594845" lon="8.010985"><ele>736.0</ele><time>2026-04-04T09:04:28.95Z</time></trkpt><trkpt lat="45.594775" lon="8.011155"><ele>736.5999999999999</ele><time>2026-04-04T09:04:29.95Z</time></trkpt><trkpt lat="45.5947" lon="8.01127"><ele>737.2</ele><time>2026-04-04T09:04:30.95Z</time></trkpt><trkpt lat="45.5946" lon="8.011345"><ele>737.8</ele><time>2026-04-04T09:04:31.95Z</time></trkpt><trkpt lat="45.5945233" lon="8.0114383"><ele>738.4000000000001</ele><time>2026-04-04T09:04:32.949Z</time></trkpt><trkpt lat="45.5944817" lon="8.0115533"><ele>739.0</ele><time>2026-04-04T09:04:33.95Z</time></trkpt><trkpt lat="45.5944667" lon="8.0116717"><ele>735.8333333333334</ele><time>2026-04-04T09:04:34.95Z</time></trkpt><trkpt lat="45.5944767" lon="8.0117883"><ele>732.6666666666667</ele><time>2026-04-04T09:04:35.95Z</time></trkpt><trkpt lat="45.594505" lon="8.0118833"><ele>729.5</ele><time>2026-04-04T09:04:36.95Z</time></trkpt><trkpt lat="45.5945833" lon="8.0119367"><ele>726.3333333333334</ele><time>2026-04-04T09:04:37.949Z</time></trkpt><trkpt lat="45.5946767" lon="8.0119683"><ele>723.1666666666666</ele><time>2026-04-04T09:04:38.95Z</time></trkpt><trkpt lat="45.594775" lon="8.011925"><ele>720.0</ele><time>2026-04-04T09:04:39.95Z</time></trkpt><trkpt lat="45.594885" lon="8.0118217"><ele>721.0</ele><time>2026-04-04T09:04:40.95Z</time></trkpt><trkpt lat="45.594975" lon="8.011665"><ele>722.0</ele><time>2026-04-04T09:04:41.95Z</time></trkpt><trkpt lat="45.59506" lon="8.01143"><ele>723.0</ele><time>2026-04-04T09:04:42.95Z</time></trkpt><trkpt lat="45.5951567" lon="8.011185"><ele>723.0</ele><time>2026-04-04T09:04:43.95Z</time></trkpt><trkpt lat="45.5952633" lon="8.010945"><ele>723.0</ele><time>2026-04-04T09:04:44.95Z</time></trkpt><trkpt lat="45.5953683" lon="8.0107117"><ele>723.0</ele><time>2026-04-04T09:04:45.95Z</time></trkpt><trkpt lat="45.5954733" lon="8.0105217"><ele>722.5</ele><time>2026-04-04T09:04:46.95Z</time></trkpt><trkpt lat="45.5955717" lon="8.0104083"><ele>722.0</ele><time>2026-04-04T09:04:47.949Z</time></trkpt><trkpt lat="45.5956883" lon="8.0103083"><ele>721.5</ele><time>2026-04-04T09:04:48.95Z</time></trkpt><trkpt lat="45.5958267" lon="8.0102367"><ele>721.0</ele><time>2026-04-04T09:04:49.95Z</time></trkpt><trkpt lat="45.5959883" lon="8.0101817"><ele>721.0</ele><time>2026-04-04T09:04:50.95Z</time></trkpt><trkpt lat="45.5961567" lon="8.01016"><ele>721.0</ele><time>2026-04-04T09:04:51.95Z</time></trkpt><trkpt lat="45.596305" lon="8.0101383"><ele>721.0</ele><time>2026-04-04T09:04:52.95Z</time></trkpt><trkpt lat="45.5964383" lon="8.0101317"><ele>720.4</ele><time>2026-04-04T09:04:53.95Z</time></trkpt><trkpt lat="45.5965567" lon="8.0101383"><ele>719.8</ele><time>2026-04-04T09:04:54.95Z</time></trkpt><trkpt lat="45.5966633" lon="8.0101583"><ele>719.1999999999999</ele><time>2026-04-04T09:04:55.95Z</time></trkpt><trkpt lat="45.59673" lon="8.0102233"><ele>718.5999999999999</ele><time>2026-04-04T09:04:56.95Z</time></trkpt><trkpt lat="45.59677" lon="8.010335"><ele>718.0</ele><time>2026-04-04T09:04:57.95Z</time></trkpt><trkpt lat="45.5967833" lon="8.01048"><ele>718.0</ele><time>2026-04-04T09:04:58.95Z</time></trkpt><trkpt lat="45.5967633" lon="8.0106233"><ele>718.0</ele><time>2026-04-04T09:04:59.95Z</time></trkpt><trkpt lat="45.596695" lon="8.010775"><ele>718.0</ele><time>2026-04-04T09:05:00.95Z</time></trkpt><trkpt lat="45.5966367" lon="8.010935"><ele>718.0</ele><time>2026-04-04T09:05:01.95Z</time></trkpt><trkpt lat="45.5965767" lon="8.0111167"><ele>714.0</ele><time>2026-04-04T09:05:02.95Z</time></trkpt><trkpt lat="45.5965633" lon="8.0112917"><ele>710.0</ele><time>2026-04-04T09:05:03.949Z</time></trkpt><trkpt lat="45.5965683" lon="8.0115017"><ele>706.0</ele><time>2026-04-04T09:05:04.95Z</time></trkpt><trkpt lat="45.596625" lon="8.0116983"><ele>702.0</ele><time>2026-04-04T09:05:05.949Z</time></trkpt><trkpt lat="45.5967067" lon="8.0119"><ele>700.0</ele><time>2026-04-04T09:05:06.95Z</time></trkpt><trkpt lat="45.596755" lon="8.0121067"><ele>698.0</ele><time>2026-04-04T09:05:07.95Z</time></trkpt><trkpt lat="45.5967633" lon="8.0123183"><ele>696.0</ele><time>2026-04-04T09:05:08.95Z</time></trkpt><trkpt lat="45.5967483" lon="8.012535"><ele>695.6666666666666</ele><time>2026-04-04T09:05:09.95Z</time></trkpt><trkpt lat="45.5967133" lon="8.0127683"><ele>695.3333333333333</ele><time>2026-04-04T09:05:10.95Z</time></trkpt><trkpt lat="45.5967017" lon="8.0130133"><ele>695.0</ele><time>2026-04-04T09:05:11.95Z</time></trkpt><trkpt lat="45.5967017" lon="8.0132783"><ele>692.6666666666666</ele><time>2026-04-04T09:05:12.95Z</time></trkpt><trkpt lat="45.5967" lon="8.01355"><ele>690.3333333333334</ele><time>2026-04-04T09:05:13.95Z</time></trkpt><trkpt lat="45.5967067" lon="8.0138283"><ele>688.0</ele><time>2026-04-04T09:05:14.95Z</time></trkpt><trkpt lat="45.596675" lon="8.014115"><ele>685.3333333333334</ele><time>2026-04-04T09:05:15.95Z</time></trkpt><trkpt lat="45.5966417" lon="8.014405"><ele>682.6666666666666</ele><time>2026-04-04T09:05:16.95Z</time></trkpt><trkpt lat="45.5965983" lon="8.0146767"><ele>680.0</ele><time>2026-04-04T09:05:17.95Z</time></trkpt><trkpt lat="45.5965733" lon="8.0149133"><ele>679.5</ele><time>2026-04-04T09:05:18.949Z</time></trkpt><trkpt lat="45.5965483" lon="8.01513"><ele>679.0</ele><time>2026-04-04T09:05:19.95Z</time></trkpt><trkpt lat="45.5965583" lon="8.0153167"><ele>678.5</ele><time>2026-04-04T09:05:20.95Z</time></trkpt><trkpt lat="45.596615" lon="8.015505"><ele>678.0</ele><time>2026-04-04T09:05:21.95Z</time></trkpt><trkpt lat="45.596685" lon="8.01567"><ele>678.0</ele><time>2026-04-04T09:05:22.95Z</time></trkpt><trkpt lat="45.5967883" lon="8.0157967"><ele>678.0</ele><time>2026-04-04T09:05:23.95Z</time></trkpt><trkpt lat="45.5968767" lon="8.0158933"><ele>678.0</ele><time>2026-04-04T09:05:24.95Z</time></trkpt><trkpt lat="45.5969433" lon="8.01601"><ele>678.0</ele><time>2026-04-04T09:05:25.95Z</time></trkpt><trkpt lat="45.59697" lon="8.016145"><ele>674.75</ele><time>2026-04-04T09:05:26.949Z</time></trkpt><trkpt lat="45.59695" lon="8.0163067"><ele>671.5</ele><time>2026-04-04T09:05:27.95Z</time></trkpt><trkpt lat="45.596905" lon="8.0164783"><ele>668.25</ele><time>2026-04-04T09:05:28.95Z</time></trkpt><trkpt lat="45.59688" lon="8.0166483"><ele>665.0</ele><time>2026-04-04T09:05:29.95Z</time></trkpt><trkpt lat="45.5969067" lon="8.0168317"><ele>662.5</ele><time>2026-04-04T09:05:30.95Z</time></trkpt><trkpt lat="45.5969783" lon="8.0170083"><ele>660.0</ele><time>2026-04-04T09:05:31.95Z</time></trkpt><trkpt lat="45.5970667" lon="8.0171867"><ele>657.5</ele><time>2026-04-04T09:05:32.95Z</time></trkpt><trkpt lat="45.5971283" lon="8.01737"><ele>655.0</ele><time>2026-04-04T09:05:33.95Z</time></trkpt><trkpt lat="45.597165" lon="8.0175333"><ele>662.25</ele><time>2026-04-04T09:05:34.95Z</time></trkpt><trkpt lat="45.5971533" lon="8.017705"><ele>669.5</ele><time>2026-04-04T09:05:35.95Z</time></trkpt><trkpt lat="45.5971083" lon="8.0179017"><ele>676.75</ele><time>2026-04-04T09:05:36.95Z</time></trkpt><trkpt lat="45.5970567" lon="8.0180867"><ele>684.0</ele><time>2026-04-04T09:05:37.95Z</time></trkpt><trkpt lat="45.597025" lon="8.018265"><ele>680.25</ele><time>2026-04-04T09:05:38.95Z</time></trkpt><trkpt lat="45.5970333" lon="8.018425"><ele>676.5</ele><time>2026-04-04T09:05:39.95Z</time></trkpt><trkpt lat="45.5970833" lon="8.0185817"><ele>672.75</ele><time>2026-04-04T09:05:40.95Z</time></trkpt><trkpt lat="45.5971633" lon="8.01872"><ele>669.0</ele><time>2026-04-04T09:05:41.949Z</time></trkpt><trkpt lat="45.59723" lon="8.0188533"><ele>669.0</ele><time>2026-04-04T09:05:42.95Z</time></trkpt><trkpt lat="45.5972483" lon="8.019"><ele>669.0</ele><time>2026-04-04T09:05:43.949Z</time></trkpt><trkpt lat="45.59722" lon="8.019135"><ele>669.0</ele><time>2026-04-04T09:05:44.95Z</time></trkpt><trkpt lat="45.59715" lon="8.0192733"><ele>669.0</ele><time>2026-04-04T09:05:45.95Z</time></trkpt><trkpt lat="45.5970633" lon="8.0194017"><ele>669.0</ele><time>2026-04-04T09:05:46.95Z</time></trkpt><trkpt lat="45.59697" lon="8.0195017"><ele>661.5</ele><time>2026-04-04T09:05:47.95Z</time></trkpt><trkpt lat="45.596855" lon="8.0195733"><ele>654.0</ele><time>2026-04-04T09:05:48.95Z</time></trkpt><trkpt lat="45.5967283" lon="8.019655"><ele>646.5</ele><time>2026-04-04T09:05:49.95Z</time></trkpt><trkpt lat="45.59661" lon="8.0197383"><ele>639.0</ele><time>2026-04-04T09:05:50.95Z</time></trkpt><trkpt lat="45.5965317" lon="8.0198583"><ele>640.0</ele><time>2026-04-04T09:05:51.949Z</time></trkpt><trkpt lat="45.59649" lon="8.0200167"><ele>641.0</ele><time>2026-04-04T09:05:52.95Z</time></trkpt><trkpt lat="45.596475" lon="8.0202317"><ele>642.0</ele><time>2026-04-04T09:05:53.95Z</time></trkpt><trkpt lat="45.596465" lon="8.02046"><ele>643.0</ele><time>2026-04-04T09:05:54.949Z</time></trkpt><trkpt lat="45.59645" lon="8.0206867"><ele>642.75</ele><time>2026-04-04T09:05:55.95Z</time></trkpt><trkpt lat="45.5964167" lon="8.0208867"><ele>642.5</ele><time>2026-04-04T09:05:56.95Z</time></trkpt><trkpt lat="45.5963667" lon="8.021085"><ele>642.25</ele><time>2026-04-04T09:05:57.95Z</time></trkpt><trkpt lat="45.5963217" lon="8.0212767"><ele>642.0</ele><time>2026-04-04T09:05:58.949Z</time></trkpt><trkpt lat="45.596265" lon="8.021465"><ele>642.0</ele><time>2026-04-04T09:05:59.95Z</time></trkpt><trkpt lat="45.5962367" lon="8.02163"><ele>642.0</ele><time>2026-04-04T09:06:00.95Z</time></trkpt><trkpt lat="45.5962183" lon="8.021785"><ele>642.0</ele><time>2026-04-04T09:06:01.95Z</time></trkpt><trkpt lat="45.596235" lon="8.021945"><ele>642.0</ele><time>2026-04-04T09:06:02.95Z</time></trkpt><trkpt lat="45.5963017" lon="8.02206"><ele>642.0</ele><time>2026-04-04T09:06:03.95Z</time></trkpt><trkpt lat="45.5963917" lon="8.0221267"><ele>640.0</ele><time>2026-04-04T09:06:04.95Z</time></trkpt><trkpt lat="45.596485" lon="8.022155"><ele>638.0</ele><time>2026-04-04T09:06:05.95Z</time></trkpt><trkpt lat="45.5965933" lon="8.02213"><ele>636.0</ele><time>2026-04-04T09:06:06.949Z</time></trkpt><trkpt lat="45.5967017" lon="8.0220783"><ele>634.0</ele><time>2026-04-04T09:06:07.95Z</time></trkpt><trkpt lat="45.596805" lon="8.02203"><ele>632.0</ele><time>2026-04-04T09:06:08.95Z</time></trkpt><trkpt lat="45.5968917" lon="8.02204"><ele>632.0</ele><time>2026-04-04T09:06:09.95Z</time></trkpt><trkpt lat="45.5969767" lon="8.0220867"><ele>632.0</ele><time>2026-04-04T09:06:10.95Z</time></trkpt><trkpt lat="45.5970367" lon="8.0221733"><ele>632.0</ele><time>2026-04-04T09:06:11.949Z</time></trkpt><trkpt lat="45.5970883" lon="8.0222767"><ele>632.0</ele><time>2026-04-04T09:06:12.95Z</time></trkpt><trkpt lat="45.5970933" lon="8.0224067"><ele>632.0</ele><time>2026-04-04T09:06:13.95Z</time></trkpt><trkpt lat="45.5970767" lon="8.022525"><ele>632.0</ele><time>2026-04-04T09:06:14.95Z</time></trkpt><trkpt lat="45.597015" lon="8.0226717"><ele>629.75</ele><time>2026-04-04T09:06:15.95Z</time></trkpt><trkpt lat="45.5969183" lon="8.0227983"><ele>627.5</ele><time>2026-04-04T09:06:16.949Z</time></trkpt><trkpt lat="45.5968083" lon="8.0229083"><ele>625.25</ele><time>2026-04-04T09:06:17.95Z</time></trkpt><trkpt lat="45.5966817" lon="8.0230233"><ele>623.0</ele><time>2026-04-04T09:06:18.95Z</time></trkpt><trkpt lat="45.5965717" lon="8.023125"><ele>623.0</ele><time>2026-04-04T09:06:19.95Z</time></trkpt><trkpt lat="45.59646" lon="8.02322"><ele>623.0</ele><time>2026-04-04T09:06:20.95Z</time></trkpt><trkpt lat="45.5963483" lon="8.0233167"><ele>623.0</ele><time>2026-04-04T09:06:21.95Z</time></trkpt><trkpt lat="45.5962367" lon="8.0234083"><ele>623.0</ele><time>2026-04-04T09:06:22.95Z</time></trkpt><trkpt lat="45.5961117" lon="8.0234917"><ele>620.5</ele><time>2026-04-04T09:06:23.95Z</time></trkpt><trkpt lat="45.5959867" lon="8.02357"><ele>618.0</ele><time>2026-04-04T09:06:24.95Z</time></trkpt><trkpt lat="45.5958633" lon="8.0236467"><ele>615.5</ele><time>2026-04-04T09:06:25.95Z</time></trkpt><trkpt lat="45.5957567" lon="8.02374"><ele>613.0</ele><time>2026-04-04T09:06:26.95Z</time></trkpt><trkpt lat="45.5956717" lon="8.0238417"><ele>613.0</ele><time>2026-04-04T09:06:27.95Z</time></trkpt><trkpt lat="45.5956067" lon="8.023965"><ele>613.0</ele><time>2026-04-04T09:06:28.95Z</time></trkpt><trkpt lat="45.5955683" lon="8.0241083"><ele>613.0</ele><time>2026-04-04T09:06:29.949Z</time></trkpt><trkpt lat="45.59554" lon="8.0242533"><ele>613.0</ele><time>2026-04-04T09:06:30.95Z</time></trkpt><trkpt lat="45.5955283" lon="8.0244"><ele>613.0</ele><time>2026-04-04T09:06:31.95Z</time></trkpt><trkpt lat="45.595505" lon="8.0245317"><ele>613.0</ele><time>2026-04-04T09:06:32.95Z</time></trkpt><trkpt lat="45.5954733" lon="8.024645"><ele>613.0</ele><time>2026-04-04T09:06:33.95Z</time></trkpt><trkpt lat="45.5954283" lon="8.024735"><ele>613.0</ele><time>2026-04-04T09:06:34.95Z</time></trkpt><trkpt lat="45.5953783" lon="8.024805"><ele>613.0</ele><time>2026-04-04T09:06:35.95Z</time></trkpt><trkpt lat="45.5953117" lon="8.02484"><ele>613.0</ele><time>2026-04-04T09:06:36.949Z</time></trkpt><trkpt lat="45.595215" lon="8.0248467"><ele>613.0</ele><time>2026-04-04T09:06:37.95Z</time></trkpt><trkpt lat="45.5951" lon="8.0248517"><ele>611.3333333333334</ele><time>2026-04-04T09:06:38.95Z</time></trkpt><trkpt lat="45.5949483" lon="8.0248567"><ele>609.6666666666666</ele><time>2026-04-04T09:06:39.95Z</time></trkpt><trkpt lat="45.5947417" lon="8.0248883"><ele>608.0</ele><time>2026-04-04T09:06:40.95Z</time></trkpt><trkpt lat="45.5945383" lon="8.0249217"><ele>605.25</ele><time>2026-04-04T09:06:41.95Z</time></trkpt><trkpt lat="45.594365" lon="8.0249583"><ele>602.5</ele><time>2026-04-04T09:06:42.95Z</time></trkpt><trkpt lat="45.5942417" lon="8.0249817"><ele>599.75</ele><time>2026-04-04T09:06:43.95Z</time></trkpt><trkpt lat="45.59414" lon="8.025025"><ele>597.0</ele><time>2026-04-04T09:06:44.949Z</time></trkpt><trkpt lat="45.59405" lon="8.0250583"><ele>596.8333333333334</ele><time>2026-04-04T09:06:45.95Z</time></trkpt><trkpt lat="45.5939667" lon="8.0250933"><ele>596.6666666666666</ele><time>2026-04-04T09:06:46.95Z</time></trkpt><trkpt lat="45.5938917" lon="8.0251267"><ele>596.5</ele><time>2026-04-04T09:06:47.95Z</time></trkpt><trkpt lat="45.5938267" lon="8.0251683"><ele>596.3333333333333</ele><time>2026-04-04T09:06:48.95Z</time></trkpt><trkpt lat="45.593755" lon="8.0252167"><ele>596.1666666666666</ele><time>2026-04-04T09:06:49.95Z</time></trkpt><trkpt lat="45.5936733" lon="8.0252833"><ele>596.0</ele><time>2026-04-04T09:06:50.95Z</time></trkpt><trkpt lat="45.5935933" lon="8.0253567"><ele>595.0</ele><time>2026-04-04T09:06:51.95Z</time></trkpt><trkpt lat="45.5934983" lon="8.0254267"><ele>594.0</ele><time>2026-04-04T09:06:52.95Z</time></trkpt><trkpt lat="45.5934017" lon="8.0255183"><ele>593.0</ele><time>2026-04-04T09:06:53.95Z</time></trkpt><trkpt lat="45.5932983" lon="8.0256367"><ele>592.0</ele><time>2026-04-04T09:06:54.95Z</time></trkpt><trkpt lat="45.59318" lon="8.02579"><ele>591.0</ele><time>2026-04-04T09:06:55.95Z</time></trkpt><trkpt lat="45.5930433" lon="8.0259417"><ele>590.0</ele><time>2026-04-04T09:06:56.949Z</time></trkpt><trkpt lat="45.5929117" lon="8.0260967"><ele>589.0</ele><time>2026-04-04T09:06:57.95Z</time></trkpt><trkpt lat="45.5927867" lon="8.02625"><ele>589.0</ele><time>2026-04-04T09:06:58.95Z</time></trkpt><trkpt lat="45.592665" lon="8.026415"><ele>589.0</ele><time>2026-04-04T09:06:59.95Z</time></trkpt><trkpt lat="45.5925417" lon="8.0265833"><ele>589.0</ele><time>2026-04-04T09:07:00.95Z</time></trkpt><trkpt lat="45.5924167" lon="8.02675"><ele>589.0</ele><time>2026-04-04T09:07:01.95Z</time></trkpt><trkpt lat="45.5923" lon="8.0269367"><ele>589.0</ele><time>2026-04-04T09:07:02.95Z</time></trkpt><trkpt lat="45.592195" lon="8.02714"><ele>589.0</ele><time>2026-04-04T09:07:03.95Z</time></trkpt><trkpt lat="45.5920917" lon="8.0273717"><ele>588.3333333333334</ele><time>2026-04-04T09:07:04.95Z</time></trkpt><trkpt lat="45.5919817" lon="8.0276017"><ele>587.6666666666666</ele><time>2026-04-04T09:07:05.95Z</time></trkpt><trkpt lat="45.59187" lon="8.027835"><ele>587.0</ele><time>2026-04-04T09:07:06.95Z</time></trkpt><trkpt lat="45.5917683" lon="8.028055"><ele>587.0</ele><time>2026-04-04T09:07:07.95Z</time></trkpt><trkpt lat="45.5916833" lon="8.0282717"><ele>587.0</ele><time>2026-04-04T09:07:08.95Z</time></trkpt><trkpt lat="45.5915933" lon="8.0284783"><ele>587.0</ele><time>2026-04-04T09:07:09.95Z</time></trkpt><trkpt lat="45.5914967" lon="8.02866"><ele>587.25</ele><time>2026-04-04T09:07:10.95Z</time></trkpt><trkpt lat="45.591395" lon="8.0288333"><ele>587.5</ele><time>2026-04-04T09:07:11.95Z</time></trkpt><trkpt lat="45.59131" lon="8.02899"><ele>587.75</ele><time>2026-04-04T09:07:12.95Z</time></trkpt><trkpt lat="45.5912267" lon="8.0291467"><ele>588.0</ele><time>2026-04-04T09:07:13.95Z</time></trkpt><trkpt lat="45.5911067" lon="8.0293"><ele>586.3333333333334</ele><time>2026-04-04T09:07:14.95Z</time></trkpt><trkpt lat="45.590975" lon="8.0294433"><ele>584.6666666666667</ele><time>2026-04-04T09:07:15.949Z</time></trkpt><trkpt lat="45.5908317" lon="8.0295783"><ele>583.0</ele><time>2026-04-04T09:07:16.95Z</time></trkpt><trkpt lat="45.5906933" lon="8.0296783"><ele>583.0</ele><time>2026-04-04T09:07:17.95Z</time></trkpt><trkpt lat="45.59054" lon="8.0297767"><ele>583.0</ele><time>2026-04-04T09:07:18.949Z</time></trkpt><trkpt lat="45.590395" lon="8.029855"><ele>583.0</ele><time>2026-04-04T09:07:19.949Z</time></trkpt><trkpt lat="45.5902383" lon="8.0299133"><ele>580.6666666666667</ele><time>2026-04-04T09:07:20.949Z</time></trkpt><trkpt lat="45.5900833" lon="8.0299367"><ele>578.3333333333334</ele><time>2026-04-04T09:07:21.949Z</time></trkpt><trkpt lat="45.5899067" lon="8.02995"><ele>576.0</ele><time>2026-04-04T09:07:22.949Z</time></trkpt><trkpt lat="45.5897317" lon="8.0299833"><ele>576.0</ele><time>2026-04-04T09:07:23.949Z</time></trkpt><trkpt lat="45.5895733" lon="8.0300367"><ele>576.0</ele><time>2026-04-04T09:07:24.949Z</time></trkpt><trkpt lat="45.5894167" lon="8.0301067"><ele>576.0</ele><time>2026-04-04T09:07:25.948Z</time></trkpt><trkpt lat="45.5892767" lon="8.030215"><ele>572.3333333333334</ele><time>2026-04-04T09:07:26.949Z</time></trkpt><trkpt lat="45.58915" lon="8.0303217"><ele>568.6666666666667</ele><time>2026-04-04T09:07:27.949Z</time></trkpt><trkpt lat="45.589025" lon="8.0304767"><ele>565.0</ele><time>2026-04-04T09:07:28.949Z</time></trkpt><trkpt lat="45.588885" lon="8.030625"><ele>565.0</ele><time>2026-04-04T09:07:29.949Z</time></trkpt><trkpt lat="45.5887433" lon="8.0307833"><ele>565.0</ele><time>2026-04-04T09:07:30.949Z</time></trkpt><trkpt lat="45.5886067" lon="8.0309317"><ele>565.0</ele><time>2026-04-04T09:07:31.949Z</time></trkpt><trkpt lat="45.5884733" lon="8.03107"><ele>563.75</ele><time>2026-04-04T09:07:32.949Z</time></trkpt><trkpt lat="45.58835" lon="8.0312083"><ele>562.5</ele><time>2026-04-04T09:07:33.949Z</time></trkpt><trkpt lat="45.5882433" lon="8.0313267"><ele>561.25</ele><time>2026-04-04T09:07:34.949Z</time></trkpt><trkpt lat="45.588135" lon="8.0314417"><ele>560.0</ele><time>2026-04-04T09:07:35.949Z</time></trkpt><trkpt lat="45.588035" lon="8.0315483"><ele>561.25</ele><time>2026-04-04T09:07:36.949Z</time></trkpt><trkpt lat="45.5879417" lon="8.0316567"><ele>562.5</ele><time>2026-04-04T09:07:37.949Z</time></trkpt><trkpt lat="45.5878283" lon="8.0317333"><ele>563.75</ele><time>2026-04-04T09:07:38.949Z</time></trkpt><trkpt lat="45.58772" lon="8.0318117"><ele>565.0</ele><time>2026-04-04T09:07:39.949Z</time></trkpt><trkpt lat="45.5875833" lon="8.031885"><ele>565.0</ele><time>2026-04-04T09:07:40.949Z</time></trkpt><trkpt lat="45.5874367" lon="8.031985"><ele>565.0</ele><time>2026-04-04T09:07:41.949Z</time></trkpt><trkpt lat="45.5872817" lon="8.0320767"><ele>565.0</ele><time>2026-04-04T09:07:42.949Z</time></trkpt><trkpt lat="45.5871317" lon="8.0321883"><ele>563.6666666666667</ele><time>2026-04-04T09:07:43.949Z</time></trkpt><trkpt lat="45.58698" lon="8.0323183"><ele>562.3333333333334</ele><time>2026-04-04T09:07:44.949Z</time></trkpt><trkpt lat="45.5868467" lon="8.0324483"><ele>561.0</ele><time>2026-04-04T09:07:45.949Z</time></trkpt><trkpt lat="45.5867183" lon="8.0325783"><ele>561.0</ele><time>2026-04-04T09:07:46.948Z</time></trkpt><trkpt lat="45.5866117" lon="8.0327117"><ele>561.0</ele><time>2026-04-04T09:07:47.949Z</time></trkpt><trkpt lat="45.5865217" lon="8.0328517"><ele>561.0</ele><time>2026-04-04T09:07:48.949Z</time></trkpt><trkpt lat="45.5864517" lon="8.033005"><ele>561.0</ele><time>2026-04-04T09:07:49.948Z</time></trkpt><trkpt lat="45.586375" lon="8.03318"><ele>560.5</ele><time>2026-04-04T09:07:50.949Z</time></trkpt><trkpt lat="45.5862983" lon="8.033345"><ele>560.0</ele><time>2026-04-04T09:07:51.948Z</time></trkpt><trkpt lat="45.58622" lon="8.0334917"><ele>559.5</ele><time>2026-04-04T09:07:52.949Z</time></trkpt><trkpt lat="45.58612" lon="8.0336183"><ele>559.0</ele><time>2026-04-04T09:07:53.949Z</time></trkpt><trkpt lat="45.5859967" lon="8.0337567"><ele>557.3333333333334</ele><time>2026-04-04T09:07:54.949Z</time></trkpt><trkpt lat="45.5858733" lon="8.0339"><ele>555.6666666666666</ele><time>2026-04-04T09:07:55.949Z</time></trkpt><trkpt lat="45.58573" lon="8.0340267"><ele>554.0</ele><time>2026-04-04T09:07:56.949Z</time></trkpt><trkpt lat="45.5855833" lon="8.034165"><ele>553.6666666666666</ele><time>2026-04-04T09:07:57.949Z</time></trkpt><trkpt lat="45.5854533" lon="8.0343083"><ele>553.3333333333334</ele><time>2026-04-04T09:07:58.949Z</time></trkpt><trkpt lat="45.5853217" lon="8.0344467"><ele>553.0</ele><time>2026-04-04T09:07:59.949Z</time></trkpt><trkpt lat="45.5852283" lon="8.0345883"><ele>553.0</ele><time>2026-04-04T09:08:00.948Z</time></trkpt><trkpt lat="45.5851417" lon="8.0347083"><ele>553.0</ele><time>2026-04-04T09:08:01.949Z</time></trkpt><trkpt lat="45.58505" lon="8.0348117"><ele>553.0</ele><time>2026-04-04T09:08:02.949Z</time></trkpt><trkpt lat="45.5849517" lon="8.0349233"><ele>553.0</ele><time>2026-04-04T09:08:03.949Z</time></trkpt><trkpt lat="45.5848583" lon="8.0350083"><ele>553.0</ele><time>2026-04-04T09:08:04.949Z</time></trkpt><trkpt lat="45.5847733" lon="8.0351"><ele>553.0</ele><time>2026-04-04T09:08:05.949Z</time></trkpt><trkpt lat="45.58469" lon="8.0351983"><ele>553.0</ele><time>2026-04-04T09:08:06.949Z</time></trkpt><trkpt lat="45.5846017" lon="8.035295"><ele>553.0</ele><time>2026-04-04T09:08:07.949Z</time></trkpt><trkpt lat="45.5844983" lon="8.0353983"><ele>551.5</ele><time>2026-04-04T09:08:08.949Z</time></trkpt><trkpt lat="45.5843883" lon="8.0355083"><ele>550.0</ele><time>2026-04-04T09:08:09.948Z</time></trkpt><trkpt lat="45.58428" lon="8.0356217"><ele>548.5</ele><time>2026-04-04T09:08:10.949Z</time></trkpt><trkpt lat="45.5841667" lon="8.03574"><ele>547.0</ele><time>2026-04-04T09:08:11.949Z</time></trkpt><trkpt lat="45.5840567" lon="8.0358733"><ele>547.0</ele><time>2026-04-04T09:08:12.949Z</time></trkpt><trkpt lat="45.5839367" lon="8.0359883"><ele>547.0</ele><time>2026-04-04T09:08:13.949Z</time></trkpt><trkpt lat="45.5838383" lon="8.03608"><ele>547.0</ele><time>2026-04-04T09:08:14.949Z</time></trkpt><trkpt lat="45.5837383" lon="8.0361817"><ele>547.0</ele><time>2026-04-04T09:08:15.948Z</time></trkpt><trkpt lat="45.583635" lon="8.0362933"><ele>546.0</ele><time>2026-04-04T09:08:16.949Z</time></trkpt><trkpt lat="45.5835333" lon="8.0364083"><ele>545.0</ele><time>2026-04-04T09:08:17.949Z</time></trkpt><trkpt lat="45.5834317" lon="8.0365217"><ele>544.0</ele><time>2026-04-04T09:08:18.949Z</time></trkpt><trkpt lat="45.5833433" lon="8.0366367"><ele>543.0</ele><time>2026-04-04T09:08:19.949Z</time></trkpt><trkpt lat="45.5832633" lon="8.0367417"><ele>543.0</ele><time>2026-04-04T09:08:20.949Z</time></trkpt><trkpt lat="45.583175" lon="8.0368567"><ele>543.0</ele><time>2026-04-04T09:08:21.949Z</time></trkpt><trkpt lat="45.5830933" lon="8.0370033"><ele>543.0</ele><time>2026-04-04T09:08:22.949Z</time></trkpt><trkpt lat="45.5830183" lon="8.0371483"><ele>543.0</ele><time>2026-04-04T09:08:23.949Z</time></trkpt><trkpt lat="45.5829433" lon="8.0373033"><ele>543.0</ele><time>2026-04-04T09:08:24.949Z</time></trkpt><trkpt lat="45.582895" lon="8.037435"><ele>543.0</ele><time>2026-04-04T09:08:25.949Z</time></trkpt><trkpt lat="45.5828433" lon="8.0375467"><ele>543.0</ele><time>2026-04-04T09:08:26.949Z</time></trkpt><trkpt lat="45.5827933" lon="8.0376267"><ele>543.0</ele><time>2026-04-04T09:08:27.949Z</time></trkpt><trkpt lat="45.5827317" lon="8.03769"><ele>543.0</ele><time>2026-04-04T09:08:28.949Z</time></trkpt><trkpt lat="45.5826433" lon="8.037745"><ele>543.0</ele><time>2026-04-04T09:08:29.949Z</time></trkpt><trkpt lat="45.5825283" lon="8.0377967"><ele>540.5</ele><time>2026-04-04T09:08:30.949Z</time></trkpt><trkpt lat="45.5823833" lon="8.0378317"><ele>538.0</ele><time>2026-04-04T09:08:31.949Z</time></trkpt><trkpt lat="45.5822417" lon="8.037865"><ele>535.5</ele><time>2026-04-04T09:08:32.949Z</time></trkpt><trkpt lat="45.5820983" lon="8.0379"><ele>533.0</ele><time>2026-04-04T09:08:33.949Z</time></trkpt><trkpt lat="45.5819683" lon="8.037925"><ele>532.5</ele><time>2026-04-04T09:08:34.949Z</time></trkpt><trkpt lat="45.5818567" lon="8.0379567"><ele>532.0</ele><time>2026-04-04T09:08:35.949Z</time></trkpt><trkpt lat="45.5817467" lon="8.038"><ele>531.5</ele><time>2026-04-04T09:08:36.949Z</time></trkpt><trkpt lat="45.5816467" lon="8.0380533"><ele>531.0</ele><time>2026-04-04T09:08:37.949Z</time></trkpt><trkpt lat="45.5815233" lon="8.0381333"><ele>531.0</ele><time>2026-04-04T09:08:38.949Z</time></trkpt><trkpt lat="45.581415" lon="8.038245"><ele>531.0</ele><time>2026-04-04T09:08:39.949Z</time></trkpt><trkpt lat="45.5813067" lon="8.0383467"><ele>531.0</ele><time>2026-04-04T09:08:40.949Z</time></trkpt><trkpt lat="45.5812" lon="8.0384567"><ele>531.0</ele><time>2026-04-04T09:08:41.949Z</time></trkpt><trkpt lat="45.5811033" lon="8.0385183"><ele>533.0</ele><time>2026-04-04T09:08:42.949Z</time></trkpt><trkpt lat="45.580985" lon="8.0386033"><ele>535.0</ele><time>2026-04-04T09:08:43.949Z</time></trkpt><trkpt lat="45.580855" lon="8.0387"><ele>537.0</ele><time>2026-04-04T09:08:44.949Z</time></trkpt><trkpt lat="45.580725" lon="8.0388217"><ele>539.0</ele><time>2026-04-04T09:08:45.949Z</time></trkpt><trkpt lat="45.5806" lon="8.0389433"><ele>539.0</ele><time>2026-04-04T09:08:46.949Z</time></trkpt><trkpt lat="45.5804733" lon="8.0390567"><ele>539.0</ele><time>2026-04-04T09:08:47.949Z</time></trkpt><trkpt lat="45.5803617" lon="8.03915"><ele>539.0</ele><time>2026-04-04T09:08:48.949Z</time></trkpt><trkpt lat="45.5802567" lon="8.0392517"><ele>539.0</ele><time>2026-04-04T09:08:49.949Z</time></trkpt><trkpt lat="45.5801617" lon="8.0393483"><ele>539.0</ele><time>2026-04-04T09:08:50.949Z</time></trkpt><trkpt lat="45.5800783" lon="8.0394217"><ele>539.0</ele><time>2026-04-04T09:08:51.949Z</time></trkpt><trkpt lat="45.5799833" lon="8.0394717"><ele>539.0</ele><time>2026-04-04T09:08:52.949Z</time></trkpt><trkpt lat="45.57987" lon="8.03949"><ele>539.0</ele><time>2026-04-04T09:08:53.949Z</time></trkpt><trkpt lat="45.579745" lon="8.0394633"><ele>539.0</ele><time>2026-04-04T09:08:54.949Z</time></trkpt><trkpt lat="45.57962" lon="8.0394"><ele>537.75</ele><time>2026-04-04T09:08:55.949Z</time></trkpt><trkpt lat="45.5794917" lon="8.0393583"><ele>536.5</ele><time>2026-04-04T09:08:56.949Z</time></trkpt><trkpt lat="45.5793667" lon="8.0393717"><ele>535.25</ele><time>2026-04-04T09:08:57.949Z</time></trkpt><trkpt lat="45.57925" lon="8.0394217"><ele>534.0</ele><time>2026-04-04T09:08:58.949Z</time></trkpt><trkpt lat="45.5791333" lon="8.0395033"><ele>534.0</ele><time>2026-04-04T09:08:59.949Z</time></trkpt><trkpt lat="45.5790317" lon="8.0395867"><ele>534.0</ele><time>2026-04-04T09:09:00.949Z</time></trkpt><trkpt lat="45.5789333" lon="8.03964"><ele>534.0</ele><time>2026-04-04T09:09:01.949Z</time></trkpt><trkpt lat="45.5788217" lon="8.0396317"><ele>534.0</ele><time>2026-04-04T09:09:02.948Z</time></trkpt><trkpt lat="45.57871" lon="8.0395667"><ele>534.5</ele><time>2026-04-04T09:09:03.949Z</time></trkpt><trkpt lat="45.5786017" lon="8.0394583"><ele>535.0</ele><time>2026-04-04T09:09:04.949Z</time></trkpt><trkpt lat="45.5785083" lon="8.0393467"><ele>535.5</ele><time>2026-04-04T09:09:05.949Z</time></trkpt><trkpt lat="45.578415" lon="8.03924"><ele>536.0</ele><time>2026-04-04T09:09:06.949Z</time></trkpt><trkpt lat="45.57831" lon="8.0391733"><ele>536.0</ele><time>2026-04-04T09:09:07.948Z</time></trkpt><trkpt lat="45.5781833" lon="8.0391267"><ele>536.0</ele><time>2026-04-04T09:09:08.949Z</time></trkpt><trkpt lat="45.5780467" lon="8.039155"><ele>536.0</ele><time>2026-04-04T09:09:09.949Z</time></trkpt><trkpt lat="45.5779267" lon="8.039195"><ele>536.0</ele><time>2026-04-04T09:09:10.949Z</time></trkpt><trkpt lat="45.5778" lon="8.039285"><ele>533.3333333333333</ele><time>2026-04-04T09:09:11.949Z</time></trkpt><trkpt lat="45.5776717" lon="8.0394083"><ele>530.6666666666666</ele><time>2026-04-04T09:09:12.949Z</time></trkpt><trkpt lat="45.5775333" lon="8.0395483"><ele>528.0</ele><time>2026-04-04T09:09:13.949Z</time></trkpt><trkpt lat="45.5773967" lon="8.0396967"><ele>528.0</ele><time>2026-04-04T09:09:14.949Z</time></trkpt><trkpt lat="45.577265" lon="8.0398483"><ele>528.0</ele><time>2026-04-04T09:09:15.949Z</time></trkpt><trkpt lat="45.5771483" lon="8.0399767"><ele>528.0</ele><time>2026-04-04T09:09:16.948Z</time></trkpt><trkpt lat="45.577025" lon="8.0400833"><ele>527.3333333333334</ele><time>2026-04-04T09:09:17.949Z</time></trkpt><trkpt lat="45.5768883" lon="8.0402033"><ele>526.6666666666667</ele><time>2026-04-04T09:09:18.949Z</time></trkpt><trkpt lat="45.5767433" lon="8.0403133"><ele>526.0</ele><time>2026-04-04T09:09:19.948Z</time></trkpt><trkpt lat="45.5766067" lon="8.0404183"><ele>526.0</ele><time>2026-04-04T09:09:20.949Z</time></trkpt><trkpt lat="45.576465" lon="8.0405183"><ele>526.0</ele><time>2026-04-04T09:09:21.948Z</time></trkpt><trkpt lat="45.57634" lon="8.0406167"><ele>526.0</ele><time>2026-04-04T09:09:22.949Z</time></trkpt><trkpt lat="45.5762233" lon="8.0407017"><ele>526.0</ele><time>2026-04-04T09:09:23.949Z</time></trkpt><trkpt lat="45.5761083" lon="8.0407917"><ele>524.0</ele><time>2026-04-04T09:09:24.949Z</time></trkpt><trkpt lat="45.575985" lon="8.0409033"><ele>522.0</ele><time>2026-04-04T09:09:25.949Z</time></trkpt><trkpt lat="45.5758483" lon="8.0410267"><ele>520.0</ele><time>2026-04-04T09:09:26.949Z</time></trkpt><trkpt lat="45.57572" lon="8.0411833"><ele>520.0</ele><time>2026-04-04T09:09:27.949Z</time></trkpt><trkpt lat="45.575575" lon="8.041345"><ele>520.0</ele><time>2026-04-04T09:09:28.949Z</time></trkpt><trkpt lat="45.5754417" lon="8.04151"><ele>520.0</ele><time>2026-04-04T09:09:29.948Z</time></trkpt><trkpt lat="45.5753133" lon="8.041675"><ele>518.75</ele><time>2026-04-04T09:09:30.949Z</time></trkpt><trkpt lat="45.5751933" lon="8.04182"><ele>517.5</ele><time>2026-04-04T09:09:31.949Z</time></trkpt><trkpt lat="45.5750783" lon="8.0419567"><ele>516.25</ele><time>2026-04-04T09:09:32.949Z</time></trkpt><trkpt lat="45.5749717" lon="8.0420617"><ele>515.0</ele><time>2026-04-04T09:09:33.949Z</time></trkpt><trkpt lat="45.5748483" lon="8.0421617"><ele>515.0</ele><time>2026-04-04T09:09:34.949Z</time></trkpt><trkpt lat="45.5747033" lon="8.0422217"><ele>515.0</ele><time>2026-04-04T09:09:35.948Z</time></trkpt><trkpt lat="45.5745467" lon="8.0422583"><ele>515.0</ele><time>2026-04-04T09:09:36.949Z</time></trkpt><trkpt lat="45.5743967" lon="8.04229"><ele>513.0</ele><time>2026-04-04T09:09:37.949Z</time></trkpt><trkpt lat="45.5742517" lon="8.04233"><ele>511.0</ele><time>2026-04-04T09:09:38.949Z</time></trkpt><trkpt lat="45.57411" lon="8.0423867"><ele>509.0</ele><time>2026-04-04T09:09:39.949Z</time></trkpt><trkpt lat="45.573985" lon="8.0424733"><ele>507.0</ele><time>2026-04-04T09:09:40.949Z</time></trkpt><trkpt lat="45.57387" lon="8.0425983"><ele>506.75</ele><time>2026-04-04T09:09:41.949Z</time></trkpt><trkpt lat="45.5737767" lon="8.0427467"><ele>506.5</ele><time>2026-04-04T09:09:42.949Z</time></trkpt><trkpt lat="45.5736867" lon="8.0428967"><ele>506.25</ele><time>2026-04-04T09:09:43.949Z</time></trkpt><trkpt lat="45.5735967" lon="8.0430417"><ele>506.0</ele><time>2026-04-04T09:09:44.949Z</time></trkpt><trkpt lat="45.5735" lon="8.0431733"><ele>504.25</ele><time>2026-04-04T09:09:45.949Z</time></trkpt><trkpt lat="45.5733817" lon="8.0433167"><ele>502.5</ele><time>2026-04-04T09:09:46.949Z</time></trkpt><trkpt lat="45.5732633" lon="8.0434183"><ele>500.75</ele><time>2026-04-04T09:09:47.949Z</time></trkpt><trkpt lat="45.5731283" lon="8.0435117"><ele>499.0</ele><time>2026-04-04T09:09:48.949Z</time></trkpt><trkpt lat="45.5729917" lon="8.0436133"><ele>499.0</ele><time>2026-04-04T09:09:49.949Z</time></trkpt><trkpt lat="45.5728617" lon="8.043705"><ele>499.0</ele><time>2026-04-04T09:09:50.949Z</time></trkpt><trkpt lat="45.5727333" lon="8.0438033"><ele>499.0</ele><time>2026-04-04T09:09:51.949Z</time></trkpt><trkpt lat="45.5726067" lon="8.0438867"><ele>499.0</ele><time>2026-04-04T09:09:52.949Z</time></trkpt><trkpt lat="45.57249" lon="8.0439683"><ele>497.5</ele><time>2026-04-04T09:09:53.949Z</time></trkpt><trkpt lat="45.57237" lon="8.04403"><ele>496.0</ele><time>2026-04-04T09:09:54.949Z</time></trkpt><trkpt lat="45.5722683" lon="8.04409"><ele>494.5</ele><time>2026-04-04T09:09:55.949Z</time></trkpt><trkpt lat="45.57216" lon="8.04414"><ele>493.0</ele><time>2026-04-04T09:09:56.949Z</time></trkpt><trkpt lat="45.57206" lon="8.0442033"><ele>491.0</ele><time>2026-04-04T09:09:57.949Z</time></trkpt><trkpt lat="45.571985" lon="8.0442917"><ele>489.0</ele><time>2026-04-04T09:09:58.949Z</time></trkpt><trkpt lat="45.5719167" lon="8.0444233"><ele>487.0</ele><time>2026-04-04T09:09:59.949Z</time></trkpt><trkpt lat="45.5718667" lon="8.04458"><ele>485.0</ele><time>2026-04-04T09:10:00.949Z</time></trkpt><trkpt lat="45.57185" lon="8.0447667"><ele>485.0</ele><time>2026-04-04T09:10:01.949Z</time></trkpt><trkpt lat="45.5718467" lon="8.0449433"><ele>485.0</ele><time>2026-04-04T09:10:02.949Z</time></trkpt><trkpt lat="45.5718467" lon="8.0450967"><ele>485.0</ele><time>2026-04-04T09:10:03.949Z</time></trkpt><trkpt lat="45.5718467" lon="8.0452383"><ele>485.0</ele><time>2026-04-04T09:10:04.949Z</time></trkpt><trkpt lat="45.57184" lon="8.0453617"><ele>485.0</ele><time>2026-04-04T09:10:05.949Z</time></trkpt><trkpt lat="45.571835" lon="8.04549"><ele>484.6</ele><time>2026-04-04T09:10:06.949Z</time></trkpt><trkpt lat="45.5718233" lon="8.0456217"><ele>484.2</ele><time>2026-04-04T09:10:07.949Z</time></trkpt><trkpt lat="45.5718033" lon="8.0457433"><ele>483.79999999999995</ele><time>2026-04-04T09:10:08.949Z</time></trkpt><trkpt lat="45.5717633" lon="8.045875"><ele>483.4</ele><time>2026-04-04T09:10:09.949Z</time></trkpt><trkpt lat="45.5717083" lon="8.046"><ele>483.0</ele><time>2026-04-04T09:10:10.948Z</time></trkpt><trkpt lat="45.57165" lon="8.0461167"><ele>484.5</ele><time>2026-04-04T09:10:11.949Z</time></trkpt><trkpt lat="45.5715733" lon="8.0462317"><ele>486.0</ele><time>2026-04-04T09:10:12.949Z</time></trkpt><trkpt lat="45.57149" lon="8.0463467"><ele>487.5</ele><time>2026-04-04T09:10:13.949Z</time></trkpt><trkpt lat="45.5714083" lon="8.0464783"><ele>489.0</ele><time>2026-04-04T09:10:14.949Z</time></trkpt><trkpt lat="45.5713233" lon="8.04661"><ele>490.25</ele><time>2026-04-04T09:10:15.949Z</time></trkpt><trkpt lat="45.5712383" lon="8.04676"><ele>491.5</ele><time>2026-04-04T09:10:16.949Z</time></trkpt><trkpt lat="45.5711833" lon="8.0469317"><ele>492.75</ele><time>2026-04-04T09:10:17.949Z</time></trkpt><trkpt lat="45.5711617" lon="8.0471167"><ele>494.0</ele><time>2026-04-04T09:10:18.949Z</time></trkpt><trkpt lat="45.5711533" lon="8.0473017"><ele>492.25</ele><time>2026-04-04T09:10:19.949Z</time></trkpt><trkpt lat="45.5711567" lon="8.047495"><ele>490.5</ele><time>2026-04-04T09:10:20.949Z</time></trkpt><trkpt lat="45.5711617" lon="8.0476783"><ele>488.75</ele><time>2026-04-04T09:10:21.949Z</time></trkpt><trkpt lat="45.571175" lon="8.047875"><ele>487.0</ele><time>2026-04-04T09:10:22.949Z</time></trkpt><trkpt lat="45.5712083" lon="8.0480667"><ele>487.0</ele><time>2026-04-04T09:10:23.948Z</time></trkpt><trkpt lat="45.5712667" lon="8.0482417"><ele>487.0</ele><time>2026-04-04T09:10:24.949Z</time></trkpt><trkpt lat="45.5713533" lon="8.0484117"><ele>487.0</ele><time>2026-04-04T09:10:25.949Z</time></trkpt><trkpt lat="45.57145" lon="8.0485867"><ele>487.0</ele><time>2026-04-04T09:10:26.949Z</time></trkpt><trkpt lat="45.5715567" lon="8.04874"><ele>481.6666666666667</ele><time>2026-04-04T09:10:27.949Z</time></trkpt><trkpt lat="45.5716733" lon="8.0488983"><ele>476.33333333333337</ele><time>2026-04-04T09:10:28.949Z</time></trkpt><trkpt lat="45.5718133" lon="8.0490433"><ele>471.0</ele><time>2026-04-04T09:10:29.949Z</time></trkpt><trkpt lat="45.5719733" lon="8.0491767"><ele>470.33333333333337</ele><time>2026-04-04T09:10:30.949Z</time></trkpt><trkpt lat="45.5721667" lon="8.049325"><ele>469.6666666666667</ele><time>2026-04-04T09:10:31.949Z</time></trkpt><trkpt lat="45.57236" lon="8.0494933"><ele>469.0</ele><time>2026-04-04T09:10:32.949Z</time></trkpt><trkpt lat="45.572525" lon="8.04965"><ele>469.0</ele><time>2026-04-04T09:10:33.949Z</time></trkpt><trkpt lat="45.5726617" lon="8.049775"><ele>469.0</ele><time>2026-04-04T09:10:34.949Z</time></trkpt><trkpt lat="45.5727483" lon="8.0498867"><ele>469.0</ele><time>2026-04-04T09:10:35.949Z</time></trkpt><trkpt lat="45.5728033" lon="8.05"><ele>469.0</ele><time>2026-04-04T09:10:36.949Z</time></trkpt><trkpt lat="45.572815" lon="8.050135"><ele>465.4</ele><time>2026-04-04T09:10:37.949Z</time></trkpt><trkpt lat="45.5728" lon="8.05028"><ele>461.79999999999995</ele><time>2026-04-04T09:10:38.949Z</time></trkpt><trkpt lat="45.5727483" lon="8.05042"><ele>458.20000000000005</ele><time>2026-04-04T09:10:39.949Z</time></trkpt><trkpt lat="45.5726633" lon="8.05051"><ele>454.6</ele><time>2026-04-04T09:10:40.949Z</time></trkpt><trkpt lat="45.5725583" lon="8.05056"><ele>451.0</ele><time>2026-04-04T09:10:41.949Z</time></trkpt><trkpt lat="45.5724233" lon="8.050585"><ele>451.0</ele><time>2026-04-04T09:10:42.949Z</time></trkpt><trkpt lat="45.5722833" lon="8.05059"><ele>451.0</ele><time>2026-04-04T09:10:43.949Z</time></trkpt><trkpt lat="45.572145" lon="8.0505683"><ele>451.0</ele><time>2026-04-04T09:10:44.949Z</time></trkpt><trkpt lat="45.5720033" lon="8.05054"><ele>451.0</ele><time>2026-04-04T09:10:45.949Z</time></trkpt><trkpt lat="45.5718667" lon="8.0505133"><ele>449.8</ele><time>2026-04-04T09:10:46.949Z</time></trkpt><trkpt lat="45.5717667" lon="8.0504967"><ele>448.6</ele><time>2026-04-04T09:10:47.949Z</time></trkpt><trkpt lat="45.571685" lon="8.0504783"><ele>447.4</ele><time>2026-04-04T09:10:48.949Z</time></trkpt><trkpt lat="45.5715633" lon="8.0504617"><ele>446.2</ele><time>2026-04-04T09:10:50.949Z</time></trkpt><trkpt lat="45.5714767" lon="8.0504867"><ele>445.0</ele><time>2026-04-04T09:10:52.949Z</time></trkpt><trkpt lat="45.5714467" lon="8.0506083"><ele>445.0</ele><time>2026-04-04T09:10:54.949Z</time></trkpt><trkpt lat="45.5714083" lon="8.0507833"><ele>445.0</ele><time>2026-04-04T09:10:56.949Z</time></trkpt><trkpt lat="45.57138" lon="8.0509133"><ele>445.0</ele><time>2026-04-04T09:10:57.949Z</time></trkpt><trkpt lat="45.5713317" lon="8.0510733"><ele>445.0</ele><time>2026-04-04T09:10:58.949Z</time></trkpt><trkpt lat="45.5712467" lon="8.0512917"><ele>444.33333333333337</ele><time>2026-04-04T09:10:59.949Z</time></trkpt><trkpt lat="45.5711717" lon="8.0514867"><ele>443.66666666666663</ele><time>2026-04-04T09:11:00.949Z</time></trkpt><trkpt lat="45.571095" lon="8.0516917"><ele>443.0</ele><time>2026-04-04T09:11:01.949Z</time></trkpt><trkpt lat="45.5710283" lon="8.0518633"><ele>442.4</ele><time>2026-04-04T09:11:02.949Z</time></trkpt><trkpt lat="45.5709733" lon="8.052005"><ele>441.79999999999995</ele><time>2026-04-04T09:11:03.949Z</time></trkpt><trkpt lat="45.5709233" lon="8.052125"><ele>441.2</ele><time>2026-04-04T09:11:04.949Z</time></trkpt><trkpt lat="45.5708867" lon="8.0522183"><ele>440.6</ele><time>2026-04-04T09:11:05.949Z</time></trkpt><trkpt lat="45.57082" lon="8.052345"><ele>440.0</ele><time>2026-04-04T09:11:07.948Z</time></trkpt><trkpt lat="45.5707483" lon="8.0524267"><ele>439.85714285714283</ele><time>2026-04-04T09:11:09.948Z</time></trkpt><trkpt lat="45.5707" lon="8.0525117"><ele>439.7142857142857</ele><time>2026-04-04T09:11:11.949Z</time></trkpt><trkpt lat="45.5707417" lon="8.0525933"><ele>439.57142857142856</ele><time>2026-04-04T09:11:15.949Z</time></trkpt><trkpt lat="45.5707867" lon="8.0526667"><ele>439.42857142857144</ele><time>2026-04-04T09:11:31.948Z</time></trkpt><trkpt lat="45.5708267" lon="8.0527533"><ele>439.2857142857143</ele><time>2026-04-04T09:11:33.948Z</time></trkpt><trkpt lat="45.5708717" lon="8.052835"><ele>439.1428571428571</ele><time>2026-04-04T09:11:35.948Z</time></trkpt><trkpt lat="45.5709017" lon="8.05293"><ele>439.0</ele><time>2026-04-04T09:11:37.948Z</time></trkpt><trkpt lat="45.570915" lon="8.0530633"><ele>439.00000000000006</ele><time>2026-04-04T09:11:39.948Z</time></trkpt><trkpt lat="45.5709617" lon="8.0531867"><ele>439.0</ele><time>2026-04-04T09:11:41.948Z</time></trkpt><trkpt lat="45.5710033" lon="8.0533017"><ele>439.0</ele><time>2026-04-04T09:11:43.948Z</time></trkpt><trkpt lat="45.571035" lon="8.053385"><ele>439.0</ele><time>2026-04-04T09:11:45.948Z</time></trkpt><trkpt lat="45.57107" lon="8.0534633"><ele>439.00000000000006</ele><time>2026-04-04T09:11:47.948Z</time></trkpt><trkpt lat="45.571085" lon="8.05358"><ele>439.0</ele><time>2026-04-04T09:11:49.948Z</time></trkpt><trkpt lat="45.5710683" lon="8.0537167"><ele>439.00000000000006</ele><time>2026-04-04T09:11:51.948Z</time></trkpt><trkpt lat="45.571065" lon="8.0538167"><ele>439.0</ele><time>2026-04-04T09:11:52.948Z</time></trkpt><trkpt lat="45.5710683" lon="8.0539233"><ele>439.0</ele><time>2026-04-04T09:11:53.948Z</time></trkpt><trkpt lat="45.571075" lon="8.0540233"><ele>439.0</ele><time>2026-04-04T09:11:54.947Z</time></trkpt><trkpt lat="45.571065" lon="8.05413"><ele>439.00000000000006</ele><time>2026-04-04T09:11:55.948Z</time></trkpt><trkpt lat="45.571055" lon="8.0542433"><ele>439.0</ele><time>2026-04-04T09:11:56.948Z</time></trkpt><trkpt lat="45.5710417" lon="8.054365"><ele>438.0</ele><time>2026-04-04T09:11:57.948Z</time></trkpt><trkpt lat="45.571025" lon="8.0544933"><ele>437.0</ele><time>2026-04-04T09:11:58.947Z</time></trkpt><trkpt lat="45.57101" lon="8.0546267"><ele>436.0</ele><time>2026-04-04T09:11:59.948Z</time></trkpt><trkpt lat="45.5709983" lon="8.0547583"><ele>435.0</ele><time>2026-04-04T09:12:00.948Z</time></trkpt><trkpt lat="45.5709867" lon="8.05489"><ele>434.0</ele><time>2026-04-04T09:12:01.948Z</time></trkpt><trkpt lat="45.5709917" lon="8.0550067"><ele>432.99999999999994</ele><time>2026-04-04T09:12:02.947Z</time></trkpt><trkpt lat="45.5710083" lon="8.0551183"><ele>432.0</ele><time>2026-04-04T09:12:03.948Z</time></trkpt><trkpt lat="45.57101" lon="8.0552217"><ele>431.0</ele><time>2026-04-04T09:12:04.948Z</time></trkpt><trkpt lat="45.571035" lon="8.055325"><ele>430.0</ele><time>2026-04-04T09:12:05.948Z</time></trkpt><trkpt lat="45.5710683" lon="8.0554317"><ele>428.99999999999994</ele><time>2026-04-04T09:12:06.948Z</time></trkpt><trkpt lat="45.5711067" lon="8.0555383"><ele>428.0</ele><time>2026-04-04T09:12:07.948Z</time></trkpt><trkpt lat="45.5711167" lon="8.0556567"><ele>427.99999999999994</ele><time>2026-04-04T09:12:08.948Z</time></trkpt><trkpt lat="45.5711233" lon="8.0557767"><ele>428.0</ele><time>2026-04-04T09:12:09.948Z</time></trkpt><trkpt lat="45.571115" lon="8.0558883"><ele>428.0</ele><time>2026-04-04T09:12:10.947Z</time></trkpt><trkpt lat="45.5711117" lon="8.0560067"><ele>428.0</ele><time>2026-04-04T09:12:11.948Z</time></trkpt><trkpt lat="45.5711033" lon="8.0561383"><ele>427.99999999999994</ele><time>2026-04-04T09:12:12.948Z</time></trkpt><trkpt lat="45.571095" lon="8.0562633"><ele>428.0</ele><time>2026-04-04T09:12:13.948Z</time></trkpt><trkpt lat="45.57108" lon="8.0563833"><ele>428.2</ele><time>2026-04-04T09:12:14.948Z</time></trkpt><trkpt lat="45.57106" lon="8.0565017"><ele>428.4</ele><time>2026-04-04T09:12:15.948Z</time></trkpt><trkpt lat="45.5710283" lon="8.0566217"><ele>428.59999999999997</ele><time>2026-04-04T09:12:16.948Z</time></trkpt><trkpt lat="45.570995" lon="8.0567367"><ele>428.79999999999995</ele><time>2026-04-04T09:12:17.948Z</time></trkpt><trkpt lat="45.5709733" lon="8.0568767"><ele>429.0</ele><time>2026-04-04T09:12:18.948Z</time></trkpt><trkpt lat="45.5709533" lon="8.0570333"><ele>428.0</ele><time>2026-04-04T09:12:19.948Z</time></trkpt><trkpt lat="45.5709333" lon="8.057185"><ele>427.0</ele><time>2026-04-04T09:12:20.948Z</time></trkpt><trkpt lat="45.5709317" lon="8.0573433"><ele>426.0</ele><time>2026-04-04T09:12:21.948Z</time></trkpt><trkpt lat="45.5709367" lon="8.0574983"><ele>425.0</ele><time>2026-04-04T09:12:22.947Z</time></trkpt><trkpt lat="45.570955" lon="8.0576467"><ele>424.0</ele><time>2026-04-04T09:12:23.948Z</time></trkpt><trkpt lat="45.5709733" lon="8.0577967"><ele>422.4</ele><time>2026-04-04T09:12:24.948Z</time></trkpt><trkpt lat="45.570985" lon="8.0579567"><ele>420.79999999999995</ele><time>2026-04-04T09:12:25.948Z</time></trkpt><trkpt lat="45.5709917" lon="8.0581167"><ele>419.20000000000005</ele><time>2026-04-04T09:12:26.948Z</time></trkpt><trkpt lat="45.5710067" lon="8.0582583"><ele>417.6</ele><time>2026-04-04T09:12:27.948Z</time></trkpt><trkpt lat="45.5710083" lon="8.0584"><ele>416.0</ele><time>2026-04-04T09:12:28.948Z</time></trkpt><trkpt lat="45.571" lon="8.058525"><ele>415.99999999999994</ele><time>2026-04-04T09:12:29.948Z</time></trkpt><trkpt lat="45.57098" lon="8.058645"><ele>416.0</ele><time>2026-04-04T09:12:30.948Z</time></trkpt><trkpt lat="45.5709617" lon="8.0587683"><ele>416.0</ele><time>2026-04-04T09:12:31.948Z</time></trkpt><trkpt lat="45.5709483" lon="8.0588783"><ele>416.0</ele><time>2026-04-04T09:12:32.948Z</time></trkpt><trkpt lat="45.5709333" lon="8.0589733"><ele>415.99999999999994</ele><time>2026-04-04T09:12:33.947Z</time></trkpt><trkpt lat="45.5709017" lon="8.0591217"><ele>416.0</ele><time>2026-04-04T09:12:35.948Z</time></trkpt><trkpt lat="45.5708583" lon="8.0592683"><ele>413.99999999999994</ele><time>2026-04-04T09:12:37.948Z</time></trkpt><trkpt lat="45.570795" lon="8.0594333"><ele>412.0</ele><time>2026-04-04T09:12:39.948Z</time></trkpt><trkpt lat="45.570745" lon="8.059535"><ele>410.0</ele><time>2026-04-04T09:12:40.948Z</time></trkpt><trkpt lat="45.570705" lon="8.0596333"><ele>408.0</ele><time>2026-04-04T09:12:41.948Z</time></trkpt><trkpt lat="45.57066" lon="8.059705"><ele>405.99999999999994</ele><time>2026-04-04T09:12:42.948Z</time></trkpt><trkpt lat="45.5705983" lon="8.0597717"><ele>404.0</ele><time>2026-04-04T09:12:43.948Z</time></trkpt><trkpt lat="45.5704933" lon="8.059865"><ele>401.4</ele><time>2026-04-04T09:12:45.948Z</time></trkpt><trkpt lat="45.570425" lon="8.059955"><ele>398.79999999999995</ele><time>2026-04-04T09:12:47.947Z</time></trkpt><trkpt lat="45.5704283" lon="8.060085"><ele>396.20000000000005</ele><time>2026-04-04T09:12:49.948Z</time></trkpt><trkpt lat="45.570535" lon="8.0601817"><ele>393.6</ele><time>2026-04-04T09:12:51.948Z</time></trkpt><trkpt lat="45.57061" lon="8.0602267"><ele>391.0</ele><time>2026-04-04T09:12:52.948Z</time></trkpt><trkpt lat="45.570765" lon="8.0603133"><ele>391.00000000000006</ele><time>2026-04-04T09:12:54.948Z</time></trkpt><trkpt lat="45.57084" lon="8.06036"><ele>391.0</ele><time>2026-04-04T09:12:55.948Z</time></trkpt><trkpt lat="45.57092" lon="8.0604083"><ele>391.0</ele><time>2026-04-04T09:12:56.948Z</time></trkpt><trkpt lat="45.5710017" lon="8.0604683"><ele>391.0</ele><time>2026-04-04T09:12:57.947Z</time></trkpt><trkpt lat="45.5710733" lon="8.060515"><ele>391.00000000000006</ele><time>2026-04-04T09:12:58.948Z</time></trkpt><trkpt lat="45.5711383" lon="8.0605733"><ele>391.0</ele><time>2026-04-04T09:12:59.948Z</time></trkpt><trkpt lat="45.5711983" lon="8.06064"><ele>391.00000000000006</ele><time>2026-04-04T09:13:00.947Z</time></trkpt><trkpt lat="45.571255" lon="8.0607083"><ele>391.0</ele><time>2026-04-04T09:13:01.948Z</time></trkpt><trkpt lat="45.5713033" lon="8.0607833"><ele>391.0</ele><time>2026-04-04T09:13:02.948Z</time></trkpt><trkpt lat="45.5713433" lon="8.06088"><ele>391.0</ele><time>2026-04-04T09:13:03.948Z</time></trkpt><trkpt lat="45.571365" lon="8.0609933"><ele>391.00000000000006</ele><time>2026-04-04T09:13:04.948Z</time></trkpt><trkpt lat="45.5713883" lon="8.06112"><ele>391.0</ele><time>2026-04-04T09:13:05.948Z</time></trkpt><trkpt lat="45.5713933" lon="8.0612417"><ele>391.8</ele><time>2026-04-04T09:13:06.948Z</time></trkpt><trkpt lat="45.5713867" lon="8.0613717"><ele>392.6</ele><time>2026-04-04T09:13:07.948Z</time></trkpt><trkpt lat="45.5713767" lon="8.0614983"><ele>393.4</ele><time>2026-04-04T09:13:08.948Z</time></trkpt><trkpt lat="45.5713583" lon="8.0616233"><ele>394.2</ele><time>2026-04-04T09:13:09.948Z</time></trkpt><trkpt lat="45.5713333" lon="8.0617517"><ele>395.0</ele><time>2026-04-04T09:13:10.948Z</time></trkpt><trkpt lat="45.5713117" lon="8.06189"><ele>395.6</ele><time>2026-04-04T09:13:11.948Z</time></trkpt><trkpt lat="45.5712833" lon="8.06204"><ele>396.2</ele><time>2026-04-04T09:13:12.948Z</time></trkpt><trkpt lat="45.57126" lon="8.0621783"><ele>396.79999999999995</ele><time>2026-04-04T09:13:13.948Z</time></trkpt><trkpt lat="45.5712383" lon="8.0623067"><ele>397.4</ele><time>2026-04-04T09:13:14.948Z</time></trkpt><trkpt lat="45.5712183" lon="8.06244"><ele>398.0</ele><time>2026-04-04T09:13:15.948Z</time></trkpt><trkpt lat="45.5711983" lon="8.0625733"><ele>396.79999999999995</ele><time>2026-04-04T09:13:16.948Z</time></trkpt><trkpt lat="45.5711667" lon="8.0627067"><ele>395.6</ele><time>2026-04-04T09:13:17.948Z</time></trkpt><trkpt lat="45.5711367" lon="8.0628517"><ele>394.4</ele><time>2026-04-04T09:13:18.948Z</time></trkpt><trkpt lat="45.5711067" lon="8.0629983"><ele>393.20000000000005</ele><time>2026-04-04T09:13:19.948Z</time></trkpt><trkpt lat="45.571075" lon="8.0631367"><ele>392.0</ele><time>2026-04-04T09:13:20.948Z</time></trkpt><trkpt lat="45.5710483" lon="8.0632917"><ele>392.0</ele><time>2026-04-04T09:13:21.948Z</time></trkpt><trkpt lat="45.571025" lon="8.0634467"><ele>392.0</ele><time>2026-04-04T09:13:22.948Z</time></trkpt><trkpt lat="45.5709983" lon="8.0635967"><ele>392.0</ele><time>2026-04-04T09:13:23.948Z</time></trkpt><trkpt lat="45.5709633" lon="8.0637567"><ele>392.0</ele><time>2026-04-04T09:13:24.948Z</time></trkpt><trkpt lat="45.5709283" lon="8.0639167"><ele>392.0</ele><time>2026-04-04T09:13:25.948Z</time></trkpt><trkpt lat="45.5708917" lon="8.0640983"><ele>392.0</ele><time>2026-04-04T09:13:26.948Z</time></trkpt><trkpt lat="45.5708533" lon="8.0642683"><ele>392.0</ele><time>2026-04-04T09:13:27.948Z</time></trkpt><trkpt lat="45.5708167" lon="8.0644433"><ele>392.0</ele><time>2026-04-04T09:13:28.948Z</time></trkpt><trkpt lat="45.5707883" lon="8.064605"><ele>391.6</ele><time>2026-04-04T09:13:29.948Z</time></trkpt><trkpt lat="45.5707667" lon="8.0647483"><ele>391.20000000000005</ele><time>2026-04-04T09:13:30.948Z</time></trkpt><trkpt lat="45.5707417" lon="8.0648833"><ele>390.8</ele><time>2026-04-04T09:13:31.947Z</time></trkpt><trkpt lat="45.570715" lon="8.0650033"><ele>390.4</ele><time>2026-04-04T09:13:32.948Z</time></trkpt><trkpt lat="45.5706733" lon="8.0651017"><ele>390.0</ele><time>2026-04-04T09:13:34.948Z</time></trkpt><trkpt lat="45.5706517" lon="8.0652983"><ele>391.0</ele><time>2026-04-04T09:14:35.948Z</time></trkpt><trkpt lat="45.570575" lon="8.0658233"><ele>392.0</ele><time>2026-04-04T09:14:38.947Z</time></trkpt><trkpt lat="45.5705433" lon="8.0659833"><ele>392.0</ele><time>2026-04-04T09:14:39.948Z</time></trkpt><trkpt lat="45.5705067" lon="8.0661333"><ele>392.0</ele><time>2026-04-04T09:14:40.948Z</time></trkpt><trkpt lat="45.5704617" lon="8.066325"><ele>392.0</ele><time>2026-04-04T09:14:41.948Z</time></trkpt><trkpt lat="45.5703417" lon="8.0668617"><ele>390.99999999999994</ele><time>2026-04-04T09:14:45.948Z</time></trkpt><trkpt lat="45.57028" lon="8.0669717"><ele>390.0</ele><time>2026-04-04T09:14:47.948Z</time></trkpt><trkpt lat="45.570215" lon="8.0669933"><ele>389.0</ele><time>2026-04-04T09:14:48.948Z</time></trkpt><trkpt lat="45.5701417" lon="8.0670317"><ele>388.0</ele><time>2026-04-04T09:14:49.948Z</time></trkpt><trkpt lat="45.5700767" lon="8.06711"><ele>386.99999999999994</ele><time>2026-04-04T09:14:50.948Z</time></trkpt><trkpt lat="45.57003" lon="8.0672217"><ele>386.0</ele><time>2026-04-04T09:14:51.948Z</time></trkpt><trkpt lat="45.5699967" lon="8.0673517"><ele>385.66666666666663</ele><time>2026-04-04T09:14:52.948Z</time></trkpt><trkpt lat="45.5699533" lon="8.0674917"><ele>385.33333333333337</ele><time>2026-04-04T09:14:53.948Z</time></trkpt><trkpt lat="45.5698983" lon="8.0676317"><ele>385.0</ele><time>2026-04-04T09:14:54.948Z</time></trkpt><trkpt lat="45.5696883" lon="8.06801"><ele>385.00000000000006</ele><time>2026-04-04T09:14:57.948Z</time></trkpt><trkpt lat="45.569615" lon="8.0680867"><ele>385.0</ele><time>2026-04-04T09:14:58.948Z</time></trkpt><trkpt lat="45.5695383" lon="8.068155"><ele>385.0</ele><time>2026-04-04T09:14:59.948Z</time></trkpt><trkpt lat="45.5694667" lon="8.0682017"><ele>385.0</ele><time>2026-04-04T09:15:00.948Z</time></trkpt><trkpt lat="45.5694017" lon="8.0682517"><ele>385.00000000000006</ele><time>2026-04-04T09:15:01.948Z</time></trkpt><trkpt lat="45.5693217" lon="8.0683133"><ele>385.0</ele><time>2026-04-04T09:15:02.947Z</time></trkpt><trkpt lat="45.5688733" lon="8.0686117"><ele>384.25</ele><time>2026-04-04T09:15:06.947Z</time></trkpt><trkpt lat="45.5687567" lon="8.0686983"><ele>383.5</ele><time>2026-04-04T09:15:07.948Z</time></trkpt><trkpt lat="45.568635" lon="8.06877"><ele>382.75</ele><time>2026-04-04T09:15:08.948Z</time></trkpt><trkpt lat="45.5685183" lon="8.0688467"><ele>382.0</ele><time>2026-04-04T09:15:09.948Z</time></trkpt><trkpt lat="45.5683133" lon="8.0689833"><ele>381.20000000000005</ele><time>2026-04-04T09:15:11.948Z</time></trkpt><trkpt lat="45.5682283" lon="8.0690433"><ele>380.4</ele><time>2026-04-04T09:15:12.934Z</time></trkpt><trkpt lat="45.5681467" lon="8.069105"><ele>379.6</ele><time>2026-04-04T09:15:13.948Z</time></trkpt><trkpt lat="45.568065" lon="8.0691717"><ele>378.79999999999995</ele><time>2026-04-04T09:15:14.948Z</time></trkpt><trkpt lat="45.5679833" lon="8.06923"><ele>378.0</ele><time>2026-04-04T09:15:15.948Z</time></trkpt><trkpt lat="45.5678017" lon="8.0693917"><ele>378.0</ele><time>2026-04-04T09:15:17.947Z</time></trkpt><trkpt lat="45.5677083" lon="8.0695"><ele>378.0</ele><time>2026-04-04T09:15:18.948Z</time></trkpt><trkpt lat="45.567615" lon="8.0696217"><ele>378.0</ele><time>2026-04-04T09:15:19.947Z</time></trkpt><trkpt lat="45.5675367" lon="8.0697433"><ele>378.0</ele><time>2026-04-04T09:15:20.947Z</time></trkpt><trkpt lat="45.567465" lon="8.06986"><ele>378.0</ele><time>2026-04-04T09:15:21.947Z</time></trkpt><trkpt lat="45.567405" lon="8.0699817"><ele>378.0</ele><time>2026-04-04T09:15:22.946Z</time></trkpt><trkpt lat="45.567345" lon="8.070105"><ele>378.0</ele><time>2026-04-04T09:15:23.947Z</time></trkpt><trkpt lat="45.5672867" lon="8.07022"><ele>378.0</ele><time>2026-04-04T09:15:24.947Z</time></trkpt><trkpt lat="45.5672167" lon="8.0703433"><ele>378.0</ele><time>2026-04-04T09:15:25.946Z</time></trkpt><trkpt lat="45.56714" lon="8.070485"><ele>378.0</ele><time>2026-04-04T09:15:26.947Z</time></trkpt><trkpt lat="45.5670517" lon="8.0706233"><ele>378.0</ele><time>2026-04-04T09:15:27.947Z</time></trkpt><trkpt lat="45.5669767" lon="8.0707617"><ele>378.0</ele><time>2026-04-04T09:15:28.947Z</time></trkpt><trkpt lat="45.5668783" lon="8.0709233"><ele>378.0</ele><time>2026-04-04T09:15:29.947Z</time></trkpt><trkpt lat="45.5667817" lon="8.0711017"><ele>376.6666666666667</ele><time>2026-04-04T09:15:30.947Z</time></trkpt><trkpt lat="45.5666833" lon="8.0712667"><ele>375.33333333333337</ele><time>2026-04-04T09:15:31.947Z</time></trkpt><trkpt lat="45.5665883" lon="8.0714483"><ele>374.0</ele><time>2026-04-04T09:15:32.947Z</time></trkpt><trkpt lat="45.56648" lon="8.0716233"><ele>373.5</ele><time>2026-04-04T09:15:33.947Z</time></trkpt><trkpt lat="45.56638" lon="8.0718033"><ele>373.0</ele><time>2026-04-04T09:15:34.947Z</time></trkpt><trkpt lat="45.5662867" lon="8.071965"><ele>372.5</ele><time>2026-04-04T09:15:35.947Z</time></trkpt><trkpt lat="45.5662" lon="8.072105"><ele>372.0</ele><time>2026-04-04T09:15:36.947Z</time></trkpt><trkpt lat="45.5661183" lon="8.072255"><ele>372.0</ele><time>2026-04-04T09:15:37.947Z</time></trkpt><trkpt lat="45.5660417" lon="8.0723933"><ele>372.0</ele><time>2026-04-04T09:15:38.947Z</time></trkpt><trkpt lat="45.565975" lon="8.0725217"><ele>372.0</ele><time>2026-04-04T09:15:39.947Z</time></trkpt><trkpt lat="45.5659183" lon="8.0726317"><ele>372.0</ele><time>2026-04-04T09:15:40.947Z</time></trkpt><trkpt lat="45.5658767" lon="8.07272"><ele>372.0</ele><time>2026-04-04T09:15:41.947Z</time></trkpt><trkpt lat="45.5658183" lon="8.0728517"><ele>371.8</ele><time>2026-04-04T09:15:43.947Z</time></trkpt><trkpt lat="45.565765" lon="8.0729883"><ele>371.6</ele><time>2026-04-04T09:15:45.946Z</time></trkpt><trkpt lat="45.5657" lon="8.0731417"><ele>371.40000000000003</ele><time>2026-04-04T09:15:47.947Z</time></trkpt><trkpt lat="45.5656533" lon="8.0732533"><ele>371.20000000000005</ele><time>2026-04-04T09:15:48.947Z</time></trkpt><trkpt lat="45.5655967" lon="8.073355"><ele>371.0</ele><time>2026-04-04T09:15:49.947Z</time></trkpt><trkpt lat="45.5655433" lon="8.0734733"><ele>370.8</ele><time>2026-04-04T09:15:50.947Z</time></trkpt><trkpt lat="45.5654817" lon="8.073585"><ele>370.6</ele><time>2026-04-04T09:15:51.947Z</time></trkpt><trkpt lat="45.5654133" lon="8.073705"><ele>370.4</ele><time>2026-04-04T09:15:52.947Z</time></trkpt><trkpt lat="45.5653617" lon="8.0738033"><ele>370.2</ele><time>2026-04-04T09:15:53.947Z</time></trkpt><trkpt lat="45.5653083" lon="8.0739117"><ele>370.0</ele><time>2026-04-04T09:15:55.947Z</time></trkpt><trkpt lat="45.565315" lon="8.07401"><ele>369.6</ele><time>2026-04-04T09:15:57.947Z</time></trkpt><trkpt lat="45.5653533" lon="8.0741833"><ele>369.2</ele><time>2026-04-04T09:15:59.947Z</time></trkpt><trkpt lat="45.5654067" lon="8.0742583"><ele>368.79999999999995</ele><time>2026-04-04T09:16:00.947Z</time></trkpt><trkpt lat="45.5654733" lon="8.0743217"><ele>368.4</ele><time>2026-04-04T09:16:01.947Z</time></trkpt><trkpt lat="45.565565" lon="8.07438"><ele>368.0</ele><time>2026-04-04T09:16:02.947Z</time></trkpt><trkpt lat="45.5656467" lon="8.0744667"><ele>367.75</ele><time>2026-04-04T09:16:03.947Z</time></trkpt><trkpt lat="45.5657417" lon="8.0745483"><ele>367.5</ele><time>2026-04-04T09:16:04.947Z</time></trkpt><trkpt lat="45.5658383" lon="8.074655"><ele>367.25</ele><time>2026-04-04T09:16:05.947Z</time></trkpt><trkpt lat="45.5659133" lon="8.074765"><ele>367.0</ele><time>2026-04-04T09:16:06.947Z</time></trkpt><trkpt lat="45.565965" lon="8.0749033"><ele>367.0</ele><time>2026-04-04T09:16:07.947Z</time></trkpt><trkpt lat="45.5659983" lon="8.0750517"><ele>367.0</ele><time>2026-04-04T09:16:08.947Z</time></trkpt><trkpt lat="45.566015" lon="8.0752117"><ele>367.0</ele><time>2026-04-04T09:16:09.947Z</time></trkpt><trkpt lat="45.5660033" lon="8.0753833"><ele>367.0</ele><time>2026-04-04T09:16:10.947Z</time></trkpt><trkpt lat="45.5659717" lon="8.0755417"><ele>367.0</ele><time>2026-04-04T09:16:11.947Z</time></trkpt><trkpt lat="45.56592" lon="8.0756867"><ele>367.0</ele><time>2026-04-04T09:16:12.947Z</time></trkpt><trkpt lat="45.5658583" lon="8.0758283"><ele>367.0</ele><time>2026-04-04T09:16:13.947Z</time></trkpt><trkpt lat="45.5657983" lon="8.0759517"><ele>367.0</ele><time>2026-04-04T09:16:14.946Z</time></trkpt><trkpt lat="45.565735" lon="8.0760633"><ele>367.0</ele><time>2026-04-04T09:16:15.947Z</time></trkpt><trkpt lat="45.56567" lon="8.0761567"><ele>367.0</ele><time>2026-04-04T09:16:16.947Z</time></trkpt><trkpt lat="45.5656033" lon="8.0762217"><ele>367.0</ele><time>2026-04-04T09:16:17.947Z</time></trkpt><trkpt lat="45.5655283" lon="8.076265"><ele>367.0</ele><time>2026-04-04T09:16:18.947Z</time></trkpt><trkpt lat="45.5654633" lon="8.0762733"><ele>367.0</ele><time>2026-04-04T09:16:19.947Z</time></trkpt><trkpt lat="45.565395" lon="8.0762467"><ele>367.0</ele><time>2026-04-04T09:16:20.947Z</time></trkpt><trkpt lat="45.5653333" lon="8.0761833"><ele>367.0</ele><time>2026-04-04T09:16:21.947Z</time></trkpt><trkpt lat="45.5652783" lon="8.0760817"><ele>367.25</ele><time>2026-04-04T09:16:22.947Z</time></trkpt><trkpt lat="45.5652117" lon="8.07596"><ele>367.5</ele><time>2026-04-04T09:16:23.947Z</time></trkpt><trkpt lat="45.5651283" lon="8.0758183"><ele>367.75</ele><time>2026-04-04T09:16:24.946Z</time></trkpt><trkpt lat="45.56503" lon="8.075655"><ele>368.0</ele><time>2026-04-04T09:16:25.947Z</time></trkpt><trkpt lat="45.5649267" lon="8.0754833"><ele>368.0</ele><time>2026-04-04T09:16:26.947Z</time></trkpt><trkpt lat="45.5648367" lon="8.0753133"><ele>368.0</ele><time>2026-04-04T09:16:27.947Z</time></trkpt><trkpt lat="45.5647483" lon="8.0751517"><ele>368.0</ele><time>2026-04-04T09:16:28.947Z</time></trkpt><trkpt lat="45.5646683" lon="8.0749967"><ele>368.0</ele><time>2026-04-04T09:16:29.947Z</time></trkpt><trkpt lat="45.56458" lon="8.074835"><ele>367.5</ele><time>2026-04-04T09:16:30.947Z</time></trkpt><trkpt lat="45.564495" lon="8.074675"><ele>367.0</ele><time>2026-04-04T09:16:31.947Z</time></trkpt><trkpt lat="45.5644083" lon="8.0745017"><ele>366.5</ele><time>2026-04-04T09:16:32.947Z</time></trkpt><trkpt lat="45.5643217" lon="8.0743217"><ele>366.0</ele><time>2026-04-04T09:16:33.946Z</time></trkpt><trkpt lat="45.5642383" lon="8.0741267"><ele>366.3333333333333</ele><time>2026-04-04T09:16:34.947Z</time></trkpt><trkpt lat="45.5641617" lon="8.0739"><ele>366.66666666666663</ele><time>2026-04-04T09:16:35.947Z</time></trkpt><trkpt lat="45.5640867" lon="8.073645"><ele>367.0</ele><time>2026-04-04T09:16:36.947Z</time></trkpt><trkpt lat="45.5640017" lon="8.0733817"><ele>367.66666666666663</ele><time>2026-04-04T09:16:37.947Z</time></trkpt><trkpt lat="45.563925" lon="8.073115"><ele>368.3333333333333</ele><time>2026-04-04T09:16:38.947Z</time></trkpt><trkpt lat="45.5638433" lon="8.0728483"><ele>369.0</ele><time>2026-04-04T09:16:39.947Z</time></trkpt><trkpt lat="45.563765" lon="8.0725967"><ele>368.3333333333333</ele><time>2026-04-04T09:16:40.947Z</time></trkpt><trkpt lat="45.5636817" lon="8.072335"><ele>367.66666666666663</ele><time>2026-04-04T09:16:41.946Z</time></trkpt><trkpt lat="45.5635983" lon="8.07207"><ele>367.0</ele><time>2026-04-04T09:16:42.947Z</time></trkpt><trkpt lat="45.5635233" lon="8.0718217"><ele>366.3333333333333</ele><time>2026-04-04T09:16:43.947Z</time></trkpt><trkpt lat="45.56345" lon="8.0715867"><ele>365.6666666666667</ele><time>2026-04-04T09:16:44.947Z</time></trkpt><trkpt lat="45.5633883" lon="8.0713817"><ele>365.0</ele><time>2026-04-04T09:16:45.946Z</time></trkpt><trkpt lat="45.5633133" lon="8.071185"><ele>365.0</ele><time>2026-04-04T09:16:46.947Z</time></trkpt><trkpt lat="45.563225" lon="8.071"><ele>365.0</ele><time>2026-04-04T09:16:47.946Z</time></trkpt><trkpt lat="45.5631117" lon="8.0708417"><ele>365.0</ele><time>2026-04-04T09:16:48.947Z</time></trkpt><trkpt lat="45.5629767" lon="8.0707017"><ele>363.0</ele><time>2026-04-04T09:16:49.947Z</time></trkpt><trkpt lat="45.5628167" lon="8.0705983"><ele>361.0</ele><time>2026-04-04T09:16:50.947Z</time></trkpt><trkpt lat="45.562655" lon="8.070545"><ele>359.0</ele><time>2026-04-04T09:16:51.947Z</time></trkpt><trkpt lat="45.56248" lon="8.0705333"><ele>359.0</ele><time>2026-04-04T09:16:52.946Z</time></trkpt><trkpt lat="45.5623117" lon="8.0705717"><ele>359.0</ele><time>2026-04-04T09:16:53.946Z</time></trkpt><trkpt lat="45.56215" lon="8.070645"><ele>359.0</ele><time>2026-04-04T09:16:54.947Z</time></trkpt><trkpt lat="45.5620017" lon="8.0707617"><ele>358.6666666666667</ele><time>2026-04-04T09:16:55.947Z</time></trkpt><trkpt lat="45.5618767" lon="8.070915"><ele>358.3333333333333</ele><time>2026-04-04T09:16:56.947Z</time></trkpt><trkpt lat="45.5617767" lon="8.071095"><ele>358.0</ele><time>2026-04-04T09:16:57.947Z</time></trkpt><trkpt lat="45.5616867" lon="8.0713"><ele>358.0</ele><time>2026-04-04T09:16:58.947Z</time></trkpt><trkpt lat="45.5616283" lon="8.0715433"><ele>358.0</ele><time>2026-04-04T09:16:59.947Z</time></trkpt><trkpt lat="45.5615867" lon="8.0717983"><ele>358.0</ele><time>2026-04-04T09:17:00.947Z</time></trkpt><trkpt lat="45.5615433" lon="8.07208"><ele>358.0</ele><time>2026-04-04T09:17:01.947Z</time></trkpt><trkpt lat="45.5615117" lon="8.0723967"><ele>358.0</ele><time>2026-04-04T09:17:02.947Z</time></trkpt><trkpt lat="45.561465" lon="8.07274"><ele>358.5</ele><time>2026-04-04T09:17:03.946Z</time></trkpt><trkpt lat="45.5614117" lon="8.0730833"><ele>359.0</ele><time>2026-04-04T09:17:04.947Z</time></trkpt><trkpt lat="45.5613583" lon="8.0734417"><ele>359.5</ele><time>2026-04-04T09:17:05.947Z</time></trkpt><trkpt lat="45.5612967" lon="8.0738033"><ele>360.0</ele><time>2026-04-04T09:17:06.947Z</time></trkpt><trkpt lat="45.5612283" lon="8.07416"><ele>359.0</ele><time>2026-04-04T09:17:07.946Z</time></trkpt><trkpt lat="45.56115" lon="8.0745317"><ele>358.0</ele><time>2026-04-04T09:17:08.947Z</time></trkpt><trkpt lat="45.561055" lon="8.0749083"><ele>357.0</ele><time>2026-04-04T09:17:09.947Z</time></trkpt><trkpt lat="45.56096" lon="8.0752817"><ele>356.0</ele><time>2026-04-04T09:17:10.947Z</time></trkpt><trkpt lat="45.5608483" lon="8.0756617"><ele>357.0</ele><time>2026-04-04T09:17:11.947Z</time></trkpt><trkpt lat="45.560725" lon="8.0760483"><ele>358.0</ele><time>2026-04-04T09:17:12.947Z</time></trkpt><trkpt lat="45.5605867" lon="8.0764333"><ele>357.0</ele><time>2026-04-04T09:17:13.947Z</time></trkpt><trkpt lat="45.5604467" lon="8.0768133"><ele>356.0</ele><time>2026-04-04T09:17:14.947Z</time></trkpt><trkpt lat="45.5603" lon="8.0771983"><ele>355.0</ele><time>2026-04-04T09:17:15.947Z</time></trkpt><trkpt lat="45.5601583" lon="8.0775783"><ele>354.0</ele><time>2026-04-04T09:17:16.947Z</time></trkpt><trkpt lat="45.560015" lon="8.077965"><ele>353.5</ele><time>2026-04-04T09:17:17.947Z</time></trkpt><trkpt lat="45.559865" lon="8.0783483"><ele>353.0</ele><time>2026-04-04T09:17:18.947Z</time></trkpt><trkpt lat="45.5597117" lon="8.0787267"><ele>351.5</ele><time>2026-04-04T09:17:19.947Z</time></trkpt><trkpt lat="45.55955" lon="8.0791017"><ele>350.0</ele><time>2026-04-04T09:17:20.947Z</time></trkpt><trkpt lat="45.559395" lon="8.0794767"><ele>349.5</ele><time>2026-04-04T09:17:21.947Z</time></trkpt><trkpt lat="45.5592467" lon="8.079835"><ele>349.0</ele><time>2026-04-04T09:17:22.947Z</time></trkpt><trkpt lat="45.5591033" lon="8.080175"><ele>349.0</ele><time>2026-04-04T09:17:23.946Z</time></trkpt><trkpt lat="45.5589667" lon="8.0805067"><ele>349.0</ele><time>2026-04-04T09:17:24.947Z</time></trkpt><trkpt lat="45.5588333" lon="8.0808317"><ele>347.0</ele><time>2026-04-04T09:17:25.946Z</time></trkpt><trkpt lat="45.5586967" lon="8.0811633"><ele>345.0</ele><time>2026-04-04T09:17:26.947Z</time></trkpt><trkpt lat="45.5585533" lon="8.0815067"><ele>345.5</ele><time>2026-04-04T09:17:27.946Z</time></trkpt><trkpt lat="45.5584117" lon="8.0818683"><ele>346.0</ele><time>2026-04-04T09:17:28.946Z</time></trkpt><trkpt lat="45.55826" lon="8.082215"><ele>345.5</ele><time>2026-04-04T09:17:29.946Z</time></trkpt><trkpt lat="45.5581083" lon="8.082565"><ele>345.0</ele><time>2026-04-04T09:17:30.947Z</time></trkpt><trkpt lat="45.55796" lon="8.0829117"><ele>342.0</ele><time>2026-04-04T09:17:31.947Z</time></trkpt><trkpt lat="45.5578133" lon="8.0832583"><ele>339.0</ele><time>2026-04-04T09:17:32.947Z</time></trkpt><trkpt lat="45.5576683" lon="8.0835983"><ele>339.0</ele><time>2026-04-04T09:17:33.947Z</time></trkpt><trkpt lat="45.557525" lon="8.0839433"><ele>339.0</ele><time>2026-04-04T09:17:34.946Z</time></trkpt><trkpt lat="45.557385" lon="8.08428"><ele>339.5</ele><time>2026-04-04T09:17:35.947Z</time></trkpt><trkpt lat="45.5572417" lon="8.0846217"><ele>340.0</ele><time>2026-04-04T09:17:36.947Z</time></trkpt><trkpt lat="45.5571" lon="8.084955"><ele>337.0</ele><time>2026-04-04T09:17:37.947Z</time></trkpt><trkpt lat="45.55696" lon="8.0852883"><ele>334.0</ele><time>2026-04-04T09:17:38.947Z</time></trkpt><trkpt lat="45.5568117" lon="8.085625"><ele>335.5</ele><time>2026-04-04T09:17:39.947Z</time></trkpt><trkpt lat="45.5566683" lon="8.0859717"><ele>337.0</ele><time>2026-04-04T09:17:40.947Z</time></trkpt><trkpt lat="45.5565267" lon="8.0863033"><ele>336.5</ele><time>2026-04-04T09:17:41.947Z</time></trkpt><trkpt lat="45.556385" lon="8.086645"><ele>336.0</ele><time>2026-04-04T09:17:42.947Z</time></trkpt><trkpt lat="45.556245" lon="8.086985"><ele>333.0</ele><time>2026-04-04T09:17:43.947Z</time></trkpt><trkpt lat="45.5561" lon="8.087325"><ele>330.0</ele><time>2026-04-04T09:17:44.947Z</time></trkpt><trkpt lat="45.5559617" lon="8.08766"><ele>330.0</ele><time>2026-04-04T09:17:45.947Z</time></trkpt><trkpt lat="45.5558217" lon="8.0880067"><ele>330.0</ele><time>2026-04-04T09:17:46.947Z</time></trkpt><trkpt lat="45.555675" lon="8.088365"><ele>330.5</ele><time>2026-04-04T09:17:47.947Z</time></trkpt><trkpt lat="45.55553" lon="8.0887217"><ele>331.0</ele><time>2026-04-04T09:17:48.947Z</time></trkpt><trkpt lat="45.555395" lon="8.089085"><ele>328.5</ele><time>2026-04-04T09:17:49.947Z</time></trkpt><trkpt lat="45.5552683" lon="8.0894467"><ele>326.0</ele><time>2026-04-04T09:17:50.947Z</time></trkpt><trkpt lat="45.55515" lon="8.0898067"><ele>326.5</ele><time>2026-04-04T09:17:51.946Z</time></trkpt><trkpt lat="45.555045" lon="8.09018"><ele>327.0</ele><time>2026-04-04T09:17:52.947Z</time></trkpt><trkpt lat="45.5549417" lon="8.090565"><ele>327.0</ele><time>2026-04-04T09:17:53.947Z</time></trkpt><trkpt lat="45.5548567" lon="8.090945"><ele>327.0</ele><time>2026-04-04T09:17:54.947Z</time></trkpt><trkpt lat="45.5547833" lon="8.09134"><ele>327.0</ele><time>2026-04-04T09:17:55.947Z</time></trkpt><trkpt lat="45.5547167" lon="8.09172"><ele>327.0</ele><time>2026-04-04T09:17:56.947Z</time></trkpt><trkpt lat="45.5546667" lon="8.0920917"><ele>326.0</ele><time>2026-04-04T09:17:57.947Z</time></trkpt><trkpt lat="45.5546217" lon="8.0924717"><ele>325.0</ele><time>2026-04-04T09:17:58.947Z</time></trkpt><trkpt lat="45.5545867" lon="8.0928733"><ele>323.5</ele><time>2026-04-04T09:17:59.947Z</time></trkpt><trkpt lat="45.55456" lon="8.0932883"><ele>322.0</ele><time>2026-04-04T09:18:00.946Z</time></trkpt><trkpt lat="45.554545" lon="8.0937167"><ele>321.5</ele><time>2026-04-04T09:18:01.947Z</time></trkpt><trkpt lat="45.5545333" lon="8.094135"><ele>321.0</ele><time>2026-04-04T09:18:02.947Z</time></trkpt><trkpt lat="45.5545433" lon="8.0945217"><ele>320.5</ele><time>2026-04-04T09:18:03.947Z</time></trkpt><trkpt lat="45.5545567" lon="8.0948983"><ele>320.0</ele><time>2026-04-04T09:18:04.947Z</time></trkpt><trkpt lat="45.55458" lon="8.0952667"><ele>320.0</ele><time>2026-04-04T09:18:05.947Z</time></trkpt><trkpt lat="45.5546167" lon="8.095645"><ele>320.0</ele><time>2026-04-04T09:18:06.947Z</time></trkpt><trkpt lat="45.55467" lon="8.0960167"><ele>319.5</ele><time>2026-04-04T09:18:07.947Z</time></trkpt><trkpt lat="45.55472" lon="8.0963967"><ele>319.0</ele><time>2026-04-04T09:18:08.947Z</time></trkpt><trkpt lat="45.5547817" lon="8.0967817"><ele>319.0</ele><time>2026-04-04T09:18:09.947Z</time></trkpt><trkpt lat="45.55485" lon="8.097155"><ele>319.0</ele><time>2026-04-04T09:18:10.947Z</time></trkpt><trkpt lat="45.5549067" lon="8.0975383"><ele>318.0</ele><time>2026-04-04T09:18:11.947Z</time></trkpt><trkpt lat="45.5549733" lon="8.0979167"><ele>317.0</ele><time>2026-04-04T09:18:12.947Z</time></trkpt><trkpt lat="45.5550367" lon="8.0983133"><ele>314.5</ele><time>2026-04-04T09:18:13.947Z</time></trkpt><trkpt lat="45.5550983" lon="8.0986933"><ele>312.0</ele><time>2026-04-04T09:18:14.947Z</time></trkpt><trkpt lat="45.5551633" lon="8.0990717"><ele>313.0</ele><time>2026-04-04T09:18:15.947Z</time></trkpt><trkpt lat="45.5552217" lon="8.0994483"><ele>314.0</ele><time>2026-04-04T09:18:16.947Z</time></trkpt><trkpt lat="45.5552833" lon="8.0998383"><ele>314.0</ele><time>2026-04-04T09:18:17.946Z</time></trkpt><trkpt lat="45.5553467" lon="8.100215"><ele>314.0</ele><time>2026-04-04T09:18:18.947Z</time></trkpt><trkpt lat="45.5554067" lon="8.100595"><ele>314.0</ele><time>2026-04-04T09:18:19.946Z</time></trkpt><trkpt lat="45.5554617" lon="8.100975"><ele>314.0</ele><time>2026-04-04T09:18:20.947Z</time></trkpt><trkpt lat="45.5555067" lon="8.1013617"><ele>314.5</ele><time>2026-04-04T09:18:21.947Z</time></trkpt><trkpt lat="45.5555367" lon="8.1017533"><ele>315.0</ele><time>2026-04-04T09:18:22.946Z</time></trkpt><trkpt lat="45.5555733" lon="8.1021417"><ele>314.0</ele><time>2026-04-04T09:18:23.947Z</time></trkpt><trkpt lat="45.55559" lon="8.1025333"><ele>313.0</ele><time>2026-04-04T09:18:24.947Z</time></trkpt><trkpt lat="45.555605" lon="8.1029333"><ele>312.5</ele><time>2026-04-04T09:18:25.947Z</time></trkpt><trkpt lat="45.5556067" lon="8.1033383"><ele>312.0</ele><time>2026-04-04T09:18:26.947Z</time></trkpt><trkpt lat="45.5556067" lon="8.10374"><ele>311.0</ele><time>2026-04-04T09:18:27.947Z</time></trkpt><trkpt lat="45.5556083" lon="8.104155"><ele>310.0</ele><time>2026-04-04T09:18:28.947Z</time></trkpt><trkpt lat="45.555605" lon="8.10458"><ele>310.0</ele><time>2026-04-04T09:18:29.947Z</time></trkpt><trkpt lat="45.5556017" lon="8.1049967"><ele>310.0</ele><time>2026-04-04T09:18:30.947Z</time></trkpt><trkpt lat="45.5556" lon="8.105425"><ele>310.0</ele><time>2026-04-04T09:18:31.947Z</time></trkpt><trkpt lat="45.5555867" lon="8.1058433"><ele>310.0</ele><time>2026-04-04T09:18:32.947Z</time></trkpt><trkpt lat="45.5555733" lon="8.1062633"><ele>310.5</ele><time>2026-04-04T09:18:33.947Z</time></trkpt><trkpt lat="45.5555583" lon="8.106675"><ele>311.0</ele><time>2026-04-04T09:18:34.947Z</time></trkpt><trkpt lat="45.55555" lon="8.1070817"><ele>309.5</ele><time>2026-04-04T09:18:35.947Z</time></trkpt><trkpt lat="45.5555467" lon="8.1074767"><ele>308.0</ele><time>2026-04-04T09:18:36.947Z</time></trkpt><trkpt lat="45.5555383" lon="8.1078767"><ele>308.0</ele><time>2026-04-04T09:18:37.947Z</time></trkpt><trkpt lat="45.5555267" lon="8.10827"><ele>308.0</ele><time>2026-04-04T09:18:38.947Z</time></trkpt><trkpt lat="45.55552" lon="8.10866"><ele>308.0</ele><time>2026-04-04T09:18:39.947Z</time></trkpt><trkpt lat="45.5555117" lon="8.1090533"><ele>308.0</ele><time>2026-04-04T09:18:40.947Z</time></trkpt><trkpt lat="45.555505" lon="8.109445"><ele>308.0</ele><time>2026-04-04T09:18:41.946Z</time></trkpt><trkpt lat="45.5554983" lon="8.10984"><ele>308.0</ele><time>2026-04-04T09:18:42.947Z</time></trkpt><trkpt lat="45.5554883" lon="8.1102417"><ele>307.0</ele><time>2026-04-04T09:18:43.947Z</time></trkpt><trkpt lat="45.555485" lon="8.1106283"><ele>306.0</ele><time>2026-04-04T09:18:44.947Z</time></trkpt><trkpt lat="45.55548" lon="8.111025"><ele>305.0</ele><time>2026-04-04T09:18:45.947Z</time></trkpt><trkpt lat="45.5554817" lon="8.111415"><ele>304.0</ele><time>2026-04-04T09:18:46.947Z</time></trkpt><trkpt lat="45.55548" lon="8.1118067"><ele>304.0</ele><time>2026-04-04T09:18:47.947Z</time></trkpt><trkpt lat="45.555475" lon="8.112205"><ele>304.0</ele><time>2026-04-04T09:18:48.946Z</time></trkpt><trkpt lat="45.55547" lon="8.1126"><ele>304.0</ele><time>2026-04-04T09:18:49.947Z</time></trkpt><trkpt lat="45.55547" lon="8.112995"><ele>304.0</ele><time>2026-04-04T09:18:50.947Z</time></trkpt><trkpt lat="45.5554617" lon="8.1133917"><ele>304.0</ele><time>2026-04-04T09:18:51.946Z</time></trkpt><trkpt lat="45.555455" lon="8.1137917"><ele>304.0</ele><time>2026-04-04T09:18:52.947Z</time></trkpt><trkpt lat="45.5554433" lon="8.1141967"><ele>303.5</ele><time>2026-04-04T09:18:53.947Z</time></trkpt><trkpt lat="45.5554383" lon="8.1146067"><ele>303.0</ele><time>2026-04-04T09:18:54.947Z</time></trkpt><trkpt lat="45.5554333" lon="8.1150217"><ele>302.0</ele><time>2026-04-04T09:18:55.947Z</time></trkpt><trkpt lat="45.55543" lon="8.115425"><ele>301.0</ele><time>2026-04-04T09:18:56.947Z</time></trkpt><trkpt lat="45.5554333" lon="8.1158317"><ele>300.5</ele><time>2026-04-04T09:18:57.947Z</time></trkpt><trkpt lat="45.555435" lon="8.116245"><ele>300.0</ele><time>2026-04-04T09:18:58.947Z</time></trkpt><trkpt lat="45.5554217" lon="8.1166633"><ele>299.0</ele><time>2026-04-04T09:18:59.947Z</time></trkpt><trkpt lat="45.5554117" lon="8.1170817"><ele>298.0</ele><time>2026-04-04T09:19:00.947Z</time></trkpt><trkpt lat="45.5554067" lon="8.1175017"><ele>298.0</ele><time>2026-04-04T09:19:01.947Z</time></trkpt><trkpt lat="45.5553967" lon="8.1179283"><ele>298.0</ele><time>2026-04-04T09:19:02.947Z</time></trkpt><trkpt lat="45.5553917" lon="8.1183433"><ele>298.0</ele><time>2026-04-04T09:19:03.947Z</time></trkpt><trkpt lat="45.555385" lon="8.1187567"><ele>298.0</ele><time>2026-04-04T09:19:04.946Z</time></trkpt><trkpt lat="45.5553817" lon="8.1191617"><ele>297.0</ele><time>2026-04-04T09:19:05.946Z</time></trkpt><trkpt lat="45.5553733" lon="8.1195683"><ele>296.0</ele><time>2026-04-04T09:19:06.946Z</time></trkpt><trkpt lat="45.5553583" lon="8.1199683"><ele>295.0</ele><time>2026-04-04T09:19:07.946Z</time></trkpt><trkpt lat="45.5553483" lon="8.1203533"><ele>294.0</ele><time>2026-04-04T09:19:08.945Z</time></trkpt><trkpt lat="45.5553467" lon="8.120745"><ele>293.5</ele><time>2026-04-04T09:19:09.946Z</time></trkpt><trkpt lat="45.55534" lon="8.12114"><ele>293.0</ele><time>2026-04-04T09:19:10.946Z</time></trkpt><trkpt lat="45.5553317" lon="8.121525"><ele>292.5</ele><time>2026-04-04T09:19:11.946Z</time></trkpt><trkpt lat="45.55532" lon="8.1219067"><ele>292.0</ele><time>2026-04-04T09:19:12.945Z</time></trkpt><trkpt lat="45.5553067" lon="8.1222933"><ele>291.5</ele><time>2026-04-04T09:19:13.946Z</time></trkpt><trkpt lat="45.5553083" lon="8.1226617"><ele>291.0</ele><time>2026-04-04T09:19:14.946Z</time></trkpt><trkpt lat="45.5553017" lon="8.1230533"><ele>290.0</ele><time>2026-04-04T09:19:15.946Z</time></trkpt><trkpt lat="45.5552983" lon="8.1234333"><ele>289.0</ele><time>2026-04-04T09:19:16.946Z</time></trkpt><trkpt lat="45.55529" lon="8.1238317"><ele>288.5</ele><time>2026-04-04T09:19:17.946Z</time></trkpt><trkpt lat="45.5552767" lon="8.1242217"><ele>288.0</ele><time>2026-04-04T09:19:18.946Z</time></trkpt><trkpt lat="45.5552717" lon="8.1246167"><ele>287.0</ele><time>2026-04-04T09:19:19.946Z</time></trkpt><trkpt lat="45.5552667" lon="8.125015"><ele>286.0</ele><time>2026-04-04T09:19:20.946Z</time></trkpt><trkpt lat="45.5552633" lon="8.12541"><ele>285.0</ele><time>2026-04-04T09:19:21.945Z</time></trkpt><trkpt lat="45.555255" lon="8.125815"><ele>284.0</ele><time>2026-04-04T09:19:22.946Z</time></trkpt><trkpt lat="45.5552433" lon="8.1262183"><ele>284.5</ele><time>2026-04-04T09:19:23.946Z</time></trkpt><trkpt lat="45.5552233" lon="8.1266267"><ele>285.0</ele><time>2026-04-04T09:19:24.946Z</time></trkpt><trkpt lat="45.5552217" lon="8.1270367"><ele>285.0</ele><time>2026-04-04T09:19:25.946Z</time></trkpt><trkpt lat="45.5552183" lon="8.1274483"><ele>285.0</ele><time>2026-04-04T09:19:26.946Z</time></trkpt><trkpt lat="45.5552217" lon="8.1278517"><ele>284.0</ele><time>2026-04-04T09:19:27.946Z</time></trkpt><trkpt lat="45.5552183" lon="8.1282533"><ele>283.0</ele><time>2026-04-04T09:19:28.946Z</time></trkpt><trkpt lat="45.5552067" lon="8.128675"><ele>282.5</ele><time>2026-04-04T09:19:29.945Z</time></trkpt><trkpt lat="45.5551883" lon="8.1290933"><ele>282.0</ele><time>2026-04-04T09:19:30.946Z</time></trkpt><trkpt lat="45.55518" lon="8.1295083"><ele>281.5</ele><time>2026-04-04T09:19:31.946Z</time></trkpt><trkpt lat="45.55517" lon="8.1299067"><ele>281.0</ele><time>2026-04-04T09:19:32.946Z</time></trkpt><trkpt lat="45.555155" lon="8.1303017"><ele>281.0</ele><time>2026-04-04T09:19:33.946Z</time></trkpt><trkpt lat="45.5551333" lon="8.1307017"><ele>281.0</ele><time>2026-04-04T09:19:34.946Z</time></trkpt><trkpt lat="45.55512" lon="8.1310983"><ele>281.5</ele><time>2026-04-04T09:19:35.946Z</time></trkpt><trkpt lat="45.5550983" lon="8.1315017"><ele>282.0</ele><time>2026-04-04T09:19:36.946Z</time></trkpt><trkpt lat="45.5550667" lon="8.13191"><ele>281.0</ele><time>2026-04-04T09:19:37.946Z</time></trkpt><trkpt lat="45.5550283" lon="8.1323117"><ele>280.0</ele><time>2026-04-04T09:19:38.946Z</time></trkpt><trkpt lat="45.5549917" lon="8.1327267"><ele>279.0</ele><time>2026-04-04T09:19:39.946Z</time></trkpt><trkpt lat="45.5549583" lon="8.1331333"><ele>278.0</ele><time>2026-04-04T09:19:40.945Z</time></trkpt><trkpt lat="45.5549167" lon="8.1335317"><ele>278.0</ele><time>2026-04-04T09:19:41.946Z</time></trkpt><trkpt lat="45.55488" lon="8.1339367"><ele>278.0</ele><time>2026-04-04T09:19:42.946Z</time></trkpt><trkpt lat="45.5548383" lon="8.134335"><ele>277.5</ele><time>2026-04-04T09:19:43.946Z</time></trkpt><trkpt lat="45.55481" lon="8.13474"><ele>277.0</ele><time>2026-04-04T09:19:44.946Z</time></trkpt><trkpt lat="45.554775" lon="8.13514"><ele>276.0</ele><time>2026-04-04T09:19:45.946Z</time></trkpt><trkpt lat="45.55474" lon="8.1355417"><ele>275.0</ele><time>2026-04-04T09:19:46.946Z</time></trkpt><trkpt lat="45.5547067" lon="8.1359517"><ele>274.0</ele><time>2026-04-04T09:19:47.946Z</time></trkpt><trkpt lat="45.5546717" lon="8.1363633"><ele>273.0</ele><time>2026-04-04T09:19:48.946Z</time></trkpt><trkpt lat="45.55464" lon="8.136765"><ele>273.0</ele><time>2026-04-04T09:19:49.946Z</time></trkpt><trkpt lat="45.5546033" lon="8.137175"><ele>273.0</ele><time>2026-04-04T09:19:50.946Z</time></trkpt><trkpt lat="45.5545617" lon="8.1375833"><ele>272.0</ele><time>2026-04-04T09:19:51.946Z</time></trkpt><trkpt lat="45.5545183" lon="8.1379983"><ele>271.0</ele><time>2026-04-04T09:19:52.946Z</time></trkpt><trkpt lat="45.5544883" lon="8.1384"><ele>271.0</ele><time>2026-04-04T09:19:53.946Z</time></trkpt><trkpt lat="45.5544533" lon="8.138805"><ele>271.0</ele><time>2026-04-04T09:19:54.946Z</time></trkpt><trkpt lat="45.5544167" lon="8.1392117"><ele>271.5</ele><time>2026-04-04T09:19:55.946Z</time></trkpt><trkpt lat="45.55438" lon="8.139615"><ele>272.0</ele><time>2026-04-04T09:19:56.946Z</time></trkpt><trkpt lat="45.5543417" lon="8.1400267"><ele>271.0</ele><time>2026-04-04T09:19:57.946Z</time></trkpt><trkpt lat="45.554305" lon="8.1404483"><ele>270.0</ele><time>2026-04-04T09:19:58.946Z</time></trkpt><trkpt lat="45.5542667" lon="8.1408567"><ele>269.0</ele><time>2026-04-04T09:19:59.946Z</time></trkpt><trkpt lat="45.554235" lon="8.141265"><ele>268.0</ele><time>2026-04-04T09:20:00.946Z</time></trkpt><trkpt lat="45.5542017" lon="8.141665"><ele>268.0</ele><time>2026-04-04T09:20:01.946Z</time></trkpt><trkpt lat="45.5541683" lon="8.1420633"><ele>268.0</ele><time>2026-04-04T09:20:02.946Z</time></trkpt><trkpt lat="45.55413" lon="8.1424683"><ele>267.5</ele><time>2026-04-04T09:20:03.946Z</time></trkpt><trkpt lat="45.5541" lon="8.1428767"><ele>267.0</ele><time>2026-04-04T09:20:04.946Z</time></trkpt><trkpt lat="45.554075" lon="8.14329"><ele>268.0</ele><time>2026-04-04T09:20:05.946Z</time></trkpt><trkpt lat="45.554045" lon="8.1436917"><ele>269.0</ele><time>2026-04-04T09:20:06.946Z</time></trkpt><trkpt lat="45.55401" lon="8.1440983"><ele>269.0</ele><time>2026-04-04T09:20:07.946Z</time></trkpt><trkpt lat="45.553975" lon="8.1445033"><ele>269.0</ele><time>2026-04-04T09:20:08.946Z</time></trkpt><trkpt lat="45.5539333" lon="8.1449133"><ele>267.5</ele><time>2026-04-04T09:20:09.946Z</time></trkpt><trkpt lat="45.5538983" lon="8.145315"><ele>266.0</ele><time>2026-04-04T09:20:10.946Z</time></trkpt><trkpt lat="45.5538583" lon="8.14572"><ele>264.0</ele><time>2026-04-04T09:20:11.946Z</time></trkpt><trkpt lat="45.55383" lon="8.14612"><ele>262.0</ele><time>2026-04-04T09:20:12.946Z</time></trkpt><trkpt lat="45.5537917" lon="8.1465317"><ele>261.5</ele><time>2026-04-04T09:20:13.946Z</time></trkpt><trkpt lat="45.5537517" lon="8.1469383"><ele>261.0</ele><time>2026-04-04T09:20:14.946Z</time></trkpt><trkpt lat="45.5537183" lon="8.14734"><ele>261.0</ele><time>2026-04-04T09:20:15.946Z</time></trkpt><trkpt lat="45.5536833" lon="8.1477433"><ele>261.0</ele><time>2026-04-04T09:20:16.946Z</time></trkpt><trkpt lat="45.55365" lon="8.148155"><ele>260.5</ele><time>2026-04-04T09:20:17.945Z</time></trkpt><trkpt lat="45.553615" lon="8.1485567"><ele>260.0</ele><time>2026-04-04T09:20:18.946Z</time></trkpt><trkpt lat="45.5535917" lon="8.148965"><ele>258.5</ele><time>2026-04-04T09:20:19.946Z</time></trkpt><trkpt lat="45.553565" lon="8.1493817"><ele>257.0</ele><time>2026-04-04T09:20:20.946Z</time></trkpt><trkpt lat="45.5535433" lon="8.1497867"><ele>257.0</ele><time>2026-04-04T09:20:21.945Z</time></trkpt><trkpt lat="45.5535267" lon="8.15018"><ele>257.0</ele><time>2026-04-04T09:20:22.945Z</time></trkpt><trkpt lat="45.5535117" lon="8.15059"><ele>257.5</ele><time>2026-04-04T09:20:23.946Z</time></trkpt><trkpt lat="45.5535033" lon="8.1509917"><ele>258.0</ele><time>2026-04-04T09:20:24.946Z</time></trkpt><trkpt lat="45.5534917" lon="8.1513967"><ele>257.5</ele><time>2026-04-04T09:20:25.946Z</time></trkpt><trkpt lat="45.553485" lon="8.151795"><ele>257.0</ele><time>2026-04-04T09:20:26.946Z</time></trkpt><trkpt lat="45.5534717" lon="8.1521983"><ele>256.0</ele><time>2026-04-04T09:20:27.946Z</time></trkpt><trkpt lat="45.553465" lon="8.152595"><ele>255.0</ele><time>2026-04-04T09:20:28.946Z</time></trkpt><trkpt lat="45.553455" lon="8.152985"><ele>254.5</ele><time>2026-04-04T09:20:29.946Z</time></trkpt><trkpt lat="45.55345" lon="8.1533833"><ele>254.0</ele><time>2026-04-04T09:20:30.946Z</time></trkpt><trkpt lat="45.5534417" lon="8.15378"><ele>253.5</ele><time>2026-04-04T09:20:31.946Z</time></trkpt><trkpt lat="45.553435" lon="8.1541683"><ele>253.0</ele><time>2026-04-04T09:20:32.946Z</time></trkpt><trkpt lat="45.5534283" lon="8.1545583"><ele>252.5</ele><time>2026-04-04T09:20:33.946Z</time></trkpt><trkpt lat="45.5534183" lon="8.154945"><ele>252.0</ele><time>2026-04-04T09:20:34.946Z</time></trkpt><trkpt lat="45.5534083" lon="8.155335"><ele>252.5</ele><time>2026-04-04T09:20:35.945Z</time></trkpt><trkpt lat="45.553405" lon="8.1557217"><ele>253.0</ele><time>2026-04-04T09:20:36.946Z</time></trkpt><trkpt lat="45.5534" lon="8.1561083"><ele>253.0</ele><time>2026-04-04T09:20:37.946Z</time></trkpt><trkpt lat="45.5533933" lon="8.1565"><ele>253.0</ele><time>2026-04-04T09:20:38.946Z</time></trkpt><trkpt lat="45.5533883" lon="8.1568933"><ele>253.0</ele><time>2026-04-04T09:20:39.945Z</time></trkpt><trkpt lat="45.5533783" lon="8.15729"><ele>253.0</ele><time>2026-04-04T09:20:40.946Z</time></trkpt><trkpt lat="45.553375" lon="8.1576733"><ele>252.0</ele><time>2026-04-04T09:20:41.946Z</time></trkpt><trkpt lat="45.5533517" lon="8.1580617"><ele>251.0</ele><time>2026-04-04T09:20:42.946Z</time></trkpt><trkpt lat="45.5533517" lon="8.158455"><ele>251.0</ele><time>2026-04-04T09:20:43.946Z</time></trkpt><trkpt lat="45.55335" lon="8.1588483"><ele>251.0</ele><time>2026-04-04T09:20:44.946Z</time></trkpt><trkpt lat="45.55335" lon="8.1592517"><ele>250.0</ele><time>2026-04-04T09:20:45.946Z</time></trkpt><trkpt lat="45.553345" lon="8.1596517"><ele>249.0</ele><time>2026-04-04T09:20:46.946Z</time></trkpt><trkpt lat="45.5533417" lon="8.16004"><ele>248.0</ele><time>2026-04-04T09:20:47.946Z</time></trkpt><trkpt lat="45.5533333" lon="8.1604017"><ele>247.0</ele><time>2026-04-04T09:20:48.946Z</time></trkpt><trkpt lat="45.55332" lon="8.1607517"><ele>246.33333333333331</ele><time>2026-04-04T09:20:49.946Z</time></trkpt><trkpt lat="45.5533067" lon="8.1610783"><ele>245.66666666666669</ele><time>2026-04-04T09:20:50.945Z</time></trkpt><trkpt lat="45.5533017" lon="8.1613817"><ele>245.0</ele><time>2026-04-04T09:20:51.946Z</time></trkpt><trkpt lat="45.5532983" lon="8.1616717"><ele>245.0</ele><time>2026-04-04T09:20:52.946Z</time></trkpt><trkpt lat="45.5532883" lon="8.1619583"><ele>245.0</ele><time>2026-04-04T09:20:53.946Z</time></trkpt><trkpt lat="45.55327" lon="8.16225"><ele>245.0</ele><time>2026-04-04T09:20:54.946Z</time></trkpt><trkpt lat="45.5532567" lon="8.1625167"><ele>245.0</ele><time>2026-04-04T09:20:55.945Z</time></trkpt><trkpt lat="45.5532433" lon="8.1628"><ele>245.0</ele><time>2026-04-04T09:20:56.946Z</time></trkpt><trkpt lat="45.553235" lon="8.16308"><ele>245.0</ele><time>2026-04-04T09:20:57.946Z</time></trkpt><trkpt lat="45.5532317" lon="8.1633467"><ele>244.33333333333334</ele><time>2026-04-04T09:20:58.946Z</time></trkpt><trkpt lat="45.5532267" lon="8.1635983"><ele>243.66666666666669</ele><time>2026-04-04T09:20:59.946Z</time></trkpt><trkpt lat="45.553225" lon="8.163835"><ele>243.0</ele><time>2026-04-04T09:21:00.946Z</time></trkpt><trkpt lat="45.5532183" lon="8.1640833"><ele>243.0</ele><time>2026-04-04T09:21:01.946Z</time></trkpt><trkpt lat="45.5532133" lon="8.164325"><ele>243.0</ele><time>2026-04-04T09:21:02.946Z</time></trkpt><trkpt lat="45.5532083" lon="8.16457"><ele>243.0</ele><time>2026-04-04T09:21:03.946Z</time></trkpt><trkpt lat="45.5532033" lon="8.1648317"><ele>243.0</ele><time>2026-04-04T09:21:04.946Z</time></trkpt><trkpt lat="45.5531967" lon="8.1650833"><ele>243.0</ele><time>2026-04-04T09:21:05.946Z</time></trkpt><trkpt lat="45.55319" lon="8.1653233"><ele>243.0</ele><time>2026-04-04T09:21:06.946Z</time></trkpt><trkpt lat="45.5531783" lon="8.16555"><ele>243.0</ele><time>2026-04-04T09:21:07.946Z</time></trkpt><trkpt lat="45.55317" lon="8.165795"><ele>243.0</ele><time>2026-04-04T09:21:08.946Z</time></trkpt><trkpt lat="45.5531633" lon="8.1660183"><ele>243.0</ele><time>2026-04-04T09:21:09.946Z</time></trkpt><trkpt lat="45.5531667" lon="8.1662233"><ele>243.0</ele><time>2026-04-04T09:21:10.946Z</time></trkpt><trkpt lat="45.5531633" lon="8.1664183"><ele>243.0</ele><time>2026-04-04T09:21:11.946Z</time></trkpt><trkpt lat="45.553155" lon="8.16659"><ele>243.0</ele><time>2026-04-04T09:21:12.946Z</time></trkpt><trkpt lat="45.5531333" lon="8.1667533"><ele>243.0</ele><time>2026-04-04T09:21:13.945Z</time></trkpt><trkpt lat="45.5530933" lon="8.1669083"><ele>243.0</ele><time>2026-04-04T09:21:14.946Z</time></trkpt><trkpt lat="45.553025" lon="8.1670683"><ele>243.0</ele><time>2026-04-04T09:21:15.946Z</time></trkpt><trkpt lat="45.5529267" lon="8.1672117"><ele>243.0</ele><time>2026-04-04T09:21:16.946Z</time></trkpt><trkpt lat="45.5528117" lon="8.1673433"><ele>243.0</ele><time>2026-04-04T09:21:17.946Z</time></trkpt><trkpt lat="45.55268" lon="8.167485"><ele>243.0</ele><time>2026-04-04T09:21:18.946Z</time></trkpt><trkpt lat="45.552545" lon="8.1676317"><ele>243.0</ele><time>2026-04-04T09:21:19.946Z</time></trkpt><trkpt lat="45.5524133" lon="8.1677867"><ele>243.0</ele><time>2026-04-04T09:21:20.946Z</time></trkpt><trkpt lat="45.5522833" lon="8.1679283"><ele>243.0</ele><time>2026-04-04T09:21:21.946Z</time></trkpt><trkpt lat="45.5521617" lon="8.1680483"><ele>243.0</ele><time>2026-04-04T09:21:22.946Z</time></trkpt><trkpt lat="45.5520517" lon="8.1681567"><ele>243.0</ele><time>2026-04-04T09:21:23.946Z</time></trkpt><trkpt lat="45.55192" lon="8.16826"><ele>243.0</ele><time>2026-04-04T09:21:24.946Z</time></trkpt><trkpt lat="45.5517667" lon="8.1683367"><ele>242.33333333333331</ele><time>2026-04-04T09:21:25.946Z</time></trkpt><trkpt lat="45.5516" lon="8.1683833"><ele>241.66666666666666</ele><time>2026-04-04T09:21:26.946Z</time></trkpt><trkpt lat="45.5514233" lon="8.1684217"><ele>241.0</ele><time>2026-04-04T09:21:27.946Z</time></trkpt><trkpt lat="45.5512283" lon="8.1684817"><ele>240.66666666666666</ele><time>2026-04-04T09:21:28.946Z</time></trkpt><trkpt lat="45.5510283" lon="8.168545"><ele>240.33333333333331</ele><time>2026-04-04T09:21:29.946Z</time></trkpt><trkpt lat="45.5508183" lon="8.1686183"><ele>240.0</ele><time>2026-04-04T09:21:30.946Z</time></trkpt><trkpt lat="45.5506017" lon="8.168715"><ele>240.0</ele><time>2026-04-04T09:21:31.945Z</time></trkpt><trkpt lat="45.5503783" lon="8.1688333"><ele>240.0</ele><time>2026-04-04T09:21:32.946Z</time></trkpt><trkpt lat="45.5501617" lon="8.1689717"><ele>239.5</ele><time>2026-04-04T09:21:33.946Z</time></trkpt><trkpt lat="45.5499433" lon="8.1691233"><ele>239.0</ele><time>2026-04-04T09:21:34.946Z</time></trkpt><trkpt lat="45.5497467" lon="8.16928"><ele>239.0</ele><time>2026-04-04T09:21:35.946Z</time></trkpt><trkpt lat="45.54956" lon="8.1694367"><ele>239.0</ele><time>2026-04-04T09:21:36.946Z</time></trkpt><trkpt lat="45.5493883" lon="8.1696083"><ele>239.0</ele><time>2026-04-04T09:21:37.946Z</time></trkpt><trkpt lat="45.5492183" lon="8.1697933"><ele>239.33333333333334</ele><time>2026-04-04T09:21:38.946Z</time></trkpt><trkpt lat="45.5490517" lon="8.16999"><ele>239.66666666666669</ele><time>2026-04-04T09:21:39.946Z</time></trkpt><trkpt lat="45.5488983" lon="8.1701967"><ele>240.0</ele><time>2026-04-04T09:21:40.946Z</time></trkpt><trkpt lat="45.5487483" lon="8.1704233"><ele>239.5</ele><time>2026-04-04T09:21:41.946Z</time></trkpt><trkpt lat="45.5486017" lon="8.170655"><ele>239.0</ele><time>2026-04-04T09:21:42.946Z</time></trkpt><trkpt lat="45.548455" lon="8.170915"><ele>239.0</ele><time>2026-04-04T09:21:43.946Z</time></trkpt><trkpt lat="45.5483" lon="8.1712083"><ele>239.0</ele><time>2026-04-04T09:21:44.946Z</time></trkpt><trkpt lat="45.5481417" lon="8.17151"><ele>239.0</ele><time>2026-04-04T09:21:45.946Z</time></trkpt><trkpt lat="45.5479667" lon="8.1718133"><ele>239.0</ele><time>2026-04-04T09:21:46.946Z</time></trkpt><trkpt lat="45.5477917" lon="8.1721217"><ele>238.0</ele><time>2026-04-04T09:21:47.946Z</time></trkpt><trkpt lat="45.5476217" lon="8.1724283"><ele>237.0</ele><time>2026-04-04T09:21:48.946Z</time></trkpt><trkpt lat="45.5474467" lon="8.172745"><ele>237.0</ele><time>2026-04-04T09:21:49.945Z</time></trkpt><trkpt lat="45.547275" lon="8.1730733"><ele>237.0</ele><time>2026-04-04T09:21:50.946Z</time></trkpt><trkpt lat="45.5470917" lon="8.173405"><ele>236.0</ele><time>2026-04-04T09:21:51.946Z</time></trkpt><trkpt lat="45.5469117" lon="8.17373"><ele>235.0</ele><time>2026-04-04T09:21:52.946Z</time></trkpt><trkpt lat="45.546725" lon="8.1740683"><ele>234.5</ele><time>2026-04-04T09:21:53.946Z</time></trkpt><trkpt lat="45.5465383" lon="8.174415"><ele>234.0</ele><time>2026-04-04T09:21:54.946Z</time></trkpt><trkpt lat="45.5463533" lon="8.1747533"><ele>233.5</ele><time>2026-04-04T09:21:55.945Z</time></trkpt><trkpt lat="45.54616" lon="8.1750983"><ele>233.0</ele><time>2026-04-04T09:21:56.946Z</time></trkpt><trkpt lat="45.5459633" lon="8.1754583"><ele>232.5</ele><time>2026-04-04T09:21:57.946Z</time></trkpt><trkpt lat="45.5457733" lon="8.175805"><ele>232.0</ele><time>2026-04-04T09:21:58.946Z</time></trkpt><trkpt lat="45.5455883" lon="8.1761467"><ele>232.0</ele><time>2026-04-04T09:21:59.946Z</time></trkpt><trkpt lat="45.5453867" lon="8.1765067"><ele>232.0</ele><time>2026-04-04T09:22:00.946Z</time></trkpt><trkpt lat="45.5451917" lon="8.1768733"><ele>232.5</ele><time>2026-04-04T09:22:01.945Z</time></trkpt><trkpt lat="45.5449967" lon="8.1772417"><ele>233.0</ele><time>2026-04-04T09:22:02.945Z</time></trkpt><trkpt lat="45.5448083" lon="8.17759"><ele>231.5</ele><time>2026-04-04T09:22:03.946Z</time></trkpt><trkpt lat="45.544625" lon="8.1779133"><ele>230.0</ele><time>2026-04-04T09:22:04.946Z</time></trkpt><trkpt lat="45.54446" lon="8.1782233"><ele>230.0</ele><time>2026-04-04T09:22:05.946Z</time></trkpt><trkpt lat="45.5442967" lon="8.1785233"><ele>230.0</ele><time>2026-04-04T09:22:06.946Z</time></trkpt><trkpt lat="45.5441417" lon="8.1788033"><ele>231.0</ele><time>2026-04-04T09:22:07.945Z</time></trkpt><trkpt lat="45.5440017" lon="8.1790683"><ele>232.0</ele><time>2026-04-04T09:22:08.946Z</time></trkpt><trkpt lat="45.5438583" lon="8.1793233"><ele>230.5</ele><time>2026-04-04T09:22:09.946Z</time></trkpt><trkpt lat="45.5437133" lon="8.1795883"><ele>229.0</ele><time>2026-04-04T09:22:10.946Z</time></trkpt><trkpt lat="45.5435817" lon="8.1798483"><ele>229.0</ele><time>2026-04-04T09:22:11.946Z</time></trkpt><trkpt lat="45.5434367" lon="8.1801133"><ele>229.0</ele><time>2026-04-04T09:22:12.945Z</time></trkpt><trkpt lat="45.543295" lon="8.1803833"><ele>229.0</ele><time>2026-04-04T09:22:13.945Z</time></trkpt><trkpt lat="45.5431517" lon="8.1806383"><ele>229.0</ele><time>2026-04-04T09:22:14.946Z</time></trkpt><trkpt lat="45.5430117" lon="8.18089"><ele>229.0</ele><time>2026-04-04T09:22:15.946Z</time></trkpt><trkpt lat="45.54288" lon="8.1811283"><ele>229.0</ele><time>2026-04-04T09:22:16.945Z</time></trkpt><trkpt lat="45.542755" lon="8.18137"><ele>229.0</ele><time>2026-04-04T09:22:17.946Z</time></trkpt><trkpt lat="45.5426367" lon="8.1815867"><ele>228.33333333333331</ele><time>2026-04-04T09:22:18.946Z</time></trkpt><trkpt lat="45.5425017" lon="8.1817783"><ele>227.66666666666669</ele><time>2026-04-04T09:22:19.946Z</time></trkpt><trkpt lat="45.542365" lon="8.1819467"><ele>227.0</ele><time>2026-04-04T09:22:20.946Z</time></trkpt><trkpt lat="45.542225" lon="8.182105"><ele>227.0</ele><time>2026-04-04T09:22:21.946Z</time></trkpt><trkpt lat="45.5420683" lon="8.1822433"><ele>227.0</ele><time>2026-04-04T09:22:22.946Z</time></trkpt><trkpt lat="45.5419067" lon="8.18234"><ele>227.0</ele><time>2026-04-04T09:22:23.946Z</time></trkpt><trkpt lat="45.54173" lon="8.1824017"><ele>226.0</ele><time>2026-04-04T09:22:24.946Z</time></trkpt><trkpt lat="45.54154" lon="8.1824483"><ele>225.0</ele><time>2026-04-04T09:22:25.946Z</time></trkpt><trkpt lat="45.541345" lon="8.1824983"><ele>224.0</ele><time>2026-04-04T09:22:26.946Z</time></trkpt><trkpt lat="45.5411367" lon="8.182555"><ele>223.66666666666669</ele><time>2026-04-04T09:22:27.946Z</time></trkpt><trkpt lat="45.5409183" lon="8.1826167"><ele>223.33333333333331</ele><time>2026-04-04T09:22:28.946Z</time></trkpt><trkpt lat="45.5407017" lon="8.182685"><ele>223.0</ele><time>2026-04-04T09:22:29.946Z</time></trkpt><trkpt lat="45.5404817" lon="8.1827567"><ele>224.5</ele><time>2026-04-04T09:22:30.946Z</time></trkpt><trkpt lat="45.540255" lon="8.1828383"><ele>226.0</ele><time>2026-04-04T09:22:31.946Z</time></trkpt><trkpt lat="45.5400183" lon="8.1829433"><ele>226.0</ele><time>2026-04-04T09:22:32.946Z</time></trkpt><trkpt lat="45.539785" lon="8.1830483"><ele>226.0</ele><time>2026-04-04T09:22:33.946Z</time></trkpt><trkpt lat="45.5395433" lon="8.1831733"><ele>225.5</ele><time>2026-04-04T09:22:34.946Z</time></trkpt><trkpt lat="45.5393017" lon="8.1833083"><ele>225.0</ele><time>2026-04-04T09:22:35.946Z</time></trkpt><trkpt lat="45.5390667" lon="8.1834567"><ele>225.0</ele><time>2026-04-04T09:22:36.945Z</time></trkpt><trkpt lat="45.5388383" lon="8.1836217"><ele>225.0</ele><time>2026-04-04T09:22:37.946Z</time></trkpt><trkpt lat="45.5386067" lon="8.1838017"><ele>224.0</ele><time>2026-04-04T09:22:38.946Z</time></trkpt><trkpt lat="45.5383717" lon="8.1839933"><ele>223.0</ele><time>2026-04-04T09:22:39.946Z</time></trkpt><trkpt lat="45.53813" lon="8.1841733"><ele>223.0</ele><time>2026-04-04T09:22:40.946Z</time></trkpt><trkpt lat="45.5378933" lon="8.1843533"><ele>223.0</ele><time>2026-04-04T09:22:41.946Z</time></trkpt><trkpt lat="45.537655" lon="8.1845383"><ele>223.0</ele><time>2026-04-04T09:22:42.945Z</time></trkpt><trkpt lat="45.5374067" lon="8.1847267"><ele>223.0</ele><time>2026-04-04T09:22:43.945Z</time></trkpt><trkpt lat="45.5371667" lon="8.184915"><ele>222.0</ele><time>2026-04-04T09:22:44.946Z</time></trkpt><trkpt lat="45.5369333" lon="8.1850967"><ele>221.0</ele><time>2026-04-04T09:22:45.946Z</time></trkpt><trkpt lat="45.5367" lon="8.1852833"><ele>221.0</ele><time>2026-04-04T09:22:46.945Z</time></trkpt><trkpt lat="45.53646" lon="8.185465"><ele>221.0</ele><time>2026-04-04T09:22:47.946Z</time></trkpt><trkpt lat="45.536235" lon="8.1856483"><ele>221.5</ele><time>2026-04-04T09:22:48.946Z</time></trkpt><trkpt lat="45.5359933" lon="8.1858383"><ele>222.0</ele><time>2026-04-04T09:22:49.946Z</time></trkpt><trkpt lat="45.53576" lon="8.1860267"><ele>222.0</ele><time>2026-04-04T09:22:50.946Z</time></trkpt><trkpt lat="45.5355283" lon="8.1862133"><ele>222.0</ele><time>2026-04-04T09:22:51.946Z</time></trkpt><trkpt lat="45.5352983" lon="8.1863933"><ele>222.0</ele><time>2026-04-04T09:22:52.946Z</time></trkpt><trkpt lat="45.5350867" lon="8.1865583"><ele>222.0</ele><time>2026-04-04T09:22:53.946Z</time></trkpt><trkpt lat="45.5348933" lon="8.1867133"><ele>222.0</ele><time>2026-04-04T09:22:54.946Z</time></trkpt><trkpt lat="45.5347017" lon="8.1868583"><ele>222.0</ele><time>2026-04-04T09:22:55.946Z</time></trkpt><trkpt lat="45.5345183" lon="8.1870067"><ele>222.0</ele><time>2026-04-04T09:22:56.946Z</time></trkpt><trkpt lat="45.5343283" lon="8.1871517"><ele>222.66666666666669</ele><time>2026-04-04T09:22:57.946Z</time></trkpt><trkpt lat="45.5341367" lon="8.1873"><ele>223.33333333333334</ele><time>2026-04-04T09:22:58.946Z</time></trkpt><trkpt lat="45.533945" lon="8.1874467"><ele>224.0</ele><time>2026-04-04T09:22:59.945Z</time></trkpt><trkpt lat="45.5337483" lon="8.187605"><ele>221.0</ele><time>2026-04-04T09:23:00.946Z</time></trkpt><trkpt lat="45.5335467" lon="8.1877717"><ele>218.0</ele><time>2026-04-04T09:23:01.946Z</time></trkpt><trkpt lat="45.533345" lon="8.1879333"><ele>218.0</ele><time>2026-04-04T09:23:02.946Z</time></trkpt><trkpt lat="45.533135" lon="8.1880883"><ele>218.0</ele><time>2026-04-04T09:23:03.946Z</time></trkpt><trkpt lat="45.5329317" lon="8.1882417"><ele>220.5</ele><time>2026-04-04T09:23:04.946Z</time></trkpt><trkpt lat="45.532725" lon="8.1884033"><ele>223.0</ele><time>2026-04-04T09:23:05.946Z</time></trkpt><trkpt lat="45.5325183" lon="8.18857"><ele>223.0</ele><time>2026-04-04T09:23:06.946Z</time></trkpt><trkpt lat="45.5323067" lon="8.18874"><ele>223.0</ele><time>2026-04-04T09:23:07.946Z</time></trkpt><trkpt lat="45.5320917" lon="8.1889183"><ele>224.5</ele><time>2026-04-04T09:23:08.946Z</time></trkpt><trkpt lat="45.531875" lon="8.1890883"><ele>226.0</ele><time>2026-04-04T09:23:09.945Z</time></trkpt><trkpt lat="45.531655" lon="8.18927"><ele>226.0</ele><time>2026-04-04T09:23:10.946Z</time></trkpt><trkpt lat="45.531435" lon="8.1894533"><ele>226.0</ele><time>2026-04-04T09:23:11.945Z</time></trkpt><trkpt lat="45.5312167" lon="8.1895983"><ele>222.5</ele><time>2026-04-04T09:23:12.946Z</time></trkpt><trkpt lat="45.5310083" lon="8.1897617"><ele>219.0</ele><time>2026-04-04T09:23:13.946Z</time></trkpt><trkpt lat="45.5307967" lon="8.189925"><ele>219.0</ele><time>2026-04-04T09:23:14.946Z</time></trkpt><trkpt lat="45.5305933" lon="8.190095"><ele>219.0</ele><time>2026-04-04T09:23:15.946Z</time></trkpt><trkpt lat="45.5303983" lon="8.1902517"><ele>224.5</ele><time>2026-04-04T09:23:16.946Z</time></trkpt><trkpt lat="45.5302033" lon="8.19041"><ele>230.0</ele><time>2026-04-04T09:23:17.946Z</time></trkpt><trkpt lat="45.5299917" lon="8.190575"><ele>225.66666666666669</ele><time>2026-04-04T09:23:18.946Z</time></trkpt><trkpt lat="45.5297983" lon="8.19072"><ele>221.33333333333331</ele><time>2026-04-04T09:23:19.946Z</time></trkpt><trkpt lat="45.5296183" lon="8.1908667"><ele>217.0</ele><time>2026-04-04T09:23:20.945Z</time></trkpt><trkpt lat="45.529445" lon="8.1910083"><ele>217.0</ele><time>2026-04-04T09:23:21.945Z</time></trkpt><trkpt lat="45.529285" lon="8.19114"><ele>217.0</ele><time>2026-04-04T09:23:22.945Z</time></trkpt><trkpt lat="45.5291267" lon="8.1912683"><ele>217.0</ele><time>2026-04-04T09:23:23.945Z</time></trkpt><trkpt lat="45.5289733" lon="8.191395"><ele>216.66666666666666</ele><time>2026-04-04T09:23:24.945Z</time></trkpt><trkpt lat="45.5288117" lon="8.19152"><ele>216.33333333333331</ele><time>2026-04-04T09:23:25.945Z</time></trkpt><trkpt lat="45.52867" lon="8.19163"><ele>216.0</ele><time>2026-04-04T09:23:26.945Z</time></trkpt><trkpt lat="45.5285067" lon="8.1917567"><ele>216.0</ele><time>2026-04-04T09:23:27.945Z</time></trkpt><trkpt lat="45.5283617" lon="8.191875"><ele>216.0</ele><time>2026-04-04T09:23:28.945Z</time></trkpt><trkpt lat="45.5282083" lon="8.191995"><ele>216.0</ele><time>2026-04-04T09:23:29.945Z</time></trkpt><trkpt lat="45.5280467" lon="8.19211"><ele>216.0</ele><time>2026-04-04T09:23:30.945Z</time></trkpt><trkpt lat="45.5279" lon="8.1922217"><ele>216.0</ele><time>2026-04-04T09:23:31.945Z</time></trkpt><trkpt lat="45.5277583" lon="8.1923317"><ele>216.0</ele><time>2026-04-04T09:23:32.945Z</time></trkpt><trkpt lat="45.5276233" lon="8.1924367"><ele>215.5</ele><time>2026-04-04T09:23:33.945Z</time></trkpt><trkpt lat="45.527495" lon="8.1925417"><ele>215.0</ele><time>2026-04-04T09:23:34.945Z</time></trkpt><trkpt lat="45.5273767" lon="8.1926383"><ele>214.5</ele><time>2026-04-04T09:23:35.945Z</time></trkpt><trkpt lat="45.52726" lon="8.1927367"><ele>214.0</ele><time>2026-04-04T09:23:36.945Z</time></trkpt><trkpt lat="45.5271567" lon="8.1928167"><ele>214.2</ele><time>2026-04-04T09:23:37.944Z</time></trkpt><trkpt lat="45.52706" lon="8.192905"><ele>214.39999999999998</ele><time>2026-04-04T09:23:38.945Z</time></trkpt><trkpt lat="45.5269767" lon="8.1929667"><ele>214.6</ele><time>2026-04-04T09:23:39.945Z</time></trkpt><trkpt lat="45.5269" lon="8.193005"><ele>214.8</ele><time>2026-04-04T09:23:40.945Z</time></trkpt><trkpt lat="45.52682" lon="8.19304"><ele>215.0</ele><time>2026-04-04T09:23:41.945Z</time></trkpt><trkpt lat="45.5267367" lon="8.1930667"><ele>215.00000000000003</ele><time>2026-04-04T09:23:42.945Z</time></trkpt><trkpt lat="45.5266567" lon="8.1930833"><ele>215.0</ele><time>2026-04-04T09:23:43.945Z</time></trkpt><trkpt lat="45.52657" lon="8.1930833"><ele>215.0</ele><time>2026-04-04T09:23:44.945Z</time></trkpt><trkpt lat="45.526485" lon="8.1930567"><ele>215.0</ele><time>2026-04-04T09:23:45.945Z</time></trkpt><trkpt lat="45.5263983" lon="8.1930183"><ele>215.00000000000003</ele><time>2026-04-04T09:23:46.945Z</time></trkpt><trkpt lat="45.5263017" lon="8.1929933"><ele>215.0</ele><time>2026-04-04T09:23:47.945Z</time></trkpt><trkpt lat="45.5262033" lon="8.1930017"><ele>214.8</ele><time>2026-04-04T09:23:48.945Z</time></trkpt><trkpt lat="45.52611" lon="8.1930517"><ele>214.6</ele><time>2026-04-04T09:23:49.944Z</time></trkpt><trkpt lat="45.5260433" lon="8.193135"><ele>214.39999999999998</ele><time>2026-04-04T09:23:50.945Z</time></trkpt><trkpt lat="45.526" lon="8.1932417"><ele>214.2</ele><time>2026-04-04T09:23:51.945Z</time></trkpt><trkpt lat="45.5259617" lon="8.1933767"><ele>214.0</ele><time>2026-04-04T09:23:52.945Z</time></trkpt><trkpt lat="45.5259567" lon="8.193515"><ele>214.0</ele><time>2026-04-04T09:23:53.945Z</time></trkpt><trkpt lat="45.5259783" lon="8.1936717"><ele>214.0</ele><time>2026-04-04T09:23:54.945Z</time></trkpt><trkpt lat="45.5260383" lon="8.1938217"><ele>214.0</ele><time>2026-04-04T09:23:55.944Z</time></trkpt><trkpt lat="45.5261133" lon="8.1939617"><ele>214.0</ele><time>2026-04-04T09:23:56.945Z</time></trkpt><trkpt lat="45.5261667" lon="8.1941233"><ele>213.75</ele><time>2026-04-04T09:23:57.945Z</time></trkpt><trkpt lat="45.52621" lon="8.1942883"><ele>213.5</ele><time>2026-04-04T09:23:58.944Z</time></trkpt><trkpt lat="45.5262217" lon="8.1944783"><ele>213.25</ele><time>2026-04-04T09:23:59.944Z</time></trkpt><trkpt lat="45.5262217" lon="8.194675"><ele>213.0</ele><time>2026-04-04T09:24:00.945Z</time></trkpt><trkpt lat="45.5262083" lon="8.1949067"><ele>212.66666666666669</ele><time>2026-04-04T09:24:01.945Z</time></trkpt><trkpt lat="45.526195" lon="8.1951483"><ele>212.33333333333334</ele><time>2026-04-04T09:24:02.945Z</time></trkpt><trkpt lat="45.5261833" lon="8.195395"><ele>212.0</ele><time>2026-04-04T09:24:03.945Z</time></trkpt><trkpt lat="45.5261633" lon="8.19565"><ele>211.66666666666669</ele><time>2026-04-04T09:24:04.944Z</time></trkpt><trkpt lat="45.526135" lon="8.1959133"><ele>211.33333333333331</ele><time>2026-04-04T09:24:05.945Z</time></trkpt><trkpt lat="45.52609" lon="8.1961683"><ele>211.0</ele><time>2026-04-04T09:24:06.944Z</time></trkpt><trkpt lat="45.5260433" lon="8.1964167"><ele>210.33333333333331</ele><time>2026-04-04T09:24:07.945Z</time></trkpt><trkpt lat="45.5259867" lon="8.1966667"><ele>209.66666666666669</ele><time>2026-04-04T09:24:08.945Z</time></trkpt><trkpt lat="45.5259267" lon="8.1969033"><ele>209.0</ele><time>2026-04-04T09:24:09.945Z</time></trkpt><trkpt lat="45.5258517" lon="8.19714"><ele>209.0</ele><time>2026-04-04T09:24:10.945Z</time></trkpt><trkpt lat="45.5257667" lon="8.1973733"><ele>209.0</ele><time>2026-04-04T09:24:11.945Z</time></trkpt><trkpt lat="45.5256667" lon="8.197615"><ele>209.0</ele><time>2026-04-04T09:24:12.945Z</time></trkpt><trkpt lat="45.5255533" lon="8.1978617"><ele>209.0</ele><time>2026-04-04T09:24:13.945Z</time></trkpt><trkpt lat="45.5254383" lon="8.1981017"><ele>209.0</ele><time>2026-04-04T09:24:14.945Z</time></trkpt><trkpt lat="45.525315" lon="8.1983433"><ele>209.0</ele><time>2026-04-04T09:24:15.945Z</time></trkpt><trkpt lat="45.52518" lon="8.198585"><ele>208.66666666666669</ele><time>2026-04-04T09:24:16.945Z</time></trkpt><trkpt lat="45.52504" lon="8.19882"><ele>208.33333333333331</ele><time>2026-04-04T09:24:17.945Z</time></trkpt><trkpt lat="45.5249083" lon="8.1990483"><ele>208.0</ele><time>2026-04-04T09:24:18.945Z</time></trkpt><trkpt lat="45.52478" lon="8.1992783"><ele>208.0</ele><time>2026-04-04T09:24:19.945Z</time></trkpt><trkpt lat="45.5246433" lon="8.1995183"><ele>208.0</ele><time>2026-04-04T09:24:20.945Z</time></trkpt><trkpt lat="45.5245067" lon="8.1997583"><ele>208.0</ele><time>2026-04-04T09:24:21.945Z</time></trkpt><trkpt lat="45.5243667" lon="8.199995"><ele>207.33333333333331</ele><time>2026-04-04T09:24:22.945Z</time></trkpt><trkpt lat="45.52424" lon="8.2002217"><ele>206.66666666666669</ele><time>2026-04-04T09:24:23.945Z</time></trkpt><trkpt lat="45.5241083" lon="8.2004583"><ele>206.0</ele><time>2026-04-04T09:24:24.945Z</time></trkpt><trkpt lat="45.5239733" lon="8.2006983"><ele>206.0</ele><time>2026-04-04T09:24:25.945Z</time></trkpt><trkpt lat="45.5238317" lon="8.200935"><ele>206.0</ele><time>2026-04-04T09:24:26.944Z</time></trkpt><trkpt lat="45.5236783" lon="8.2011817"><ele>206.0</ele><time>2026-04-04T09:24:27.945Z</time></trkpt><trkpt lat="45.5235283" lon="8.2014183"><ele>206.0</ele><time>2026-04-04T09:24:28.945Z</time></trkpt><trkpt lat="45.5233633" lon="8.2016533"><ele>206.0</ele><time>2026-04-04T09:24:29.945Z</time></trkpt><trkpt lat="45.5231967" lon="8.2018833"><ele>206.0</ele><time>2026-04-04T09:24:30.945Z</time></trkpt><trkpt lat="45.523025" lon="8.2021017"><ele>206.0</ele><time>2026-04-04T09:24:31.945Z</time></trkpt><trkpt lat="45.5228467" lon="8.2023017"><ele>205.0</ele><time>2026-04-04T09:24:32.945Z</time></trkpt><trkpt lat="45.5226633" lon="8.202505"><ele>204.0</ele><time>2026-04-04T09:24:33.944Z</time></trkpt><trkpt lat="45.5224767" lon="8.20272"><ele>204.0</ele><time>2026-04-04T09:24:34.945Z</time></trkpt><trkpt lat="45.5222883" lon="8.2029333"><ele>204.0</ele><time>2026-04-04T09:24:35.945Z</time></trkpt><trkpt lat="45.5220917" lon="8.2031517"><ele>204.5</ele><time>2026-04-04T09:24:36.945Z</time></trkpt><trkpt lat="45.5219" lon="8.20337"><ele>205.0</ele><time>2026-04-04T09:24:37.945Z</time></trkpt><trkpt lat="45.521705" lon="8.203595"><ele>205.0</ele><time>2026-04-04T09:24:38.945Z</time></trkpt><trkpt lat="45.5215033" lon="8.20383"><ele>205.0</ele><time>2026-04-04T09:24:39.945Z</time></trkpt><trkpt lat="45.5213083" lon="8.2040583"><ele>204.0</ele><time>2026-04-04T09:24:40.945Z</time></trkpt><trkpt lat="45.5211033" lon="8.204295"><ele>203.0</ele><time>2026-04-04T09:24:41.945Z</time></trkpt><trkpt lat="45.520895" lon="8.2045367"><ele>203.0</ele><time>2026-04-04T09:24:42.945Z</time></trkpt><trkpt lat="45.5206867" lon="8.2047717"><ele>203.0</ele><time>2026-04-04T09:24:43.944Z</time></trkpt><trkpt lat="45.5204867" lon="8.2049983"><ele>202.5</ele><time>2026-04-04T09:24:44.944Z</time></trkpt><trkpt lat="45.5202833" lon="8.2052283"><ele>202.0</ele><time>2026-04-04T09:24:45.945Z</time></trkpt><trkpt lat="45.5200817" lon="8.2054583"><ele>202.0</ele><time>2026-04-04T09:24:46.945Z</time></trkpt><trkpt lat="45.519875" lon="8.2056883"><ele>202.0</ele><time>2026-04-04T09:24:47.945Z</time></trkpt><trkpt lat="45.51966" lon="8.2059217"><ele>202.5</ele><time>2026-04-04T09:24:48.945Z</time></trkpt><trkpt lat="45.5194467" lon="8.2061483"><ele>203.0</ele><time>2026-04-04T09:24:49.944Z</time></trkpt><trkpt lat="45.5192333" lon="8.2063683"><ele>203.5</ele><time>2026-04-04T09:24:50.945Z</time></trkpt><trkpt lat="45.51901" lon="8.2066067"><ele>204.0</ele><time>2026-04-04T09:24:51.945Z</time></trkpt><trkpt lat="45.5187933" lon="8.20684"><ele>203.5</ele><time>2026-04-04T09:24:52.945Z</time></trkpt><trkpt lat="45.5185867" lon="8.2070617"><ele>203.0</ele><time>2026-04-04T09:24:53.945Z</time></trkpt><trkpt lat="45.518375" lon="8.2072867"><ele>202.0</ele><time>2026-04-04T09:24:54.945Z</time></trkpt><trkpt lat="45.51817" lon="8.2075133"><ele>201.0</ele><time>2026-04-04T09:24:55.945Z</time></trkpt><trkpt lat="45.5179633" lon="8.2077467"><ele>201.0</ele><time>2026-04-04T09:24:56.945Z</time></trkpt><trkpt lat="45.517755" lon="8.2079817"><ele>201.0</ele><time>2026-04-04T09:24:57.945Z</time></trkpt><trkpt lat="45.5175467" lon="8.2082183"><ele>200.5</ele><time>2026-04-04T09:24:58.945Z</time></trkpt><trkpt lat="45.517335" lon="8.2084533"><ele>200.0</ele><time>2026-04-04T09:24:59.945Z</time></trkpt><trkpt lat="45.5171317" lon="8.20868"><ele>200.0</ele><time>2026-04-04T09:25:00.945Z</time></trkpt><trkpt lat="45.5169217" lon="8.2089167"><ele>200.0</ele><time>2026-04-04T09:25:01.945Z</time></trkpt><trkpt lat="45.5167233" lon="8.2091333"><ele>200.0</ele><time>2026-04-04T09:25:02.945Z</time></trkpt><trkpt lat="45.5165217" lon="8.2093583"><ele>200.0</ele><time>2026-04-04T09:25:03.945Z</time></trkpt><trkpt lat="45.5163183" lon="8.2095867"><ele>199.0</ele><time>2026-04-04T09:25:04.944Z</time></trkpt><trkpt lat="45.5161117" lon="8.209815"><ele>198.0</ele><time>2026-04-04T09:25:05.945Z</time></trkpt><trkpt lat="45.5159083" lon="8.2100417"><ele>198.0</ele><time>2026-04-04T09:25:06.945Z</time></trkpt><trkpt lat="45.5157033" lon="8.21026"><ele>198.0</ele><time>2026-04-04T09:25:07.945Z</time></trkpt><trkpt lat="45.51549" lon="8.2104917"><ele>197.0</ele><time>2026-04-04T09:25:08.945Z</time></trkpt><trkpt lat="45.5152867" lon="8.21069"><ele>196.0</ele><time>2026-04-04T09:25:09.945Z</time></trkpt><trkpt lat="45.5150783" lon="8.2108667"><ele>196.0</ele><time>2026-04-04T09:25:10.945Z</time></trkpt><trkpt lat="45.5148633" lon="8.2110317"><ele>196.0</ele><time>2026-04-04T09:25:11.944Z</time></trkpt><trkpt lat="45.5146383" lon="8.211185"><ele>196.5</ele><time>2026-04-04T09:25:12.945Z</time></trkpt><trkpt lat="45.514415" lon="8.2113117"><ele>197.0</ele><time>2026-04-04T09:25:13.945Z</time></trkpt><trkpt lat="45.51418" lon="8.2114217"><ele>197.5</ele><time>2026-04-04T09:25:14.945Z</time></trkpt><trkpt lat="45.5139383" lon="8.2115267"><ele>198.0</ele><time>2026-04-04T09:25:15.945Z</time></trkpt><trkpt lat="45.5136983" lon="8.2116083"><ele>198.5</ele><time>2026-04-04T09:25:16.945Z</time></trkpt><trkpt lat="45.5134567" lon="8.2116717"><ele>199.0</ele><time>2026-04-04T09:25:17.945Z</time></trkpt><trkpt lat="45.5132183" lon="8.21173"><ele>199.0</ele><time>2026-04-04T09:25:18.945Z</time></trkpt><trkpt lat="45.51297" lon="8.2117667"><ele>199.0</ele><time>2026-04-04T09:25:19.945Z</time></trkpt><trkpt lat="45.5127167" lon="8.2117767"><ele>198.0</ele><time>2026-04-04T09:25:20.945Z</time></trkpt><trkpt lat="45.5124683" lon="8.211775"><ele>197.0</ele><time>2026-04-04T09:25:21.945Z</time></trkpt><trkpt lat="45.5122117" lon="8.2117533"><ele>197.5</ele><time>2026-04-04T09:25:22.945Z</time></trkpt><trkpt lat="45.5119617" lon="8.2117433"><ele>198.0</ele><time>2026-04-04T09:25:23.945Z</time></trkpt><trkpt lat="45.5117083" lon="8.2117333"><ele>198.0</ele><time>2026-04-04T09:25:24.945Z</time></trkpt><trkpt lat="45.511455" lon="8.21172"><ele>198.0</ele><time>2026-04-04T09:25:25.945Z</time></trkpt><trkpt lat="45.511205" lon="8.2116967"><ele>197.0</ele><time>2026-04-04T09:25:26.945Z</time></trkpt><trkpt lat="45.5109467" lon="8.2116833"><ele>196.0</ele><time>2026-04-04T09:25:27.945Z</time></trkpt><trkpt lat="45.5106983" lon="8.2116683"><ele>196.0</ele><time>2026-04-04T09:25:28.945Z</time></trkpt><trkpt lat="45.510445" lon="8.21165"><ele>196.0</ele><time>2026-04-04T09:25:29.945Z</time></trkpt><trkpt lat="45.5101933" lon="8.2116317"><ele>196.5</ele><time>2026-04-04T09:25:30.944Z</time></trkpt><trkpt lat="45.5099567" lon="8.2116233"><ele>197.0</ele><time>2026-04-04T09:25:31.945Z</time></trkpt><trkpt lat="45.5097233" lon="8.21164"><ele>197.5</ele><time>2026-04-04T09:25:32.945Z</time></trkpt><trkpt lat="45.509485" lon="8.2116733"><ele>198.0</ele><time>2026-04-04T09:25:33.945Z</time></trkpt><trkpt lat="45.5092467" lon="8.2117233"><ele>198.0</ele><time>2026-04-04T09:25:34.944Z</time></trkpt><trkpt lat="45.5090083" lon="8.2117917"><ele>198.0</ele><time>2026-04-04T09:25:35.945Z</time></trkpt><trkpt lat="45.50877" lon="8.21187"><ele>198.5</ele><time>2026-04-04T09:25:36.945Z</time></trkpt><trkpt lat="45.508535" lon="8.211975"><ele>199.0</ele><time>2026-04-04T09:25:37.945Z</time></trkpt><trkpt lat="45.5083067" lon="8.2120917"><ele>199.0</ele><time>2026-04-04T09:25:38.945Z</time></trkpt><trkpt lat="45.50808" lon="8.212205"><ele>199.0</ele><time>2026-04-04T09:25:39.945Z</time></trkpt><trkpt lat="45.5078417" lon="8.2123017"><ele>198.5</ele><time>2026-04-04T09:25:40.944Z</time></trkpt><trkpt lat="45.5076117" lon="8.2124083"><ele>198.0</ele><time>2026-04-04T09:25:41.945Z</time></trkpt><trkpt lat="45.50738" lon="8.2125017"><ele>198.0</ele><time>2026-04-04T09:25:42.945Z</time></trkpt><trkpt lat="45.5071467" lon="8.2125733"><ele>198.0</ele><time>2026-04-04T09:25:43.945Z</time></trkpt><trkpt lat="45.5069167" lon="8.212635"><ele>198.33333333333331</ele><time>2026-04-04T09:25:44.945Z</time></trkpt><trkpt lat="45.5066933" lon="8.2126717"><ele>198.66666666666666</ele><time>2026-04-04T09:25:45.945Z</time></trkpt><trkpt lat="45.5064833" lon="8.2127133"><ele>199.0</ele><time>2026-04-04T09:25:46.945Z</time></trkpt><trkpt lat="45.5062933" lon="8.21275"><ele>199.0</ele><time>2026-04-04T09:25:47.945Z</time></trkpt><trkpt lat="45.5061083" lon="8.212785"><ele>199.0</ele><time>2026-04-04T09:25:48.944Z</time></trkpt><trkpt lat="45.5059367" lon="8.2128183"><ele>199.0</ele><time>2026-04-04T09:25:49.944Z</time></trkpt><trkpt lat="45.5057767" lon="8.2128517"><ele>199.0</ele><time>2026-04-04T09:25:50.945Z</time></trkpt><trkpt lat="45.5056183" lon="8.2128733"><ele>199.0</ele><time>2026-04-04T09:25:51.945Z</time></trkpt><trkpt lat="45.505475" lon="8.2128917"><ele>199.0</ele><time>2026-04-04T09:25:52.945Z</time></trkpt><trkpt lat="45.5053383" lon="8.212885"><ele>199.0</ele><time>2026-04-04T09:25:53.945Z</time></trkpt><trkpt lat="45.5052083" lon="8.21288"><ele>198.5</ele><time>2026-04-04T09:25:54.945Z</time></trkpt><trkpt lat="45.5050917" lon="8.2128367"><ele>198.0</ele><time>2026-04-04T09:25:55.945Z</time></trkpt><trkpt lat="45.5049883" lon="8.2127633"><ele>197.5</ele><time>2026-04-04T09:25:56.945Z</time></trkpt><trkpt lat="45.5048867" lon="8.21268"><ele>197.0</ele><time>2026-04-04T09:25:57.944Z</time></trkpt><trkpt lat="45.5047783" lon="8.2126417"><ele>197.0</ele><time>2026-04-04T09:25:58.945Z</time></trkpt><trkpt lat="45.50466" lon="8.212655"><ele>197.0</ele><time>2026-04-04T09:25:59.945Z</time></trkpt><trkpt lat="45.5045517" lon="8.2127117"><ele>197.0</ele><time>2026-04-04T09:26:00.945Z</time></trkpt><trkpt lat="45.504465" lon="8.2128217"><ele>197.0</ele><time>2026-04-04T09:26:01.945Z</time></trkpt><trkpt lat="45.5043817" lon="8.2129567"><ele>196.75</ele><time>2026-04-04T09:26:02.944Z</time></trkpt><trkpt lat="45.5042733" lon="8.2130833"><ele>196.5</ele><time>2026-04-04T09:26:03.945Z</time></trkpt><trkpt lat="45.5041483" lon="8.2131717"><ele>196.25</ele><time>2026-04-04T09:26:04.945Z</time></trkpt><trkpt lat="45.5039883" lon="8.2132267"><ele>196.0</ele><time>2026-04-04T09:26:05.945Z</time></trkpt><trkpt lat="45.50382" lon="8.2132717"><ele>195.33333333333331</ele><time>2026-04-04T09:26:06.945Z</time></trkpt><trkpt lat="45.5036333" lon="8.2133117"><ele>194.66666666666669</ele><time>2026-04-04T09:26:07.944Z</time></trkpt><trkpt lat="45.50344" lon="8.213355"><ele>194.0</ele><time>2026-04-04T09:26:08.945Z</time></trkpt><trkpt lat="45.5032333" lon="8.2133967"><ele>194.0</ele><time>2026-04-04T09:26:09.945Z</time></trkpt><trkpt lat="45.50302" lon="8.2134383"><ele>194.0</ele><time>2026-04-04T09:26:10.945Z</time></trkpt><trkpt lat="45.5028117" lon="8.2134717"><ele>194.0</ele><time>2026-04-04T09:26:11.945Z</time></trkpt><trkpt lat="45.5026067" lon="8.213515"><ele>194.66666666666669</ele><time>2026-04-04T09:26:12.945Z</time></trkpt><trkpt lat="45.5023917" lon="8.2135633"><ele>195.33333333333331</ele><time>2026-04-04T09:26:13.945Z</time></trkpt><trkpt lat="45.5021633" lon="8.21361"><ele>196.0</ele><time>2026-04-04T09:26:14.945Z</time></trkpt><trkpt lat="45.501935" lon="8.213655"><ele>196.5</ele><time>2026-04-04T09:26:15.945Z</time></trkpt><trkpt lat="45.5017017" lon="8.2137067"><ele>197.0</ele><time>2026-04-04T09:26:16.944Z</time></trkpt><trkpt lat="45.5014633" lon="8.2137533"><ele>200.5</ele><time>2026-04-04T09:26:17.945Z</time></trkpt><trkpt lat="45.5012133" lon="8.21381"><ele>204.0</ele><time>2026-04-04T09:26:18.945Z</time></trkpt><trkpt lat="45.5009667" lon="8.213865"><ele>204.0</ele><time>2026-04-04T09:26:19.945Z</time></trkpt><trkpt lat="45.50072" lon="8.2139117"><ele>204.0</ele><time>2026-04-04T09:26:20.945Z</time></trkpt><trkpt lat="45.5004633" lon="8.21396"><ele>205.5</ele><time>2026-04-04T09:26:21.944Z</time></trkpt><trkpt lat="45.5002133" lon="8.2140017"><ele>207.0</ele><time>2026-04-04T09:26:22.945Z</time></trkpt><trkpt lat="45.4999633" lon="8.2140533"><ele>207.0</ele><time>2026-04-04T09:26:23.944Z</time></trkpt><trkpt lat="45.4997083" lon="8.214105"><ele>207.0</ele><time>2026-04-04T09:26:24.945Z</time></trkpt><trkpt lat="45.49945" lon="8.21416"><ele>206.0</ele><time>2026-04-04T09:26:25.945Z</time></trkpt><trkpt lat="45.4992033" lon="8.2142167"><ele>205.0</ele><time>2026-04-04T09:26:26.944Z</time></trkpt><trkpt lat="45.4989517" lon="8.214265"><ele>205.0</ele><time>2026-04-04T09:26:27.945Z</time></trkpt><trkpt lat="45.498695" lon="8.2143183"><ele>205.0</ele><time>2026-04-04T09:26:28.945Z</time></trkpt><trkpt lat="45.4984367" lon="8.21436"><ele>205.0</ele><time>2026-04-04T09:26:29.945Z</time></trkpt><trkpt lat="45.4981767" lon="8.2144117"><ele>205.0</ele><time>2026-04-04T09:26:30.945Z</time></trkpt><trkpt lat="45.4979133" lon="8.21447"><ele>205.0</ele><time>2026-04-04T09:26:31.945Z</time></trkpt><trkpt lat="45.497655" lon="8.2145267"><ele>205.0</ele><time>2026-04-04T09:26:32.945Z</time></trkpt><trkpt lat="45.4973917" lon="8.2145767"><ele>205.0</ele><time>2026-04-04T09:26:33.945Z</time></trkpt><trkpt lat="45.4971483" lon="8.2146233"><ele>205.0</ele><time>2026-04-04T09:26:34.945Z</time></trkpt><trkpt lat="45.49691" lon="8.2146733"><ele>204.5</ele><time>2026-04-04T09:26:35.945Z</time></trkpt><trkpt lat="45.4966717" lon="8.2147233"><ele>204.0</ele><time>2026-04-04T09:26:36.945Z</time></trkpt><trkpt lat="45.4964283" lon="8.2147667"><ele>203.5</ele><time>2026-04-04T09:26:37.945Z</time></trkpt><trkpt lat="45.4961883" lon="8.2148083"><ele>203.0</ele><time>2026-04-04T09:26:38.945Z</time></trkpt><trkpt lat="45.4959467" lon="8.214865"><ele>203.0</ele><time>2026-04-04T09:26:39.945Z</time></trkpt><trkpt lat="45.495705" lon="8.2149133"><ele>203.0</ele><time>2026-04-04T09:26:40.944Z</time></trkpt><trkpt lat="45.4954583" lon="8.2149667"><ele>203.0</ele><time>2026-04-04T09:26:41.945Z</time></trkpt><trkpt lat="45.495215" lon="8.2150183"><ele>203.0</ele><time>2026-04-04T09:26:42.945Z</time></trkpt><trkpt lat="45.4949667" lon="8.21507"><ele>203.0</ele><time>2026-04-04T09:26:43.945Z</time></trkpt><trkpt lat="45.494725" lon="8.2151183"><ele>203.0</ele><time>2026-04-04T09:26:44.944Z</time></trkpt><trkpt lat="45.4944833" lon="8.2151733"><ele>203.5</ele><time>2026-04-04T09:26:45.945Z</time></trkpt><trkpt lat="45.49425" lon="8.2152233"><ele>204.0</ele><time>2026-04-04T09:26:46.945Z</time></trkpt><trkpt lat="45.4940133" lon="8.2152683"><ele>204.0</ele><time>2026-04-04T09:26:47.945Z</time></trkpt><trkpt lat="45.4937767" lon="8.2153217"><ele>204.0</ele><time>2026-04-04T09:26:48.945Z</time></trkpt><trkpt lat="45.4935517" lon="8.2153583"><ele>204.0</ele><time>2026-04-04T09:26:49.945Z</time></trkpt><trkpt lat="45.4933183" lon="8.2154033"><ele>204.0</ele><time>2026-04-04T09:26:50.945Z</time></trkpt><trkpt lat="45.4930883" lon="8.21545"><ele>204.0</ele><time>2026-04-04T09:26:51.945Z</time></trkpt><trkpt lat="45.4928567" lon="8.2154983"><ele>204.0</ele><time>2026-04-04T09:26:52.945Z</time></trkpt><trkpt lat="45.4926217" lon="8.2155467"><ele>204.0</ele><time>2026-04-04T09:26:53.944Z</time></trkpt><trkpt lat="45.49239" lon="8.2155967"><ele>204.0</ele><time>2026-04-04T09:26:54.945Z</time></trkpt><trkpt lat="45.4921567" lon="8.2156383"><ele>202.0</ele><time>2026-04-04T09:26:55.945Z</time></trkpt><trkpt lat="45.4919317" lon="8.21569"><ele>200.0</ele><time>2026-04-04T09:26:56.945Z</time></trkpt><trkpt lat="45.4917017" lon="8.215735"><ele>200.0</ele><time>2026-04-04T09:26:57.944Z</time></trkpt><trkpt lat="45.4914683" lon="8.2157783"><ele>200.0</ele><time>2026-04-04T09:26:58.945Z</time></trkpt><trkpt lat="45.49123" lon="8.215825"><ele>199.0</ele><time>2026-04-04T09:26:59.945Z</time></trkpt><trkpt lat="45.490995" lon="8.2158667"><ele>198.0</ele><time>2026-04-04T09:27:00.945Z</time></trkpt><trkpt lat="45.4907483" lon="8.2159233"><ele>198.0</ele><time>2026-04-04T09:27:01.945Z</time></trkpt><trkpt lat="45.4905017" lon="8.2159733"><ele>198.0</ele><time>2026-04-04T09:27:02.945Z</time></trkpt><trkpt lat="45.4902617" lon="8.2160233"><ele>197.0</ele><time>2026-04-04T09:27:03.945Z</time></trkpt><trkpt lat="45.49001" lon="8.2160767"><ele>196.0</ele><time>2026-04-04T09:27:04.945Z</time></trkpt><trkpt lat="45.4897583" lon="8.2161283"><ele>196.5</ele><time>2026-04-04T09:27:05.945Z</time></trkpt><trkpt lat="45.4895083" lon="8.2161783"><ele>197.0</ele><time>2026-04-04T09:27:06.945Z</time></trkpt><trkpt lat="45.489255" lon="8.21623"><ele>197.0</ele><time>2026-04-04T09:27:07.945Z</time></trkpt><trkpt lat="45.48901" lon="8.21628"><ele>197.0</ele><time>2026-04-04T09:27:08.945Z</time></trkpt><trkpt lat="45.4887617" lon="8.21633"><ele>195.5</ele><time>2026-04-04T09:27:09.945Z</time></trkpt><trkpt lat="45.4885067" lon="8.21638"><ele>194.0</ele><time>2026-04-04T09:27:10.945Z</time></trkpt><trkpt lat="45.4882517" lon="8.2164267"><ele>194.0</ele><time>2026-04-04T09:27:11.945Z</time></trkpt><trkpt lat="45.4879983" lon="8.2164783"><ele>194.0</ele><time>2026-04-04T09:27:12.945Z</time></trkpt><trkpt lat="45.4877467" lon="8.21653"><ele>195.0</ele><time>2026-04-04T09:27:13.945Z</time></trkpt><trkpt lat="45.4874983" lon="8.21658"><ele>196.0</ele><time>2026-04-04T09:27:14.945Z</time></trkpt><trkpt lat="45.4872483" lon="8.216645"><ele>196.5</ele><time>2026-04-04T09:27:15.945Z</time></trkpt><trkpt lat="45.487" lon="8.2166917"><ele>197.0</ele><time>2026-04-04T09:27:16.945Z</time></trkpt><trkpt lat="45.4867533" lon="8.2167433"><ele>197.0</ele><time>2026-04-04T09:27:17.945Z</time></trkpt><trkpt lat="45.48651" lon="8.2167917"><ele>197.0</ele><time>2026-04-04T09:27:18.945Z</time></trkpt><trkpt lat="45.48627" lon="8.2168367"><ele>197.5</ele><time>2026-04-04T09:27:19.945Z</time></trkpt><trkpt lat="45.48603" lon="8.216885"><ele>198.0</ele><time>2026-04-04T09:27:20.945Z</time></trkpt><trkpt lat="45.4857983" lon="8.2169333"><ele>198.0</ele><time>2026-04-04T09:27:21.945Z</time></trkpt><trkpt lat="45.4855567" lon="8.2169867"><ele>198.0</ele><time>2026-04-04T09:27:22.945Z</time></trkpt><trkpt lat="45.4853133" lon="8.21703"><ele>198.5</ele><time>2026-04-04T09:27:23.945Z</time></trkpt><trkpt lat="45.4850767" lon="8.2170683"><ele>199.0</ele><time>2026-04-04T09:27:24.945Z</time></trkpt><trkpt lat="45.484825" lon="8.2171183"><ele>198.5</ele><time>2026-04-04T09:27:25.945Z</time></trkpt><trkpt lat="45.4845783" lon="8.217165"><ele>198.0</ele><time>2026-04-04T09:27:26.945Z</time></trkpt><trkpt lat="45.4843267" lon="8.2172183"><ele>198.0</ele><time>2026-04-04T09:27:27.945Z</time></trkpt><trkpt lat="45.4840767" lon="8.2172767"><ele>198.0</ele><time>2026-04-04T09:27:28.945Z</time></trkpt><trkpt lat="45.48382" lon="8.2173317"><ele>198.5</ele><time>2026-04-04T09:27:29.945Z</time></trkpt><trkpt lat="45.48357" lon="8.2173883"><ele>199.0</ele><time>2026-04-04T09:27:30.945Z</time></trkpt><trkpt lat="45.4833183" lon="8.2174383"><ele>199.0</ele><time>2026-04-04T09:27:31.945Z</time></trkpt><trkpt lat="45.4830717" lon="8.217485"><ele>199.0</ele><time>2026-04-04T09:27:32.945Z</time></trkpt><trkpt lat="45.48282" lon="8.21753"><ele>199.5</ele><time>2026-04-04T09:27:33.945Z</time></trkpt><trkpt lat="45.4825683" lon="8.2175783"><ele>200.0</ele><time>2026-04-04T09:27:34.945Z</time></trkpt><trkpt lat="45.4823133" lon="8.2176317"><ele>199.5</ele><time>2026-04-04T09:27:35.945Z</time></trkpt><trkpt lat="45.4820617" lon="8.2176817"><ele>199.0</ele><time>2026-04-04T09:27:36.945Z</time></trkpt><trkpt lat="45.4818033" lon="8.2177333"><ele>199.0</ele><time>2026-04-04T09:27:37.945Z</time></trkpt><trkpt lat="45.4815483" lon="8.2177817"><ele>199.0</ele><time>2026-04-04T09:27:38.945Z</time></trkpt><trkpt lat="45.4812867" lon="8.217835"><ele>199.5</ele><time>2026-04-04T09:27:39.944Z</time></trkpt><trkpt lat="45.4810267" lon="8.2178917"><ele>200.0</ele><time>2026-04-04T09:27:40.945Z</time></trkpt><trkpt lat="45.4807683" lon="8.2179483"><ele>200.0</ele><time>2026-04-04T09:27:41.945Z</time></trkpt><trkpt lat="45.4805183" lon="8.2179883"><ele>200.0</ele><time>2026-04-04T09:27:42.945Z</time></trkpt><trkpt lat="45.4802633" lon="8.21803"><ele>200.0</ele><time>2026-04-04T09:27:43.944Z</time></trkpt><trkpt lat="45.4799967" lon="8.218085"><ele>200.0</ele><time>2026-04-04T09:27:44.945Z</time></trkpt><trkpt lat="45.4797333" lon="8.2181367"><ele>200.0</ele><time>2026-04-04T09:27:45.945Z</time></trkpt><trkpt lat="45.47947" lon="8.2181917"><ele>200.0</ele><time>2026-04-04T09:27:46.945Z</time></trkpt><trkpt lat="45.479205" lon="8.2182467"><ele>200.0</ele><time>2026-04-04T09:27:47.945Z</time></trkpt><trkpt lat="45.4789483" lon="8.2182983"><ele>200.0</ele><time>2026-04-04T09:27:48.945Z</time></trkpt><trkpt lat="45.47869" lon="8.218345"><ele>199.0</ele><time>2026-04-04T09:27:49.945Z</time></trkpt><trkpt lat="45.47843" lon="8.2184"><ele>198.0</ele><time>2026-04-04T09:27:50.945Z</time></trkpt><trkpt lat="45.47817" lon="8.218455"><ele>196.5</ele><time>2026-04-04T09:27:51.945Z</time></trkpt><trkpt lat="45.4779067" lon="8.21851"><ele>195.0</ele><time>2026-04-04T09:27:52.945Z</time></trkpt><trkpt lat="45.47765" lon="8.218555"><ele>195.0</ele><time>2026-04-04T09:27:53.945Z</time></trkpt><trkpt lat="45.477405" lon="8.2185917"><ele>195.0</ele><time>2026-04-04T09:27:54.945Z</time></trkpt><trkpt lat="45.4771633" lon="8.2186467"><ele>193.5</ele><time>2026-04-04T09:27:55.945Z</time></trkpt><trkpt lat="45.47693" lon="8.2186883"><ele>192.0</ele><time>2026-04-04T09:27:56.945Z</time></trkpt><trkpt lat="45.4766967" lon="8.2187417"><ele>192.0</ele><time>2026-04-04T09:27:57.945Z</time></trkpt><trkpt lat="45.4764617" lon="8.21879"><ele>192.0</ele><time>2026-04-04T09:27:58.945Z</time></trkpt><trkpt lat="45.4762233" lon="8.21883"><ele>190.5</ele><time>2026-04-04T09:27:59.945Z</time></trkpt><trkpt lat="45.4759817" lon="8.2188683"><ele>189.0</ele><time>2026-04-04T09:28:00.945Z</time></trkpt><trkpt lat="45.47574" lon="8.2188883"><ele>189.0</ele><time>2026-04-04T09:28:01.945Z</time></trkpt><trkpt lat="45.47551" lon="8.218895"><ele>189.0</ele><time>2026-04-04T09:28:02.945Z</time></trkpt><trkpt lat="45.4752967" lon="8.218875"><ele>189.0</ele><time>2026-04-04T09:28:03.944Z</time></trkpt><trkpt lat="45.475075" lon="8.2188417"><ele>189.0</ele><time>2026-04-04T09:28:04.944Z</time></trkpt><trkpt lat="45.4748533" lon="8.2187817"><ele>189.0</ele><time>2026-04-04T09:28:05.943Z</time></trkpt><trkpt lat="45.47463" lon="8.2186967"><ele>189.5</ele><time>2026-04-04T09:28:06.943Z</time></trkpt><trkpt lat="45.4744033" lon="8.2186017"><ele>190.0</ele><time>2026-04-04T09:28:07.944Z</time></trkpt><trkpt lat="45.47417" lon="8.21851"><ele>190.0</ele><time>2026-04-04T09:28:08.944Z</time></trkpt><trkpt lat="45.473945" lon="8.21841"><ele>190.0</ele><time>2026-04-04T09:28:09.944Z</time></trkpt><trkpt lat="45.473715" lon="8.2183267"><ele>190.0</ele><time>2026-04-04T09:28:10.944Z</time></trkpt><trkpt lat="45.473485" lon="8.2182433"><ele>190.0</ele><time>2026-04-04T09:28:11.944Z</time></trkpt><trkpt lat="45.4732617" lon="8.2181583"><ele>190.0</ele><time>2026-04-04T09:28:12.943Z</time></trkpt><trkpt lat="45.4730433" lon="8.2180783"><ele>190.0</ele><time>2026-04-04T09:28:13.944Z</time></trkpt><trkpt lat="45.4728317" lon="8.2179983"><ele>190.0</ele><time>2026-04-04T09:28:14.944Z</time></trkpt><trkpt lat="45.4726333" lon="8.21791"><ele>190.0</ele><time>2026-04-04T09:28:15.944Z</time></trkpt><trkpt lat="45.4724417" lon="8.2177933"><ele>190.0</ele><time>2026-04-04T09:28:16.943Z</time></trkpt><trkpt lat="45.47225" lon="8.2176633"><ele>190.0</ele><time>2026-04-04T09:28:17.944Z</time></trkpt><trkpt lat="45.4720567" lon="8.2175283"><ele>190.5</ele><time>2026-04-04T09:28:18.944Z</time></trkpt><trkpt lat="45.471855" lon="8.2173783"><ele>191.0</ele><time>2026-04-04T09:28:19.944Z</time></trkpt><trkpt lat="45.4716517" lon="8.2172267"><ele>191.0</ele><time>2026-04-04T09:28:20.943Z</time></trkpt><trkpt lat="45.4714517" lon="8.217075"><ele>191.0</ele><time>2026-04-04T09:28:21.944Z</time></trkpt><trkpt lat="45.471255" lon="8.216925"><ele>191.0</ele><time>2026-04-04T09:28:22.943Z</time></trkpt><trkpt lat="45.4710583" lon="8.2167683"><ele>191.0</ele><time>2026-04-04T09:28:23.944Z</time></trkpt><trkpt lat="45.4708517" lon="8.216615"><ele>191.5</ele><time>2026-04-04T09:28:24.944Z</time></trkpt><trkpt lat="45.4706367" lon="8.216465"><ele>192.0</ele><time>2026-04-04T09:28:25.944Z</time></trkpt><trkpt lat="45.4704267" lon="8.216305"><ele>192.0</ele><time>2026-04-04T09:28:26.944Z</time></trkpt><trkpt lat="45.47022" lon="8.216145"><ele>192.0</ele><time>2026-04-04T09:28:27.944Z</time></trkpt><trkpt lat="45.4700133" lon="8.2159883"><ele>192.0</ele><time>2026-04-04T09:28:28.944Z</time></trkpt><trkpt lat="45.4698183" lon="8.2158383"><ele>192.0</ele><time>2026-04-04T09:28:29.943Z</time></trkpt><trkpt lat="45.4696317" lon="8.2157017"><ele>192.0</ele><time>2026-04-04T09:28:30.944Z</time></trkpt><trkpt lat="45.4694633" lon="8.215575"><ele>192.0</ele><time>2026-04-04T09:28:31.944Z</time></trkpt><trkpt lat="45.4692917" lon="8.2154633"><ele>192.0</ele><time>2026-04-04T09:28:32.944Z</time></trkpt><trkpt lat="45.469145" lon="8.2153533"><ele>192.0</ele><time>2026-04-04T09:28:33.944Z</time></trkpt><trkpt lat="45.4690117" lon="8.215255"><ele>192.0</ele><time>2026-04-04T09:28:34.944Z</time></trkpt><trkpt lat="45.4688867" lon="8.21516"><ele>192.0</ele><time>2026-04-04T09:28:35.944Z</time></trkpt><trkpt lat="45.468765" lon="8.2150667"><ele>192.0</ele><time>2026-04-04T09:28:36.944Z</time></trkpt><trkpt lat="45.46866" lon="8.2149733"><ele>192.0</ele><time>2026-04-04T09:28:37.944Z</time></trkpt><trkpt lat="45.4685717" lon="8.2148967"><ele>192.0</ele><time>2026-04-04T09:28:38.944Z</time></trkpt><trkpt lat="45.4684933" lon="8.2148167"><ele>192.0</ele><time>2026-04-04T09:28:39.944Z</time></trkpt><trkpt lat="45.46843" lon="8.214715"><ele>192.0</ele><time>2026-04-04T09:28:40.944Z</time></trkpt><trkpt lat="45.46838" lon="8.214585"><ele>192.0</ele><time>2026-04-04T09:28:41.944Z</time></trkpt><trkpt lat="45.4683217" lon="8.2144683"><ele>192.0</ele><time>2026-04-04T09:28:42.944Z</time></trkpt><trkpt lat="45.468255" lon="8.2143767"><ele>192.0</ele><time>2026-04-04T09:28:43.944Z</time></trkpt><trkpt lat="45.4681767" lon="8.214335"><ele>192.0</ele><time>2026-04-04T09:28:44.944Z</time></trkpt><trkpt lat="45.4680967" lon="8.2143417"><ele>192.0</ele><time>2026-04-04T09:28:45.944Z</time></trkpt><trkpt lat="45.468025" lon="8.2143933"><ele>192.0</ele><time>2026-04-04T09:28:46.944Z</time></trkpt><trkpt lat="45.4679567" lon="8.2144933"><ele>192.0</ele><time>2026-04-04T09:28:47.944Z</time></trkpt><trkpt lat="45.4678767" lon="8.2146417"><ele>192.0</ele><time>2026-04-04T09:28:48.944Z</time></trkpt><trkpt lat="45.4677717" lon="8.214795"><ele>192.0</ele><time>2026-04-04T09:28:49.944Z</time></trkpt><trkpt lat="45.467635" lon="8.2149167"><ele>192.0</ele><time>2026-04-04T09:28:50.943Z</time></trkpt><trkpt lat="45.4674767" lon="8.2150317"><ele>192.0</ele><time>2026-04-04T09:28:51.944Z</time></trkpt><trkpt lat="45.4673" lon="8.215165"><ele>192.0</ele><time>2026-04-04T09:28:52.944Z</time></trkpt><trkpt lat="45.4671333" lon="8.2152933"><ele>192.0</ele><time>2026-04-04T09:28:53.944Z</time></trkpt><trkpt lat="45.4669717" lon="8.21543"><ele>192.0</ele><time>2026-04-04T09:28:54.944Z</time></trkpt><trkpt lat="45.4668017" lon="8.2155683"><ele>192.0</ele><time>2026-04-04T09:28:55.944Z</time></trkpt><trkpt lat="45.4666233" lon="8.21571"><ele>192.0</ele><time>2026-04-04T09:28:56.944Z</time></trkpt><trkpt lat="45.4664433" lon="8.2158633"><ele>191.33333333333334</ele><time>2026-04-04T09:28:57.943Z</time></trkpt><trkpt lat="45.466255" lon="8.2160167"><ele>190.66666666666669</ele><time>2026-04-04T09:28:58.944Z</time></trkpt><trkpt lat="45.4660667" lon="8.2161717"><ele>190.0</ele><time>2026-04-04T09:28:59.944Z</time></trkpt><trkpt lat="45.465875" lon="8.21633"><ele>189.5</ele><time>2026-04-04T09:29:00.944Z</time></trkpt><trkpt lat="45.4656717" lon="8.21649"><ele>189.0</ele><time>2026-04-04T09:29:01.944Z</time></trkpt><trkpt lat="45.4654717" lon="8.216645"><ele>189.5</ele><time>2026-04-04T09:29:02.944Z</time></trkpt><trkpt lat="45.465275" lon="8.2168083"><ele>190.0</ele><time>2026-04-04T09:29:03.944Z</time></trkpt><trkpt lat="45.4650733" lon="8.2169733"><ele>190.0</ele><time>2026-04-04T09:29:04.944Z</time></trkpt><trkpt lat="45.464865" lon="8.2171417"><ele>190.0</ele><time>2026-04-04T09:29:05.944Z</time></trkpt><trkpt lat="45.4646583" lon="8.21731"><ele>189.5</ele><time>2026-04-04T09:29:06.944Z</time></trkpt><trkpt lat="45.4644533" lon="8.2174783"><ele>189.0</ele><time>2026-04-04T09:29:07.943Z</time></trkpt><trkpt lat="45.46425" lon="8.2176483"><ele>189.0</ele><time>2026-04-04T09:29:08.944Z</time></trkpt><trkpt lat="45.464045" lon="8.2178217"><ele>189.0</ele><time>2026-04-04T09:29:09.944Z</time></trkpt><trkpt lat="45.4638467" lon="8.2179867"><ele>189.0</ele><time>2026-04-04T09:29:10.944Z</time></trkpt><trkpt lat="45.4636467" lon="8.21815"><ele>189.0</ele><time>2026-04-04T09:29:11.944Z</time></trkpt><trkpt lat="45.4634417" lon="8.2183083"><ele>189.0</ele><time>2026-04-04T09:29:12.944Z</time></trkpt><trkpt lat="45.4632417" lon="8.2184667"><ele>189.0</ele><time>2026-04-04T09:29:13.944Z</time></trkpt><trkpt lat="45.4630467" lon="8.2186217"><ele>189.0</ele><time>2026-04-04T09:29:14.944Z</time></trkpt><trkpt lat="45.4628517" lon="8.2187783"><ele>189.0</ele><time>2026-04-04T09:29:15.944Z</time></trkpt><trkpt lat="45.46265" lon="8.2189383"><ele>188.5</ele><time>2026-04-04T09:29:16.944Z</time></trkpt><trkpt lat="45.4624517" lon="8.2191067"><ele>188.0</ele><time>2026-04-04T09:29:17.944Z</time></trkpt><trkpt lat="45.46225" lon="8.219275"><ele>188.5</ele><time>2026-04-04T09:29:18.944Z</time></trkpt><trkpt lat="45.4620433" lon="8.2194417"><ele>189.0</ele><time>2026-04-04T09:29:19.944Z</time></trkpt><trkpt lat="45.4618383" lon="8.2196117"><ele>189.0</ele><time>2026-04-04T09:29:20.943Z</time></trkpt><trkpt lat="45.461635" lon="8.2197767"><ele>189.0</ele><time>2026-04-04T09:29:21.944Z</time></trkpt><trkpt lat="45.4614233" lon="8.219945"><ele>189.0</ele><time>2026-04-04T09:29:22.944Z</time></trkpt><trkpt lat="45.4612117" lon="8.2201167"><ele>189.0</ele><time>2026-04-04T09:29:23.944Z</time></trkpt><trkpt lat="45.4610033" lon="8.2202883"><ele>189.0</ele><time>2026-04-04T09:29:24.944Z</time></trkpt><trkpt lat="45.4607983" lon="8.22046"><ele>189.0</ele><time>2026-04-04T09:29:25.944Z</time></trkpt><trkpt lat="45.460585" lon="8.220625"><ele>188.0</ele><time>2026-04-04T09:29:26.944Z</time></trkpt><trkpt lat="45.460375" lon="8.2208033"><ele>187.0</ele><time>2026-04-04T09:29:27.943Z</time></trkpt><trkpt lat="45.4601717" lon="8.22096"><ele>187.0</ele><time>2026-04-04T09:29:28.944Z</time></trkpt><trkpt lat="45.4599633" lon="8.221125"><ele>187.0</ele><time>2026-04-04T09:29:29.944Z</time></trkpt><trkpt lat="45.4597567" lon="8.2212933"><ele>186.5</ele><time>2026-04-04T09:29:30.944Z</time></trkpt><trkpt lat="45.4595567" lon="8.2214617"><ele>186.0</ele><time>2026-04-04T09:29:31.944Z</time></trkpt><trkpt lat="45.4593583" lon="8.2216233"><ele>185.5</ele><time>2026-04-04T09:29:32.943Z</time></trkpt><trkpt lat="45.4591583" lon="8.2217833"><ele>185.0</ele><time>2026-04-04T09:29:33.944Z</time></trkpt><trkpt lat="45.4589667" lon="8.2219417"><ele>185.0</ele><time>2026-04-04T09:29:34.944Z</time></trkpt><trkpt lat="45.4587633" lon="8.2221"><ele>185.0</ele><time>2026-04-04T09:29:35.944Z</time></trkpt><trkpt lat="45.4585617" lon="8.2222633"><ele>185.5</ele><time>2026-04-04T09:29:36.944Z</time></trkpt><trkpt lat="45.458365" lon="8.22242"><ele>186.0</ele><time>2026-04-04T09:29:37.944Z</time></trkpt><trkpt lat="45.4581583" lon="8.2225833"><ele>186.0</ele><time>2026-04-04T09:29:38.944Z</time></trkpt><trkpt lat="45.4579583" lon="8.2227417"><ele>186.0</ele><time>2026-04-04T09:29:39.944Z</time></trkpt><trkpt lat="45.4577583" lon="8.2228983"><ele>186.5</ele><time>2026-04-04T09:29:40.944Z</time></trkpt><trkpt lat="45.457565" lon="8.2230617"><ele>187.0</ele><time>2026-04-04T09:29:41.944Z</time></trkpt><trkpt lat="45.457365" lon="8.22323"><ele>187.0</ele><time>2026-04-04T09:29:42.943Z</time></trkpt><trkpt lat="45.45717" lon="8.2233867"><ele>187.0</ele><time>2026-04-04T09:29:43.944Z</time></trkpt><trkpt lat="45.45698" lon="8.2235433"><ele>187.0</ele><time>2026-04-04T09:29:44.944Z</time></trkpt><trkpt lat="45.4567817" lon="8.223705"><ele>186.66666666666669</ele><time>2026-04-04T09:29:45.943Z</time></trkpt><trkpt lat="45.4565867" lon="8.2238533"><ele>186.33333333333334</ele><time>2026-04-04T09:29:46.944Z</time></trkpt><trkpt lat="45.45639" lon="8.2240117"><ele>186.0</ele><time>2026-04-04T09:29:47.944Z</time></trkpt><trkpt lat="45.456195" lon="8.224165"><ele>185.0</ele><time>2026-04-04T09:29:48.944Z</time></trkpt><trkpt lat="45.4559983" lon="8.2243283"><ele>184.0</ele><time>2026-04-04T09:29:49.944Z</time></trkpt><trkpt lat="45.4558083" lon="8.224495"><ele>184.0</ele><time>2026-04-04T09:29:50.944Z</time></trkpt><trkpt lat="45.4556017" lon="8.2246567"><ele>184.0</ele><time>2026-04-04T09:29:51.944Z</time></trkpt><trkpt lat="45.455395" lon="8.2248267"><ele>184.0</ele><time>2026-04-04T09:29:52.944Z</time></trkpt><trkpt lat="45.4551833" lon="8.2249983"><ele>184.0</ele><time>2026-04-04T09:29:53.944Z</time></trkpt><trkpt lat="45.454965" lon="8.2251717"><ele>184.0</ele><time>2026-04-04T09:29:54.944Z</time></trkpt><trkpt lat="45.4547517" lon="8.225345"><ele>184.0</ele><time>2026-04-04T09:29:55.944Z</time></trkpt><trkpt lat="45.4545433" lon="8.2255183"><ele>183.5</ele><time>2026-04-04T09:29:56.944Z</time></trkpt><trkpt lat="45.4543383" lon="8.2256867"><ele>183.0</ele><time>2026-04-04T09:29:57.944Z</time></trkpt><trkpt lat="45.45413" lon="8.225855"><ele>183.0</ele><time>2026-04-04T09:29:58.944Z</time></trkpt><trkpt lat="45.45393" lon="8.2260183"><ele>183.0</ele><time>2026-04-04T09:29:59.944Z</time></trkpt><trkpt lat="45.4537283" lon="8.2261817"><ele>183.0</ele><time>2026-04-04T09:30:00.943Z</time></trkpt><trkpt lat="45.45353" lon="8.226335"><ele>183.0</ele><time>2026-04-04T09:30:01.944Z</time></trkpt><trkpt lat="45.4533217" lon="8.2264967"><ele>183.0</ele><time>2026-04-04T09:30:02.944Z</time></trkpt><trkpt lat="45.4531167" lon="8.2266583"><ele>183.0</ele><time>2026-04-04T09:30:03.944Z</time></trkpt><trkpt lat="45.4529133" lon="8.22683"><ele>183.5</ele><time>2026-04-04T09:30:04.944Z</time></trkpt><trkpt lat="45.4527133" lon="8.2269983"><ele>184.0</ele><time>2026-04-04T09:30:05.944Z</time></trkpt><trkpt lat="45.4525117" lon="8.2271633"><ele>183.5</ele><time>2026-04-04T09:30:06.944Z</time></trkpt><trkpt lat="45.45231" lon="8.2273267"><ele>183.0</ele><time>2026-04-04T09:30:07.944Z</time></trkpt><trkpt lat="45.4521067" lon="8.2274983"><ele>183.0</ele><time>2026-04-04T09:30:08.944Z</time></trkpt><trkpt lat="45.4519" lon="8.2276617"><ele>183.0</ele><time>2026-04-04T09:30:09.944Z</time></trkpt><trkpt lat="45.4516917" lon="8.2278267"><ele>183.0</ele><time>2026-04-04T09:30:10.944Z</time></trkpt><trkpt lat="45.4514867" lon="8.2279933"><ele>183.0</ele><time>2026-04-04T09:30:11.944Z</time></trkpt><trkpt lat="45.45128" lon="8.2281567"><ele>183.0</ele><time>2026-04-04T09:30:12.944Z</time></trkpt><trkpt lat="45.4510767" lon="8.2283217"><ele>183.0</ele><time>2026-04-04T09:30:13.944Z</time></trkpt><trkpt lat="45.4508717" lon="8.2284933"><ele>183.0</ele><time>2026-04-04T09:30:14.944Z</time></trkpt><trkpt lat="45.45067" lon="8.22866"><ele>183.0</ele><time>2026-04-04T09:30:15.944Z</time></trkpt><trkpt lat="45.4504683" lon="8.2288233"><ele>182.5</ele><time>2026-04-04T09:30:16.943Z</time></trkpt><trkpt lat="45.4502683" lon="8.22899"><ele>182.0</ele><time>2026-04-04T09:30:17.944Z</time></trkpt><trkpt lat="45.450065" lon="8.229155"><ele>182.0</ele><time>2026-04-04T09:30:18.943Z</time></trkpt><trkpt lat="45.4498617" lon="8.229315"><ele>182.0</ele><time>2026-04-04T09:30:19.944Z</time></trkpt><trkpt lat="45.449655" lon="8.22948"><ele>182.0</ele><time>2026-04-04T09:30:20.944Z</time></trkpt><trkpt lat="45.4494533" lon="8.2296467"><ele>182.0</ele><time>2026-04-04T09:30:21.944Z</time></trkpt><trkpt lat="45.44925" lon="8.2298167"><ele>182.0</ele><time>2026-04-04T09:30:22.943Z</time></trkpt><trkpt lat="45.4490467" lon="8.2299783"><ele>182.0</ele><time>2026-04-04T09:30:23.944Z</time></trkpt><trkpt lat="45.448845" lon="8.23015"><ele>181.5</ele><time>2026-04-04T09:30:24.943Z</time></trkpt><trkpt lat="45.4486417" lon="8.2303133"><ele>181.0</ele><time>2026-04-04T09:30:25.944Z</time></trkpt><trkpt lat="45.4484367" lon="8.2304783"><ele>181.0</ele><time>2026-04-04T09:30:26.944Z</time></trkpt><trkpt lat="45.4482383" lon="8.2306367"><ele>181.0</ele><time>2026-04-04T09:30:27.944Z</time></trkpt><trkpt lat="45.4480467" lon="8.2308"><ele>181.0</ele><time>2026-04-04T09:30:28.944Z</time></trkpt><trkpt lat="45.447855" lon="8.2309483"><ele>181.0</ele><time>2026-04-04T09:30:29.944Z</time></trkpt><trkpt lat="45.447685" lon="8.231085"><ele>181.0</ele><time>2026-04-04T09:30:30.944Z</time></trkpt><trkpt lat="45.44753" lon="8.231215"><ele>181.0</ele><time>2026-04-04T09:30:31.944Z</time></trkpt><trkpt lat="45.4473783" lon="8.2313417"><ele>181.0</ele><time>2026-04-04T09:30:32.944Z</time></trkpt><trkpt lat="45.4472317" lon="8.231455"><ele>181.0</ele><time>2026-04-04T09:30:33.944Z</time></trkpt><trkpt lat="45.447095" lon="8.2315633"><ele>181.0</ele><time>2026-04-04T09:30:34.944Z</time></trkpt><trkpt lat="45.4469667" lon="8.2316683"><ele>181.0</ele><time>2026-04-04T09:30:35.944Z</time></trkpt><trkpt lat="45.4468533" lon="8.231765"><ele>181.0</ele><time>2026-04-04T09:30:36.944Z</time></trkpt><trkpt lat="45.4467467" lon="8.23185"><ele>181.0</ele><time>2026-04-04T09:30:37.944Z</time></trkpt><trkpt lat="45.44665" lon="8.2319217"><ele>181.0</ele><time>2026-04-04T09:30:38.944Z</time></trkpt><trkpt lat="45.4465583" lon="8.2319833"><ele>181.0</ele><time>2026-04-04T09:30:39.944Z</time></trkpt><trkpt lat="45.44647" lon="8.232035"><ele>181.0</ele><time>2026-04-04T09:30:40.944Z</time></trkpt><trkpt lat="45.44638" lon="8.23207"><ele>181.0</ele><time>2026-04-04T09:30:41.944Z</time></trkpt><trkpt lat="45.446285" lon="8.2320867"><ele>181.0</ele><time>2026-04-04T09:30:42.944Z</time></trkpt><trkpt lat="45.446185" lon="8.2320917"><ele>181.25</ele><time>2026-04-04T09:30:43.944Z</time></trkpt><trkpt lat="45.4460817" lon="8.23206"><ele>181.5</ele><time>2026-04-04T09:30:44.944Z</time></trkpt><trkpt lat="45.445975" lon="8.231985"><ele>181.75</ele><time>2026-04-04T09:30:45.944Z</time></trkpt><trkpt lat="45.4458583" lon="8.2318867"><ele>182.0</ele><time>2026-04-04T09:30:46.944Z</time></trkpt><trkpt lat="45.4457333" lon="8.2317633"><ele>182.0</ele><time>2026-04-04T09:30:47.944Z</time></trkpt><trkpt lat="45.4456133" lon="8.2316283"><ele>182.0</ele><time>2026-04-04T09:30:48.944Z</time></trkpt><trkpt lat="45.445505" lon="8.2314867"><ele>182.0</ele><time>2026-04-04T09:30:49.944Z</time></trkpt><trkpt lat="45.4454033" lon="8.2313317"><ele>182.0</ele><time>2026-04-04T09:30:50.943Z</time></trkpt><trkpt lat="45.445295" lon="8.2311733"><ele>182.33333333333331</ele><time>2026-04-04T09:30:51.944Z</time></trkpt><trkpt lat="45.4451867" lon="8.231015"><ele>182.66666666666666</ele><time>2026-04-04T09:30:52.944Z</time></trkpt><trkpt lat="45.44506" lon="8.2308667"><ele>183.0</ele><time>2026-04-04T09:30:53.944Z</time></trkpt><trkpt lat="45.4449367" lon="8.2307217"><ele>183.0</ele><time>2026-04-04T09:30:54.944Z</time></trkpt><trkpt lat="45.44481" lon="8.2305633"><ele>183.0</ele><time>2026-04-04T09:30:55.944Z</time></trkpt><trkpt lat="45.4446783" lon="8.230405"><ele>183.0</ele><time>2026-04-04T09:30:56.943Z</time></trkpt><trkpt lat="45.4445517" lon="8.2302417"><ele>183.0</ele><time>2026-04-04T09:30:57.944Z</time></trkpt><trkpt lat="45.444425" lon="8.2300817"><ele>183.0</ele><time>2026-04-04T09:30:58.944Z</time></trkpt><trkpt lat="45.4443067" lon="8.229935"><ele>183.0</ele><time>2026-04-04T09:30:59.944Z</time></trkpt><trkpt lat="45.4442067" lon="8.2297983"><ele>182.8</ele><time>2026-04-04T09:31:00.944Z</time></trkpt><trkpt lat="45.4441133" lon="8.229675"><ele>182.60000000000002</ele><time>2026-04-04T09:31:01.944Z</time></trkpt><trkpt lat="45.44403" lon="8.2295767"><ele>182.39999999999998</ele><time>2026-04-04T09:31:02.944Z</time></trkpt><trkpt lat="45.4439633" lon="8.2294883"><ele>182.2</ele><time>2026-04-04T09:31:03.944Z</time></trkpt><trkpt lat="45.4438967" lon="8.2294067"><ele>182.0</ele><time>2026-04-04T09:31:04.944Z</time></trkpt><trkpt lat="45.4438367" lon="8.229345"><ele>182.0</ele><time>2026-04-04T09:31:05.944Z</time></trkpt><trkpt lat="45.44379" lon="8.2292167"><ele>182.0</ele><time>2026-04-04T09:31:07.944Z</time></trkpt><trkpt lat="45.4437067" lon="8.229135"><ele>182.0</ele><time>2026-04-04T09:33:29.943Z</time></trkpt><trkpt lat="45.4436417" lon="8.2290833"><ele>182.0</ele><time>2026-04-04T09:33:30.943Z</time></trkpt><trkpt lat="45.443565" lon="8.2289983"><ele>182.0</ele><time>2026-04-04T09:33:31.942Z</time></trkpt><trkpt lat="45.4434767" lon="8.2289"><ele>182.0</ele><time>2026-04-04T09:33:32.943Z</time></trkpt><trkpt lat="45.443375" lon="8.22878"><ele>182.0</ele><time>2026-04-04T09:33:33.943Z</time></trkpt><trkpt lat="45.4432667" lon="8.2286583"><ele>182.0</ele><time>2026-04-04T09:33:34.942Z</time></trkpt><trkpt lat="45.4431617" lon="8.2285333"><ele>182.0</ele><time>2026-04-04T09:33:35.943Z</time></trkpt><trkpt lat="45.4430517" lon="8.2283983"><ele>182.0</ele><time>2026-04-04T09:33:36.943Z</time></trkpt><trkpt lat="45.4429333" lon="8.22824"><ele>182.0</ele><time>2026-04-04T09:33:37.943Z</time></trkpt><trkpt lat="45.4428167" lon="8.2280917"><ele>182.0</ele><time>2026-04-04T09:33:38.943Z</time></trkpt><trkpt lat="45.44269" lon="8.2279333"><ele>181.66666666666666</ele><time>2026-04-04T09:33:39.943Z</time></trkpt><trkpt lat="45.4425617" lon="8.227765"><ele>181.33333333333334</ele><time>2026-04-04T09:33:40.943Z</time></trkpt><trkpt lat="45.4424317" lon="8.2276117"><ele>181.0</ele><time>2026-04-04T09:33:41.943Z</time></trkpt><trkpt lat="45.442295" lon="8.2274467"><ele>181.33333333333334</ele><time>2026-04-04T09:33:42.943Z</time></trkpt><trkpt lat="45.44215" lon="8.2272983"><ele>181.66666666666666</ele><time>2026-04-04T09:33:43.942Z</time></trkpt><trkpt lat="45.4419883" lon="8.227125"><ele>182.0</ele><time>2026-04-04T09:33:44.943Z</time></trkpt><trkpt lat="45.44182" lon="8.226965"><ele>182.0</ele><time>2026-04-04T09:33:45.943Z</time></trkpt><trkpt lat="45.4416583" lon="8.2267983"><ele>182.0</ele><time>2026-04-04T09:33:46.943Z</time></trkpt><trkpt lat="45.4414967" lon="8.226635"><ele>182.0</ele><time>2026-04-04T09:33:47.943Z</time></trkpt><trkpt lat="45.4413233" lon="8.226465"><ele>182.0</ele><time>2026-04-04T09:33:48.943Z</time></trkpt><trkpt lat="45.4411467" lon="8.2262983"><ele>182.0</ele><time>2026-04-04T09:33:49.943Z</time></trkpt><trkpt lat="45.4409633" lon="8.2261217"><ele>182.0</ele><time>2026-04-04T09:33:50.943Z</time></trkpt><trkpt lat="45.44079" lon="8.22595"><ele>182.0</ele><time>2026-04-04T09:33:51.943Z</time></trkpt><trkpt lat="45.4406333" lon="8.225795"><ele>182.0</ele><time>2026-04-04T09:33:52.943Z</time></trkpt><trkpt lat="45.440475" lon="8.225645"><ele>182.0</ele><time>2026-04-04T09:33:53.942Z</time></trkpt><trkpt lat="45.4403267" lon="8.2255017"><ele>182.0</ele><time>2026-04-04T09:33:54.943Z</time></trkpt><trkpt lat="45.44019" lon="8.2253667"><ele>182.0</ele><time>2026-04-04T09:33:55.943Z</time></trkpt><trkpt lat="45.4400533" lon="8.22524"><ele>182.0</ele><time>2026-04-04T09:33:56.943Z</time></trkpt><trkpt lat="45.4399267" lon="8.22512"><ele>182.0</ele><time>2026-04-04T09:33:57.943Z</time></trkpt><trkpt lat="45.4398083" lon="8.225005"><ele>182.0</ele><time>2026-04-04T09:33:58.943Z</time></trkpt><trkpt lat="45.4396933" lon="8.224885"><ele>182.0</ele><time>2026-04-04T09:33:59.943Z</time></trkpt><trkpt lat="45.439575" lon="8.2247683"><ele>182.0</ele><time>2026-04-04T09:34:00.943Z</time></trkpt><trkpt lat="45.4394567" lon="8.2246517"><ele>182.5</ele><time>2026-04-04T09:34:01.942Z</time></trkpt><trkpt lat="45.4393483" lon="8.2245433"><ele>183.0</ele><time>2026-04-04T09:34:02.943Z</time></trkpt><trkpt lat="45.43924" lon="8.2244467"><ele>183.5</ele><time>2026-04-04T09:34:03.943Z</time></trkpt><trkpt lat="45.4391533" lon="8.2243633"><ele>184.0</ele><time>2026-04-04T09:34:04.943Z</time></trkpt><trkpt lat="45.4390717" lon="8.2242883"><ele>184.0</ele><time>2026-04-04T09:34:05.943Z</time></trkpt><trkpt lat="45.438995" lon="8.2242217"><ele>184.0</ele><time>2026-04-04T09:34:06.943Z</time></trkpt><trkpt lat="45.43893" lon="8.224155"><ele>184.0</ele><time>2026-04-04T09:34:07.943Z</time></trkpt><trkpt lat="45.4388767" lon="8.224105"><ele>184.0</ele><time>2026-04-04T09:34:08.943Z</time></trkpt><trkpt lat="45.438815" lon="8.2240867"><ele>184.0</ele><time>2026-04-04T09:34:09.943Z</time></trkpt><trkpt lat="45.4386967" lon="8.2241383"><ele>184.0</ele><time>2026-04-04T09:34:11.943Z</time></trkpt><trkpt lat="45.438615" lon="8.2242417"><ele>184.0</ele><time>2026-04-04T09:34:13.943Z</time></trkpt><trkpt lat="45.438525" lon="8.2243017"><ele>184.0</ele><time>2026-04-04T09:34:15.942Z</time></trkpt><trkpt lat="45.4384017" lon="8.22431"><ele>184.0</ele><time>2026-04-04T09:34:17.943Z</time></trkpt><trkpt lat="45.438335" lon="8.2242883"><ele>184.0</ele><time>2026-04-04T09:34:18.943Z</time></trkpt><trkpt lat="45.4382617" lon="8.22424"><ele>184.0</ele><time>2026-04-04T09:34:19.943Z</time></trkpt><trkpt lat="45.43819" lon="8.2241533"><ele>184.0</ele><time>2026-04-04T09:34:20.943Z</time></trkpt><trkpt lat="45.4381167" lon="8.2240567"><ele>184.0</ele><time>2026-04-04T09:34:21.942Z</time></trkpt><trkpt lat="45.43804" lon="8.2239533"><ele>184.0</ele><time>2026-04-04T09:34:22.943Z</time></trkpt><trkpt lat="45.437965" lon="8.223835"><ele>184.0</ele><time>2026-04-04T09:34:23.942Z</time></trkpt><trkpt lat="45.4378833" lon="8.2237233"><ele>184.0</ele><time>2026-04-04T09:34:24.943Z</time></trkpt><trkpt lat="45.4377933" lon="8.223605"><ele>184.2</ele><time>2026-04-04T09:34:25.942Z</time></trkpt><trkpt lat="45.437705" lon="8.2235117"><ele>184.39999999999998</ele><time>2026-04-04T09:34:26.943Z</time></trkpt><trkpt lat="45.4376183" lon="8.2234283"><ele>184.6</ele><time>2026-04-04T09:34:27.943Z</time></trkpt><trkpt lat="45.4375317" lon="8.2233617"><ele>184.8</ele><time>2026-04-04T09:34:28.943Z</time></trkpt><trkpt lat="45.4374483" lon="8.2233367"><ele>185.0</ele><time>2026-04-04T09:34:29.943Z</time></trkpt><trkpt lat="45.4373633" lon="8.2233217"><ele>185.0</ele><time>2026-04-04T09:34:30.943Z</time></trkpt><trkpt lat="45.4372817" lon="8.2233333"><ele>185.0</ele><time>2026-04-04T09:34:31.942Z</time></trkpt><trkpt lat="45.4372033" lon="8.22337"><ele>185.0</ele><time>2026-04-04T09:34:32.943Z</time></trkpt><trkpt lat="45.4371333" lon="8.223425"><ele>185.0</ele><time>2026-04-04T09:34:33.943Z</time></trkpt><trkpt lat="45.43708" lon="8.2234983"><ele>185.0</ele><time>2026-04-04T09:34:34.943Z</time></trkpt><trkpt lat="45.4370367" lon="8.22358"><ele>185.0</ele><time>2026-04-04T09:34:35.943Z</time></trkpt><trkpt lat="45.4369983" lon="8.2236667"><ele>185.0</ele><time>2026-04-04T09:34:36.943Z</time></trkpt><trkpt lat="45.4369717" lon="8.2238317"><ele>185.0</ele><time>2026-04-04T09:34:38.943Z</time></trkpt><trkpt lat="45.4369617" lon="8.2239917"><ele>185.0</ele><time>2026-04-04T09:34:40.943Z</time></trkpt><trkpt lat="45.4369617" lon="8.2241583"><ele>185.0</ele><time>2026-04-04T09:34:42.943Z</time></trkpt><trkpt lat="45.4369833" lon="8.2243133"><ele>185.0</ele><time>2026-04-04T09:34:44.943Z</time></trkpt><trkpt lat="45.4370017" lon="8.2244183"><ele>185.0</ele><time>2026-04-04T09:34:45.943Z</time></trkpt><trkpt lat="45.437025" lon="8.2245433"><ele>185.0</ele><time>2026-04-04T09:34:46.943Z</time></trkpt><trkpt lat="45.43706" lon="8.2246917"><ele>185.0</ele><time>2026-04-04T09:34:47.943Z</time></trkpt><trkpt lat="45.4371133" lon="8.22484"><ele>185.0</ele><time>2026-04-04T09:34:48.943Z</time></trkpt><trkpt lat="45.4371867" lon="8.2249967"><ele>185.0</ele><time>2026-04-04T09:34:49.943Z</time></trkpt><trkpt lat="45.4372717" lon="8.22514"><ele>185.0</ele><time>2026-04-04T09:34:50.942Z</time></trkpt><trkpt lat="45.4373733" lon="8.2252733"><ele>185.0</ele><time>2026-04-04T09:34:51.943Z</time></trkpt><trkpt lat="45.4374883" lon="8.2254233"><ele>185.0</ele><time>2026-04-04T09:34:52.943Z</time></trkpt><trkpt lat="45.4376067" lon="8.225585"><ele>184.66666666666666</ele><time>2026-04-04T09:34:53.943Z</time></trkpt><trkpt lat="45.43773" lon="8.2257467"><ele>184.33333333333334</ele><time>2026-04-04T09:34:54.943Z</time></trkpt><trkpt lat="45.4378417" lon="8.2259117"><ele>184.0</ele><time>2026-04-04T09:34:55.943Z</time></trkpt><trkpt lat="45.4379583" lon="8.2260833"><ele>183.66666666666669</ele><time>2026-04-04T09:34:56.943Z</time></trkpt><trkpt lat="45.4380733" lon="8.226265"><ele>183.33333333333334</ele><time>2026-04-04T09:34:57.943Z</time></trkpt><trkpt lat="45.438175" lon="8.22644"><ele>183.0</ele><time>2026-04-04T09:34:58.943Z</time></trkpt><trkpt lat="45.43828" lon="8.226605"><ele>183.0</ele><time>2026-04-04T09:34:59.942Z</time></trkpt><trkpt lat="45.43837" lon="8.22677"><ele>183.0</ele><time>2026-04-04T09:35:00.943Z</time></trkpt><trkpt lat="45.43844" lon="8.226945"><ele>183.0</ele><time>2026-04-04T09:35:01.943Z</time></trkpt><trkpt lat="45.4384917" lon="8.2271133"><ele>183.0</ele><time>2026-04-04T09:35:02.943Z</time></trkpt><trkpt lat="45.4385183" lon="8.2272767"><ele>183.0</ele><time>2026-04-04T09:35:03.942Z</time></trkpt><trkpt lat="45.4385333" lon="8.2274267"><ele>183.0</ele><time>2026-04-04T09:35:04.943Z</time></trkpt><trkpt lat="45.438515" lon="8.2275933"><ele>183.0</ele><time>2026-04-04T09:35:05.942Z</time></trkpt><trkpt lat="45.4384783" lon="8.227765"><ele>183.0</ele><time>2026-04-04T09:35:06.943Z</time></trkpt><trkpt lat="45.4384217" lon="8.2279267"><ele>183.0</ele><time>2026-04-04T09:35:07.943Z</time></trkpt><trkpt lat="45.4383467" lon="8.228065"><ele>183.0</ele><time>2026-04-04T09:35:08.943Z</time></trkpt><trkpt lat="45.4382567" lon="8.22818"><ele>183.0</ele><time>2026-04-04T09:35:09.943Z</time></trkpt><trkpt lat="45.4381617" lon="8.22828"><ele>183.0</ele><time>2026-04-04T09:35:10.943Z</time></trkpt><trkpt lat="45.43807" lon="8.2283683"><ele>183.4</ele><time>2026-04-04T09:35:11.943Z</time></trkpt><trkpt lat="45.4379633" lon="8.2284317"><ele>183.8</ele><time>2026-04-04T09:35:12.943Z</time></trkpt><trkpt lat="45.437865" lon="8.228485"><ele>184.2</ele><time>2026-04-04T09:35:13.943Z</time></trkpt><trkpt lat="45.43777" lon="8.228535"><ele>184.6</ele><time>2026-04-04T09:35:14.943Z</time></trkpt><trkpt lat="45.4376733" lon="8.2286017"><ele>185.0</ele><time>2026-04-04T09:35:15.943Z</time></trkpt><trkpt lat="45.43759" lon="8.2286817"><ele>185.0</ele><time>2026-04-04T09:35:16.942Z</time></trkpt><trkpt lat="45.4375167" lon="8.2287733"><ele>185.0</ele><time>2026-04-04T09:35:17.942Z</time></trkpt><trkpt lat="45.4374533" lon="8.2288867"><ele>185.0</ele><time>2026-04-04T09:35:18.943Z</time></trkpt><trkpt lat="45.4374033" lon="8.2290117"><ele>185.0</ele><time>2026-04-04T09:35:19.943Z</time></trkpt><trkpt lat="45.4373617" lon="8.22914"><ele>185.0</ele><time>2026-04-04T09:35:20.942Z</time></trkpt><trkpt lat="45.43734" lon="8.2292867"><ele>184.5</ele><time>2026-04-04T09:35:21.943Z</time></trkpt><trkpt lat="45.4373317" lon="8.2294517"><ele>184.0</ele><time>2026-04-04T09:35:22.943Z</time></trkpt><trkpt lat="45.4373417" lon="8.2296133"><ele>183.5</ele><time>2026-04-04T09:35:23.942Z</time></trkpt><trkpt lat="45.437375" lon="8.2297767"><ele>183.0</ele><time>2026-04-04T09:35:24.943Z</time></trkpt><trkpt lat="45.4374133" lon="8.2299383"><ele>182.75</ele><time>2026-04-04T09:35:25.943Z</time></trkpt><trkpt lat="45.4374517" lon="8.23011"><ele>182.5</ele><time>2026-04-04T09:35:26.943Z</time></trkpt><trkpt lat="45.4374867" lon="8.230295"><ele>182.25</ele><time>2026-04-04T09:35:27.943Z</time></trkpt><trkpt lat="45.4375217" lon="8.2304967"><ele>182.0</ele><time>2026-04-04T09:35:28.943Z</time></trkpt><trkpt lat="45.437565" lon="8.2307083"><ele>181.33333333333331</ele><time>2026-04-04T09:35:29.943Z</time></trkpt><trkpt lat="45.4376067" lon="8.230945"><ele>180.66666666666666</ele><time>2026-04-04T09:35:30.943Z</time></trkpt><trkpt lat="45.4376517" lon="8.2311783"><ele>180.0</ele><time>2026-04-04T09:35:31.943Z</time></trkpt><trkpt lat="45.4376917" lon="8.2314083"><ele>180.0</ele><time>2026-04-04T09:35:32.943Z</time></trkpt><trkpt lat="45.4377317" lon="8.2316233"><ele>180.0</ele><time>2026-04-04T09:35:33.943Z</time></trkpt><trkpt lat="45.4377667" lon="8.2318667"><ele>180.0</ele><time>2026-04-04T09:35:34.943Z</time></trkpt><trkpt lat="45.4378" lon="8.2321083"><ele>179.33333333333334</ele><time>2026-04-04T09:35:35.942Z</time></trkpt><trkpt lat="45.4378383" lon="8.2323533"><ele>178.66666666666669</ele><time>2026-04-04T09:35:36.943Z</time></trkpt><trkpt lat="45.43788" lon="8.2326217"><ele>178.0</ele><time>2026-04-04T09:35:37.943Z</time></trkpt><trkpt lat="45.4379167" lon="8.232885"><ele>178.33333333333334</ele><time>2026-04-04T09:35:38.943Z</time></trkpt><trkpt lat="45.43794" lon="8.2331483"><ele>178.66666666666666</ele><time>2026-04-04T09:35:39.943Z</time></trkpt><trkpt lat="45.4379733" lon="8.2334217"><ele>179.0</ele><time>2026-04-04T09:35:40.942Z</time></trkpt><trkpt lat="45.4380117" lon="8.2336933"><ele>179.0</ele><time>2026-04-04T09:35:41.943Z</time></trkpt><trkpt lat="45.4380517" lon="8.23397"><ele>179.0</ele><time>2026-04-04T09:35:42.943Z</time></trkpt><trkpt lat="45.4381017" lon="8.2342467"><ele>179.0</ele><time>2026-04-04T09:35:43.943Z</time></trkpt><trkpt lat="45.4381567" lon="8.2345283"><ele>179.0</ele><time>2026-04-04T09:35:44.943Z</time></trkpt><trkpt lat="45.4382117" lon="8.2348"><ele>179.0</ele><time>2026-04-04T09:35:45.943Z</time></trkpt><trkpt lat="45.4382683" lon="8.2350783"><ele>179.0</ele><time>2026-04-04T09:35:46.942Z</time></trkpt><trkpt lat="45.4383283" lon="8.235335"><ele>179.0</ele><time>2026-04-04T09:35:47.943Z</time></trkpt><trkpt lat="45.43838" lon="8.2356133"><ele>179.0</ele><time>2026-04-04T09:35:48.943Z</time></trkpt><trkpt lat="45.4384267" lon="8.2358917"><ele>179.0</ele><time>2026-04-04T09:35:49.942Z</time></trkpt><trkpt lat="45.4384817" lon="8.2361683"><ele>178.66666666666666</ele><time>2026-04-04T09:35:50.942Z</time></trkpt><trkpt lat="45.43854" lon="8.2364467"><ele>178.33333333333334</ele><time>2026-04-04T09:35:51.943Z</time></trkpt><trkpt lat="45.438605" lon="8.2367233"><ele>178.0</ele><time>2026-04-04T09:35:52.943Z</time></trkpt><trkpt lat="45.4386617" lon="8.2370067"><ele>178.33333333333334</ele><time>2026-04-04T09:35:53.943Z</time></trkpt><trkpt lat="45.438715" lon="8.2372867"><ele>178.66666666666666</ele><time>2026-04-04T09:35:54.943Z</time></trkpt><trkpt lat="45.4387767" lon="8.2375683"><ele>179.0</ele><time>2026-04-04T09:35:55.943Z</time></trkpt><trkpt lat="45.4388417" lon="8.2378583"><ele>179.0</ele><time>2026-04-04T09:35:56.942Z</time></trkpt><trkpt lat="45.4389067" lon="8.2381617"><ele>179.0</ele><time>2026-04-04T09:35:57.943Z</time></trkpt><trkpt lat="45.4389617" lon="8.23848"><ele>179.0</ele><time>2026-04-04T09:35:58.943Z</time></trkpt><trkpt lat="45.4390233" lon="8.2388017"><ele>179.0</ele><time>2026-04-04T09:35:59.943Z</time></trkpt><trkpt lat="45.439085" lon="8.2391317"><ele>180.0</ele><time>2026-04-04T09:36:00.943Z</time></trkpt><trkpt lat="45.4391567" lon="8.23946"><ele>181.0</ele><time>2026-04-04T09:36:01.942Z</time></trkpt><trkpt lat="45.439205" lon="8.239785"><ele>181.0</ele><time>2026-04-04T09:36:02.943Z</time></trkpt><trkpt lat="45.439255" lon="8.240085"><ele>181.0</ele><time>2026-04-04T09:36:03.943Z</time></trkpt><trkpt lat="45.4393033" lon="8.2403833"><ele>181.0</ele><time>2026-04-04T09:36:04.943Z</time></trkpt><trkpt lat="45.4393533" lon="8.24069"><ele>180.66666666666669</ele><time>2026-04-04T09:36:05.943Z</time></trkpt><trkpt lat="45.4394" lon="8.2409933"><ele>180.33333333333334</ele><time>2026-04-04T09:36:06.943Z</time></trkpt><trkpt lat="45.4394467" lon="8.2412967"><ele>180.0</ele><time>2026-04-04T09:36:07.943Z</time></trkpt><trkpt lat="45.4394917" lon="8.2415933"><ele>179.0</ele><time>2026-04-04T09:36:08.942Z</time></trkpt><trkpt lat="45.4395417" lon="8.24191"><ele>178.0</ele><time>2026-04-04T09:36:09.943Z</time></trkpt><trkpt lat="45.4395917" lon="8.2422467"><ele>179.5</ele><time>2026-04-04T09:36:10.943Z</time></trkpt><trkpt lat="45.439655" lon="8.2425783"><ele>181.0</ele><time>2026-04-04T09:36:11.943Z</time></trkpt><trkpt lat="45.4397133" lon="8.242925"><ele>180.5</ele><time>2026-04-04T09:36:12.943Z</time></trkpt><trkpt lat="45.4397733" lon="8.24329"><ele>180.0</ele><time>2026-04-04T09:36:13.943Z</time></trkpt><trkpt lat="45.4398367" lon="8.2436583"><ele>179.5</ele><time>2026-04-04T09:36:14.943Z</time></trkpt><trkpt lat="45.4399" lon="8.244045"><ele>179.0</ele><time>2026-04-04T09:36:15.942Z</time></trkpt><trkpt lat="45.4399667" lon="8.2444267"><ele>179.0</ele><time>2026-04-04T09:36:16.943Z</time></trkpt><trkpt lat="45.4400383" lon="8.2448117"><ele>179.0</ele><time>2026-04-04T09:36:17.943Z</time></trkpt><trkpt lat="45.440105" lon="8.2452083"><ele>179.0</ele><time>2026-04-04T09:36:18.943Z</time></trkpt><trkpt lat="45.4401733" lon="8.2456083"><ele>179.0</ele><time>2026-04-04T09:36:19.943Z</time></trkpt><trkpt lat="45.4402417" lon="8.2460133"><ele>178.0</ele><time>2026-04-04T09:36:20.943Z</time></trkpt><trkpt lat="45.4403067" lon="8.2464117"><ele>177.0</ele><time>2026-04-04T09:36:21.943Z</time></trkpt><trkpt lat="45.440375" lon="8.2468033"><ele>176.5</ele><time>2026-04-04T09:36:22.942Z</time></trkpt><trkpt lat="45.44045" lon="8.2472033"><ele>176.0</ele><time>2026-04-04T09:36:23.943Z</time></trkpt><trkpt lat="45.4405117" lon="8.2476017"><ele>175.0</ele><time>2026-04-04T09:36:24.943Z</time></trkpt><trkpt lat="45.4405717" lon="8.2480067"><ele>174.0</ele><time>2026-04-04T09:36:25.943Z</time></trkpt><trkpt lat="45.4406333" lon="8.2484083"><ele>174.0</ele><time>2026-04-04T09:36:26.943Z</time></trkpt><trkpt lat="45.4407017" lon="8.2488117"><ele>174.0</ele><time>2026-04-04T09:36:27.942Z</time></trkpt><trkpt lat="45.440765" lon="8.2492133"><ele>174.0</ele><time>2026-04-04T09:36:28.943Z</time></trkpt><trkpt lat="45.44083" lon="8.2496133"><ele>174.0</ele><time>2026-04-04T09:36:29.943Z</time></trkpt><trkpt lat="45.440895" lon="8.2500117"><ele>173.5</ele><time>2026-04-04T09:36:30.943Z</time></trkpt><trkpt lat="45.44097" lon="8.25041"><ele>173.0</ele><time>2026-04-04T09:36:31.943Z</time></trkpt><trkpt lat="45.44104" lon="8.250805"><ele>173.0</ele><time>2026-04-04T09:36:32.943Z</time></trkpt><trkpt lat="45.4411083" lon="8.251205"><ele>173.0</ele><time>2026-04-04T09:36:33.943Z</time></trkpt><trkpt lat="45.4411717" lon="8.251615"><ele>173.0</ele><time>2026-04-04T09:36:34.943Z</time></trkpt><trkpt lat="45.4412367" lon="8.2520233"><ele>173.0</ele><time>2026-04-04T09:36:35.943Z</time></trkpt><trkpt lat="45.4413133" lon="8.2524217"><ele>173.0</ele><time>2026-04-04T09:36:36.942Z</time></trkpt><trkpt lat="45.4413867" lon="8.2528183"><ele>173.0</ele><time>2026-04-04T09:36:37.943Z</time></trkpt><trkpt lat="45.441465" lon="8.253225"><ele>173.0</ele><time>2026-04-04T09:36:38.943Z</time></trkpt><trkpt lat="45.4415317" lon="8.2536317"><ele>173.0</ele><time>2026-04-04T09:36:39.943Z</time></trkpt><trkpt lat="45.441605" lon="8.254025"><ele>173.0</ele><time>2026-04-04T09:36:40.943Z</time></trkpt><trkpt lat="45.441675" lon="8.2544283"><ele>173.0</ele><time>2026-04-04T09:36:41.942Z</time></trkpt><trkpt lat="45.4417367" lon="8.25484"><ele>173.0</ele><time>2026-04-04T09:36:42.943Z</time></trkpt><trkpt lat="45.4418017" lon="8.2552533"><ele>173.0</ele><time>2026-04-04T09:36:43.943Z</time></trkpt><trkpt lat="45.4418533" lon="8.2556617"><ele>172.5</ele><time>2026-04-04T09:36:44.942Z</time></trkpt><trkpt lat="45.4419133" lon="8.25607"><ele>172.0</ele><time>2026-04-04T09:36:45.943Z</time></trkpt><trkpt lat="45.4419733" lon="8.2565017"><ele>172.0</ele><time>2026-04-04T09:36:46.943Z</time></trkpt><trkpt lat="45.44204" lon="8.2569467"><ele>172.0</ele><time>2026-04-04T09:36:47.943Z</time></trkpt><trkpt lat="45.4421117" lon="8.2574067"><ele>173.0</ele><time>2026-04-04T09:36:48.943Z</time></trkpt><trkpt lat="45.4421933" lon="8.2578783"><ele>174.0</ele><time>2026-04-04T09:36:49.943Z</time></trkpt><trkpt lat="45.4422883" lon="8.258355"><ele>173.5</ele><time>2026-04-04T09:36:50.943Z</time></trkpt><trkpt lat="45.4423567" lon="8.2588433"><ele>173.0</ele><time>2026-04-04T09:36:51.943Z</time></trkpt><trkpt lat="45.4424417" lon="8.2593283"><ele>173.0</ele><time>2026-04-04T09:36:52.943Z</time></trkpt><trkpt lat="45.4425267" lon="8.2598167"><ele>173.0</ele><time>2026-04-04T09:36:53.943Z</time></trkpt><trkpt lat="45.4426067" lon="8.26031"><ele>173.0</ele><time>2026-04-04T09:36:54.943Z</time></trkpt><trkpt lat="45.4426867" lon="8.2607933"><ele>173.0</ele><time>2026-04-04T09:36:55.943Z</time></trkpt><trkpt lat="45.44277" lon="8.2612583"><ele>172.0</ele><time>2026-04-04T09:36:56.943Z</time></trkpt><trkpt lat="45.442855" lon="8.2617033"><ele>171.0</ele><time>2026-04-04T09:36:57.943Z</time></trkpt><trkpt lat="45.4429333" lon="8.262145"><ele>171.5</ele><time>2026-04-04T09:36:58.942Z</time></trkpt><trkpt lat="45.443015" lon="8.2625783"><ele>172.0</ele><time>2026-04-04T09:36:59.943Z</time></trkpt><trkpt lat="45.4430983" lon="8.2630317"><ele>171.5</ele><time>2026-04-04T09:37:00.943Z</time></trkpt><trkpt lat="45.443185" lon="8.2634817"><ele>171.0</ele><time>2026-04-04T09:37:01.943Z</time></trkpt><trkpt lat="45.4432817" lon="8.263935"><ele>171.5</ele><time>2026-04-04T09:37:02.943Z</time></trkpt><trkpt lat="45.4433783" lon="8.2644"><ele>172.0</ele><time>2026-04-04T09:37:03.943Z</time></trkpt><trkpt lat="45.443475" lon="8.26487"><ele>172.0</ele><time>2026-04-04T09:37:04.943Z</time></trkpt><trkpt lat="45.4435733" lon="8.26533"><ele>172.0</ele><time>2026-04-04T09:37:05.943Z</time></trkpt><trkpt lat="45.4436583" lon="8.265795"><ele>171.5</ele><time>2026-04-04T09:37:06.943Z</time></trkpt><trkpt lat="45.443735" lon="8.266255"><ele>171.0</ele><time>2026-04-04T09:37:07.943Z</time></trkpt><trkpt lat="45.443815" lon="8.2666917"><ele>169.5</ele><time>2026-04-04T09:37:08.943Z</time></trkpt><trkpt lat="45.4438917" lon="8.267125"><ele>168.0</ele><time>2026-04-04T09:37:09.943Z</time></trkpt><trkpt lat="45.443975" lon="8.2675467"><ele>168.0</ele><time>2026-04-04T09:37:10.943Z</time></trkpt><trkpt lat="45.4440517" lon="8.26797"><ele>168.0</ele><time>2026-04-04T09:37:11.943Z</time></trkpt><trkpt lat="45.444125" lon="8.2684017"><ele>167.0</ele><time>2026-04-04T09:37:12.943Z</time></trkpt><trkpt lat="45.444195" lon="8.2688267"><ele>166.0</ele><time>2026-04-04T09:37:13.943Z</time></trkpt><trkpt lat="45.444265" lon="8.2692633"><ele>165.0</ele><time>2026-04-04T09:37:14.943Z</time></trkpt><trkpt lat="45.4443367" lon="8.2696917"><ele>164.0</ele><time>2026-04-04T09:37:15.943Z</time></trkpt><trkpt lat="45.4444133" lon="8.27012"><ele>162.0</ele><time>2026-04-04T09:37:16.943Z</time></trkpt><trkpt lat="45.4444783" lon="8.2705517"><ele>160.0</ele><time>2026-04-04T09:37:17.943Z</time></trkpt><trkpt lat="45.4445483" lon="8.27098"><ele>160.0</ele><time>2026-04-04T09:37:18.943Z</time></trkpt><trkpt lat="45.4446117" lon="8.2713967"><ele>160.0</ele><time>2026-04-04T09:37:19.943Z</time></trkpt><trkpt lat="45.444675" lon="8.2718083"><ele>160.0</ele><time>2026-04-04T09:37:20.943Z</time></trkpt><trkpt lat="45.4447367" lon="8.2722233"><ele>160.0</ele><time>2026-04-04T09:37:21.942Z</time></trkpt><trkpt lat="45.444795" lon="8.27264"><ele>160.0</ele><time>2026-04-04T09:37:22.942Z</time></trkpt><trkpt lat="45.4448533" lon="8.2730517"><ele>160.0</ele><time>2026-04-04T09:37:23.942Z</time></trkpt><trkpt lat="45.4449183" lon="8.27346"><ele>160.5</ele><time>2026-04-04T09:37:24.942Z</time></trkpt><trkpt lat="45.4449733" lon="8.273865"><ele>161.0</ele><time>2026-04-04T09:37:25.942Z</time></trkpt><trkpt lat="45.4450333" lon="8.2742717"><ele>161.5</ele><time>2026-04-04T09:37:26.942Z</time></trkpt><trkpt lat="45.4450983" lon="8.2746817"><ele>162.0</ele><time>2026-04-04T09:37:27.941Z</time></trkpt><trkpt lat="45.4451517" lon="8.2750933"><ele>162.0</ele><time>2026-04-04T09:37:28.942Z</time></trkpt><trkpt lat="45.4452083" lon="8.2755083"><ele>162.0</ele><time>2026-04-04T09:37:29.942Z</time></trkpt><trkpt lat="45.44526" lon="8.27592"><ele>162.0</ele><time>2026-04-04T09:37:30.942Z</time></trkpt><trkpt lat="45.4453183" lon="8.2763383"><ele>162.0</ele><time>2026-04-04T09:37:31.942Z</time></trkpt><trkpt lat="45.4453733" lon="8.2767483"><ele>162.0</ele><time>2026-04-04T09:37:32.941Z</time></trkpt><trkpt lat="45.4454317" lon="8.2771533"><ele>162.0</ele><time>2026-04-04T09:37:33.942Z</time></trkpt><trkpt lat="45.44549" lon="8.2775583"><ele>162.0</ele><time>2026-04-04T09:37:34.942Z</time></trkpt><trkpt lat="45.4455517" lon="8.277965"><ele>162.0</ele><time>2026-04-04T09:37:35.941Z</time></trkpt><trkpt lat="45.445615" lon="8.2783683"><ele>161.5</ele><time>2026-04-04T09:37:36.942Z</time></trkpt><trkpt lat="45.4456783" lon="8.27878"><ele>161.0</ele><time>2026-04-04T09:37:37.942Z</time></trkpt><trkpt lat="45.4457383" lon="8.2791833"><ele>161.0</ele><time>2026-04-04T09:37:38.942Z</time></trkpt><trkpt lat="45.4458033" lon="8.2795783"><ele>161.0</ele><time>2026-04-04T09:37:39.942Z</time></trkpt><trkpt lat="45.4458617" lon="8.2799917"><ele>161.0</ele><time>2026-04-04T09:37:40.942Z</time></trkpt><trkpt lat="45.4459183" lon="8.2803917"><ele>161.0</ele><time>2026-04-04T09:37:41.942Z</time></trkpt><trkpt lat="45.44599" lon="8.2808033"><ele>161.0</ele><time>2026-04-04T09:37:42.942Z</time></trkpt><trkpt lat="45.4460633" lon="8.2812167"><ele>161.0</ele><time>2026-04-04T09:37:43.942Z</time></trkpt><trkpt lat="45.446145" lon="8.281625"><ele>160.5</ele><time>2026-04-04T09:37:44.942Z</time></trkpt><trkpt lat="45.446225" lon="8.282045"><ele>160.0</ele><time>2026-04-04T09:37:45.942Z</time></trkpt><trkpt lat="45.4463017" lon="8.2824383"><ele>159.5</ele><time>2026-04-04T09:37:46.942Z</time></trkpt><trkpt lat="45.4463683" lon="8.2828283"><ele>159.0</ele><time>2026-04-04T09:37:47.942Z</time></trkpt><trkpt lat="45.44643" lon="8.2832233"><ele>159.0</ele><time>2026-04-04T09:37:48.942Z</time></trkpt><trkpt lat="45.446495" lon="8.2836233"><ele>159.0</ele><time>2026-04-04T09:37:49.942Z</time></trkpt><trkpt lat="45.4465633" lon="8.28402"><ele>159.0</ele><time>2026-04-04T09:37:50.941Z</time></trkpt><trkpt lat="45.4466317" lon="8.2844033"><ele>159.0</ele><time>2026-04-04T09:37:51.942Z</time></trkpt><trkpt lat="45.4466983" lon="8.2847817"><ele>160.0</ele><time>2026-04-04T09:37:52.942Z</time></trkpt><trkpt lat="45.4467583" lon="8.2851733"><ele>161.0</ele><time>2026-04-04T09:37:53.942Z</time></trkpt><trkpt lat="45.4468183" lon="8.2855583"><ele>161.0</ele><time>2026-04-04T09:37:54.942Z</time></trkpt><trkpt lat="45.44688" lon="8.28594"><ele>161.0</ele><time>2026-04-04T09:37:55.942Z</time></trkpt><trkpt lat="45.4469517" lon="8.28631"><ele>162.0</ele><time>2026-04-04T09:37:56.942Z</time></trkpt><trkpt lat="45.447025" lon="8.2867083"><ele>163.0</ele><time>2026-04-04T09:37:57.942Z</time></trkpt><trkpt lat="45.4471" lon="8.2871233"><ele>161.5</ele><time>2026-04-04T09:37:58.942Z</time></trkpt><trkpt lat="45.447175" lon="8.287535"><ele>160.0</ele><time>2026-04-04T09:37:59.942Z</time></trkpt><trkpt lat="45.4472367" lon="8.2879483"><ele>159.5</ele><time>2026-04-04T09:38:00.942Z</time></trkpt><trkpt lat="45.4473033" lon="8.2883667"><ele>159.0</ele><time>2026-04-04T09:38:01.942Z</time></trkpt><trkpt lat="45.4473683" lon="8.2887867"><ele>159.5</ele><time>2026-04-04T09:38:02.942Z</time></trkpt><trkpt lat="45.44744" lon="8.2891967"><ele>160.0</ele><time>2026-04-04T09:38:03.942Z</time></trkpt><trkpt lat="45.44752" lon="8.28961"><ele>160.5</ele><time>2026-04-04T09:38:04.941Z</time></trkpt><trkpt lat="45.447585" lon="8.2900233"><ele>161.0</ele><time>2026-04-04T09:38:05.941Z</time></trkpt><trkpt lat="45.4476483" lon="8.2904383"><ele>161.0</ele><time>2026-04-04T09:38:06.942Z</time></trkpt><trkpt lat="45.447715" lon="8.29085"><ele>161.0</ele><time>2026-04-04T09:38:07.942Z</time></trkpt><trkpt lat="45.4477833" lon="8.29127"><ele>160.0</ele><time>2026-04-04T09:38:08.942Z</time></trkpt><trkpt lat="45.4478433" lon="8.2916933"><ele>159.0</ele><time>2026-04-04T09:38:09.942Z</time></trkpt><trkpt lat="45.4479083" lon="8.2921183"><ele>160.0</ele><time>2026-04-04T09:38:10.941Z</time></trkpt><trkpt lat="45.4479767" lon="8.2925333"><ele>161.0</ele><time>2026-04-04T09:38:11.942Z</time></trkpt><trkpt lat="45.4480433" lon="8.2929467"><ele>161.5</ele><time>2026-04-04T09:38:12.942Z</time></trkpt><trkpt lat="45.4481133" lon="8.293355"><ele>162.0</ele><time>2026-04-04T09:38:13.942Z</time></trkpt><trkpt lat="45.4481817" lon="8.29376"><ele>162.0</ele><time>2026-04-04T09:38:14.942Z</time></trkpt><trkpt lat="45.4482517" lon="8.2941633"><ele>162.0</ele><time>2026-04-04T09:38:15.942Z</time></trkpt><trkpt lat="45.4483217" lon="8.2945683"><ele>161.0</ele><time>2026-04-04T09:38:16.942Z</time></trkpt><trkpt lat="45.4483883" lon="8.2949683"><ele>160.0</ele><time>2026-04-04T09:38:17.942Z</time></trkpt><trkpt lat="45.4484533" lon="8.2953817"><ele>159.5</ele><time>2026-04-04T09:38:18.941Z</time></trkpt><trkpt lat="45.4485167" lon="8.295795"><ele>159.0</ele><time>2026-04-04T09:38:19.941Z</time></trkpt><trkpt lat="45.4485833" lon="8.2962117"><ele>158.5</ele><time>2026-04-04T09:38:20.942Z</time></trkpt><trkpt lat="45.4486517" lon="8.29663"><ele>158.0</ele><time>2026-04-04T09:38:21.942Z</time></trkpt><trkpt lat="45.4487283" lon="8.297045"><ele>158.5</ele><time>2026-04-04T09:38:22.942Z</time></trkpt><trkpt lat="45.4488033" lon="8.2974583"><ele>159.0</ele><time>2026-04-04T09:38:23.942Z</time></trkpt><trkpt lat="45.4488783" lon="8.297865"><ele>159.0</ele><time>2026-04-04T09:38:24.942Z</time></trkpt><trkpt lat="45.4489467" lon="8.2982833"><ele>159.0</ele><time>2026-04-04T09:38:25.941Z</time></trkpt><trkpt lat="45.4490033" lon="8.2987117"><ele>159.0</ele><time>2026-04-04T09:38:26.942Z</time></trkpt><trkpt lat="45.44907" lon="8.29913"><ele>159.0</ele><time>2026-04-04T09:38:27.942Z</time></trkpt><trkpt lat="45.4491417" lon="8.29955"><ele>160.0</ele><time>2026-04-04T09:38:28.942Z</time></trkpt><trkpt lat="45.4492117" lon="8.2999733"><ele>161.0</ele><time>2026-04-04T09:38:29.942Z</time></trkpt><trkpt lat="45.4492833" lon="8.300395"><ele>161.5</ele><time>2026-04-04T09:38:30.942Z</time></trkpt><trkpt lat="45.449355" lon="8.3008067"><ele>162.0</ele><time>2026-04-04T09:38:31.941Z</time></trkpt><trkpt lat="45.4494183" lon="8.3012317"><ele>161.5</ele><time>2026-04-04T09:38:32.942Z</time></trkpt><trkpt lat="45.449495" lon="8.3016483"><ele>161.0</ele><time>2026-04-04T09:38:33.942Z</time></trkpt><trkpt lat="45.4495617" lon="8.3020717"><ele>160.0</ele><time>2026-04-04T09:38:34.941Z</time></trkpt><trkpt lat="45.4496417" lon="8.30249"><ele>159.0</ele><time>2026-04-04T09:38:35.942Z</time></trkpt><trkpt lat="45.4497133" lon="8.30291"><ele>159.5</ele><time>2026-04-04T09:38:36.942Z</time></trkpt><trkpt lat="45.449775" lon="8.3033417"><ele>160.0</ele><time>2026-04-04T09:38:37.942Z</time></trkpt><trkpt lat="45.449845" lon="8.303755"><ele>159.5</ele><time>2026-04-04T09:38:38.942Z</time></trkpt><trkpt lat="45.449915" lon="8.3041767"><ele>159.0</ele><time>2026-04-04T09:38:39.942Z</time></trkpt><trkpt lat="45.44999" lon="8.3045883"><ele>159.0</ele><time>2026-04-04T09:38:40.942Z</time></trkpt><trkpt lat="45.4500567" lon="8.304995"><ele>159.0</ele><time>2026-04-04T09:38:41.941Z</time></trkpt><trkpt lat="45.450125" lon="8.305405"><ele>158.5</ele><time>2026-04-04T09:38:42.942Z</time></trkpt><trkpt lat="45.4502" lon="8.3058167"><ele>158.0</ele><time>2026-04-04T09:38:43.942Z</time></trkpt><trkpt lat="45.4502617" lon="8.306245"><ele>157.5</ele><time>2026-04-04T09:38:44.942Z</time></trkpt><trkpt lat="45.45032" lon="8.30667"><ele>157.0</ele><time>2026-04-04T09:38:45.942Z</time></trkpt><trkpt lat="45.4503883" lon="8.307085"><ele>157.5</ele><time>2026-04-04T09:38:46.942Z</time></trkpt><trkpt lat="45.4504467" lon="8.3074917"><ele>158.0</ele><time>2026-04-04T09:38:47.942Z</time></trkpt><trkpt lat="45.4505083" lon="8.3079"><ele>159.0</ele><time>2026-04-04T09:38:48.942Z</time></trkpt><trkpt lat="45.4505617" lon="8.3083233"><ele>160.0</ele><time>2026-04-04T09:38:49.942Z</time></trkpt><trkpt lat="45.4506267" lon="8.3087283"><ele>160.0</ele><time>2026-04-04T09:38:50.942Z</time></trkpt><trkpt lat="45.4506967" lon="8.3091383"><ele>160.0</ele><time>2026-04-04T09:38:51.942Z</time></trkpt><trkpt lat="45.4507583" lon="8.3095617"><ele>159.5</ele><time>2026-04-04T09:38:52.942Z</time></trkpt><trkpt lat="45.4508317" lon="8.30998"><ele>159.0</ele><time>2026-04-04T09:38:53.942Z</time></trkpt><trkpt lat="45.4509033" lon="8.3103867"><ele>159.0</ele><time>2026-04-04T09:38:54.942Z</time></trkpt><trkpt lat="45.4509817" lon="8.3107867"><ele>159.0</ele><time>2026-04-04T09:38:55.942Z</time></trkpt><trkpt lat="45.4510517" lon="8.3112067"><ele>161.0</ele><time>2026-04-04T09:38:56.942Z</time></trkpt><trkpt lat="45.4511167" lon="8.311625"><ele>163.0</ele><time>2026-04-04T09:38:57.942Z</time></trkpt><trkpt lat="45.4511783" lon="8.3120467"><ele>167.0</ele><time>2026-04-04T09:38:58.941Z</time></trkpt><trkpt lat="45.45125" lon="8.31247"><ele>171.0</ele><time>2026-04-04T09:38:59.942Z</time></trkpt><trkpt lat="45.4513117" lon="8.3128883"><ele>171.5</ele><time>2026-04-04T09:39:00.941Z</time></trkpt><trkpt lat="45.4513767" lon="8.3133117"><ele>172.0</ele><time>2026-04-04T09:39:01.942Z</time></trkpt><trkpt lat="45.4514533" lon="8.3137233"><ele>171.5</ele><time>2026-04-04T09:39:02.942Z</time></trkpt><trkpt lat="45.4515267" lon="8.3141367"><ele>171.0</ele><time>2026-04-04T09:39:03.942Z</time></trkpt><trkpt lat="45.451595" lon="8.3145517"><ele>170.0</ele><time>2026-04-04T09:39:04.942Z</time></trkpt><trkpt lat="45.4516617" lon="8.3149867"><ele>169.0</ele><time>2026-04-04T09:39:05.942Z</time></trkpt><trkpt lat="45.451735" lon="8.3154083"><ele>168.5</ele><time>2026-04-04T09:39:06.942Z</time></trkpt><trkpt lat="45.4518017" lon="8.3158233"><ele>168.0</ele><time>2026-04-04T09:39:07.941Z</time></trkpt><trkpt lat="45.45188" lon="8.316235"><ele>168.5</ele><time>2026-04-04T09:39:08.942Z</time></trkpt><trkpt lat="45.4519483" lon="8.3166667"><ele>169.0</ele><time>2026-04-04T09:39:09.942Z</time></trkpt><trkpt lat="45.4520117" lon="8.31709"><ele>168.5</ele><time>2026-04-04T09:39:10.942Z</time></trkpt><trkpt lat="45.4520783" lon="8.3175117"><ele>168.0</ele><time>2026-04-04T09:39:11.942Z</time></trkpt><trkpt lat="45.4521483" lon="8.31793"><ele>168.5</ele><time>2026-04-04T09:39:12.942Z</time></trkpt><trkpt lat="45.4522167" lon="8.31837"><ele>169.0</ele><time>2026-04-04T09:39:13.942Z</time></trkpt><trkpt lat="45.4522917" lon="8.31879"><ele>170.0</ele><time>2026-04-04T09:39:14.942Z</time></trkpt><trkpt lat="45.452365" lon="8.3192083"><ele>171.0</ele><time>2026-04-04T09:39:15.941Z</time></trkpt><trkpt lat="45.4524433" lon="8.3196267"><ele>170.5</ele><time>2026-04-04T09:39:16.942Z</time></trkpt><trkpt lat="45.4525183" lon="8.3200483"><ele>170.0</ele><time>2026-04-04T09:39:17.942Z</time></trkpt><trkpt lat="45.4525867" lon="8.320475"><ele>170.0</ele><time>2026-04-04T09:39:18.942Z</time></trkpt><trkpt lat="45.4526533" lon="8.3208867"><ele>170.0</ele><time>2026-04-04T09:39:19.942Z</time></trkpt><trkpt lat="45.4527117" lon="8.3213117"><ele>170.0</ele><time>2026-04-04T09:39:20.941Z</time></trkpt><trkpt lat="45.4527767" lon="8.3217317"><ele>170.0</ele><time>2026-04-04T09:39:21.942Z</time></trkpt><trkpt lat="45.4528417" lon="8.322145"><ele>170.0</ele><time>2026-04-04T09:39:22.941Z</time></trkpt><trkpt lat="45.4529117" lon="8.3225517"><ele>170.0</ele><time>2026-04-04T09:39:23.942Z</time></trkpt><trkpt lat="45.4529717" lon="8.322965"><ele>171.0</ele><time>2026-04-04T09:39:24.942Z</time></trkpt><trkpt lat="45.4530433" lon="8.3233783"><ele>172.0</ele><time>2026-04-04T09:39:25.942Z</time></trkpt><trkpt lat="45.4531117" lon="8.3237883"><ele>171.5</ele><time>2026-04-04T09:39:26.942Z</time></trkpt><trkpt lat="45.4531867" lon="8.324195"><ele>171.0</ele><time>2026-04-04T09:39:27.942Z</time></trkpt><trkpt lat="45.4532567" lon="8.3246067"><ele>171.0</ele><time>2026-04-04T09:39:28.942Z</time></trkpt><trkpt lat="45.45333" lon="8.3250183"><ele>171.0</ele><time>2026-04-04T09:39:29.941Z</time></trkpt><trkpt lat="45.4533967" lon="8.3254383"><ele>171.5</ele><time>2026-04-04T09:39:30.942Z</time></trkpt><trkpt lat="45.4534633" lon="8.3258567"><ele>172.0</ele><time>2026-04-04T09:39:31.941Z</time></trkpt><trkpt lat="45.4535233" lon="8.32628"><ele>171.5</ele><time>2026-04-04T09:39:32.941Z</time></trkpt><trkpt lat="45.4535817" lon="8.3266967"><ele>171.0</ele><time>2026-04-04T09:39:33.941Z</time></trkpt><trkpt lat="45.4536533" lon="8.327115"><ele>171.0</ele><time>2026-04-04T09:39:34.942Z</time></trkpt><trkpt lat="45.4537233" lon="8.32752"><ele>171.0</ele><time>2026-04-04T09:39:35.941Z</time></trkpt><trkpt lat="45.453795" lon="8.3279317"><ele>171.5</ele><time>2026-04-04T09:39:36.942Z</time></trkpt><trkpt lat="45.4538633" lon="8.3283467"><ele>172.0</ele><time>2026-04-04T09:39:37.942Z</time></trkpt><trkpt lat="45.45393" lon="8.3287617"><ele>171.5</ele><time>2026-04-04T09:39:38.942Z</time></trkpt><trkpt lat="45.454" lon="8.3291717"><ele>171.0</ele><time>2026-04-04T09:39:39.941Z</time></trkpt><trkpt lat="45.4540633" lon="8.329605"><ele>170.5</ele><time>2026-04-04T09:39:40.942Z</time></trkpt><trkpt lat="45.45414" lon="8.33003"><ele>170.0</ele><time>2026-04-04T09:39:41.942Z</time></trkpt><trkpt lat="45.45421" lon="8.330465"><ele>170.5</ele><time>2026-04-04T09:39:42.942Z</time></trkpt><trkpt lat="45.45428" lon="8.3308867"><ele>171.0</ele><time>2026-04-04T09:39:43.942Z</time></trkpt><trkpt lat="45.4543517" lon="8.3312983"><ele>170.5</ele><time>2026-04-04T09:39:44.941Z</time></trkpt><trkpt lat="45.4544233" lon="8.3317083"><ele>170.0</ele><time>2026-04-04T09:39:45.942Z</time></trkpt><trkpt lat="45.454485" lon="8.33213"><ele>170.5</ele><time>2026-04-04T09:39:46.941Z</time></trkpt><trkpt lat="45.4545533" lon="8.332545"><ele>171.0</ele><time>2026-04-04T09:39:47.942Z</time></trkpt><trkpt lat="45.4546233" lon="8.332955"><ele>168.5</ele><time>2026-04-04T09:39:48.942Z</time></trkpt><trkpt lat="45.454685" lon="8.3333717"><ele>166.0</ele><time>2026-04-04T09:39:49.942Z</time></trkpt><trkpt lat="45.454745" lon="8.3338"><ele>165.5</ele><time>2026-04-04T09:39:50.942Z</time></trkpt><trkpt lat="45.4548167" lon="8.334215"><ele>165.0</ele><time>2026-04-04T09:39:51.942Z</time></trkpt><trkpt lat="45.4548867" lon="8.3346317"><ele>165.0</ele><time>2026-04-04T09:39:52.942Z</time></trkpt><trkpt lat="45.45497" lon="8.3350383"><ele>165.0</ele><time>2026-04-04T09:39:53.942Z</time></trkpt><trkpt lat="45.4550417" lon="8.33545"><ele>165.0</ele><time>2026-04-04T09:39:54.942Z</time></trkpt><trkpt lat="45.4551133" lon="8.3358617"><ele>165.0</ele><time>2026-04-04T09:39:55.942Z</time></trkpt><trkpt lat="45.4551767" lon="8.336275"><ele>164.5</ele><time>2026-04-04T09:39:56.942Z</time></trkpt><trkpt lat="45.4552417" lon="8.33668"><ele>164.0</ele><time>2026-04-04T09:39:57.942Z</time></trkpt><trkpt lat="45.4553167" lon="8.33708"><ele>164.5</ele><time>2026-04-04T09:39:58.942Z</time></trkpt><trkpt lat="45.455385" lon="8.3374883"><ele>165.0</ele><time>2026-04-04T09:39:59.941Z</time></trkpt><trkpt lat="45.45545" lon="8.3378917"><ele>164.0</ele><time>2026-04-04T09:40:00.942Z</time></trkpt><trkpt lat="45.4555133" lon="8.3383017"><ele>163.0</ele><time>2026-04-04T09:40:01.942Z</time></trkpt><trkpt lat="45.4555767" lon="8.3387133"><ele>162.5</ele><time>2026-04-04T09:40:02.942Z</time></trkpt><trkpt lat="45.4556383" lon="8.3391283"><ele>162.0</ele><time>2026-04-04T09:40:03.942Z</time></trkpt><trkpt lat="45.4557067" lon="8.339535"><ele>164.0</ele><time>2026-04-04T09:40:04.942Z</time></trkpt><trkpt lat="45.4557783" lon="8.339945"><ele>166.0</ele><time>2026-04-04T09:40:05.942Z</time></trkpt><trkpt lat="45.45585" lon="8.340355"><ele>168.5</ele><time>2026-04-04T09:40:06.942Z</time></trkpt><trkpt lat="45.4559217" lon="8.3407683"><ele>171.0</ele><time>2026-04-04T09:40:07.942Z</time></trkpt><trkpt lat="45.455985" lon="8.3411867"><ele>172.0</ele><time>2026-04-04T09:40:08.942Z</time></trkpt><trkpt lat="45.4560483" lon="8.3416017"><ele>173.0</ele><time>2026-04-04T09:40:09.942Z</time></trkpt><trkpt lat="45.4561133" lon="8.3420133"><ele>172.0</ele><time>2026-04-04T09:40:10.942Z</time></trkpt><trkpt lat="45.4561817" lon="8.3424233"><ele>171.0</ele><time>2026-04-04T09:40:11.942Z</time></trkpt><trkpt lat="45.45625" lon="8.342835"><ele>171.0</ele><time>2026-04-04T09:40:12.942Z</time></trkpt><trkpt lat="45.4563167" lon="8.3432483"><ele>171.0</ele><time>2026-04-04T09:40:13.942Z</time></trkpt><trkpt lat="45.4563917" lon="8.34366"><ele>172.0</ele><time>2026-04-04T09:40:14.942Z</time></trkpt><trkpt lat="45.45646" lon="8.3440717"><ele>173.0</ele><time>2026-04-04T09:40:15.942Z</time></trkpt><trkpt lat="45.45653" lon="8.3444867"><ele>172.0</ele><time>2026-04-04T09:40:16.942Z</time></trkpt><trkpt lat="45.4565967" lon="8.3449083"><ele>171.0</ele><time>2026-04-04T09:40:17.941Z</time></trkpt><trkpt lat="45.45666" lon="8.3453283"><ele>171.5</ele><time>2026-04-04T09:40:18.942Z</time></trkpt><trkpt lat="45.4567133" lon="8.3457467"><ele>172.0</ele><time>2026-04-04T09:40:19.942Z</time></trkpt><trkpt lat="45.456775" lon="8.3461667"><ele>171.5</ele><time>2026-04-04T09:40:20.942Z</time></trkpt><trkpt lat="45.45684" lon="8.3465833"><ele>171.0</ele><time>2026-04-04T09:40:21.942Z</time></trkpt><trkpt lat="45.45691" lon="8.347005"><ele>171.0</ele><time>2026-04-04T09:40:22.942Z</time></trkpt><trkpt lat="45.4569783" lon="8.3474233"><ele>171.0</ele><time>2026-04-04T09:40:23.942Z</time></trkpt><trkpt lat="45.4570517" lon="8.3478333"><ele>171.0</ele><time>2026-04-04T09:40:24.942Z</time></trkpt><trkpt lat="45.4571217" lon="8.3482483"><ele>171.0</ele><time>2026-04-04T09:40:25.942Z</time></trkpt><trkpt lat="45.457195" lon="8.348655"><ele>171.0</ele><time>2026-04-04T09:40:26.941Z</time></trkpt><trkpt lat="45.4572667" lon="8.3490567"><ele>171.0</ele><time>2026-04-04T09:40:27.942Z</time></trkpt><trkpt lat="45.4573367" lon="8.3494617"><ele>171.0</ele><time>2026-04-04T09:40:28.942Z</time></trkpt><trkpt lat="45.4573933" lon="8.3498717"><ele>171.0</ele><time>2026-04-04T09:40:29.941Z</time></trkpt><trkpt lat="45.457465" lon="8.3502767"><ele>171.5</ele><time>2026-04-04T09:40:30.942Z</time></trkpt><trkpt lat="45.4575317" lon="8.3506933"><ele>172.0</ele><time>2026-04-04T09:40:31.942Z</time></trkpt><trkpt lat="45.4576033" lon="8.3511017"><ele>171.5</ele><time>2026-04-04T09:40:32.942Z</time></trkpt><trkpt lat="45.4576733" lon="8.3515083"><ele>171.0</ele><time>2026-04-04T09:40:33.941Z</time></trkpt><trkpt lat="45.4577367" lon="8.3519083"><ele>170.0</ele><time>2026-04-04T09:40:34.942Z</time></trkpt><trkpt lat="45.4578117" lon="8.3523217"><ele>169.0</ele><time>2026-04-04T09:40:35.942Z</time></trkpt><trkpt lat="45.457875" lon="8.352735"><ele>168.5</ele><time>2026-04-04T09:40:36.942Z</time></trkpt><trkpt lat="45.45794" lon="8.3531517"><ele>168.0</ele><time>2026-04-04T09:40:37.942Z</time></trkpt><trkpt lat="45.45801" lon="8.3535667"><ele>168.0</ele><time>2026-04-04T09:40:38.942Z</time></trkpt><trkpt lat="45.4580783" lon="8.3539883"><ele>168.0</ele><time>2026-04-04T09:40:39.942Z</time></trkpt><trkpt lat="45.4581533" lon="8.3543967"><ele>167.0</ele><time>2026-04-04T09:40:40.941Z</time></trkpt><trkpt lat="45.45823" lon="8.354805"><ele>166.0</ele><time>2026-04-04T09:40:41.941Z</time></trkpt><trkpt lat="45.458295" lon="8.3552033"><ele>167.0</ele><time>2026-04-04T09:40:42.942Z</time></trkpt><trkpt lat="45.4583567" lon="8.3555983"><ele>168.0</ele><time>2026-04-04T09:40:43.942Z</time></trkpt><trkpt lat="45.4584183" lon="8.3559967"><ele>166.5</ele><time>2026-04-04T09:40:44.942Z</time></trkpt><trkpt lat="45.4584883" lon="8.3564"><ele>165.0</ele><time>2026-04-04T09:40:45.942Z</time></trkpt><trkpt lat="45.458545" lon="8.3568083"><ele>165.0</ele><time>2026-04-04T09:40:46.942Z</time></trkpt><trkpt lat="45.4586083" lon="8.3572117"><ele>165.0</ele><time>2026-04-04T09:40:47.942Z</time></trkpt><trkpt lat="45.4586717" lon="8.3576233"><ele>165.0</ele><time>2026-04-04T09:40:48.942Z</time></trkpt><trkpt lat="45.4587417" lon="8.3580217"><ele>165.0</ele><time>2026-04-04T09:40:49.941Z</time></trkpt><trkpt lat="45.45881" lon="8.358435"><ele>166.5</ele><time>2026-04-04T09:40:50.942Z</time></trkpt><trkpt lat="45.45889" lon="8.3588417"><ele>168.0</ele><time>2026-04-04T09:40:51.942Z</time></trkpt><trkpt lat="45.45896" lon="8.3592517"><ele>168.5</ele><time>2026-04-04T09:40:52.941Z</time></trkpt><trkpt lat="45.459025" lon="8.35968"><ele>169.0</ele><time>2026-04-04T09:40:53.942Z</time></trkpt><trkpt lat="45.4591" lon="8.3600883"><ele>169.0</ele><time>2026-04-04T09:40:54.942Z</time></trkpt><trkpt lat="45.4591667" lon="8.3604933"><ele>169.0</ele><time>2026-04-04T09:40:55.942Z</time></trkpt><trkpt lat="45.459235" lon="8.3609117"><ele>169.0</ele><time>2026-04-04T09:40:56.942Z</time></trkpt><trkpt lat="45.4592983" lon="8.3613317"><ele>169.0</ele><time>2026-04-04T09:40:57.942Z</time></trkpt><trkpt lat="45.4593667" lon="8.361755"><ele>168.0</ele><time>2026-04-04T09:40:58.942Z</time></trkpt><trkpt lat="45.4594333" lon="8.362165"><ele>167.0</ele><time>2026-04-04T09:40:59.942Z</time></trkpt><trkpt lat="45.4595017" lon="8.3625767"><ele>166.5</ele><time>2026-04-04T09:41:00.942Z</time></trkpt><trkpt lat="45.4595667" lon="8.362995"><ele>166.0</ele><time>2026-04-04T09:41:01.941Z</time></trkpt><trkpt lat="45.45963" lon="8.3634167"><ele>166.0</ele><time>2026-04-04T09:41:02.942Z</time></trkpt><trkpt lat="45.4596883" lon="8.3638533"><ele>166.0</ele><time>2026-04-04T09:41:03.942Z</time></trkpt><trkpt lat="45.4597533" lon="8.3642783"><ele>165.0</ele><time>2026-04-04T09:41:04.941Z</time></trkpt><trkpt lat="45.4598133" lon="8.3647017"><ele>164.0</ele><time>2026-04-04T09:41:05.942Z</time></trkpt><trkpt lat="45.459875" lon="8.3651167"><ele>163.5</ele><time>2026-04-04T09:41:06.941Z</time></trkpt><trkpt lat="45.4599367" lon="8.36553"><ele>163.0</ele><time>2026-04-04T09:41:07.942Z</time></trkpt><trkpt lat="45.4599917" lon="8.3659467"><ele>162.0</ele><time>2026-04-04T09:41:08.942Z</time></trkpt><trkpt lat="45.4600517" lon="8.3663633"><ele>161.0</ele><time>2026-04-04T09:41:09.942Z</time></trkpt><trkpt lat="45.4601017" lon="8.3667767"><ele>161.5</ele><time>2026-04-04T09:41:10.942Z</time></trkpt><trkpt lat="45.46015" lon="8.367195"><ele>162.0</ele><time>2026-04-04T09:41:11.942Z</time></trkpt><trkpt lat="45.4602033" lon="8.3675933"><ele>162.0</ele><time>2026-04-04T09:41:12.942Z</time></trkpt><trkpt lat="45.4602517" lon="8.3679933"><ele>162.0</ele><time>2026-04-04T09:41:13.942Z</time></trkpt><trkpt lat="45.4602983" lon="8.3683967"><ele>162.0</ele><time>2026-04-04T09:41:14.942Z</time></trkpt><trkpt lat="45.4603483" lon="8.3688017"><ele>162.0</ele><time>2026-04-04T09:41:15.942Z</time></trkpt><trkpt lat="45.460395" lon="8.3692033"><ele>162.5</ele><time>2026-04-04T09:41:16.942Z</time></trkpt><trkpt lat="45.4604433" lon="8.3696133"><ele>163.0</ele><time>2026-04-04T09:41:17.942Z</time></trkpt><trkpt lat="45.4604833" lon="8.3700233"><ele>163.5</ele><time>2026-04-04T09:41:18.942Z</time></trkpt><trkpt lat="45.460535" lon="8.3704183"><ele>164.0</ele><time>2026-04-04T09:41:19.942Z</time></trkpt><trkpt lat="45.46058" lon="8.3708283"><ele>164.0</ele><time>2026-04-04T09:41:20.942Z</time></trkpt><trkpt lat="45.460625" lon="8.371245"><ele>164.0</ele><time>2026-04-04T09:41:21.942Z</time></trkpt><trkpt lat="45.4606683" lon="8.3716583"><ele>164.5</ele><time>2026-04-04T09:41:22.942Z</time></trkpt><trkpt lat="45.46071" lon="8.3720817"><ele>165.0</ele><time>2026-04-04T09:41:23.942Z</time></trkpt><trkpt lat="45.4607517" lon="8.3725033"><ele>165.0</ele><time>2026-04-04T09:41:24.942Z</time></trkpt><trkpt lat="45.4607867" lon="8.372935"><ele>165.0</ele><time>2026-04-04T09:41:25.942Z</time></trkpt><trkpt lat="45.46083" lon="8.37335"><ele>164.0</ele><time>2026-04-04T09:41:26.942Z</time></trkpt><trkpt lat="45.46087" lon="8.3737633"><ele>163.0</ele><time>2026-04-04T09:41:27.942Z</time></trkpt><trkpt lat="45.4609083" lon="8.3741767"><ele>163.0</ele><time>2026-04-04T09:41:28.942Z</time></trkpt><trkpt lat="45.4609433" lon="8.3745833"><ele>163.0</ele><time>2026-04-04T09:41:29.942Z</time></trkpt><trkpt lat="45.4609867" lon="8.3749983"><ele>163.0</ele><time>2026-04-04T09:41:30.942Z</time></trkpt><trkpt lat="45.4610283" lon="8.3754133"><ele>163.0</ele><time>2026-04-04T09:41:31.942Z</time></trkpt><trkpt lat="45.4610517" lon="8.3758383"><ele>163.0</ele><time>2026-04-04T09:41:32.942Z</time></trkpt><trkpt lat="45.461095" lon="8.376245"><ele>163.0</ele><time>2026-04-04T09:41:33.942Z</time></trkpt><trkpt lat="45.4611317" lon="8.37666"><ele>164.0</ele><time>2026-04-04T09:41:34.941Z</time></trkpt><trkpt lat="45.4611683" lon="8.3770783"><ele>165.0</ele><time>2026-04-04T09:41:35.942Z</time></trkpt><trkpt lat="45.4612" lon="8.3775017"><ele>165.5</ele><time>2026-04-04T09:41:36.942Z</time></trkpt><trkpt lat="45.46123" lon="8.37793"><ele>166.0</ele><time>2026-04-04T09:41:37.942Z</time></trkpt><trkpt lat="45.4612617" lon="8.37836"><ele>166.0</ele><time>2026-04-04T09:41:38.942Z</time></trkpt><trkpt lat="45.4612867" lon="8.3787817"><ele>166.0</ele><time>2026-04-04T09:41:39.942Z</time></trkpt><trkpt lat="45.46131" lon="8.3792067"><ele>166.0</ele><time>2026-04-04T09:41:40.942Z</time></trkpt><trkpt lat="45.4613267" lon="8.37963"><ele>166.0</ele><time>2026-04-04T09:41:41.942Z</time></trkpt><trkpt lat="45.461345" lon="8.3800433"><ele>165.5</ele><time>2026-04-04T09:41:42.942Z</time></trkpt><trkpt lat="45.46136" lon="8.3804683"><ele>165.0</ele><time>2026-04-04T09:41:43.941Z</time></trkpt><trkpt lat="45.46138" lon="8.3808833"><ele>165.0</ele><time>2026-04-04T09:41:44.941Z</time></trkpt><trkpt lat="45.4613983" lon="8.38131"><ele>165.0</ele><time>2026-04-04T09:41:45.941Z</time></trkpt><trkpt lat="45.46142" lon="8.3817367"><ele>165.0</ele><time>2026-04-04T09:41:46.941Z</time></trkpt><trkpt lat="45.461435" lon="8.38217"><ele>165.0</ele><time>2026-04-04T09:41:47.941Z</time></trkpt><trkpt lat="45.46145" lon="8.3825833"><ele>165.0</ele><time>2026-04-04T09:41:48.941Z</time></trkpt><trkpt lat="45.4614733" lon="8.3830067"><ele>165.0</ele><time>2026-04-04T09:41:49.941Z</time></trkpt><trkpt lat="45.4615" lon="8.3834233"><ele>164.0</ele><time>2026-04-04T09:41:50.941Z</time></trkpt><trkpt lat="45.4615217" lon="8.38385"><ele>163.0</ele><time>2026-04-04T09:41:51.941Z</time></trkpt><trkpt lat="45.4615483" lon="8.3842633"><ele>165.0</ele><time>2026-04-04T09:41:52.941Z</time></trkpt><trkpt lat="45.4615683" lon="8.3846817"><ele>167.0</ele><time>2026-04-04T09:41:53.94Z</time></trkpt><trkpt lat="45.4615967" lon="8.385095"><ele>167.0</ele><time>2026-04-04T09:41:54.941Z</time></trkpt><trkpt lat="45.4616117" lon="8.3855083"><ele>167.0</ele><time>2026-04-04T09:41:55.941Z</time></trkpt><trkpt lat="45.4616367" lon="8.38592"><ele>167.5</ele><time>2026-04-04T09:41:56.941Z</time></trkpt><trkpt lat="45.46166" lon="8.3863333"><ele>168.0</ele><time>2026-04-04T09:41:57.941Z</time></trkpt><trkpt lat="45.4616817" lon="8.38675"><ele>167.0</ele><time>2026-04-04T09:41:58.941Z</time></trkpt><trkpt lat="45.4617067" lon="8.38716"><ele>166.0</ele><time>2026-04-04T09:41:59.941Z</time></trkpt><trkpt lat="45.461735" lon="8.387575"><ele>166.0</ele><time>2026-04-04T09:42:00.941Z</time></trkpt><trkpt lat="45.4617633" lon="8.3879933"><ele>166.0</ele><time>2026-04-04T09:42:01.941Z</time></trkpt><trkpt lat="45.46179" lon="8.3884117"><ele>166.0</ele><time>2026-04-04T09:42:02.941Z</time></trkpt><trkpt lat="45.4618067" lon="8.3888383"><ele>166.0</ele><time>2026-04-04T09:42:03.941Z</time></trkpt><trkpt lat="45.461835" lon="8.389255"><ele>166.0</ele><time>2026-04-04T09:42:04.941Z</time></trkpt><trkpt lat="45.461855" lon="8.3896717"><ele>166.0</ele><time>2026-04-04T09:42:05.941Z</time></trkpt><trkpt lat="45.4618817" lon="8.390095"><ele>165.0</ele><time>2026-04-04T09:42:06.941Z</time></trkpt><trkpt lat="45.461915" lon="8.3905183"><ele>164.0</ele><time>2026-04-04T09:42:07.941Z</time></trkpt><trkpt lat="45.4619517" lon="8.3909367"><ele>164.0</ele><time>2026-04-04T09:42:08.941Z</time></trkpt><trkpt lat="45.4619967" lon="8.391355"><ele>164.0</ele><time>2026-04-04T09:42:09.941Z</time></trkpt><trkpt lat="45.46204" lon="8.3917833"><ele>164.0</ele><time>2026-04-04T09:42:10.941Z</time></trkpt><trkpt lat="45.462075" lon="8.392255"><ele>164.0</ele><time>2026-04-04T09:42:11.941Z</time></trkpt><trkpt lat="45.4621233" lon="8.39274"><ele>163.5</ele><time>2026-04-04T09:42:12.941Z</time></trkpt><trkpt lat="45.462165" lon="8.393235"><ele>163.0</ele><time>2026-04-04T09:42:13.941Z</time></trkpt><trkpt lat="45.4622" lon="8.393745"><ele>164.0</ele><time>2026-04-04T09:42:14.94Z</time></trkpt><trkpt lat="45.462235" lon="8.3942617"><ele>165.0</ele><time>2026-04-04T09:42:15.941Z</time></trkpt><trkpt lat="45.462265" lon="8.39479"><ele>165.5</ele><time>2026-04-04T09:42:16.941Z</time></trkpt><trkpt lat="45.462295" lon="8.39532"><ele>166.0</ele><time>2026-04-04T09:42:17.94Z</time></trkpt><trkpt lat="45.4623333" lon="8.3958233"><ele>166.5</ele><time>2026-04-04T09:42:18.941Z</time></trkpt><trkpt lat="45.4623633" lon="8.396295"><ele>167.0</ele><time>2026-04-04T09:42:19.941Z</time></trkpt><trkpt lat="45.4623933" lon="8.3967317"><ele>167.5</ele><time>2026-04-04T09:42:20.94Z</time></trkpt><trkpt lat="45.4624167" lon="8.3971517"><ele>168.0</ele><time>2026-04-04T09:42:21.941Z</time></trkpt><trkpt lat="45.4624483" lon="8.3975633"><ele>168.0</ele><time>2026-04-04T09:42:22.941Z</time></trkpt><trkpt lat="45.4624717" lon="8.397975"><ele>168.0</ele><time>2026-04-04T09:42:23.941Z</time></trkpt><trkpt lat="45.4625017" lon="8.3984083"><ele>165.5</ele><time>2026-04-04T09:42:24.941Z</time></trkpt><trkpt lat="45.462525" lon="8.398845"><ele>163.0</ele><time>2026-04-04T09:42:25.94Z</time></trkpt><trkpt lat="45.4625533" lon="8.3992883"><ele>162.5</ele><time>2026-04-04T09:42:26.941Z</time></trkpt><trkpt lat="45.4625767" lon="8.3997283"><ele>162.0</ele><time>2026-04-04T09:42:27.94Z</time></trkpt><trkpt lat="45.4626033" lon="8.4001633"><ele>162.0</ele><time>2026-04-04T09:42:28.941Z</time></trkpt><trkpt lat="45.46263" lon="8.4006"><ele>162.0</ele><time>2026-04-04T09:42:29.941Z</time></trkpt><trkpt lat="45.4626567" lon="8.4010367"><ele>163.0</ele><time>2026-04-04T09:42:30.941Z</time></trkpt><trkpt lat="45.46268" lon="8.4014717"><ele>164.0</ele><time>2026-04-04T09:42:31.941Z</time></trkpt><trkpt lat="45.4627" lon="8.4019017"><ele>165.5</ele><time>2026-04-04T09:42:32.941Z</time></trkpt><trkpt lat="45.4627167" lon="8.4023283"><ele>167.0</ele><time>2026-04-04T09:42:33.941Z</time></trkpt><trkpt lat="45.4627367" lon="8.40277"><ele>166.5</ele><time>2026-04-04T09:42:34.941Z</time></trkpt><trkpt lat="45.46276" lon="8.4032033"><ele>166.0</ele><time>2026-04-04T09:42:35.941Z</time></trkpt><trkpt lat="45.4627733" lon="8.403635"><ele>166.0</ele><time>2026-04-04T09:42:36.941Z</time></trkpt><trkpt lat="45.462795" lon="8.4040717"><ele>166.0</ele><time>2026-04-04T09:42:37.941Z</time></trkpt><trkpt lat="45.4628067" lon="8.404515"><ele>166.5</ele><time>2026-04-04T09:42:38.941Z</time></trkpt><trkpt lat="45.462815" lon="8.4049533"><ele>167.0</ele><time>2026-04-04T09:42:39.941Z</time></trkpt><trkpt lat="45.4628283" lon="8.405385"><ele>166.0</ele><time>2026-04-04T09:42:40.941Z</time></trkpt><trkpt lat="45.4628467" lon="8.4058117"><ele>165.0</ele><time>2026-04-04T09:42:41.941Z</time></trkpt><trkpt lat="45.4628617" lon="8.40624"><ele>164.0</ele><time>2026-04-04T09:42:42.94Z</time></trkpt><trkpt lat="45.462865" lon="8.406665"><ele>163.0</ele><time>2026-04-04T09:42:43.941Z</time></trkpt><trkpt lat="45.462875" lon="8.4070867"><ele>162.5</ele><time>2026-04-04T09:42:44.941Z</time></trkpt><trkpt lat="45.4628817" lon="8.407515"><ele>162.0</ele><time>2026-04-04T09:42:45.941Z</time></trkpt><trkpt lat="45.4628917" lon="8.407935"><ele>163.0</ele><time>2026-04-04T09:42:46.941Z</time></trkpt><trkpt lat="45.4629067" lon="8.4083517"><ele>164.0</ele><time>2026-04-04T09:42:47.941Z</time></trkpt><trkpt lat="45.4629233" lon="8.4087817"><ele>164.0</ele><time>2026-04-04T09:42:48.941Z</time></trkpt><trkpt lat="45.462935" lon="8.4092083"><ele>164.0</ele><time>2026-04-04T09:42:49.941Z</time></trkpt><trkpt lat="45.46296" lon="8.4096383"><ele>164.5</ele><time>2026-04-04T09:42:50.941Z</time></trkpt><trkpt lat="45.4629817" lon="8.4100667"><ele>165.0</ele><time>2026-04-04T09:42:51.941Z</time></trkpt><trkpt lat="45.4629983" lon="8.4104867"><ele>164.5</ele><time>2026-04-04T09:42:52.941Z</time></trkpt><trkpt lat="45.4630117" lon="8.41091"><ele>164.0</ele><time>2026-04-04T09:42:53.941Z</time></trkpt><trkpt lat="45.46303" lon="8.4113467"><ele>164.0</ele><time>2026-04-04T09:42:54.941Z</time></trkpt><trkpt lat="45.4630533" lon="8.4117683"><ele>164.0</ele><time>2026-04-04T09:42:55.941Z</time></trkpt><trkpt lat="45.46308" lon="8.4121783"><ele>164.0</ele><time>2026-04-04T09:42:56.941Z</time></trkpt><trkpt lat="45.4630967" lon="8.4126117"><ele>164.0</ele><time>2026-04-04T09:42:57.941Z</time></trkpt><trkpt lat="45.4631217" lon="8.4130433"><ele>164.0</ele><time>2026-04-04T09:42:58.941Z</time></trkpt><trkpt lat="45.4631483" lon="8.41347"><ele>164.0</ele><time>2026-04-04T09:42:59.941Z</time></trkpt><trkpt lat="45.4631717" lon="8.4138933"><ele>163.5</ele><time>2026-04-04T09:43:00.941Z</time></trkpt><trkpt lat="45.4631933" lon="8.4143167"><ele>163.0</ele><time>2026-04-04T09:43:01.941Z</time></trkpt><trkpt lat="45.4632183" lon="8.414745"><ele>163.0</ele><time>2026-04-04T09:43:02.941Z</time></trkpt><trkpt lat="45.4632467" lon="8.4151633"><ele>163.0</ele><time>2026-04-04T09:43:03.941Z</time></trkpt><trkpt lat="45.4632667" lon="8.41558"><ele>163.5</ele><time>2026-04-04T09:43:04.941Z</time></trkpt><trkpt lat="45.463285" lon="8.4160017"><ele>164.0</ele><time>2026-04-04T09:43:05.941Z</time></trkpt><trkpt lat="45.463305" lon="8.41642"><ele>164.5</ele><time>2026-04-04T09:43:06.941Z</time></trkpt><trkpt lat="45.4633317" lon="8.4168567"><ele>165.0</ele><time>2026-04-04T09:43:07.941Z</time></trkpt><trkpt lat="45.4633583" lon="8.417275"><ele>165.0</ele><time>2026-04-04T09:43:08.941Z</time></trkpt><trkpt lat="45.4633733" lon="8.4177083"><ele>165.0</ele><time>2026-04-04T09:43:09.941Z</time></trkpt><trkpt lat="45.4633967" lon="8.4181233"><ele>165.0</ele><time>2026-04-04T09:43:10.941Z</time></trkpt><trkpt lat="45.4634183" lon="8.4185483"><ele>165.0</ele><time>2026-04-04T09:43:11.941Z</time></trkpt><trkpt lat="45.4634467" lon="8.4189667"><ele>164.0</ele><time>2026-04-04T09:43:12.941Z</time></trkpt><trkpt lat="45.46347" lon="8.4193867"><ele>163.0</ele><time>2026-04-04T09:43:13.941Z</time></trkpt><trkpt lat="45.4634933" lon="8.4198133"><ele>163.0</ele><time>2026-04-04T09:43:14.941Z</time></trkpt><trkpt lat="45.4635167" lon="8.4202333"><ele>163.0</ele><time>2026-04-04T09:43:15.941Z</time></trkpt><trkpt lat="45.4635367" lon="8.42065"><ele>163.0</ele><time>2026-04-04T09:43:16.941Z</time></trkpt><trkpt lat="45.463555" lon="8.4210683"><ele>163.0</ele><time>2026-04-04T09:43:17.941Z</time></trkpt><trkpt lat="45.4635767" lon="8.4214883"><ele>163.0</ele><time>2026-04-04T09:43:18.941Z</time></trkpt><trkpt lat="45.4636" lon="8.42192"><ele>163.0</ele><time>2026-04-04T09:43:19.941Z</time></trkpt><trkpt lat="45.4636233" lon="8.4223517"><ele>164.0</ele><time>2026-04-04T09:43:20.941Z</time></trkpt><trkpt lat="45.4636433" lon="8.4227733"><ele>165.0</ele><time>2026-04-04T09:43:21.941Z</time></trkpt><trkpt lat="45.4636633" lon="8.4232033"><ele>166.0</ele><time>2026-04-04T09:43:22.941Z</time></trkpt><trkpt lat="45.46369" lon="8.4236267"><ele>167.0</ele><time>2026-04-04T09:43:23.941Z</time></trkpt><trkpt lat="45.4637117" lon="8.4240567"><ele>167.0</ele><time>2026-04-04T09:43:24.941Z</time></trkpt><trkpt lat="45.4637417" lon="8.42448"><ele>167.0</ele><time>2026-04-04T09:43:25.94Z</time></trkpt><trkpt lat="45.463765" lon="8.4249067"><ele>166.5</ele><time>2026-04-04T09:43:26.941Z</time></trkpt><trkpt lat="45.4637833" lon="8.4253317"><ele>166.0</ele><time>2026-04-04T09:43:27.941Z</time></trkpt><trkpt lat="45.4638" lon="8.4257617"><ele>166.0</ele><time>2026-04-04T09:43:28.941Z</time></trkpt><trkpt lat="45.4638267" lon="8.426195"><ele>166.0</ele><time>2026-04-04T09:43:29.941Z</time></trkpt><trkpt lat="45.4638467" lon="8.4266217"><ele>166.5</ele><time>2026-04-04T09:43:30.941Z</time></trkpt><trkpt lat="45.46387" lon="8.4270533"><ele>167.0</ele><time>2026-04-04T09:43:31.94Z</time></trkpt><trkpt lat="45.46389" lon="8.42747"><ele>167.0</ele><time>2026-04-04T09:43:32.941Z</time></trkpt><trkpt lat="45.4639133" lon="8.4278917"><ele>167.0</ele><time>2026-04-04T09:43:33.94Z</time></trkpt><trkpt lat="45.46394" lon="8.428305"><ele>166.5</ele><time>2026-04-04T09:43:34.941Z</time></trkpt><trkpt lat="45.4639733" lon="8.4287217"><ele>166.0</ele><time>2026-04-04T09:43:35.94Z</time></trkpt><trkpt lat="45.4640017" lon="8.4291467"><ele>165.0</ele><time>2026-04-04T09:43:36.941Z</time></trkpt><trkpt lat="45.4640183" lon="8.42958"><ele>164.0</ele><time>2026-04-04T09:43:37.941Z</time></trkpt><trkpt lat="45.4640383" lon="8.430015"><ele>164.0</ele><time>2026-04-04T09:43:38.941Z</time></trkpt><trkpt lat="45.4640583" lon="8.430445"><ele>164.0</ele><time>2026-04-04T09:43:39.941Z</time></trkpt><trkpt lat="45.46407" lon="8.4308683"><ele>164.0</ele><time>2026-04-04T09:43:40.941Z</time></trkpt><trkpt lat="45.4640917" lon="8.4312883"><ele>164.0</ele><time>2026-04-04T09:43:41.94Z</time></trkpt><trkpt lat="45.4641133" lon="8.4317033"><ele>164.0</ele><time>2026-04-04T09:43:42.941Z</time></trkpt><trkpt lat="45.4641367" lon="8.4321183"><ele>164.0</ele><time>2026-04-04T09:43:43.941Z</time></trkpt><trkpt lat="45.4641583" lon="8.4325417"><ele>164.0</ele><time>2026-04-04T09:43:44.941Z</time></trkpt><trkpt lat="45.464175" lon="8.4329667"><ele>164.0</ele><time>2026-04-04T09:43:45.941Z</time></trkpt><trkpt lat="45.4641933" lon="8.4334017"><ele>163.0</ele><time>2026-04-04T09:43:46.941Z</time></trkpt><trkpt lat="45.464215" lon="8.4338283"><ele>162.0</ele><time>2026-04-04T09:43:47.941Z</time></trkpt><trkpt lat="45.4642317" lon="8.434255"><ele>162.0</ele><time>2026-04-04T09:43:48.941Z</time></trkpt><trkpt lat="45.4642533" lon="8.4346767"><ele>162.0</ele><time>2026-04-04T09:43:49.941Z</time></trkpt><trkpt lat="45.464275" lon="8.4351017"><ele>162.5</ele><time>2026-04-04T09:43:50.941Z</time></trkpt><trkpt lat="45.4643" lon="8.4355267"><ele>163.0</ele><time>2026-04-04T09:43:51.94Z</time></trkpt><trkpt lat="45.4643183" lon="8.4359483"><ele>163.0</ele><time>2026-04-04T09:43:52.941Z</time></trkpt><trkpt lat="45.46434" lon="8.436375"><ele>163.0</ele><time>2026-04-04T09:43:53.941Z</time></trkpt><trkpt lat="45.4643667" lon="8.436795"><ele>162.5</ele><time>2026-04-04T09:43:54.941Z</time></trkpt><trkpt lat="45.4643867" lon="8.43722"><ele>162.0</ele><time>2026-04-04T09:43:55.941Z</time></trkpt><trkpt lat="45.4644083" lon="8.4376467"><ele>162.5</ele><time>2026-04-04T09:43:56.941Z</time></trkpt><trkpt lat="45.4644383" lon="8.4380733"><ele>163.0</ele><time>2026-04-04T09:43:57.941Z</time></trkpt><trkpt lat="45.4644667" lon="8.4384983"><ele>164.0</ele><time>2026-04-04T09:43:58.941Z</time></trkpt><trkpt lat="45.4644983" lon="8.43892"><ele>165.0</ele><time>2026-04-04T09:43:59.941Z</time></trkpt><trkpt lat="45.4645367" lon="8.439345"><ele>165.5</ele><time>2026-04-04T09:44:00.94Z</time></trkpt><trkpt lat="45.46457" lon="8.43976"><ele>166.0</ele><time>2026-04-04T09:44:01.941Z</time></trkpt><trkpt lat="45.46459" lon="8.4401967"><ele>165.0</ele><time>2026-04-04T09:44:02.941Z</time></trkpt><trkpt lat="45.464615" lon="8.4406117"><ele>164.0</ele><time>2026-04-04T09:44:03.941Z</time></trkpt><trkpt lat="45.4646383" lon="8.441045"><ele>164.5</ele><time>2026-04-04T09:44:04.941Z</time></trkpt><trkpt lat="45.4646583" lon="8.4414617"><ele>165.0</ele><time>2026-04-04T09:44:05.941Z</time></trkpt><trkpt lat="45.4646933" lon="8.4418817"><ele>164.5</ele><time>2026-04-04T09:44:06.941Z</time></trkpt><trkpt lat="45.4647283" lon="8.442295"><ele>164.0</ele><time>2026-04-04T09:44:07.941Z</time></trkpt><trkpt lat="45.464765" lon="8.4427067"><ele>164.5</ele><time>2026-04-04T09:44:08.941Z</time></trkpt><trkpt lat="45.4647983" lon="8.44312"><ele>165.0</ele><time>2026-04-04T09:44:09.941Z</time></trkpt><trkpt lat="45.4648267" lon="8.4435467"><ele>165.5</ele><time>2026-04-04T09:44:10.941Z</time></trkpt><trkpt lat="45.4648517" lon="8.4439733"><ele>166.0</ele><time>2026-04-04T09:44:11.941Z</time></trkpt><trkpt lat="45.46489" lon="8.4443933"><ele>164.5</ele><time>2026-04-04T09:44:12.941Z</time></trkpt><trkpt lat="45.4649183" lon="8.4448217"><ele>163.0</ele><time>2026-04-04T09:44:13.941Z</time></trkpt><trkpt lat="45.4649467" lon="8.4452483"><ele>164.0</ele><time>2026-04-04T09:44:14.941Z</time></trkpt><trkpt lat="45.4649817" lon="8.4456667"><ele>165.0</ele><time>2026-04-04T09:44:15.941Z</time></trkpt><trkpt lat="45.4650183" lon="8.4460683"><ele>165.0</ele><time>2026-04-04T09:44:16.941Z</time></trkpt><trkpt lat="45.4650467" lon="8.44648"><ele>165.0</ele><time>2026-04-04T09:44:17.941Z</time></trkpt><trkpt lat="45.4650933" lon="8.4468783"><ele>165.0</ele><time>2026-04-04T09:44:18.941Z</time></trkpt><trkpt lat="45.4651267" lon="8.4472767"><ele>165.0</ele><time>2026-04-04T09:44:19.941Z</time></trkpt><trkpt lat="45.4651667" lon="8.44768"><ele>164.0</ele><time>2026-04-04T09:44:20.941Z</time></trkpt><trkpt lat="45.46519" lon="8.4481117"><ele>163.0</ele><time>2026-04-04T09:44:21.941Z</time></trkpt><trkpt lat="45.4652033" lon="8.4485517"><ele>162.5</ele><time>2026-04-04T09:44:22.941Z</time></trkpt><trkpt lat="45.4652233" lon="8.448965"><ele>162.0</ele><time>2026-04-04T09:44:23.941Z</time></trkpt><trkpt lat="45.4652483" lon="8.4493783"><ele>163.0</ele><time>2026-04-04T09:44:24.941Z</time></trkpt><trkpt lat="45.4652817" lon="8.449785"><ele>164.0</ele><time>2026-04-04T09:44:25.941Z</time></trkpt><trkpt lat="45.465315" lon="8.4501983"><ele>164.5</ele><time>2026-04-04T09:44:26.941Z</time></trkpt><trkpt lat="45.4653417" lon="8.4505967"><ele>165.0</ele><time>2026-04-04T09:44:27.941Z</time></trkpt><trkpt lat="45.4653817" lon="8.451005"><ele>164.5</ele><time>2026-04-04T09:44:28.941Z</time></trkpt><trkpt lat="45.4654417" lon="8.45141"><ele>164.0</ele><time>2026-04-04T09:44:29.94Z</time></trkpt><trkpt lat="45.46549" lon="8.4518167"><ele>164.0</ele><time>2026-04-04T09:44:30.94Z</time></trkpt><trkpt lat="45.465525" lon="8.4522333"><ele>164.0</ele><time>2026-04-04T09:44:31.941Z</time></trkpt><trkpt lat="45.4655617" lon="8.4526617"><ele>164.5</ele><time>2026-04-04T09:44:32.941Z</time></trkpt><trkpt lat="45.4656" lon="8.4530833"><ele>165.0</ele><time>2026-04-04T09:44:33.941Z</time></trkpt><trkpt lat="45.4656333" lon="8.4535167"><ele>164.5</ele><time>2026-04-04T09:44:34.941Z</time></trkpt><trkpt lat="45.4656567" lon="8.4539533"><ele>164.0</ele><time>2026-04-04T09:44:35.941Z</time></trkpt><trkpt lat="45.465685" lon="8.45439"><ele>164.0</ele><time>2026-04-04T09:44:36.941Z</time></trkpt><trkpt lat="45.4657133" lon="8.454825"><ele>164.0</ele><time>2026-04-04T09:44:37.941Z</time></trkpt><trkpt lat="45.46575" lon="8.45525"><ele>163.5</ele><time>2026-04-04T09:44:38.941Z</time></trkpt><trkpt lat="45.4657733" lon="8.455695"><ele>163.0</ele><time>2026-04-04T09:44:39.941Z</time></trkpt><trkpt lat="45.465795" lon="8.4561233"><ele>163.5</ele><time>2026-04-04T09:44:40.941Z</time></trkpt><trkpt lat="45.4658183" lon="8.4565533"><ele>164.0</ele><time>2026-04-04T09:44:41.941Z</time></trkpt><trkpt lat="45.4658367" lon="8.4569933"><ele>164.0</ele><time>2026-04-04T09:44:42.941Z</time></trkpt><trkpt lat="45.4658533" lon="8.457435"><ele>164.0</ele><time>2026-04-04T09:44:43.941Z</time></trkpt><trkpt lat="45.465885" lon="8.457875"><ele>163.5</ele><time>2026-04-04T09:44:44.941Z</time></trkpt><trkpt lat="45.4659217" lon="8.4583117"><ele>163.0</ele><time>2026-04-04T09:44:45.941Z</time></trkpt><trkpt lat="45.46596" lon="8.4587533"><ele>162.5</ele><time>2026-04-04T09:44:46.941Z</time></trkpt><trkpt lat="45.4660017" lon="8.4591867"><ele>162.0</ele><time>2026-04-04T09:44:47.941Z</time></trkpt><trkpt lat="45.466045" lon="8.45962"><ele>161.5</ele><time>2026-04-04T09:44:48.941Z</time></trkpt><trkpt lat="45.466075" lon="8.4600583"><ele>161.0</ele><time>2026-04-04T09:44:49.941Z</time></trkpt><trkpt lat="45.4661067" lon="8.4604883"><ele>160.5</ele><time>2026-04-04T09:44:50.941Z</time></trkpt><trkpt lat="45.46614" lon="8.46093"><ele>160.0</ele><time>2026-04-04T09:44:51.941Z</time></trkpt><trkpt lat="45.46617" lon="8.4613767"><ele>160.0</ele><time>2026-04-04T09:44:52.941Z</time></trkpt><trkpt lat="45.466205" lon="8.46182"><ele>160.0</ele><time>2026-04-04T09:44:53.941Z</time></trkpt><trkpt lat="45.4662417" lon="8.4622683"><ele>161.0</ele><time>2026-04-04T09:44:54.941Z</time></trkpt><trkpt lat="45.4662783" lon="8.4627033"><ele>162.0</ele><time>2026-04-04T09:44:55.941Z</time></trkpt><trkpt lat="45.4663167" lon="8.4631383"><ele>162.5</ele><time>2026-04-04T09:44:56.941Z</time></trkpt><trkpt lat="45.4663467" lon="8.4635717"><ele>163.0</ele><time>2026-04-04T09:44:57.94Z</time></trkpt><trkpt lat="45.466375" lon="8.4640067"><ele>163.5</ele><time>2026-04-04T09:44:58.941Z</time></trkpt><trkpt lat="45.4664133" lon="8.46443"><ele>164.0</ele><time>2026-04-04T09:44:59.941Z</time></trkpt><trkpt lat="45.466445" lon="8.4648533"><ele>164.0</ele><time>2026-04-04T09:45:00.941Z</time></trkpt><trkpt lat="45.466485" lon="8.465275"><ele>164.0</ele><time>2026-04-04T09:45:01.941Z</time></trkpt><trkpt lat="45.46652" lon="8.4656983"><ele>164.5</ele><time>2026-04-04T09:45:02.941Z</time></trkpt><trkpt lat="45.466555" lon="8.4661267"><ele>165.0</ele><time>2026-04-04T09:45:03.941Z</time></trkpt><trkpt lat="45.4665783" lon="8.4665483"><ele>165.0</ele><time>2026-04-04T09:45:04.941Z</time></trkpt><trkpt lat="45.4666" lon="8.4669617"><ele>165.0</ele><time>2026-04-04T09:45:05.941Z</time></trkpt><trkpt lat="45.4666267" lon="8.4673833"><ele>164.5</ele><time>2026-04-04T09:45:06.941Z</time></trkpt><trkpt lat="45.466655" lon="8.4678033"><ele>164.0</ele><time>2026-04-04T09:45:07.941Z</time></trkpt><trkpt lat="45.4666883" lon="8.4682183"><ele>164.0</ele><time>2026-04-04T09:45:08.941Z</time></trkpt><trkpt lat="45.4667217" lon="8.4686333"><ele>164.0</ele><time>2026-04-04T09:45:09.941Z</time></trkpt><trkpt lat="45.4667533" lon="8.4690483"><ele>164.0</ele><time>2026-04-04T09:45:10.941Z</time></trkpt><trkpt lat="45.4667767" lon="8.469465"><ele>164.0</ele><time>2026-04-04T09:45:11.941Z</time></trkpt><trkpt lat="45.4668133" lon="8.469895"><ele>164.0</ele><time>2026-04-04T09:45:12.941Z</time></trkpt><trkpt lat="45.46685" lon="8.4703267"><ele>164.0</ele><time>2026-04-04T09:45:13.941Z</time></trkpt><trkpt lat="45.46688" lon="8.4707583"><ele>164.0</ele><time>2026-04-04T09:45:14.941Z</time></trkpt><trkpt lat="45.4669183" lon="8.47119"><ele>164.0</ele><time>2026-04-04T09:45:15.94Z</time></trkpt><trkpt lat="45.4669567" lon="8.47162"><ele>163.0</ele><time>2026-04-04T09:45:16.941Z</time></trkpt><trkpt lat="45.4669883" lon="8.47205"><ele>162.0</ele><time>2026-04-04T09:45:17.94Z</time></trkpt><trkpt lat="45.467015" lon="8.4724917"><ele>162.0</ele><time>2026-04-04T09:45:18.941Z</time></trkpt><trkpt lat="45.4670367" lon="8.4729217"><ele>162.0</ele><time>2026-04-04T09:45:19.941Z</time></trkpt><trkpt lat="45.4670683" lon="8.473345"><ele>162.5</ele><time>2026-04-04T09:45:20.941Z</time></trkpt><trkpt lat="45.4671033" lon="8.473765"><ele>163.0</ele><time>2026-04-04T09:45:21.94Z</time></trkpt><trkpt lat="45.46713" lon="8.4742033"><ele>162.5</ele><time>2026-04-04T09:45:22.941Z</time></trkpt><trkpt lat="45.4671467" lon="8.4746367"><ele>162.0</ele><time>2026-04-04T09:45:23.94Z</time></trkpt><trkpt lat="45.467175" lon="8.475055"><ele>162.0</ele><time>2026-04-04T09:45:24.941Z</time></trkpt><trkpt lat="45.467205" lon="8.475485"><ele>162.0</ele><time>2026-04-04T09:45:25.94Z</time></trkpt><trkpt lat="45.4672417" lon="8.4759133"><ele>161.5</ele><time>2026-04-04T09:45:26.94Z</time></trkpt><trkpt lat="45.46727" lon="8.4763467"><ele>161.0</ele><time>2026-04-04T09:45:27.941Z</time></trkpt><trkpt lat="45.4673167" lon="8.47676"><ele>161.5</ele><time>2026-04-04T09:45:28.941Z</time></trkpt><trkpt lat="45.4673583" lon="8.4771767"><ele>162.0</ele><time>2026-04-04T09:45:29.94Z</time></trkpt><trkpt lat="45.4673767" lon="8.47762"><ele>162.0</ele><time>2026-04-04T09:45:30.941Z</time></trkpt><trkpt lat="45.4674133" lon="8.4780533"><ele>162.0</ele><time>2026-04-04T09:45:31.941Z</time></trkpt><trkpt lat="45.4674417" lon="8.47849"><ele>161.5</ele><time>2026-04-04T09:45:32.941Z</time></trkpt><trkpt lat="45.4674683" lon="8.4789117"><ele>161.0</ele><time>2026-04-04T09:45:33.941Z</time></trkpt><trkpt lat="45.4674983" lon="8.4793417"><ele>160.5</ele><time>2026-04-04T09:45:34.941Z</time></trkpt><trkpt lat="45.4675317" lon="8.4797717"><ele>160.0</ele><time>2026-04-04T09:45:35.941Z</time></trkpt><trkpt lat="45.467565" lon="8.4801933"><ele>161.5</ele><time>2026-04-04T09:45:36.941Z</time></trkpt><trkpt lat="45.46759" lon="8.4806283"><ele>163.0</ele><time>2026-04-04T09:45:37.941Z</time></trkpt><trkpt lat="45.4676167" lon="8.4810567"><ele>162.0</ele><time>2026-04-04T09:45:38.941Z</time></trkpt><trkpt lat="45.4676467" lon="8.4814933"><ele>161.0</ele><time>2026-04-04T09:45:39.941Z</time></trkpt><trkpt lat="45.467685" lon="8.481915"><ele>160.5</ele><time>2026-04-04T09:45:40.941Z</time></trkpt><trkpt lat="45.4677217" lon="8.4823367"><ele>160.0</ele><time>2026-04-04T09:45:41.941Z</time></trkpt><trkpt lat="45.4677533" lon="8.482755"><ele>160.0</ele><time>2026-04-04T09:45:42.941Z</time></trkpt><trkpt lat="45.467785" lon="8.4831667"><ele>160.0</ele><time>2026-04-04T09:45:43.941Z</time></trkpt><trkpt lat="45.4678133" lon="8.4835867"><ele>160.0</ele><time>2026-04-04T09:45:44.94Z</time></trkpt><trkpt lat="45.46784" lon="8.4840017"><ele>160.0</ele><time>2026-04-04T09:45:45.941Z</time></trkpt><trkpt lat="45.467875" lon="8.48442"><ele>159.0</ele><time>2026-04-04T09:45:46.941Z</time></trkpt><trkpt lat="45.4678967" lon="8.4848383"><ele>158.0</ele><time>2026-04-04T09:45:47.941Z</time></trkpt><trkpt lat="45.46793" lon="8.4852533"><ele>159.0</ele><time>2026-04-04T09:45:48.941Z</time></trkpt><trkpt lat="45.4679517" lon="8.4856733"><ele>160.0</ele><time>2026-04-04T09:45:49.941Z</time></trkpt><trkpt lat="45.467975" lon="8.4860817"><ele>160.0</ele><time>2026-04-04T09:45:50.941Z</time></trkpt><trkpt lat="45.468005" lon="8.4864867"><ele>160.0</ele><time>2026-04-04T09:45:51.941Z</time></trkpt><trkpt lat="45.4680317" lon="8.4869"><ele>159.5</ele><time>2026-04-04T09:45:52.941Z</time></trkpt><trkpt lat="45.468055" lon="8.48731"><ele>159.0</ele><time>2026-04-04T09:45:53.941Z</time></trkpt><trkpt lat="45.4680917" lon="8.4877067"><ele>159.0</ele><time>2026-04-04T09:45:54.941Z</time></trkpt><trkpt lat="45.4681283" lon="8.4881033"><ele>159.0</ele><time>2026-04-04T09:45:55.941Z</time></trkpt><trkpt lat="45.4681567" lon="8.4885133"><ele>159.5</ele><time>2026-04-04T09:45:56.941Z</time></trkpt><trkpt lat="45.46818" lon="8.48892"><ele>160.0</ele><time>2026-04-04T09:45:57.941Z</time></trkpt><trkpt lat="45.4682017" lon="8.489325"><ele>160.5</ele><time>2026-04-04T09:45:58.941Z</time></trkpt><trkpt lat="45.468235" lon="8.4897333"><ele>161.0</ele><time>2026-04-04T09:45:59.941Z</time></trkpt><trkpt lat="45.468265" lon="8.49015"><ele>161.5</ele><time>2026-04-04T09:46:00.94Z</time></trkpt><trkpt lat="45.46829" lon="8.4905683"><ele>162.0</ele><time>2026-04-04T09:46:01.941Z</time></trkpt><trkpt lat="45.4683233" lon="8.4909833"><ele>162.5</ele><time>2026-04-04T09:46:02.941Z</time></trkpt><trkpt lat="45.468355" lon="8.49139"><ele>163.0</ele><time>2026-04-04T09:46:03.941Z</time></trkpt><trkpt lat="45.468385" lon="8.4918033"><ele>162.0</ele><time>2026-04-04T09:46:04.941Z</time></trkpt><trkpt lat="45.4684117" lon="8.4922267"><ele>161.0</ele><time>2026-04-04T09:46:05.941Z</time></trkpt><trkpt lat="45.4684483" lon="8.492655"><ele>161.5</ele><time>2026-04-04T09:46:06.941Z</time></trkpt><trkpt lat="45.4684717" lon="8.4930783"><ele>162.0</ele><time>2026-04-04T09:46:07.941Z</time></trkpt><trkpt lat="45.4685" lon="8.49351"><ele>161.5</ele><time>2026-04-04T09:46:08.941Z</time></trkpt><trkpt lat="45.46853" lon="8.4939317"><ele>161.0</ele><time>2026-04-04T09:46:09.941Z</time></trkpt><trkpt lat="45.4685583" lon="8.4943583"><ele>160.0</ele><time>2026-04-04T09:46:10.941Z</time></trkpt><trkpt lat="45.46859" lon="8.494785"><ele>159.0</ele><time>2026-04-04T09:46:11.941Z</time></trkpt><trkpt lat="45.4686133" lon="8.49521"><ele>159.0</ele><time>2026-04-04T09:46:12.941Z</time></trkpt><trkpt lat="45.4686433" lon="8.4956533"><ele>159.0</ele><time>2026-04-04T09:46:13.939Z</time></trkpt><trkpt lat="45.4686767" lon="8.4960817"><ele>159.0</ele><time>2026-04-04T09:46:14.94Z</time></trkpt><trkpt lat="45.468705" lon="8.4965133"><ele>159.0</ele><time>2026-04-04T09:46:15.94Z</time></trkpt><trkpt lat="45.4687417" lon="8.49694"><ele>159.0</ele><time>2026-04-04T09:46:16.94Z</time></trkpt><trkpt lat="45.4687683" lon="8.49737"><ele>159.0</ele><time>2026-04-04T09:46:17.94Z</time></trkpt><trkpt lat="45.4687983" lon="8.4977983"><ele>159.5</ele><time>2026-04-04T09:46:18.94Z</time></trkpt><trkpt lat="45.46883" lon="8.49824"><ele>160.0</ele><time>2026-04-04T09:46:19.94Z</time></trkpt><trkpt lat="45.468865" lon="8.4986783"><ele>160.0</ele><time>2026-04-04T09:46:20.94Z</time></trkpt><trkpt lat="45.4689" lon="8.4991"><ele>160.0</ele><time>2026-04-04T09:46:21.94Z</time></trkpt><trkpt lat="45.4689433" lon="8.4995283"><ele>160.0</ele><time>2026-04-04T09:46:22.94Z</time></trkpt><trkpt lat="45.4689833" lon="8.4999583"><ele>160.0</ele><time>2026-04-04T09:46:23.94Z</time></trkpt><trkpt lat="45.4690117" lon="8.5003917"><ele>160.0</ele><time>2026-04-04T09:46:24.94Z</time></trkpt><trkpt lat="45.4690433" lon="8.5008233"><ele>160.0</ele><time>2026-04-04T09:46:25.94Z</time></trkpt><trkpt lat="45.4690717" lon="8.5012617"><ele>160.0</ele><time>2026-04-04T09:46:26.94Z</time></trkpt><trkpt lat="45.4691083" lon="8.5016967"><ele>160.0</ele><time>2026-04-04T09:46:27.939Z</time></trkpt><trkpt lat="45.46914" lon="8.50213"><ele>160.0</ele><time>2026-04-04T09:46:28.94Z</time></trkpt><trkpt lat="45.46917" lon="8.5025617"><ele>160.0</ele><time>2026-04-04T09:46:29.94Z</time></trkpt><trkpt lat="45.4691983" lon="8.503"><ele>159.5</ele><time>2026-04-04T09:46:30.94Z</time></trkpt><trkpt lat="45.4692267" lon="8.5034417"><ele>159.0</ele><time>2026-04-04T09:46:31.94Z</time></trkpt><trkpt lat="45.46926" lon="8.503875"><ele>158.5</ele><time>2026-04-04T09:46:32.939Z</time></trkpt><trkpt lat="45.4692883" lon="8.5043133"><ele>158.0</ele><time>2026-04-04T09:46:33.94Z</time></trkpt><trkpt lat="45.4693133" lon="8.50475"><ele>158.0</ele><time>2026-04-04T09:46:34.94Z</time></trkpt><trkpt lat="45.4693467" lon="8.505185"><ele>158.0</ele><time>2026-04-04T09:46:35.94Z</time></trkpt><trkpt lat="45.469385" lon="8.5056133"><ele>158.0</ele><time>2026-04-04T09:46:36.94Z</time></trkpt><trkpt lat="45.4694217" lon="8.50605"><ele>158.0</ele><time>2026-04-04T09:46:37.94Z</time></trkpt><trkpt lat="45.46945" lon="8.5064767"><ele>158.0</ele><time>2026-04-04T09:46:38.94Z</time></trkpt><trkpt lat="45.4694817" lon="8.5068933"><ele>158.0</ele><time>2026-04-04T09:46:39.939Z</time></trkpt><trkpt lat="45.4695083" lon="8.50732"><ele>158.0</ele><time>2026-04-04T09:46:40.94Z</time></trkpt><trkpt lat="45.4695417" lon="8.5077467"><ele>158.0</ele><time>2026-04-04T09:46:41.94Z</time></trkpt><trkpt lat="45.4695667" lon="8.508175"><ele>158.5</ele><time>2026-04-04T09:46:42.94Z</time></trkpt><trkpt lat="45.4695917" lon="8.5085983"><ele>159.0</ele><time>2026-04-04T09:46:43.94Z</time></trkpt><trkpt lat="45.4696283" lon="8.50901"><ele>159.0</ele><time>2026-04-04T09:46:44.94Z</time></trkpt><trkpt lat="45.4696583" lon="8.5094267"><ele>159.0</ele><time>2026-04-04T09:46:45.94Z</time></trkpt><trkpt lat="45.4697" lon="8.509835"><ele>159.0</ele><time>2026-04-04T09:46:46.94Z</time></trkpt><trkpt lat="45.46973" lon="8.510255"><ele>159.0</ele><time>2026-04-04T09:46:47.94Z</time></trkpt><trkpt lat="45.469765" lon="8.5106667"><ele>159.0</ele><time>2026-04-04T09:46:48.94Z</time></trkpt><trkpt lat="45.46979" lon="8.5110767"><ele>159.0</ele><time>2026-04-04T09:46:49.94Z</time></trkpt><trkpt lat="45.4698233" lon="8.5114867"><ele>159.0</ele><time>2026-04-04T09:46:50.94Z</time></trkpt><trkpt lat="45.46985" lon="8.5119133"><ele>159.0</ele><time>2026-04-04T09:46:51.94Z</time></trkpt><trkpt lat="45.4698733" lon="8.5123383"><ele>158.5</ele><time>2026-04-04T09:46:52.94Z</time></trkpt><trkpt lat="45.4699" lon="8.5127517"><ele>158.0</ele><time>2026-04-04T09:46:53.94Z</time></trkpt><trkpt lat="45.4699283" lon="8.513175"><ele>159.0</ele><time>2026-04-04T09:46:54.94Z</time></trkpt><trkpt lat="45.4699583" lon="8.5135833"><ele>160.0</ele><time>2026-04-04T09:46:55.94Z</time></trkpt><trkpt lat="45.4699917" lon="8.5139817"><ele>160.5</ele><time>2026-04-04T09:46:56.94Z</time></trkpt><trkpt lat="45.47003" lon="8.5143833"><ele>161.0</ele><time>2026-04-04T09:46:57.94Z</time></trkpt><trkpt lat="45.4700717" lon="8.5147983"><ele>160.0</ele><time>2026-04-04T09:46:58.94Z</time></trkpt><trkpt lat="45.4701" lon="8.5152133"><ele>159.0</ele><time>2026-04-04T09:46:59.94Z</time></trkpt><trkpt lat="45.4701317" lon="8.5156283"><ele>159.0</ele><time>2026-04-04T09:47:00.94Z</time></trkpt><trkpt lat="45.4701667" lon="8.5160383"><ele>159.0</ele><time>2026-04-04T09:47:01.94Z</time></trkpt><trkpt lat="45.470195" lon="8.5164567"><ele>159.5</ele><time>2026-04-04T09:47:02.94Z</time></trkpt><trkpt lat="45.4702283" lon="8.5168683"><ele>160.0</ele><time>2026-04-04T09:47:03.94Z</time></trkpt><trkpt lat="45.4702583" lon="8.5172817"><ele>159.0</ele><time>2026-04-04T09:47:04.94Z</time></trkpt><trkpt lat="45.470285" lon="8.5177"><ele>158.0</ele><time>2026-04-04T09:47:05.94Z</time></trkpt><trkpt lat="45.47031" lon="8.5181267"><ele>157.5</ele><time>2026-04-04T09:47:06.94Z</time></trkpt><trkpt lat="45.470335" lon="8.5185517"><ele>157.0</ele><time>2026-04-04T09:47:07.94Z</time></trkpt><trkpt lat="45.470375" lon="8.51897"><ele>156.5</ele><time>2026-04-04T09:47:08.94Z</time></trkpt><trkpt lat="45.4704017" lon="8.5194"><ele>156.0</ele><time>2026-04-04T09:47:09.94Z</time></trkpt><trkpt lat="45.4704383" lon="8.51982"><ele>157.0</ele><time>2026-04-04T09:47:10.94Z</time></trkpt><trkpt lat="45.4704683" lon="8.5202417"><ele>158.0</ele><time>2026-04-04T09:47:11.94Z</time></trkpt><trkpt lat="45.4704983" lon="8.52067"><ele>159.0</ele><time>2026-04-04T09:47:12.94Z</time></trkpt><trkpt lat="45.4705283" lon="8.5210867"><ele>160.0</ele><time>2026-04-04T09:47:13.939Z</time></trkpt><trkpt lat="45.470555" lon="8.5215117"><ele>160.5</ele><time>2026-04-04T09:47:14.94Z</time></trkpt><trkpt lat="45.4705867" lon="8.521945"><ele>161.0</ele><time>2026-04-04T09:47:15.94Z</time></trkpt><trkpt lat="45.4706133" lon="8.522375"><ele>161.0</ele><time>2026-04-04T09:47:16.94Z</time></trkpt><trkpt lat="45.4706433" lon="8.5228033"><ele>161.0</ele><time>2026-04-04T09:47:17.94Z</time></trkpt><trkpt lat="45.4706767" lon="8.523245"><ele>161.0</ele><time>2026-04-04T09:47:18.94Z</time></trkpt><trkpt lat="45.4707083" lon="8.523665"><ele>161.0</ele><time>2026-04-04T09:47:19.94Z</time></trkpt><trkpt lat="45.47074" lon="8.5241017"><ele>160.0</ele><time>2026-04-04T09:47:20.94Z</time></trkpt><trkpt lat="45.470785" lon="8.5245167"><ele>159.0</ele><time>2026-04-04T09:47:21.94Z</time></trkpt><trkpt lat="45.4708167" lon="8.5249483"><ele>158.5</ele><time>2026-04-04T09:47:22.94Z</time></trkpt><trkpt lat="45.47086" lon="8.5253667"><ele>158.0</ele><time>2026-04-04T09:47:23.94Z</time></trkpt><trkpt lat="45.470895" lon="8.5257983"><ele>158.0</ele><time>2026-04-04T09:47:24.939Z</time></trkpt><trkpt lat="45.47093" lon="8.526225"><ele>158.0</ele><time>2026-04-04T09:47:25.939Z</time></trkpt><trkpt lat="45.47096" lon="8.5266683"><ele>157.5</ele><time>2026-04-04T09:47:26.939Z</time></trkpt><trkpt lat="45.47099" lon="8.5270983"><ele>157.0</ele><time>2026-04-04T09:47:27.94Z</time></trkpt><trkpt lat="45.4710283" lon="8.5275317"><ele>157.5</ele><time>2026-04-04T09:47:28.94Z</time></trkpt><trkpt lat="45.47107" lon="8.5279567"><ele>158.0</ele><time>2026-04-04T09:47:29.94Z</time></trkpt><trkpt lat="45.4710933" lon="8.52838"><ele>158.5</ele><time>2026-04-04T09:47:30.94Z</time></trkpt><trkpt lat="45.4711183" lon="8.5288083"><ele>159.0</ele><time>2026-04-04T09:47:31.94Z</time></trkpt><trkpt lat="45.4711567" lon="8.5292317"><ele>158.5</ele><time>2026-04-04T09:47:32.94Z</time></trkpt><trkpt lat="45.4711933" lon="8.5296467"><ele>158.0</ele><time>2026-04-04T09:47:33.94Z</time></trkpt><trkpt lat="45.471245" lon="8.5300617"><ele>158.5</ele><time>2026-04-04T09:47:34.94Z</time></trkpt><trkpt lat="45.471275" lon="8.5304817"><ele>159.0</ele><time>2026-04-04T09:47:35.94Z</time></trkpt><trkpt lat="45.4713033" lon="8.5309083"><ele>159.0</ele><time>2026-04-04T09:47:36.94Z</time></trkpt><trkpt lat="45.471335" lon="8.5313433"><ele>159.0</ele><time>2026-04-04T09:47:37.94Z</time></trkpt><trkpt lat="45.47136" lon="8.5317783"><ele>159.0</ele><time>2026-04-04T09:47:38.94Z</time></trkpt><trkpt lat="45.471385" lon="8.53221"><ele>159.0</ele><time>2026-04-04T09:47:39.94Z</time></trkpt><trkpt lat="45.4714117" lon="8.5326383"><ele>158.0</ele><time>2026-04-04T09:47:40.94Z</time></trkpt><trkpt lat="45.4714383" lon="8.5330733"><ele>157.0</ele><time>2026-04-04T09:47:41.94Z</time></trkpt><trkpt lat="45.4714717" lon="8.5335117"><ele>157.0</ele><time>2026-04-04T09:47:42.94Z</time></trkpt><trkpt lat="45.4715" lon="8.533945"><ele>157.0</ele><time>2026-04-04T09:47:43.94Z</time></trkpt><trkpt lat="45.4715333" lon="8.534385"><ele>157.5</ele><time>2026-04-04T09:47:44.94Z</time></trkpt><trkpt lat="45.47157" lon="8.534825"><ele>158.0</ele><time>2026-04-04T09:47:45.94Z</time></trkpt><trkpt lat="45.4716017" lon="8.53526"><ele>159.0</ele><time>2026-04-04T09:47:46.94Z</time></trkpt><trkpt lat="45.471635" lon="8.5356933"><ele>160.0</ele><time>2026-04-04T09:47:47.94Z</time></trkpt><trkpt lat="45.4716683" lon="8.53613"><ele>159.0</ele><time>2026-04-04T09:47:48.94Z</time></trkpt><trkpt lat="45.4717" lon="8.5365667"><ele>158.0</ele><time>2026-04-04T09:47:49.94Z</time></trkpt><trkpt lat="45.4717383" lon="8.5369983"><ele>157.5</ele><time>2026-04-04T09:47:50.939Z</time></trkpt><trkpt lat="45.4717683" lon="8.53743"><ele>157.0</ele><time>2026-04-04T09:47:51.94Z</time></trkpt><trkpt lat="45.4717983" lon="8.53786"><ele>157.5</ele><time>2026-04-04T09:47:52.94Z</time></trkpt><trkpt lat="45.47183" lon="8.53829"><ele>158.0</ele><time>2026-04-04T09:47:53.94Z</time></trkpt><trkpt lat="45.4718633" lon="8.5387233"><ele>158.5</ele><time>2026-04-04T09:47:54.94Z</time></trkpt><trkpt lat="45.4718967" lon="8.5391517"><ele>159.0</ele><time>2026-04-04T09:47:55.94Z</time></trkpt><trkpt lat="45.4719317" lon="8.5395833"><ele>159.0</ele><time>2026-04-04T09:47:56.94Z</time></trkpt><trkpt lat="45.4719617" lon="8.5400117"><ele>159.0</ele><time>2026-04-04T09:47:57.94Z</time></trkpt><trkpt lat="45.4719933" lon="8.5404383"><ele>159.5</ele><time>2026-04-04T09:47:58.939Z</time></trkpt><trkpt lat="45.47203" lon="8.5408567"><ele>160.0</ele><time>2026-04-04T09:47:59.94Z</time></trkpt><trkpt lat="45.4720533" lon="8.5412933"><ele>160.0</ele><time>2026-04-04T09:48:00.94Z</time></trkpt><trkpt lat="45.472085" lon="8.5417167"><ele>160.0</ele><time>2026-04-04T09:48:01.94Z</time></trkpt><trkpt lat="45.4721167" lon="8.5421517"><ele>159.0</ele><time>2026-04-04T09:48:02.94Z</time></trkpt><trkpt lat="45.472155" lon="8.54257"><ele>158.0</ele><time>2026-04-04T09:48:03.94Z</time></trkpt><trkpt lat="45.4721883" lon="8.5429867"><ele>158.0</ele><time>2026-04-04T09:48:04.939Z</time></trkpt><trkpt lat="45.47222" lon="8.5434117"><ele>158.0</ele><time>2026-04-04T09:48:05.94Z</time></trkpt><trkpt lat="45.4722533" lon="8.54383"><ele>158.5</ele><time>2026-04-04T09:48:06.94Z</time></trkpt><trkpt lat="45.4722833" lon="8.5442517"><ele>159.0</ele><time>2026-04-04T09:48:07.94Z</time></trkpt><trkpt lat="45.4723133" lon="8.5446783"><ele>159.0</ele><time>2026-04-04T09:48:08.94Z</time></trkpt><trkpt lat="45.4723367" lon="8.5451083"><ele>159.0</ele><time>2026-04-04T09:48:09.94Z</time></trkpt><trkpt lat="45.472365" lon="8.54554"><ele>159.0</ele><time>2026-04-04T09:48:10.94Z</time></trkpt><trkpt lat="45.47239" lon="8.5459683"><ele>159.0</ele><time>2026-04-04T09:48:11.94Z</time></trkpt><trkpt lat="45.4724183" lon="8.5463917"><ele>158.5</ele><time>2026-04-04T09:48:12.94Z</time></trkpt><trkpt lat="45.4724467" lon="8.5468267"><ele>158.0</ele><time>2026-04-04T09:48:13.94Z</time></trkpt><trkpt lat="45.4724833" lon="8.547255"><ele>158.0</ele><time>2026-04-04T09:48:14.94Z</time></trkpt><trkpt lat="45.4725233" lon="8.547675"><ele>158.0</ele><time>2026-04-04T09:48:15.94Z</time></trkpt><trkpt lat="45.4725533" lon="8.5480967"><ele>158.0</ele><time>2026-04-04T09:48:16.94Z</time></trkpt><trkpt lat="45.4725867" lon="8.5485283"><ele>158.0</ele><time>2026-04-04T09:48:17.94Z</time></trkpt><trkpt lat="45.4726167" lon="8.548945"><ele>158.0</ele><time>2026-04-04T09:48:18.94Z</time></trkpt><trkpt lat="45.472645" lon="8.5493617"><ele>158.0</ele><time>2026-04-04T09:48:19.94Z</time></trkpt><trkpt lat="45.4726733" lon="8.5497833"><ele>158.0</ele><time>2026-04-04T09:48:20.939Z</time></trkpt><trkpt lat="45.4727083" lon="8.550205"><ele>158.0</ele><time>2026-04-04T09:48:21.94Z</time></trkpt><trkpt lat="45.472745" lon="8.5506183"><ele>158.0</ele><time>2026-04-04T09:48:22.94Z</time></trkpt><trkpt lat="45.47278" lon="8.551035"><ele>158.0</ele><time>2026-04-04T09:48:23.939Z</time></trkpt><trkpt lat="45.4728117" lon="8.5514567"><ele>158.0</ele><time>2026-04-04T09:48:24.94Z</time></trkpt><trkpt lat="45.4728383" lon="8.5518833"><ele>158.0</ele><time>2026-04-04T09:48:25.94Z</time></trkpt><trkpt lat="45.47287" lon="8.5523083"><ele>158.0</ele><time>2026-04-04T09:48:26.94Z</time></trkpt><trkpt lat="45.4728967" lon="8.5527433"><ele>158.0</ele><time>2026-04-04T09:48:27.94Z</time></trkpt><trkpt lat="45.4729233" lon="8.5531633"><ele>157.5</ele><time>2026-04-04T09:48:28.94Z</time></trkpt><trkpt lat="45.472955" lon="8.55359"><ele>157.0</ele><time>2026-04-04T09:48:29.939Z</time></trkpt><trkpt lat="45.4729867" lon="8.5540117"><ele>157.0</ele><time>2026-04-04T09:48:30.94Z</time></trkpt><trkpt lat="45.4730183" lon="8.5544317"><ele>157.0</ele><time>2026-04-04T09:48:31.94Z</time></trkpt><trkpt lat="45.473055" lon="8.5548517"><ele>158.0</ele><time>2026-04-04T09:48:32.94Z</time></trkpt><trkpt lat="45.4730833" lon="8.5552733"><ele>159.0</ele><time>2026-04-04T09:48:33.94Z</time></trkpt><trkpt lat="45.4731167" lon="8.5557"><ele>159.0</ele><time>2026-04-04T09:48:34.94Z</time></trkpt><trkpt lat="45.47315" lon="8.5561183"><ele>159.0</ele><time>2026-04-04T09:48:35.94Z</time></trkpt><trkpt lat="45.473185" lon="8.5565417"><ele>158.5</ele><time>2026-04-04T09:48:36.939Z</time></trkpt><trkpt lat="45.473225" lon="8.556965"><ele>158.0</ele><time>2026-04-04T09:48:37.94Z</time></trkpt><trkpt lat="45.4732533" lon="8.55739"><ele>157.5</ele><time>2026-04-04T09:48:38.94Z</time></trkpt><trkpt lat="45.473295" lon="8.5578017"><ele>157.0</ele><time>2026-04-04T09:48:39.94Z</time></trkpt><trkpt lat="45.47333" lon="8.55823"><ele>157.0</ele><time>2026-04-04T09:48:40.94Z</time></trkpt><trkpt lat="45.4733767" lon="8.5586467"><ele>157.0</ele><time>2026-04-04T09:48:41.94Z</time></trkpt><trkpt lat="45.4734233" lon="8.5590717"><ele>157.0</ele><time>2026-04-04T09:48:42.94Z</time></trkpt><trkpt lat="45.4734683" lon="8.5595083"><ele>157.0</ele><time>2026-04-04T09:48:43.94Z</time></trkpt><trkpt lat="45.4735167" lon="8.5599533"><ele>158.0</ele><time>2026-04-04T09:48:44.939Z</time></trkpt><trkpt lat="45.47356" lon="8.5604233"><ele>159.0</ele><time>2026-04-04T09:48:45.94Z</time></trkpt><trkpt lat="45.4735967" lon="8.5609"><ele>158.0</ele><time>2026-04-04T09:48:46.94Z</time></trkpt><trkpt lat="45.4736367" lon="8.5613567"><ele>157.0</ele><time>2026-04-04T09:48:47.94Z</time></trkpt><trkpt lat="45.4736767" lon="8.5618067"><ele>157.5</ele><time>2026-04-04T09:48:48.94Z</time></trkpt><trkpt lat="45.473705" lon="8.5622567"><ele>158.0</ele><time>2026-04-04T09:48:49.94Z</time></trkpt><trkpt lat="45.4737333" lon="8.5626933"><ele>157.5</ele><time>2026-04-04T09:48:50.94Z</time></trkpt><trkpt lat="45.47377" lon="8.5631233"><ele>157.0</ele><time>2026-04-04T09:48:51.94Z</time></trkpt><trkpt lat="45.4738167" lon="8.5635433"><ele>157.5</ele><time>2026-04-04T09:48:52.94Z</time></trkpt><trkpt lat="45.473855" lon="8.5639633"><ele>158.0</ele><time>2026-04-04T09:48:53.94Z</time></trkpt><trkpt lat="45.47389" lon="8.564385"><ele>157.5</ele><time>2026-04-04T09:48:54.94Z</time></trkpt><trkpt lat="45.4739283" lon="8.564805"><ele>157.0</ele><time>2026-04-04T09:48:55.94Z</time></trkpt><trkpt lat="45.4739633" lon="8.5652317"><ele>157.0</ele><time>2026-04-04T09:48:56.94Z</time></trkpt><trkpt lat="45.474" lon="8.565645"><ele>157.0</ele><time>2026-04-04T09:48:57.94Z</time></trkpt><trkpt lat="45.4740467" lon="8.56605"><ele>158.0</ele><time>2026-04-04T09:48:58.94Z</time></trkpt><trkpt lat="45.4740767" lon="8.5664767"><ele>159.0</ele><time>2026-04-04T09:48:59.94Z</time></trkpt><trkpt lat="45.4740933" lon="8.5669167"><ele>159.5</ele><time>2026-04-04T09:49:00.94Z</time></trkpt><trkpt lat="45.4741133" lon="8.5673467"><ele>160.0</ele><time>2026-04-04T09:49:01.94Z</time></trkpt><trkpt lat="45.4741383" lon="8.5677767"><ele>159.5</ele><time>2026-04-04T09:49:02.94Z</time></trkpt><trkpt lat="45.4741783" lon="8.56819"><ele>159.0</ele><time>2026-04-04T09:49:03.939Z</time></trkpt><trkpt lat="45.4741983" lon="8.5686167"><ele>158.5</ele><time>2026-04-04T09:49:04.94Z</time></trkpt><trkpt lat="45.4742433" lon="8.56903"><ele>158.0</ele><time>2026-04-04T09:49:05.94Z</time></trkpt><trkpt lat="45.4742767" lon="8.5694533"><ele>158.0</ele><time>2026-04-04T09:49:06.94Z</time></trkpt><trkpt lat="45.4743133" lon="8.5698767"><ele>158.0</ele><time>2026-04-04T09:49:07.94Z</time></trkpt><trkpt lat="45.4743533" lon="8.57029"><ele>157.5</ele><time>2026-04-04T09:49:08.94Z</time></trkpt><trkpt lat="45.4743833" lon="8.570705"><ele>157.0</ele><time>2026-04-04T09:49:09.94Z</time></trkpt><trkpt lat="45.474415" lon="8.571135"><ele>157.0</ele><time>2026-04-04T09:49:10.94Z</time></trkpt><trkpt lat="45.4744483" lon="8.5715533"><ele>157.0</ele><time>2026-04-04T09:49:11.94Z</time></trkpt><trkpt lat="45.4744883" lon="8.571975"><ele>157.0</ele><time>2026-04-04T09:49:12.94Z</time></trkpt><trkpt lat="45.47453" lon="8.5723983"><ele>157.0</ele><time>2026-04-04T09:49:13.94Z</time></trkpt><trkpt lat="45.4745483" lon="8.5728367"><ele>157.0</ele><time>2026-04-04T09:49:14.94Z</time></trkpt><trkpt lat="45.474575" lon="8.573265"><ele>157.0</ele><time>2026-04-04T09:49:15.94Z</time></trkpt><trkpt lat="45.4745933" lon="8.573705"><ele>156.5</ele><time>2026-04-04T09:49:16.94Z</time></trkpt><trkpt lat="45.4746183" lon="8.57413"><ele>156.0</ele><time>2026-04-04T09:49:17.94Z</time></trkpt><trkpt lat="45.474635" lon="8.5745567"><ele>156.0</ele><time>2026-04-04T09:49:18.94Z</time></trkpt><trkpt lat="45.4746567" lon="8.5749867"><ele>156.0</ele><time>2026-04-04T09:49:19.94Z</time></trkpt><trkpt lat="45.474675" lon="8.5754267"><ele>156.0</ele><time>2026-04-04T09:49:20.94Z</time></trkpt><trkpt lat="45.47471" lon="8.5758533"><ele>156.0</ele><time>2026-04-04T09:49:21.94Z</time></trkpt><trkpt lat="45.4747267" lon="8.5762967"><ele>156.5</ele><time>2026-04-04T09:49:22.94Z</time></trkpt><trkpt lat="45.4747417" lon="8.57674"><ele>157.0</ele><time>2026-04-04T09:49:23.94Z</time></trkpt><trkpt lat="45.4747567" lon="8.57717"><ele>157.0</ele><time>2026-04-04T09:49:24.94Z</time></trkpt><trkpt lat="45.4747817" lon="8.57759"><ele>157.0</ele><time>2026-04-04T09:49:25.94Z</time></trkpt><trkpt lat="45.4748033" lon="8.57802"><ele>157.0</ele><time>2026-04-04T09:49:26.94Z</time></trkpt><trkpt lat="45.474825" lon="8.57844"><ele>157.0</ele><time>2026-04-04T09:49:27.94Z</time></trkpt><trkpt lat="45.4748417" lon="8.578865"><ele>157.0</ele><time>2026-04-04T09:49:28.94Z</time></trkpt><trkpt lat="45.47486" lon="8.5792733"><ele>157.0</ele><time>2026-04-04T09:49:29.94Z</time></trkpt><trkpt lat="45.4748783" lon="8.5797017"><ele>158.0</ele><time>2026-04-04T09:49:30.94Z</time></trkpt><trkpt lat="45.4748917" lon="8.5801283"><ele>159.0</ele><time>2026-04-04T09:49:31.94Z</time></trkpt><trkpt lat="45.4749117" lon="8.5805467"><ele>159.0</ele><time>2026-04-04T09:49:32.94Z</time></trkpt><trkpt lat="45.474925" lon="8.5809717"><ele>159.0</ele><time>2026-04-04T09:49:33.94Z</time></trkpt><trkpt lat="45.4749267" lon="8.5814083"><ele>159.5</ele><time>2026-04-04T09:49:34.94Z</time></trkpt><trkpt lat="45.474925" lon="8.5818433"><ele>160.0</ele><time>2026-04-04T09:49:35.94Z</time></trkpt><trkpt lat="45.4749317" lon="8.58227"><ele>160.0</ele><time>2026-04-04T09:49:36.94Z</time></trkpt><trkpt lat="45.47493" lon="8.5827033"><ele>160.0</ele><time>2026-04-04T09:49:37.94Z</time></trkpt><trkpt lat="45.474925" lon="8.58313"><ele>160.0</ele><time>2026-04-04T09:49:38.94Z</time></trkpt><trkpt lat="45.4749233" lon="8.58354"><ele>160.0</ele><time>2026-04-04T09:49:39.94Z</time></trkpt><trkpt lat="45.4749183" lon="8.5839733"><ele>160.0</ele><time>2026-04-04T09:49:40.94Z</time></trkpt><trkpt lat="45.4749183" lon="8.5843883"><ele>160.0</ele><time>2026-04-04T09:49:41.94Z</time></trkpt><trkpt lat="45.4749033" lon="8.5848083"><ele>160.5</ele><time>2026-04-04T09:49:42.94Z</time></trkpt><trkpt lat="45.4748883" lon="8.5852317"><ele>161.0</ele><time>2026-04-04T09:49:43.94Z</time></trkpt><trkpt lat="45.4748783" lon="8.58566"><ele>160.0</ele><time>2026-04-04T09:49:44.94Z</time></trkpt><trkpt lat="45.47487" lon="8.586085"><ele>159.0</ele><time>2026-04-04T09:49:45.94Z</time></trkpt><trkpt lat="45.47485" lon="8.5865267"><ele>159.5</ele><time>2026-04-04T09:49:46.94Z</time></trkpt><trkpt lat="45.4748333" lon="8.5869583"><ele>160.0</ele><time>2026-04-04T09:49:47.94Z</time></trkpt><trkpt lat="45.4748133" lon="8.587385"><ele>160.0</ele><time>2026-04-04T09:49:48.94Z</time></trkpt><trkpt lat="45.4747817" lon="8.5878217"><ele>160.0</ele><time>2026-04-04T09:49:49.94Z</time></trkpt><trkpt lat="45.47476" lon="8.58824"><ele>161.0</ele><time>2026-04-04T09:49:50.94Z</time></trkpt><trkpt lat="45.4747383" lon="8.5886617"><ele>162.0</ele><time>2026-04-04T09:49:51.94Z</time></trkpt><trkpt lat="45.4747117" lon="8.5890833"><ele>162.0</ele><time>2026-04-04T09:49:52.94Z</time></trkpt><trkpt lat="45.4746867" lon="8.5895133"><ele>162.0</ele><time>2026-04-04T09:49:53.94Z</time></trkpt><trkpt lat="45.47466" lon="8.589945"><ele>161.5</ele><time>2026-04-04T09:49:54.94Z</time></trkpt><trkpt lat="45.4746267" lon="8.59037"><ele>161.0</ele><time>2026-04-04T09:49:55.94Z</time></trkpt><trkpt lat="45.4745783" lon="8.5908"><ele>160.5</ele><time>2026-04-04T09:49:56.94Z</time></trkpt><trkpt lat="45.4745333" lon="8.59122"><ele>160.0</ele><time>2026-04-04T09:49:57.94Z</time></trkpt><trkpt lat="45.4744917" lon="8.5916417"><ele>159.5</ele><time>2026-04-04T09:49:58.94Z</time></trkpt><trkpt lat="45.4744483" lon="8.59206"><ele>159.0</ele><time>2026-04-04T09:49:59.94Z</time></trkpt><trkpt lat="45.4744067" lon="8.5924783"><ele>158.0</ele><time>2026-04-04T09:50:00.94Z</time></trkpt><trkpt lat="45.474355" lon="8.5929"><ele>157.0</ele><time>2026-04-04T09:50:01.94Z</time></trkpt><trkpt lat="45.4743033" lon="8.59332"><ele>156.0</ele><time>2026-04-04T09:50:02.94Z</time></trkpt><trkpt lat="45.4742367" lon="8.59374"><ele>155.0</ele><time>2026-04-04T09:50:03.94Z</time></trkpt><trkpt lat="45.474175" lon="8.59416"><ele>155.0</ele><time>2026-04-04T09:50:04.94Z</time></trkpt><trkpt lat="45.4741183" lon="8.5945883"><ele>155.0</ele><time>2026-04-04T09:50:05.94Z</time></trkpt><trkpt lat="45.474065" lon="8.59501"><ele>155.5</ele><time>2026-04-04T09:50:06.94Z</time></trkpt><trkpt lat="45.4740067" lon="8.59543"><ele>156.0</ele><time>2026-04-04T09:50:07.94Z</time></trkpt><trkpt lat="45.4739483" lon="8.5958483"><ele>155.5</ele><time>2026-04-04T09:50:08.94Z</time></trkpt><trkpt lat="45.47388" lon="8.5962767"><ele>155.0</ele><time>2026-04-04T09:50:09.939Z</time></trkpt><trkpt lat="45.473815" lon="8.5966917"><ele>156.0</ele><time>2026-04-04T09:50:10.94Z</time></trkpt><trkpt lat="45.4737533" lon="8.5971067"><ele>157.0</ele><time>2026-04-04T09:50:11.94Z</time></trkpt><trkpt lat="45.473695" lon="8.5975217"><ele>156.5</ele><time>2026-04-04T09:50:12.94Z</time></trkpt><trkpt lat="45.4736333" lon="8.5979367"><ele>156.0</ele><time>2026-04-04T09:50:13.94Z</time></trkpt><trkpt lat="45.473565" lon="8.5983567"><ele>156.5</ele><time>2026-04-04T09:50:14.94Z</time></trkpt><trkpt lat="45.4734967" lon="8.598785"><ele>157.0</ele><time>2026-04-04T09:50:15.94Z</time></trkpt><trkpt lat="45.4734267" lon="8.5992"><ele>158.0</ele><time>2026-04-04T09:50:16.94Z</time></trkpt><trkpt lat="45.47336" lon="8.59962"><ele>159.0</ele><time>2026-04-04T09:50:17.94Z</time></trkpt><trkpt lat="45.47329" lon="8.6000283"><ele>158.0</ele><time>2026-04-04T09:50:18.94Z</time></trkpt><trkpt lat="45.4732267" lon="8.6004417"><ele>157.0</ele><time>2026-04-04T09:50:19.94Z</time></trkpt><trkpt lat="45.4731517" lon="8.60086"><ele>156.0</ele><time>2026-04-04T09:50:20.94Z</time></trkpt><trkpt lat="45.473075" lon="8.6012783"><ele>155.0</ele><time>2026-04-04T09:50:21.94Z</time></trkpt><trkpt lat="45.473005" lon="8.60169"><ele>155.0</ele><time>2026-04-04T09:50:22.94Z</time></trkpt><trkpt lat="45.4729417" lon="8.602105"><ele>155.0</ele><time>2026-04-04T09:50:23.94Z</time></trkpt><trkpt lat="45.472875" lon="8.602525"><ele>154.5</ele><time>2026-04-04T09:50:24.94Z</time></trkpt><trkpt lat="45.4728083" lon="8.60294"><ele>154.0</ele><time>2026-04-04T09:50:25.94Z</time></trkpt><trkpt lat="45.4727317" lon="8.6033483"><ele>155.0</ele><time>2026-04-04T09:50:26.94Z</time></trkpt><trkpt lat="45.4726633" lon="8.6037633"><ele>156.0</ele><time>2026-04-04T09:50:27.94Z</time></trkpt><trkpt lat="45.4726" lon="8.6041917"><ele>156.5</ele><time>2026-04-04T09:50:28.94Z</time></trkpt><trkpt lat="45.4725467" lon="8.6046033"><ele>157.0</ele><time>2026-04-04T09:50:29.939Z</time></trkpt><trkpt lat="45.472485" lon="8.60501"><ele>157.5</ele><time>2026-04-04T09:50:30.94Z</time></trkpt><trkpt lat="45.4724167" lon="8.6054133"><ele>158.0</ele><time>2026-04-04T09:50:31.94Z</time></trkpt><trkpt lat="45.47235" lon="8.60583"><ele>157.5</ele><time>2026-04-04T09:50:32.94Z</time></trkpt><trkpt lat="45.4722967" lon="8.606235"><ele>157.0</ele><time>2026-04-04T09:50:33.94Z</time></trkpt><trkpt lat="45.4722317" lon="8.6066433"><ele>157.0</ele><time>2026-04-04T09:50:34.94Z</time></trkpt><trkpt lat="45.4721667" lon="8.6070533"><ele>157.0</ele><time>2026-04-04T09:50:35.94Z</time></trkpt><trkpt lat="45.4721017" lon="8.60746"><ele>155.0</ele><time>2026-04-04T09:50:36.94Z</time></trkpt><trkpt lat="45.47204" lon="8.6078583"><ele>153.0</ele><time>2026-04-04T09:50:37.94Z</time></trkpt><trkpt lat="45.471975" lon="8.6082667"><ele>152.5</ele><time>2026-04-04T09:50:38.94Z</time></trkpt><trkpt lat="45.4719133" lon="8.6086667"><ele>152.0</ele><time>2026-04-04T09:50:39.94Z</time></trkpt><trkpt lat="45.4718517" lon="8.609075"><ele>152.0</ele><time>2026-04-04T09:50:40.94Z</time></trkpt><trkpt lat="45.4717983" lon="8.60947"><ele>152.0</ele><time>2026-04-04T09:50:41.939Z</time></trkpt><trkpt lat="45.47173" lon="8.60989"><ele>152.0</ele><time>2026-04-04T09:50:42.939Z</time></trkpt><trkpt lat="45.47166" lon="8.6102917"><ele>152.0</ele><time>2026-04-04T09:50:43.94Z</time></trkpt><trkpt lat="45.4716033" lon="8.6107017"><ele>153.0</ele><time>2026-04-04T09:50:44.94Z</time></trkpt><trkpt lat="45.47154" lon="8.6111217"><ele>154.0</ele><time>2026-04-04T09:50:45.939Z</time></trkpt><trkpt lat="45.4714783" lon="8.6115333"><ele>155.0</ele><time>2026-04-04T09:50:46.94Z</time></trkpt><trkpt lat="45.4714167" lon="8.6119367"><ele>156.0</ele><time>2026-04-04T09:50:47.939Z</time></trkpt><trkpt lat="45.4713483" lon="8.6123467"><ele>156.0</ele><time>2026-04-04T09:50:48.939Z</time></trkpt><trkpt lat="45.4712867" lon="8.6127583"><ele>156.0</ele><time>2026-04-04T09:50:49.939Z</time></trkpt><trkpt lat="45.4712217" lon="8.613175"><ele>155.5</ele><time>2026-04-04T09:50:50.939Z</time></trkpt><trkpt lat="45.4711617" lon="8.613595"><ele>155.0</ele><time>2026-04-04T09:50:51.939Z</time></trkpt><trkpt lat="45.4711" lon="8.61401"><ele>155.0</ele><time>2026-04-04T09:50:52.939Z</time></trkpt><trkpt lat="45.47104" lon="8.614425"><ele>155.0</ele><time>2026-04-04T09:50:53.939Z</time></trkpt><trkpt lat="45.47098" lon="8.6148417"><ele>156.0</ele><time>2026-04-04T09:50:54.939Z</time></trkpt><trkpt lat="45.4709233" lon="8.6152733"><ele>157.0</ele><time>2026-04-04T09:50:55.939Z</time></trkpt><trkpt lat="45.4708733" lon="8.6156867"><ele>157.5</ele><time>2026-04-04T09:50:56.939Z</time></trkpt><trkpt lat="45.4708167" lon="8.61612"><ele>158.0</ele><time>2026-04-04T09:50:57.939Z</time></trkpt><trkpt lat="45.4707467" lon="8.6165583"><ele>158.0</ele><time>2026-04-04T09:50:58.939Z</time></trkpt><trkpt lat="45.47066" lon="8.616985"><ele>158.0</ele><time>2026-04-04T09:50:59.939Z</time></trkpt><trkpt lat="45.4705917" lon="8.617405"><ele>158.0</ele><time>2026-04-04T09:51:00.939Z</time></trkpt><trkpt lat="45.4705317" lon="8.6178267"><ele>158.0</ele><time>2026-04-04T09:51:01.939Z</time></trkpt><trkpt lat="45.4704583" lon="8.6182617"><ele>155.5</ele><time>2026-04-04T09:51:02.939Z</time></trkpt><trkpt lat="45.470395" lon="8.6186767"><ele>153.0</ele><time>2026-04-04T09:51:03.939Z</time></trkpt><trkpt lat="45.47034" lon="8.6190817"><ele>153.5</ele><time>2026-04-04T09:51:04.939Z</time></trkpt><trkpt lat="45.4702767" lon="8.6195117"><ele>154.0</ele><time>2026-04-04T09:51:05.939Z</time></trkpt><trkpt lat="45.47022" lon="8.6199267"><ele>155.0</ele><time>2026-04-04T09:51:06.939Z</time></trkpt><trkpt lat="45.47016" lon="8.6203317"><ele>156.0</ele><time>2026-04-04T09:51:07.939Z</time></trkpt><trkpt lat="45.4700967" lon="8.6207567"><ele>155.0</ele><time>2026-04-04T09:51:08.939Z</time></trkpt><trkpt lat="45.4700383" lon="8.6211783"><ele>154.0</ele><time>2026-04-04T09:51:09.939Z</time></trkpt><trkpt lat="45.4699817" lon="8.6215833"><ele>154.0</ele><time>2026-04-04T09:51:10.939Z</time></trkpt><trkpt lat="45.4699383" lon="8.6219933"><ele>154.0</ele><time>2026-04-04T09:51:11.939Z</time></trkpt><trkpt lat="45.4698967" lon="8.622385"><ele>154.0</ele><time>2026-04-04T09:51:12.939Z</time></trkpt><trkpt lat="45.4698483" lon="8.6228"><ele>154.0</ele><time>2026-04-04T09:51:13.939Z</time></trkpt><trkpt lat="45.469805" lon="8.623215"><ele>154.0</ele><time>2026-04-04T09:51:14.939Z</time></trkpt><trkpt lat="45.469755" lon="8.6236233"><ele>154.0</ele><time>2026-04-04T09:51:15.939Z</time></trkpt><trkpt lat="45.4697017" lon="8.6240317"><ele>154.5</ele><time>2026-04-04T09:51:16.939Z</time></trkpt><trkpt lat="45.4696517" lon="8.6244567"><ele>155.0</ele><time>2026-04-04T09:51:17.939Z</time></trkpt><trkpt lat="45.4696067" lon="8.6248617"><ele>155.0</ele><time>2026-04-04T09:51:18.939Z</time></trkpt><trkpt lat="45.46956" lon="8.62527"><ele>155.0</ele><time>2026-04-04T09:51:19.939Z</time></trkpt><trkpt lat="45.46952" lon="8.6256783"><ele>155.0</ele><time>2026-04-04T09:51:20.939Z</time></trkpt><trkpt lat="45.4694867" lon="8.6260817"><ele>155.0</ele><time>2026-04-04T09:51:21.939Z</time></trkpt><trkpt lat="45.46946" lon="8.6264983"><ele>154.5</ele><time>2026-04-04T09:51:22.939Z</time></trkpt><trkpt lat="45.46943" lon="8.6269067"><ele>154.0</ele><time>2026-04-04T09:51:23.939Z</time></trkpt><trkpt lat="45.4694017" lon="8.6273067"><ele>154.0</ele><time>2026-04-04T09:51:24.939Z</time></trkpt><trkpt lat="45.469375" lon="8.6277217"><ele>154.0</ele><time>2026-04-04T09:51:25.939Z</time></trkpt><trkpt lat="45.4693483" lon="8.628135"><ele>154.0</ele><time>2026-04-04T09:51:26.939Z</time></trkpt><trkpt lat="45.4693233" lon="8.6285433"><ele>154.0</ele><time>2026-04-04T09:51:27.938Z</time></trkpt><trkpt lat="45.4692967" lon="8.6289583"><ele>154.0</ele><time>2026-04-04T09:51:28.939Z</time></trkpt><trkpt lat="45.4692667" lon="8.6293817"><ele>154.0</ele><time>2026-04-04T09:51:29.939Z</time></trkpt><trkpt lat="45.46924" lon="8.6298117"><ele>154.0</ele><time>2026-04-04T09:51:30.939Z</time></trkpt><trkpt lat="45.4692067" lon="8.6302383"><ele>154.0</ele><time>2026-04-04T09:51:31.938Z</time></trkpt><trkpt lat="45.4691767" lon="8.6306717"><ele>153.0</ele><time>2026-04-04T09:51:32.939Z</time></trkpt><trkpt lat="45.4691517" lon="8.6311017"><ele>152.0</ele><time>2026-04-04T09:51:33.939Z</time></trkpt><trkpt lat="45.4691417" lon="8.6315383"><ele>151.5</ele><time>2026-04-04T09:51:34.939Z</time></trkpt><trkpt lat="45.4691267" lon="8.6319667"><ele>151.0</ele><time>2026-04-04T09:51:35.939Z</time></trkpt><trkpt lat="45.46911" lon="8.63241"><ele>151.0</ele><time>2026-04-04T09:51:36.939Z</time></trkpt><trkpt lat="45.46909" lon="8.6328483"><ele>151.0</ele><time>2026-04-04T09:51:37.939Z</time></trkpt><trkpt lat="45.46908" lon="8.63329"><ele>151.5</ele><time>2026-04-04T09:51:38.939Z</time></trkpt><trkpt lat="45.4690667" lon="8.633735"><ele>152.0</ele><time>2026-04-04T09:51:39.938Z</time></trkpt><trkpt lat="45.4690517" lon="8.6341817"><ele>151.0</ele><time>2026-04-04T09:51:40.939Z</time></trkpt><trkpt lat="45.46904" lon="8.6346233"><ele>150.0</ele><time>2026-04-04T09:51:41.939Z</time></trkpt><trkpt lat="45.4690233" lon="8.6350717"><ele>150.5</ele><time>2026-04-04T09:51:42.938Z</time></trkpt><trkpt lat="45.4690117" lon="8.63552"><ele>151.0</ele><time>2026-04-04T09:51:43.939Z</time></trkpt><trkpt lat="45.469" lon="8.6359567"><ele>151.0</ele><time>2026-04-04T09:51:44.939Z</time></trkpt><trkpt lat="45.468985" lon="8.6364017"><ele>151.0</ele><time>2026-04-04T09:51:45.939Z</time></trkpt><trkpt lat="45.468975" lon="8.636855"><ele>152.0</ele><time>2026-04-04T09:51:46.939Z</time></trkpt><trkpt lat="45.46897" lon="8.6373117"><ele>153.0</ele><time>2026-04-04T09:51:47.939Z</time></trkpt><trkpt lat="45.4689683" lon="8.637755"><ele>153.0</ele><time>2026-04-04T09:51:48.939Z</time></trkpt><trkpt lat="45.46897" lon="8.6381883"><ele>153.0</ele><time>2026-04-04T09:51:49.939Z</time></trkpt><trkpt lat="45.4689617" lon="8.6386283"><ele>152.5</ele><time>2026-04-04T09:51:50.939Z</time></trkpt><trkpt lat="45.4689583" lon="8.6390683"><ele>152.0</ele><time>2026-04-04T09:51:51.939Z</time></trkpt><trkpt lat="45.4689467" lon="8.63951"><ele>151.5</ele><time>2026-04-04T09:51:52.939Z</time></trkpt><trkpt lat="45.4689383" lon="8.639935"><ele>151.0</ele><time>2026-04-04T09:51:53.938Z</time></trkpt><trkpt lat="45.4689333" lon="8.640365"><ele>150.0</ele><time>2026-04-04T09:51:54.939Z</time></trkpt><trkpt lat="45.4689317" lon="8.640795"><ele>149.0</ele><time>2026-04-04T09:51:55.939Z</time></trkpt><trkpt lat="45.468925" lon="8.6412283"><ele>149.5</ele><time>2026-04-04T09:51:56.939Z</time></trkpt><trkpt lat="45.4689217" lon="8.6416617"><ele>150.0</ele><time>2026-04-04T09:51:57.939Z</time></trkpt><trkpt lat="45.4689133" lon="8.6420983"><ele>150.0</ele><time>2026-04-04T09:51:58.939Z</time></trkpt><trkpt lat="45.4689083" lon="8.6425217"><ele>150.0</ele><time>2026-04-04T09:51:59.939Z</time></trkpt><trkpt lat="45.4689" lon="8.6429517"><ele>150.5</ele><time>2026-04-04T09:52:00.939Z</time></trkpt><trkpt lat="45.4688933" lon="8.64338"><ele>151.0</ele><time>2026-04-04T09:52:01.939Z</time></trkpt><trkpt lat="45.46889" lon="8.6438067"><ele>152.0</ele><time>2026-04-04T09:52:02.939Z</time></trkpt><trkpt lat="45.4688883" lon="8.6442383"><ele>153.0</ele><time>2026-04-04T09:52:03.939Z</time></trkpt><trkpt lat="45.468885" lon="8.64467"><ele>153.0</ele><time>2026-04-04T09:52:04.939Z</time></trkpt><trkpt lat="45.4688883" lon="8.64509"><ele>153.0</ele><time>2026-04-04T09:52:05.939Z</time></trkpt><trkpt lat="45.46888" lon="8.64552"><ele>153.5</ele><time>2026-04-04T09:52:06.939Z</time></trkpt><trkpt lat="45.4688733" lon="8.645955"><ele>154.0</ele><time>2026-04-04T09:52:07.939Z</time></trkpt><trkpt lat="45.46887" lon="8.6463867"><ele>154.0</ele><time>2026-04-04T09:52:08.939Z</time></trkpt><trkpt lat="45.4688533" lon="8.6468233"><ele>154.0</ele><time>2026-04-04T09:52:09.939Z</time></trkpt><trkpt lat="45.4688483" lon="8.6472617"><ele>153.0</ele><time>2026-04-04T09:52:10.939Z</time></trkpt><trkpt lat="45.4688467" lon="8.6476917"><ele>152.0</ele><time>2026-04-04T09:52:11.939Z</time></trkpt><trkpt lat="45.4688383" lon="8.648125"><ele>151.5</ele><time>2026-04-04T09:52:12.939Z</time></trkpt><trkpt lat="45.4688267" lon="8.6485633"><ele>151.0</ele><time>2026-04-04T09:52:13.939Z</time></trkpt><trkpt lat="45.4688167" lon="8.6489983"><ele>151.5</ele><time>2026-04-04T09:52:14.939Z</time></trkpt><trkpt lat="45.4688033" lon="8.649445"><ele>152.0</ele><time>2026-04-04T09:52:15.939Z</time></trkpt><trkpt lat="45.468795" lon="8.6498883"><ele>150.0</ele><time>2026-04-04T09:52:16.939Z</time></trkpt><trkpt lat="45.4687917" lon="8.6503083"><ele>148.0</ele><time>2026-04-04T09:52:17.939Z</time></trkpt><trkpt lat="45.46879" lon="8.6507433"><ele>149.0</ele><time>2026-04-04T09:52:18.939Z</time></trkpt><trkpt lat="45.4687833" lon="8.6511667"><ele>150.0</ele><time>2026-04-04T09:52:19.939Z</time></trkpt><trkpt lat="45.4687733" lon="8.6515917"><ele>150.0</ele><time>2026-04-04T09:52:20.939Z</time></trkpt><trkpt lat="45.4687583" lon="8.6520217"><ele>150.0</ele><time>2026-04-04T09:52:21.939Z</time></trkpt><trkpt lat="45.46875" lon="8.6524567"><ele>149.5</ele><time>2026-04-04T09:52:22.939Z</time></trkpt><trkpt lat="45.4687383" lon="8.65287"><ele>149.0</ele><time>2026-04-04T09:52:23.939Z</time></trkpt><trkpt lat="45.46874" lon="8.6532917"><ele>148.5</ele><time>2026-04-04T09:52:24.939Z</time></trkpt><trkpt lat="45.4687283" lon="8.6537117"><ele>148.0</ele><time>2026-04-04T09:52:25.939Z</time></trkpt><trkpt lat="45.468735" lon="8.6541417"><ele>148.0</ele><time>2026-04-04T09:52:26.939Z</time></trkpt><trkpt lat="45.46872" lon="8.654575"><ele>148.0</ele><time>2026-04-04T09:52:27.939Z</time></trkpt><trkpt lat="45.4686933" lon="8.6549767"><ele>148.5</ele><time>2026-04-04T09:52:28.939Z</time></trkpt><trkpt lat="45.4686867" lon="8.6553917"><ele>149.0</ele><time>2026-04-04T09:52:29.939Z</time></trkpt><trkpt lat="45.4686917" lon="8.6557933"><ele>149.5</ele><time>2026-04-04T09:52:30.939Z</time></trkpt><trkpt lat="45.4686933" lon="8.6562167"><ele>150.0</ele><time>2026-04-04T09:52:31.939Z</time></trkpt><trkpt lat="45.4686917" lon="8.6566433"><ele>150.0</ele><time>2026-04-04T09:52:32.939Z</time></trkpt><trkpt lat="45.4686833" lon="8.6570483"><ele>150.0</ele><time>2026-04-04T09:52:33.939Z</time></trkpt><trkpt lat="45.4686717" lon="8.65749"><ele>150.0</ele><time>2026-04-04T09:52:34.939Z</time></trkpt><trkpt lat="45.4686583" lon="8.6579217"><ele>150.0</ele><time>2026-04-04T09:52:35.939Z</time></trkpt><trkpt lat="45.4686517" lon="8.65836"><ele>150.5</ele><time>2026-04-04T09:52:36.939Z</time></trkpt><trkpt lat="45.4686533" lon="8.6587867"><ele>151.0</ele><time>2026-04-04T09:52:37.939Z</time></trkpt><trkpt lat="45.46866" lon="8.6592083"><ele>151.5</ele><time>2026-04-04T09:52:38.939Z</time></trkpt><trkpt lat="45.4686533" lon="8.6596283"><ele>152.0</ele><time>2026-04-04T09:52:39.939Z</time></trkpt><trkpt lat="45.4686467" lon="8.6600633"><ele>154.0</ele><time>2026-04-04T09:52:40.939Z</time></trkpt><trkpt lat="45.4686417" lon="8.6604817"><ele>156.0</ele><time>2026-04-04T09:52:41.939Z</time></trkpt><trkpt lat="45.4686433" lon="8.6609133"><ele>153.5</ele><time>2026-04-04T09:52:42.939Z</time></trkpt><trkpt lat="45.4686283" lon="8.6613517"><ele>151.0</ele><time>2026-04-04T09:52:43.939Z</time></trkpt><trkpt lat="45.4686183" lon="8.6617767"><ele>149.5</ele><time>2026-04-04T09:52:44.939Z</time></trkpt><trkpt lat="45.4685933" lon="8.66222"><ele>148.0</ele><time>2026-04-04T09:52:45.939Z</time></trkpt><trkpt lat="45.46858" lon="8.6626483"><ele>149.0</ele><time>2026-04-04T09:52:46.939Z</time></trkpt><trkpt lat="45.468565" lon="8.6630817"><ele>150.0</ele><time>2026-04-04T09:52:47.939Z</time></trkpt><trkpt lat="45.4685517" lon="8.6635117"><ele>149.5</ele><time>2026-04-04T09:52:48.939Z</time></trkpt><trkpt lat="45.46855" lon="8.663935"><ele>149.0</ele><time>2026-04-04T09:52:49.939Z</time></trkpt><trkpt lat="45.4685467" lon="8.6643533"><ele>148.5</ele><time>2026-04-04T09:52:50.939Z</time></trkpt><trkpt lat="45.4685483" lon="8.6647667"><ele>148.0</ele><time>2026-04-04T09:52:51.939Z</time></trkpt><trkpt lat="45.4685467" lon="8.66518"><ele>148.0</ele><time>2026-04-04T09:52:52.939Z</time></trkpt><trkpt lat="45.4685433" lon="8.6655933"><ele>148.0</ele><time>2026-04-04T09:52:53.939Z</time></trkpt><trkpt lat="45.4685383" lon="8.666015"><ele>147.5</ele><time>2026-04-04T09:52:54.939Z</time></trkpt><trkpt lat="45.4685283" lon="8.6664433"><ele>147.0</ele><time>2026-04-04T09:52:55.939Z</time></trkpt><trkpt lat="45.468525" lon="8.6668667"><ele>147.0</ele><time>2026-04-04T09:52:56.939Z</time></trkpt><trkpt lat="45.4685217" lon="8.6672833"><ele>147.0</ele><time>2026-04-04T09:52:57.939Z</time></trkpt><trkpt lat="45.4685133" lon="8.66771"><ele>147.0</ele><time>2026-04-04T09:52:58.939Z</time></trkpt><trkpt lat="45.4685067" lon="8.6681367"><ele>147.0</ele><time>2026-04-04T09:52:59.939Z</time></trkpt><trkpt lat="45.4685033" lon="8.6685583"><ele>147.0</ele><time>2026-04-04T09:53:00.939Z</time></trkpt><trkpt lat="45.4684917" lon="8.6690017"><ele>147.0</ele><time>2026-04-04T09:53:01.939Z</time></trkpt><trkpt lat="45.4684817" lon="8.6694333"><ele>147.5</ele><time>2026-04-04T09:53:02.939Z</time></trkpt><trkpt lat="45.4684717" lon="8.6698667"><ele>148.0</ele><time>2026-04-04T09:53:03.939Z</time></trkpt><trkpt lat="45.4684617" lon="8.670305"><ele>148.0</ele><time>2026-04-04T09:53:04.939Z</time></trkpt><trkpt lat="45.468455" lon="8.6707267"><ele>148.0</ele><time>2026-04-04T09:53:05.939Z</time></trkpt><trkpt lat="45.4684417" lon="8.67116"><ele>148.0</ele><time>2026-04-04T09:53:06.939Z</time></trkpt><trkpt lat="45.4684367" lon="8.6715817"><ele>148.0</ele><time>2026-04-04T09:53:07.939Z</time></trkpt><trkpt lat="45.46843" lon="8.672015"><ele>147.5</ele><time>2026-04-04T09:53:08.939Z</time></trkpt><trkpt lat="45.4684233" lon="8.6724467"><ele>147.0</ele><time>2026-04-04T09:53:09.939Z</time></trkpt><trkpt lat="45.4684167" lon="8.6728667"><ele>148.5</ele><time>2026-04-04T09:53:10.939Z</time></trkpt><trkpt lat="45.4684083" lon="8.67329"><ele>150.0</ele><time>2026-04-04T09:53:11.939Z</time></trkpt><trkpt lat="45.468395" lon="8.6737133"><ele>150.0</ele><time>2026-04-04T09:53:12.939Z</time></trkpt><trkpt lat="45.46839" lon="8.6741383"><ele>150.0</ele><time>2026-04-04T09:53:13.938Z</time></trkpt><trkpt lat="45.4683783" lon="8.6745683"><ele>149.5</ele><time>2026-04-04T09:53:14.939Z</time></trkpt><trkpt lat="45.4683683" lon="8.6749867"><ele>149.0</ele><time>2026-04-04T09:53:15.939Z</time></trkpt><trkpt lat="45.4683433" lon="8.6754083"><ele>149.0</ele><time>2026-04-04T09:53:16.939Z</time></trkpt><trkpt lat="45.4683283" lon="8.6758317"><ele>149.0</ele><time>2026-04-04T09:53:17.939Z</time></trkpt><trkpt lat="45.468325" lon="8.6762383"><ele>149.0</ele><time>2026-04-04T09:53:18.939Z</time></trkpt><trkpt lat="45.468325" lon="8.6766567"><ele>149.0</ele><time>2026-04-04T09:53:19.939Z</time></trkpt><trkpt lat="45.4683217" lon="8.677085"><ele>149.0</ele><time>2026-04-04T09:53:20.939Z</time></trkpt><trkpt lat="45.468315" lon="8.6774967"><ele>149.0</ele><time>2026-04-04T09:53:21.939Z</time></trkpt><trkpt lat="45.4682867" lon="8.6779317"><ele>149.0</ele><time>2026-04-04T09:53:22.939Z</time></trkpt><trkpt lat="45.4682733" lon="8.6783567"><ele>149.0</ele><time>2026-04-04T09:53:23.938Z</time></trkpt><trkpt lat="45.46827" lon="8.67877"><ele>150.0</ele><time>2026-04-04T09:53:24.939Z</time></trkpt><trkpt lat="45.4682817" lon="8.6791733"><ele>151.0</ele><time>2026-04-04T09:53:25.939Z</time></trkpt><trkpt lat="45.4682867" lon="8.6795783"><ele>151.5</ele><time>2026-04-04T09:53:26.939Z</time></trkpt><trkpt lat="45.4682833" lon="8.6799917"><ele>152.0</ele><time>2026-04-04T09:53:27.939Z</time></trkpt><trkpt lat="45.4682917" lon="8.6804017"><ele>152.0</ele><time>2026-04-04T09:53:28.939Z</time></trkpt><trkpt lat="45.4682933" lon="8.6808117"><ele>152.0</ele><time>2026-04-04T09:53:29.939Z</time></trkpt><trkpt lat="45.468285" lon="8.68123"><ele>149.5</ele><time>2026-04-04T09:53:30.939Z</time></trkpt><trkpt lat="45.46828" lon="8.6816433"><ele>147.0</ele><time>2026-04-04T09:53:31.939Z</time></trkpt><trkpt lat="45.4682667" lon="8.68207"><ele>147.0</ele><time>2026-04-04T09:53:32.939Z</time></trkpt><trkpt lat="45.46826" lon="8.6824817"><ele>147.0</ele><time>2026-04-04T09:53:33.938Z</time></trkpt><trkpt lat="45.4682517" lon="8.6829017"><ele>147.5</ele><time>2026-04-04T09:53:34.938Z</time></trkpt><trkpt lat="45.4682483" lon="8.68333"><ele>148.0</ele><time>2026-04-04T09:53:35.939Z</time></trkpt><trkpt lat="45.4682433" lon="8.6837483"><ele>149.0</ele><time>2026-04-04T09:53:36.939Z</time></trkpt><trkpt lat="45.4682367" lon="8.6841633"><ele>150.0</ele><time>2026-04-04T09:53:37.939Z</time></trkpt><trkpt lat="45.4682383" lon="8.6845617"><ele>150.0</ele><time>2026-04-04T09:53:38.939Z</time></trkpt><trkpt lat="45.4682283" lon="8.6849817"><ele>150.0</ele><time>2026-04-04T09:53:39.939Z</time></trkpt><trkpt lat="45.4682183" lon="8.6854067"><ele>150.0</ele><time>2026-04-04T09:53:40.938Z</time></trkpt><trkpt lat="45.468205" lon="8.685835"><ele>150.0</ele><time>2026-04-04T09:53:41.939Z</time></trkpt><trkpt lat="45.4681983" lon="8.686265"><ele>149.5</ele><time>2026-04-04T09:53:42.939Z</time></trkpt><trkpt lat="45.468185" lon="8.6866967"><ele>149.0</ele><time>2026-04-04T09:53:43.938Z</time></trkpt><trkpt lat="45.468175" lon="8.6871267"><ele>148.5</ele><time>2026-04-04T09:53:44.939Z</time></trkpt><trkpt lat="45.4681717" lon="8.6875667"><ele>148.0</ele><time>2026-04-04T09:53:45.938Z</time></trkpt><trkpt lat="45.4681633" lon="8.6880133"><ele>147.5</ele><time>2026-04-04T09:53:46.939Z</time></trkpt><trkpt lat="45.4681583" lon="8.688445"><ele>147.0</ele><time>2026-04-04T09:53:47.939Z</time></trkpt><trkpt lat="45.468145" lon="8.6888683"><ele>147.0</ele><time>2026-04-04T09:53:48.939Z</time></trkpt><trkpt lat="45.4681383" lon="8.6892817"><ele>147.0</ele><time>2026-04-04T09:53:49.939Z</time></trkpt><trkpt lat="45.4681383" lon="8.6896817"><ele>147.0</ele><time>2026-04-04T09:53:50.938Z</time></trkpt><trkpt lat="45.4681383" lon="8.690075"><ele>147.0</ele><time>2026-04-04T09:53:51.938Z</time></trkpt><trkpt lat="45.468135" lon="8.69047"><ele>147.0</ele><time>2026-04-04T09:53:52.939Z</time></trkpt><trkpt lat="45.4681267" lon="8.6908667"><ele>147.0</ele><time>2026-04-04T09:53:53.939Z</time></trkpt><trkpt lat="45.4681283" lon="8.6912467"><ele>147.0</ele><time>2026-04-04T09:53:54.939Z</time></trkpt><trkpt lat="45.46814" lon="8.6916017"><ele>147.0</ele><time>2026-04-04T09:53:55.939Z</time></trkpt><trkpt lat="45.46813" lon="8.69198"><ele>147.0</ele><time>2026-04-04T09:53:56.939Z</time></trkpt><trkpt lat="45.4681283" lon="8.69236"><ele>147.0</ele><time>2026-04-04T09:53:57.939Z</time></trkpt><trkpt lat="45.4681217" lon="8.6927433"><ele>147.5</ele><time>2026-04-04T09:53:58.939Z</time></trkpt><trkpt lat="45.4681117" lon="8.6931267"><ele>148.0</ele><time>2026-04-04T09:53:59.939Z</time></trkpt><trkpt lat="45.4681067" lon="8.6935133"><ele>148.0</ele><time>2026-04-04T09:54:00.939Z</time></trkpt><trkpt lat="45.4681033" lon="8.6938833"><ele>148.0</ele><time>2026-04-04T09:54:01.939Z</time></trkpt><trkpt lat="45.4680967" lon="8.6942483"><ele>147.0</ele><time>2026-04-04T09:54:02.939Z</time></trkpt><trkpt lat="45.468105" lon="8.6946083"><ele>146.0</ele><time>2026-04-04T09:54:03.939Z</time></trkpt><trkpt lat="45.4681033" lon="8.6949733"><ele>146.0</ele><time>2026-04-04T09:54:04.939Z</time></trkpt><trkpt lat="45.4681" lon="8.6953483"><ele>146.0</ele><time>2026-04-04T09:54:05.939Z</time></trkpt><trkpt lat="45.46809" lon="8.695725"><ele>146.5</ele><time>2026-04-04T09:54:06.939Z</time></trkpt><trkpt lat="45.4680767" lon="8.696115"><ele>147.0</ele><time>2026-04-04T09:54:07.939Z</time></trkpt><trkpt lat="45.46807" lon="8.6965283"><ele>148.0</ele><time>2026-04-04T09:54:08.939Z</time></trkpt><trkpt lat="45.468065" lon="8.6969433"><ele>149.0</ele><time>2026-04-04T09:54:09.939Z</time></trkpt><trkpt lat="45.4680467" lon="8.6973817"><ele>148.0</ele><time>2026-04-04T09:54:10.939Z</time></trkpt><trkpt lat="45.4680383" lon="8.6978283"><ele>147.0</ele><time>2026-04-04T09:54:11.938Z</time></trkpt><trkpt lat="45.4680283" lon="8.6982933"><ele>147.0</ele><time>2026-04-04T09:54:12.939Z</time></trkpt><trkpt lat="45.4680183" lon="8.69877"><ele>147.0</ele><time>2026-04-04T09:54:13.939Z</time></trkpt><trkpt lat="45.4680033" lon="8.6992567"><ele>146.5</ele><time>2026-04-04T09:54:14.939Z</time></trkpt><trkpt lat="45.4679917" lon="8.6997417"><ele>146.0</ele><time>2026-04-04T09:54:15.939Z</time></trkpt><trkpt lat="45.4679783" lon="8.7002167"><ele>145.5</ele><time>2026-04-04T09:54:16.939Z</time></trkpt><trkpt lat="45.4679717" lon="8.7006917"><ele>145.0</ele><time>2026-04-04T09:54:17.939Z</time></trkpt><trkpt lat="45.4679733" lon="8.7011717"><ele>146.0</ele><time>2026-04-04T09:54:18.939Z</time></trkpt><trkpt lat="45.4679583" lon="8.70166"><ele>147.0</ele><time>2026-04-04T09:54:19.939Z</time></trkpt><trkpt lat="45.467945" lon="8.702155"><ele>147.0</ele><time>2026-04-04T09:54:20.939Z</time></trkpt><trkpt lat="45.4679417" lon="8.7026467"><ele>147.0</ele><time>2026-04-04T09:54:21.939Z</time></trkpt><trkpt lat="45.467935" lon="8.703635"><ele>147.0</ele><time>2026-04-04T09:54:23.938Z</time></trkpt><trkpt lat="45.4679317" lon="8.7041317"><ele>147.0</ele><time>2026-04-04T09:54:24.939Z</time></trkpt><trkpt lat="45.4679267" lon="8.7046133"><ele>145.0</ele><time>2026-04-04T09:54:25.939Z</time></trkpt><trkpt lat="45.4679217" lon="8.705505"><ele>145.0</ele><time>2026-04-04T09:54:27.939Z</time></trkpt><trkpt lat="45.4679067" lon="8.7059517"><ele>145.0</ele><time>2026-04-04T09:54:28.939Z</time></trkpt><trkpt lat="45.4679" lon="8.70638"><ele>145.5</ele><time>2026-04-04T09:54:29.939Z</time></trkpt><trkpt lat="45.467875" lon="8.7068283"><ele>146.0</ele><time>2026-04-04T09:54:30.939Z</time></trkpt><trkpt lat="45.467845" lon="8.7072833"><ele>146.0</ele><time>2026-04-04T09:54:31.939Z</time></trkpt><trkpt lat="45.467855" lon="8.7077017"><ele>146.0</ele><time>2026-04-04T09:54:32.939Z</time></trkpt><trkpt lat="45.4678467" lon="8.7081383"><ele>146.5</ele><time>2026-04-04T09:54:33.939Z</time></trkpt><trkpt lat="45.4678317" lon="8.7085917"><ele>147.0</ele><time>2026-04-04T09:54:34.939Z</time></trkpt><trkpt lat="45.4678083" lon="8.709045"><ele>147.0</ele><time>2026-04-04T09:54:35.939Z</time></trkpt><trkpt lat="45.467815" lon="8.7094883"><ele>147.0</ele><time>2026-04-04T09:54:36.939Z</time></trkpt><trkpt lat="45.4678117" lon="8.7099267"><ele>147.0</ele><time>2026-04-04T09:54:37.939Z</time></trkpt><trkpt lat="45.46781" lon="8.7103533"><ele>147.0</ele><time>2026-04-04T09:54:38.939Z</time></trkpt><trkpt lat="45.4678067" lon="8.7107833"><ele>146.5</ele><time>2026-04-04T09:54:39.938Z</time></trkpt><trkpt lat="45.4678067" lon="8.7112067"><ele>146.0</ele><time>2026-04-04T09:54:40.939Z</time></trkpt><trkpt lat="45.4678067" lon="8.7116317"><ele>146.0</ele><time>2026-04-04T09:54:41.939Z</time></trkpt><trkpt lat="45.4678033" lon="8.7120567"><ele>146.0</ele><time>2026-04-04T09:54:42.939Z</time></trkpt><trkpt lat="45.4677967" lon="8.71249"><ele>145.0</ele><time>2026-04-04T09:54:43.939Z</time></trkpt><trkpt lat="45.46779" lon="8.7129283"><ele>144.0</ele><time>2026-04-04T09:54:44.939Z</time></trkpt><trkpt lat="45.4677767" lon="8.713365"><ele>145.0</ele><time>2026-04-04T09:54:45.939Z</time></trkpt><trkpt lat="45.4677717" lon="8.7138033"><ele>146.0</ele><time>2026-04-04T09:54:46.939Z</time></trkpt><trkpt lat="45.4677683" lon="8.71424"><ele>145.5</ele><time>2026-04-04T09:54:47.939Z</time></trkpt><trkpt lat="45.4677683" lon="8.7146767"><ele>145.0</ele><time>2026-04-04T09:54:48.939Z</time></trkpt><trkpt lat="45.4677583" lon="8.715105"><ele>145.0</ele><time>2026-04-04T09:54:49.938Z</time></trkpt><trkpt lat="45.4677467" lon="8.7155383"><ele>145.0</ele><time>2026-04-04T09:54:50.939Z</time></trkpt><trkpt lat="45.4677367" lon="8.7159833"><ele>145.0</ele><time>2026-04-04T09:54:51.939Z</time></trkpt><trkpt lat="45.4677283" lon="8.7164283"><ele>145.0</ele><time>2026-04-04T09:54:52.939Z</time></trkpt><trkpt lat="45.4677233" lon="8.7168517"><ele>145.0</ele><time>2026-04-04T09:54:53.939Z</time></trkpt><trkpt lat="45.4677117" lon="8.7172967"><ele>145.0</ele><time>2026-04-04T09:54:54.938Z</time></trkpt><trkpt lat="45.4677" lon="8.7177367"><ele>145.0</ele><time>2026-04-04T09:54:55.939Z</time></trkpt><trkpt lat="45.4677033" lon="8.718165"><ele>145.0</ele><time>2026-04-04T09:54:56.939Z</time></trkpt><trkpt lat="45.4676967" lon="8.7185833"><ele>145.0</ele><time>2026-04-04T09:54:57.939Z</time></trkpt><trkpt lat="45.46769" lon="8.7190017"><ele>145.0</ele><time>2026-04-04T09:54:58.939Z</time></trkpt><trkpt lat="45.4676767" lon="8.71943"><ele>145.5</ele><time>2026-04-04T09:54:59.939Z</time></trkpt><trkpt lat="45.467665" lon="8.719855"><ele>146.0</ele><time>2026-04-04T09:55:00.939Z</time></trkpt><trkpt lat="45.46766" lon="8.7202767"><ele>146.0</ele><time>2026-04-04T09:55:01.938Z</time></trkpt><trkpt lat="45.4676467" lon="8.7206967"><ele>146.0</ele><time>2026-04-04T09:55:02.938Z</time></trkpt><trkpt lat="45.467635" lon="8.721125"><ele>146.5</ele><time>2026-04-04T09:55:03.939Z</time></trkpt><trkpt lat="45.46762" lon="8.72155"><ele>147.0</ele><time>2026-04-04T09:55:04.939Z</time></trkpt><trkpt lat="45.467615" lon="8.7219717"><ele>147.0</ele><time>2026-04-04T09:55:05.939Z</time></trkpt><trkpt lat="45.467605" lon="8.7224"><ele>147.0</ele><time>2026-04-04T09:55:06.939Z</time></trkpt><trkpt lat="45.4676017" lon="8.72282"><ele>146.5</ele><time>2026-04-04T09:55:07.938Z</time></trkpt><trkpt lat="45.4675983" lon="8.7232467"><ele>146.0</ele><time>2026-04-04T09:55:08.939Z</time></trkpt><trkpt lat="45.4675883" lon="8.7236667"><ele>145.5</ele><time>2026-04-04T09:55:09.939Z</time></trkpt><trkpt lat="45.46758" lon="8.72408"><ele>145.0</ele><time>2026-04-04T09:55:10.939Z</time></trkpt><trkpt lat="45.4675767" lon="8.7245133"><ele>145.0</ele><time>2026-04-04T09:55:11.939Z</time></trkpt><trkpt lat="45.46757" lon="8.72494"><ele>145.0</ele><time>2026-04-04T09:55:12.939Z</time></trkpt><trkpt lat="45.46757" lon="8.725365"><ele>144.5</ele><time>2026-04-04T09:55:13.939Z</time></trkpt><trkpt lat="45.4675617" lon="8.7257983"><ele>144.0</ele><time>2026-04-04T09:55:14.939Z</time></trkpt><trkpt lat="45.4675533" lon="8.726225"><ele>144.0</ele><time>2026-04-04T09:55:15.938Z</time></trkpt><trkpt lat="45.4675467" lon="8.7266567"><ele>144.0</ele><time>2026-04-04T09:55:16.939Z</time></trkpt><trkpt lat="45.4675467" lon="8.7270867"><ele>144.0</ele><time>2026-04-04T09:55:17.939Z</time></trkpt><trkpt lat="45.4675417" lon="8.7275217"><ele>144.0</ele><time>2026-04-04T09:55:18.939Z</time></trkpt><trkpt lat="45.46753" lon="8.7279517"><ele>144.0</ele><time>2026-04-04T09:55:19.938Z</time></trkpt><trkpt lat="45.467525" lon="8.7283733"><ele>144.0</ele><time>2026-04-04T09:55:20.938Z</time></trkpt><trkpt lat="45.4675167" lon="8.7288017"><ele>144.0</ele><time>2026-04-04T09:55:21.938Z</time></trkpt><trkpt lat="45.467505" lon="8.7292367"><ele>144.0</ele><time>2026-04-04T09:55:22.938Z</time></trkpt><trkpt lat="45.467495" lon="8.7296733"><ele>145.0</ele><time>2026-04-04T09:55:23.938Z</time></trkpt><trkpt lat="45.4674883" lon="8.7300867"><ele>146.0</ele><time>2026-04-04T09:55:24.938Z</time></trkpt><trkpt lat="45.4674767" lon="8.730495"><ele>146.5</ele><time>2026-04-04T09:55:25.938Z</time></trkpt><trkpt lat="45.4674733" lon="8.73091"><ele>147.0</ele><time>2026-04-04T09:55:26.938Z</time></trkpt><trkpt lat="45.467465" lon="8.731335"><ele>146.0</ele><time>2026-04-04T09:55:27.938Z</time></trkpt><trkpt lat="45.4674583" lon="8.7317617"><ele>145.0</ele><time>2026-04-04T09:55:28.938Z</time></trkpt><trkpt lat="45.4674517" lon="8.7321883"><ele>145.0</ele><time>2026-04-04T09:55:29.938Z</time></trkpt><trkpt lat="45.4674467" lon="8.732605"><ele>145.0</ele><time>2026-04-04T09:55:30.938Z</time></trkpt><trkpt lat="45.4674417" lon="8.733025"><ele>145.0</ele><time>2026-04-04T09:55:31.938Z</time></trkpt><trkpt lat="45.4674367" lon="8.7334417"><ele>145.0</ele><time>2026-04-04T09:55:32.938Z</time></trkpt><trkpt lat="45.46743" lon="8.7338633"><ele>145.5</ele><time>2026-04-04T09:55:33.937Z</time></trkpt><trkpt lat="45.467425" lon="8.7342933"><ele>146.0</ele><time>2026-04-04T09:55:34.938Z</time></trkpt><trkpt lat="45.4674267" lon="8.7347183"><ele>146.5</ele><time>2026-04-04T09:55:35.938Z</time></trkpt><trkpt lat="45.4674183" lon="8.7351567"><ele>147.0</ele><time>2026-04-04T09:55:36.938Z</time></trkpt><trkpt lat="45.4674167" lon="8.7356017"><ele>147.0</ele><time>2026-04-04T09:55:37.938Z</time></trkpt><trkpt lat="45.4674167" lon="8.7360517"><ele>147.0</ele><time>2026-04-04T09:55:38.938Z</time></trkpt><trkpt lat="45.46741" lon="8.73652"><ele>145.0</ele><time>2026-04-04T09:55:39.938Z</time></trkpt><trkpt lat="45.4674067" lon="8.736975"><ele>143.0</ele><time>2026-04-04T09:55:40.938Z</time></trkpt><trkpt lat="45.467405" lon="8.737425"><ele>142.5</ele><time>2026-04-04T09:55:41.938Z</time></trkpt><trkpt lat="45.46739" lon="8.7378667"><ele>142.0</ele><time>2026-04-04T09:55:42.938Z</time></trkpt><trkpt lat="45.4673767" lon="8.73828"><ele>142.5</ele><time>2026-04-04T09:55:43.938Z</time></trkpt><trkpt lat="45.4673717" lon="8.7386967"><ele>143.0</ele><time>2026-04-04T09:55:44.938Z</time></trkpt><trkpt lat="45.4673583" lon="8.7391183"><ele>144.0</ele><time>2026-04-04T09:55:45.938Z</time></trkpt><trkpt lat="45.467345" lon="8.7395417"><ele>145.0</ele><time>2026-04-04T09:55:46.938Z</time></trkpt><trkpt lat="45.467335" lon="8.739965"><ele>145.0</ele><time>2026-04-04T09:55:47.938Z</time></trkpt><trkpt lat="45.4673217" lon="8.740395"><ele>145.0</ele><time>2026-04-04T09:55:48.937Z</time></trkpt><trkpt lat="45.46731" lon="8.740825"><ele>145.0</ele><time>2026-04-04T09:55:49.938Z</time></trkpt><trkpt lat="45.4673167" lon="8.74126"><ele>145.0</ele><time>2026-04-04T09:55:50.938Z</time></trkpt><trkpt lat="45.46731" lon="8.741685"><ele>145.0</ele><time>2026-04-04T09:55:51.938Z</time></trkpt><trkpt lat="45.4673033" lon="8.7421083"><ele>145.0</ele><time>2026-04-04T09:55:52.938Z</time></trkpt><trkpt lat="45.4672917" lon="8.7425367"><ele>144.0</ele><time>2026-04-04T09:55:53.938Z</time></trkpt><trkpt lat="45.4672833" lon="8.742965"><ele>143.0</ele><time>2026-04-04T09:55:54.938Z</time></trkpt><trkpt lat="45.4672817" lon="8.7433917"><ele>143.0</ele><time>2026-04-04T09:55:55.938Z</time></trkpt><trkpt lat="45.467285" lon="8.74383"><ele>143.0</ele><time>2026-04-04T09:55:56.938Z</time></trkpt><trkpt lat="45.4672983" lon="8.744245"><ele>143.0</ele><time>2026-04-04T09:55:57.938Z</time></trkpt><trkpt lat="45.4672967" lon="8.7446667"><ele>143.0</ele><time>2026-04-04T09:55:58.938Z</time></trkpt><trkpt lat="45.4672933" lon="8.7450917"><ele>143.0</ele><time>2026-04-04T09:55:59.938Z</time></trkpt><trkpt lat="45.46728" lon="8.7455167"><ele>143.0</ele><time>2026-04-04T09:56:00.938Z</time></trkpt><trkpt lat="45.4672633" lon="8.74595"><ele>143.5</ele><time>2026-04-04T09:56:01.938Z</time></trkpt><trkpt lat="45.4672567" lon="8.7463817"><ele>144.0</ele><time>2026-04-04T09:56:02.938Z</time></trkpt><trkpt lat="45.4672483" lon="8.7468133"><ele>144.5</ele><time>2026-04-04T09:56:03.938Z</time></trkpt><trkpt lat="45.46724" lon="8.7472433"><ele>145.0</ele><time>2026-04-04T09:56:04.938Z</time></trkpt><trkpt lat="45.467235" lon="8.7476733"><ele>144.0</ele><time>2026-04-04T09:56:05.938Z</time></trkpt><trkpt lat="45.46723" lon="8.748105"><ele>143.0</ele><time>2026-04-04T09:56:06.938Z</time></trkpt><trkpt lat="45.467235" lon="8.74854"><ele>143.0</ele><time>2026-04-04T09:56:07.938Z</time></trkpt><trkpt lat="45.4672383" lon="8.7489717"><ele>143.0</ele><time>2026-04-04T09:56:08.938Z</time></trkpt><trkpt lat="45.467235" lon="8.749395"><ele>142.5</ele><time>2026-04-04T09:56:09.938Z</time></trkpt><trkpt lat="45.467235" lon="8.7498233"><ele>142.0</ele><time>2026-04-04T09:56:10.938Z</time></trkpt><trkpt lat="45.4672483" lon="8.7502483"><ele>142.0</ele><time>2026-04-04T09:56:11.938Z</time></trkpt><trkpt lat="45.4672533" lon="8.75068"><ele>142.0</ele><time>2026-04-04T09:56:12.938Z</time></trkpt><trkpt lat="45.4672617" lon="8.7511117"><ele>142.0</ele><time>2026-04-04T09:56:13.938Z</time></trkpt><trkpt lat="45.4672633" lon="8.75154"><ele>142.0</ele><time>2026-04-04T09:56:14.938Z</time></trkpt><trkpt lat="45.467265" lon="8.75196"><ele>142.0</ele><time>2026-04-04T09:56:15.938Z</time></trkpt><trkpt lat="45.4672683" lon="8.7523767"><ele>142.0</ele><time>2026-04-04T09:56:16.938Z</time></trkpt><trkpt lat="45.4672733" lon="8.7527917"><ele>141.5</ele><time>2026-04-04T09:56:17.938Z</time></trkpt><trkpt lat="45.4672767" lon="8.753215"><ele>141.0</ele><time>2026-04-04T09:56:18.938Z</time></trkpt><trkpt lat="45.467275" lon="8.7536333"><ele>140.5</ele><time>2026-04-04T09:56:19.938Z</time></trkpt><trkpt lat="45.4672867" lon="8.7540467"><ele>140.0</ele><time>2026-04-04T09:56:20.938Z</time></trkpt><trkpt lat="45.4673" lon="8.7544617"><ele>139.5</ele><time>2026-04-04T09:56:21.938Z</time></trkpt><trkpt lat="45.467305" lon="8.7548783"><ele>139.0</ele><time>2026-04-04T09:56:22.938Z</time></trkpt><trkpt lat="45.4673083" lon="8.7553033"><ele>140.0</ele><time>2026-04-04T09:56:23.938Z</time></trkpt><trkpt lat="45.46732" lon="8.755715"><ele>141.0</ele><time>2026-04-04T09:56:24.938Z</time></trkpt><trkpt lat="45.4673367" lon="8.756125"><ele>141.5</ele><time>2026-04-04T09:56:25.938Z</time></trkpt><trkpt lat="45.467355" lon="8.7565417"><ele>142.0</ele><time>2026-04-04T09:56:26.938Z</time></trkpt><trkpt lat="45.4673717" lon="8.7569517"><ele>141.0</ele><time>2026-04-04T09:56:27.938Z</time></trkpt><trkpt lat="45.4673933" lon="8.7573633"><ele>140.0</ele><time>2026-04-04T09:56:28.938Z</time></trkpt><trkpt lat="45.4674033" lon="8.7577767"><ele>139.5</ele><time>2026-04-04T09:56:29.938Z</time></trkpt><trkpt lat="45.467415" lon="8.75819"><ele>139.0</ele><time>2026-04-04T09:56:30.938Z</time></trkpt><trkpt lat="45.46743" lon="8.75862"><ele>139.0</ele><time>2026-04-04T09:56:31.937Z</time></trkpt><trkpt lat="45.4674467" lon="8.7590483"><ele>139.0</ele><time>2026-04-04T09:56:32.938Z</time></trkpt><trkpt lat="45.467465" lon="8.75948"><ele>139.0</ele><time>2026-04-04T09:56:33.938Z</time></trkpt><trkpt lat="45.467485" lon="8.7599017"><ele>139.0</ele><time>2026-04-04T09:56:34.938Z</time></trkpt><trkpt lat="45.4675017" lon="8.760335"><ele>139.0</ele><time>2026-04-04T09:56:35.938Z</time></trkpt><trkpt lat="45.4675133" lon="8.7607683"><ele>139.0</ele><time>2026-04-04T09:56:36.938Z</time></trkpt><trkpt lat="45.46753" lon="8.7612067"><ele>138.5</ele><time>2026-04-04T09:56:37.938Z</time></trkpt><trkpt lat="45.4675483" lon="8.76166"><ele>138.0</ele><time>2026-04-04T09:56:38.938Z</time></trkpt><trkpt lat="45.4675767" lon="8.7621167"><ele>137.5</ele><time>2026-04-04T09:56:39.938Z</time></trkpt><trkpt lat="45.467605" lon="8.76257"><ele>137.0</ele><time>2026-04-04T09:56:40.938Z</time></trkpt><trkpt lat="45.467625" lon="8.763035"><ele>136.5</ele><time>2026-04-04T09:56:41.938Z</time></trkpt><trkpt lat="45.4676433" lon="8.763475"><ele>136.0</ele><time>2026-04-04T09:56:42.938Z</time></trkpt><trkpt lat="45.4676667" lon="8.7639167"><ele>135.5</ele><time>2026-04-04T09:56:43.938Z</time></trkpt><trkpt lat="45.4677083" lon="8.76433"><ele>135.0</ele><time>2026-04-04T09:56:44.938Z</time></trkpt><trkpt lat="45.467735" lon="8.7647467"><ele>136.0</ele><time>2026-04-04T09:56:45.938Z</time></trkpt><trkpt lat="45.4677483" lon="8.7651917"><ele>137.0</ele><time>2026-04-04T09:56:46.938Z</time></trkpt><trkpt lat="45.46777" lon="8.7656133"><ele>134.0</ele><time>2026-04-04T09:56:47.938Z</time></trkpt><trkpt lat="45.4678017" lon="8.7660333"><ele>131.0</ele><time>2026-04-04T09:56:48.938Z</time></trkpt><trkpt lat="45.467835" lon="8.766455"><ele>132.5</ele><time>2026-04-04T09:56:49.938Z</time></trkpt><trkpt lat="45.4678617" lon="8.76688"><ele>134.0</ele><time>2026-04-04T09:56:50.938Z</time></trkpt><trkpt lat="45.4679017" lon="8.7673"><ele>129.0</ele><time>2026-04-04T09:56:51.938Z</time></trkpt><trkpt lat="45.4679533" lon="8.7677317"><ele>124.0</ele><time>2026-04-04T09:56:52.938Z</time></trkpt><trkpt lat="45.4679917" lon="8.7681467"><ele>124.5</ele><time>2026-04-04T09:56:53.938Z</time></trkpt><trkpt lat="45.4680133" lon="8.7685833"><ele>125.0</ele><time>2026-04-04T09:56:54.938Z</time></trkpt><trkpt lat="45.4680367" lon="8.7690133"><ele>125.5</ele><time>2026-04-04T09:56:55.938Z</time></trkpt><trkpt lat="45.4680667" lon="8.7694483"><ele>126.0</ele><time>2026-04-04T09:56:56.938Z</time></trkpt><trkpt lat="45.4681" lon="8.76986"><ele>124.0</ele><time>2026-04-04T09:56:57.938Z</time></trkpt><trkpt lat="45.4681333" lon="8.77028"><ele>122.0</ele><time>2026-04-04T09:56:58.937Z</time></trkpt><trkpt lat="45.46817" lon="8.7707067"><ele>121.5</ele><time>2026-04-04T09:56:59.938Z</time></trkpt><trkpt lat="45.4682067" lon="8.771125"><ele>121.0</ele><time>2026-04-04T09:57:00.938Z</time></trkpt><trkpt lat="45.4682383" lon="8.7715517"><ele>121.5</ele><time>2026-04-04T09:57:01.938Z</time></trkpt><trkpt lat="45.4682767" lon="8.7719683"><ele>122.0</ele><time>2026-04-04T09:57:02.938Z</time></trkpt><trkpt lat="45.4683117" lon="8.7723867"><ele>122.0</ele><time>2026-04-04T09:57:03.938Z</time></trkpt><trkpt lat="45.4683483" lon="8.7728133"><ele>122.0</ele><time>2026-04-04T09:57:04.938Z</time></trkpt><trkpt lat="45.4683883" lon="8.7732333"><ele>120.5</ele><time>2026-04-04T09:57:05.938Z</time></trkpt><trkpt lat="45.4684183" lon="8.7736533"><ele>119.0</ele><time>2026-04-04T09:57:06.938Z</time></trkpt><trkpt lat="45.4684533" lon="8.774075"><ele>119.0</ele><time>2026-04-04T09:57:07.938Z</time></trkpt><trkpt lat="45.4684917" lon="8.7745"><ele>119.0</ele><time>2026-04-04T09:57:08.937Z</time></trkpt><trkpt lat="45.4685283" lon="8.7749117"><ele>118.5</ele><time>2026-04-04T09:57:09.938Z</time></trkpt><trkpt lat="45.4685617" lon="8.77533"><ele>118.0</ele><time>2026-04-04T09:57:10.938Z</time></trkpt><trkpt lat="45.4686017" lon="8.7757433"><ele>118.0</ele><time>2026-04-04T09:57:11.938Z</time></trkpt><trkpt lat="45.4686483" lon="8.7761617"><ele>118.0</ele><time>2026-04-04T09:57:12.938Z</time></trkpt><trkpt lat="45.4686983" lon="8.7765767"><ele>118.5</ele><time>2026-04-04T09:57:13.938Z</time></trkpt><trkpt lat="45.4687467" lon="8.7769883"><ele>119.0</ele><time>2026-04-04T09:57:14.938Z</time></trkpt><trkpt lat="45.4687967" lon="8.7774"><ele>118.0</ele><time>2026-04-04T09:57:15.938Z</time></trkpt><trkpt lat="45.4688367" lon="8.777825"><ele>117.0</ele><time>2026-04-04T09:57:16.938Z</time></trkpt><trkpt lat="45.46887" lon="8.77825"><ele>117.0</ele><time>2026-04-04T09:57:17.938Z</time></trkpt><trkpt lat="45.468895" lon="8.7786817"><ele>117.0</ele><time>2026-04-04T09:57:18.938Z</time></trkpt><trkpt lat="45.46892" lon="8.7791117"><ele>117.0</ele><time>2026-04-04T09:57:19.938Z</time></trkpt><trkpt lat="45.4689467" lon="8.7795533"><ele>117.0</ele><time>2026-04-04T09:57:20.938Z</time></trkpt><trkpt lat="45.4689783" lon="8.7799917"><ele>117.0</ele><time>2026-04-04T09:57:21.938Z</time></trkpt><trkpt lat="45.4690183" lon="8.78042"><ele>117.0</ele><time>2026-04-04T09:57:22.938Z</time></trkpt><trkpt lat="45.4690483" lon="8.7808567"><ele>116.0</ele><time>2026-04-04T09:57:23.938Z</time></trkpt><trkpt lat="45.4690867" lon="8.7812783"><ele>115.0</ele><time>2026-04-04T09:57:24.938Z</time></trkpt><trkpt lat="45.469115" lon="8.781705"><ele>115.5</ele><time>2026-04-04T09:57:25.938Z</time></trkpt><trkpt lat="45.469145" lon="8.7821333"><ele>116.0</ele><time>2026-04-04T09:57:26.938Z</time></trkpt><trkpt lat="45.469175" lon="8.782565"><ele>117.5</ele><time>2026-04-04T09:57:27.938Z</time></trkpt><trkpt lat="45.4692033" lon="8.7829983"><ele>119.0</ele><time>2026-04-04T09:57:28.938Z</time></trkpt><trkpt lat="45.469245" lon="8.7834083"><ele>119.0</ele><time>2026-04-04T09:57:29.937Z</time></trkpt><trkpt lat="45.4692733" lon="8.7838317"><ele>119.0</ele><time>2026-04-04T09:57:30.938Z</time></trkpt><trkpt lat="45.469305" lon="8.78425"><ele>119.5</ele><time>2026-04-04T09:57:31.938Z</time></trkpt><trkpt lat="45.4693267" lon="8.7846783"><ele>120.0</ele><time>2026-04-04T09:57:32.938Z</time></trkpt><trkpt lat="45.469355" lon="8.7851033"><ele>120.5</ele><time>2026-04-04T09:57:33.937Z</time></trkpt><trkpt lat="45.4693817" lon="8.7855267"><ele>121.0</ele><time>2026-04-04T09:57:34.937Z</time></trkpt><trkpt lat="45.4694133" lon="8.78594"><ele>121.5</ele><time>2026-04-04T09:57:35.937Z</time></trkpt><trkpt lat="45.4694333" lon="8.786365"><ele>122.0</ele><time>2026-04-04T09:57:36.937Z</time></trkpt><trkpt lat="45.46945" lon="8.7868"><ele>121.0</ele><time>2026-04-04T09:57:37.938Z</time></trkpt><trkpt lat="45.4694617" lon="8.7872333"><ele>120.0</ele><time>2026-04-04T09:57:38.938Z</time></trkpt><trkpt lat="45.4694783" lon="8.7876733"><ele>118.5</ele><time>2026-04-04T09:57:39.938Z</time></trkpt><trkpt lat="45.46949" lon="8.7881017"><ele>117.0</ele><time>2026-04-04T09:57:40.938Z</time></trkpt><trkpt lat="45.4695083" lon="8.7885217"><ele>116.0</ele><time>2026-04-04T09:57:41.938Z</time></trkpt><trkpt lat="45.4695233" lon="8.7889483"><ele>115.0</ele><time>2026-04-04T09:57:42.938Z</time></trkpt><trkpt lat="45.4695333" lon="8.7893883"><ele>113.5</ele><time>2026-04-04T09:57:43.938Z</time></trkpt><trkpt lat="45.4695533" lon="8.7898183"><ele>112.0</ele><time>2026-04-04T09:57:44.938Z</time></trkpt><trkpt lat="45.469565" lon="8.7902433"><ele>112.0</ele><time>2026-04-04T09:57:45.938Z</time></trkpt><trkpt lat="45.469575" lon="8.790675"><ele>112.0</ele><time>2026-04-04T09:57:46.938Z</time></trkpt><trkpt lat="45.4695833" lon="8.7911067"><ele>112.5</ele><time>2026-04-04T09:57:47.938Z</time></trkpt><trkpt lat="45.4695883" lon="8.791545"><ele>113.0</ele><time>2026-04-04T09:57:48.938Z</time></trkpt><trkpt lat="45.4696083" lon="8.7919617"><ele>114.5</ele><time>2026-04-04T09:57:49.937Z</time></trkpt><trkpt lat="45.4696183" lon="8.7923917"><ele>116.0</ele><time>2026-04-04T09:57:50.938Z</time></trkpt><trkpt lat="45.469625" lon="8.7928183"><ele>116.5</ele><time>2026-04-04T09:57:51.938Z</time></trkpt><trkpt lat="45.4696383" lon="8.793235"><ele>117.0</ele><time>2026-04-04T09:57:52.938Z</time></trkpt><trkpt lat="45.46965" lon="8.793655"><ele>117.0</ele><time>2026-04-04T09:57:53.938Z</time></trkpt><trkpt lat="45.469665" lon="8.794075"><ele>117.0</ele><time>2026-04-04T09:57:54.938Z</time></trkpt><trkpt lat="45.4696783" lon="8.7944983"><ele>117.5</ele><time>2026-04-04T09:57:55.938Z</time></trkpt><trkpt lat="45.4696817" lon="8.7949267"><ele>118.0</ele><time>2026-04-04T09:57:56.938Z</time></trkpt><trkpt lat="45.46968" lon="8.795355"><ele>119.0</ele><time>2026-04-04T09:57:57.938Z</time></trkpt><trkpt lat="45.46969" lon="8.795775"><ele>120.0</ele><time>2026-04-04T09:57:58.937Z</time></trkpt><trkpt lat="45.4697067" lon="8.7961883"><ele>121.0</ele><time>2026-04-04T09:57:59.938Z</time></trkpt><trkpt lat="45.4697233" lon="8.7966183"><ele>122.0</ele><time>2026-04-04T09:58:00.938Z</time></trkpt><trkpt lat="45.4697283" lon="8.7970483"><ele>122.0</ele><time>2026-04-04T09:58:01.938Z</time></trkpt><trkpt lat="45.4697433" lon="8.79747"><ele>122.0</ele><time>2026-04-04T09:58:02.938Z</time></trkpt><trkpt lat="45.4697583" lon="8.7978883"><ele>122.0</ele><time>2026-04-04T09:58:03.938Z</time></trkpt><trkpt lat="45.469765" lon="8.7983183"><ele>122.0</ele><time>2026-04-04T09:58:04.937Z</time></trkpt><trkpt lat="45.4697683" lon="8.7987383"><ele>122.0</ele><time>2026-04-04T09:58:05.938Z</time></trkpt><trkpt lat="45.469785" lon="8.7991567"><ele>122.0</ele><time>2026-04-04T09:58:06.938Z</time></trkpt><trkpt lat="45.4698" lon="8.7995883"><ele>120.5</ele><time>2026-04-04T09:58:07.938Z</time></trkpt><trkpt lat="45.4698133" lon="8.8000133"><ele>119.0</ele><time>2026-04-04T09:58:08.937Z</time></trkpt><trkpt lat="45.469825" lon="8.8004467"><ele>118.5</ele><time>2026-04-04T09:58:09.938Z</time></trkpt><trkpt lat="45.4698367" lon="8.8008517"><ele>118.0</ele><time>2026-04-04T09:58:10.938Z</time></trkpt><trkpt lat="45.4698517" lon="8.8012767"><ele>120.0</ele><time>2026-04-04T09:58:11.938Z</time></trkpt><trkpt lat="45.4698633" lon="8.8017067"><ele>122.0</ele><time>2026-04-04T09:58:12.938Z</time></trkpt><trkpt lat="45.46988" lon="8.80213"><ele>122.0</ele><time>2026-04-04T09:58:13.938Z</time></trkpt><trkpt lat="45.4699" lon="8.8025433"><ele>122.0</ele><time>2026-04-04T09:58:14.938Z</time></trkpt><trkpt lat="45.4699133" lon="8.8029617"><ele>121.5</ele><time>2026-04-04T09:58:15.938Z</time></trkpt><trkpt lat="45.4699267" lon="8.803395"><ele>121.0</ele><time>2026-04-04T09:58:16.938Z</time></trkpt><trkpt lat="45.46994" lon="8.8038267"><ele>118.5</ele><time>2026-04-04T09:58:17.937Z</time></trkpt><trkpt lat="45.4699517" lon="8.804265"><ele>116.0</ele><time>2026-04-04T09:58:18.938Z</time></trkpt><trkpt lat="45.4699683" lon="8.8046983"><ele>115.0</ele><time>2026-04-04T09:58:19.938Z</time></trkpt><trkpt lat="45.4699933" lon="8.8051267"><ele>114.0</ele><time>2026-04-04T09:58:20.938Z</time></trkpt><trkpt lat="45.4700133" lon="8.8055633"><ele>114.0</ele><time>2026-04-04T09:58:21.938Z</time></trkpt><trkpt lat="45.4700433" lon="8.80599"><ele>114.0</ele><time>2026-04-04T09:58:22.938Z</time></trkpt><trkpt lat="45.470075" lon="8.8064067"><ele>114.0</ele><time>2026-04-04T09:58:23.937Z</time></trkpt><trkpt lat="45.4701067" lon="8.8068267"><ele>114.0</ele><time>2026-04-04T09:58:24.938Z</time></trkpt><trkpt lat="45.4701517" lon="8.8072417"><ele>114.5</ele><time>2026-04-04T09:58:25.938Z</time></trkpt><trkpt lat="45.470195" lon="8.8076567"><ele>115.0</ele><time>2026-04-04T09:58:26.938Z</time></trkpt><trkpt lat="45.470235" lon="8.8080767"><ele>114.5</ele><time>2026-04-04T09:58:27.938Z</time></trkpt><trkpt lat="45.4702783" lon="8.80849"><ele>114.0</ele><time>2026-04-04T09:58:28.938Z</time></trkpt><trkpt lat="45.4703217" lon="8.8089067"><ele>114.0</ele><time>2026-04-04T09:58:29.938Z</time></trkpt><trkpt lat="45.47037" lon="8.80932"><ele>114.0</ele><time>2026-04-04T09:58:30.937Z</time></trkpt><trkpt lat="45.4704217" lon="8.8097333"><ele>114.0</ele><time>2026-04-04T09:58:31.938Z</time></trkpt><trkpt lat="45.4704733" lon="8.8101533"><ele>114.0</ele><time>2026-04-04T09:58:32.938Z</time></trkpt><trkpt lat="45.4705317" lon="8.8105683"><ele>115.5</ele><time>2026-04-04T09:58:33.938Z</time></trkpt><trkpt lat="45.4705917" lon="8.8109917"><ele>117.0</ele><time>2026-04-04T09:58:34.938Z</time></trkpt><trkpt lat="45.4706567" lon="8.811405"><ele>117.0</ele><time>2026-04-04T09:58:35.938Z</time></trkpt><trkpt lat="45.4707233" lon="8.8118183"><ele>117.0</ele><time>2026-04-04T09:58:36.938Z</time></trkpt><trkpt lat="45.470795" lon="8.8122283"><ele>118.5</ele><time>2026-04-04T09:58:37.938Z</time></trkpt><trkpt lat="45.4708683" lon="8.8126533"><ele>120.0</ele><time>2026-04-04T09:58:38.938Z</time></trkpt><trkpt lat="45.4709417" lon="8.8130517"><ele>120.5</ele><time>2026-04-04T09:58:39.938Z</time></trkpt><trkpt lat="45.4710217" lon="8.8134633"><ele>121.0</ele><time>2026-04-04T09:58:40.938Z</time></trkpt><trkpt lat="45.4711033" lon="8.813865"><ele>121.0</ele><time>2026-04-04T09:58:41.938Z</time></trkpt><trkpt lat="45.4711883" lon="8.8142517"><ele>121.0</ele><time>2026-04-04T09:58:42.938Z</time></trkpt><trkpt lat="45.4712767" lon="8.8146567"><ele>122.0</ele><time>2026-04-04T09:58:43.938Z</time></trkpt><trkpt lat="45.4713683" lon="8.8150533"><ele>123.0</ele><time>2026-04-04T09:58:44.938Z</time></trkpt><trkpt lat="45.4714633" lon="8.8154683"><ele>123.0</ele><time>2026-04-04T09:58:45.938Z</time></trkpt><trkpt lat="45.4715633" lon="8.8158833"><ele>123.0</ele><time>2026-04-04T09:58:46.938Z</time></trkpt><trkpt lat="45.4716683" lon="8.8162917"><ele>123.0</ele><time>2026-04-04T09:58:47.938Z</time></trkpt><trkpt lat="45.4717767" lon="8.8167"><ele>123.0</ele><time>2026-04-04T09:58:48.938Z</time></trkpt><trkpt lat="45.4718867" lon="8.8171067"><ele>123.0</ele><time>2026-04-04T09:58:49.938Z</time></trkpt><trkpt lat="45.4719933" lon="8.8175133"><ele>123.0</ele><time>2026-04-04T09:58:50.938Z</time></trkpt><trkpt lat="45.4721083" lon="8.81792"><ele>123.0</ele><time>2026-04-04T09:58:51.937Z</time></trkpt><trkpt lat="45.4722267" lon="8.8183117"><ele>123.0</ele><time>2026-04-04T09:58:52.938Z</time></trkpt><trkpt lat="45.47235" lon="8.8187"><ele>123.0</ele><time>2026-04-04T09:58:53.938Z</time></trkpt><trkpt lat="45.4724717" lon="8.8190867"><ele>123.0</ele><time>2026-04-04T09:58:54.938Z</time></trkpt><trkpt lat="45.4725983" lon="8.81948"><ele>123.0</ele><time>2026-04-04T09:58:55.938Z</time></trkpt><trkpt lat="45.47273" lon="8.8198617"><ele>123.0</ele><time>2026-04-04T09:58:56.937Z</time></trkpt><trkpt lat="45.4728633" lon="8.82024"><ele>123.0</ele><time>2026-04-04T09:58:57.938Z</time></trkpt><trkpt lat="45.4730017" lon="8.820625"><ele>123.0</ele><time>2026-04-04T09:58:58.938Z</time></trkpt><trkpt lat="45.4731433" lon="8.821005"><ele>123.5</ele><time>2026-04-04T09:58:59.938Z</time></trkpt><trkpt lat="45.47328" lon="8.821385"><ele>124.0</ele><time>2026-04-04T09:59:00.938Z</time></trkpt><trkpt lat="45.4734183" lon="8.8217667"><ele>124.5</ele><time>2026-04-04T09:59:01.938Z</time></trkpt><trkpt lat="45.47356" lon="8.8221433"><ele>125.0</ele><time>2026-04-04T09:59:02.938Z</time></trkpt><trkpt lat="45.47369" lon="8.822525"><ele>128.0</ele><time>2026-04-04T09:59:03.938Z</time></trkpt><trkpt lat="45.4738283" lon="8.8229067"><ele>131.0</ele><time>2026-04-04T09:59:04.938Z</time></trkpt><trkpt lat="45.473985" lon="8.8232783"><ele>130.5</ele><time>2026-04-04T09:59:05.938Z</time></trkpt><trkpt lat="45.47414" lon="8.82366"><ele>130.0</ele><time>2026-04-04T09:59:06.938Z</time></trkpt><trkpt lat="45.474285" lon="8.8240267"><ele>133.0</ele><time>2026-04-04T09:59:07.938Z</time></trkpt><trkpt lat="45.4744317" lon="8.8244083"><ele>136.0</ele><time>2026-04-04T09:59:08.938Z</time></trkpt><trkpt lat="45.4745817" lon="8.82478"><ele>136.5</ele><time>2026-04-04T09:59:09.938Z</time></trkpt><trkpt lat="45.474735" lon="8.8251567"><ele>137.0</ele><time>2026-04-04T09:59:10.938Z</time></trkpt><trkpt lat="45.474895" lon="8.8255233"><ele>137.0</ele><time>2026-04-04T09:59:11.937Z</time></trkpt><trkpt lat="45.475055" lon="8.8259067"><ele>137.0</ele><time>2026-04-04T09:59:12.938Z</time></trkpt><trkpt lat="45.4752183" lon="8.8262783"><ele>137.5</ele><time>2026-04-04T09:59:13.938Z</time></trkpt><trkpt lat="45.4753783" lon="8.8266517"><ele>138.0</ele><time>2026-04-04T09:59:14.938Z</time></trkpt><trkpt lat="45.4771" lon="8.83065"><ele>138.0</ele><time>2026-04-04T09:59:25.955Z</time></trkpt><trkpt lat="45.4772833" lon="8.83097"><ele>138.0</ele><time>2026-04-04T09:59:26.955Z</time></trkpt><trkpt lat="45.4774367" lon="8.8313333"><ele>138.0</ele><time>2026-04-04T09:59:27.954Z</time></trkpt><trkpt lat="45.4775967" lon="8.831685"><ele>138.0</ele><time>2026-04-04T09:59:28.955Z</time></trkpt><trkpt lat="45.4777517" lon="8.8320433"><ele>138.5</ele><time>2026-04-04T09:59:29.955Z</time></trkpt><trkpt lat="45.477905" lon="8.832415"><ele>139.0</ele><time>2026-04-04T09:59:30.955Z</time></trkpt><trkpt lat="45.4780533" lon="8.83278"><ele>139.0</ele><time>2026-04-04T09:59:31.955Z</time></trkpt><trkpt lat="45.4782017" lon="8.8331433"><ele>139.0</ele><time>2026-04-04T09:59:32.955Z</time></trkpt><trkpt lat="45.478355" lon="8.8335"><ele>139.0</ele><time>2026-04-04T09:59:33.955Z</time></trkpt><trkpt lat="45.4785117" lon="8.8338617"><ele>139.0</ele><time>2026-04-04T09:59:34.955Z</time></trkpt><trkpt lat="45.4786667" lon="8.834225"><ele>139.5</ele><time>2026-04-04T09:59:35.955Z</time></trkpt><trkpt lat="45.4788233" lon="8.834595"><ele>140.0</ele><time>2026-04-04T09:59:36.955Z</time></trkpt><trkpt lat="45.478975" lon="8.83497"><ele>141.0</ele><time>2026-04-04T09:59:37.955Z</time></trkpt><trkpt lat="45.479125" lon="8.8353383"><ele>142.0</ele><time>2026-04-04T09:59:38.955Z</time></trkpt><trkpt lat="45.479275" lon="8.8357183"><ele>145.0</ele><time>2026-04-04T09:59:39.955Z</time></trkpt><trkpt lat="45.4794233" lon="8.8361067"><ele>148.0</ele><time>2026-04-04T09:59:40.954Z</time></trkpt><trkpt lat="45.47957" lon="8.8364717"><ele>145.5</ele><time>2026-04-04T09:59:41.955Z</time></trkpt><trkpt lat="45.4797067" lon="8.8368383"><ele>143.0</ele><time>2026-04-04T09:59:42.955Z</time></trkpt><trkpt lat="45.47986" lon="8.837205"><ele>143.0</ele><time>2026-04-04T09:59:43.954Z</time></trkpt><trkpt lat="45.4799917" lon="8.837575"><ele>143.0</ele><time>2026-04-04T09:59:44.954Z</time></trkpt><trkpt lat="45.4801383" lon="8.8379267"><ele>143.0</ele><time>2026-04-04T09:59:45.955Z</time></trkpt><trkpt lat="45.4802833" lon="8.8382917"><ele>143.0</ele><time>2026-04-04T09:59:46.955Z</time></trkpt><trkpt lat="45.48042" lon="8.8386617"><ele>143.0</ele><time>2026-04-04T09:59:47.955Z</time></trkpt><trkpt lat="45.4805583" lon="8.83904"><ele>143.0</ele><time>2026-04-04T09:59:48.954Z</time></trkpt><trkpt lat="45.4806883" lon="8.8394183"><ele>143.0</ele><time>2026-04-04T09:59:49.954Z</time></trkpt><trkpt lat="45.4808233" lon="8.8397883"><ele>143.0</ele><time>2026-04-04T09:59:50.954Z</time></trkpt><trkpt lat="45.4809567" lon="8.84017"><ele>143.5</ele><time>2026-04-04T09:59:51.954Z</time></trkpt><trkpt lat="45.4810917" lon="8.8405467"><ele>144.0</ele><time>2026-04-04T09:59:52.954Z</time></trkpt><trkpt lat="45.4812233" lon="8.8409233"><ele>143.5</ele><time>2026-04-04T09:59:53.954Z</time></trkpt><trkpt lat="45.4813617" lon="8.841305"><ele>143.0</ele><time>2026-04-04T09:59:54.954Z</time></trkpt><trkpt lat="45.4815017" lon="8.8416883"><ele>144.0</ele><time>2026-04-04T09:59:55.954Z</time></trkpt><trkpt lat="45.4816383" lon="8.84206"><ele>145.0</ele><time>2026-04-04T09:59:56.954Z</time></trkpt><trkpt lat="45.4817783" lon="8.8424317"><ele>144.5</ele><time>2026-04-04T09:59:57.953Z</time></trkpt><trkpt lat="45.4819167" lon="8.8428133"><ele>144.0</ele><time>2026-04-04T09:59:58.954Z</time></trkpt><trkpt lat="45.48206" lon="8.84319"><ele>144.5</ele><time>2026-04-04T09:59:59.954Z</time></trkpt><trkpt lat="45.48219" lon="8.8435783"><ele>145.0</ele><time>2026-04-04T10:00:00.954Z</time></trkpt><trkpt lat="45.4823317" lon="8.8439517"><ele>144.5</ele><time>2026-04-04T10:00:01.954Z</time></trkpt><trkpt lat="45.4824817" lon="8.844335"><ele>144.0</ele><time>2026-04-04T10:00:02.954Z</time></trkpt><trkpt lat="45.4826217" lon="8.8447233"><ele>144.0</ele><time>2026-04-04T10:00:03.954Z</time></trkpt><trkpt lat="45.4827617" lon="8.8451083"><ele>144.0</ele><time>2026-04-04T10:00:04.954Z</time></trkpt><trkpt lat="45.4828933" lon="8.8454917"><ele>144.5</ele><time>2026-04-04T10:00:05.953Z</time></trkpt><trkpt lat="45.48303" lon="8.845865"><ele>145.0</ele><time>2026-04-04T10:00:06.954Z</time></trkpt><trkpt lat="45.4831683" lon="8.8462367"><ele>144.0</ele><time>2026-04-04T10:00:07.954Z</time></trkpt><trkpt lat="45.4833067" lon="8.8466117"><ele>143.0</ele><time>2026-04-04T10:00:08.954Z</time></trkpt><trkpt lat="45.4834467" lon="8.8469917"><ele>143.0</ele><time>2026-04-04T10:00:09.953Z</time></trkpt><trkpt lat="45.4835833" lon="8.8473767"><ele>143.0</ele><time>2026-04-04T10:00:10.954Z</time></trkpt><trkpt lat="45.4837233" lon="8.8477567"><ele>144.0</ele><time>2026-04-04T10:00:11.954Z</time></trkpt><trkpt lat="45.4838667" lon="8.8481483"><ele>145.0</ele><time>2026-04-04T10:00:12.954Z</time></trkpt><trkpt lat="45.4840017" lon="8.8485267"><ele>145.0</ele><time>2026-04-04T10:00:13.954Z</time></trkpt><trkpt lat="45.48414" lon="8.8489083"><ele>145.0</ele><time>2026-04-04T10:00:14.954Z</time></trkpt><trkpt lat="45.4842833" lon="8.8493"><ele>144.0</ele><time>2026-04-04T10:00:15.954Z</time></trkpt><trkpt lat="45.4844083" lon="8.8496883"><ele>143.0</ele><time>2026-04-04T10:00:16.954Z</time></trkpt><trkpt lat="45.4845517" lon="8.850065"><ele>142.5</ele><time>2026-04-04T10:00:17.954Z</time></trkpt><trkpt lat="45.48469" lon="8.8504417"><ele>142.0</ele><time>2026-04-04T10:00:18.954Z</time></trkpt><trkpt lat="45.48482" lon="8.8508133"><ele>142.5</ele><time>2026-04-04T10:00:19.954Z</time></trkpt><trkpt lat="45.484965" lon="8.8512"><ele>143.0</ele><time>2026-04-04T10:00:20.954Z</time></trkpt><trkpt lat="45.4851" lon="8.8515817"><ele>144.0</ele><time>2026-04-04T10:00:21.954Z</time></trkpt><trkpt lat="45.4852333" lon="8.8519567"><ele>145.0</ele><time>2026-04-04T10:00:22.954Z</time></trkpt><trkpt lat="45.4853717" lon="8.8523217"><ele>145.5</ele><time>2026-04-04T10:00:23.954Z</time></trkpt><trkpt lat="45.48551" lon="8.8526883"><ele>146.0</ele><time>2026-04-04T10:00:24.954Z</time></trkpt><trkpt lat="45.48565" lon="8.8530717"><ele>146.0</ele><time>2026-04-04T10:00:25.954Z</time></trkpt><trkpt lat="45.48578" lon="8.8534433"><ele>146.0</ele><time>2026-04-04T10:00:26.954Z</time></trkpt><trkpt lat="45.4859167" lon="8.8538117"><ele>146.0</ele><time>2026-04-04T10:00:27.954Z</time></trkpt><trkpt lat="45.486055" lon="8.8541817"><ele>146.0</ele><time>2026-04-04T10:00:28.954Z</time></trkpt><trkpt lat="45.4861867" lon="8.854555"><ele>146.5</ele><time>2026-04-04T10:00:29.954Z</time></trkpt><trkpt lat="45.48631" lon="8.8549083"><ele>147.0</ele><time>2026-04-04T10:00:30.954Z</time></trkpt><trkpt lat="45.4864267" lon="8.8552483"><ele>148.0</ele><time>2026-04-04T10:00:31.954Z</time></trkpt><trkpt lat="45.4865433" lon="8.8555917"><ele>149.0</ele><time>2026-04-04T10:00:32.954Z</time></trkpt><trkpt lat="45.48666" lon="8.85592"><ele>148.5</ele><time>2026-04-04T10:00:33.954Z</time></trkpt><trkpt lat="45.4867717" lon="8.8562533"><ele>148.0</ele><time>2026-04-04T10:00:34.954Z</time></trkpt><trkpt lat="45.4868867" lon="8.856575"><ele>146.5</ele><time>2026-04-04T10:00:35.954Z</time></trkpt><trkpt lat="45.48699" lon="8.85688"><ele>145.0</ele><time>2026-04-04T10:00:36.954Z</time></trkpt><trkpt lat="45.4870867" lon="8.85717"><ele>145.33333333333334</ele><time>2026-04-04T10:00:37.953Z</time></trkpt><trkpt lat="45.487185" lon="8.8574367"><ele>145.66666666666666</ele><time>2026-04-04T10:00:38.954Z</time></trkpt><trkpt lat="45.4872767" lon="8.8576967"><ele>146.0</ele><time>2026-04-04T10:00:39.954Z</time></trkpt><trkpt lat="45.4873633" lon="8.8579333"><ele>146.0</ele><time>2026-04-04T10:00:40.954Z</time></trkpt><trkpt lat="45.4874467" lon="8.8581683"><ele>146.0</ele><time>2026-04-04T10:00:41.953Z</time></trkpt><trkpt lat="45.487525" lon="8.8583817"><ele>146.0</ele><time>2026-04-04T10:00:42.954Z</time></trkpt><trkpt lat="45.4876" lon="8.858615"><ele>146.0</ele><time>2026-04-04T10:00:43.954Z</time></trkpt><trkpt lat="45.48767" lon="8.8588633"><ele>146.0</ele><time>2026-04-04T10:00:44.954Z</time></trkpt><trkpt lat="45.4877367" lon="8.85913"><ele>146.0</ele><time>2026-04-04T10:00:45.954Z</time></trkpt><trkpt lat="45.4877983" lon="8.8593967"><ele>145.66666666666666</ele><time>2026-04-04T10:00:46.953Z</time></trkpt><trkpt lat="45.487865" lon="8.8596467"><ele>145.33333333333334</ele><time>2026-04-04T10:00:47.954Z</time></trkpt><trkpt lat="45.4879233" lon="8.8598833"><ele>145.0</ele><time>2026-04-04T10:00:48.954Z</time></trkpt><trkpt lat="45.4879867" lon="8.8601083"><ele>145.0</ele><time>2026-04-04T10:00:49.954Z</time></trkpt><trkpt lat="45.4880533" lon="8.86033"><ele>145.0</ele><time>2026-04-04T10:00:50.954Z</time></trkpt><trkpt lat="45.488125" lon="8.860545"><ele>145.0</ele><time>2026-04-04T10:00:51.953Z</time></trkpt><trkpt lat="45.4882" lon="8.86077"><ele>145.33333333333334</ele><time>2026-04-04T10:00:52.953Z</time></trkpt><trkpt lat="45.4882667" lon="8.860985"><ele>145.66666666666666</ele><time>2026-04-04T10:00:53.954Z</time></trkpt><trkpt lat="45.488345" lon="8.861215"><ele>146.0</ele><time>2026-04-04T10:00:54.954Z</time></trkpt><trkpt lat="45.4884233" lon="8.8614483"><ele>146.0</ele><time>2026-04-04T10:00:55.954Z</time></trkpt><trkpt lat="45.4885" lon="8.8616867"><ele>146.0</ele><time>2026-04-04T10:00:56.954Z</time></trkpt><trkpt lat="45.4885683" lon="8.86192"><ele>146.0</ele><time>2026-04-04T10:00:57.954Z</time></trkpt><trkpt lat="45.4886367" lon="8.8621433"><ele>146.33333333333331</ele><time>2026-04-04T10:00:58.954Z</time></trkpt><trkpt lat="45.4887" lon="8.862355"><ele>146.66666666666666</ele><time>2026-04-04T10:00:59.954Z</time></trkpt><trkpt lat="45.488775" lon="8.862585"><ele>147.0</ele><time>2026-04-04T10:01:00.954Z</time></trkpt><trkpt lat="45.488845" lon="8.8628283"><ele>147.0</ele><time>2026-04-04T10:01:01.954Z</time></trkpt><trkpt lat="45.4889167" lon="8.8630917"><ele>147.0</ele><time>2026-04-04T10:01:02.953Z</time></trkpt><trkpt lat="45.4890033" lon="8.8633283"><ele>147.0</ele><time>2026-04-04T10:01:03.954Z</time></trkpt><trkpt lat="45.489085" lon="8.8635617"><ele>147.0</ele><time>2026-04-04T10:01:04.954Z</time></trkpt><trkpt lat="45.4891567" lon="8.863785"><ele>147.0</ele><time>2026-04-04T10:01:05.954Z</time></trkpt><trkpt lat="45.489225" lon="8.86401"><ele>147.0</ele><time>2026-04-04T10:01:06.954Z</time></trkpt><trkpt lat="45.4892917" lon="8.86423"><ele>147.5</ele><time>2026-04-04T10:01:07.954Z</time></trkpt><trkpt lat="45.48934" lon="8.86443"><ele>148.0</ele><time>2026-04-04T10:01:08.954Z</time></trkpt><trkpt lat="45.4893983" lon="8.8646083"><ele>148.5</ele><time>2026-04-04T10:01:09.954Z</time></trkpt><trkpt lat="45.48945" lon="8.8647767"><ele>149.0</ele><time>2026-04-04T10:01:10.954Z</time></trkpt><trkpt lat="45.4894917" lon="8.8649467"><ele>149.0</ele><time>2026-04-04T10:01:11.954Z</time></trkpt><trkpt lat="45.4895467" lon="8.8651017"><ele>149.0</ele><time>2026-04-04T10:01:12.954Z</time></trkpt><trkpt lat="45.4895933" lon="8.8652417"><ele>149.0</ele><time>2026-04-04T10:01:13.954Z</time></trkpt><trkpt lat="45.4896483" lon="8.865365"><ele>149.0</ele><time>2026-04-04T10:01:14.954Z</time></trkpt><trkpt lat="45.4897083" lon="8.86548"><ele>149.0</ele><time>2026-04-04T10:01:15.954Z</time></trkpt><trkpt lat="45.4897933" lon="8.86559"><ele>149.0</ele><time>2026-04-04T10:01:16.954Z</time></trkpt><trkpt lat="45.4898967" lon="8.8656883"><ele>149.0</ele><time>2026-04-04T10:01:17.954Z</time></trkpt><trkpt lat="45.4900067" lon="8.86577"><ele>149.0</ele><time>2026-04-04T10:01:18.954Z</time></trkpt><trkpt lat="45.4901217" lon="8.8658217"><ele>149.0</ele><time>2026-04-04T10:01:19.954Z</time></trkpt><trkpt lat="45.4902417" lon="8.86583"><ele>149.0</ele><time>2026-04-04T10:01:20.954Z</time></trkpt><trkpt lat="45.490365" lon="8.8658117"><ele>149.0</ele><time>2026-04-04T10:01:21.953Z</time></trkpt><trkpt lat="45.4904783" lon="8.8657567"><ele>149.0</ele><time>2026-04-04T10:01:22.954Z</time></trkpt><trkpt lat="45.4905817" lon="8.86566"><ele>149.0</ele><time>2026-04-04T10:01:23.954Z</time></trkpt><trkpt lat="45.4906767" lon="8.8655433"><ele>149.0</ele><time>2026-04-04T10:01:24.954Z</time></trkpt><trkpt lat="45.4907483" lon="8.8654"><ele>149.0</ele><time>2026-04-04T10:01:25.953Z</time></trkpt><trkpt lat="45.4908083" lon="8.8652333"><ele>149.0</ele><time>2026-04-04T10:01:26.954Z</time></trkpt><trkpt lat="45.4908367" lon="8.865055"><ele>149.0</ele><time>2026-04-04T10:01:27.954Z</time></trkpt><trkpt lat="45.49085" lon="8.8648667"><ele>149.0</ele><time>2026-04-04T10:01:28.954Z</time></trkpt><trkpt lat="45.4908367" lon="8.8646817"><ele>149.0</ele><time>2026-04-04T10:01:29.954Z</time></trkpt><trkpt lat="45.4908017" lon="8.864485"><ele>149.0</ele><time>2026-04-04T10:01:30.954Z</time></trkpt><trkpt lat="45.49076" lon="8.8642967"><ele>149.0</ele><time>2026-04-04T10:01:31.954Z</time></trkpt><trkpt lat="45.4907083" lon="8.8640733"><ele>149.0</ele><time>2026-04-04T10:01:32.954Z</time></trkpt><trkpt lat="45.4906683" lon="8.8638433"><ele>149.0</ele><time>2026-04-04T10:01:33.954Z</time></trkpt><trkpt lat="45.4906267" lon="8.8636117"><ele>149.0</ele><time>2026-04-04T10:01:34.954Z</time></trkpt><trkpt lat="45.4905917" lon="8.8633817"><ele>149.0</ele><time>2026-04-04T10:01:35.954Z</time></trkpt><trkpt lat="45.49055" lon="8.8631583"><ele>149.0</ele><time>2026-04-04T10:01:36.954Z</time></trkpt><trkpt lat="45.4905067" lon="8.862945"><ele>149.0</ele><time>2026-04-04T10:01:37.953Z</time></trkpt><trkpt lat="45.4904667" lon="8.8627433"><ele>149.0</ele><time>2026-04-04T10:01:38.954Z</time></trkpt><trkpt lat="45.4904617" lon="8.86253"><ele>149.0</ele><time>2026-04-04T10:01:39.954Z</time></trkpt><trkpt lat="45.4904717" lon="8.8622983"><ele>149.0</ele><time>2026-04-04T10:01:40.954Z</time></trkpt><trkpt lat="45.4904933" lon="8.8620667"><ele>149.0</ele><time>2026-04-04T10:01:41.954Z</time></trkpt><trkpt lat="45.4905117" lon="8.8618433"><ele>149.0</ele><time>2026-04-04T10:01:42.954Z</time></trkpt><trkpt lat="45.49053" lon="8.861615"><ele>149.0</ele><time>2026-04-04T10:01:43.954Z</time></trkpt><trkpt lat="45.49056" lon="8.8613867"><ele>149.0</ele><time>2026-04-04T10:01:44.954Z</time></trkpt><trkpt lat="45.4905867" lon="8.8611717"><ele>149.0</ele><time>2026-04-04T10:01:45.954Z</time></trkpt><trkpt lat="45.4905983" lon="8.86095"><ele>149.0</ele><time>2026-04-04T10:01:46.954Z</time></trkpt><trkpt lat="45.4906" lon="8.86074"><ele>149.0</ele><time>2026-04-04T10:01:47.954Z</time></trkpt><trkpt lat="45.49058" lon="8.8605333"><ele>149.0</ele><time>2026-04-04T10:01:48.954Z</time></trkpt><trkpt lat="45.49054" lon="8.8603283"><ele>149.0</ele><time>2026-04-04T10:01:49.954Z</time></trkpt><trkpt lat="45.4904883" lon="8.8601333"><ele>149.0</ele><time>2026-04-04T10:01:50.954Z</time></trkpt><trkpt lat="45.49041" lon="8.8599567"><ele>148.25</ele><time>2026-04-04T10:01:51.954Z</time></trkpt><trkpt lat="45.49034" lon="8.8597983"><ele>147.5</ele><time>2026-04-04T10:01:52.954Z</time></trkpt><trkpt lat="45.4902533" lon="8.8596617"><ele>146.75</ele><time>2026-04-04T10:01:53.954Z</time></trkpt><trkpt lat="45.4901433" lon="8.8595133"><ele>146.0</ele><time>2026-04-04T10:01:54.954Z</time></trkpt><trkpt lat="45.4900217" lon="8.8593617"><ele>146.5</ele><time>2026-04-04T10:01:55.953Z</time></trkpt><trkpt lat="45.48976" lon="8.859035"><ele>147.0</ele><time>2026-04-04T10:01:57.954Z</time></trkpt><trkpt lat="45.4896217" lon="8.8588667"><ele>147.0</ele><time>2026-04-04T10:01:58.954Z</time></trkpt><trkpt lat="45.4894833" lon="8.8586867"><ele>147.0</ele><time>2026-04-04T10:01:59.954Z</time></trkpt><trkpt lat="45.4893533" lon="8.85851"><ele>147.0</ele><time>2026-04-04T10:02:00.954Z</time></trkpt><trkpt lat="45.48923" lon="8.858335"><ele>146.66666666666666</ele><time>2026-04-04T10:02:01.954Z</time></trkpt><trkpt lat="45.4891083" lon="8.85816"><ele>146.33333333333331</ele><time>2026-04-04T10:02:02.954Z</time></trkpt><trkpt lat="45.488985" lon="8.8579717"><ele>146.0</ele><time>2026-04-04T10:02:03.954Z</time></trkpt><trkpt lat="45.488875" lon="8.8577883"><ele>146.33333333333331</ele><time>2026-04-04T10:02:04.954Z</time></trkpt><trkpt lat="45.48877" lon="8.8576117"><ele>146.66666666666666</ele><time>2026-04-04T10:02:05.953Z</time></trkpt><trkpt lat="45.4886733" lon="8.8574433"><ele>147.0</ele><time>2026-04-04T10:02:06.954Z</time></trkpt><trkpt lat="45.4885733" lon="8.8572733"><ele>147.0</ele><time>2026-04-04T10:02:07.954Z</time></trkpt><trkpt lat="45.4884817" lon="8.8571217"><ele>147.0</ele><time>2026-04-04T10:02:08.954Z</time></trkpt><trkpt lat="45.4883983" lon="8.8569717"><ele>147.0</ele><time>2026-04-04T10:02:09.954Z</time></trkpt><trkpt lat="45.4883133" lon="8.8568117"><ele>147.0</ele><time>2026-04-04T10:02:10.954Z</time></trkpt><trkpt lat="45.488245" lon="8.8566683"><ele>147.0</ele><time>2026-04-04T10:02:11.954Z</time></trkpt><trkpt lat="45.48817" lon="8.85653"><ele>147.0</ele><time>2026-04-04T10:02:12.954Z</time></trkpt><trkpt lat="45.4881067" lon="8.856405"><ele>147.0</ele><time>2026-04-04T10:02:13.954Z</time></trkpt><trkpt lat="45.4880467" lon="8.8562783"><ele>147.0</ele><time>2026-04-04T10:02:14.954Z</time></trkpt><trkpt lat="45.4879917" lon="8.85615"><ele>147.0</ele><time>2026-04-04T10:02:15.954Z</time></trkpt><trkpt lat="45.4879383" lon="8.8560467"><ele>147.16666666666666</ele><time>2026-04-04T10:02:16.954Z</time></trkpt><trkpt lat="45.487895" lon="8.85596"><ele>147.33333333333334</ele><time>2026-04-04T10:02:17.954Z</time></trkpt><trkpt lat="45.48784" lon="8.8558333"><ele>147.5</ele><time>2026-04-04T10:02:19.954Z</time></trkpt><trkpt lat="45.4877967" lon="8.85576"><ele>147.66666666666669</ele><time>2026-04-04T10:02:21.954Z</time></trkpt><trkpt lat="45.48775" lon="8.8556667"><ele>147.83333333333334</ele><time>2026-04-04T10:02:23.954Z</time></trkpt><trkpt lat="45.4877117" lon="8.8555817"><ele>148.0</ele><time>2026-04-04T10:02:24.954Z</time></trkpt><trkpt lat="45.487665" lon="8.85549"><ele>148.25</ele><time>2026-04-04T10:02:25.954Z</time></trkpt><trkpt lat="45.4875983" lon="8.855335"><ele>148.5</ele><time>2026-04-04T10:02:26.954Z</time></trkpt><trkpt lat="45.4875533" lon="8.855165"><ele>148.75</ele><time>2026-04-04T10:02:27.954Z</time></trkpt><trkpt lat="45.4875283" lon="8.8550117"><ele>149.0</ele><time>2026-04-04T10:02:28.953Z</time></trkpt><trkpt lat="45.4875117" lon="8.8548667"><ele>148.5</ele><time>2026-04-04T10:02:29.954Z</time></trkpt><trkpt lat="45.4875" lon="8.85473"><ele>148.0</ele><time>2026-04-04T10:02:30.954Z</time></trkpt><trkpt lat="45.4874867" lon="8.8546283"><ele>147.5</ele><time>2026-04-04T10:02:31.954Z</time></trkpt><trkpt lat="45.48745" lon="8.8544933"><ele>147.0</ele><time>2026-04-04T10:02:33.954Z</time></trkpt><trkpt lat="45.4873983" lon="8.8544117"><ele>146.5</ele><time>2026-04-04T10:02:53.954Z</time></trkpt><trkpt lat="45.48735" lon="8.8543533"><ele>146.0</ele><time>2026-04-04T10:02:54.954Z</time></trkpt><trkpt lat="45.487285" lon="8.8542683"><ele>146.0</ele><time>2026-04-04T10:02:55.954Z</time></trkpt><trkpt lat="45.4871883" lon="8.854165"><ele>146.0</ele><time>2026-04-04T10:02:56.954Z</time></trkpt><trkpt lat="45.4870517" lon="8.854005"><ele>146.0</ele><time>2026-04-04T10:02:57.954Z</time></trkpt><trkpt lat="45.48692" lon="8.8537967"><ele>146.5</ele><time>2026-04-04T10:02:58.954Z</time></trkpt><trkpt lat="45.4867717" lon="8.853545"><ele>147.0</ele><time>2026-04-04T10:02:59.953Z</time></trkpt><trkpt lat="45.48663" lon="8.8532867"><ele>147.0</ele><time>2026-04-04T10:03:00.954Z</time></trkpt><trkpt lat="45.4864933" lon="8.8530467"><ele>147.0</ele><time>2026-04-04T10:03:01.954Z</time></trkpt><trkpt lat="45.48637" lon="8.8528183"><ele>147.0</ele><time>2026-04-04T10:03:02.954Z</time></trkpt><trkpt lat="45.48625" lon="8.8526133"><ele>146.66666666666666</ele><time>2026-04-04T10:03:03.954Z</time></trkpt><trkpt lat="45.4861417" lon="8.8524133"><ele>146.33333333333331</ele><time>2026-04-04T10:03:04.954Z</time></trkpt><trkpt lat="45.48605" lon="8.852225"><ele>146.0</ele><time>2026-04-04T10:03:05.954Z</time></trkpt><trkpt lat="45.48597" lon="8.8520283"><ele>146.0</ele><time>2026-04-04T10:03:06.954Z</time></trkpt><trkpt lat="45.4858983" lon="8.8518333"><ele>146.0</ele><time>2026-04-04T10:03:07.954Z</time></trkpt><trkpt lat="45.4858167" lon="8.8516183"><ele>146.0</ele><time>2026-04-04T10:03:08.954Z</time></trkpt><trkpt lat="45.4857417" lon="8.8514083"><ele>146.25</ele><time>2026-04-04T10:03:09.954Z</time></trkpt><trkpt lat="45.4856783" lon="8.8512317"><ele>146.5</ele><time>2026-04-04T10:03:10.953Z</time></trkpt><trkpt lat="45.4856117" lon="8.8510667"><ele>146.75</ele><time>2026-04-04T10:03:11.954Z</time></trkpt><trkpt lat="45.4855483" lon="8.850915"><ele>147.0</ele><time>2026-04-04T10:03:12.954Z</time></trkpt><trkpt lat="45.4854983" lon="8.8507783"><ele>146.25</ele><time>2026-04-04T10:03:13.954Z</time></trkpt><trkpt lat="45.48545" lon="8.8506317"><ele>145.5</ele><time>2026-04-04T10:03:14.954Z</time></trkpt><trkpt lat="45.4854067" lon="8.8504617"><ele>144.75</ele><time>2026-04-04T10:03:15.954Z</time></trkpt><trkpt lat="45.485375" lon="8.850275"><ele>144.0</ele><time>2026-04-04T10:03:16.954Z</time></trkpt><trkpt lat="45.48537" lon="8.8500933"><ele>144.0</ele><time>2026-04-04T10:03:17.954Z</time></trkpt><trkpt lat="45.485385" lon="8.8499033"><ele>144.0</ele><time>2026-04-04T10:03:18.954Z</time></trkpt><trkpt lat="45.4854217" lon="8.8497017"><ele>144.0</ele><time>2026-04-04T10:03:19.954Z</time></trkpt><trkpt lat="45.4854883" lon="8.8495117"><ele>144.0</ele><time>2026-04-04T10:03:20.953Z</time></trkpt><trkpt lat="45.4855517" lon="8.84935"><ele>144.0</ele><time>2026-04-04T10:03:21.954Z</time></trkpt><trkpt lat="45.4856367" lon="8.8492133"><ele>144.0</ele><time>2026-04-04T10:03:22.954Z</time></trkpt><trkpt lat="45.4857317" lon="8.8490783"><ele>144.0</ele><time>2026-04-04T10:03:23.953Z</time></trkpt><trkpt lat="45.485855" lon="8.8489483"><ele>144.0</ele><time>2026-04-04T10:03:24.954Z</time></trkpt><trkpt lat="45.4859733" lon="8.8488283"><ele>144.0</ele><time>2026-04-04T10:03:25.954Z</time></trkpt><trkpt lat="45.4860817" lon="8.8487167"><ele>144.0</ele><time>2026-04-04T10:03:26.954Z</time></trkpt><trkpt lat="45.48618" lon="8.84861"><ele>144.0</ele><time>2026-04-04T10:03:27.954Z</time></trkpt><trkpt lat="45.486295" lon="8.84849"><ele>144.0</ele><time>2026-04-04T10:03:28.954Z</time></trkpt><trkpt lat="45.4863933" lon="8.8483817"><ele>144.5</ele><time>2026-04-04T10:03:29.954Z</time></trkpt><trkpt lat="45.4865017" lon="8.8482633"><ele>145.0</ele><time>2026-04-04T10:03:30.954Z</time></trkpt><trkpt lat="45.48661" lon="8.848135"><ele>145.5</ele><time>2026-04-04T10:03:31.954Z</time></trkpt><trkpt lat="45.4867183" lon="8.8479883"><ele>146.0</ele><time>2026-04-04T10:03:32.954Z</time></trkpt><trkpt lat="45.486835" lon="8.8478233"><ele>146.0</ele><time>2026-04-04T10:03:33.954Z</time></trkpt><trkpt lat="45.4869517" lon="8.847665"><ele>146.0</ele><time>2026-04-04T10:03:34.954Z</time></trkpt><trkpt lat="45.4870633" lon="8.8475167"><ele>146.0</ele><time>2026-04-04T10:03:35.954Z</time></trkpt><trkpt lat="45.48718" lon="8.8473783"><ele>145.66666666666666</ele><time>2026-04-04T10:03:36.954Z</time></trkpt><trkpt lat="45.4873133" lon="8.8472433"><ele>145.33333333333334</ele><time>2026-04-04T10:03:37.954Z</time></trkpt><trkpt lat="45.4874733" lon="8.8471133"><ele>145.0</ele><time>2026-04-04T10:03:38.954Z</time></trkpt><trkpt lat="45.4876533" lon="8.8469717"><ele>145.0</ele><time>2026-04-04T10:03:39.954Z</time></trkpt><trkpt lat="45.4878533" lon="8.84682"><ele>145.0</ele><time>2026-04-04T10:03:40.954Z</time></trkpt><trkpt lat="45.4880667" lon="8.8466567"><ele>146.0</ele><time>2026-04-04T10:03:41.954Z</time></trkpt><trkpt lat="45.4882867" lon="8.8465017"><ele>147.0</ele><time>2026-04-04T10:03:42.954Z</time></trkpt><trkpt lat="45.488525" lon="8.8463383"><ele>146.5</ele><time>2026-04-04T10:03:43.954Z</time></trkpt><trkpt lat="45.48878" lon="8.8461733"><ele>146.0</ele><time>2026-04-04T10:03:44.954Z</time></trkpt><trkpt lat="45.4890333" lon="8.8460017"><ele>146.5</ele><time>2026-04-04T10:03:45.954Z</time></trkpt><trkpt lat="45.4892883" lon="8.845815"><ele>147.0</ele><time>2026-04-04T10:03:46.954Z</time></trkpt><trkpt lat="45.489545" lon="8.8456333"><ele>147.0</ele><time>2026-04-04T10:03:47.953Z</time></trkpt><trkpt lat="45.4898083" lon="8.8454467"><ele>147.0</ele><time>2026-04-04T10:03:48.954Z</time></trkpt><trkpt lat="45.4900733" lon="8.84526"><ele>146.0</ele><time>2026-04-04T10:03:49.954Z</time></trkpt><trkpt lat="45.4903433" lon="8.8450717"><ele>145.0</ele><time>2026-04-04T10:03:50.953Z</time></trkpt><trkpt lat="45.4906017" lon="8.8448683"><ele>145.0</ele><time>2026-04-04T10:03:51.953Z</time></trkpt><trkpt lat="45.4908633" lon="8.8446533"><ele>145.0</ele><time>2026-04-04T10:03:52.953Z</time></trkpt><trkpt lat="45.4911217" lon="8.8444333"><ele>147.0</ele><time>2026-04-04T10:03:53.953Z</time></trkpt><trkpt lat="45.4913767" lon="8.84421"><ele>149.0</ele><time>2026-04-04T10:03:54.952Z</time></trkpt><trkpt lat="45.4916367" lon="8.8439783"><ele>149.0</ele><time>2026-04-04T10:03:55.952Z</time></trkpt><trkpt lat="45.4919033" lon="8.843745"><ele>149.0</ele><time>2026-04-04T10:03:56.952Z</time></trkpt><trkpt lat="45.4921633" lon="8.84351"><ele>149.5</ele><time>2026-04-04T10:03:57.953Z</time></trkpt><trkpt lat="45.4924317" lon="8.8432717"><ele>150.0</ele><time>2026-04-04T10:03:58.953Z</time></trkpt><trkpt lat="45.4926933" lon="8.8430383"><ele>150.0</ele><time>2026-04-04T10:03:59.953Z</time></trkpt><trkpt lat="45.492965" lon="8.8427917"><ele>150.0</ele><time>2026-04-04T10:04:00.953Z</time></trkpt><trkpt lat="45.4932333" lon="8.8425533"><ele>150.0</ele><time>2026-04-04T10:04:01.953Z</time></trkpt><trkpt lat="45.4935183" lon="8.8423083"><ele>150.0</ele><time>2026-04-04T10:04:02.953Z</time></trkpt><trkpt lat="45.4937933" lon="8.842065"><ele>150.0</ele><time>2026-04-04T10:04:03.952Z</time></trkpt><trkpt lat="45.4940683" lon="8.8418233"><ele>150.0</ele><time>2026-04-04T10:04:04.953Z</time></trkpt><trkpt lat="45.4943433" lon="8.8415883"><ele>150.0</ele><time>2026-04-04T10:04:05.953Z</time></trkpt><trkpt lat="45.49462" lon="8.8413517"><ele>150.0</ele><time>2026-04-04T10:04:06.952Z</time></trkpt><trkpt lat="45.4948983" lon="8.84111"><ele>150.0</ele><time>2026-04-04T10:04:07.952Z</time></trkpt><trkpt lat="45.4951783" lon="8.840865"><ele>150.0</ele><time>2026-04-04T10:04:08.953Z</time></trkpt><trkpt lat="45.4954517" lon="8.8406267"><ele>151.0</ele><time>2026-04-04T10:04:09.953Z</time></trkpt><trkpt lat="45.4957267" lon="8.8403733"><ele>152.0</ele><time>2026-04-04T10:04:10.953Z</time></trkpt><trkpt lat="45.495995" lon="8.840135"><ele>152.0</ele><time>2026-04-04T10:04:11.953Z</time></trkpt><trkpt lat="45.49627" lon="8.839885"><ele>152.0</ele><time>2026-04-04T10:04:12.953Z</time></trkpt><trkpt lat="45.4965483" lon="8.8396267"><ele>152.0</ele><time>2026-04-04T10:04:13.953Z</time></trkpt><trkpt lat="45.4968067" lon="8.8393733"><ele>152.0</ele><time>2026-04-04T10:04:14.953Z</time></trkpt><trkpt lat="45.49704" lon="8.8391417"><ele>151.5</ele><time>2026-04-04T10:04:15.953Z</time></trkpt><trkpt lat="45.4972533" lon="8.8389083"><ele>151.0</ele><time>2026-04-04T10:04:16.952Z</time></trkpt><trkpt lat="45.49746" lon="8.8386933"><ele>151.0</ele><time>2026-04-04T10:04:17.953Z</time></trkpt><trkpt lat="45.4976633" lon="8.8384783"><ele>151.0</ele><time>2026-04-04T10:04:18.952Z</time></trkpt><trkpt lat="45.4978683" lon="8.83826"><ele>152.0</ele><time>2026-04-04T10:04:19.953Z</time></trkpt><trkpt lat="45.498085" lon="8.8380383"><ele>153.0</ele><time>2026-04-04T10:04:20.953Z</time></trkpt><trkpt lat="45.498295" lon="8.8378233"><ele>152.5</ele><time>2026-04-04T10:04:21.953Z</time></trkpt><trkpt lat="45.4984933" lon="8.8376167"><ele>152.0</ele><time>2026-04-04T10:04:22.953Z</time></trkpt><trkpt lat="45.4986783" lon="8.83742"><ele>152.5</ele><time>2026-04-04T10:04:23.953Z</time></trkpt><trkpt lat="45.49887" lon="8.8372217"><ele>153.0</ele><time>2026-04-04T10:04:24.953Z</time></trkpt><trkpt lat="45.49906" lon="8.8370267"><ele>153.0</ele><time>2026-04-04T10:04:25.953Z</time></trkpt><trkpt lat="45.4992517" lon="8.8368217"><ele>153.0</ele><time>2026-04-04T10:04:26.953Z</time></trkpt><trkpt lat="45.4994367" lon="8.8366233"><ele>153.33333333333334</ele><time>2026-04-04T10:04:27.953Z</time></trkpt><trkpt lat="45.4996167" lon="8.8364317"><ele>153.66666666666669</ele><time>2026-04-04T10:04:28.953Z</time></trkpt><trkpt lat="45.49979" lon="8.8362483"><ele>154.0</ele><time>2026-04-04T10:04:29.953Z</time></trkpt><trkpt lat="45.49997" lon="8.836065"><ele>153.33333333333334</ele><time>2026-04-04T10:04:30.953Z</time></trkpt><trkpt lat="45.50015" lon="8.83588"><ele>152.66666666666666</ele><time>2026-04-04T10:04:31.953Z</time></trkpt><trkpt lat="45.500335" lon="8.835715"><ele>152.0</ele><time>2026-04-04T10:04:32.953Z</time></trkpt><trkpt lat="45.5005383" lon="8.83556"><ele>152.0</ele><time>2026-04-04T10:04:33.953Z</time></trkpt><trkpt lat="45.5007433" lon="8.83541"><ele>152.0</ele><time>2026-04-04T10:04:34.953Z</time></trkpt><trkpt lat="45.500945" lon="8.835265"><ele>152.0</ele><time>2026-04-04T10:04:35.953Z</time></trkpt><trkpt lat="45.5011317" lon="8.8351183"><ele>152.0</ele><time>2026-04-04T10:04:36.952Z</time></trkpt><trkpt lat="45.5013017" lon="8.8349767"><ele>152.0</ele><time>2026-04-04T10:04:37.953Z</time></trkpt><trkpt lat="45.5014583" lon="8.8348533"><ele>152.66666666666666</ele><time>2026-04-04T10:04:38.953Z</time></trkpt><trkpt lat="45.5016117" lon="8.8347267"><ele>153.33333333333334</ele><time>2026-04-04T10:04:39.953Z</time></trkpt><trkpt lat="45.501755" lon="8.8346033"><ele>154.0</ele><time>2026-04-04T10:04:40.953Z</time></trkpt><trkpt lat="45.5018967" lon="8.834495"><ele>154.0</ele><time>2026-04-04T10:04:41.952Z</time></trkpt><trkpt lat="45.50201" lon="8.834395"><ele>154.0</ele><time>2026-04-04T10:04:42.953Z</time></trkpt><trkpt lat="45.5021117" lon="8.8343083"><ele>154.0</ele><time>2026-04-04T10:04:43.952Z</time></trkpt><trkpt lat="45.502205" lon="8.83422"><ele>154.0</ele><time>2026-04-04T10:04:44.953Z</time></trkpt><trkpt lat="45.5022983" lon="8.83416"><ele>153.8</ele><time>2026-04-04T10:04:45.953Z</time></trkpt><trkpt lat="45.5023883" lon="8.834115"><ele>153.60000000000002</ele><time>2026-04-04T10:04:46.953Z</time></trkpt><trkpt lat="45.5024767" lon="8.834115"><ele>153.4</ele><time>2026-04-04T10:04:47.953Z</time></trkpt><trkpt lat="45.5025533" lon="8.8341667"><ele>153.20000000000002</ele><time>2026-04-04T10:04:48.953Z</time></trkpt><trkpt lat="45.5026217" lon="8.83427"><ele>153.0</ele><time>2026-04-04T10:04:49.953Z</time></trkpt><trkpt lat="45.5026683" lon="8.8344117"><ele>153.0</ele><time>2026-04-04T10:04:50.953Z</time></trkpt><trkpt lat="45.502695" lon="8.8346017"><ele>153.0</ele><time>2026-04-04T10:04:51.953Z</time></trkpt><trkpt lat="45.5027317" lon="8.8348083"><ele>153.0</ele><time>2026-04-04T10:04:52.953Z</time></trkpt><trkpt lat="45.5028017" lon="8.83504"><ele>153.33333333333334</ele><time>2026-04-04T10:04:53.952Z</time></trkpt><trkpt lat="45.5029033" lon="8.8352617"><ele>153.66666666666669</ele><time>2026-04-04T10:04:54.953Z</time></trkpt><trkpt lat="45.5030367" lon="8.8354783"><ele>154.0</ele><time>2026-04-04T10:04:55.953Z</time></trkpt><trkpt lat="45.503195" lon="8.83568"><ele>154.5</ele><time>2026-04-04T10:04:56.953Z</time></trkpt><trkpt lat="45.5033667" lon="8.8358967"><ele>155.0</ele><time>2026-04-04T10:04:57.952Z</time></trkpt><trkpt lat="45.5035217" lon="8.8361433"><ele>155.0</ele><time>2026-04-04T10:04:58.953Z</time></trkpt><trkpt lat="45.50366" lon="8.8364267"><ele>155.0</ele><time>2026-04-04T10:04:59.953Z</time></trkpt><trkpt lat="45.5037667" lon="8.8367517"><ele>154.0</ele><time>2026-04-04T10:05:00.953Z</time></trkpt><trkpt lat="45.5038717" lon="8.8370933"><ele>153.0</ele><time>2026-04-04T10:05:01.953Z</time></trkpt><trkpt lat="45.5039533" lon="8.8374667"><ele>152.5</ele><time>2026-04-04T10:05:02.953Z</time></trkpt><trkpt lat="45.50402" lon="8.8378383"><ele>152.0</ele><time>2026-04-04T10:05:03.953Z</time></trkpt><trkpt lat="45.5040883" lon="8.838225"><ele>152.5</ele><time>2026-04-04T10:05:04.953Z</time></trkpt><trkpt lat="45.5041567" lon="8.8386217"><ele>153.0</ele><time>2026-04-04T10:05:05.953Z</time></trkpt><trkpt lat="45.5042333" lon="8.8390133"><ele>153.0</ele><time>2026-04-04T10:05:06.952Z</time></trkpt><trkpt lat="45.5043083" lon="8.839415"><ele>153.0</ele><time>2026-04-04T10:05:07.953Z</time></trkpt><trkpt lat="45.504385" lon="8.8398283"><ele>153.0</ele><time>2026-04-04T10:05:08.953Z</time></trkpt><trkpt lat="45.5044667" lon="8.84024"><ele>153.0</ele><time>2026-04-04T10:05:09.953Z</time></trkpt><trkpt lat="45.5045383" lon="8.8406583"><ele>154.5</ele><time>2026-04-04T10:05:10.953Z</time></trkpt><trkpt lat="45.504615" lon="8.84107"><ele>156.0</ele><time>2026-04-04T10:05:11.953Z</time></trkpt><trkpt lat="45.5046883" lon="8.84149"><ele>156.5</ele><time>2026-04-04T10:05:12.952Z</time></trkpt><trkpt lat="45.5047567" lon="8.84191"><ele>157.0</ele><time>2026-04-04T10:05:13.953Z</time></trkpt><trkpt lat="45.5048233" lon="8.8423317"><ele>156.5</ele><time>2026-04-04T10:05:14.953Z</time></trkpt><trkpt lat="45.50488" lon="8.8427567"><ele>156.0</ele><time>2026-04-04T10:05:15.953Z</time></trkpt><trkpt lat="45.504935" lon="8.8431917"><ele>155.5</ele><time>2026-04-04T10:05:16.953Z</time></trkpt><trkpt lat="45.50498" lon="8.8436317"><ele>155.0</ele><time>2026-04-04T10:05:17.953Z</time></trkpt><trkpt lat="45.505025" lon="8.8440683"><ele>155.0</ele><time>2026-04-04T10:05:18.953Z</time></trkpt><trkpt lat="45.5050683" lon="8.8445017"><ele>155.0</ele><time>2026-04-04T10:05:19.953Z</time></trkpt><trkpt lat="45.505115" lon="8.8449433"><ele>154.0</ele><time>2026-04-04T10:05:20.953Z</time></trkpt><trkpt lat="45.5051683" lon="8.84538"><ele>153.0</ele><time>2026-04-04T10:05:21.953Z</time></trkpt><trkpt lat="45.5052283" lon="8.845795"><ele>152.5</ele><time>2026-04-04T10:05:22.953Z</time></trkpt><trkpt lat="45.5053" lon="8.8461683"><ele>152.0</ele><time>2026-04-04T10:05:23.953Z</time></trkpt><trkpt lat="45.5053533" lon="8.8464967"><ele>153.5</ele><time>2026-04-04T10:05:24.953Z</time></trkpt><trkpt lat="45.5054267" lon="8.8468067"><ele>155.0</ele><time>2026-04-04T10:05:25.953Z</time></trkpt><trkpt lat="45.5055017" lon="8.847105"><ele>155.0</ele><time>2026-04-04T10:05:26.953Z</time></trkpt><trkpt lat="45.5055633" lon="8.8473733"><ele>155.0</ele><time>2026-04-04T10:05:27.953Z</time></trkpt><trkpt lat="45.5056267" lon="8.8476483"><ele>155.0</ele><time>2026-04-04T10:05:28.953Z</time></trkpt><trkpt lat="45.5056933" lon="8.84796"><ele>154.5</ele><time>2026-04-04T10:05:29.953Z</time></trkpt><trkpt lat="45.50576" lon="8.8482883"><ele>154.0</ele><time>2026-04-04T10:05:30.953Z</time></trkpt><trkpt lat="45.5058333" lon="8.848645"><ele>154.0</ele><time>2026-04-04T10:05:31.953Z</time></trkpt><trkpt lat="45.5059033" lon="8.8490117"><ele>154.0</ele><time>2026-04-04T10:05:32.953Z</time></trkpt><trkpt lat="45.5059633" lon="8.8494033"><ele>154.0</ele><time>2026-04-04T10:05:33.953Z</time></trkpt><trkpt lat="45.5060267" lon="8.8498067"><ele>154.0</ele><time>2026-04-04T10:05:34.953Z</time></trkpt><trkpt lat="45.5060867" lon="8.850225"><ele>154.0</ele><time>2026-04-04T10:05:35.953Z</time></trkpt><trkpt lat="45.5061467" lon="8.850645"><ele>154.0</ele><time>2026-04-04T10:05:36.953Z</time></trkpt><trkpt lat="45.5062017" lon="8.8510733"><ele>154.5</ele><time>2026-04-04T10:05:37.953Z</time></trkpt><trkpt lat="45.5062617" lon="8.8515033"><ele>155.0</ele><time>2026-04-04T10:05:38.953Z</time></trkpt><trkpt lat="45.5063167" lon="8.85191"><ele>155.5</ele><time>2026-04-04T10:05:39.952Z</time></trkpt><trkpt lat="45.506365" lon="8.85229"><ele>156.0</ele><time>2026-04-04T10:05:40.953Z</time></trkpt><trkpt lat="45.5064283" lon="8.8526233"><ele>156.5</ele><time>2026-04-04T10:05:41.953Z</time></trkpt><trkpt lat="45.506465" lon="8.8529567"><ele>157.0</ele><time>2026-04-04T10:05:42.953Z</time></trkpt><trkpt lat="45.506485" lon="8.8532817"><ele>157.0</ele><time>2026-04-04T10:05:43.953Z</time></trkpt><trkpt lat="45.5065117" lon="8.8535583"><ele>157.0</ele><time>2026-04-04T10:05:44.953Z</time></trkpt><trkpt lat="45.50652" lon="8.853785"><ele>157.0</ele><time>2026-04-04T10:05:45.953Z</time></trkpt><trkpt lat="45.5065333" lon="8.85397"><ele>157.0</ele><time>2026-04-04T10:05:46.953Z</time></trkpt><trkpt lat="45.50655" lon="8.8541267"><ele>157.0</ele><time>2026-04-04T10:05:47.952Z</time></trkpt><trkpt lat="45.5065567" lon="8.8542783"><ele>157.0</ele><time>2026-04-04T10:05:48.953Z</time></trkpt><trkpt lat="45.5065467" lon="8.85442"><ele>157.0</ele><time>2026-04-04T10:05:49.953Z</time></trkpt><trkpt lat="45.50652" lon="8.854535"><ele>157.0</ele><time>2026-04-04T10:05:50.953Z</time></trkpt><trkpt lat="45.5064883" lon="8.8546517"><ele>157.25</ele><time>2026-04-04T10:05:51.953Z</time></trkpt><trkpt lat="45.5064867" lon="8.85478"><ele>157.5</ele><time>2026-04-04T10:05:52.953Z</time></trkpt><trkpt lat="45.5065083" lon="8.854925"><ele>157.75</ele><time>2026-04-04T10:05:53.952Z</time></trkpt><trkpt lat="45.506565" lon="8.855085"><ele>158.0</ele><time>2026-04-04T10:05:54.953Z</time></trkpt><trkpt lat="45.50663" lon="8.85529"><ele>157.33333333333331</ele><time>2026-04-04T10:05:55.953Z</time></trkpt><trkpt lat="45.50668" lon="8.8555367"><ele>156.66666666666666</ele><time>2026-04-04T10:05:56.953Z</time></trkpt><trkpt lat="45.5067233" lon="8.8558"><ele>156.0</ele><time>2026-04-04T10:05:57.953Z</time></trkpt><trkpt lat="45.5067567" lon="8.8561"><ele>155.66666666666666</ele><time>2026-04-04T10:05:58.953Z</time></trkpt><trkpt lat="45.5067933" lon="8.8564083"><ele>155.33333333333331</ele><time>2026-04-04T10:05:59.953Z</time></trkpt><trkpt lat="45.5068333" lon="8.8567283"><ele>155.0</ele><time>2026-04-04T10:06:00.953Z</time></trkpt><trkpt lat="45.5068683" lon="8.8570467"><ele>155.0</ele><time>2026-04-04T10:06:01.953Z</time></trkpt><trkpt lat="45.5069133" lon="8.8573417"><ele>155.0</ele><time>2026-04-04T10:06:02.953Z</time></trkpt><trkpt lat="45.5069567" lon="8.8576"><ele>155.0</ele><time>2026-04-04T10:06:03.952Z</time></trkpt><trkpt lat="45.50698" lon="8.85785"><ele>155.0</ele><time>2026-04-04T10:06:04.953Z</time></trkpt><trkpt lat="45.5069883" lon="8.8580483"><ele>155.0</ele><time>2026-04-04T10:06:05.953Z</time></trkpt><trkpt lat="45.50698" lon="8.858225"><ele>155.0</ele><time>2026-04-04T10:06:06.953Z</time></trkpt><trkpt lat="45.5069483" lon="8.858365"><ele>155.0</ele><time>2026-04-04T10:06:07.952Z</time></trkpt><trkpt lat="45.5069083" lon="8.8584667"><ele>155.0</ele><time>2026-04-04T10:06:08.953Z</time></trkpt><trkpt lat="45.5068467" lon="8.8585733"><ele>155.2</ele><time>2026-04-04T10:06:09.953Z</time></trkpt><trkpt lat="45.5067833" lon="8.8586933"><ele>155.4</ele><time>2026-04-04T10:06:10.953Z</time></trkpt><trkpt lat="45.5067433" lon="8.858815"><ele>155.6</ele><time>2026-04-04T10:06:11.953Z</time></trkpt><trkpt lat="45.506745" lon="8.85895"><ele>155.8</ele><time>2026-04-04T10:06:12.953Z</time></trkpt><trkpt lat="45.5067817" lon="8.859065"><ele>156.0</ele><time>2026-04-04T10:06:13.953Z</time></trkpt><trkpt lat="45.50685" lon="8.85914"><ele>156.0</ele><time>2026-04-04T10:06:14.953Z</time></trkpt><trkpt lat="45.5069333" lon="8.859165"><ele>156.0</ele><time>2026-04-04T10:06:15.953Z</time></trkpt><trkpt lat="45.5070417" lon="8.8591433"><ele>156.0</ele><time>2026-04-04T10:06:16.952Z</time></trkpt><trkpt lat="45.507155" lon="8.8590817"><ele>156.0</ele><time>2026-04-04T10:06:17.953Z</time></trkpt><trkpt lat="45.5072783" lon="8.8590217"><ele>156.0</ele><time>2026-04-04T10:06:18.953Z</time></trkpt><trkpt lat="45.5074167" lon="8.8590017"><ele>156.0</ele><time>2026-04-04T10:06:19.953Z</time></trkpt><trkpt lat="45.50756" lon="8.8590317"><ele>156.0</ele><time>2026-04-04T10:06:20.953Z</time></trkpt><trkpt lat="45.5077367" lon="8.8590933"><ele>156.0</ele><time>2026-04-04T10:06:21.953Z</time></trkpt><trkpt lat="45.5079133" lon="8.8592017"><ele>155.66666666666666</ele><time>2026-04-04T10:06:22.953Z</time></trkpt><trkpt lat="45.5081" lon="8.8593267"><ele>155.33333333333331</ele><time>2026-04-04T10:06:23.953Z</time></trkpt><trkpt lat="45.508295" lon="8.8594733"><ele>155.0</ele><time>2026-04-04T10:06:24.953Z</time></trkpt><trkpt lat="45.5084883" lon="8.8596017"><ele>155.0</ele><time>2026-04-04T10:06:25.953Z</time></trkpt><trkpt lat="45.5086833" lon="8.859705"><ele>155.0</ele><time>2026-04-04T10:06:26.953Z</time></trkpt><trkpt lat="45.50889" lon="8.8597967"><ele>155.0</ele><time>2026-04-04T10:06:27.953Z</time></trkpt><trkpt lat="45.509085" lon="8.8598767"><ele>155.66666666666666</ele><time>2026-04-04T10:06:28.953Z</time></trkpt><trkpt lat="45.509275" lon="8.859965"><ele>156.33333333333334</ele><time>2026-04-04T10:06:29.953Z</time></trkpt><trkpt lat="45.5094717" lon="8.8600567"><ele>157.0</ele><time>2026-04-04T10:06:30.953Z</time></trkpt><trkpt lat="45.50967" lon="8.8601517"><ele>157.66666666666669</ele><time>2026-04-04T10:06:31.953Z</time></trkpt><trkpt lat="45.50986" lon="8.8602333"><ele>158.33333333333334</ele><time>2026-04-04T10:06:32.953Z</time></trkpt><trkpt lat="45.5100367" lon="8.8603067"><ele>159.0</ele><time>2026-04-04T10:06:33.953Z</time></trkpt><trkpt lat="45.5102017" lon="8.8603883"><ele>159.0</ele><time>2026-04-04T10:06:34.953Z</time></trkpt><trkpt lat="45.5103667" lon="8.86047"><ele>159.0</ele><time>2026-04-04T10:06:35.953Z</time></trkpt><trkpt lat="45.5105233" lon="8.860545"><ele>159.0</ele><time>2026-04-04T10:06:36.952Z</time></trkpt><trkpt lat="45.5106767" lon="8.8606117"><ele>159.0</ele><time>2026-04-04T10:06:37.953Z</time></trkpt><trkpt lat="45.5108283" lon="8.860665"><ele>159.0</ele><time>2026-04-04T10:06:38.953Z</time></trkpt><trkpt lat="45.51097" lon="8.8607183"><ele>159.0</ele><time>2026-04-04T10:06:39.953Z</time></trkpt><trkpt lat="45.5110817" lon="8.86075"><ele>159.0</ele><time>2026-04-04T10:06:40.952Z</time></trkpt><trkpt lat="45.5111867" lon="8.8607783"><ele>158.8</ele><time>2026-04-04T10:06:41.953Z</time></trkpt><trkpt lat="45.5112867" lon="8.8607983"><ele>158.60000000000002</ele><time>2026-04-04T10:06:42.953Z</time></trkpt><trkpt lat="45.5113633" lon="8.8608283"><ele>158.4</ele><time>2026-04-04T10:06:43.953Z</time></trkpt><trkpt lat="45.51143" lon="8.86085"><ele>158.20000000000002</ele><time>2026-04-04T10:06:44.953Z</time></trkpt><trkpt lat="45.5115167" lon="8.8609167"><ele>158.0</ele><time>2026-04-04T10:06:46.953Z</time></trkpt><trkpt lat="45.5116183" lon="8.8610433"><ele>158.0</ele><time>2026-04-04T10:06:48.953Z</time></trkpt><trkpt lat="45.511695" lon="8.8611433"><ele>158.0</ele><time>2026-04-04T10:06:49.953Z</time></trkpt><trkpt lat="45.51178" lon="8.8612083"><ele>158.0</ele><time>2026-04-04T10:06:50.953Z</time></trkpt><trkpt lat="45.5118883" lon="8.8612283"><ele>158.0</ele><time>2026-04-04T10:06:51.953Z</time></trkpt><trkpt lat="45.5120283" lon="8.8611883"><ele>158.0</ele><time>2026-04-04T10:06:52.953Z</time></trkpt><trkpt lat="45.5121983" lon="8.86111"><ele>158.0</ele><time>2026-04-04T10:06:53.953Z</time></trkpt><trkpt lat="45.5123983" lon="8.861025"><ele>158.0</ele><time>2026-04-04T10:06:54.953Z</time></trkpt><trkpt lat="45.5125933" lon="8.86093"><ele>158.0</ele><time>2026-04-04T10:06:55.953Z</time></trkpt><trkpt lat="45.5128" lon="8.8608517"><ele>158.0</ele><time>2026-04-04T10:06:56.953Z</time></trkpt><trkpt lat="45.51301" lon="8.86078"><ele>158.0</ele><time>2026-04-04T10:06:57.952Z</time></trkpt><trkpt lat="45.51321" lon="8.86072"><ele>158.0</ele><time>2026-04-04T10:06:58.953Z</time></trkpt><trkpt lat="45.513395" lon="8.86066"><ele>158.0</ele><time>2026-04-04T10:06:59.953Z</time></trkpt><trkpt lat="45.5137533" lon="8.8605533"><ele>158.5</ele><time>2026-04-04T10:07:01.952Z</time></trkpt><trkpt lat="45.513905" lon="8.860505"><ele>159.0</ele><time>2026-04-04T10:07:02.953Z</time></trkpt><trkpt lat="45.514055" lon="8.8604567"><ele>159.5</ele><time>2026-04-04T10:07:03.953Z</time></trkpt><trkpt lat="45.51418" lon="8.8604133"><ele>160.0</ele><time>2026-04-04T10:07:04.953Z</time></trkpt><trkpt lat="45.514285" lon="8.8603783"><ele>160.0</ele><time>2026-04-04T10:07:05.953Z</time></trkpt><trkpt lat="45.5143767" lon="8.8603567"><ele>160.0</ele><time>2026-04-04T10:07:06.953Z</time></trkpt><trkpt lat="45.51444" lon="8.8603367"><ele>160.0</ele><time>2026-04-04T10:07:07.952Z</time></trkpt><trkpt lat="45.5145033" lon="8.8603183"><ele>160.0</ele><time>2026-04-04T10:07:09.953Z</time></trkpt><trkpt lat="45.51459" lon="8.8602867"><ele>160.0</ele><time>2026-04-04T10:07:52.952Z</time></trkpt><trkpt lat="45.5147917" lon="8.8602383"><ele>160.16666666666669</ele><time>2026-04-04T10:07:55.952Z</time></trkpt><trkpt lat="45.5148583" lon="8.86021"><ele>160.33333333333334</ele><time>2026-04-04T10:07:56.952Z</time></trkpt><trkpt lat="45.5149367" lon="8.86019"><ele>160.5</ele><time>2026-04-04T10:07:57.952Z</time></trkpt><trkpt lat="45.5150283" lon="8.8601683"><ele>160.66666666666666</ele><time>2026-04-04T10:07:58.952Z</time></trkpt><trkpt lat="45.5151133" lon="8.86014"><ele>160.83333333333331</ele><time>2026-04-04T10:07:59.952Z</time></trkpt><trkpt lat="45.515205" lon="8.8601183"><ele>161.0</ele><time>2026-04-04T10:08:00.952Z</time></trkpt><trkpt lat="45.5153" lon="8.86009"><ele>161.25</ele><time>2026-04-04T10:08:01.952Z</time></trkpt><trkpt lat="45.515405" lon="8.860055"><ele>161.5</ele><time>2026-04-04T10:08:02.952Z</time></trkpt><trkpt lat="45.515525" lon="8.8600233"><ele>161.75</ele><time>2026-04-04T10:08:03.952Z</time></trkpt><trkpt lat="45.5156583" lon="8.859965"><ele>162.0</ele><time>2026-04-04T10:08:04.952Z</time></trkpt><trkpt lat="45.5158117" lon="8.8598933"><ele>162.0</ele><time>2026-04-04T10:08:05.951Z</time></trkpt><trkpt lat="45.51598" lon="8.859825"><ele>162.0</ele><time>2026-04-04T10:08:06.952Z</time></trkpt><trkpt lat="45.516145" lon="8.85975"><ele>162.0</ele><time>2026-04-04T10:08:07.952Z</time></trkpt><trkpt lat="45.5163083" lon="8.8596883"><ele>161.75</ele><time>2026-04-04T10:08:08.952Z</time></trkpt><trkpt lat="45.51646" lon="8.8596417"><ele>161.5</ele><time>2026-04-04T10:08:09.952Z</time></trkpt><trkpt lat="45.5165983" lon="8.859585"><ele>161.25</ele><time>2026-04-04T10:08:10.952Z</time></trkpt><trkpt lat="45.51674" lon="8.8595183"><ele>161.0</ele><time>2026-04-04T10:08:11.951Z</time></trkpt><trkpt lat="45.516875" lon="8.859455"><ele>161.0</ele><time>2026-04-04T10:08:12.951Z</time></trkpt><trkpt lat="45.5170017" lon="8.8593867"><ele>161.0</ele><time>2026-04-04T10:08:13.952Z</time></trkpt><trkpt lat="45.51712" lon="8.8593083"><ele>161.0</ele><time>2026-04-04T10:08:14.952Z</time></trkpt><trkpt lat="45.5172467" lon="8.8592367"><ele>161.0</ele><time>2026-04-04T10:08:15.952Z</time></trkpt><trkpt lat="45.5173833" lon="8.8591517"><ele>161.5</ele><time>2026-04-04T10:08:16.952Z</time></trkpt><trkpt lat="45.51753" lon="8.8590717"><ele>162.0</ele><time>2026-04-04T10:08:17.952Z</time></trkpt><trkpt lat="45.5176533" lon="8.85899"><ele>162.5</ele><time>2026-04-04T10:08:18.952Z</time></trkpt><trkpt lat="45.5177683" lon="8.8589067"><ele>163.0</ele><time>2026-04-04T10:08:19.952Z</time></trkpt><trkpt lat="45.51787" lon="8.858825"><ele>163.0</ele><time>2026-04-04T10:08:20.952Z</time></trkpt><trkpt lat="45.517995" lon="8.8587367"><ele>163.0</ele><time>2026-04-04T10:08:21.952Z</time></trkpt><trkpt lat="45.5181117" lon="8.8586667"><ele>163.0</ele><time>2026-04-04T10:08:22.952Z</time></trkpt><trkpt lat="45.5182333" lon="8.8585933"><ele>163.0</ele><time>2026-04-04T10:08:23.951Z</time></trkpt><trkpt lat="45.5183533" lon="8.8585217"><ele>163.0</ele><time>2026-04-04T10:08:24.952Z</time></trkpt><trkpt lat="45.5184683" lon="8.8584517"><ele>163.0</ele><time>2026-04-04T10:08:25.952Z</time></trkpt><trkpt lat="45.518585" lon="8.85838"><ele>163.0</ele><time>2026-04-04T10:08:26.952Z</time></trkpt><trkpt lat="45.5186983" lon="8.858305"><ele>163.0</ele><time>2026-04-04T10:08:27.952Z</time></trkpt><trkpt lat="45.51882" lon="8.858235"><ele>163.25</ele><time>2026-04-04T10:08:28.952Z</time></trkpt><trkpt lat="45.518935" lon="8.8581583"><ele>163.5</ele><time>2026-04-04T10:08:29.952Z</time></trkpt><trkpt lat="45.519055" lon="8.8580867"><ele>163.75</ele><time>2026-04-04T10:08:30.952Z</time></trkpt><trkpt lat="45.5191817" lon="8.8579983"><ele>164.0</ele><time>2026-04-04T10:08:31.952Z</time></trkpt><trkpt lat="45.519295" lon="8.8579283"><ele>164.0</ele><time>2026-04-04T10:08:32.951Z</time></trkpt><trkpt lat="45.5194033" lon="8.857865"><ele>164.0</ele><time>2026-04-04T10:08:33.952Z</time></trkpt><trkpt lat="45.5195083" lon="8.8578"><ele>164.0</ele><time>2026-04-04T10:08:34.952Z</time></trkpt><trkpt lat="45.51961" lon="8.85774"><ele>164.0</ele><time>2026-04-04T10:08:35.952Z</time></trkpt><trkpt lat="45.5197067" lon="8.8576767"><ele>164.0</ele><time>2026-04-04T10:08:36.952Z</time></trkpt><trkpt lat="45.5197817" lon="8.857625"><ele>164.0</ele><time>2026-04-04T10:08:37.952Z</time></trkpt><trkpt lat="45.5198483" lon="8.8575867"><ele>164.0</ele><time>2026-04-04T10:08:38.952Z</time></trkpt><trkpt lat="45.5199867" lon="8.8575667"><ele>164.0</ele><time>2026-04-04T10:08:40.951Z</time></trkpt><trkpt lat="45.5200733" lon="8.857575"><ele>164.0</ele><time>2026-04-04T10:08:41.952Z</time></trkpt><trkpt lat="45.520155" lon="8.8576017"><ele>164.0</ele><time>2026-04-04T10:08:42.951Z</time></trkpt><trkpt lat="45.5202383" lon="8.85766"><ele>163.5</ele><time>2026-04-04T10:08:43.952Z</time></trkpt><trkpt lat="45.52033" lon="8.857735"><ele>163.0</ele><time>2026-04-04T10:08:44.952Z</time></trkpt><trkpt lat="45.5204167" lon="8.8578433"><ele>162.5</ele><time>2026-04-04T10:08:45.952Z</time></trkpt><trkpt lat="45.520515" lon="8.8579667"><ele>162.0</ele><time>2026-04-04T10:08:46.951Z</time></trkpt><trkpt lat="45.5206183" lon="8.8581183"><ele>162.0</ele><time>2026-04-04T10:08:47.952Z</time></trkpt><trkpt lat="45.5207183" lon="8.8583"><ele>162.0</ele><time>2026-04-04T10:08:48.952Z</time></trkpt><trkpt lat="45.5208417" lon="8.8584683"><ele>162.0</ele><time>2026-04-04T10:08:49.952Z</time></trkpt><trkpt lat="45.5210083" lon="8.8586283"><ele>162.0</ele><time>2026-04-04T10:08:50.952Z</time></trkpt><trkpt lat="45.521185" lon="8.858775"><ele>162.0</ele><time>2026-04-04T10:08:51.952Z</time></trkpt><trkpt lat="45.52138" lon="8.858905"><ele>162.0</ele><time>2026-04-04T10:08:52.952Z</time></trkpt><trkpt lat="45.521605" lon="8.859025"><ele>162.0</ele><time>2026-04-04T10:08:53.952Z</time></trkpt><trkpt lat="45.5218267" lon="8.85915"><ele>162.0</ele><time>2026-04-04T10:08:54.952Z</time></trkpt><trkpt lat="45.5220767" lon="8.859275"><ele>163.0</ele><time>2026-04-04T10:08:55.952Z</time></trkpt><trkpt lat="45.5223183" lon="8.85941"><ele>164.0</ele><time>2026-04-04T10:08:56.952Z</time></trkpt><trkpt lat="45.522555" lon="8.8595533"><ele>164.0</ele><time>2026-04-04T10:08:57.952Z</time></trkpt><trkpt lat="45.5227817" lon="8.859695"><ele>164.0</ele><time>2026-04-04T10:08:58.952Z</time></trkpt><trkpt lat="45.523015" lon="8.8598383"><ele>165.0</ele><time>2026-04-04T10:08:59.951Z</time></trkpt><trkpt lat="45.523225" lon="8.8599933"><ele>166.0</ele><time>2026-04-04T10:09:00.952Z</time></trkpt><trkpt lat="45.52345" lon="8.86012"><ele>166.33333333333334</ele><time>2026-04-04T10:09:01.952Z</time></trkpt><trkpt lat="45.52365" lon="8.8602367"><ele>166.66666666666666</ele><time>2026-04-04T10:09:02.952Z</time></trkpt><trkpt lat="45.5238483" lon="8.8603683"><ele>167.0</ele><time>2026-04-04T10:09:03.952Z</time></trkpt><trkpt lat="45.5240283" lon="8.8605283"><ele>166.66666666666666</ele><time>2026-04-04T10:09:04.952Z</time></trkpt><trkpt lat="45.5242" lon="8.8607233"><ele>166.33333333333334</ele><time>2026-04-04T10:09:05.952Z</time></trkpt><trkpt lat="45.5243583" lon="8.8609417"><ele>166.0</ele><time>2026-04-04T10:09:06.952Z</time></trkpt><trkpt lat="45.5245317" lon="8.86118"><ele>166.5</ele><time>2026-04-04T10:09:07.952Z</time></trkpt><trkpt lat="45.524685" lon="8.8614283"><ele>167.0</ele><time>2026-04-04T10:09:08.952Z</time></trkpt><trkpt lat="45.524835" lon="8.861665"><ele>167.0</ele><time>2026-04-04T10:09:09.952Z</time></trkpt><trkpt lat="45.524985" lon="8.8618917"><ele>167.0</ele><time>2026-04-04T10:09:10.952Z</time></trkpt><trkpt lat="45.525115" lon="8.862125"><ele>167.0</ele><time>2026-04-04T10:09:11.951Z</time></trkpt><trkpt lat="45.5252433" lon="8.86234"><ele>167.0</ele><time>2026-04-04T10:09:12.952Z</time></trkpt><trkpt lat="45.5253817" lon="8.8625483"><ele>167.0</ele><time>2026-04-04T10:09:13.952Z</time></trkpt><trkpt lat="45.525525" lon="8.8627483"><ele>167.0</ele><time>2026-04-04T10:09:14.952Z</time></trkpt><trkpt lat="45.5256633" lon="8.862945"><ele>167.33333333333331</ele><time>2026-04-04T10:09:15.952Z</time></trkpt><trkpt lat="45.5258167" lon="8.8631217"><ele>167.66666666666666</ele><time>2026-04-04T10:09:16.952Z</time></trkpt><trkpt lat="45.52599" lon="8.863265"><ele>168.0</ele><time>2026-04-04T10:09:17.952Z</time></trkpt><trkpt lat="45.5262" lon="8.8633633"><ele>167.0</ele><time>2026-04-04T10:09:18.952Z</time></trkpt><trkpt lat="45.5264017" lon="8.86346"><ele>166.0</ele><time>2026-04-04T10:09:19.952Z</time></trkpt><trkpt lat="45.52663" lon="8.8635583"><ele>166.0</ele><time>2026-04-04T10:09:20.952Z</time></trkpt><trkpt lat="45.52686" lon="8.8636567"><ele>166.0</ele><time>2026-04-04T10:09:21.952Z</time></trkpt><trkpt lat="45.5270783" lon="8.8637483"><ele>166.33333333333334</ele><time>2026-04-04T10:09:22.952Z</time></trkpt><trkpt lat="45.527285" lon="8.863855"><ele>166.66666666666666</ele><time>2026-04-04T10:09:23.952Z</time></trkpt><trkpt lat="45.52749" lon="8.8639667"><ele>167.0</ele><time>2026-04-04T10:09:24.952Z</time></trkpt><trkpt lat="45.52767" lon="8.864105"><ele>167.0</ele><time>2026-04-04T10:09:25.952Z</time></trkpt><trkpt lat="45.5278367" lon="8.8642733"><ele>167.0</ele><time>2026-04-04T10:09:26.952Z</time></trkpt><trkpt lat="45.528005" lon="8.8644717"><ele>167.0</ele><time>2026-04-04T10:09:27.952Z</time></trkpt><trkpt lat="45.52817" lon="8.8646967"><ele>167.0</ele><time>2026-04-04T10:09:28.952Z</time></trkpt><trkpt lat="45.5283367" lon="8.8649433"><ele>167.0</ele><time>2026-04-04T10:09:29.952Z</time></trkpt><trkpt lat="45.5285033" lon="8.8652017"><ele>167.0</ele><time>2026-04-04T10:09:30.952Z</time></trkpt><trkpt lat="45.528675" lon="8.8654583"><ele>167.0</ele><time>2026-04-04T10:09:31.952Z</time></trkpt><trkpt lat="45.5288467" lon="8.8656967"><ele>166.5</ele><time>2026-04-04T10:09:32.952Z</time></trkpt><trkpt lat="45.5290317" lon="8.8659067"><ele>166.0</ele><time>2026-04-04T10:09:33.952Z</time></trkpt><trkpt lat="45.5292383" lon="8.8660933"><ele>165.0</ele><time>2026-04-04T10:09:34.952Z</time></trkpt><trkpt lat="45.5294483" lon="8.86628"><ele>164.0</ele><time>2026-04-04T10:09:35.952Z</time></trkpt><trkpt lat="45.5296667" lon="8.8664517"><ele>164.0</ele><time>2026-04-04T10:09:36.952Z</time></trkpt><trkpt lat="45.529895" lon="8.8666183"><ele>164.0</ele><time>2026-04-04T10:09:37.952Z</time></trkpt><trkpt lat="45.5301233" lon="8.8667967"><ele>165.5</ele><time>2026-04-04T10:09:38.952Z</time></trkpt><trkpt lat="45.53034" lon="8.8669817"><ele>167.0</ele><time>2026-04-04T10:09:39.952Z</time></trkpt><trkpt lat="45.530555" lon="8.8671617"><ele>168.0</ele><time>2026-04-04T10:09:40.951Z</time></trkpt><trkpt lat="45.5307583" lon="8.8673317"><ele>169.0</ele><time>2026-04-04T10:09:41.951Z</time></trkpt><trkpt lat="45.5309433" lon="8.8675033"><ele>169.66666666666669</ele><time>2026-04-04T10:09:42.952Z</time></trkpt><trkpt lat="45.5311183" lon="8.86767"><ele>170.33333333333334</ele><time>2026-04-04T10:09:43.952Z</time></trkpt><trkpt lat="45.5312933" lon="8.8678417"><ele>171.0</ele><time>2026-04-04T10:09:44.952Z</time></trkpt><trkpt lat="45.531455" lon="8.8680117"><ele>171.0</ele><time>2026-04-04T10:09:45.952Z</time></trkpt><trkpt lat="45.5316383" lon="8.86818"><ele>171.0</ele><time>2026-04-04T10:09:46.952Z</time></trkpt><trkpt lat="45.531825" lon="8.86837"><ele>171.0</ele><time>2026-04-04T10:09:47.952Z</time></trkpt><trkpt lat="45.532015" lon="8.8685483"><ele>169.66666666666666</ele><time>2026-04-04T10:09:48.952Z</time></trkpt><trkpt lat="45.5321983" lon="8.868725"><ele>168.33333333333331</ele><time>2026-04-04T10:09:49.952Z</time></trkpt><trkpt lat="45.532385" lon="8.8688967"><ele>167.0</ele><time>2026-04-04T10:09:50.951Z</time></trkpt><trkpt lat="45.5325717" lon="8.8690533"><ele>167.0</ele><time>2026-04-04T10:09:51.952Z</time></trkpt><trkpt lat="45.5327367" lon="8.869195"><ele>167.0</ele><time>2026-04-04T10:09:52.952Z</time></trkpt><trkpt lat="45.53289" lon="8.8693333"><ele>167.0</ele><time>2026-04-04T10:09:53.952Z</time></trkpt><trkpt lat="45.5330283" lon="8.8694583"><ele>167.75</ele><time>2026-04-04T10:09:54.952Z</time></trkpt><trkpt lat="45.5331417" lon="8.8695833"><ele>168.5</ele><time>2026-04-04T10:09:55.952Z</time></trkpt><trkpt lat="45.5332433" lon="8.869715"><ele>169.25</ele><time>2026-04-04T10:09:56.952Z</time></trkpt><trkpt lat="45.53333" lon="8.869845"><ele>170.0</ele><time>2026-04-04T10:09:57.952Z</time></trkpt><trkpt lat="45.53341" lon="8.869975"><ele>170.0</ele><time>2026-04-04T10:09:58.952Z</time></trkpt><trkpt lat="45.5334767" lon="8.8700917"><ele>170.0</ele><time>2026-04-04T10:09:59.952Z</time></trkpt><trkpt lat="45.53356" lon="8.870155"><ele>170.0</ele><time>2026-04-04T10:10:00.952Z</time></trkpt><trkpt lat="45.533665" lon="8.8701533"><ele>170.0</ele><time>2026-04-04T10:10:01.952Z</time></trkpt><trkpt lat="45.5337833" lon="8.8701167"><ele>170.0</ele><time>2026-04-04T10:10:02.952Z</time></trkpt><trkpt lat="45.5339083" lon="8.8700717"><ele>170.0</ele><time>2026-04-04T10:10:03.952Z</time></trkpt><trkpt lat="45.5340583" lon="8.870055"><ele>170.0</ele><time>2026-04-04T10:10:04.952Z</time></trkpt><trkpt lat="45.5342217" lon="8.870065"><ele>170.0</ele><time>2026-04-04T10:10:05.952Z</time></trkpt><trkpt lat="45.5344017" lon="8.8700933"><ele>170.66666666666666</ele><time>2026-04-04T10:10:06.952Z</time></trkpt><trkpt lat="45.53461" lon="8.8701217"><ele>171.33333333333334</ele><time>2026-04-04T10:10:07.952Z</time></trkpt><trkpt lat="45.53483" lon="8.870145"><ele>172.0</ele><time>2026-04-04T10:10:08.952Z</time></trkpt><trkpt lat="45.5350683" lon="8.8701733"><ele>172.0</ele><time>2026-04-04T10:10:09.952Z</time></trkpt><trkpt lat="45.5353117" lon="8.870185"><ele>172.0</ele><time>2026-04-04T10:10:10.952Z</time></trkpt><trkpt lat="45.5355667" lon="8.8701817"><ele>172.5</ele><time>2026-04-04T10:10:11.952Z</time></trkpt><trkpt lat="45.53583" lon="8.870185"><ele>173.0</ele><time>2026-04-04T10:10:12.952Z</time></trkpt><trkpt lat="45.53609" lon="8.8701717"><ele>172.5</ele><time>2026-04-04T10:10:13.952Z</time></trkpt><trkpt lat="45.5363617" lon="8.8701567"><ele>172.0</ele><time>2026-04-04T10:10:14.952Z</time></trkpt><trkpt lat="45.536635" lon="8.8701417"><ele>172.0</ele><time>2026-04-04T10:10:15.952Z</time></trkpt><trkpt lat="45.5369183" lon="8.8701233"><ele>172.0</ele><time>2026-04-04T10:10:16.952Z</time></trkpt><trkpt lat="45.5372117" lon="8.8701033"><ele>172.0</ele><time>2026-04-04T10:10:17.952Z</time></trkpt><trkpt lat="45.5375017" lon="8.8700917"><ele>172.0</ele><time>2026-04-04T10:10:18.952Z</time></trkpt><trkpt lat="45.5378" lon="8.870075"><ele>172.5</ele><time>2026-04-04T10:10:19.951Z</time></trkpt><trkpt lat="45.5381017" lon="8.8700567"><ele>173.0</ele><time>2026-04-04T10:10:20.952Z</time></trkpt><trkpt lat="45.538405" lon="8.8700417"><ele>173.0</ele><time>2026-04-04T10:10:21.952Z</time></trkpt><trkpt lat="45.5387067" lon="8.8700267"><ele>173.0</ele><time>2026-04-04T10:10:22.952Z</time></trkpt><trkpt lat="45.5390183" lon="8.8700083"><ele>174.5</ele><time>2026-04-04T10:10:23.952Z</time></trkpt><trkpt lat="45.53933" lon="8.869985"><ele>176.0</ele><time>2026-04-04T10:10:24.951Z</time></trkpt><trkpt lat="45.5396233" lon="8.8699767"><ele>176.0</ele><time>2026-04-04T10:10:25.952Z</time></trkpt><trkpt lat="45.5398967" lon="8.8699683"><ele>176.0</ele><time>2026-04-04T10:10:26.952Z</time></trkpt><trkpt lat="45.5401583" lon="8.8699583"><ele>176.0</ele><time>2026-04-04T10:10:27.952Z</time></trkpt><trkpt lat="45.540415" lon="8.8699533"><ele>176.0</ele><time>2026-04-04T10:10:28.952Z</time></trkpt><trkpt lat="45.5406717" lon="8.869935"><ele>176.0</ele><time>2026-04-04T10:10:29.952Z</time></trkpt><trkpt lat="45.540925" lon="8.8699217"><ele>176.0</ele><time>2026-04-04T10:10:30.952Z</time></trkpt><trkpt lat="45.5411767" lon="8.8699033"><ele>176.5</ele><time>2026-04-04T10:10:31.951Z</time></trkpt><trkpt lat="45.5414333" lon="8.86989"><ele>177.0</ele><time>2026-04-04T10:10:32.952Z</time></trkpt><trkpt lat="45.5416917" lon="8.8698733"><ele>177.0</ele><time>2026-04-04T10:10:33.952Z</time></trkpt><trkpt lat="45.5419467" lon="8.8698583"><ele>177.0</ele><time>2026-04-04T10:10:34.952Z</time></trkpt><trkpt lat="45.5421917" lon="8.8698533"><ele>175.5</ele><time>2026-04-04T10:10:35.952Z</time></trkpt><trkpt lat="45.5424283" lon="8.86984"><ele>174.0</ele><time>2026-04-04T10:10:36.952Z</time></trkpt><trkpt lat="45.5426467" lon="8.8698283"><ele>174.0</ele><time>2026-04-04T10:10:37.952Z</time></trkpt><trkpt lat="45.5428417" lon="8.86982"><ele>174.0</ele><time>2026-04-04T10:10:38.952Z</time></trkpt><trkpt lat="45.5430367" lon="8.869815"><ele>174.0</ele><time>2026-04-04T10:10:39.951Z</time></trkpt><trkpt lat="45.543225" lon="8.8697967"><ele>175.0</ele><time>2026-04-04T10:10:40.952Z</time></trkpt><trkpt lat="45.5434117" lon="8.8697883"><ele>176.0</ele><time>2026-04-04T10:10:41.951Z</time></trkpt><trkpt lat="45.54358" lon="8.8697833"><ele>177.0</ele><time>2026-04-04T10:10:42.952Z</time></trkpt><trkpt lat="45.5437633" lon="8.8697783"><ele>177.66666666666666</ele><time>2026-04-04T10:10:43.952Z</time></trkpt><trkpt lat="45.5439417" lon="8.8697733"><ele>178.33333333333331</ele><time>2026-04-04T10:10:44.952Z</time></trkpt><trkpt lat="45.544115" lon="8.8697683"><ele>179.0</ele><time>2026-04-04T10:10:45.952Z</time></trkpt><trkpt lat="45.5442533" lon="8.869765"><ele>179.0</ele><time>2026-04-04T10:10:46.951Z</time></trkpt><trkpt lat="45.544385" lon="8.869765"><ele>179.0</ele><time>2026-04-04T10:10:47.952Z</time></trkpt><trkpt lat="45.5445083" lon="8.8697833"><ele>179.0</ele><time>2026-04-04T10:10:48.952Z</time></trkpt><trkpt lat="45.544625" lon="8.86983"><ele>179.0</ele><time>2026-04-04T10:10:49.952Z</time></trkpt><trkpt lat="45.5447333" lon="8.869885"><ele>179.0</ele><time>2026-04-04T10:10:50.952Z</time></trkpt><trkpt lat="45.54484" lon="8.86993"><ele>179.0</ele><time>2026-04-04T10:10:51.952Z</time></trkpt><trkpt lat="45.544945" lon="8.8699233"><ele>179.0</ele><time>2026-04-04T10:10:52.952Z</time></trkpt><trkpt lat="45.54505" lon="8.869875"><ele>179.0</ele><time>2026-04-04T10:10:53.952Z</time></trkpt><trkpt lat="45.5451667" lon="8.869785"><ele>179.0</ele><time>2026-04-04T10:10:54.952Z</time></trkpt><trkpt lat="45.545305" lon="8.8697167"><ele>179.0</ele><time>2026-04-04T10:10:55.952Z</time></trkpt><trkpt lat="45.5454717" lon="8.8696817"><ele>179.0</ele><time>2026-04-04T10:10:56.952Z</time></trkpt><trkpt lat="45.5456517" lon="8.8696667"><ele>180.0</ele><time>2026-04-04T10:10:57.952Z</time></trkpt><trkpt lat="45.5458317" lon="8.869665"><ele>181.0</ele><time>2026-04-04T10:10:58.952Z</time></trkpt><trkpt lat="45.546025" lon="8.8696517"><ele>182.0</ele><time>2026-04-04T10:10:59.952Z</time></trkpt><trkpt lat="45.5462133" lon="8.869645"><ele>182.0</ele><time>2026-04-04T10:11:00.952Z</time></trkpt><trkpt lat="45.5463883" lon="8.8696433"><ele>182.0</ele><time>2026-04-04T10:11:01.952Z</time></trkpt><trkpt lat="45.5465633" lon="8.86964"><ele>182.0</ele><time>2026-04-04T10:11:02.952Z</time></trkpt><trkpt lat="45.5467367" lon="8.8696317"><ele>182.0</ele><time>2026-04-04T10:11:03.952Z</time></trkpt><trkpt lat="45.5469167" lon="8.8696233"><ele>182.0</ele><time>2026-04-04T10:11:04.952Z</time></trkpt><trkpt lat="45.5471" lon="8.869615"><ele>182.0</ele><time>2026-04-04T10:11:05.952Z</time></trkpt><trkpt lat="45.5473083" lon="8.8696067"><ele>181.66666666666666</ele><time>2026-04-04T10:11:06.952Z</time></trkpt><trkpt lat="45.547505" lon="8.8696033"><ele>181.33333333333334</ele><time>2026-04-04T10:11:07.952Z</time></trkpt><trkpt lat="45.5476917" lon="8.8696"><ele>181.0</ele><time>2026-04-04T10:11:08.952Z</time></trkpt><trkpt lat="45.54788" lon="8.8696333"><ele>179.66666666666669</ele><time>2026-04-04T10:11:09.952Z</time></trkpt><trkpt lat="45.5480733" lon="8.8696867"><ele>178.33333333333334</ele><time>2026-04-04T10:11:10.952Z</time></trkpt><trkpt lat="45.5482617" lon="8.8697617"><ele>177.0</ele><time>2026-04-04T10:11:11.952Z</time></trkpt><trkpt lat="45.5484333" lon="8.8698517"><ele>177.0</ele><time>2026-04-04T10:11:12.952Z</time></trkpt><trkpt lat="45.548605" lon="8.8699633"><ele>177.0</ele><time>2026-04-04T10:11:13.952Z</time></trkpt><trkpt lat="45.5487583" lon="8.8700817"><ele>177.0</ele><time>2026-04-04T10:11:14.951Z</time></trkpt><trkpt lat="45.5488933" lon="8.8702017"><ele>177.75</ele><time>2026-04-04T10:11:15.952Z</time></trkpt><trkpt lat="45.5490183" lon="8.8703233"><ele>178.5</ele><time>2026-04-04T10:11:16.952Z</time></trkpt><trkpt lat="45.5491317" lon="8.8704383"><ele>179.25</ele><time>2026-04-04T10:11:17.952Z</time></trkpt><trkpt lat="45.5492383" lon="8.8705517"><ele>180.0</ele><time>2026-04-04T10:11:18.952Z</time></trkpt><trkpt lat="45.54931" lon="8.8706633"><ele>180.0</ele><time>2026-04-04T10:11:19.952Z</time></trkpt><trkpt lat="45.5493783" lon="8.870755"><ele>180.0</ele><time>2026-04-04T10:11:20.952Z</time></trkpt><trkpt lat="45.5494383" lon="8.8708467"><ele>180.0</ele><time>2026-04-04T10:11:21.952Z</time></trkpt><trkpt lat="45.5494867" lon="8.8709217"><ele>180.0</ele><time>2026-04-04T10:11:22.952Z</time></trkpt><trkpt lat="45.5495317" lon="8.8710367"><ele>180.0</ele><time>2026-04-04T10:11:24.951Z</time></trkpt><trkpt lat="45.5495517" lon="8.8711283"><ele>180.0</ele><time>2026-04-04T10:11:52.951Z</time></trkpt><trkpt lat="45.54961" lon="8.8712483"><ele>180.5</ele><time>2026-04-04T10:11:54.951Z</time></trkpt><trkpt lat="45.5496533" lon="8.8713317"><ele>181.0</ele><time>2026-04-04T10:11:55.95Z</time></trkpt><trkpt lat="45.549695" lon="8.8714067"><ele>181.5</ele><time>2026-04-04T10:11:56.951Z</time></trkpt><trkpt lat="45.5497433" lon="8.871485"><ele>182.0</ele><time>2026-04-04T10:11:57.951Z</time></trkpt><trkpt lat="45.5497967" lon="8.8715717"><ele>182.5</ele><time>2026-04-04T10:11:58.951Z</time></trkpt><trkpt lat="45.5498617" lon="8.871685"><ele>183.0</ele><time>2026-04-04T10:11:59.951Z</time></trkpt><trkpt lat="45.5499383" lon="8.871825"><ele>183.0</ele><time>2026-04-04T10:12:00.951Z</time></trkpt><trkpt lat="45.5500233" lon="8.871985"><ele>183.0</ele><time>2026-04-04T10:12:01.951Z</time></trkpt><trkpt lat="45.5501" lon="8.8721417"><ele>183.0</ele><time>2026-04-04T10:12:02.951Z</time></trkpt><trkpt lat="45.55019" lon="8.8722867"><ele>183.0</ele><time>2026-04-04T10:12:03.95Z</time></trkpt><trkpt lat="45.5502533" lon="8.8724383"><ele>183.0</ele><time>2026-04-04T10:12:04.951Z</time></trkpt><trkpt lat="45.5503383" lon="8.872585"><ele>183.0</ele><time>2026-04-04T10:12:05.951Z</time></trkpt><trkpt lat="45.550425" lon="8.87275"><ele>183.0</ele><time>2026-04-04T10:12:06.951Z</time></trkpt><trkpt lat="45.5505117" lon="8.8729233"><ele>183.0</ele><time>2026-04-04T10:12:07.951Z</time></trkpt><trkpt lat="45.5506083" lon="8.8731083"><ele>182.66666666666666</ele><time>2026-04-04T10:12:08.951Z</time></trkpt><trkpt lat="45.5507083" lon="8.8732883"><ele>182.33333333333331</ele><time>2026-04-04T10:12:09.95Z</time></trkpt><trkpt lat="45.5507983" lon="8.8734667"><ele>182.0</ele><time>2026-04-04T10:12:10.951Z</time></trkpt><trkpt lat="45.55089" lon="8.8736317"><ele>182.0</ele><time>2026-04-04T10:12:11.951Z</time></trkpt><trkpt lat="45.55097" lon="8.8737967"><ele>182.0</ele><time>2026-04-04T10:12:12.951Z</time></trkpt><trkpt lat="45.551045" lon="8.8739633"><ele>182.0</ele><time>2026-04-04T10:12:13.95Z</time></trkpt><trkpt lat="45.551125" lon="8.874125"><ele>182.0</ele><time>2026-04-04T10:12:14.951Z</time></trkpt><trkpt lat="45.5512133" lon="8.8742867"><ele>182.5</ele><time>2026-04-04T10:12:15.951Z</time></trkpt><trkpt lat="45.5513017" lon="8.8744517"><ele>183.0</ele><time>2026-04-04T10:12:16.95Z</time></trkpt><trkpt lat="45.55138" lon="8.8746183"><ele>183.5</ele><time>2026-04-04T10:12:17.951Z</time></trkpt><trkpt lat="45.5514633" lon="8.8747683"><ele>184.0</ele><time>2026-04-04T10:12:18.951Z</time></trkpt><trkpt lat="45.5515283" lon="8.8748983"><ele>184.0</ele><time>2026-04-04T10:12:19.951Z</time></trkpt><trkpt lat="45.55158" lon="8.8750083"><ele>184.0</ele><time>2026-04-04T10:12:20.95Z</time></trkpt><trkpt lat="45.5516317" lon="8.8751"><ele>184.0</ele><time>2026-04-04T10:12:21.951Z</time></trkpt><trkpt lat="45.55169" lon="8.8752283"><ele>184.0</ele><time>2026-04-04T10:12:23.951Z</time></trkpt><trkpt lat="45.55173" lon="8.8753033"><ele>184.0</ele><time>2026-04-04T10:12:25.951Z</time></trkpt><trkpt lat="45.55178" lon="8.875365"><ele>184.0</ele><time>2026-04-04T10:12:27.951Z</time></trkpt><trkpt lat="45.55184" lon="8.8754817"><ele>184.0</ele><time>2026-04-04T10:12:56.951Z</time></trkpt><trkpt lat="45.551885" lon="8.8755583"><ele>184.0</ele><time>2026-04-04T10:12:57.951Z</time></trkpt><trkpt lat="45.5519533" lon="8.8756817"><ele>184.0</ele><time>2026-04-04T10:12:58.951Z</time></trkpt><trkpt lat="45.5520483" lon="8.875855"><ele>184.0</ele><time>2026-04-04T10:12:59.951Z</time></trkpt><trkpt lat="45.552175" lon="8.876085"><ele>185.0</ele><time>2026-04-04T10:13:00.951Z</time></trkpt><trkpt lat="45.552325" lon="8.876335"><ele>186.0</ele><time>2026-04-04T10:13:01.951Z</time></trkpt><trkpt lat="45.5524867" lon="8.8765967"><ele>185.5</ele><time>2026-04-04T10:13:02.951Z</time></trkpt><trkpt lat="45.5526633" lon="8.8768767"><ele>185.0</ele><time>2026-04-04T10:13:03.951Z</time></trkpt><trkpt lat="45.5528467" lon="8.8771467"><ele>185.0</ele><time>2026-04-04T10:13:04.951Z</time></trkpt><trkpt lat="45.5530267" lon="8.8774433"><ele>185.0</ele><time>2026-04-04T10:13:05.951Z</time></trkpt><trkpt lat="45.55321" lon="8.8777483"><ele>185.0</ele><time>2026-04-04T10:13:06.951Z</time></trkpt><trkpt lat="45.5534067" lon="8.8780567"><ele>185.0</ele><time>2026-04-04T10:13:07.951Z</time></trkpt><trkpt lat="45.5535933" lon="8.878375"><ele>185.5</ele><time>2026-04-04T10:13:08.951Z</time></trkpt><trkpt lat="45.5537817" lon="8.8787117"><ele>186.0</ele><time>2026-04-04T10:13:09.951Z</time></trkpt><trkpt lat="45.553955" lon="8.879065"><ele>185.5</ele><time>2026-04-04T10:13:10.951Z</time></trkpt><trkpt lat="45.5541367" lon="8.8794183"><ele>185.0</ele><time>2026-04-04T10:13:11.951Z</time></trkpt><trkpt lat="45.5543183" lon="8.8797633"><ele>185.5</ele><time>2026-04-04T10:13:12.951Z</time></trkpt><trkpt lat="45.554505" lon="8.8801167"><ele>186.0</ele><time>2026-04-04T10:13:13.95Z</time></trkpt><trkpt lat="45.5546933" lon="8.8804717"><ele>186.5</ele><time>2026-04-04T10:13:14.951Z</time></trkpt><trkpt lat="45.5548717" lon="8.880845"><ele>187.0</ele><time>2026-04-04T10:13:15.951Z</time></trkpt><trkpt lat="45.5550417" lon="8.8811883"><ele>187.5</ele><time>2026-04-04T10:13:16.951Z</time></trkpt><trkpt lat="45.5552017" lon="8.8815133"><ele>188.0</ele><time>2026-04-04T10:13:17.951Z</time></trkpt><trkpt lat="45.5553417" lon="8.88181"><ele>188.5</ele><time>2026-04-04T10:13:18.951Z</time></trkpt><trkpt lat="45.5554733" lon="8.8821"><ele>189.0</ele><time>2026-04-04T10:13:19.951Z</time></trkpt><trkpt lat="45.5555917" lon="8.8823717"><ele>188.66666666666666</ele><time>2026-04-04T10:13:20.951Z</time></trkpt><trkpt lat="45.5557217" lon="8.88262"><ele>188.33333333333331</ele><time>2026-04-04T10:13:21.95Z</time></trkpt><trkpt lat="45.555835" lon="8.882865"><ele>188.0</ele><time>2026-04-04T10:13:22.951Z</time></trkpt><trkpt lat="45.5559567" lon="8.8831"><ele>188.0</ele><time>2026-04-04T10:13:23.951Z</time></trkpt><trkpt lat="45.556075" lon="8.8833367"><ele>188.0</ele><time>2026-04-04T10:13:24.95Z</time></trkpt><trkpt lat="45.5561967" lon="8.883575"><ele>188.0</ele><time>2026-04-04T10:13:25.951Z</time></trkpt><trkpt lat="45.5563367" lon="8.8838183"><ele>188.33333333333331</ele><time>2026-04-04T10:13:26.951Z</time></trkpt><trkpt lat="45.5564617" lon="8.8840683"><ele>188.66666666666666</ele><time>2026-04-04T10:13:27.95Z</time></trkpt><trkpt lat="45.5565767" lon="8.88432"><ele>189.0</ele><time>2026-04-04T10:13:28.951Z</time></trkpt><trkpt lat="45.5567133" lon="8.8845783"><ele>189.5</ele><time>2026-04-04T10:13:29.951Z</time></trkpt><trkpt lat="45.5568433" lon="8.8848633"><ele>190.0</ele><time>2026-04-04T10:13:30.95Z</time></trkpt><trkpt lat="45.5569867" lon="8.885155"><ele>189.0</ele><time>2026-04-04T10:13:31.951Z</time></trkpt><trkpt lat="45.5571433" lon="8.8854767"><ele>188.0</ele><time>2026-04-04T10:13:32.951Z</time></trkpt><trkpt lat="45.5572917" lon="8.8857883"><ele>188.5</ele><time>2026-04-04T10:13:33.951Z</time></trkpt><trkpt lat="45.557435" lon="8.8860767"><ele>189.0</ele><time>2026-04-04T10:13:34.951Z</time></trkpt><trkpt lat="45.5575583" lon="8.8863467"><ele>189.0</ele><time>2026-04-04T10:13:35.951Z</time></trkpt><trkpt lat="45.5576833" lon="8.8865817"><ele>189.0</ele><time>2026-04-04T10:13:36.951Z</time></trkpt><trkpt lat="45.5578083" lon="8.8868017"><ele>189.0</ele><time>2026-04-04T10:13:37.951Z</time></trkpt><trkpt lat="45.5579367" lon="8.8869967"><ele>189.0</ele><time>2026-04-04T10:13:38.951Z</time></trkpt><trkpt lat="45.55805" lon="8.88717"><ele>189.0</ele><time>2026-04-04T10:13:39.951Z</time></trkpt><trkpt lat="45.5581317" lon="8.8873233"><ele>189.0</ele><time>2026-04-04T10:13:40.951Z</time></trkpt><trkpt lat="45.5581883" lon="8.88746"><ele>189.0</ele><time>2026-04-04T10:13:41.951Z</time></trkpt><trkpt lat="45.5582333" lon="8.88756"><ele>189.16666666666666</ele><time>2026-04-04T10:13:42.951Z</time></trkpt><trkpt lat="45.5582517" lon="8.88766"><ele>189.33333333333334</ele><time>2026-04-04T10:13:44.951Z</time></trkpt><trkpt lat="45.55827" lon="8.8877667"><ele>189.5</ele><time>2026-04-04T10:13:46.951Z</time></trkpt><trkpt lat="45.558285" lon="8.8878733"><ele>189.66666666666669</ele><time>2026-04-04T10:13:47.951Z</time></trkpt><trkpt lat="45.55833" lon="8.8879867"><ele>189.83333333333334</ele><time>2026-04-04T10:13:48.951Z</time></trkpt><trkpt lat="45.5584117" lon="8.8881017"><ele>190.0</ele><time>2026-04-04T10:13:49.95Z</time></trkpt><trkpt lat="45.5585317" lon="8.8882083"><ele>190.0</ele><time>2026-04-04T10:13:50.951Z</time></trkpt><trkpt lat="45.5586433" lon="8.8883217"><ele>190.0</ele><time>2026-04-04T10:13:51.951Z</time></trkpt><trkpt lat="45.5587183" lon="8.8884467"><ele>190.0</ele><time>2026-04-04T10:13:52.951Z</time></trkpt><trkpt lat="45.558765" lon="8.888605"><ele>190.0</ele><time>2026-04-04T10:13:53.95Z</time></trkpt><trkpt lat="45.5587917" lon="8.888785"><ele>190.0</ele><time>2026-04-04T10:13:54.951Z</time></trkpt><trkpt lat="45.5588433" lon="8.888945"><ele>190.0</ele><time>2026-04-04T10:13:55.95Z</time></trkpt><trkpt lat="45.558925" lon="8.8890733"><ele>190.0</ele><time>2026-04-04T10:13:56.951Z</time></trkpt><trkpt lat="45.5590317" lon="8.8892"><ele>190.0</ele><time>2026-04-04T10:13:57.951Z</time></trkpt><trkpt lat="45.5591283" lon="8.8893583"><ele>190.0</ele><time>2026-04-04T10:13:58.951Z</time></trkpt><trkpt lat="45.5592317" lon="8.8895433"><ele>190.0</ele><time>2026-04-04T10:13:59.951Z</time></trkpt><trkpt lat="45.5593483" lon="8.8897633"><ele>190.0</ele><time>2026-04-04T10:14:00.951Z</time></trkpt><trkpt lat="45.5594733" lon="8.89001"><ele>190.33333333333334</ele><time>2026-04-04T10:14:01.951Z</time></trkpt><trkpt lat="45.5596083" lon="8.890265"><ele>190.66666666666666</ele><time>2026-04-04T10:14:02.951Z</time></trkpt><trkpt lat="45.5597383" lon="8.8905283"><ele>191.0</ele><time>2026-04-04T10:14:03.951Z</time></trkpt><trkpt lat="45.5598783" lon="8.8908033"><ele>191.0</ele><time>2026-04-04T10:14:04.951Z</time></trkpt><trkpt lat="45.5600267" lon="8.891085"><ele>191.0</ele><time>2026-04-04T10:14:05.951Z</time></trkpt><trkpt lat="45.56021" lon="8.8913783"><ele>190.5</ele><time>2026-04-04T10:14:06.95Z</time></trkpt><trkpt lat="45.5603817" lon="8.8916717"><ele>190.0</ele><time>2026-04-04T10:14:07.951Z</time></trkpt><trkpt lat="45.5605333" lon="8.8919833"><ele>190.0</ele><time>2026-04-04T10:14:08.951Z</time></trkpt><trkpt lat="45.5606967" lon="8.8923067"><ele>190.0</ele><time>2026-04-04T10:14:09.951Z</time></trkpt><trkpt lat="45.5608683" lon="8.8926233"><ele>190.5</ele><time>2026-04-04T10:14:10.951Z</time></trkpt><trkpt lat="45.56104" lon="8.89296"><ele>191.0</ele><time>2026-04-04T10:14:11.95Z</time></trkpt><trkpt lat="45.5612333" lon="8.89331"><ele>190.5</ele><time>2026-04-04T10:14:12.951Z</time></trkpt><trkpt lat="45.5614283" lon="8.8936517"><ele>190.0</ele><time>2026-04-04T10:14:13.95Z</time></trkpt><trkpt lat="45.5616233" lon="8.8939783"><ele>190.5</ele><time>2026-04-04T10:14:14.951Z</time></trkpt><trkpt lat="45.5618433" lon="8.8942933"><ele>191.0</ele><time>2026-04-04T10:14:15.951Z</time></trkpt><trkpt lat="45.5620783" lon="8.8945883"><ele>191.0</ele><time>2026-04-04T10:14:16.951Z</time></trkpt><trkpt lat="45.56232" lon="8.894855"><ele>191.0</ele><time>2026-04-04T10:14:17.951Z</time></trkpt><trkpt lat="45.5625717" lon="8.8951133"><ele>191.5</ele><time>2026-04-04T10:14:18.951Z</time></trkpt><trkpt lat="45.5628467" lon="8.8953617"><ele>192.0</ele><time>2026-04-04T10:14:19.951Z</time></trkpt><trkpt lat="45.5631283" lon="8.8955733"><ele>192.5</ele><time>2026-04-04T10:14:20.951Z</time></trkpt><trkpt lat="45.56342" lon="8.89576"><ele>193.0</ele><time>2026-04-04T10:14:21.951Z</time></trkpt><trkpt lat="45.56372" lon="8.8959233"><ele>193.0</ele><time>2026-04-04T10:14:22.951Z</time></trkpt><trkpt lat="45.5640183" lon="8.896085"><ele>193.0</ele><time>2026-04-04T10:14:23.951Z</time></trkpt><trkpt lat="45.5643167" lon="8.8962417"><ele>195.0</ele><time>2026-04-04T10:14:24.951Z</time></trkpt><trkpt lat="45.56459" lon="8.8963817"><ele>197.0</ele><time>2026-04-04T10:14:25.951Z</time></trkpt><trkpt lat="45.56484" lon="8.8965333"><ele>197.0</ele><time>2026-04-04T10:14:26.951Z</time></trkpt><trkpt lat="45.56508" lon="8.896675"><ele>197.0</ele><time>2026-04-04T10:14:27.951Z</time></trkpt><trkpt lat="45.5653067" lon="8.89682"><ele>196.66666666666669</ele><time>2026-04-04T10:14:28.951Z</time></trkpt><trkpt lat="45.5655183" lon="8.896945"><ele>196.33333333333331</ele><time>2026-04-04T10:14:29.951Z</time></trkpt><trkpt lat="45.5657167" lon="8.89706"><ele>196.0</ele><time>2026-04-04T10:14:30.95Z</time></trkpt><trkpt lat="45.5658917" lon="8.8971683"><ele>196.0</ele><time>2026-04-04T10:14:31.951Z</time></trkpt><trkpt lat="45.5660367" lon="8.8972617"><ele>196.0</ele><time>2026-04-04T10:14:32.951Z</time></trkpt><trkpt lat="45.56617" lon="8.897335"><ele>196.0</ele><time>2026-04-04T10:14:33.95Z</time></trkpt><trkpt lat="45.566265" lon="8.8973933"><ele>196.0</ele><time>2026-04-04T10:14:34.95Z</time></trkpt><trkpt lat="45.5663367" lon="8.8974383"><ele>195.8</ele><time>2026-04-04T10:14:35.951Z</time></trkpt><trkpt lat="45.5664317" lon="8.8975267"><ele>195.60000000000002</ele><time>2026-04-04T10:14:37.951Z</time></trkpt><trkpt lat="45.5664817" lon="8.8975817"><ele>195.4</ele><time>2026-04-04T10:14:38.95Z</time></trkpt><trkpt lat="45.5665633" lon="8.897655"><ele>195.2</ele><time>2026-04-04T10:14:39.951Z</time></trkpt><trkpt lat="45.5666683" lon="8.8977067"><ele>195.0</ele><time>2026-04-04T10:14:40.951Z</time></trkpt><trkpt lat="45.5668083" lon="8.8977367"><ele>195.0</ele><time>2026-04-04T10:14:41.951Z</time></trkpt><trkpt lat="45.5669717" lon="8.8977783"><ele>195.0</ele><time>2026-04-04T10:14:42.951Z</time></trkpt><trkpt lat="45.5671483" lon="8.8978583"><ele>195.0</ele><time>2026-04-04T10:14:43.951Z</time></trkpt><trkpt lat="45.567335" lon="8.8979533"><ele>195.33333333333331</ele><time>2026-04-04T10:14:44.951Z</time></trkpt><trkpt lat="45.5675017" lon="8.8980417"><ele>195.66666666666666</ele><time>2026-04-04T10:14:45.951Z</time></trkpt><trkpt lat="45.567655" lon="8.89813"><ele>196.0</ele><time>2026-04-04T10:14:46.951Z</time></trkpt><trkpt lat="45.567825" lon="8.8982217"><ele>196.0</ele><time>2026-04-04T10:14:47.951Z</time></trkpt><trkpt lat="45.5680067" lon="8.8983217"><ele>196.0</ele><time>2026-04-04T10:14:48.95Z</time></trkpt><trkpt lat="45.5682033" lon="8.89845"><ele>196.0</ele><time>2026-04-04T10:14:49.951Z</time></trkpt><trkpt lat="45.56842" lon="8.89858"><ele>196.0</ele><time>2026-04-04T10:14:50.951Z</time></trkpt><trkpt lat="45.5686433" lon="8.8987183"><ele>196.0</ele><time>2026-04-04T10:14:51.951Z</time></trkpt><trkpt lat="45.5688667" lon="8.8988583"><ele>196.0</ele><time>2026-04-04T10:14:52.95Z</time></trkpt><trkpt lat="45.569105" lon="8.898995"><ele>196.0</ele><time>2026-04-04T10:14:53.951Z</time></trkpt><trkpt lat="45.5693633" lon="8.8991317"><ele>197.5</ele><time>2026-04-04T10:14:54.951Z</time></trkpt><trkpt lat="45.5696217" lon="8.8992617"><ele>199.0</ele><time>2026-04-04T10:14:55.951Z</time></trkpt><trkpt lat="45.5698617" lon="8.8994083"><ele>199.0</ele><time>2026-04-04T10:14:56.951Z</time></trkpt><trkpt lat="45.5700783" lon="8.8995433"><ele>199.0</ele><time>2026-04-04T10:14:57.95Z</time></trkpt><trkpt lat="45.5702917" lon="8.89967"><ele>198.66666666666666</ele><time>2026-04-04T10:14:58.95Z</time></trkpt><trkpt lat="45.5704883" lon="8.899785"><ele>198.33333333333331</ele><time>2026-04-04T10:14:59.95Z</time></trkpt><trkpt lat="45.5706483" lon="8.8998817"><ele>198.0</ele><time>2026-04-04T10:15:00.95Z</time></trkpt><trkpt lat="45.5707817" lon="8.8999783"><ele>198.0</ele><time>2026-04-04T10:15:01.95Z</time></trkpt><trkpt lat="45.5709017" lon="8.9000633"><ele>198.0</ele><time>2026-04-04T10:15:02.95Z</time></trkpt><trkpt lat="45.57101" lon="8.9001433"><ele>198.0</ele><time>2026-04-04T10:15:03.95Z</time></trkpt><trkpt lat="45.5711" lon="8.90024"><ele>198.0</ele><time>2026-04-04T10:15:04.95Z</time></trkpt><trkpt lat="45.5711633" lon="8.9003533"><ele>198.2</ele><time>2026-04-04T10:15:05.95Z</time></trkpt><trkpt lat="45.57123" lon="8.90047"><ele>198.4</ele><time>2026-04-04T10:15:06.95Z</time></trkpt><trkpt lat="45.5713117" lon="8.9005367"><ele>198.6</ele><time>2026-04-04T10:15:07.95Z</time></trkpt><trkpt lat="45.5714067" lon="8.9005467"><ele>198.79999999999998</ele><time>2026-04-04T10:15:08.95Z</time></trkpt><trkpt lat="45.5715283" lon="8.9005367"><ele>199.0</ele><time>2026-04-04T10:15:09.95Z</time></trkpt><trkpt lat="45.5716783" lon="8.9005483"><ele>199.0</ele><time>2026-04-04T10:15:10.95Z</time></trkpt><trkpt lat="45.5718467" lon="8.9005967"><ele>199.0</ele><time>2026-04-04T10:15:11.95Z</time></trkpt><trkpt lat="45.5720417" lon="8.90068"><ele>199.0</ele><time>2026-04-04T10:15:12.95Z</time></trkpt><trkpt lat="45.5722367" lon="8.9007783"><ele>198.0</ele><time>2026-04-04T10:15:13.95Z</time></trkpt><trkpt lat="45.5724233" lon="8.9008767"><ele>197.0</ele><time>2026-04-04T10:15:14.95Z</time></trkpt><trkpt lat="45.5725967" lon="8.9009733"><ele>196.0</ele><time>2026-04-04T10:15:15.95Z</time></trkpt><trkpt lat="45.572785" lon="8.9010817"><ele>195.33333333333331</ele><time>2026-04-04T10:15:16.95Z</time></trkpt><trkpt lat="45.5729733" lon="8.9011933"><ele>194.66666666666669</ele><time>2026-04-04T10:15:17.95Z</time></trkpt><trkpt lat="45.5731717" lon="8.901305"><ele>194.0</ele><time>2026-04-04T10:15:18.95Z</time></trkpt><trkpt lat="45.573375" lon="8.90143"><ele>194.0</ele><time>2026-04-04T10:15:19.95Z</time></trkpt><trkpt lat="45.5735883" lon="8.9015583"><ele>194.0</ele><time>2026-04-04T10:15:20.95Z</time></trkpt><trkpt lat="45.5738067" lon="8.901685"><ele>195.0</ele><time>2026-04-04T10:15:21.95Z</time></trkpt><trkpt lat="45.57403" lon="8.9018083"><ele>196.0</ele><time>2026-04-04T10:15:22.95Z</time></trkpt><trkpt lat="45.5742533" lon="8.9019283"><ele>196.0</ele><time>2026-04-04T10:15:23.95Z</time></trkpt><trkpt lat="45.5744733" lon="8.9020417"><ele>196.0</ele><time>2026-04-04T10:15:24.95Z</time></trkpt><trkpt lat="45.57468" lon="8.9021617"><ele>196.0</ele><time>2026-04-04T10:15:25.95Z</time></trkpt><trkpt lat="45.5748817" lon="8.9022767"><ele>196.0</ele><time>2026-04-04T10:15:26.95Z</time></trkpt><trkpt lat="45.5750683" lon="8.9023833"><ele>196.0</ele><time>2026-04-04T10:15:27.95Z</time></trkpt><trkpt lat="45.5752467" lon="8.90249"><ele>196.33333333333331</ele><time>2026-04-04T10:15:28.95Z</time></trkpt><trkpt lat="45.5754183" lon="8.9025983"><ele>196.66666666666669</ele><time>2026-04-04T10:15:29.95Z</time></trkpt><trkpt lat="45.5756033" lon="8.9027067"><ele>197.0</ele><time>2026-04-04T10:15:30.95Z</time></trkpt><trkpt lat="45.5758067" lon="8.9028217"><ele>197.0</ele><time>2026-04-04T10:15:31.95Z</time></trkpt><trkpt lat="45.57602" lon="8.9029433"><ele>197.0</ele><time>2026-04-04T10:15:32.949Z</time></trkpt><trkpt lat="45.57624" lon="8.9030733"><ele>197.0</ele><time>2026-04-04T10:15:33.95Z</time></trkpt><trkpt lat="45.5764533" lon="8.9032"><ele>197.0</ele><time>2026-04-04T10:15:34.95Z</time></trkpt><trkpt lat="45.5766567" lon="8.9033167"><ele>197.0</ele><time>2026-04-04T10:15:35.95Z</time></trkpt><trkpt lat="45.576845" lon="8.903435"><ele>197.0</ele><time>2026-04-04T10:15:36.95Z</time></trkpt><trkpt lat="45.57702" lon="8.9035333"><ele>197.0</ele><time>2026-04-04T10:15:37.95Z</time></trkpt><trkpt lat="45.5771967" lon="8.90363"><ele>197.0</ele><time>2026-04-04T10:15:38.95Z</time></trkpt><trkpt lat="45.5773683" lon="8.9037217"><ele>197.0</ele><time>2026-04-04T10:15:39.95Z</time></trkpt><trkpt lat="45.5775417" lon="8.90382"><ele>197.0</ele><time>2026-04-04T10:15:40.95Z</time></trkpt><trkpt lat="45.577715" lon="8.9039217"><ele>197.33333333333334</ele><time>2026-04-04T10:15:41.95Z</time></trkpt><trkpt lat="45.5778867" lon="8.9040233"><ele>197.66666666666669</ele><time>2026-04-04T10:15:42.95Z</time></trkpt><trkpt lat="45.5780517" lon="8.9041217"><ele>198.0</ele><time>2026-04-04T10:15:43.95Z</time></trkpt><trkpt lat="45.5782083" lon="8.9042167"><ele>198.0</ele><time>2026-04-04T10:15:44.95Z</time></trkpt><trkpt lat="45.578375" lon="8.9043133"><ele>198.0</ele><time>2026-04-04T10:15:45.95Z</time></trkpt><trkpt lat="45.5785333" lon="8.9044117"><ele>198.0</ele><time>2026-04-04T10:15:46.95Z</time></trkpt><trkpt lat="45.5786833" lon="8.9045083"><ele>198.66666666666669</ele><time>2026-04-04T10:15:47.95Z</time></trkpt><trkpt lat="45.578845" lon="8.9046133"><ele>199.33333333333334</ele><time>2026-04-04T10:15:48.95Z</time></trkpt><trkpt lat="45.5789967" lon="8.9047417"><ele>200.0</ele><time>2026-04-04T10:15:49.95Z</time></trkpt><trkpt lat="45.5791433" lon="8.9048583"><ele>200.0</ele><time>2026-04-04T10:15:50.95Z</time></trkpt><trkpt lat="45.5792867" lon="8.9049633"><ele>200.0</ele><time>2026-04-04T10:15:51.95Z</time></trkpt><trkpt lat="45.579425" lon="8.9050883"><ele>200.0</ele><time>2026-04-04T10:15:52.95Z</time></trkpt><trkpt lat="45.5795583" lon="8.9052183"><ele>200.25</ele><time>2026-04-04T10:15:53.95Z</time></trkpt><trkpt lat="45.57967" lon="8.90534"><ele>200.5</ele><time>2026-04-04T10:15:54.95Z</time></trkpt><trkpt lat="45.5797783" lon="8.9054567"><ele>200.75</ele><time>2026-04-04T10:15:55.95Z</time></trkpt><trkpt lat="45.5798767" lon="8.9055767"><ele>201.0</ele><time>2026-04-04T10:15:56.95Z</time></trkpt><trkpt lat="45.579975" lon="8.905705"><ele>201.0</ele><time>2026-04-04T10:15:57.95Z</time></trkpt><trkpt lat="45.580085" lon="8.9058317"><ele>201.0</ele><time>2026-04-04T10:15:58.95Z</time></trkpt><trkpt lat="45.580185" lon="8.9059567"><ele>201.0</ele><time>2026-04-04T10:15:59.95Z</time></trkpt><trkpt lat="45.58027" lon="8.9060733"><ele>201.0</ele><time>2026-04-04T10:16:00.95Z</time></trkpt><trkpt lat="45.5803567" lon="8.9061983"><ele>201.5</ele><time>2026-04-04T10:16:01.95Z</time></trkpt><trkpt lat="45.5804467" lon="8.906325"><ele>202.0</ele><time>2026-04-04T10:16:02.95Z</time></trkpt><trkpt lat="45.580535" lon="8.9064483"><ele>202.5</ele><time>2026-04-04T10:16:03.95Z</time></trkpt><trkpt lat="45.58061" lon="8.9065883"><ele>203.0</ele><time>2026-04-04T10:16:04.95Z</time></trkpt><trkpt lat="45.5806867" lon="8.906725"><ele>202.5</ele><time>2026-04-04T10:16:05.95Z</time></trkpt><trkpt lat="45.5807583" lon="8.9068533"><ele>202.0</ele><time>2026-04-04T10:16:06.95Z</time></trkpt><trkpt lat="45.5808283" lon="8.906995"><ele>201.5</ele><time>2026-04-04T10:16:07.95Z</time></trkpt><trkpt lat="45.5808933" lon="8.907135"><ele>201.0</ele><time>2026-04-04T10:16:08.95Z</time></trkpt><trkpt lat="45.580965" lon="8.90728"><ele>201.0</ele><time>2026-04-04T10:16:09.95Z</time></trkpt><trkpt lat="45.58104" lon="8.9074367"><ele>201.0</ele><time>2026-04-04T10:16:10.95Z</time></trkpt><trkpt lat="45.58111" lon="8.9076083"><ele>201.0</ele><time>2026-04-04T10:16:11.95Z</time></trkpt><trkpt lat="45.5811767" lon="8.9077883"><ele>201.0</ele><time>2026-04-04T10:16:12.95Z</time></trkpt><trkpt lat="45.581235" lon="8.907955"><ele>201.5</ele><time>2026-04-04T10:16:13.95Z</time></trkpt><trkpt lat="45.58129" lon="8.9081233"><ele>202.0</ele><time>2026-04-04T10:16:14.949Z</time></trkpt><trkpt lat="45.58136" lon="8.908295"><ele>202.5</ele><time>2026-04-04T10:16:15.95Z</time></trkpt><trkpt lat="45.5814417" lon="8.9085017"><ele>203.0</ele><time>2026-04-04T10:16:16.95Z</time></trkpt><trkpt lat="45.5815283" lon="8.9087317"><ele>203.0</ele><time>2026-04-04T10:16:17.95Z</time></trkpt><trkpt lat="45.581625" lon="8.9089767"><ele>203.0</ele><time>2026-04-04T10:16:18.95Z</time></trkpt><trkpt lat="45.5817133" lon="8.909205"><ele>203.0</ele><time>2026-04-04T10:16:19.95Z</time></trkpt><trkpt lat="45.5817833" lon="8.909415"><ele>203.33333333333334</ele><time>2026-04-04T10:16:20.95Z</time></trkpt><trkpt lat="45.5818483" lon="8.9096067"><ele>203.66666666666669</ele><time>2026-04-04T10:16:21.95Z</time></trkpt><trkpt lat="45.5819267" lon="8.9097933"><ele>204.0</ele><time>2026-04-04T10:16:22.949Z</time></trkpt><trkpt lat="45.5819917" lon="8.9099867"><ele>204.0</ele><time>2026-04-04T10:16:23.95Z</time></trkpt><trkpt lat="45.5820517" lon="8.9101767"><ele>204.0</ele><time>2026-04-04T10:16:24.95Z</time></trkpt><trkpt lat="45.5821283" lon="8.910335"><ele>204.0</ele><time>2026-04-04T10:16:25.95Z</time></trkpt><trkpt lat="45.5821783" lon="8.9104967"><ele>204.0</ele><time>2026-04-04T10:16:26.95Z</time></trkpt><trkpt lat="45.5822333" lon="8.9106433"><ele>204.0</ele><time>2026-04-04T10:16:27.95Z</time></trkpt><trkpt lat="45.5822833" lon="8.9107667"><ele>204.0</ele><time>2026-04-04T10:16:28.95Z</time></trkpt><trkpt lat="45.5823267" lon="8.91089"><ele>204.0</ele><time>2026-04-04T10:16:29.95Z</time></trkpt><trkpt lat="45.5823683" lon="8.91101"><ele>204.0</ele><time>2026-04-04T10:16:30.95Z</time></trkpt><trkpt lat="45.58241" lon="8.9111267"><ele>204.0</ele><time>2026-04-04T10:16:31.949Z</time></trkpt><trkpt lat="45.582455" lon="8.911235"><ele>204.0</ele><time>2026-04-04T10:16:32.95Z</time></trkpt><trkpt lat="45.58249" lon="8.9113417"><ele>204.0</ele><time>2026-04-04T10:16:33.95Z</time></trkpt><trkpt lat="45.5825133" lon="8.91144"><ele>204.0</ele><time>2026-04-04T10:16:34.95Z</time></trkpt><trkpt lat="45.582535" lon="8.9115267"><ele>204.0</ele><time>2026-04-04T10:16:35.949Z</time></trkpt><trkpt lat="45.582555" lon="8.9116567"><ele>204.0</ele><time>2026-04-04T10:16:37.95Z</time></trkpt><trkpt lat="45.5825683" lon="8.9117767"><ele>204.0</ele><time>2026-04-04T10:16:40.95Z</time></trkpt><trkpt lat="45.582595" lon="8.9119117"><ele>204.0</ele><time>2026-04-04T10:16:43.95Z</time></trkpt><trkpt lat="45.5825967" lon="8.912005"><ele>204.0</ele><time>2026-04-04T10:16:46.95Z</time></trkpt><trkpt lat="45.5826083" lon="8.9121033"><ele>204.0</ele><time>2026-04-04T10:16:49.95Z</time></trkpt><trkpt lat="45.5826283" lon="8.9122667"><ele>204.0</ele><time>2026-04-04T10:16:51.949Z</time></trkpt><trkpt lat="45.58266" lon="8.9123517"><ele>204.0</ele><time>2026-04-04T10:16:52.95Z</time></trkpt><trkpt lat="45.5827517" lon="8.9124783"><ele>204.0</ele><time>2026-04-04T10:16:54.95Z</time></trkpt><trkpt lat="45.582815" lon="8.9125367"><ele>204.0</ele><time>2026-04-04T10:16:55.95Z</time></trkpt><trkpt lat="45.5828817" lon="8.9126167"><ele>204.0</ele><time>2026-04-04T10:16:56.95Z</time></trkpt><trkpt lat="45.5829517" lon="8.9127183"><ele>204.0</ele><time>2026-04-04T10:16:57.95Z</time></trkpt><trkpt lat="45.583025" lon="8.9128333"><ele>204.0</ele><time>2026-04-04T10:16:58.95Z</time></trkpt><trkpt lat="45.5830983" lon="8.9129767"><ele>204.0</ele><time>2026-04-04T10:16:59.95Z</time></trkpt><trkpt lat="45.5831683" lon="8.913155"><ele>204.0</ele><time>2026-04-04T10:17:00.95Z</time></trkpt><trkpt lat="45.5832267" lon="8.91335"><ele>204.0</ele><time>2026-04-04T10:17:01.95Z</time></trkpt><trkpt lat="45.5833017" lon="8.91356"><ele>204.0</ele><time>2026-04-04T10:17:02.95Z</time></trkpt><trkpt lat="45.58338" lon="8.9137917"><ele>203.33333333333331</ele><time>2026-04-04T10:17:03.95Z</time></trkpt><trkpt lat="45.5834617" lon="8.9140367"><ele>202.66666666666666</ele><time>2026-04-04T10:17:04.95Z</time></trkpt><trkpt lat="45.5835567" lon="8.91429"><ele>202.0</ele><time>2026-04-04T10:17:05.95Z</time></trkpt><trkpt lat="45.58365" lon="8.9145433"><ele>202.33333333333331</ele><time>2026-04-04T10:17:06.95Z</time></trkpt><trkpt lat="45.5837417" lon="8.9148"><ele>202.66666666666669</ele><time>2026-04-04T10:17:07.95Z</time></trkpt><trkpt lat="45.5838383" lon="8.9150583"><ele>203.0</ele><time>2026-04-04T10:17:08.95Z</time></trkpt><trkpt lat="45.58393" lon="8.9153267"><ele>202.33333333333334</ele><time>2026-04-04T10:17:09.949Z</time></trkpt><trkpt lat="45.58402" lon="8.9155833"><ele>201.66666666666669</ele><time>2026-04-04T10:17:10.95Z</time></trkpt><trkpt lat="45.58412" lon="8.9158567"><ele>201.0</ele><time>2026-04-04T10:17:11.95Z</time></trkpt><trkpt lat="45.5842267" lon="8.9161233"><ele>200.66666666666669</ele><time>2026-04-04T10:17:12.95Z</time></trkpt><trkpt lat="45.58432" lon="8.9163833"><ele>200.33333333333334</ele><time>2026-04-04T10:17:13.95Z</time></trkpt><trkpt lat="45.58441" lon="8.9166333"><ele>200.0</ele><time>2026-04-04T10:17:14.949Z</time></trkpt><trkpt lat="45.5845017" lon="8.9168833"><ele>199.0</ele><time>2026-04-04T10:17:15.95Z</time></trkpt><trkpt lat="45.584595" lon="8.917125"><ele>198.0</ele><time>2026-04-04T10:17:16.95Z</time></trkpt><trkpt lat="45.5846883" lon="8.9173717"><ele>197.0</ele><time>2026-04-04T10:17:17.95Z</time></trkpt><trkpt lat="45.5847833" lon="8.91762"><ele>197.0</ele><time>2026-04-04T10:17:18.95Z</time></trkpt><trkpt lat="45.58488" lon="8.9178783"><ele>197.0</ele><time>2026-04-04T10:17:19.95Z</time></trkpt><trkpt lat="45.5849633" lon="8.9181517"><ele>197.0</ele><time>2026-04-04T10:17:20.949Z</time></trkpt><trkpt lat="45.58505" lon="8.9183967"><ele>197.66666666666669</ele><time>2026-04-04T10:17:21.95Z</time></trkpt><trkpt lat="45.5851333" lon="8.9186267"><ele>198.33333333333331</ele><time>2026-04-04T10:17:22.95Z</time></trkpt><trkpt lat="45.5852083" lon="8.91884"><ele>199.0</ele><time>2026-04-04T10:17:23.95Z</time></trkpt><trkpt lat="45.585265" lon="8.9190233"><ele>198.99999999999997</ele><time>2026-04-04T10:17:24.95Z</time></trkpt><trkpt lat="45.585315" lon="8.9191617"><ele>199.0</ele><time>2026-04-04T10:17:25.95Z</time></trkpt><trkpt lat="45.5853583" lon="8.9192783"><ele>199.0</ele><time>2026-04-04T10:17:26.95Z</time></trkpt><trkpt lat="45.5853883" lon="8.9193667"><ele>199.0</ele><time>2026-04-04T10:17:27.95Z</time></trkpt><trkpt lat="45.585435" lon="8.919485"><ele>198.99999999999997</ele><time>2026-04-04T10:17:29.95Z</time></trkpt><trkpt lat="45.5854767" lon="8.9195767"><ele>199.0</ele><time>2026-04-04T10:17:31.949Z</time></trkpt><trkpt lat="45.5855017" lon="8.9196733"><ele>199.0</ele><time>2026-04-04T10:17:33.95Z</time></trkpt><trkpt lat="45.585505" lon="8.9198333"><ele>199.0</ele><time>2026-04-04T10:17:35.95Z</time></trkpt><trkpt lat="45.5855033" lon="8.9199567"><ele>199.0</ele><time>2026-04-04T10:17:36.95Z</time></trkpt><trkpt lat="45.585525" lon="8.9200717"><ele>199.0</ele><time>2026-04-04T10:17:37.95Z</time></trkpt><trkpt lat="45.5855683" lon="8.9201817"><ele>199.0</ele><time>2026-04-04T10:17:38.95Z</time></trkpt><trkpt lat="45.5856217" lon="8.9202733"><ele>199.0</ele><time>2026-04-04T10:17:39.95Z</time></trkpt><trkpt lat="45.5857033" lon="8.9203667"><ele>199.0</ele><time>2026-04-04T10:17:40.95Z</time></trkpt><trkpt lat="45.5857867" lon="8.9205067"><ele>199.0</ele><time>2026-04-04T10:17:41.95Z</time></trkpt><trkpt lat="45.58587" lon="8.9207033"><ele>199.0</ele><time>2026-04-04T10:17:42.95Z</time></trkpt><trkpt lat="45.5859567" lon="8.9209233"><ele>199.0</ele><time>2026-04-04T10:17:43.949Z</time></trkpt><trkpt lat="45.586045" lon="8.9211767"><ele>199.0</ele><time>2026-04-04T10:17:44.95Z</time></trkpt><trkpt lat="45.5861517" lon="8.921445"><ele>199.0</ele><time>2026-04-04T10:17:45.95Z</time></trkpt><trkpt lat="45.58624" lon="8.921695"><ele>198.0</ele><time>2026-04-04T10:17:46.95Z</time></trkpt><trkpt lat="45.5863283" lon="8.9219283"><ele>197.0</ele><time>2026-04-04T10:17:47.95Z</time></trkpt><trkpt lat="45.58641" lon="8.9221517"><ele>196.0</ele><time>2026-04-04T10:17:48.95Z</time></trkpt><trkpt lat="45.5864867" lon="8.9223667"><ele>195.66666666666666</ele><time>2026-04-04T10:17:49.95Z</time></trkpt><trkpt lat="45.58656" lon="8.922575"><ele>195.33333333333331</ele><time>2026-04-04T10:17:50.95Z</time></trkpt><trkpt lat="45.5866417" lon="8.92279"><ele>195.0</ele><time>2026-04-04T10:17:51.949Z</time></trkpt><trkpt lat="45.58673" lon="8.923"><ele>195.0</ele><time>2026-04-04T10:17:52.95Z</time></trkpt><trkpt lat="45.5868133" lon="8.9232067"><ele>195.0</ele><time>2026-04-04T10:17:53.949Z</time></trkpt><trkpt lat="45.5869017" lon="8.92342"><ele>195.0</ele><time>2026-04-04T10:17:54.95Z</time></trkpt><trkpt lat="45.5869867" lon="8.9236467"><ele>195.33333333333331</ele><time>2026-04-04T10:17:55.949Z</time></trkpt><trkpt lat="45.5870633" lon="8.9238933"><ele>195.66666666666666</ele><time>2026-04-04T10:17:56.95Z</time></trkpt><trkpt lat="45.58715" lon="8.9241283"><ele>196.0</ele><time>2026-04-04T10:17:57.95Z</time></trkpt><trkpt lat="45.5872367" lon="8.9243733"><ele>196.33333333333331</ele><time>2026-04-04T10:17:58.949Z</time></trkpt><trkpt lat="45.587325" lon="8.9246183"><ele>196.66666666666669</ele><time>2026-04-04T10:17:59.95Z</time></trkpt><trkpt lat="45.5874117" lon="8.924875"><ele>197.0</ele><time>2026-04-04T10:18:00.95Z</time></trkpt><trkpt lat="45.5874883" lon="8.925115"><ele>196.0</ele><time>2026-04-04T10:18:01.95Z</time></trkpt><trkpt lat="45.5875617" lon="8.925335"><ele>195.0</ele><time>2026-04-04T10:18:02.95Z</time></trkpt><trkpt lat="45.58764" lon="8.9255433"><ele>194.0</ele><time>2026-04-04T10:18:03.95Z</time></trkpt><trkpt lat="45.5877083" lon="8.9257267"><ele>194.0</ele><time>2026-04-04T10:18:04.95Z</time></trkpt><trkpt lat="45.5877867" lon="8.9258917"><ele>194.0</ele><time>2026-04-04T10:18:05.95Z</time></trkpt><trkpt lat="45.58785" lon="8.9260483"><ele>194.0</ele><time>2026-04-04T10:18:06.95Z</time></trkpt><trkpt lat="45.58791" lon="8.9262017"><ele>194.0</ele><time>2026-04-04T10:18:07.949Z</time></trkpt><trkpt lat="45.5879617" lon="8.926345"><ele>194.6</ele><time>2026-04-04T10:18:08.949Z</time></trkpt><trkpt lat="45.5880133" lon="8.9264767"><ele>195.2</ele><time>2026-04-04T10:18:09.95Z</time></trkpt><trkpt lat="45.5880817" lon="8.9265883"><ele>195.79999999999998</ele><time>2026-04-04T10:18:10.949Z</time></trkpt><trkpt lat="45.5881433" lon="8.926715"><ele>196.39999999999998</ele><time>2026-04-04T10:18:11.949Z</time></trkpt><trkpt lat="45.5882067" lon="8.92685"><ele>197.0</ele><time>2026-04-04T10:18:12.949Z</time></trkpt><trkpt lat="45.588265" lon="8.92696"><ele>197.00000000000003</ele><time>2026-04-04T10:18:13.949Z</time></trkpt><trkpt lat="45.5883317" lon="8.9270817"><ele>197.0</ele><time>2026-04-04T10:18:15.948Z</time></trkpt><trkpt lat="45.588375" lon="8.9271617"><ele>197.0</ele><time>2026-04-04T10:18:18.949Z</time></trkpt><trkpt lat="45.5884233" lon="8.9272517"><ele>197.0</ele><time>2026-04-04T10:18:20.948Z</time></trkpt><trkpt lat="45.5884633" lon="8.9273217"><ele>197.00000000000003</ele><time>2026-04-04T10:18:21.949Z</time></trkpt><trkpt lat="45.5885083" lon="8.9273917"><ele>197.0</ele><time>2026-04-04T10:18:22.949Z</time></trkpt><trkpt lat="45.5885567" lon="8.9274583"><ele>197.00000000000003</ele><time>2026-04-04T10:18:23.949Z</time></trkpt><trkpt lat="45.5886083" lon="8.9275267"><ele>197.0</ele><time>2026-04-04T10:18:24.949Z</time></trkpt><trkpt lat="45.588665" lon="8.927615"><ele>197.0</ele><time>2026-04-04T10:18:25.949Z</time></trkpt><trkpt lat="45.58873" lon="8.927695"><ele>197.0</ele><time>2026-04-04T10:18:26.948Z</time></trkpt><trkpt lat="45.5887967" lon="8.927775"><ele>197.00000000000003</ele><time>2026-04-04T10:18:27.949Z</time></trkpt><trkpt lat="45.5888583" lon="8.9278567"><ele>197.0</ele><time>2026-04-04T10:18:28.949Z</time></trkpt><trkpt lat="45.5889367" lon="8.9279433"><ele>197.0</ele><time>2026-04-04T10:18:29.949Z</time></trkpt><trkpt lat="45.5890167" lon="8.92804"><ele>197.0</ele><time>2026-04-04T10:18:30.949Z</time></trkpt><trkpt lat="45.5890967" lon="8.928145"><ele>197.0</ele><time>2026-04-04T10:18:31.949Z</time></trkpt><trkpt lat="45.5891817" lon="8.9282367"><ele>197.0</ele><time>2026-04-04T10:18:32.949Z</time></trkpt><trkpt lat="45.5892617" lon="8.92833"><ele>197.0</ele><time>2026-04-04T10:18:33.949Z</time></trkpt><trkpt lat="45.5893483" lon="8.9284367"><ele>197.5</ele><time>2026-04-04T10:18:34.949Z</time></trkpt><trkpt lat="45.5894367" lon="8.9285333"><ele>198.0</ele><time>2026-04-04T10:18:35.949Z</time></trkpt><trkpt lat="45.58952" lon="8.9286383"><ele>198.5</ele><time>2026-04-04T10:18:36.949Z</time></trkpt><trkpt lat="45.589605" lon="8.9287417"><ele>199.0</ele><time>2026-04-04T10:18:37.949Z</time></trkpt><trkpt lat="45.589695" lon="8.9288517"><ele>199.0</ele><time>2026-04-04T10:18:38.949Z</time></trkpt><trkpt lat="45.5897817" lon="8.928965"><ele>199.0</ele><time>2026-04-04T10:18:39.949Z</time></trkpt><trkpt lat="45.5898683" lon="8.929085"><ele>199.0</ele><time>2026-04-04T10:18:40.948Z</time></trkpt><trkpt lat="45.58995" lon="8.9291917"><ele>199.0</ele><time>2026-04-04T10:18:41.949Z</time></trkpt><trkpt lat="45.5900333" lon="8.929295"><ele>198.99999999999997</ele><time>2026-04-04T10:18:42.949Z</time></trkpt><trkpt lat="45.5901117" lon="8.9293883"><ele>199.0</ele><time>2026-04-04T10:18:43.949Z</time></trkpt><trkpt lat="45.59018" lon="8.9294717"><ele>199.0</ele><time>2026-04-04T10:18:44.949Z</time></trkpt><trkpt lat="45.5902333" lon="8.9295517"><ele>199.0</ele><time>2026-04-04T10:18:45.949Z</time></trkpt><trkpt lat="45.59028" lon="8.9296183"><ele>198.99999999999997</ele><time>2026-04-04T10:18:46.949Z</time></trkpt><trkpt lat="45.590335" lon="8.9296667"><ele>199.0</ele><time>2026-04-04T10:18:47.949Z</time></trkpt><trkpt lat="45.59039" lon="8.9297317"><ele>198.99999999999997</ele><time>2026-04-04T10:18:49.949Z</time></trkpt><trkpt lat="45.590435" lon="8.9298033"><ele>199.0</ele><time>2026-04-04T10:19:24.949Z</time></trkpt><trkpt lat="45.5905433" lon="8.9298983"><ele>199.0</ele><time>2026-04-04T10:19:26.949Z</time></trkpt><trkpt lat="45.5906017" lon="8.9299617"><ele>199.0</ele><time>2026-04-04T10:19:27.949Z</time></trkpt><trkpt lat="45.5906567" lon="8.930035"><ele>198.99999999999997</ele><time>2026-04-04T10:19:28.948Z</time></trkpt><trkpt lat="45.5907167" lon="8.9301167"><ele>199.0</ele><time>2026-04-04T10:19:29.949Z</time></trkpt><trkpt lat="45.5907833" lon="8.9302033"><ele>198.79999999999998</ele><time>2026-04-04T10:19:30.949Z</time></trkpt><trkpt lat="45.59086" lon="8.9302867"><ele>198.6</ele><time>2026-04-04T10:19:31.949Z</time></trkpt><trkpt lat="45.5909367" lon="8.93037"><ele>198.4</ele><time>2026-04-04T10:19:32.949Z</time></trkpt><trkpt lat="45.5910233" lon="8.93046"><ele>198.2</ele><time>2026-04-04T10:19:33.949Z</time></trkpt><trkpt lat="45.5911117" lon="8.9305433"><ele>198.0</ele><time>2026-04-04T10:19:34.949Z</time></trkpt><trkpt lat="45.5912017" lon="8.9306333"><ele>198.25</ele><time>2026-04-04T10:19:35.949Z</time></trkpt><trkpt lat="45.5912833" lon="8.9307367"><ele>198.5</ele><time>2026-04-04T10:19:36.949Z</time></trkpt><trkpt lat="45.5913717" lon="8.9308617"><ele>198.75</ele><time>2026-04-04T10:19:37.949Z</time></trkpt><trkpt lat="45.5914717" lon="8.9309767"><ele>199.0</ele><time>2026-04-04T10:19:38.949Z</time></trkpt><trkpt lat="45.5915833" lon="8.931075"><ele>199.0</ele><time>2026-04-04T10:19:39.949Z</time></trkpt><trkpt lat="45.5916917" lon="8.9311783"><ele>199.0</ele><time>2026-04-04T10:19:40.949Z</time></trkpt><trkpt lat="45.5917867" lon="8.9313"><ele>199.0</ele><time>2026-04-04T10:19:41.949Z</time></trkpt><trkpt lat="45.5918817" lon="8.9314283"><ele>199.0</ele><time>2026-04-04T10:19:42.949Z</time></trkpt><trkpt lat="45.5919767" lon="8.93155"><ele>199.0</ele><time>2026-04-04T10:19:43.949Z</time></trkpt><trkpt lat="45.5920733" lon="8.9316733"><ele>199.0</ele><time>2026-04-04T10:19:44.949Z</time></trkpt><trkpt lat="45.5921683" lon="8.9318017"><ele>199.0</ele><time>2026-04-04T10:19:45.949Z</time></trkpt><trkpt lat="45.592275" lon="8.931915"><ele>199.0</ele><time>2026-04-04T10:19:46.949Z</time></trkpt><trkpt lat="45.59238" lon="8.9320283"><ele>199.0</ele><time>2026-04-04T10:19:47.949Z</time></trkpt><trkpt lat="45.5924783" lon="8.93214"><ele>199.0</ele><time>2026-04-04T10:19:48.949Z</time></trkpt><trkpt lat="45.5925733" lon="8.9322533"><ele>199.0</ele><time>2026-04-04T10:19:49.949Z</time></trkpt><trkpt lat="45.5926633" lon="8.9323567"><ele>199.0</ele><time>2026-04-04T10:19:50.949Z</time></trkpt><trkpt lat="45.5927483" lon="8.932455"><ele>198.99999999999997</ele><time>2026-04-04T10:19:51.949Z</time></trkpt><trkpt lat="45.5928217" lon="8.932545"><ele>199.0</ele><time>2026-04-04T10:19:52.949Z</time></trkpt><trkpt lat="45.5928917" lon="8.9326317"><ele>199.0</ele><time>2026-04-04T10:19:53.949Z</time></trkpt><trkpt lat="45.592955" lon="8.932715"><ele>199.0</ele><time>2026-04-04T10:19:54.948Z</time></trkpt><trkpt lat="45.593005" lon="8.932795"><ele>198.99999999999997</ele><time>2026-04-04T10:19:55.949Z</time></trkpt><trkpt lat="45.593055" lon="8.93286"><ele>199.0</ele><time>2026-04-04T10:19:56.949Z</time></trkpt><trkpt lat="45.5931067" lon="8.9329317"><ele>199.25</ele><time>2026-04-04T10:19:57.949Z</time></trkpt><trkpt lat="45.5931767" lon="8.9330483"><ele>199.5</ele><time>2026-04-04T10:19:59.949Z</time></trkpt><trkpt lat="45.59324" lon="8.9332483"><ele>199.75</ele><time>2026-04-04T10:20:15.949Z</time></trkpt><trkpt lat="45.5932617" lon="8.9333333"><ele>200.0</ele><time>2026-04-04T10:20:16.949Z</time></trkpt><trkpt lat="45.5933233" lon="8.9335067"><ele>200.00000000000003</ele><time>2026-04-04T10:20:18.949Z</time></trkpt><trkpt lat="45.5934117" lon="8.9335617"><ele>200.0</ele><time>2026-04-04T10:20:20.949Z</time></trkpt><trkpt lat="45.5934833" lon="8.9334817"><ele>200.0</ele><time>2026-04-04T10:20:22.948Z</time></trkpt><trkpt lat="45.5935017" lon="8.9333467"><ele>200.0</ele><time>2026-04-04T10:20:24.948Z</time></trkpt><trkpt lat="45.5935033" lon="8.9332567"><ele>200.00000000000003</ele><time>2026-04-04T10:20:25.949Z</time></trkpt><trkpt lat="45.5935083" lon="8.93314"><ele>200.0</ele><time>2026-04-04T10:20:26.949Z</time></trkpt><trkpt lat="45.5935267" lon="8.9330233"><ele>200.00000000000003</ele><time>2026-04-04T10:20:27.949Z</time></trkpt><trkpt lat="45.5935567" lon="8.9329183"><ele>200.0</ele><time>2026-04-04T10:20:28.949Z</time></trkpt><trkpt lat="45.5935967" lon="8.9328183"><ele>200.0</ele><time>2026-04-04T10:20:29.949Z</time></trkpt><trkpt lat="45.5936383" lon="8.9327167"><ele>200.0</ele><time>2026-04-04T10:20:30.949Z</time></trkpt><trkpt lat="45.5936767" lon="8.93261"><ele>200.00000000000003</ele><time>2026-04-04T10:20:31.949Z</time></trkpt><trkpt lat="45.5937117" lon="8.9325117"><ele>200.0</ele><time>2026-04-04T10:20:32.949Z</time></trkpt><trkpt lat="45.5937583" lon="8.9323783"><ele>200.00000000000003</ele><time>2026-04-04T10:20:34.948Z</time></trkpt><trkpt lat="45.593825" lon="8.9323483"><ele>200.0</ele><time>2026-04-04T10:20:38.948Z</time></trkpt><trkpt lat="45.5938817" lon="8.9324067"><ele>200.0</ele><time>2026-04-04T10:20:40.949Z</time></trkpt><trkpt lat="45.593975" lon="8.9325083"><ele>200.0</ele><time>2026-04-04T10:20:42.949Z</time></trkpt><trkpt lat="45.5940383" lon="8.9325867"><ele>200.00000000000003</ele><time>2026-04-04T10:20:43.948Z</time></trkpt><trkpt lat="45.594105" lon="8.9326767"><ele>200.0</ele><time>2026-04-04T10:20:44.949Z</time></trkpt><trkpt lat="45.5941783" lon="8.9327633"><ele>200.00000000000003</ele><time>2026-04-04T10:20:45.949Z</time></trkpt><trkpt lat="45.5942333" lon="8.9328433"><ele>200.0</ele><time>2026-04-04T10:20:46.949Z</time></trkpt><trkpt lat="45.594295" lon="8.93293"><ele>200.0</ele><time>2026-04-04T10:20:47.949Z</time></trkpt><trkpt lat="45.5943517" lon="8.932995"><ele>200.0</ele><time>2026-04-04T10:20:48.949Z</time></trkpt><trkpt lat="45.5944317" lon="8.9330683"><ele>200.00000000000003</ele><time>2026-04-04T10:20:50.949Z</time></trkpt><trkpt lat="45.5944967" lon="8.93314"><ele>200.0</ele><time>2026-04-04T10:20:52.949Z</time></trkpt><trkpt lat="45.5945933" lon="8.93326"><ele>200.16666666666669</ele><time>2026-04-04T10:20:54.949Z</time></trkpt><trkpt lat="45.5946433" lon="8.9333383"><ele>200.33333333333334</ele><time>2026-04-04T10:20:55.949Z</time></trkpt><trkpt lat="45.594705" lon="8.9334183"><ele>200.5</ele><time>2026-04-04T10:20:56.949Z</time></trkpt><trkpt lat="45.5947783" lon="8.9334917"><ele>200.66666666666669</ele><time>2026-04-04T10:20:57.949Z</time></trkpt><trkpt lat="45.5948667" lon="8.9335467"><ele>200.83333333333334</ele><time>2026-04-04T10:20:58.949Z</time></trkpt><trkpt lat="45.5949633" lon="8.9336017"><ele>201.0</ele><time>2026-04-04T10:20:59.949Z</time></trkpt><trkpt lat="45.5950717" lon="8.93366"><ele>201.0</ele><time>2026-04-04T10:21:00.949Z</time></trkpt><trkpt lat="45.59516" lon="8.93372"><ele>201.0</ele><time>2026-04-04T10:21:01.949Z</time></trkpt><trkpt lat="45.5952383" lon="8.9337767"><ele>201.0</ele><time>2026-04-04T10:21:02.949Z</time></trkpt><trkpt lat="45.5953033" lon="8.93383"><ele>201.0</ele><time>2026-04-04T10:21:03.949Z</time></trkpt><trkpt lat="45.595385" lon="8.9338933"><ele>201.0</ele><time>2026-04-04T10:21:05.949Z</time></trkpt><trkpt lat="45.59546" lon="8.933945"><ele>201.0</ele><time>2026-04-04T10:21:12.949Z</time></trkpt><trkpt lat="45.595515" lon="8.9339983"><ele>201.4</ele><time>2026-04-04T10:21:13.949Z</time></trkpt><trkpt lat="45.5956217" lon="8.9340383"><ele>201.8</ele><time>2026-04-04T10:21:15.949Z</time></trkpt><trkpt lat="45.59568" lon="8.9339633"><ele>202.20000000000002</ele><time>2026-04-04T10:21:17.948Z</time></trkpt><trkpt lat="45.5956983" lon="8.9338767"><ele>202.60000000000002</ele><time>2026-04-04T10:21:18.948Z</time></trkpt><trkpt lat="45.5957467" lon="8.933735"><ele>203.0</ele><time>2026-04-04T10:21:19.948Z</time></trkpt><trkpt lat="45.5957967" lon="8.9335117"><ele>202.66666666666669</ele><time>2026-04-04T10:21:20.948Z</time></trkpt><trkpt lat="45.59589" lon="8.9332183"><ele>202.33333333333331</ele><time>2026-04-04T10:21:21.948Z</time></trkpt><trkpt lat="45.5959867" lon="8.932945"><ele>202.0</ele><time>2026-04-04T10:21:22.948Z</time></trkpt><trkpt lat="45.5960783" lon="8.9326333"><ele>204.0</ele><time>2026-04-04T10:21:23.948Z</time></trkpt><trkpt lat="45.5961633" lon="8.932325"><ele>206.0</ele><time>2026-04-04T10:21:24.948Z</time></trkpt><trkpt lat="45.5962467" lon="8.9320133"><ele>205.5</ele><time>2026-04-04T10:21:25.948Z</time></trkpt><trkpt lat="45.5963267" lon="8.931705"><ele>205.0</ele><time>2026-04-04T10:21:26.948Z</time></trkpt><trkpt lat="45.5964017" lon="8.931405"><ele>205.0</ele><time>2026-04-04T10:21:27.948Z</time></trkpt><trkpt lat="45.5964833" lon="8.9311317"><ele>205.0</ele><time>2026-04-04T10:21:28.947Z</time></trkpt><trkpt lat="45.596565" lon="8.930855"><ele>205.0</ele><time>2026-04-04T10:21:29.948Z</time></trkpt><trkpt lat="45.5966433" lon="8.9306133"><ele>204.66666666666666</ele><time>2026-04-04T10:21:30.947Z</time></trkpt><trkpt lat="45.5967083" lon="8.9304117"><ele>204.33333333333331</ele><time>2026-04-04T10:21:31.947Z</time></trkpt><trkpt lat="45.5967783" lon="8.9302183"><ele>204.0</ele><time>2026-04-04T10:21:32.948Z</time></trkpt><trkpt lat="45.5968467" lon="8.9300283"><ele>204.0</ele><time>2026-04-04T10:21:33.948Z</time></trkpt><trkpt lat="45.5969117" lon="8.9298417"><ele>204.0</ele><time>2026-04-04T10:21:34.948Z</time></trkpt><trkpt lat="45.5969783" lon="8.9296333"><ele>204.0</ele><time>2026-04-04T10:21:35.948Z</time></trkpt><trkpt lat="45.59703" lon="8.9294217"><ele>204.33333333333331</ele><time>2026-04-04T10:21:36.948Z</time></trkpt><trkpt lat="45.5971033" lon="8.9291983"><ele>204.66666666666666</ele><time>2026-04-04T10:21:37.948Z</time></trkpt><trkpt lat="45.59716" lon="8.9289817"><ele>205.0</ele><time>2026-04-04T10:21:38.948Z</time></trkpt><trkpt lat="45.5972283" lon="8.9287783"><ele>205.0</ele><time>2026-04-04T10:21:39.947Z</time></trkpt><trkpt lat="45.5972867" lon="8.9286167"><ele>205.0</ele><time>2026-04-04T10:21:40.948Z</time></trkpt><trkpt lat="45.5973217" lon="8.92851"><ele>205.0</ele><time>2026-04-04T10:21:41.948Z</time></trkpt><trkpt lat="45.5973617" lon="8.928425"><ele>205.0</ele><time>2026-04-04T10:21:43.948Z</time></trkpt><trkpt lat="45.5974183" lon="8.9282567"><ele>205.0</ele><time>2026-04-04T10:21:52.948Z</time></trkpt><trkpt lat="45.597455" lon="8.9281333"><ele>205.0</ele><time>2026-04-04T10:21:53.948Z</time></trkpt><trkpt lat="45.5975017" lon="8.9280033"><ele>205.0</ele><time>2026-04-04T10:21:54.948Z</time></trkpt><trkpt lat="45.5975433" lon="8.9278717"><ele>205.0</ele><time>2026-04-04T10:21:55.948Z</time></trkpt><trkpt lat="45.59758" lon="8.9277467"><ele>205.0</ele><time>2026-04-04T10:21:56.948Z</time></trkpt><trkpt lat="45.597625" lon="8.9276383"><ele>205.0</ele><time>2026-04-04T10:21:57.948Z</time></trkpt><trkpt lat="45.5976617" lon="8.9275183"><ele>205.0</ele><time>2026-04-04T10:21:58.948Z</time></trkpt><trkpt lat="45.5977167" lon="8.9273733"><ele>205.0</ele><time>2026-04-04T10:21:59.948Z</time></trkpt><trkpt lat="45.5977683" lon="8.9272083"><ele>205.0</ele><time>2026-04-04T10:22:00.948Z</time></trkpt><trkpt lat="45.5978283" lon="8.92701"><ele>205.0</ele><time>2026-04-04T10:22:01.948Z</time></trkpt><trkpt lat="45.5978817" lon="8.9268133"><ele>205.0</ele><time>2026-04-04T10:22:02.948Z</time></trkpt><trkpt lat="45.5979267" lon="8.9266533"><ele>205.0</ele><time>2026-04-04T10:22:03.947Z</time></trkpt><trkpt lat="45.597945" lon="8.9264983"><ele>205.0</ele><time>2026-04-04T10:22:04.948Z</time></trkpt><trkpt lat="45.598" lon="8.9263217"><ele>205.0</ele><time>2026-04-04T10:22:05.948Z</time></trkpt><trkpt lat="45.598035" lon="8.926155"><ele>205.0</ele><time>2026-04-04T10:22:06.948Z</time></trkpt><trkpt lat="45.598065" lon="8.926005"><ele>205.0</ele><time>2026-04-04T10:22:07.948Z</time></trkpt><trkpt lat="45.5980983" lon="8.925865"><ele>205.0</ele><time>2026-04-04T10:22:08.948Z</time></trkpt><trkpt lat="45.598125" lon="8.92572"><ele>205.0</ele><time>2026-04-04T10:22:09.948Z</time></trkpt><trkpt lat="45.59816" lon="8.925575"><ele>205.0</ele><time>2026-04-04T10:22:10.948Z</time></trkpt><trkpt lat="45.59819" lon="8.9254267"><ele>204.8</ele><time>2026-04-04T10:22:11.948Z</time></trkpt><trkpt lat="45.59822" lon="8.92528"><ele>204.6</ele><time>2026-04-04T10:22:12.948Z</time></trkpt><trkpt lat="45.5982517" lon="8.9251417"><ele>204.39999999999998</ele><time>2026-04-04T10:22:13.948Z</time></trkpt><trkpt lat="45.5982817" lon="8.9250017"><ele>204.2</ele><time>2026-04-04T10:22:14.948Z</time></trkpt><trkpt lat="45.5983133" lon="8.924875"><ele>204.0</ele><time>2026-04-04T10:22:15.948Z</time></trkpt><trkpt lat="45.5983433" lon="8.9247333"><ele>204.0</ele><time>2026-04-04T10:22:16.948Z</time></trkpt><trkpt lat="45.5983533" lon="8.9246217"><ele>204.0</ele><time>2026-04-04T10:22:17.948Z</time></trkpt><trkpt lat="45.59838" lon="8.9245133"><ele>204.0</ele><time>2026-04-04T10:22:18.948Z</time></trkpt><trkpt lat="45.5984033" lon="8.9243933"><ele>204.0</ele><time>2026-04-04T10:22:19.948Z</time></trkpt><trkpt lat="45.5984267" lon="8.9242833"><ele>204.0</ele><time>2026-04-04T10:22:20.948Z</time></trkpt><trkpt lat="45.5984617" lon="8.92417"><ele>204.0</ele><time>2026-04-04T10:22:21.947Z</time></trkpt><trkpt lat="45.5984683" lon="8.9240383"><ele>204.0</ele><time>2026-04-04T10:22:22.947Z</time></trkpt><trkpt lat="45.5984867" lon="8.9238983"><ele>204.0</ele><time>2026-04-04T10:22:23.948Z</time></trkpt><trkpt lat="45.59851" lon="8.9237617"><ele>204.0</ele><time>2026-04-04T10:22:24.948Z</time></trkpt><trkpt lat="45.598535" lon="8.9236317"><ele>204.0</ele><time>2026-04-04T10:22:25.948Z</time></trkpt><trkpt lat="45.5985583" lon="8.923515"><ele>204.0</ele><time>2026-04-04T10:22:26.948Z</time></trkpt><trkpt lat="45.5985883" lon="8.9234117"><ele>204.33333333333334</ele><time>2026-04-04T10:22:27.948Z</time></trkpt><trkpt lat="45.5986167" lon="8.92326"><ele>204.66666666666669</ele><time>2026-04-04T10:22:29.948Z</time></trkpt><trkpt lat="45.59866" lon="8.9231717"><ele>205.0</ele><time>2026-04-04T10:22:32.948Z</time></trkpt><trkpt lat="45.5987167" lon="8.9231317"><ele>205.33333333333334</ele><time>2026-04-04T10:22:35.947Z</time></trkpt><trkpt lat="45.5987767" lon="8.92309"><ele>205.66666666666669</ele><time>2026-04-04T10:22:52.948Z</time></trkpt><trkpt lat="45.5988583" lon="8.92303"><ele>206.0</ele><time>2026-04-04T10:22:55.948Z</time></trkpt><trkpt lat="45.598945" lon="8.9231133"><ele>206.20000000000002</ele><time>2026-04-04T10:22:57.948Z</time></trkpt><trkpt lat="45.5990133" lon="8.9232133"><ele>206.4</ele><time>2026-04-04T10:22:58.948Z</time></trkpt><trkpt lat="45.5990867" lon="8.923325"><ele>206.6</ele><time>2026-04-04T10:22:59.948Z</time></trkpt><trkpt lat="45.5991567" lon="8.923415"><ele>206.8</ele><time>2026-04-04T10:23:00.948Z</time></trkpt><trkpt lat="45.5992417" lon="8.9235117"><ele>207.0</ele><time>2026-04-04T10:23:01.947Z</time></trkpt><trkpt lat="45.5993133" lon="8.9236183"><ele>207.0</ele><time>2026-04-04T10:23:02.948Z</time></trkpt><trkpt lat="45.5993833" lon="8.92374"><ele>207.0</ele><time>2026-04-04T10:23:03.947Z</time></trkpt><trkpt lat="45.599445" lon="8.9238567"><ele>207.0</ele><time>2026-04-04T10:23:04.948Z</time></trkpt><trkpt lat="45.59951" lon="8.9239383"><ele>207.0</ele><time>2026-04-04T10:23:05.948Z</time></trkpt><trkpt lat="45.5995617" lon="8.924005"><ele>207.0</ele><time>2026-04-04T10:23:06.948Z</time></trkpt><trkpt lat="45.5996183" lon="8.9240683"><ele>207.0</ele><time>2026-04-04T10:23:07.948Z</time></trkpt><trkpt lat="45.59968" lon="8.9241267"><ele>207.0</ele><time>2026-04-04T10:23:08.948Z</time></trkpt><trkpt lat="45.5997717" lon="8.924205"><ele>207.0</ele><time>2026-04-04T10:23:10.948Z</time></trkpt><trkpt lat="45.5998233" lon="8.9242567"><ele>207.0</ele><time>2026-04-04T10:23:13.948Z</time></trkpt><trkpt lat="45.59987" lon="8.924335"><ele>207.0</ele><time>2026-04-04T10:23:15.948Z</time></trkpt><trkpt lat="45.59991" lon="8.92441"><ele>207.0</ele><time>2026-04-04T10:23:16.948Z</time></trkpt><trkpt lat="45.599945" lon="8.924505"><ele>207.0</ele><time>2026-04-04T10:23:17.948Z</time></trkpt><trkpt lat="45.5999833" lon="8.9246083"><ele>207.0</ele><time>2026-04-04T10:23:18.948Z</time></trkpt><trkpt lat="45.6000233" lon="8.9247133"><ele>207.0</ele><time>2026-04-04T10:23:19.948Z</time></trkpt><trkpt lat="45.60007" lon="8.92483"><ele>207.0</ele><time>2026-04-04T10:23:20.948Z</time></trkpt><trkpt lat="45.600115" lon="8.9249317"><ele>207.0</ele><time>2026-04-04T10:23:21.948Z</time></trkpt><trkpt lat="45.600155" lon="8.92503"><ele>207.0</ele><time>2026-04-04T10:23:22.948Z</time></trkpt><trkpt lat="45.6001917" lon="8.9251217"><ele>207.0</ele><time>2026-04-04T10:23:23.948Z</time></trkpt><trkpt lat="45.6002283" lon="8.9252"><ele>207.16666666666666</ele><time>2026-04-04T10:23:24.948Z</time></trkpt><trkpt lat="45.6002617" lon="8.925285"><ele>207.33333333333331</ele><time>2026-04-04T10:23:25.948Z</time></trkpt><trkpt lat="45.6003017" lon="8.9253783"><ele>207.5</ele><time>2026-04-04T10:23:26.948Z</time></trkpt><trkpt lat="45.60034" lon="8.92548"><ele>207.66666666666666</ele><time>2026-04-04T10:23:27.948Z</time></trkpt><trkpt lat="45.6003767" lon="8.9255867"><ele>207.83333333333331</ele><time>2026-04-04T10:23:28.948Z</time></trkpt><trkpt lat="45.6004133" lon="8.9256967"><ele>208.0</ele><time>2026-04-04T10:23:29.948Z</time></trkpt><trkpt lat="45.6004517" lon="8.9258033"><ele>207.8</ele><time>2026-04-04T10:23:30.948Z</time></trkpt><trkpt lat="45.6004917" lon="8.9259133"><ele>207.60000000000002</ele><time>2026-04-04T10:23:31.947Z</time></trkpt><trkpt lat="45.6005267" lon="8.9259933"><ele>207.39999999999998</ele><time>2026-04-04T10:23:32.948Z</time></trkpt><trkpt lat="45.6005617" lon="8.9260717"><ele>207.2</ele><time>2026-04-04T10:23:33.948Z</time></trkpt><trkpt lat="45.60062" lon="8.926215"><ele>207.0</ele><time>2026-04-04T10:23:35.948Z</time></trkpt><trkpt lat="45.60069" lon="8.9263833"><ele>207.0</ele><time>2026-04-04T10:23:37.948Z</time></trkpt><trkpt lat="45.60074" lon="8.9264933"><ele>207.0</ele><time>2026-04-04T10:23:38.948Z</time></trkpt><trkpt lat="45.6008" lon="8.926615"><ele>207.0</ele><time>2026-04-04T10:23:39.948Z</time></trkpt><trkpt lat="45.6008633" lon="8.92675"><ele>207.0</ele><time>2026-04-04T10:23:40.948Z</time></trkpt><trkpt lat="45.6009283" lon="8.9268983"><ele>207.0</ele><time>2026-04-04T10:23:41.948Z</time></trkpt><trkpt lat="45.600995" lon="8.9270333"><ele>206.6</ele><time>2026-04-04T10:23:42.947Z</time></trkpt><trkpt lat="45.601045" lon="8.9271617"><ele>206.2</ele><time>2026-04-04T10:23:43.947Z</time></trkpt><trkpt lat="45.6010867" lon="8.92728"><ele>205.8</ele><time>2026-04-04T10:23:44.948Z</time></trkpt><trkpt lat="45.6011167" lon="8.9274017"><ele>205.4</ele><time>2026-04-04T10:23:45.948Z</time></trkpt><trkpt lat="45.6011633" lon="8.9275183"><ele>205.0</ele><time>2026-04-04T10:23:46.948Z</time></trkpt><trkpt lat="45.601225" lon="8.927625"><ele>204.5</ele><time>2026-04-04T10:23:47.948Z</time></trkpt><trkpt lat="45.6012983" lon="8.927735"><ele>204.0</ele><time>2026-04-04T10:23:48.948Z</time></trkpt><trkpt lat="45.6013783" lon="8.927855"><ele>203.5</ele><time>2026-04-04T10:23:49.948Z</time></trkpt><trkpt lat="45.6014717" lon="8.9279833"><ele>203.0</ele><time>2026-04-04T10:23:50.947Z</time></trkpt><trkpt lat="45.6015533" lon="8.9281067"><ele>203.0</ele><time>2026-04-04T10:23:51.948Z</time></trkpt><trkpt lat="45.6016367" lon="8.9282267"><ele>203.0</ele><time>2026-04-04T10:23:52.948Z</time></trkpt><trkpt lat="45.6017067" lon="8.92833"><ele>203.0</ele><time>2026-04-04T10:23:53.948Z</time></trkpt><trkpt lat="45.60178" lon="8.9284183"><ele>203.0</ele><time>2026-04-04T10:23:54.948Z</time></trkpt><trkpt lat="45.60185" lon="8.9284933"><ele>203.0</ele><time>2026-04-04T10:23:55.948Z</time></trkpt><trkpt lat="45.6019117" lon="8.928585"><ele>203.2</ele><time>2026-04-04T10:23:56.948Z</time></trkpt><trkpt lat="45.6019833" lon="8.928675"><ele>203.4</ele><time>2026-04-04T10:23:57.947Z</time></trkpt><trkpt lat="45.60206" lon="8.9287667"><ele>203.6</ele><time>2026-04-04T10:23:58.948Z</time></trkpt><trkpt lat="45.6021383" lon="8.9288617"><ele>203.79999999999998</ele><time>2026-04-04T10:23:59.948Z</time></trkpt><trkpt lat="45.60222" lon="8.928945"><ele>204.0</ele><time>2026-04-04T10:24:00.947Z</time></trkpt><trkpt lat="45.6022917" lon="8.9290383"><ele>204.39999999999998</ele><time>2026-04-04T10:24:01.948Z</time></trkpt><trkpt lat="45.6023783" lon="8.9291267"><ele>204.8</ele><time>2026-04-04T10:24:02.948Z</time></trkpt><trkpt lat="45.6024583" lon="8.9292333"><ele>205.2</ele><time>2026-04-04T10:24:03.948Z</time></trkpt><trkpt lat="45.6025467" lon="8.929335"><ele>205.60000000000002</ele><time>2026-04-04T10:24:04.948Z</time></trkpt><trkpt lat="45.6026283" lon="8.9294383"><ele>206.0</ele><time>2026-04-04T10:24:05.948Z</time></trkpt><trkpt lat="45.6027083" lon="8.9295367"><ele>206.20000000000002</ele><time>2026-04-04T10:24:06.947Z</time></trkpt><trkpt lat="45.6027883" lon="8.9296333"><ele>206.4</ele><time>2026-04-04T10:24:07.948Z</time></trkpt><trkpt lat="45.602875" lon="8.9297183"><ele>206.6</ele><time>2026-04-04T10:24:08.948Z</time></trkpt><trkpt lat="45.6029467" lon="8.9298133"><ele>206.8</ele><time>2026-04-04T10:24:09.947Z</time></trkpt><trkpt lat="45.6030217" lon="8.929905"><ele>207.0</ele><time>2026-04-04T10:24:10.948Z</time></trkpt><trkpt lat="45.6030883" lon="8.9299983"><ele>207.2</ele><time>2026-04-04T10:24:11.948Z</time></trkpt><trkpt lat="45.60315" lon="8.9300867"><ele>207.39999999999998</ele><time>2026-04-04T10:24:12.948Z</time></trkpt><trkpt lat="45.6032183" lon="8.9301783"><ele>207.60000000000002</ele><time>2026-04-04T10:24:13.948Z</time></trkpt><trkpt lat="45.6032883" lon="8.930265"><ele>207.8</ele><time>2026-04-04T10:24:14.948Z</time></trkpt><trkpt lat="45.6033667" lon="8.930345"><ele>208.0</ele><time>2026-04-04T10:24:15.948Z</time></trkpt><trkpt lat="45.603445" lon="8.9304067"><ele>207.99999999999997</ele><time>2026-04-04T10:24:16.946Z</time></trkpt><trkpt lat="45.603505" lon="8.9304667"><ele>208.0</ele><time>2026-04-04T10:24:17.947Z</time></trkpt><trkpt lat="45.6035867" lon="8.9305517"><ele>208.0</ele><time>2026-04-04T10:24:19.947Z</time></trkpt><trkpt lat="45.6036617" lon="8.930665"><ele>208.0</ele><time>2026-04-04T10:24:21.947Z</time></trkpt><trkpt lat="45.603715" lon="8.930735"><ele>207.99999999999997</ele><time>2026-04-04T10:24:22.946Z</time></trkpt><trkpt lat="45.60379" lon="8.9307933"><ele>208.0</ele><time>2026-04-04T10:24:23.947Z</time></trkpt><trkpt lat="45.603865" lon="8.9308783"><ele>208.0</ele><time>2026-04-04T10:24:24.947Z</time></trkpt><trkpt lat="45.6039367" lon="8.9309783"><ele>208.0</ele><time>2026-04-04T10:24:25.947Z</time></trkpt><trkpt lat="45.60401" lon="8.9310817"><ele>208.0</ele><time>2026-04-04T10:24:26.947Z</time></trkpt><trkpt lat="45.6040817" lon="8.9311867"><ele>208.0</ele><time>2026-04-04T10:24:27.947Z</time></trkpt><trkpt lat="45.6041433" lon="8.9312783"><ele>208.0</ele><time>2026-04-04T10:24:28.947Z</time></trkpt><trkpt lat="45.6041933" lon="8.9313483"><ele>208.0</ele><time>2026-04-04T10:24:29.947Z</time></trkpt><trkpt lat="45.6042833" lon="8.9314583"><ele>208.0</ele><time>2026-04-04T10:24:31.946Z</time></trkpt><trkpt lat="45.60436" lon="8.9316033"><ele>208.0</ele><time>2026-04-04T10:24:33.947Z</time></trkpt><trkpt lat="45.6044167" lon="8.9316783"><ele>208.0</ele><time>2026-04-04T10:24:34.947Z</time></trkpt><trkpt lat="45.6044833" lon="8.9317617"><ele>208.0</ele><time>2026-04-04T10:24:35.947Z</time></trkpt><trkpt lat="45.6045517" lon="8.9318567"><ele>208.75</ele><time>2026-04-04T10:24:36.946Z</time></trkpt><trkpt lat="45.6046267" lon="8.9319533"><ele>209.5</ele><time>2026-04-04T10:24:37.947Z</time></trkpt><trkpt lat="45.6047033" lon="8.9320533"><ele>210.25</ele><time>2026-04-04T10:24:38.947Z</time></trkpt><trkpt lat="45.604795" lon="8.9321817"><ele>211.0</ele><time>2026-04-04T10:24:39.947Z</time></trkpt><trkpt lat="45.6049283" lon="8.9323217"><ele>211.0</ele><time>2026-04-04T10:24:40.947Z</time></trkpt><trkpt lat="45.6050683" lon="8.9325"><ele>211.0</ele><time>2026-04-04T10:24:41.947Z</time></trkpt><trkpt lat="45.6052" lon="8.93272"><ele>211.0</ele><time>2026-04-04T10:24:42.946Z</time></trkpt><trkpt lat="45.60536" lon="8.9329433"><ele>215.5</ele><time>2026-04-04T10:24:43.946Z</time></trkpt><trkpt lat="45.6055167" lon="8.9331633"><ele>220.0</ele><time>2026-04-04T10:24:44.946Z</time></trkpt><trkpt lat="45.60568" lon="8.933435"><ele>220.0</ele><time>2026-04-04T10:24:45.947Z</time></trkpt><trkpt lat="45.6058383" lon="8.9337017"><ele>220.0</ele><time>2026-04-04T10:24:46.947Z</time></trkpt><trkpt lat="45.60597" lon="8.9339467"><ele>220.0</ele><time>2026-04-04T10:24:47.947Z</time></trkpt><trkpt lat="45.6060783" lon="8.9341917"><ele>220.0</ele><time>2026-04-04T10:24:48.947Z</time></trkpt><trkpt lat="45.6061633" lon="8.9344767"><ele>220.0</ele><time>2026-04-04T10:24:49.947Z</time></trkpt><trkpt lat="45.6062617" lon="8.9347717"><ele>219.5</ele><time>2026-04-04T10:24:50.947Z</time></trkpt><trkpt lat="45.606375" lon="8.9350733"><ele>219.0</ele><time>2026-04-04T10:24:51.947Z</time></trkpt><trkpt lat="45.6065183" lon="8.9354117"><ele>219.0</ele><time>2026-04-04T10:24:52.947Z</time></trkpt><trkpt lat="45.6066583" lon="8.9357783"><ele>219.0</ele><time>2026-04-04T10:24:53.947Z</time></trkpt><trkpt lat="45.6068083" lon="8.9361467"><ele>219.5</ele><time>2026-04-04T10:24:54.947Z</time></trkpt><trkpt lat="45.606975" lon="8.936535"><ele>220.0</ele><time>2026-04-04T10:24:55.947Z</time></trkpt><trkpt lat="45.60713" lon="8.9369317"><ele>220.0</ele><time>2026-04-04T10:24:56.947Z</time></trkpt><trkpt lat="45.6073133" lon="8.9373067"><ele>220.0</ele><time>2026-04-04T10:24:57.947Z</time></trkpt><trkpt lat="45.6074767" lon="8.9376767"><ele>219.5</ele><time>2026-04-04T10:24:58.947Z</time></trkpt><trkpt lat="45.6076317" lon="8.9380233"><ele>219.0</ele><time>2026-04-04T10:24:59.947Z</time></trkpt><trkpt lat="45.6077683" lon="8.938345"><ele>218.5</ele><time>2026-04-04T10:25:00.947Z</time></trkpt><trkpt lat="45.607895" lon="8.9386267"><ele>218.0</ele><time>2026-04-04T10:25:01.947Z</time></trkpt><trkpt lat="45.60802" lon="8.9388883"><ele>218.0</ele><time>2026-04-04T10:25:02.947Z</time></trkpt><trkpt lat="45.60816" lon="8.939145"><ele>218.0</ele><time>2026-04-04T10:25:03.947Z</time></trkpt><trkpt lat="45.608305" lon="8.9394017"><ele>218.0</ele><time>2026-04-04T10:25:04.947Z</time></trkpt><trkpt lat="45.6084433" lon="8.9396267"><ele>218.0</ele><time>2026-04-04T10:25:05.947Z</time></trkpt><trkpt lat="45.60859" lon="8.9398317"><ele>218.0</ele><time>2026-04-04T10:25:06.946Z</time></trkpt><trkpt lat="45.6087517" lon="8.9400083"><ele>218.66666666666669</ele><time>2026-04-04T10:25:07.947Z</time></trkpt><trkpt lat="45.60892" lon="8.9401433"><ele>219.33333333333331</ele><time>2026-04-04T10:25:08.947Z</time></trkpt><trkpt lat="45.6090833" lon="8.9402583"><ele>220.0</ele><time>2026-04-04T10:25:09.947Z</time></trkpt><trkpt lat="45.60923" lon="8.9403617"><ele>220.0</ele><time>2026-04-04T10:25:10.947Z</time></trkpt><trkpt lat="45.6093567" lon="8.94047"><ele>220.0</ele><time>2026-04-04T10:25:11.947Z</time></trkpt><trkpt lat="45.6094533" lon="8.9405783"><ele>220.0</ele><time>2026-04-04T10:25:12.946Z</time></trkpt><trkpt lat="45.609555" lon="8.940705"><ele>220.0</ele><time>2026-04-04T10:25:13.947Z</time></trkpt><trkpt lat="45.6096533" lon="8.9408517"><ele>219.33333333333331</ele><time>2026-04-04T10:25:14.947Z</time></trkpt><trkpt lat="45.60976" lon="8.9410383"><ele>218.66666666666669</ele><time>2026-04-04T10:25:15.947Z</time></trkpt><trkpt lat="45.6098733" lon="8.9412583"><ele>218.0</ele><time>2026-04-04T10:25:16.947Z</time></trkpt><trkpt lat="45.60999" lon="8.9415217"><ele>218.0</ele><time>2026-04-04T10:25:17.947Z</time></trkpt><trkpt lat="45.6100917" lon="8.9418083"><ele>218.0</ele><time>2026-04-04T10:25:18.947Z</time></trkpt><trkpt lat="45.6102017" lon="8.9421183"><ele>218.0</ele><time>2026-04-04T10:25:19.947Z</time></trkpt><trkpt lat="45.6103183" lon="8.9424233"><ele>218.0</ele><time>2026-04-04T10:25:20.946Z</time></trkpt><trkpt lat="45.610435" lon="8.9427217"><ele>218.5</ele><time>2026-04-04T10:25:21.946Z</time></trkpt><trkpt lat="45.6105633" lon="8.9430267"><ele>219.0</ele><time>2026-04-04T10:25:22.947Z</time></trkpt><trkpt lat="45.6106967" lon="8.9433117"><ele>219.33333333333331</ele><time>2026-04-04T10:25:23.947Z</time></trkpt><trkpt lat="45.6108267" lon="8.9435617"><ele>219.66666666666666</ele><time>2026-04-04T10:25:24.947Z</time></trkpt><trkpt lat="45.610935" lon="8.9438133"><ele>220.0</ele><time>2026-04-04T10:25:25.947Z</time></trkpt><trkpt lat="45.6110467" lon="8.94402"><ele>220.0</ele><time>2026-04-04T10:25:26.947Z</time></trkpt><trkpt lat="45.61115" lon="8.9442033"><ele>220.0</ele><time>2026-04-04T10:25:27.947Z</time></trkpt><trkpt lat="45.6112283" lon="8.9443783"><ele>220.0</ele><time>2026-04-04T10:25:28.947Z</time></trkpt><trkpt lat="45.6113067" lon="8.944525"><ele>220.0</ele><time>2026-04-04T10:25:29.947Z</time></trkpt><trkpt lat="45.6113683" lon="8.9446483"><ele>219.83333333333331</ele><time>2026-04-04T10:25:30.947Z</time></trkpt><trkpt lat="45.6114133" lon="8.9447367"><ele>219.66666666666666</ele><time>2026-04-04T10:25:31.947Z</time></trkpt><trkpt lat="45.6114717" lon="8.94485"><ele>219.5</ele><time>2026-04-04T10:25:33.946Z</time></trkpt><trkpt lat="45.6115233" lon="8.9449517"><ele>219.33333333333331</ele><time>2026-04-04T10:25:35.947Z</time></trkpt><trkpt lat="45.61157" lon="8.945035"><ele>219.16666666666666</ele><time>2026-04-04T10:25:38.947Z</time></trkpt><trkpt lat="45.6116217" lon="8.945125"><ele>219.0</ele><time>2026-04-04T10:25:45.946Z</time></trkpt><trkpt lat="45.6116583" lon="8.945215"><ele>219.0</ele><time>2026-04-04T10:25:46.947Z</time></trkpt><trkpt lat="45.6116683" lon="8.945345"><ele>219.0</ele><time>2026-04-04T10:25:47.947Z</time></trkpt><trkpt lat="45.6116883" lon="8.9454833"><ele>219.0</ele><time>2026-04-04T10:25:48.946Z</time></trkpt><trkpt lat="45.611705" lon="8.9455967"><ele>219.0</ele><time>2026-04-04T10:25:49.947Z</time></trkpt><trkpt lat="45.6117217" lon="8.94571"><ele>219.0</ele><time>2026-04-04T10:25:50.947Z</time></trkpt><trkpt lat="45.6117467" lon="8.9458267"><ele>219.0</ele><time>2026-04-04T10:25:51.946Z</time></trkpt><trkpt lat="45.61179" lon="8.9459267"><ele>219.0</ele><time>2026-04-04T10:25:52.947Z</time></trkpt><trkpt lat="45.6118517" lon="8.9459767"><ele>219.0</ele><time>2026-04-04T10:25:53.947Z</time></trkpt><trkpt lat="45.6119267" lon="8.9459883"><ele>219.0</ele><time>2026-04-04T10:25:54.947Z</time></trkpt><trkpt lat="45.6120117" lon="8.946"><ele>219.0</ele><time>2026-04-04T10:25:55.947Z</time></trkpt><trkpt lat="45.612105" lon="8.94604"><ele>219.0</ele><time>2026-04-04T10:25:56.947Z</time></trkpt><trkpt lat="45.612185" lon="8.9461133"><ele>219.0</ele><time>2026-04-04T10:25:57.947Z</time></trkpt><trkpt lat="45.612275" lon="8.9462317"><ele>219.0</ele><time>2026-04-04T10:25:58.947Z</time></trkpt><trkpt lat="45.6123917" lon="8.9464267"><ele>219.0</ele><time>2026-04-04T10:25:59.947Z</time></trkpt><trkpt lat="45.6125233" lon="8.9466533"><ele>219.0</ele><time>2026-04-04T10:26:00.947Z</time></trkpt><trkpt lat="45.61267" lon="8.94691"><ele>219.5</ele><time>2026-04-04T10:26:01.947Z</time></trkpt><trkpt lat="45.6128383" lon="8.9471667"><ele>220.0</ele><time>2026-04-04T10:26:02.947Z</time></trkpt><trkpt lat="45.6130417" lon="8.9473917"><ele>219.5</ele><time>2026-04-04T10:26:03.947Z</time></trkpt><trkpt lat="45.6132033" lon="8.9476517"><ele>219.0</ele><time>2026-04-04T10:26:04.947Z</time></trkpt><trkpt lat="45.6133583" lon="8.9479183"><ele>219.0</ele><time>2026-04-04T10:26:05.947Z</time></trkpt><trkpt lat="45.6134933" lon="8.9481217"><ele>219.0</ele><time>2026-04-04T10:26:06.947Z</time></trkpt><trkpt lat="45.613615" lon="8.948285"><ele>219.0</ele><time>2026-04-04T10:26:07.947Z</time></trkpt><trkpt lat="45.613705" lon="8.9484133"><ele>219.2</ele><time>2026-04-04T10:26:08.947Z</time></trkpt><trkpt lat="45.6137667" lon="8.9485333"><ele>219.39999999999998</ele><time>2026-04-04T10:26:09.947Z</time></trkpt><trkpt lat="45.6138283" lon="8.9486333"><ele>219.6</ele><time>2026-04-04T10:26:10.947Z</time></trkpt><trkpt lat="45.6138883" lon="8.9487233"><ele>219.8</ele><time>2026-04-04T10:26:11.947Z</time></trkpt><trkpt lat="45.613925" lon="8.9488033"><ele>220.0</ele><time>2026-04-04T10:26:12.947Z</time></trkpt><trkpt lat="45.61402" lon="8.94886"><ele>220.0</ele><time>2026-04-04T10:26:14.947Z</time></trkpt><trkpt lat="45.61412" lon="8.9487683"><ele>220.0</ele><time>2026-04-04T10:26:16.947Z</time></trkpt><trkpt lat="45.6141817" lon="8.9486517"><ele>220.0</ele><time>2026-04-04T10:26:17.947Z</time></trkpt><trkpt lat="45.6142817" lon="8.94851"><ele>220.0</ele><time>2026-04-04T10:26:18.947Z</time></trkpt><trkpt lat="45.6144083" lon="8.94835"><ele>220.0</ele><time>2026-04-04T10:26:19.947Z</time></trkpt><trkpt lat="45.6145483" lon="8.94819"><ele>220.0</ele><time>2026-04-04T10:26:20.947Z</time></trkpt><trkpt lat="45.6146533" lon="8.9480467"><ele>220.0</ele><time>2026-04-04T10:26:21.947Z</time></trkpt><trkpt lat="45.6147367" lon="8.94788"><ele>220.0</ele><time>2026-04-04T10:26:22.946Z</time></trkpt><trkpt lat="45.6147867" lon="8.94769"><ele>220.0</ele><time>2026-04-04T10:26:23.947Z</time></trkpt><trkpt lat="45.6148267" lon="8.947485"><ele>220.0</ele><time>2026-04-04T10:26:24.947Z</time></trkpt><trkpt lat="45.6148783" lon="8.9473017"><ele>220.0</ele><time>2026-04-04T10:26:25.946Z</time></trkpt><trkpt lat="45.614955" lon="8.947135"><ele>220.0</ele><time>2026-04-04T10:26:26.947Z</time></trkpt><trkpt lat="45.6150583" lon="8.946975"><ele>220.0</ele><time>2026-04-04T10:26:27.946Z</time></trkpt><trkpt lat="45.61519" lon="8.9467983"><ele>220.0</ele><time>2026-04-04T10:26:28.947Z</time></trkpt><trkpt lat="45.6153467" lon="8.9465983"><ele>221.0</ele><time>2026-04-04T10:26:29.947Z</time></trkpt><trkpt lat="45.6155083" lon="8.946395"><ele>222.0</ele><time>2026-04-04T10:26:30.947Z</time></trkpt><trkpt lat="45.6157167" lon="8.9461433"><ele>222.0</ele><time>2026-04-04T10:26:31.947Z</time></trkpt><trkpt lat="45.6158767" lon="8.9459467"><ele>222.0</ele><time>2026-04-04T10:26:32.947Z</time></trkpt><trkpt lat="45.6160267" lon="8.9457617"><ele>222.0</ele><time>2026-04-04T10:26:33.947Z</time></trkpt><trkpt lat="45.616155" lon="8.94561"><ele>222.0</ele><time>2026-04-04T10:26:34.947Z</time></trkpt><trkpt lat="45.616245" lon="8.9454983"><ele>222.0</ele><time>2026-04-04T10:26:35.947Z</time></trkpt><trkpt lat="45.6163033" lon="8.9454417"><ele>222.0</ele><time>2026-04-04T10:26:36.946Z</time></trkpt><trkpt lat="45.61638" lon="8.9453467"><ele>222.0</ele><time>2026-04-04T10:26:38.947Z</time></trkpt><trkpt lat="45.6164733" lon="8.9452233"><ele>222.0</ele><time>2026-04-04T10:26:40.947Z</time></trkpt><trkpt lat="45.6165333" lon="8.945135"><ele>222.0</ele><time>2026-04-04T10:26:41.947Z</time></trkpt><trkpt lat="45.616615" lon="8.9450217"><ele>222.0</ele><time>2026-04-04T10:26:42.947Z</time></trkpt><trkpt lat="45.6167167" lon="8.944895"><ele>222.0</ele><time>2026-04-04T10:26:43.947Z</time></trkpt><trkpt lat="45.61683" lon="8.9447583"><ele>222.0</ele><time>2026-04-04T10:26:44.946Z</time></trkpt><trkpt lat="45.61696" lon="8.94461"><ele>222.0</ele><time>2026-04-04T10:26:45.947Z</time></trkpt><trkpt lat="45.6170883" lon="8.94445"><ele>222.0</ele><time>2026-04-04T10:26:46.947Z</time></trkpt><trkpt lat="45.6172133" lon="8.9442867"><ele>222.0</ele><time>2026-04-04T10:26:47.947Z</time></trkpt><trkpt lat="45.6173283" lon="8.94413"><ele>222.33333333333331</ele><time>2026-04-04T10:26:48.947Z</time></trkpt><trkpt lat="45.6174467" lon="8.9439883"><ele>222.66666666666666</ele><time>2026-04-04T10:26:49.947Z</time></trkpt><trkpt lat="45.6175817" lon="8.9438417"><ele>223.0</ele><time>2026-04-04T10:26:50.947Z</time></trkpt><trkpt lat="45.6177033" lon="8.9436983"><ele>223.33333333333331</ele><time>2026-04-04T10:26:51.947Z</time></trkpt><trkpt lat="45.61783" lon="8.9435467"><ele>223.66666666666669</ele><time>2026-04-04T10:26:52.947Z</time></trkpt><trkpt lat="45.61795" lon="8.9433817"><ele>224.0</ele><time>2026-04-04T10:26:53.947Z</time></trkpt><trkpt lat="45.61807" lon="8.943235"><ele>224.0</ele><time>2026-04-04T10:26:54.947Z</time></trkpt><trkpt lat="45.6181833" lon="8.9431017"><ele>224.0</ele><time>2026-04-04T10:26:55.947Z</time></trkpt><trkpt lat="45.6182867" lon="8.9429683"><ele>224.0</ele><time>2026-04-04T10:26:56.947Z</time></trkpt><trkpt lat="45.618395" lon="8.9428383"><ele>224.0</ele><time>2026-04-04T10:26:57.947Z</time></trkpt><trkpt lat="45.6185033" lon="8.9427033"><ele>224.0</ele><time>2026-04-04T10:26:58.947Z</time></trkpt><trkpt lat="45.6186167" lon="8.942585"><ele>223.99999999999997</ele><time>2026-04-04T10:26:59.946Z</time></trkpt><trkpt lat="45.61871" lon="8.942465"><ele>223.99999999999997</ele><time>2026-04-04T10:27:00.947Z</time></trkpt><trkpt lat="45.618785" lon="8.9423717"><ele>224.0</ele><time>2026-04-04T10:27:01.947Z</time></trkpt><trkpt lat="45.618845" lon="8.9422933"><ele>224.0</ele><time>2026-04-04T10:27:02.947Z</time></trkpt><trkpt lat="45.618915" lon="8.9422083"><ele>224.2</ele><time>2026-04-04T10:27:04.947Z</time></trkpt><trkpt lat="45.6189967" lon="8.94218"><ele>224.39999999999998</ele><time>2026-04-04T10:27:08.947Z</time></trkpt><trkpt lat="45.6190767" lon="8.9422667"><ele>224.6</ele><time>2026-04-04T10:27:10.947Z</time></trkpt><trkpt lat="45.6191233" lon="8.9423467"><ele>224.8</ele><time>2026-04-04T10:27:11.946Z</time></trkpt><trkpt lat="45.6191767" lon="8.94247"><ele>225.0</ele><time>2026-04-04T10:27:12.947Z</time></trkpt><trkpt lat="45.6192467" lon="8.9426"><ele>225.0</ele><time>2026-04-04T10:27:13.947Z</time></trkpt><trkpt lat="45.61932" lon="8.9427533"><ele>225.0</ele><time>2026-04-04T10:27:14.947Z</time></trkpt><trkpt lat="45.6194017" lon="8.9429083"><ele>225.0</ele><time>2026-04-04T10:27:15.947Z</time></trkpt><trkpt lat="45.6194833" lon="8.9430633"><ele>225.0</ele><time>2026-04-04T10:27:16.947Z</time></trkpt><trkpt lat="45.619555" lon="8.9432067"><ele>225.0</ele><time>2026-04-04T10:27:17.947Z</time></trkpt><trkpt lat="45.6196117" lon="8.9433267"><ele>225.0</ele><time>2026-04-04T10:27:18.945Z</time></trkpt><trkpt lat="45.6196567" lon="8.9434217"><ele>225.0</ele><time>2026-04-04T10:27:19.946Z</time></trkpt><trkpt lat="45.6197033" lon="8.9435017"><ele>225.0</ele><time>2026-04-04T10:27:20.946Z</time></trkpt><trkpt lat="45.6197367" lon="8.94359"><ele>225.0</ele><time>2026-04-04T10:27:21.945Z</time></trkpt><trkpt lat="45.6197733" lon="8.9436717"><ele>225.0</ele><time>2026-04-04T10:27:22.946Z</time></trkpt><trkpt lat="45.6198233" lon="8.94377"><ele>225.0</ele><time>2026-04-04T10:27:23.946Z</time></trkpt><trkpt lat="45.6198717" lon="8.943875"><ele>225.0</ele><time>2026-04-04T10:27:24.946Z</time></trkpt><trkpt lat="45.6199333" lon="8.9439583"><ele>225.0</ele><time>2026-04-04T10:27:25.946Z</time></trkpt><trkpt lat="45.6199883" lon="8.9440617"><ele>225.0</ele><time>2026-04-04T10:27:26.946Z</time></trkpt><trkpt lat="45.62003" lon="8.944145"><ele>225.0</ele><time>2026-04-04T10:27:27.946Z</time></trkpt><trkpt lat="45.6200717" lon="8.94423"><ele>225.0</ele><time>2026-04-04T10:27:28.946Z</time></trkpt><trkpt lat="45.6201117" lon="8.9443183"><ele>225.0</ele><time>2026-04-04T10:27:29.946Z</time></trkpt><trkpt lat="45.620155" lon="8.9444033"><ele>225.0</ele><time>2026-04-04T10:27:30.946Z</time></trkpt><trkpt lat="45.6201933" lon="8.944485"><ele>225.0</ele><time>2026-04-04T10:27:31.946Z</time></trkpt><trkpt lat="45.6202633" lon="8.9446067"><ele>225.0</ele><time>2026-04-04T10:27:33.946Z</time></trkpt><trkpt lat="45.6203083" lon="8.9446883"><ele>225.0</ele><time>2026-04-04T10:27:35.946Z</time></trkpt><trkpt lat="45.6203867" lon="8.9447583"><ele>225.0</ele><time>2026-04-04T10:27:40.946Z</time></trkpt><trkpt lat="45.6204367" lon="8.9448517"><ele>225.0</ele><time>2026-04-04T10:27:43.945Z</time></trkpt><trkpt lat="45.6204917" lon="8.94494"><ele>225.0</ele><time>2026-04-04T10:27:46.946Z</time></trkpt><trkpt lat="45.6205583" lon="8.9448783"><ele>225.0</ele><time>2026-04-04T10:27:48.946Z</time></trkpt><trkpt lat="45.6205967" lon="8.9447983"><ele>225.0</ele><time>2026-04-04T10:27:49.946Z</time></trkpt><trkpt lat="45.6206533" lon="8.9447133"><ele>225.0</ele><time>2026-04-04T10:27:50.946Z</time></trkpt><trkpt lat="45.6207167" lon="8.944615"><ele>225.0</ele><time>2026-04-04T10:27:51.946Z</time></trkpt><trkpt lat="45.6207933" lon="8.9445133"><ele>225.0</ele><time>2026-04-04T10:27:52.946Z</time></trkpt><trkpt lat="45.62087" lon="8.9444"><ele>225.0</ele><time>2026-04-04T10:27:53.946Z</time></trkpt><trkpt lat="45.6209583" lon="8.944285"><ele>225.0</ele><time>2026-04-04T10:27:54.946Z</time></trkpt><trkpt lat="45.6210417" lon="8.9441733"><ele>225.0</ele><time>2026-04-04T10:27:55.946Z</time></trkpt><trkpt lat="45.6211283" lon="8.944065"><ele>225.25</ele><time>2026-04-04T10:27:56.946Z</time></trkpt><trkpt lat="45.6212183" lon="8.94395"><ele>225.5</ele><time>2026-04-04T10:27:57.946Z</time></trkpt><trkpt lat="45.6213167" lon="8.9438383"><ele>225.75</ele><time>2026-04-04T10:27:58.945Z</time></trkpt><trkpt lat="45.62141" lon="8.9437033"><ele>226.0</ele><time>2026-04-04T10:27:59.946Z</time></trkpt><trkpt lat="45.6215" lon="8.9435917"><ele>226.0</ele><time>2026-04-04T10:28:00.946Z</time></trkpt><trkpt lat="45.62159" lon="8.9434667"><ele>226.00000000000003</ele><time>2026-04-04T10:28:01.946Z</time></trkpt><trkpt lat="45.6216783" lon="8.9433717"><ele>226.00000000000003</ele><time>2026-04-04T10:28:02.946Z</time></trkpt><trkpt lat="45.6217467" lon="8.9432667"><ele>226.0</ele><time>2026-04-04T10:28:03.946Z</time></trkpt><trkpt lat="45.6218133" lon="8.94317"><ele>226.0</ele><time>2026-04-04T10:28:04.946Z</time></trkpt><trkpt lat="45.6218683" lon="8.94308"><ele>226.0</ele><time>2026-04-04T10:28:05.946Z</time></trkpt><trkpt lat="45.6219317" lon="8.942995"><ele>226.0</ele><time>2026-04-04T10:28:06.946Z</time></trkpt><trkpt lat="45.6219967" lon="8.9429083"><ele>226.0</ele><time>2026-04-04T10:28:07.946Z</time></trkpt><trkpt lat="45.6221117" lon="8.9428783"><ele>226.0</ele><time>2026-04-04T10:28:08.946Z</time></trkpt><trkpt lat="45.6222883" lon="8.9428517"><ele>226.33333333333331</ele><time>2026-04-04T10:28:09.946Z</time></trkpt><trkpt lat="45.6224167" lon="8.9427583"><ele>226.66666666666669</ele><time>2026-04-04T10:28:10.946Z</time></trkpt><trkpt lat="45.6225567" lon="8.9426283"><ele>227.0</ele><time>2026-04-04T10:28:11.946Z</time></trkpt><trkpt lat="45.6226717" lon="8.9425"><ele>227.0</ele><time>2026-04-04T10:28:12.946Z</time></trkpt><trkpt lat="45.6227667" lon="8.94237"><ele>227.0</ele><time>2026-04-04T10:28:13.946Z</time></trkpt><trkpt lat="45.6228583" lon="8.9422483"><ele>227.0</ele><time>2026-04-04T10:28:14.946Z</time></trkpt><trkpt lat="45.6229583" lon="8.9421333"><ele>227.0</ele><time>2026-04-04T10:28:15.945Z</time></trkpt><trkpt lat="45.6230333" lon="8.9420333"><ele>227.0</ele><time>2026-04-04T10:28:16.946Z</time></trkpt><trkpt lat="45.6231067" lon="8.94194"><ele>227.0</ele><time>2026-04-04T10:28:17.946Z</time></trkpt><trkpt lat="45.623185" lon="8.94184"><ele>227.0</ele><time>2026-04-04T10:28:18.945Z</time></trkpt><trkpt lat="45.6232733" lon="8.9417383"><ele>227.0</ele><time>2026-04-04T10:28:19.946Z</time></trkpt><trkpt lat="45.6233783" lon="8.9416533"><ele>227.0</ele><time>2026-04-04T10:28:20.946Z</time></trkpt><trkpt lat="45.623475" lon="8.9415883"><ele>227.0</ele><time>2026-04-04T10:28:21.946Z</time></trkpt><trkpt lat="45.6235783" lon="8.9415183"><ele>227.0</ele><time>2026-04-04T10:28:22.946Z</time></trkpt><trkpt lat="45.6236733" lon="8.941455"><ele>227.0</ele><time>2026-04-04T10:28:23.946Z</time></trkpt><trkpt lat="45.6237567" lon="8.9413867"><ele>227.0</ele><time>2026-04-04T10:28:24.946Z</time></trkpt><trkpt lat="45.6238333" lon="8.941345"><ele>227.0</ele><time>2026-04-04T10:28:25.946Z</time></trkpt><trkpt lat="45.6239233" lon="8.941295"><ele>227.33333333333334</ele><time>2026-04-04T10:28:26.946Z</time></trkpt><trkpt lat="45.6240117" lon="8.9412283"><ele>227.66666666666669</ele><time>2026-04-04T10:28:27.946Z</time></trkpt><trkpt lat="45.6240933" lon="8.9411717"><ele>228.0</ele><time>2026-04-04T10:28:28.946Z</time></trkpt><trkpt lat="45.6241667" lon="8.9411167"><ele>228.33333333333331</ele><time>2026-04-04T10:28:29.946Z</time></trkpt><trkpt lat="45.6242233" lon="8.9410767"><ele>228.66666666666666</ele><time>2026-04-04T10:28:30.946Z</time></trkpt><trkpt lat="45.62428" lon="8.9410333"><ele>229.0</ele><time>2026-04-04T10:28:31.946Z</time></trkpt><trkpt lat="45.6243367" lon="8.9409933"><ele>229.0</ele><time>2026-04-04T10:28:32.946Z</time></trkpt><trkpt lat="45.6244217" lon="8.9409433"><ele>228.99999999999997</ele><time>2026-04-04T10:28:34.946Z</time></trkpt><trkpt lat="45.6245233" lon="8.9408817"><ele>228.99999999999997</ele><time>2026-04-04T10:28:36.946Z</time></trkpt><trkpt lat="45.6245883" lon="8.940835"><ele>229.0</ele><time>2026-04-04T10:28:37.946Z</time></trkpt><trkpt lat="45.624665" lon="8.94077"><ele>229.0</ele><time>2026-04-04T10:28:38.946Z</time></trkpt><trkpt lat="45.6247483" lon="8.9407"><ele>229.39999999999998</ele><time>2026-04-04T10:28:39.946Z</time></trkpt><trkpt lat="45.6248383" lon="8.940625"><ele>229.79999999999998</ele><time>2026-04-04T10:28:40.946Z</time></trkpt><trkpt lat="45.6249267" lon="8.940565"><ele>230.20000000000002</ele><time>2026-04-04T10:28:41.946Z</time></trkpt><trkpt lat="45.6250267" lon="8.9405"><ele>230.60000000000002</ele><time>2026-04-04T10:28:42.946Z</time></trkpt><trkpt lat="45.6251117" lon="8.9404433"><ele>231.0</ele><time>2026-04-04T10:28:43.946Z</time></trkpt><trkpt lat="45.6252" lon="8.9403817"><ele>231.0</ele><time>2026-04-04T10:28:44.946Z</time></trkpt><trkpt lat="45.6252867" lon="8.9403167"><ele>231.00000000000003</ele><time>2026-04-04T10:28:45.946Z</time></trkpt><trkpt lat="45.6253767" lon="8.9402533"><ele>231.00000000000003</ele><time>2026-04-04T10:28:46.946Z</time></trkpt><trkpt lat="45.6254733" lon="8.9401833"><ele>231.0</ele><time>2026-04-04T10:28:47.946Z</time></trkpt><trkpt lat="45.6255767" lon="8.940125"><ele>231.0</ele><time>2026-04-04T10:28:48.946Z</time></trkpt><trkpt lat="45.6256633" lon="8.9400733"><ele>230.83333333333334</ele><time>2026-04-04T10:28:49.946Z</time></trkpt><trkpt lat="45.6257467" lon="8.9400233"><ele>230.66666666666669</ele><time>2026-04-04T10:28:50.946Z</time></trkpt><trkpt lat="45.6258067" lon="8.939975"><ele>230.5</ele><time>2026-04-04T10:28:51.945Z</time></trkpt><trkpt lat="45.6258733" lon="8.9399233"><ele>230.33333333333334</ele><time>2026-04-04T10:28:52.946Z</time></trkpt><trkpt lat="45.62598" lon="8.9398517"><ele>230.16666666666669</ele><time>2026-04-04T10:28:54.946Z</time></trkpt><trkpt lat="45.62604" lon="8.9398067"><ele>230.0</ele><time>2026-04-04T10:28:55.946Z</time></trkpt><trkpt lat="45.6261083" lon="8.939775"><ele>230.2</ele><time>2026-04-04T10:28:56.945Z</time></trkpt><trkpt lat="45.6261733" lon="8.9397267"><ele>230.4</ele><time>2026-04-04T10:28:57.946Z</time></trkpt><trkpt lat="45.626235" lon="8.9396817"><ele>230.60000000000002</ele><time>2026-04-04T10:28:58.946Z</time></trkpt><trkpt lat="45.6263133" lon="8.9396267"><ele>230.8</ele><time>2026-04-04T10:28:59.946Z</time></trkpt><trkpt lat="45.6264167" lon="8.9395583"><ele>231.0</ele><time>2026-04-04T10:29:00.946Z</time></trkpt><trkpt lat="45.6265233" lon="8.9394817"><ele>231.0</ele><time>2026-04-04T10:29:01.946Z</time></trkpt><trkpt lat="45.6266467" lon="8.9394033"><ele>231.0</ele><time>2026-04-04T10:29:02.946Z</time></trkpt><trkpt lat="45.6267733" lon="8.9393217"><ele>231.0</ele><time>2026-04-04T10:29:03.946Z</time></trkpt><trkpt lat="45.626925" lon="8.9392317"><ele>231.0</ele><time>2026-04-04T10:29:04.946Z</time></trkpt><trkpt lat="45.6270833" lon="8.939125"><ele>231.0</ele><time>2026-04-04T10:29:05.946Z</time></trkpt><trkpt lat="45.6272367" lon="8.93901"><ele>231.0</ele><time>2026-04-04T10:29:06.946Z</time></trkpt><trkpt lat="45.6273983" lon="8.9389117"><ele>231.0</ele><time>2026-04-04T10:29:07.946Z</time></trkpt><trkpt lat="45.6275467" lon="8.9388083"><ele>231.0</ele><time>2026-04-04T10:29:08.946Z</time></trkpt><trkpt lat="45.6276833" lon="8.938705"><ele>231.0</ele><time>2026-04-04T10:29:09.946Z</time></trkpt><trkpt lat="45.62781" lon="8.9386183"><ele>231.0</ele><time>2026-04-04T10:29:10.946Z</time></trkpt><trkpt lat="45.6279217" lon="8.93854"><ele>231.0</ele><time>2026-04-04T10:29:11.946Z</time></trkpt><trkpt lat="45.62802" lon="8.93847"><ele>231.4</ele><time>2026-04-04T10:29:12.946Z</time></trkpt><trkpt lat="45.628105" lon="8.9384067"><ele>231.8</ele><time>2026-04-04T10:29:13.946Z</time></trkpt><trkpt lat="45.628185" lon="8.93834"><ele>232.20000000000002</ele><time>2026-04-04T10:29:14.946Z</time></trkpt><trkpt lat="45.6282883" lon="8.938255"><ele>232.60000000000002</ele><time>2026-04-04T10:29:15.946Z</time></trkpt><trkpt lat="45.6284133" lon="8.938165"><ele>233.0</ele><time>2026-04-04T10:29:16.946Z</time></trkpt><trkpt lat="45.628565" lon="8.9380617"><ele>234.0</ele><time>2026-04-04T10:29:17.946Z</time></trkpt><trkpt lat="45.6287367" lon="8.9379633"><ele>235.0</ele><time>2026-04-04T10:29:18.946Z</time></trkpt><trkpt lat="45.628915" lon="8.937845"><ele>236.0</ele><time>2026-04-04T10:29:19.946Z</time></trkpt><trkpt lat="45.6291117" lon="8.9377067"><ele>236.0</ele><time>2026-04-04T10:29:20.946Z</time></trkpt><trkpt lat="45.629295" lon="8.9376017"><ele>236.0</ele><time>2026-04-04T10:29:21.946Z</time></trkpt><trkpt lat="45.6294633" lon="8.9374817"><ele>236.0</ele><time>2026-04-04T10:29:22.946Z</time></trkpt><trkpt lat="45.6296217" lon="8.93738"><ele>235.25</ele><time>2026-04-04T10:29:23.946Z</time></trkpt><trkpt lat="45.6297667" lon="8.9372933"><ele>234.5</ele><time>2026-04-04T10:29:24.946Z</time></trkpt><trkpt lat="45.629895" lon="8.9371983"><ele>233.75</ele><time>2026-04-04T10:29:25.946Z</time></trkpt><trkpt lat="45.6300217" lon="8.9371117"><ele>233.0</ele><time>2026-04-04T10:29:26.945Z</time></trkpt><trkpt lat="45.630145" lon="8.93703"><ele>233.0</ele><time>2026-04-04T10:29:27.946Z</time></trkpt><trkpt lat="45.6302517" lon="8.9369567"><ele>233.0</ele><time>2026-04-04T10:29:28.946Z</time></trkpt><trkpt lat="45.6303567" lon="8.93689"><ele>233.0</ele><time>2026-04-04T10:29:29.946Z</time></trkpt><trkpt lat="45.63045" lon="8.9368217"><ele>233.0</ele><time>2026-04-04T10:29:30.946Z</time></trkpt><trkpt lat="45.630545" lon="8.9367533"><ele>233.0</ele><time>2026-04-04T10:29:31.946Z</time></trkpt><trkpt lat="45.6306383" lon="8.9366933"><ele>233.60000000000002</ele><time>2026-04-04T10:29:32.946Z</time></trkpt><trkpt lat="45.6307183" lon="8.9366433"><ele>234.20000000000002</ele><time>2026-04-04T10:29:33.945Z</time></trkpt><trkpt lat="45.6308" lon="8.9365867"><ele>234.8</ele><time>2026-04-04T10:29:34.946Z</time></trkpt><trkpt lat="45.6308867" lon="8.9365283"><ele>235.4</ele><time>2026-04-04T10:29:35.946Z</time></trkpt><trkpt lat="45.630975" lon="8.9364717"><ele>236.0</ele><time>2026-04-04T10:29:36.946Z</time></trkpt><trkpt lat="45.6310633" lon="8.936415"><ele>235.66666666666669</ele><time>2026-04-04T10:29:37.945Z</time></trkpt><trkpt lat="45.6311417" lon="8.9363617"><ele>235.33333333333334</ele><time>2026-04-04T10:29:38.946Z</time></trkpt><trkpt lat="45.6312167" lon="8.9363067"><ele>235.0</ele><time>2026-04-04T10:29:39.946Z</time></trkpt><trkpt lat="45.6312817" lon="8.93625"><ele>234.66666666666669</ele><time>2026-04-04T10:29:40.946Z</time></trkpt><trkpt lat="45.63134" lon="8.9362083"><ele>234.33333333333334</ele><time>2026-04-04T10:29:41.946Z</time></trkpt><trkpt lat="45.6314133" lon="8.93618"><ele>234.0</ele><time>2026-04-04T10:29:43.946Z</time></trkpt><trkpt lat="45.6314867" lon="8.93623"><ele>234.0</ele><time>2026-04-04T10:29:47.946Z</time></trkpt><trkpt lat="45.6315217" lon="8.9363333"><ele>233.99999999999997</ele><time>2026-04-04T10:29:49.946Z</time></trkpt><trkpt lat="45.6315367" lon="8.936445"><ele>233.99999999999997</ele><time>2026-04-04T10:29:50.945Z</time></trkpt><trkpt lat="45.6315517" lon="8.936565"><ele>234.0</ele><time>2026-04-04T10:29:51.946Z</time></trkpt><trkpt lat="45.6315767" lon="8.936715"><ele>234.0</ele><time>2026-04-04T10:29:52.946Z</time></trkpt><trkpt lat="45.6316183" lon="8.9368783"><ele>234.25</ele><time>2026-04-04T10:29:53.946Z</time></trkpt><trkpt lat="45.6316567" lon="8.9370483"><ele>234.5</ele><time>2026-04-04T10:29:54.946Z</time></trkpt><trkpt lat="45.631705" lon="8.9372017"><ele>234.75</ele><time>2026-04-04T10:29:55.946Z</time></trkpt><trkpt lat="45.631745" lon="8.9373517"><ele>235.0</ele><time>2026-04-04T10:29:56.946Z</time></trkpt><trkpt lat="45.631785" lon="8.9375217"><ele>235.0</ele><time>2026-04-04T10:29:57.945Z</time></trkpt><trkpt lat="45.6318283" lon="8.9376983"><ele>235.0</ele><time>2026-04-04T10:29:58.946Z</time></trkpt><trkpt lat="45.63186" lon="8.9378717"><ele>235.0</ele><time>2026-04-04T10:29:59.946Z</time></trkpt><trkpt lat="45.63189" lon="8.9380483"><ele>235.0</ele><time>2026-04-04T10:30:00.946Z</time></trkpt><trkpt lat="45.631925" lon="8.9382333"><ele>234.75</ele><time>2026-04-04T10:30:01.946Z</time></trkpt><trkpt lat="45.6319583" lon="8.9384233"><ele>234.5</ele><time>2026-04-04T10:30:02.946Z</time></trkpt><trkpt lat="45.6319933" lon="8.9386033"><ele>234.25</ele><time>2026-04-04T10:30:03.945Z</time></trkpt><trkpt lat="45.6320283" lon="8.9387833"><ele>234.0</ele><time>2026-04-04T10:30:04.945Z</time></trkpt><trkpt lat="45.6320567" lon="8.9389517"><ele>234.0</ele><time>2026-04-04T10:30:05.946Z</time></trkpt><trkpt lat="45.63208" lon="8.9391217"><ele>234.0</ele><time>2026-04-04T10:30:06.946Z</time></trkpt><trkpt lat="45.6321133" lon="8.93929"><ele>234.0</ele><time>2026-04-04T10:30:07.946Z</time></trkpt><trkpt lat="45.6321417" lon="8.9394717"><ele>234.0</ele><time>2026-04-04T10:30:08.946Z</time></trkpt><trkpt lat="45.6321733" lon="8.9396583"><ele>234.5</ele><time>2026-04-04T10:30:09.946Z</time></trkpt><trkpt lat="45.6322033" lon="8.9398433"><ele>235.0</ele><time>2026-04-04T10:30:10.946Z</time></trkpt><trkpt lat="45.6322283" lon="8.9400233"><ele>235.5</ele><time>2026-04-04T10:30:11.945Z</time></trkpt><trkpt lat="45.6322583" lon="8.940195"><ele>236.0</ele><time>2026-04-04T10:30:12.946Z</time></trkpt><trkpt lat="45.6322783" lon="8.94036"><ele>236.0</ele><time>2026-04-04T10:30:13.945Z</time></trkpt><trkpt lat="45.6322983" lon="8.9405167"><ele>236.00000000000003</ele><time>2026-04-04T10:30:14.946Z</time></trkpt><trkpt lat="45.6323133" lon="8.9406467"><ele>236.00000000000003</ele><time>2026-04-04T10:30:15.946Z</time></trkpt><trkpt lat="45.63234" lon="8.94078"><ele>236.0</ele><time>2026-04-04T10:30:16.946Z</time></trkpt><trkpt lat="45.6323617" lon="8.940895"><ele>236.0</ele><time>2026-04-04T10:30:17.946Z</time></trkpt><trkpt lat="45.6323817" lon="8.94101"><ele>236.00000000000003</ele><time>2026-04-04T10:30:18.946Z</time></trkpt><trkpt lat="45.6324033" lon="8.94112"><ele>236.0</ele><time>2026-04-04T10:30:19.945Z</time></trkpt><trkpt lat="45.6324267" lon="8.9412333"><ele>236.0</ele><time>2026-04-04T10:30:20.946Z</time></trkpt><trkpt lat="45.6324467" lon="8.9413467"><ele>236.0</ele><time>2026-04-04T10:30:21.945Z</time></trkpt><trkpt lat="45.6324533" lon="8.9414533"><ele>236.00000000000003</ele><time>2026-04-04T10:30:22.945Z</time></trkpt><trkpt lat="45.63244" lon="8.94158"><ele>236.0</ele><time>2026-04-04T10:30:23.945Z</time></trkpt><trkpt lat="45.6324583" lon="8.9416883"><ele>235.66666666666669</ele><time>2026-04-04T10:30:24.944Z</time></trkpt><trkpt lat="45.6324883" lon="8.941795"><ele>235.33333333333334</ele><time>2026-04-04T10:30:25.945Z</time></trkpt><trkpt lat="45.63253" lon="8.9418783"><ele>235.0</ele><time>2026-04-04T10:30:26.945Z</time></trkpt><trkpt lat="45.632575" lon="8.94196"><ele>234.66666666666669</ele><time>2026-04-04T10:30:27.945Z</time></trkpt><trkpt lat="45.6326183" lon="8.9421083"><ele>234.33333333333334</ele><time>2026-04-04T10:30:29.944Z</time></trkpt><trkpt lat="45.6326217" lon="8.94224"><ele>234.0</ele><time>2026-04-04T10:30:31.945Z</time></trkpt><trkpt lat="45.6326983" lon="8.942255"><ele>234.0</ele><time>2026-04-04T10:30:52.945Z</time></trkpt><trkpt lat="45.63278" lon="8.942225"><ele>234.0</ele><time>2026-04-04T10:30:56.945Z</time></trkpt></trkseg></trk></gpx>